
Distance (Route):
Temperature : 1.8°C
Humidity : 0%
Pressure : 684.4hPa| Receiver | Frames | First received | Last received |
|---|---|---|---|
| OE5MMP-10 | 566 | 2026-09-03 23:07:09 | 2026-09-04 01:19:20 |
| DO3MHA-11 | 551 | 2026-09-03 22:48:14 | 2026-09-04 01:31:19 |
| BAUMI2-15 | 449 | 2026-09-03 23:17:12 | 2026-09-04 01:32:56 |
| OE5WHR-10 | 262 | 2026-09-03 23:05:03 | 2026-09-04 01:17:12 |
| OE5DRO-10 | 260 | 2026-09-03 22:58:17 | 2026-09-04 01:28:16 |
| DG1MFX-10 | 259 | 2026-09-03 22:49:05 | 2026-09-04 01:29:50 |
| PG1ADW-2 | 213 | 2026-09-03 23:10:06 | 2026-09-04 01:28:37 |
| OE5FHM-15 | 172 | 2026-09-03 23:21:06 | 2026-09-04 01:24:49 |
| OE8JPQ-2 | 148 | 2026-09-03 23:41:09 | 2026-09-04 01:00:39 |
| PETON7-10 | 141 | 2026-09-03 23:50:15 | 2026-09-04 00:39:41 |
| DL6DJ-15 | 137 | 2026-09-03 22:54:50 | 2026-09-04 01:14:39 |
| OE5DXL-15 | 134 | 2026-09-03 22:52:00 | 2026-09-04 01:31:27 |
| IN3HCDX | 114 | 2026-09-03 23:52:03 | 2026-09-04 01:19:30 |
| DB0UT-7 | 92 | 2026-09-03 23:11:04 | 2026-09-04 01:05:32 |
| OE5HKT-10 | 87 | 2026-09-03 23:32:02 | 2026-09-04 01:17:18 |
| DF3TZ-5 | 63 | 2026-09-03 23:16:05 | 2026-09-04 01:03:43 |
| DK5PH-5 | 59 | 2026-09-04 00:05:13 | 2026-09-04 00:50:46 |
| DF7PN | 48 | 2026-09-04 00:05:04 | 2026-09-04 00:52:11 |
| NBG1-10 | 44 | 2026-09-03 23:00:49 | 2026-09-04 01:16:32 |
| OE3JTB-15 | 31 | 2026-09-03 22:57:36 | 2026-09-04 01:21:02 |
| DB0ND-19 | 25 | 2026-09-03 23:03:03 | 2026-09-04 01:08:45 |
| OE5REO-15 | 16 | 2026-09-03 23:48:49 | 2026-09-03 23:55:46 |
| DL1ZP-14 | 15 | 2026-09-04 00:30:17 | 2026-09-04 00:46:19 |
| DO8TBO-1 | 9 | 2026-09-04 00:29:23 | 2026-09-04 00:48:48 |
| BIOWL1-15 | 8 | 2026-09-04 00:06:42 | 2026-09-04 00:38:02 |
| DH7VM-15 | 6 | 2026-09-03 23:27:42 | 2026-09-04 00:50:48 |
| IN3IJJ | 3 | 2026-09-04 00:19:39 | 2026-09-04 00:20:44 |
| DM0DOS-11 | 1 | 2026-09-04 00:22:36 | 2026-09-04 00:22:36 |
| DB0NH | 1 | 2026-09-04 01:08:52 | 2026-09-04 01:08:52 |
| Receiver | Date | Latitude | Longitude | Direction | Speed | Altitude | Climb | Temperature | Humidity | Pressure | Voltage | Killtimer | Uptime | BKT | XDATA |
|---|---|---|---|---|---|---|---|---|---|---|---|---|---|---|---|
| BAUMI2-15 | 2026-09-04 01:32:56 | 47.21532 | 12.85545 | 126° | 53km/h | 3399m | -1.0m/s | 1.8°C | 0% | 684.4hPa | 2.6V | 00:00:00 | 03:01:07 | 00:00:00 | |
| BAUMI2-15 | 2026-09-04 01:32:51 | 47.21566 | 12.85460 | 122° | 55km/h | 3403m | -0.8m/s | 1.7°C | 0% | 684.1hPa | 2.6V | 00:00:00 | 03:01:02 | 00:00:00 | |
| OE5DXL-15 | 2026-09-04 01:31:27 | 47.22263 | 12.84158 | 131° | 55km/h | 3573m | -2.6m/s | 0.4°C | 93.9% | 669.7hPa | 2.6V | 00:00:00 | 00:00:00 | 00:00:00 | |
| DO3MHA-11 | 2026-09-04 01:31:19 | 47.22336 | 12.84036 | 134° | 53km/h | 3594m | -2.7m/s | 0.3°C | 92.8% | 668.2hPa | 2.6V | 00:00:00 | 02:59:30 | 00:00:00 | |
| DO3MHA-11 | 2026-09-04 01:31:11 | 47.22403 | 12.83920 | 130° | 55km/h | 3616m | -2.8m/s | 0.1°C | 93.3% | 666.1hPa | 2.6V | 00:00:00 | 02:59:22 | 00:00:00 | |
| DO3MHA-11 | 2026-09-04 01:31:04 | 47.22463 | 12.83810 | 129° | 53km/h | 3635m | -2.7m/s | -0.0°C | 94.0% | 664.7hPa | 2.6V | 00:00:00 | 02:59:15 | 00:00:00 | |
| DO3MHA-11 | 2026-09-04 01:30:59 | 47.22506 | 12.83732 | 129° | 55km/h | 3648m | -2.5m/s | -0.1°C | 94.3% | 663.6hPa | 2.6V | 00:00:00 | 02:59:10 | 00:00:00 | |
| DO3MHA-11 | 2026-09-04 01:30:54 | 47.22551 | 12.83655 | 130° | 53km/h | 3661m | -2.6m/s | -0.2°C | 94.7% | 662.5hPa | 2.7V | 00:00:00 | 02:59:05 | 00:00:00 | |
| DO3MHA-11 | 2026-09-04 01:30:34 | 47.22726 | 12.83358 | 132° | 53km/h | 3710m | -2.7m/s | -0.6°C | 95.9% | 658.4hPa | 2.7V | 07:34:00 | 02:58:45 | 00:00:00 | |
| DO3MHA-11 | 2026-09-04 01:30:25 | 47.22808 | 12.83225 | 133° | 53km/h | 3734m | -2.9m/s | -0.8°C | 96.5% | 656.4hPa | 2.7V | 00:00:00 | 02:58:36 | 00:00:00 | |
| DO3MHA-11 | 2026-09-04 01:30:19 | 47.22862 | 12.83139 | 132° | 55km/h | 3751m | -2.6m/s | -1.0°C | 97.6% | 655.1hPa | 2.7V | 00:00:00 | 02:58:30 | 00:00:00 | |
| DO3MHA-11 | 2026-09-04 01:30:14 | 47.22909 | 12.83065 | 133° | 55km/h | 3766m | -3.3m/s | -1.1°C | 98.0% | 653.9hPa | 2.7V | 00:00:00 | 02:58:25 | 00:00:00 | |
| OE5DXL-15 | 2026-09-04 01:30:13 | 47.22919 | 12.83050 | 133° | 58km/h | 3769m | -3.0m/s | -1.1°C | 98.1% | 653.6hPa | 2.7V | 00:00:00 | 00:00:00 | 00:00:00 | |
| DO3MHA-11 | 2026-09-04 01:30:09 | 47.22957 | 12.82992 | 136° | 57km/h | 3782m | -3.4m/s | -1.2°C | 97.9% | 652.6hPa | 2.7V | 00:00:00 | 02:58:20 | 00:00:00 | |
| DO3MHA-11 | 2026-09-04 01:30:04 | 47.23010 | 12.82921 | 137° | 58km/h | 3798m | -3.1m/s | -0.9°C | 90.7% | 651.3hPa | 2.7V | 00:00:00 | 02:58:15 | 00:00:00 | |
| DO3MHA-11 | 2026-09-04 01:29:59 | 47.23066 | 12.82849 | 140° | 58km/h | 3815m | -3.3m/s | -0.6°C | 84.8% | 649.9hPa | 2.7V | 00:00:00 | 02:58:10 | 00:00:00 | |
| DO3MHA-11 | 2026-09-04 01:29:54 | 47.23123 | 12.82779 | 139° | 60km/h | 3833m | -3.4m/s | -0.6°C | 84.8% | 648.4hPa | 2.7V | 00:00:00 | 02:58:05 | 00:00:00 | |
| DG1MFX-10 | 2026-09-04 01:29:50 | 47.23158 | 12.82737 | 142° | 58km/h | 3844m | -3.9m/s | -0.3°C | 80.0% | 647.6hPa | 2.7V | 07:35:00 | 00:00:00 | 00:00:00 | |
| DO3MHA-11 | 2026-09-04 01:29:49 | 47.23181 | 12.82708 | 141° | 62km/h | 3851m | -3.4m/s | 0.1°C | 75.2% | 647.0hPa | 2.7V | 07:35:00 | 02:58:00 | 00:00:00 | |
| OE5DXL-15 | 2026-09-04 01:29:43 | 47.23255 | 12.82624 | 144° | 66km/h | 3873m | -3.5m/s | 0.3°C | 72.8% | 645.2hPa | 2.7V | 07:35:00 | 00:00:00 | 00:00:00 | |
| DO3MHA-11 | 2026-09-04 01:29:39 | 47.23305 | 12.82567 | 141° | 62km/h | 3887m | -3.6m/s | 0.3°C | 72.2% | 644.0hPa | 2.7V | 00:00:00 | 02:57:50 | 00:00:00 | |
| DO3MHA-11 | 2026-09-04 01:29:34 | 47.23367 | 12.82494 | 141° | 64km/h | 3906m | -3.7m/s | 0.4°C | 72.6% | 642.5hPa | 2.7V | 00:00:00 | 02:57:45 | 00:00:00 | |
| DO3MHA-11 | 2026-09-04 01:29:29 | 47.23430 | 12.82420 | 144° | 66km/h | 3924m | -3.5m/s | 0.4°C | 73.4% | 641.1hPa | 2.7V | 00:00:00 | 02:57:40 | 00:00:00 | |
| DO3MHA-11 | 2026-09-04 01:29:24 | 47.23495 | 12.82346 | 143° | 68km/h | 3942m | -3.5m/s | 0.3°C | 73.5% | 639.6hPa | 2.7V | 00:00:00 | 02:57:35 | 00:00:00 | |
| DO3MHA-11 | 2026-09-04 01:29:19 | 47.23561 | 12.82268 | 142° | 68km/h | 3960m | -3.5m/s | 0.2°C | 72.5% | 638.2hPa | 2.7V | 00:00:00 | 02:57:30 | 00:00:00 | |
| DG1MFX-10 | 2026-09-04 01:29:16 | 47.23588 | 12.82237 | 142° | 68km/h | 3967m | -3.3m/s | 0.2°C | 72.1% | 637.7hPa | 2.7V | 07:36:00 | 00:00:00 | 00:00:00 | |
| DO3MHA-11 | 2026-09-04 01:29:14 | 47.23628 | 12.82188 | 142° | 69km/h | 3977m | -3.7m/s | 0.1°C | 72.4% | 636.8hPa | 2.7V | 00:00:00 | 02:57:25 | 00:00:00 | |
| OE5DXL-15 | 2026-09-04 01:29:13 | 47.23642 | 12.82173 | 142° | 69km/h | 3981m | -3.7m/s | 0.1°C | 72.5% | 636.5hPa | 2.7V | 00:00:00 | 00:00:00 | 00:00:00 | |
| DO3MHA-11 | 2026-09-04 01:29:09 | 47.23696 | 12.82108 | 143° | 69km/h | 3996m | -3.7m/s | 0.0°C | 72.8% | 635.3hPa | 2.7V | 07:36:00 | 02:57:20 | 00:00:00 | |
| DO3MHA-11 | 2026-09-04 01:29:04 | 47.23764 | 12.82028 | 142° | 69km/h | 4014m | -3.8m/s | -0.1°C | 73.3% | 633.9hPa | 2.7V | 00:00:00 | 02:57:15 | 00:00:00 | |
| BAUMI2-15 | 2026-09-04 01:29:01 | 47.23805 | 12.81980 | 141° | 71km/h | 4025m | -3.8m/s | -0.1°C | 73.8% | 633.0hPa | 2.7V | 00:00:00 | 02:57:12 | 00:00:00 | |
| DO3MHA-11 | 2026-09-04 01:28:59 | 47.23832 | 12.81947 | 142° | 69km/h | 4032m | -3.8m/s | -0.2°C | 74.0% | 632.3hPa | 2.7V | 00:00:00 | 02:57:10 | 00:00:00 | |
| BAUMI2-15 | 2026-09-04 01:28:55 | 47.23887 | 12.81881 | 142° | 69km/h | 4047m | -3.8m/s | -0.3°C | 0% | 631.2hPa | 2.7V | 00:00:00 | 02:57:06 | 00:00:00 | |
| DO3MHA-11 | 2026-09-04 01:28:54 | 47.23901 | 12.81864 | 142° | 69km/h | 4051m | -3.7m/s | -0.3°C | 74.5% | 630.9hPa | 2.7V | 00:00:00 | 02:57:05 | 00:00:00 | |
| DO3MHA-11 | 2026-09-04 01:28:49 | 47.23969 | 12.81781 | 142° | 69km/h | 4070m | -3.8m/s | -0.3°C | 74.4% | 629.4hPa | 2.7V | 00:00:00 | 02:57:00 | 00:00:00 | |
| DO3MHA-11 | 2026-09-04 01:28:44 | 47.24037 | 12.81700 | 143° | 69km/h | 4089m | -3.7m/s | -0.2°C | 70.5% | 628.0hPa | 2.7V | 00:00:00 | 02:56:55 | 00:00:00 | |
| OE5DXL-15 | 2026-09-04 01:28:42 | 47.24064 | 12.81669 | 141° | 66km/h | 4096m | -3.8m/s | -0.0°C | 59.1% | 627.4hPa | 2.7V | 00:00:00 | 00:00:00 | 00:00:00 | |
| BAUMI2-15 | 2026-09-04 01:28:40 | 47.24092 | 12.81637 | 143° | 66km/h | 4104m | -3.7m/s | 0.2°C | 38.8% | 626.7hPa | 2.7V | 00:00:00 | 02:56:51 | 00:00:00 | |
| DO3MHA-11 | 2026-09-04 01:28:39 | 47.24105 | 12.81622 | 144° | 68km/h | 4107m | -3.7m/s | 0.3°C | 34.8% | 626.5hPa | 2.7V | 00:00:00 | 02:56:50 | 00:00:00 | |
| PG1ADW-2 | 2026-09-04 01:28:37 | 47.24132 | 12.81591 | 142° | 66km/h | 4115m | -3.5m/s | 0.3°C | 31.7% | 625.9hPa | 2.7V | 00:00:00 | 00:00:00 | 00:00:00 | |
| DO3MHA-11 | 2026-09-04 01:28:34 | 47.24173 | 12.81545 | 143° | 66km/h | 4126m | -3.7m/s | 0.5°C | 18.5% | 625.1hPa | 2.7V | 00:00:00 | 02:56:45 | 00:00:00 | |
| DO3MHA-11 | 2026-09-04 01:28:29 | 47.24238 | 12.81469 | 143° | 66km/h | 4144m | -3.7m/s | 0.5°C | 20.6% | 623.5hPa | 2.7V | 07:36:00 | 02:56:40 | 00:00:00 | |
| BAUMI2-15 | 2026-09-04 01:28:24 | 47.24304 | 12.81394 | 144° | 64km/h | 4163m | -3.6m/s | 0.4°C | 24.8% | 622.2hPa | 2.7V | 00:00:00 | 02:56:35 | 00:00:00 | |
| PG1ADW-2 | 2026-09-04 01:28:17 | 47.24396 | 12.81293 | 143° | 66km/h | 4190m | -3.6m/s | 0.3°C | 27.7% | 620.1hPa | 2.7V | 00:00:00 | 02:56:28 | 00:00:00 | |
| OE5DRO-10 | 2026-09-04 01:28:16 | 47.24408 | 12.81279 | 143° | 66km/h | 4194m | -3.7m/s | 0.2°C | 27.9% | 619.8hPa | 2.7V | 00:00:00 | 00:00:00 | 00:00:00 | |
| DO3MHA-11 | 2026-09-04 01:28:14 | 47.24435 | 12.81250 | 144° | 64km/h | 4201m | -3.8m/s | 0.2°C | 28.3% | 619.2hPa | 2.7V | 00:00:00 | 02:56:25 | 00:00:00 | |
| OE5DXL-15 | 2026-09-04 01:28:13 | 47.24448 | 12.81236 | 144° | 68km/h | 4205m | -3.6m/s | 0.2°C | 28.8% | 618.9hPa | 2.7V | 00:00:00 | 02:56:24 | 00:00:00 | |
| DO3MHA-11 | 2026-09-04 01:28:09 | 47.24501 | 12.81179 | 145° | 66km/h | 4220m | -3.7m/s | 0.1°C | 29.9% | 617.7hPa | 2.7V | 00:00:00 | 02:56:20 | 00:00:00 | |
| DO3MHA-11 | 2026-09-04 01:28:04 | 47.24568 | 12.81107 | 145° | 66km/h | 4239m | -3.7m/s | -0.0°C | 30.6% | 616.4hPa | 2.7V | 00:00:00 | 02:56:15 | 00:00:00 | |
| OE5DRO-10 | 2026-09-04 01:28:00 | 47.24621 | 12.81048 | 144° | 69km/h | 4254m | -4.1m/s | -0.1°C | 30.6% | 615.2hPa | 2.7V | 00:00:00 | 00:00:00 | 00:00:00 | |
| DO3MHA-11 | 2026-09-04 01:27:59 | 47.24634 | 12.81033 | 143° | 68km/h | 4258m | -4.0m/s | -0.1°C | 30.7% | 614.9hPa | 2.7V | 00:00:00 | 02:56:10 | 00:00:00 | |
| PG1ADW-2 | 2026-09-04 01:27:57 | 47.24661 | 12.81002 | 142° | 69km/h | 4266m | -3.9m/s | -0.1°C | 30.9% | 614.1hPa | 2.7V | 00:00:00 | 00:00:00 | 00:00:00 | |
| DO3MHA-11 | 2026-09-04 01:27:54 | 47.24702 | 12.80955 | 142° | 69km/h | 4278m | -3.7m/s | -0.1°C | 31.0% | 613.3hPa | 2.7V | 00:00:00 | 02:56:05 | 00:00:00 | |
| DO3MHA-11 | 2026-09-04 01:27:49 | 47.24770 | 12.80876 | 142° | 69km/h | 4297m | -3.7m/s | -0.1°C | 30.2% | 611.9hPa | 2.7V | 07:37:00 | 02:56:00 | 00:00:00 | |
| DO3MHA-11 | 2026-09-04 01:27:44 | 47.24840 | 12.80795 | 141° | 71km/h | 4317m | -3.8m/s | -0.2°C | 28.3% | 610.3hPa | 2.7V | 00:00:00 | 02:55:55 | 00:00:00 | |
| OE5DXL-15 | 2026-09-04 01:27:43 | 47.24853 | 12.80778 | 141° | 73km/h | 4321m | -4.2m/s | -0.2°C | 28.1% | 610.1hPa | 2.7V | 00:00:00 | 00:00:00 | 00:00:00 | |
| DO3MHA-11 | 2026-09-04 01:27:39 | 47.24910 | 12.80712 | 141° | 71km/h | 4336m | -3.9m/s | -0.3°C | 28.8% | 608.9hPa | 2.7V | 00:00:00 | 02:55:50 | 00:00:00 | |
| PG1ADW-2 | 2026-09-04 01:27:37 | 47.24938 | 12.80678 | 143° | 73km/h | 4344m | -4.0m/s | -0.4°C | 28.6% | 608.2hPa | 2.6V | 00:00:00 | 00:00:00 | 00:00:00 | |
| DO3MHA-11 | 2026-09-04 01:27:34 | 47.24980 | 12.80629 | 140° | 73km/h | 4356m | -4.0m/s | -0.5°C | 28.6% | 607.2hPa | 2.7V | 00:00:00 | 02:55:45 | 00:00:00 | |
| DG1MFX-10 | 2026-09-04 01:27:33 | 47.24980 | 12.80629 | 141° | 71km/h | 4356m | -4.1m/s | -0.5°C | 28.4% | 607.2hPa | 2.7V | 07:38:00 | 00:00:00 | 00:00:00 | |
| DO3MHA-11 | 2026-09-04 01:27:29 | 47.25051 | 12.80542 | 140° | 75km/h | 4376m | -4.1m/s | -0.6°C | 29.0% | 605.8hPa | 2.7V | 00:00:00 | 02:55:40 | 00:00:00 | |
| OE5DRO-10 | 2026-09-04 01:27:28 | 47.25065 | 12.80525 | 141° | 73km/h | 4380m | -4.2m/s | -0.7°C | 29.2% | 605.5hPa | 2.7V | 00:00:00 | 00:00:00 | 00:00:00 | |
| DO3MHA-11 | 2026-09-04 01:27:24 | 47.25123 | 12.80455 | 142° | 75km/h | 4396m | -4.1m/s | -0.8°C | 29.5% | 604.2hPa | 2.7V | 00:00:00 | 02:55:35 | 00:00:00 | |
| DO3MHA-11 | 2026-09-04 01:27:19 | 47.25197 | 12.80371 | 144° | 73km/h | 4417m | -4.2m/s | -1.0°C | 29.2% | 602.7hPa | 2.6V | 00:00:00 | 02:55:30 | 00:00:00 | |
| PG1ADW-2 | 2026-09-04 01:27:17 | 47.25227 | 12.80339 | 145° | 73km/h | 4425m | -4.1m/s | -1.0°C | 28.7% | 602.1hPa | 2.6V | 00:00:00 | 00:00:00 | 00:00:00 | |
| DO3MHA-11 | 2026-09-04 01:27:14 | 47.25272 | 12.80290 | 144° | 73km/h | 4437m | -4.0m/s | -0.9°C | 24.5% | 601.1hPa | 2.6V | 00:00:00 | 02:55:25 | 00:00:00 | |
| OE5DXL-15 | 2026-09-04 01:27:13 | 47.25287 | 12.80274 | 145° | 75km/h | 4442m | -4.2m/s | -0.7°C | 13.9% | 600.9hPa | 2.6V | 00:00:00 | 00:00:00 | 00:00:00 | |
| OE5DRO-10 | 2026-09-04 01:27:12 | 47.25302 | 12.80258 | 144° | 75km/h | 4446m | -4.3m/s | -0.6°C | 9.9% | 600.5hPa | 2.6V | 00:00:00 | 00:00:00 | 00:00:00 | |
| DO3MHA-11 | 2026-09-04 01:27:09 | 47.25347 | 12.80208 | 144° | 75km/h | 4458m | -4.0m/s | -0.5°C | 12.7% | 599.5hPa | 2.6V | 07:38:00 | 02:55:20 | 00:00:00 | |
| DO3MHA-11 | 2026-09-04 01:27:04 | 47.25424 | 12.80128 | 146° | 73km/h | 4479m | -4.1m/s | -0.6°C | 25.0% | 598.0hPa | 2.6V | 00:00:00 | 02:55:15 | 00:00:00 | |
| DO3MHA-11 | 2026-09-04 01:26:59 | 47.25501 | 12.80051 | 147° | 73km/h | 4499m | -4.2m/s | -0.7°C | 34.6% | 596.6hPa | 2.6V | 00:00:00 | 02:55:10 | 00:00:00 | |
| PG1ADW-2 | 2026-09-04 01:26:57 | 47.25533 | 12.80021 | 147° | 75km/h | 4508m | -4.1m/s | -0.8°C | 39.7% | 595.8hPa | 2.6V | 00:00:00 | 02:55:08 | 00:00:00 | |
| OE5DRO-10 | 2026-09-04 01:26:56 | 47.25548 | 12.80005 | 146° | 75km/h | 4512m | -4.1m/s | -0.8°C | 42.5% | 595.5hPa | 2.6V | 00:00:00 | 00:00:00 | 00:00:00 | |
| DO3MHA-11 | 2026-09-04 01:26:54 | 47.25579 | 12.79974 | 147° | 75km/h | 4520m | -4.0m/s | -0.9°C | 43.9% | 594.9hPa | 2.7V | 00:00:00 | 02:55:05 | 00:00:00 | |
| DG1MFX-10 | 2026-09-04 01:26:53 | 47.25579 | 12.79974 | 148° | 75km/h | 4520m | -4.1m/s | -0.9°C | 43.5% | 595.0hPa | 2.6V | 07:39:00 | 00:00:00 | 00:00:00 | |
| DO3MHA-11 | 2026-09-04 01:26:49 | 47.25658 | 12.79897 | 147° | 75km/h | 4541m | -4.3m/s | -1.1°C | 47.0% | 593.4hPa | 2.6V | 00:00:00 | 02:55:00 | 00:00:00 | |
| DO3MHA-11 | 2026-09-04 01:26:44 | 47.25738 | 12.79820 | 148° | 75km/h | 4563m | -4.0m/s | -1.3°C | 49.4% | 591.7hPa | 2.6V | 00:00:00 | 02:54:55 | 00:00:00 | |
| OE5DXL-15 | 2026-09-04 01:26:43 | 47.25753 | 12.79806 | 148° | 75km/h | 4567m | -4.2m/s | -1.3°C | 50.1% | 591.5hPa | 2.6V | 00:00:00 | 00:00:00 | 00:00:00 | |
| OE5DRO-10 | 2026-09-04 01:26:40 | 47.25801 | 12.79760 | 148° | 75km/h | 4580m | -4.1m/s | -1.4°C | 51.4% | 590.5hPa | 2.7V | 07:38:00 | 00:00:00 | 00:00:00 | |
| DO3MHA-11 | 2026-09-04 01:26:39 | 47.25817 | 12.79745 | 149° | 75km/h | 4584m | -4.0m/s | -1.5°C | 51.7% | 590.2hPa | 2.7V | 00:00:00 | 02:54:50 | 00:00:00 | |
| PG1ADW-2 | 2026-09-04 01:26:37 | 47.25849 | 12.79716 | 147° | 75km/h | 4592m | -4.1m/s | -1.5°C | 52.6% | 589.7hPa | 2.7V | 00:00:00 | 00:00:00 | 00:00:00 | |
| DO3MHA-11 | 2026-09-04 01:26:34 | 47.25897 | 12.79671 | 149° | 75km/h | 4604m | -3.9m/s | -1.7°C | 53.5% | 588.7hPa | 2.7V | 00:00:00 | 02:54:45 | 00:00:00 | |
| DG1MFX-10 | 2026-09-04 01:26:33 | 47.25912 | 12.79656 | 148° | 75km/h | 4609m | -4.2m/s | -1.8°C | 53.5% | 588.4hPa | 2.7V | 07:39:00 | 00:00:00 | 00:00:00 | |
| DO3MHA-11 | 2026-09-04 01:26:29 | 47.25977 | 12.79596 | 148° | 75km/h | 4625m | -4.1m/s | -1.9°C | 55.1% | 587.2hPa | 2.7V | 07:38:00 | 02:54:40 | 00:00:00 | |
| DO3MHA-11 | 2026-09-04 01:26:24 | 47.26057 | 12.79522 | 148° | 75km/h | 4646m | -4.0m/s | -2.0°C | 56.0% | 585.7hPa | 2.7V | 00:00:00 | 02:54:35 | 00:00:00 | |
| DO3MHA-11 | 2026-09-04 01:26:19 | 47.26138 | 12.79449 | 149° | 73km/h | 4666m | -3.9m/s | -2.2°C | 57.7% | 584.2hPa | 2.7V | 00:00:00 | 02:54:30 | 00:00:00 | |
| PG1ADW-2 | 2026-09-04 01:26:17 | 47.26169 | 12.79421 | 149° | 73km/h | 4675m | -4.0m/s | -2.3°C | 58.0% | 583.6hPa | 2.7V | 07:38:00 | 00:00:00 | 00:00:00 | |
| DO3MHA-11 | 2026-09-04 01:26:14 | 47.26218 | 12.79379 | 149° | 73km/h | 4687m | -4.0m/s | -2.4°C | 58.6% | 582.7hPa | 2.7V | 00:00:00 | 02:54:25 | 00:00:00 | |
| OE5DXL-15 | 2026-09-04 01:26:13 | 47.26233 | 12.79364 | 149° | 73km/h | 4691m | -3.9m/s | -2.5°C | 58.9% | 582.4hPa | 2.7V | 00:00:00 | 00:00:00 | 00:00:00 | |
| DG1MFX-10 | 2026-09-04 01:26:12 | 47.26233 | 12.79364 | 149° | 75km/h | 4691m | -4.0m/s | -2.5°C | 58.3% | 582.4hPa | 2.7V | 07:39:00 | 00:00:00 | 00:00:00 | |
| DO3MHA-11 | 2026-09-04 01:26:08 | 47.26313 | 12.79294 | 149° | 73km/h | 4711m | -3.9m/s | -2.7°C | 60.3% | 580.9hPa | 2.7V | 00:00:00 | 02:54:19 | 00:00:00 | |
| DO3MHA-11 | 2026-09-04 01:26:03 | 47.26393 | 12.79224 | 149° | 73km/h | 4731m | -3.9m/s | -2.8°C | 62.5% | 579.4hPa | 2.6V | 00:00:00 | 02:54:14 | 00:00:00 | |
| DO3MHA-11 | 2026-09-04 01:25:58 | 47.26473 | 12.79154 | 150° | 73km/h | 4751m | -4.0m/s | -3.0°C | 63.7% | 577.9hPa | 2.6V | 00:00:00 | 02:54:09 | 00:00:00 | |
| PG1ADW-2 | 2026-09-04 01:25:57 | 47.26490 | 12.79140 | 151° | 71km/h | 4755m | -4.0m/s | -3.0°C | 63.8% | 577.7hPa | 2.6V | 00:00:00 | 00:00:00 | 00:00:00 | |
| DO3MHA-11 | 2026-09-04 01:25:53 | 47.26553 | 12.79086 | 150° | 71km/h | 4772m | -3.9m/s | -3.2°C | 64.3% | 576.5hPa | 2.6V | 00:00:00 | 02:54:04 | 00:00:00 | |
| OE5DRO-10 | 2026-09-04 01:25:52 | 47.26569 | 12.79073 | 150° | 71km/h | 4776m | -4.1m/s | -3.2°C | 64.5% | 575.9hPa | 2.7V | 00:00:00 | 00:00:00 | 00:00:00 | |
| DG1MFX-10 | 2026-09-04 01:25:51 | 47.26569 | 12.79073 | 151° | 71km/h | 4776m | -4.1m/s | -3.3°C | 63.8% | 576.0hPa | 2.7V | 07:40:00 | 00:00:00 | 00:00:00 | |
| DO3MHA-11 | 2026-09-04 01:25:48 | 47.26630 | 12.79018 | 150° | 71km/h | 4793m | -3.9m/s | -3.4°C | 65.1% | 574.9hPa | 2.7V | 07:39:00 | 02:53:59 | 00:00:00 | |
| BAUMI2-15 | 2026-09-04 01:25:46 | 47.26661 | 12.78990 | 149° | 71km/h | 4801m | -4.1m/s | -3.4°C | 65.3% | 574.5hPa | 2.7V | 07:39:00 | 02:53:57 | 00:00:00 | |
| DO3MHA-11 | 2026-09-04 01:25:43 | 47.26708 | 12.78950 | 151° | 69km/h | 4813m | -3.7m/s | -3.5°C | 66.2% | 573.5hPa | 2.7V | 00:00:00 | 02:53:54 | 00:00:00 | |
| BAUMI2-15 | 2026-09-04 01:25:41 | 47.26738 | 12.78923 | 149° | 71km/h | 4821m | -3.9m/s | -3.6°C | 66.8% | 573.0hPa | 2.7V | 00:00:00 | 02:53:52 | 00:00:00 | |
| DO3MHA-11 | 2026-09-04 01:25:38 | 47.26784 | 12.78883 | 148° | 71km/h | 4833m | -3.9m/s | -3.7°C | 67.2% | 572.0hPa | 2.7V | 00:00:00 | 02:53:49 | 00:00:00 | |
| PG1ADW-2 | 2026-09-04 01:25:37 | 47.26799 | 12.78869 | 148° | 71km/h | 4837m | -3.8m/s | -3.7°C | 67.4% | 571.8hPa | 2.5V | 00:00:00 | 02:53:48 | 00:00:00 | |
| DO3MHA-11 | 2026-09-04 01:25:33 | 47.26861 | 12.78813 | 149° | 73km/h | 4852m | -4.0m/s | -3.8°C | 68.8% | 570.7hPa | 2.7V | 00:00:00 | 02:53:44 | 00:00:00 | |
| DG1MFX-10 | 2026-09-04 01:25:30 | 47.26892 | 12.78785 | 150° | 73km/h | 4860m | -4.0m/s | -3.9°C | 67.3% | 570.2hPa | 2.7V | 07:40:00 | 00:00:00 | 00:00:00 | |
| DO3MHA-11 | 2026-09-04 01:25:28 | 47.26939 | 12.78742 | 147° | 71km/h | 4872m | -3.6m/s | -4.0°C | 68.6% | 569.2hPa | 2.7V | 00:00:00 | 02:53:39 | 00:00:00 | |
| BAUMI2-15 | 2026-09-04 01:25:27 | 47.26955 | 12.78727 | 148° | 71km/h | 4876m | -3.7m/s | -4.0°C | 68.5% | 568.9hPa | 2.7V | 00:00:00 | 02:53:38 | 00:00:00 | |
| DO3MHA-11 | 2026-09-04 01:25:23 | 47.27016 | 12.78669 | 147° | 71km/h | 4891m | -4.0m/s | -4.1°C | 68.8% | 567.8hPa | 2.7V | 00:00:00 | 02:53:34 | 00:00:00 | |
| OE5DRO-10 | 2026-09-04 01:25:20 | 47.27061 | 12.78626 | 147° | 71km/h | 4903m | -3.8m/s | -4.2°C | 70.9% | 566.9hPa | 2.6V | 00:00:00 | 00:00:00 | 00:00:00 | |
| DO3MHA-11 | 2026-09-04 01:25:18 | 47.27092 | 12.78596 | 148° | 71km/h | 4911m | -3.7m/s | -4.3°C | 74.1% | 566.4hPa | 2.6V | 00:00:00 | 02:53:29 | 00:00:00 | |
| PG1ADW-2 | 2026-09-04 01:25:17 | 47.27107 | 12.78582 | 149° | 71km/h | 4915m | -3.7m/s | -4.3°C | 74.4% | 566.1hPa | 2.6V | 00:00:00 | 00:00:00 | 00:00:00 | |
| OE5DXL-15 | 2026-09-04 01:25:13 | 47.27168 | 12.78524 | 148° | 71km/h | 4930m | -3.8m/s | -4.4°C | 78.3% | 565.0hPa | 2.6V | 00:00:00 | 00:00:00 | 00:00:00 | |
| DG1MFX-10 | 2026-09-04 01:25:10 | 47.27199 | 12.78495 | 147° | 71km/h | 4938m | -3.8m/s | -4.5°C | 81.2% | 564.5hPa | 2.6V | 07:40:00 | 00:00:00 | 00:00:00 | |
| DO3MHA-11 | 2026-09-04 01:25:08 | 47.27245 | 12.78450 | 147° | 73km/h | 4950m | -3.9m/s | -4.5°C | 78.6% | 563.7hPa | 2.6V | 07:40:00 | 02:53:19 | 00:00:00 | |
| BAUMI2-15 | 2026-09-04 01:25:05 | 47.27290 | 12.78405 | 146° | 71km/h | 4962m | -3.7m/s | -4.6°C | 80.2% | 562.8hPa | 2.6V | 00:00:00 | 02:53:16 | 00:00:00 | |
| OE5DRO-10 | 2026-09-04 01:25:04 | 47.27305 | 12.78390 | 147° | 71km/h | 4965m | -3.7m/s | -4.6°C | 79.7% | 562.6hPa | 2.5V | 00:00:00 | 00:00:00 | 00:00:00 | |
| DO3MHA-11 | 2026-09-04 01:25:03 | 47.27320 | 12.78375 | 147° | 71km/h | 4969m | -3.8m/s | -4.6°C | 78.9% | 562.4hPa | 2.5V | 00:00:00 | 02:53:14 | 00:00:00 | |
| BAUMI2-15 | 2026-09-04 01:24:59 | 47.27380 | 12.78315 | 147° | 71km/h | 4984m | -3.8m/s | -4.7°C | 75.8% | 561.2hPa | 2.5V | 00:00:00 | 02:53:10 | 00:00:00 | |
| DO3MHA-11 | 2026-09-04 01:24:58 | 47.27395 | 12.78301 | 148° | 71km/h | 4988m | -3.7m/s | -4.7°C | 74.4% | 561.0hPa | 2.5V | 00:00:00 | 02:53:09 | 00:00:00 | |
| PG1ADW-2 | 2026-09-04 01:24:57 | 47.27410 | 12.78286 | 148° | 71km/h | 4992m | -3.6m/s | -4.7°C | 73.5% | 560.7hPa | 2.5V | 00:00:00 | 00:00:00 | 00:00:00 | |
| DO3MHA-11 | 2026-09-04 01:24:53 | 47.27471 | 12.78230 | 149° | 71km/h | 5007m | -3.6m/s | -4.8°C | 76.3% | 559.7hPa | 2.5V | 00:00:00 | 02:53:04 | 00:00:00 | |
| OE5FHM-15 | 2026-09-04 01:24:49 | 47.27531 | 12.78173 | 148° | 73km/h | 5022m | -3.7m/s | -4.8°C | 75.2% | 558.6hPa | 2.6V | 00:00:00 | 02:53:00 | 00:00:00 | |
| OE5DRO-10 | 2026-09-04 01:24:48 | 47.27546 | 12.78159 | 148° | 71km/h | 5026m | -3.7m/s | -4.8°C | 75.1% | 558.3hPa | 2.6V | 00:00:00 | 00:00:00 | 00:00:00 | |
| BAUMI2-15 | 2026-09-04 01:24:44 | 47.27607 | 12.78100 | 147° | 73km/h | 5040m | -3.7m/s | -4.9°C | 78.0% | 557.2hPa | 2.6V | 00:00:00 | 02:52:55 | 00:00:00 | |
| DO3MHA-11 | 2026-09-04 01:24:43 | 47.27622 | 12.78085 | 147° | 71km/h | 5044m | -3.6m/s | -4.9°C | 78.1% | 556.9hPa | 2.6V | 00:00:00 | 02:52:54 | 00:00:00 | |
| BAUMI2-15 | 2026-09-04 01:24:39 | 47.27684 | 12.78026 | 150° | 71km/h | 5059m | -3.7m/s | -5.0°C | 79.0% | 555.8hPa | 2.6V | 00:00:00 | 02:52:50 | 00:00:00 | |
| PG1ADW-2 | 2026-09-04 01:24:37 | 47.27715 | 12.77999 | 148° | 73km/h | 5067m | -3.7m/s | -5.0°C | 79.2% | 555.4hPa | 2.6V | 00:00:00 | 00:00:00 | 00:00:00 | |
| DO3MHA-11 | 2026-09-04 01:24:33 | 47.27776 | 12.77943 | 148° | 73km/h | 5082m | -3.8m/s | -5.1°C | 78.1% | 554.3hPa | 2.6V | 00:00:00 | 02:52:44 | 00:00:00 | |
| OE5DRO-10 | 2026-09-04 01:24:32 | 47.27792 | 12.77928 | 148° | 73km/h | 5086m | -3.7m/s | -5.1°C | 78.0% | 554.0hPa | 2.6V | 07:40:00 | 00:00:00 | 00:00:00 | |
| DG1MFX-10 | 2026-09-04 01:24:29 | 47.27823 | 12.77899 | 149° | 73km/h | 5094m | -3.7m/s | -5.2°C | 77.2% | 553.5hPa | 2.5V | 07:40:00 | 00:00:00 | 00:00:00 | |
| BAUMI2-15 | 2026-09-04 01:24:27 | 47.27871 | 12.77855 | 149° | 73km/h | 5104m | -3.5m/s | -5.3°C | 78.3% | 552.7hPa | 2.5V | 00:00:00 | 02:52:38 | 00:00:00 | |
| DO3MHA-11 | 2026-09-04 01:24:23 | 47.27934 | 12.77799 | 149° | 73km/h | 5119m | -3.5m/s | -5.4°C | 78.4% | 551.8hPa | 2.5V | 00:00:00 | 02:52:34 | 00:00:00 | |
| BAUMI2-15 | 2026-09-04 01:24:22 | 47.27950 | 12.77784 | 149° | 75km/h | 5123m | -3.6m/s | -5.4°C | 78.4% | 551.4hPa | 2.5V | 00:00:00 | 02:52:33 | 00:00:00 | |
| PG1ADW-2 | 2026-09-04 01:24:17 | 47.28030 | 12.77714 | 151° | 73km/h | 5142m | -3.7m/s | -5.5°C | 79.2% | 550.1hPa | 2.5V | 00:00:00 | 02:52:28 | 00:00:00 | |
| OE5DRO-10 | 2026-09-04 01:24:16 | 47.28045 | 12.77701 | 150° | 73km/h | 5145m | -3.7m/s | -5.6°C | 79.4% | 549.9hPa | 2.5V | 00:00:00 | 00:00:00 | 00:00:00 | |
| DO3MHA-11 | 2026-09-04 01:24:13 | 47.28093 | 12.77658 | 149° | 73km/h | 5156m | -3.5m/s | -5.6°C | 80.0% | 549.1hPa | 2.5V | 00:00:00 | 02:52:24 | 00:00:00 | |
| BAUMI2-15 | 2026-09-04 01:24:08 | 47.28172 | 12.77586 | 149° | 73km/h | 5174m | -3.5m/s | -5.7°C | 79.4% | 547.9hPa | 2.5V | 00:00:00 | 02:52:19 | 00:00:00 | |
| DO3MHA-11 | 2026-09-04 01:24:03 | 47.28251 | 12.77514 | 150° | 73km/h | 5192m | -3.4m/s | -5.8°C | 79.4% | 546.6hPa | 2.5V | 07:41:00 | 02:52:14 | 00:00:00 | |
| BAUMI2-15 | 2026-09-04 01:24:02 | 47.28267 | 12.77500 | 150° | 73km/h | 5195m | -3.5m/s | -5.9°C | 79.4% | 546.4hPa | 2.5V | 00:00:00 | 02:52:13 | 00:00:00 | |
| OE5DRO-10 | 2026-09-04 01:24:00 | 47.28299 | 12.77473 | 150° | 73km/h | 5203m | -3.6m/s | -5.9°C | 79.4% | 545.8hPa | 2.5V | 00:00:00 | 00:00:00 | 00:00:00 | |
| OE5FHM-15 | 2026-09-04 01:23:57 | 47.28347 | 12.77431 | 149° | 69km/h | 5213m | -3.5m/s | -5.9°C | 78.3% | 545.0hPa | 2.5V | 00:00:00 | 02:52:08 | 00:00:00 | |
| DO3MHA-11 | 2026-09-04 01:23:53 | 47.28411 | 12.77375 | 149° | 71km/h | 5228m | -3.5m/s | -5.9°C | 78.1% | 544.0hPa | 2.5V | 00:00:00 | 02:52:04 | 00:00:00 | |
| DG1MFX-10 | 2026-09-04 01:23:47 | 47.28491 | 12.77306 | 150° | 71km/h | 5245m | -3.7m/s | -6.1°C | 76.9% | 542.9hPa | 2.6V | 07:41:00 | 00:00:00 | 00:00:00 | |
| OE5DRO-10 | 2026-09-04 01:23:44 | 47.28553 | 12.77253 | 150° | 71km/h | 5259m | -3.4m/s | -6.1°C | 77.8% | 541.9hPa | 2.6V | 00:00:00 | 00:00:00 | 00:00:00 | |
| DO3MHA-11 | 2026-09-04 01:23:43 | 47.28569 | 12.77240 | 150° | 71km/h | 5263m | -3.6m/s | -6.2°C | 77.8% | 541.7hPa | 2.6V | 00:00:00 | 02:51:54 | 00:00:00 | |
| PG1ADW-2 | 2026-09-04 01:23:37 | 47.28661 | 12.77159 | 151° | 69km/h | 5285m | -3.6m/s | -6.2°C | 76.5% | 540.1hPa | 2.6V | 07:41:00 | 00:00:00 | 00:00:00 | |
| DO3MHA-11 | 2026-09-04 01:23:33 | 47.28722 | 12.77105 | 150° | 69km/h | 5299m | -3.6m/s | -6.2°C | 74.7% | 539.2hPa | 2.6V | 00:00:00 | 02:51:44 | 00:00:00 | |
| DG1MFX-10 | 2026-09-04 01:23:26 | 47.28814 | 12.77025 | 150° | 69km/h | 5320m | -3.4m/s | -6.1°C | 70.2% | 537.7hPa | 2.6V | 07:42:00 | 00:00:00 | 00:00:00 | |
| PG1ADW-2 | 2026-09-04 01:23:17 | 47.28962 | 12.76891 | 148° | 69km/h | 5357m | -3.4m/s | -6.0°C | 69.5% | 535.3hPa | 2.6V | 00:00:00 | 00:00:00 | 00:00:00 | |
| OE5FHM-15 | 2026-09-04 01:23:16 | 47.28977 | 12.76877 | 149° | 69km/h | 5361m | -3.5m/s | -6.0°C | 69.7% | 535.0hPa | 2.6V | 00:00:00 | 02:51:27 | 00:00:00 | |
| OE5DXL-15 | 2026-09-04 01:23:13 | 47.29022 | 12.76837 | 148° | 71km/h | 5371m | -3.6m/s | -6.0°C | 68.5% | 534.2hPa | 2.6V | 00:00:00 | 00:00:00 | 00:00:00 | |
| OE5DRO-10 | 2026-09-04 01:23:12 | 47.29037 | 12.76823 | 148° | 71km/h | 5375m | -3.6m/s | -6.0°C | 68.0% | 534.0hPa | 2.6V | 00:00:00 | 00:00:00 | 00:00:00 | |
| DG1MFX-10 | 2026-09-04 01:23:06 | 47.29111 | 12.76754 | 148° | 71km/h | 5393m | -3.5m/s | -6.1°C | 65.3% | 532.8hPa | 2.6V | 07:42:00 | 00:00:00 | 00:00:00 | |
| DO3MHA-11 | 2026-09-04 01:23:03 | 47.29171 | 12.76698 | 148° | 71km/h | 5407m | -3.5m/s | -6.1°C | 66.0% | 531.8hPa | 2.6V | 00:00:00 | 02:51:14 | 00:00:00 | |
| PG1ADW-2 | 2026-09-04 01:22:57 | 47.29263 | 12.76614 | 149° | 71km/h | 5429m | -3.7m/s | -6.1°C | 64.6% | 530.3hPa | 2.6V | 00:00:00 | 02:51:08 | 00:00:00 | |
| OE5DRO-10 | 2026-09-04 01:22:56 | 47.29279 | 12.76600 | 149° | 71km/h | 5433m | -3.7m/s | -6.2°C | 64.6% | 530.0hPa | 2.6V | 00:00:00 | 00:00:00 | 00:00:00 | |
| DO3MHA-11 | 2026-09-04 01:22:53 | 47.29324 | 12.76558 | 148° | 71km/h | 5444m | -3.7m/s | -6.2°C | 64.5% | 529.3hPa | 2.6V | 00:00:00 | 02:51:04 | 00:00:00 | |
| OE5FHM-15 | 2026-09-04 01:22:46 | 47.29429 | 12.76459 | 147° | 71km/h | 5470m | -3.5m/s | -6.3°C | 65.7% | 527.6hPa | 2.6V | 00:00:00 | 02:50:57 | 00:00:00 | |
| DO3MHA-11 | 2026-09-04 01:22:43 | 47.29475 | 12.76416 | 148° | 71km/h | 5480m | -3.8m/s | -6.4°C | 65.9% | 526.9hPa | 2.5V | 07:42:00 | 02:50:54 | 00:00:00 | |
| OE5DRO-10 | 2026-09-04 01:22:40 | 47.29520 | 12.76371 | 147° | 69km/h | 5491m | -3.6m/s | -6.5°C | 65.7% | 526.1hPa | 2.5V | 00:00:00 | 00:00:00 | 00:00:00 | |
| PG1ADW-2 | 2026-09-04 01:22:37 | 47.29565 | 12.76328 | 147° | 69km/h | 5503m | -4.0m/s | -6.5°C | 66.0% | 525.3hPa | 2.5V | 00:00:00 | 00:00:00 | 00:00:00 | |
| DO3MHA-11 | 2026-09-04 01:22:33 | 47.29625 | 12.76273 | 147° | 69km/h | 5518m | -3.9m/s | -6.6°C | 65.9% | 524.3hPa | 2.6V | 00:00:00 | 02:50:44 | 00:00:00 | |
| DG1MFX-10 | 2026-09-04 01:22:25 | 47.29728 | 12.76175 | 149° | 69km/h | 5545m | -3.8m/s | -6.8°C | 64.0% | 522.6hPa | 2.6V | 07:43:00 | 00:00:00 | 00:00:00 | |
| OE5DRO-10 | 2026-09-04 01:22:24 | 47.29757 | 12.76147 | 146° | 71km/h | 5552m | -3.6m/s | -6.8°C | 64.8% | 522.0hPa | 2.6V | 07:42:00 | 00:00:00 | 00:00:00 | |
| DO3MHA-11 | 2026-09-04 01:22:23 | 47.29772 | 12.76132 | 147° | 69km/h | 5556m | -3.5m/s | -6.8°C | 64.8% | 521.9hPa | 2.6V | 00:00:00 | 02:50:34 | 00:00:00 | |
| PG1ADW-2 | 2026-09-04 01:22:17 | 47.29861 | 12.76046 | 147° | 71km/h | 5578m | -3.9m/s | -7.0°C | 65.4% | 520.2hPa | 2.6V | 00:00:00 | 00:00:00 | 00:00:00 | |
| OE5DXL-15 | 2026-09-04 01:22:13 | 47.29920 | 12.75988 | 148° | 71km/h | 5593m | -3.7m/s | -7.1°C | 69.4% | 519.3hPa | 2.6V | 00:00:00 | 00:00:00 | 00:00:00 | |
| OE5DRO-10 | 2026-09-04 01:22:08 | 47.29995 | 12.75916 | 148° | 71km/h | 5613m | -3.8m/s | -7.3°C | 70.2% | 518.0hPa | 2.6V | 00:00:00 | 00:00:00 | 00:00:00 | |
| DG1MFX-10 | 2026-09-04 01:22:05 | 47.30024 | 12.75887 | 147° | 71km/h | 5621m | -4.0m/s | -7.3°C | 68.8% | 517.5hPa | 2.5V | 07:43:00 | 00:00:00 | 00:00:00 | |
| DO3MHA-11 | 2026-09-04 01:22:03 | 47.30069 | 12.75845 | 147° | 71km/h | 5632m | -3.9m/s | -7.4°C | 68.5% | 516.7hPa | 2.5V | 00:00:00 | 02:50:14 | 00:00:00 | |
| OE5FHM-15 | 2026-09-04 01:21:58 | 47.30144 | 12.75772 | 147° | 71km/h | 5652m | -3.7m/s | -7.5°C | 67.8% | 515.5hPa | 2.5V | 07:43:00 | 02:50:09 | 00:00:00 | |
| PG1ADW-2 | 2026-09-04 01:21:57 | 47.30159 | 12.75757 | 148° | 71km/h | 5656m | -3.8m/s | -7.5°C | 68.0% | 515.2hPa | 2.5V | 00:00:00 | 00:00:00 | 00:00:00 | |
| DO3MHA-11 | 2026-09-04 01:21:53 | 47.30219 | 12.75701 | 147° | 71km/h | 5672m | -3.8m/s | -7.7°C | 68.4% | 514.1hPa | 2.5V | 00:00:00 | 02:50:04 | 00:00:00 | |
| OE5DRO-10 | 2026-09-04 01:21:52 | 47.30235 | 12.75687 | 149° | 71km/h | 5675m | -4.0m/s | -7.7°C | 68.4% | 513.8hPa | 2.6V | 00:00:00 | 00:00:00 | 00:00:00 | |
| DG1MFX-10 | 2026-09-04 01:21:44 | 47.30342 | 12.75589 | 148° | 71km/h | 5703m | -4.0m/s | -7.9°C | 68.0% | 512.1hPa | 2.6V | 07:44:00 | 00:00:00 | 00:00:00 | |
| OE5DXL-15 | 2026-09-04 01:21:43 | 47.30373 | 12.75560 | 149° | 71km/h | 5711m | -3.9m/s | -7.9°C | 70.0% | 511.5hPa | 2.6V | 07:43:00 | 00:00:00 | 00:00:00 | |
| BAUMI2-15 | 2026-09-04 01:21:41 | 47.30403 | 12.75533 | 148° | 69km/h | 5720m | -4.0m/s | -8.0°C | 70.3% | 511.0hPa | 2.6V | 00:00:00 | 02:49:52 | 00:00:00 | |
| PG1ADW-2 | 2026-09-04 01:21:37 | 47.30464 | 12.75478 | 149° | 71km/h | 5736m | -3.8m/s | -8.1°C | 67.1% | 509.9hPa | 2.6V | 00:00:00 | 02:49:48 | 00:00:00 | |
| BAUMI2-15 | 2026-09-04 01:21:36 | 47.30479 | 12.75464 | 148° | 71km/h | 5740m | -4.0m/s | -8.1°C | 65.7% | 509.7hPa | 2.5V | 00:00:00 | 02:49:47 | 00:00:00 | |
| DO3MHA-11 | 2026-09-04 01:21:33 | 47.30525 | 12.75422 | 149° | 73km/h | 5753m | -4.1m/s | -8.2°C | 64.6% | 508.8hPa | 2.5V | 00:00:00 | 02:49:44 | 00:00:00 | |
| OE5FHM-15 | 2026-09-04 01:21:28 | 47.30602 | 12.75352 | 148° | 75km/h | 5773m | -4.1m/s | -8.3°C | 64.9% | 507.5hPa | 2.5V | 00:00:00 | 02:49:39 | 00:00:00 | |
| DG1MFX-10 | 2026-09-04 01:21:24 | 47.30649 | 12.75308 | 150° | 73km/h | 5785m | -4.0m/s | -8.4°C | 64.0% | 506.7hPa | 2.5V | 07:44:00 | 00:00:00 | 00:00:00 | |
| DO3MHA-11 | 2026-09-04 01:21:23 | 47.30681 | 12.75280 | 149° | 73km/h | 5794m | -4.1m/s | -8.4°C | 64.0% | 506.1hPa | 2.5V | 07:43:00 | 02:49:34 | 00:00:00 | |
| BAUMI2-15 | 2026-09-04 01:21:22 | 47.30697 | 12.75266 | 149° | 73km/h | 5798m | -4.2m/s | -8.4°C | 64.5% | 505.9hPa | 2.6V | 00:00:00 | 02:49:33 | 00:00:00 | |
| OE5DRO-10 | 2026-09-04 01:21:20 | 47.30728 | 12.75238 | 149° | 75km/h | 5806m | -4.3m/s | -8.5°C | 62.7% | 505.4hPa | 2.6V | 00:00:00 | 00:00:00 | 00:00:00 | |
| PG1ADW-2 | 2026-09-04 01:21:17 | 47.30775 | 12.75197 | 149° | 77km/h | 5819m | -4.3m/s | -8.5°C | 61.4% | 504.4hPa | 2.6V | 00:00:00 | 00:00:00 | 00:00:00 | |
| BAUMI2-15 | 2026-09-04 01:21:15 | 47.30806 | 12.75168 | 148° | 75km/h | 5828m | -4.1m/s | -8.5°C | 61.8% | 503.9hPa | 2.6V | 00:00:00 | 02:49:26 | 00:00:00 | |
| DO3MHA-11 | 2026-09-04 01:21:13 | 47.30838 | 12.75139 | 149° | 77km/h | 5836m | -4.5m/s | -8.5°C | 61.8% | 503.3hPa | 2.6V | 00:00:00 | 02:49:24 | 00:00:00 | |
| BAUMI2-15 | 2026-09-04 01:21:09 | 47.30903 | 12.75080 | 149° | 77km/h | 5854m | -4.3m/s | -8.5°C | 55.7% | 502.2hPa | 2.6V | 00:00:00 | 02:49:20 | 00:00:00 | |
| DO3MHA-11 | 2026-09-04 01:21:03 | 47.31002 | 12.74989 | 148° | 78km/h | 5880m | -4.2m/s | -8.3°C | 37.2% | 500.6hPa | 2.5V | 00:00:00 | 02:49:14 | 00:00:00 | |
| OE3JTB-15 | 2026-09-04 01:21:02 | 47.31019 | 12.74974 | 149° | 80km/h | 5884m | -4.1m/s | -8.2°C | 31.0% | 500.3hPa | 2.5V | 00:00:00 | 00:00:00 | 00:00:00 | |
| OE5FHM-15 | 2026-09-04 01:20:58 | 47.31086 | 12.74913 | 149° | 80km/h | 5901m | -4.3m/s | -8.3°C | 34.3% | 499.2hPa | 2.6V | 00:00:00 | 02:49:09 | 00:00:00 | |
| PG1ADW-2 | 2026-09-04 01:20:57 | 47.31103 | 12.74898 | 150° | 80km/h | 5905m | -4.2m/s | -8.3°C | 36.4% | 498.9hPa | 2.6V | 07:44:00 | 00:00:00 | 00:00:00 | |
| DO3MHA-11 | 2026-09-04 01:20:53 | 47.31172 | 12.74837 | 150° | 80km/h | 5922m | -4.2m/s | -8.3°C | 28.2% | 497.8hPa | 2.6V | 00:00:00 | 02:49:04 | 00:00:00 | |
| BAUMI2-15 | 2026-09-04 01:20:52 | 47.31189 | 12.74822 | 150° | 80km/h | 5926m | -4.2m/s | -8.3°C | 27.3% | 497.5hPa | 2.6V | 00:00:00 | 02:49:03 | 00:00:00 | |
| OE5DRO-10 | 2026-09-04 01:20:48 | 47.31258 | 12.74760 | 150° | 80km/h | 5943m | -4.3m/s | -8.4°C | 29.2% | 496.5hPa | 2.6V | 00:00:00 | 00:00:00 | 00:00:00 | |
| BAUMI2-15 | 2026-09-04 01:20:45 | 47.31310 | 12.74713 | 149° | 80km/h | 5956m | -4.3m/s | -8.5°C | 33.2% | 495.6hPa | 2.6V | 00:00:00 | 02:48:56 | 00:00:00 | |
| OE5DXL-15 | 2026-09-04 01:20:43 | 47.31345 | 12.74682 | 149° | 82km/h | 5965m | -4.3m/s | -8.6°C | 33.3% | 495.1hPa | 2.5V | 00:00:00 | 00:00:00 | 00:00:00 | |
| BAUMI2-15 | 2026-09-04 01:20:39 | 47.31414 | 12.74619 | 149° | 80km/h | 5983m | -4.4m/s | -8.7°C | 36.1% | 494.0hPa | 2.5V | 00:00:00 | 02:48:50 | 00:00:00 | |
| PG1ADW-2 | 2026-09-04 01:20:37 | 47.31449 | 12.74588 | 148° | 82km/h | 5991m | -4.3m/s | -8.8°C | 37.4% | 493.4hPa | 2.5V | 00:00:00 | 00:00:00 | 00:00:00 | |
| BAUMI2-15 | 2026-09-04 01:20:34 | 47.31502 | 12.74540 | 149° | 80km/h | 6004m | -4.3m/s | -9.0°C | 40.3% | 492.6hPa | 2.5V | 07:44:00 | 02:48:45 | 00:00:00 | |
| DO3MHA-11 | 2026-09-04 01:20:33 | 47.31519 | 12.74524 | 148° | 82km/h | 6008m | -4.3m/s | -9.0°C | 40.8% | 492.3hPa | 2.5V | 00:00:00 | 02:48:44 | 00:00:00 | |
| OE5DRO-10 | 2026-09-04 01:20:32 | 47.31537 | 12.74508 | 149° | 82km/h | 6012m | -4.3m/s | -9.1°C | 41.3% | 492.1hPa | 2.5V | 00:00:00 | 00:00:00 | 00:00:00 | |
| OE3JTB-15 | 2026-09-04 01:20:29 | 47.31590 | 12.74460 | 149° | 82km/h | 6026m | -4.1m/s | -9.2°C | 41.9% | 491.2hPa | 2.6V | 00:00:00 | 00:00:00 | 00:00:00 | |
| OE5FHM-15 | 2026-09-04 01:20:28 | 47.31608 | 12.74444 | 149° | 82km/h | 6030m | -4.1m/s | -9.2°C | 42.4% | 490.9hPa | 2.6V | 00:00:00 | 02:48:39 | 00:00:00 | |
| DO3MHA-11 | 2026-09-04 01:20:23 | 47.31697 | 12.74364 | 149° | 84km/h | 6051m | -4.6m/s | -9.4°C | 44.4% | 489.5hPa | 2.6V | 00:00:00 | 02:48:34 | 00:00:00 | |
| DG1MFX-10 | 2026-09-04 01:20:22 | 47.31697 | 12.74364 | 149° | 82km/h | 6051m | -4.6m/s | -9.5°C | 43.5% | 489.6hPa | 2.6V | 07:45:00 | 00:00:00 | 00:00:00 | |
| BAUMI2-15 | 2026-09-04 01:20:20 | 47.31751 | 12.74314 | 149° | 84km/h | 6065m | -4.5m/s | -9.6°C | 45.4% | 488.7hPa | 2.6V | 00:00:00 | 02:48:31 | 00:00:00 | |
| PG1ADW-2 | 2026-09-04 01:20:17 | 47.31805 | 12.74265 | 148° | 82km/h | 6078m | -4.5m/s | -9.7°C | 51.8% | 487.8hPa | 2.6V | 00:00:00 | 02:48:28 | 00:00:00 | |
| OE5DRO-10 | 2026-09-04 01:20:16 | 47.31823 | 12.74249 | 149° | 82km/h | 6083m | -4.4m/s | -9.8°C | 53.3% | 487.5hPa | 2.6V | 07:44:00 | 00:00:00 | 00:00:00 | |
| BAUMI2-15 | 2026-09-04 01:20:15 | 47.31841 | 12.74232 | 149° | 82km/h | 6087m | -4.3m/s | -9.8°C | 53.9% | 487.3hPa | 2.6V | 00:00:00 | 02:48:26 | 00:00:00 | |
| DO3MHA-11 | 2026-09-04 01:20:13 | 47.31876 | 12.74200 | 147° | 80km/h | 6096m | -4.5m/s | -9.9°C | 55.2% | 486.7hPa | 2.6V | 00:00:00 | 02:48:24 | 00:00:00 | |
| OE5DXL-15 | 2026-09-04 01:20:12 | 47.31893 | 12.74184 | 148° | 80km/h | 6100m | -4.5m/s | -10.0°C | 55.9% | 486.4hPa | 2.6V | 00:00:00 | 00:00:00 | 00:00:00 | |
| BAUMI2-15 | 2026-09-04 01:20:10 | 47.31928 | 12.74152 | 148° | 80km/h | 6109m | -4.4m/s | -10.1°C | 59.2% | 485.8hPa | 2.6V | 00:00:00 | 02:48:21 | 00:00:00 | |
| BAUMI2-15 | 2026-09-04 01:20:04 | 47.32032 | 12.74055 | 148° | 78km/h | 6136m | -4.5m/s | !°C | 63.1% | 484.2hPa | 2.6V | 00:00:00 | 02:48:15 | 00:00:00 | |
| DO3MHA-11 | 2026-09-04 01:20:03 | 47.32049 | 12.74039 | 149° | 80km/h | 6141m | -4.5m/s | -10.3°C | 61.5% | 483.9hPa | 2.6V | 07:45:00 | 02:48:14 | 00:00:00 | |
| DG1MFX-10 | 2026-09-04 01:20:02 | 47.32049 | 12.74039 | 149° | 82km/h | 6141m | -4.6m/s | -10.3°C | 60.4% | 484.0hPa | 2.6V | 07:45:00 | 00:00:00 | 00:00:00 | |
| OE5DRO-10 | 2026-09-04 01:20:00 | 47.32101 | 12.73991 | 148° | 80km/h | 6154m | -4.4m/s | -10.3°C | 59.3% | 483.1hPa | 2.6V | 00:00:00 | 00:00:00 | 00:00:00 | |
| OE5FHM-15 | 2026-09-04 01:19:58 | 47.32136 | 12.73960 | 149° | 80km/h | 6163m | -4.3m/s | -10.4°C | 56.8% | 482.5hPa | 2.6V | 00:00:00 | 02:48:09 | 00:00:00 | |
| PG1ADW-2 | 2026-09-04 01:19:57 | 47.32153 | 12.73944 | 149° | 80km/h | 6167m | -4.5m/s | -10.4°C | 55.5% | 482.2hPa | 2.6V | 00:00:00 | 00:00:00 | 00:00:00 | |
| DO3MHA-11 | 2026-09-04 01:19:53 | 47.32222 | 12.73882 | 149° | 80km/h | 6185m | -4.3m/s | -10.4°C | 43.6% | 481.1hPa | 2.6V | 00:00:00 | 02:48:04 | 00:00:00 | |
| OE5DRO-10 | 2026-09-04 01:19:44 | 47.32377 | 12.73741 | 149° | 78km/h | 6224m | -4.4m/s | -10.5°C | 29.9% | 478.7hPa | 2.6V | 00:00:00 | 00:00:00 | 00:00:00 | |
| DO3MHA-11 | 2026-09-04 01:19:43 | 47.32394 | 12.73725 | 148° | 78km/h | 6228m | -4.4m/s | -10.5°C | 27.0% | 478.4hPa | 2.5V | 00:00:00 | 02:47:54 | 00:00:00 | |
| OE5DXL-15 | 2026-09-04 01:19:42 | 47.32411 | 12.73710 | 149° | 80km/h | 6233m | -4.2m/s | -10.5°C | 25.2% | 478.1hPa | 2.5V | 00:00:00 | 00:00:00 | 00:00:00 | |
| DG1MFX-10 | 2026-09-04 01:19:41 | 47.32411 | 12.73710 | 150° | 80km/h | 6233m | -4.3m/s | -10.5°C | 24.5% | 478.2hPa | 2.5V | 07:45:00 | 00:00:00 | 00:00:00 | |
| PG1ADW-2 | 2026-09-04 01:19:37 | 47.32495 | 12.73632 | 148° | 80km/h | 6255m | -4.3m/s | -10.5°C | 24.2% | 476.8hPa | 2.5V | 00:00:00 | 00:00:00 | 00:00:00 | |
| DO3MHA-11 | 2026-09-04 01:19:33 | 47.32563 | 12.73568 | 148° | 80km/h | 6273m | -4.2m/s | -10.7°C | 27.2% | 475.7hPa | 2.6V | 00:00:00 | 02:47:44 | 00:00:00 | |
| IN3HCDX | 2026-09-04 01:19:30 | 47.32613 | 12.73519 | 147° | 80km/h | 6286m | -4.5m/s | -10.8°C | 26.0% | 474.9hPa | 2.6V | 00:00:00 | 00:00:00 | 00:00:00 | |
| OE5FHM-15 | 2026-09-04 01:19:28 | 47.32647 | 12.73487 | 148° | 80km/h | 6295m | -4.3m/s | -10.9°C | 27.1% | 474.3hPa | 2.6V | 00:00:00 | 02:47:39 | 00:00:00 | |
| DO3MHA-11 | 2026-09-04 01:19:23 | 47.32732 | 12.73407 | 148° | 80km/h | 6317m | -4.4m/s | -11.1°C | 35.7% | 472.9hPa | 2.6V | 00:00:00 | 02:47:34 | 00:00:00 | |
| DG1MFX-10 | 2026-09-04 01:19:21 | 47.32765 | 12.73375 | 148° | 80km/h | 6326m | -4.3m/s | -11.2°C | 37.3% | 472.5hPa | 2.6V | 07:45:00 | 00:00:00 | 00:00:00 | |
| OE5MMP-10 | 2026-09-04 01:19:20 | 47.32782 | 12.73359 | 149° | 82km/h | 6330m | -4.3m/s | -11.2°C | 40.1% | 472.1hPa | 2.6V | 00:00:00 | 02:47:31 | 00:00:00 | |
| PG1ADW-2 | 2026-09-04 01:19:17 | 47.32834 | 12.73311 | 148° | 82km/h | 6344m | -4.3m/s | -11.3°C | 46.2% | 471.3hPa | 2.6V | 00:00:00 | 00:00:00 | 00:00:00 | |
| DO3MHA-11 | 2026-09-04 01:19:13 | 47.32903 | 12.73245 | 147° | 82km/h | 6362m | -4.5m/s | -11.3°C | 31.4% | 470.2hPa | 2.6V | 00:00:00 | 02:47:24 | 00:00:00 | |
| OE5DXL-15 | 2026-09-04 01:19:12 | 47.32921 | 12.73228 | 148° | 82km/h | 6367m | -4.6m/s | -11.3°C | 29.6% | 469.9hPa | 2.6V | 00:00:00 | 00:00:00 | 00:00:00 | |
| OE5MMP-10 | 2026-09-04 01:19:08 | 47.32990 | 12.73161 | 148° | 84km/h | 6384m | -4.3m/s | -11.5°C | 29.6% | 468.8hPa | 2.5V | 00:00:00 | 02:47:19 | 00:00:00 | |
| DO3MHA-11 | 2026-09-04 01:19:03 | 47.33077 | 12.73078 | 147° | 84km/h | 6407m | -4.5m/s | -11.6°C | 34.9% | 467.5hPa | 2.5V | 00:00:00 | 02:47:14 | 00:00:00 | |
| DG1MFX-10 | 2026-09-04 01:19:00 | 47.33112 | 12.73044 | 147° | 84km/h | 6416m | -4.4m/s | -11.7°C | 32.3% | 466.9hPa | 2.5V | 07:46:00 | 00:00:00 | 00:00:00 | |
| OE5FHM-15 | 2026-09-04 01:18:58 | 47.33165 | 12.72992 | 146° | 82km/h | 6429m | -4.4m/s | -11.7°C | 39.4% | 466.1hPa | 2.5V | 00:00:00 | 02:47:09 | 00:00:00 | |
| PG1ADW-2 | 2026-09-04 01:18:57 | 47.33182 | 12.72973 | 146° | 84km/h | 6434m | -4.4m/s | -11.7°C | 41.2% | 465.8hPa | 2.5V | 00:00:00 | 02:47:08 | 00:00:00 | |
| OE5DRO-10 | 2026-09-04 01:18:56 | 47.33200 | 12.72956 | 146° | 84km/h | 6438m | -4.6m/s | -11.8°C | 41.7% | 465.5hPa | 2.5V | 00:00:00 | 00:00:00 | 00:00:00 | |
| DO3MHA-11 | 2026-09-04 01:18:53 | 47.33253 | 12.72903 | 145° | 84km/h | 6452m | -4.3m/s | -11.9°C | 43.0% | 464.8hPa | 2.6V | 00:00:00 | 02:47:04 | 00:00:00 | |
| IN3HCDX | 2026-09-04 01:18:52 | 47.33253 | 12.72903 | 146° | 84km/h | 6452m | -4.4m/s | -11.9°C | 42.0% | 464.8hPa | 2.6V | 07:46:00 | 00:00:00 | 00:00:00 | |
| OE5MMP-10 | 2026-09-04 01:18:49 | 47.33322 | 12.72834 | 145° | 84km/h | 6469m | -4.3m/s | -12.0°C | 44.2% | 463.7hPa | 2.6V | 00:00:00 | 02:47:00 | 00:00:00 | |
| DO3MHA-11 | 2026-09-04 01:18:43 | 47.33425 | 12.72725 | 145° | 82km/h | 6496m | -4.3m/s | -12.2°C | 47.9% | 462.1hPa | 2.6V | 07:46:00 | 02:46:54 | 00:00:00 | |
| OE5DXL-15 | 2026-09-04 01:18:42 | 47.33442 | 12.72707 | 145° | 77km/h | 6500m | -4.4m/s | -12.2°C | 49.5% | 461.8hPa | 2.6V | 00:00:00 | 00:00:00 | 00:00:00 | |
| OE5DRO-10 | 2026-09-04 01:18:40 | 47.33476 | 12.72671 | 144° | 78km/h | 6509m | -4.6m/s | -12.3°C | 53.3% | 461.2hPa | 2.6V | 00:00:00 | 00:00:00 | 00:00:00 | |
| OE5MMP-10 | 2026-09-04 01:18:39 | 47.33493 | 12.72653 | 145° | 78km/h | 6514m | -4.4m/s | -12.3°C | 54.0% | 461.0hPa | 2.6V | 00:00:00 | 02:46:50 | 00:00:00 | |
| PG1ADW-2 | 2026-09-04 01:18:37 | 47.33526 | 12.72618 | 144° | 77km/h | 6523m | -4.3m/s | -12.4°C | 55.0% | 460.5hPa | 2.6V | 00:00:00 | 00:00:00 | 00:00:00 | |
| DO3MHA-11 | 2026-09-04 01:18:33 | 47.33591 | 12.72548 | 144° | 77km/h | 6540m | -4.5m/s | -12.6°C | 56.8% | 459.3hPa | 2.5V | 00:00:00 | 02:46:44 | 00:00:00 | |
| IN3HCDX | 2026-09-04 01:18:31 | 47.33606 | 12.72530 | 144° | 77km/h | 6545m | -4.7m/s | -12.7°C | 55.8% | 459.1hPa | 2.5V | 07:46:00 | 00:00:00 | 00:00:00 | |
| OE5MMP-10 | 2026-09-04 01:18:29 | 47.33653 | 12.72479 | 142° | 77km/h | 6558m | -4.7m/s | -12.7°C | 59.2% | 458.3hPa | 2.5V | 00:00:00 | 02:46:40 | 00:00:00 | |
| OE5FHM-15 | 2026-09-04 01:18:28 | 47.33669 | 12.72461 | 143° | 75km/h | 6563m | -4.4m/s | -12.7°C | 59.4% | 457.9hPa | 2.6V | 00:00:00 | 02:46:39 | 00:00:00 | |
| OE5DRO-10 | 2026-09-04 01:18:24 | 47.33730 | 12.72390 | 142° | 75km/h | 6580m | -4.4m/s | -12.8°C | 60.2% | 456.9hPa | 2.6V | 00:00:00 | 00:00:00 | 00:00:00 | |
| DO3MHA-11 | 2026-09-04 01:18:23 | 47.33746 | 12.72372 | 142° | 75km/h | 6585m | -4.5m/s | -12.8°C | 60.3% | 456.7hPa | 2.6V | 00:00:00 | 02:46:34 | 00:00:00 | |
| DG1MFX-10 | 2026-09-04 01:18:19 | 47.33792 | 12.72319 | 143° | 77km/h | 6599m | -4.7m/s | -12.9°C | 58.8% | 455.9hPa | 2.6V | 07:47:00 | 00:00:00 | 00:00:00 | |
| OE5MMP-10 | 2026-09-04 01:18:18 | 47.33821 | 12.72284 | 142° | 73km/h | 6608m | -4.3m/s | -12.9°C | 59.7% | 455.3hPa | 2.6V | 07:46:00 | 02:46:29 | 00:00:00 | |
| PG1ADW-2 | 2026-09-04 01:18:17 | 47.33836 | 12.72267 | 141° | 73km/h | 6612m | -4.3m/s | -12.9°C | 59.5% | 455.0hPa | 2.6V | 07:46:00 | 00:00:00 | 00:00:00 | |
| DO3MHA-11 | 2026-09-04 01:18:13 | 47.33894 | 12.72199 | 142° | 73km/h | 6630m | -4.2m/s | -12.8°C | 58.5% | 454.0hPa | 2.6V | 00:00:00 | 02:46:24 | 00:00:00 | |
| OE5DXL-15 | 2026-09-04 01:18:12 | 47.33909 | 12.72182 | 142° | 73km/h | 6634m | -4.4m/s | -12.7°C | 58.5% | 453.7hPa | 2.6V | 00:00:00 | 00:00:00 | 00:00:00 | |
| IN3HCDX | 2026-09-04 01:18:10 | 47.33924 | 12.72165 | 144° | 73km/h | 6639m | -4.5m/s | -12.8°C | 57.2% | 453.6hPa | 2.6V | 00:00:00 | 00:00:00 | 00:00:00 | |
| OE5DRO-10 | 2026-09-04 01:18:05 | 47.34010 | 12.72066 | 142° | 73km/h | 6665m | -4.3m/s | -12.8°C | 55.4% | 451.9hPa | 2.6V | 07:47:00 | 00:00:00 | 00:00:00 | |
| DO3MHA-11 | 2026-09-04 01:18:03 | 47.34039 | 12.72032 | 143° | 73km/h | 6674m | -4.4m/s | -12.8°C | 55.3% | 451.4hPa | 2.6V | 00:00:00 | 02:46:14 | 00:00:00 | |
| DG1MFX-10 | 2026-09-04 01:17:59 | 47.34082 | 12.71983 | 142° | 71km/h | 6687m | -4.5m/s | -12.9°C | 53.4% | 450.6hPa | 2.6V | 07:47:00 | 00:00:00 | 00:00:00 | |
| OE5FHM-15 | 2026-09-04 01:17:58 | 47.34111 | 12.71950 | 144° | 73km/h | 6696m | -4.3m/s | -13.0°C | 54.3% | 450.1hPa | 2.6V | 07:47:00 | 02:46:09 | 00:00:00 | |
| PG1ADW-2 | 2026-09-04 01:17:57 | 47.34125 | 12.71934 | 143° | 73km/h | 6700m | -4.3m/s | -13.0°C | 54.1% | 449.8hPa | 2.5V | 00:00:00 | 00:00:00 | 00:00:00 | |
| DO3MHA-11 | 2026-09-04 01:17:53 | 47.34184 | 12.71868 | 143° | 73km/h | 6719m | -4.6m/s | -13.1°C | 52.9% | 448.7hPa | 2.5V | 00:00:00 | 02:46:04 | 00:00:00 | |
| BAUMI2-15 | 2026-09-04 01:17:49 | 47.34243 | 12.71802 | 143° | 73km/h | 6737m | -4.3m/s | -13.3°C | 52.9% | 447.7hPa | 2.5V | 00:00:00 | 02:46:00 | 00:00:00 | |
| OE5MMP-10 | 2026-09-04 01:17:48 | 47.34258 | 12.71785 | 143° | 73km/h | 6742m | -4.2m/s | -13.3°C | 52.8% | 447.4hPa | 2.5V | 00:00:00 | 02:45:59 | 00:00:00 | |
| OE5DRO-10 | 2026-09-04 01:17:46 | 47.34287 | 12.71752 | 142° | 73km/h | 6750m | -4.3m/s | -13.4°C | 52.7% | 446.9hPa | 2.6V | 00:00:00 | 00:00:00 | 00:00:00 | |
| BAUMI2-15 | 2026-09-04 01:17:44 | 47.34316 | 12.71719 | 143° | 73km/h | 6759m | -4.5m/s | -13.5°C | 52.8% | 446.4hPa | 2.6V | 00:00:00 | 02:45:55 | 00:00:00 | |
| DO3MHA-11 | 2026-09-04 01:17:43 | 47.34331 | 12.71702 | 144° | 73km/h | 6764m | -4.5m/s | -13.5°C | 52.6% | 446.1hPa | 2.5V | 00:00:00 | 02:45:54 | 00:00:00 | |
| OE5DXL-15 | 2026-09-04 01:17:41 | 47.34360 | 12.71670 | 143° | 73km/h | 6773m | -4.6m/s | -13.6°C | 51.5% | 445.6hPa | 2.5V | 07:47:00 | 00:00:00 | 00:00:00 | |
| BAUMI2-15 | 2026-09-04 01:17:39 | 47.34390 | 12.71637 | 145° | 73km/h | 6782m | -4.4m/s | -13.6°C | 51.0% | 445.0hPa | 2.6V | 07:47:00 | 02:45:50 | 00:00:00 | |
| OE5MMP-10 | 2026-09-04 01:17:38 | 47.34405 | 12.71621 | 144° | 73km/h | 6786m | -4.5m/s | -13.7°C | 50.3% | 444.8hPa | 2.6V | 00:00:00 | 02:45:49 | 00:00:00 | |
| PG1ADW-2 | 2026-09-04 01:17:37 | 47.34420 | 12.71604 | 144° | 73km/h | 6791m | -4.5m/s | -13.7°C | 50.1% | 444.6hPa | 2.6V | 00:00:00 | 02:45:48 | 00:00:00 | |
| BAUMI2-15 | 2026-09-04 01:17:34 | 47.34465 | 12.71555 | 142° | 73km/h | 6805m | -4.6m/s | -13.8°C | 50.6% | 443.7hPa | 2.5V | 00:00:00 | 02:45:45 | 00:00:00 | |
| BAUMI2-15 | 2026-09-04 01:17:29 | 47.34538 | 12.71471 | 143° | 73km/h | 6828m | -4.5m/s | -14.0°C | 51.7% | 442.4hPa | 2.5V | 00:00:00 | 02:45:40 | 00:00:00 | |
| OE5FHM-15 | 2026-09-04 01:17:28 | 47.34552 | 12.71454 | 143° | 82km/h | 6832m | -4.6m/s | -14.0°C | 51.9% | 442.1hPa | 2.5V | 00:00:00 | 02:45:39 | 00:00:00 | |
| OE5DRO-10 | 2026-09-04 01:17:27 | 47.34567 | 12.71438 | 142° | 75km/h | 6837m | -4.6m/s | -14.0°C | 52.1% | 441.8hPa | 2.5V | 00:00:00 | 00:00:00 | 00:00:00 | |
| BAUMI2-15 | 2026-09-04 01:17:24 | 47.34611 | 12.71387 | 142° | 75km/h | 6851m | -4.5m/s | -14.2°C | 52.6% | 441.0hPa | 2.5V | 00:00:00 | 02:45:35 | 00:00:00 | |
| DO3MHA-11 | 2026-09-04 01:17:23 | 47.34625 | 12.71370 | 142° | 75km/h | 6855m | -4.6m/s | -14.2°C | 52.7% | 440.8hPa | 2.5V | 07:47:00 | 02:45:34 | 00:00:00 | |
| BAUMI2-15 | 2026-09-04 01:17:19 | 47.34685 | 12.71302 | 142° | 75km/h | 6873m | -4.5m/s | -14.4°C | 53.2% | 439.7hPa | 2.6V | 00:00:00 | 02:45:30 | 00:00:00 | |
| OE5HKT-10 | 2026-09-04 01:17:18 | 47.34700 | 12.71285 | 143° | 77km/h | 6878m | -4.6m/s | -14.4°C | 53.4% | 439.4hPa | 2.6V | 00:00:00 | 00:00:00 | 00:00:00 | |
| PG1ADW-2 | 2026-09-04 01:17:17 | 47.34715 | 12.71268 | 143° | 77km/h | 6882m | -4.6m/s | -14.5°C | 53.5% | 439.2hPa | 2.6V | 00:00:00 | 00:00:00 | 00:00:00 | |
| OE5MMP-10 | 2026-09-04 01:17:15 | 47.34744 | 12.71233 | 141° | 75km/h | 6892m | -4.5m/s | -14.5°C | 53.6% | 438.6hPa | 2.6V | 00:00:00 | 02:45:26 | 00:00:00 | |
| BAUMI2-15 | 2026-09-04 01:17:14 | 47.34759 | 12.71216 | 142° | 75km/h | 6896m | -4.6m/s | -14.6°C | 53.7% | 438.3hPa | 2.6V | 00:00:00 | 02:45:25 | 00:00:00 | |
| DO3MHA-11 | 2026-09-04 01:17:13 | 47.34774 | 12.71199 | 142° | 77km/h | 6901m | -4.5m/s | -14.6°C | 53.7% | 438.1hPa | 2.5V | 00:00:00 | 02:45:24 | 00:00:00 | |
| OE5WHR-10 | 2026-09-04 01:17:12 | 47.34789 | 12.71181 | 142° | 77km/h | 6905m | -4.6m/s | -14.7°C | 53.8% | 437.9hPa | 2.5V | 00:00:00 | 00:00:00 | 00:00:00 | |
| OE5DXL-15 | 2026-09-04 01:17:11 | 47.34804 | 12.71164 | 141° | 78km/h | 6910m | -4.4m/s | -14.7°C | 53.8% | 437.6hPa | 2.5V | 00:00:00 | 00:00:00 | 00:00:00 | |
| BAUMI2-15 | 2026-09-04 01:17:09 | 47.34834 | 12.71128 | 143° | 77km/h | 6919m | -4.5m/s | -14.8°C | 53.8% | 437.0hPa | 2.5V | 00:00:00 | 02:45:20 | 00:00:00 | |
| OE5DRO-10 | 2026-09-04 01:17:08 | 47.34849 | 12.71111 | 142° | 77km/h | 6923m | -4.5m/s | -14.8°C | 53.9% | 436.8hPa | 2.5V | 00:00:00 | 00:00:00 | 00:00:00 | |
| IN3HCDX | 2026-09-04 01:17:06 | 47.34879 | 12.71075 | 143° | 77km/h | 6932m | -4.5m/s | -14.9°C | 52.7% | 436.4hPa | 2.6V | 07:48:00 | 00:00:00 | 00:00:00 | |
| OE5MMP-10 | 2026-09-04 01:17:04 | 47.34910 | 12.71040 | 142° | 77km/h | 6942m | -4.4m/s | -15.0°C | 54.1% | 435.7hPa | 2.6V | 00:00:00 | 02:45:15 | 00:00:00 | |
| DO3MHA-11 | 2026-09-04 01:17:03 | 47.34925 | 12.71022 | 141° | 77km/h | 6946m | -4.5m/s | -15.0°C | 54.2% | 435.4hPa | 2.6V | 00:00:00 | 02:45:14 | 00:00:00 | |
| BAUMI2-15 | 2026-09-04 01:16:59 | 47.34985 | 12.70951 | 141° | 77km/h | 6964m | -4.5m/s | -15.2°C | 54.8% | 434.4hPa | 2.6V | 07:48:00 | 02:45:10 | 00:00:00 | |
| DG1MFX-10 | 2026-09-04 01:16:58 | 47.35001 | 12.70933 | 142° | 78km/h | 6969m | -4.6m/s | -15.3°C | 53.5% | 434.2hPa | 2.6V | 07:48:00 | 00:00:00 | 00:00:00 | |
| OE5HKT-10 | 2026-09-04 01:16:57 | 47.35016 | 12.70915 | 142° | 80km/h | 6973m | -4.6m/s | -15.2°C | 55.0% | 433.9hPa | 2.6V | 00:00:00 | 02:45:08 | 00:00:00 | |
| OE5MMP-10 | 2026-09-04 01:16:54 | 47.35061 | 12.70859 | 141° | 80km/h | 6987m | -4.6m/s | -15.4°C | 55.4% | 433.1hPa | 2.6V | 00:00:00 | 02:45:05 | 00:00:00 | |
| DO3MHA-11 | 2026-09-04 01:16:53 | 47.35076 | 12.70840 | 141° | 80km/h | 6992m | -4.4m/s | -15.4°C | 55.6% | 432.9hPa | 2.6V | 00:00:00 | 02:45:04 | 00:00:00 | |
| BAUMI2-15 | 2026-09-04 01:16:49 | 47.35138 | 12.70764 | 141° | 80km/h | 7010m | -4.4m/s | -15.6°C | 56.2% | 431.9hPa | 2.6V | 00:00:00 | 02:45:00 | 00:00:00 | |
| OE5MMP-10 | 2026-09-04 01:16:44 | 47.35216 | 12.70668 | 140° | 82km/h | 7034m | -4.7m/s | -15.8°C | 57.2% | 430.5hPa | 2.6V | 07:48:00 | 02:44:55 | 00:00:00 | |
| OE5WHR-10 | 2026-09-04 01:16:43 | 47.35231 | 12.70649 | 141° | 82km/h | 7038m | -4.7m/s | -15.8°C | 57.4% | 430.3hPa | 2.6V | 00:00:00 | 02:44:54 | 00:00:00 | |
| OE5DXL-15 | 2026-09-04 01:16:42 | 47.35247 | 12.70630 | 142° | 84km/h | 7043m | -4.7m/s | -15.8°C | 57.6% | 430.0hPa | 2.6V | 00:00:00 | 00:00:00 | 00:00:00 | |
| BAUMI2-15 | 2026-09-04 01:16:39 | 47.35295 | 12.70572 | 141° | 82km/h | 7057m | -4.6m/s | -15.9°C | 58.6% | 429.1hPa | 2.6V | 00:00:00 | 02:44:50 | 00:00:00 | |
| PG1ADW-2 | 2026-09-04 01:16:37 | 47.35327 | 12.70534 | 141° | 84km/h | 7066m | -4.6m/s | -16.0°C | 59.3% | 428.7hPa | 2.6V | 00:00:00 | 00:00:00 | 00:00:00 | |
| OE5HKT-10 | 2026-09-04 01:16:36 | 47.35343 | 12.70515 | 141° | 84km/h | 7070m | -4.7m/s | -16.0°C | 59.7% | 428.4hPa | 2.6V | 07:48:00 | 00:00:00 | 00:00:00 | |
| OE5MMP-10 | 2026-09-04 01:16:34 | 47.35375 | 12.70476 | 142° | 84km/h | 7080m | -4.6m/s | -16.1°C | 59.9% | 427.8hPa | 2.5V | 00:00:00 | 02:44:45 | 00:00:00 | |
| DO3MHA-11 | 2026-09-04 01:16:33 | 47.35392 | 12.70456 | 141° | 84km/h | 7085m | -4.7m/s | -16.1°C | 59.6% | 427.6hPa | 2.5V | 00:00:00 | 02:44:44 | 00:00:00 | |
| NBG1-10 | 2026-09-04 01:16:32 | 47.35408 | 12.70437 | 142° | 84km/h | 7090m | -4.7m/s | -16.1°C | 59.4% | 427.3hPa | 2.5V | 00:00:00 | 02:44:43 | 00:00:00 | |
| OE5DRO-10 | 2026-09-04 01:16:30 | 47.35441 | 12.70397 | 141° | 84km/h | 7099m | -4.6m/s | -16.2°C | 59.1% | 426.7hPa | 2.5V | 00:00:00 | 00:00:00 | 00:00:00 | |
| BAUMI2-15 | 2026-09-04 01:16:29 | 47.35457 | 12.70377 | 140° | 84km/h | 7104m | -4.8m/s | -16.2°C | 58.7% | 426.5hPa | 2.5V | 00:00:00 | 02:44:40 | 00:00:00 | |
| IN3HCDX | 2026-09-04 01:16:24 | 47.35540 | 12.70277 | 142° | 86km/h | 7128m | -4.7m/s | -16.4°C | 55.3% | 425.2hPa | 2.5V | 00:00:00 | 00:00:00 | 00:00:00 | |
| DO3MHA-11 | 2026-09-04 01:16:23 | 47.35556 | 12.70257 | 142° | 84km/h | 7133m | -4.5m/s | -16.3°C | 56.8% | 424.9hPa | 2.5V | 00:00:00 | 02:44:34 | 00:00:00 | |
| BAUMI2-15 | 2026-09-04 01:16:19 | 47.35623 | 12.70176 | 141° | 86km/h | 7151m | -4.6m/s | -16.5°C | 55.7% | 423.8hPa | 2.5V | 07:48:00 | 02:44:30 | 00:00:00 | |
| PG1ADW-2 | 2026-09-04 01:16:17 | 47.35655 | 12.70136 | 140° | 84km/h | 7160m | -4.8m/s | -16.5°C | 55.4% | 423.3hPa | 2.5V | 00:00:00 | 02:44:28 | 00:00:00 | |
| BAUMI2-15 | 2026-09-04 01:16:16 | 47.35705 | 12.70075 | 140° | 86km/h | 7174m | -4.4m/s | -16.6°C | 55.7% | 422.5hPa | 2.5V | 00:00:00 | 02:44:25 | 00:00:00 | |
| DO3MHA-11 | 2026-09-04 01:16:15 | 47.35721 | 12.70054 | 140° | 84km/h | 7179m | -4.7m/s | -16.7°C | 55.8% | 422.2hPa | 2.5V | 00:00:00 | 02:44:24 | 00:00:00 | |
| OE5MMP-10 | 2026-09-04 01:16:14 | 47.35721 | 12.70054 | 140° | 84km/h | 7179m | -4.7m/s | -16.7°C | 55.8% | 422.2hPa | 2.5V | 00:00:00 | 02:44:24 | 00:00:00 | |
| OE5FHM-15 | 2026-09-04 01:16:12 | 47.35738 | 12.70033 | 140° | 84km/h | 7183m | -4.7m/s | -16.7°C | 55.9% | 422.0hPa | 2.6V | 00:00:00 | 02:44:23 | 00:00:00 | |
| OE5DRO-10 | 2026-09-04 01:16:11 | 47.35754 | 12.70012 | 140° | 84km/h | 7188m | -4.8m/s | -16.7°C | 56.0% | 421.7hPa | 2.6V | 00:00:00 | 00:00:00 | 00:00:00 | |
| BAUMI2-15 | 2026-09-04 01:16:09 | 47.35787 | 12.69971 | 140° | 84km/h | 7198m | -4.9m/s | -16.8°C | 56.3% | 421.2hPa | 2.5V | 00:00:00 | 02:44:20 | 00:00:00 | |
| OE5WHR-10 | 2026-09-04 01:16:05 | 47.35852 | 12.69888 | 140° | 84km/h | 7217m | -4.5m/s | -17.0°C | 56.9% | 420.1hPa | 2.5V | 07:49:00 | 00:00:00 | 00:00:00 | |
| BAUMI2-15 | 2026-09-04 01:16:04 | 47.35868 | 12.69868 | 139° | 84km/h | 7222m | -4.7m/s | -17.0°C | 56.8% | 419.9hPa | 2.4V | 00:00:00 | 02:44:15 | 00:00:00 | |
| IN3HCDX | 2026-09-04 01:16:03 | 47.35884 | 12.69847 | 139° | 84km/h | 7227m | -4.8m/s | -17.1°C | 54.3% | 419.7hPa | 2.4V | 00:00:00 | 00:00:00 | 00:00:00 | |
| BAUMI2-15 | 2026-09-04 01:15:59 | 47.35948 | 12.69765 | 139° | 86km/h | 7245m | -4.6m/s | -17.1°C | 53.5% | 418.5hPa | 2.4V | 00:00:00 | 02:44:10 | 00:00:00 | |
| PG1ADW-2 | 2026-09-04 01:15:57 | 47.35981 | 12.69723 | 140° | 84km/h | 7255m | -4.8m/s | -17.2°C | 53.8% | 417.9hPa | 2.5V | 00:00:00 | 00:00:00 | 00:00:00 | |
| DG1MFX-10 | 2026-09-04 01:15:55 | 47.35997 | 12.69703 | 139° | 86km/h | 7259m | -4.7m/s | -17.3°C | 52.2% | 417.8hPa | 2.5V | 07:49:00 | 00:00:00 | 00:00:00 | |
| OE5HKT-10 | 2026-09-04 01:15:54 | 47.36029 | 12.69661 | 140° | 84km/h | 7269m | -4.8m/s | -17.3°C | 53.6% | 417.2hPa | 2.5V | 00:00:00 | 02:44:05 | 00:00:00 | |
| DO3MHA-11 | 2026-09-04 01:15:53 | 47.36045 | 12.69640 | 139° | 84km/h | 7274m | -4.8m/s | -17.4°C | 53.7% | 416.9hPa | 2.5V | 00:00:00 | 02:44:04 | 00:00:00 | |
| OE5DRO-10 | 2026-09-04 01:15:52 | 47.36061 | 12.69620 | 139° | 84km/h | 7279m | -4.7m/s | -17.4°C | 53.9% | 416.7hPa | 2.5V | 00:00:00 | 00:00:00 | 00:00:00 | |
| OE5MMP-10 | 2026-09-04 01:15:43 | 47.36206 | 12.69436 | 141° | 84km/h | 7321m | -4.5m/s | -17.8°C | 56.3% | 414.4hPa | 2.5V | 00:00:00 | 02:43:54 | 00:00:00 | |
| OE5FHM-15 | 2026-09-04 01:15:42 | 47.36223 | 12.69416 | 141° | 84km/h | 7326m | -4.6m/s | -17.8°C | 56.5% | 414.1hPa | 2.6V | 00:00:00 | 02:43:53 | 00:00:00 | |
| PG1ADW-2 | 2026-09-04 01:15:37 | 47.36305 | 12.69316 | 140° | 84km/h | 7348m | -4.7m/s | -18.0°C | 57.4% | 412.9hPa | 2.5V | 07:49:00 | 00:00:00 | 00:00:00 | |
| DG1MFX-10 | 2026-09-04 01:15:34 | 47.36338 | 12.69276 | 142° | 84km/h | 7358m | -4.8m/s | -18.2°C | 55.9% | 412.3hPa | 2.5V | 07:50:00 | 00:00:00 | 00:00:00 | |
| DO3MHA-11 | 2026-09-04 01:15:33 | 47.36371 | 12.69236 | 140° | 84km/h | 7368m | -4.8m/s | -18.2°C | 57.8% | 411.7hPa | 2.5V | 00:00:00 | 02:43:44 | 00:00:00 | |
| OE5HKT-10 | 2026-09-04 01:15:32 | 47.36387 | 12.69215 | 141° | 84km/h | 7373m | -4.8m/s | -18.3°C | 57.8% | 411.5hPa | 2.5V | 00:00:00 | 00:00:00 | 00:00:00 | |
| OE5WHR-10 | 2026-09-04 01:15:29 | 47.36437 | 12.69156 | 141° | 89km/h | 7387m | -4.7m/s | -18.4°C | 57.4% | 410.8hPa | 2.5V | 00:00:00 | 00:00:00 | 00:00:00 | |
| NBG1-10 | 2026-09-04 01:15:26 | 47.36487 | 12.69096 | 141° | 86km/h | 7401m | -4.5m/s | -18.5°C | 57.8% | 409.9hPa | 2.5V | 00:00:00 | 02:43:37 | 00:00:00 | |
| DO3MHA-11 | 2026-09-04 01:15:23 | 47.36537 | 12.69036 | 141° | 84km/h | 7416m | -4.9m/s | -18.6°C | 58.3% | 409.1hPa | 2.6V | 00:00:00 | 02:43:34 | 00:00:00 | |
| PG1ADW-2 | 2026-09-04 01:15:17 | 47.36636 | 12.68918 | 142° | 86km/h | 7444m | -4.4m/s | -18.9°C | 59.5% | 407.6hPa | 2.6V | 00:00:00 | 00:00:00 | 00:00:00 | |
| OE5DRO-10 | 2026-09-04 01:15:14 | 47.36685 | 12.68858 | 142° | 86km/h | 7458m | -4.6m/s | -19.1°C | 59.9% | 406.8hPa | 2.6V | 00:00:00 | 00:00:00 | 00:00:00 | |
| OE5DXL-15 | 2026-09-04 01:15:13 | 47.36718 | 12.68819 | 141° | 86km/h | 7467m | -4.6m/s | -19.2°C | 60.3% | 406.3hPa | 2.6V | 00:00:00 | 00:00:00 | 00:00:00 | |
| OE5HKT-10 | 2026-09-04 01:15:11 | 47.36735 | 12.68798 | 141° | 86km/h | 7472m | -4.5m/s | -19.2°C | 60.6% | 406.0hPa | 2.6V | 00:00:00 | 00:00:00 | 00:00:00 | |
| OE5FHM-15 | 2026-09-04 01:15:08 | 47.36785 | 12.68738 | 141° | 86km/h | 7485m | -4.6m/s | -19.3°C | 61.0% | 405.3hPa | 2.6V | 00:00:00 | 02:43:19 | 00:00:00 | |
| PG1ADW-2 | 2026-09-04 01:14:57 | 47.36968 | 12.68513 | 140° | 88km/h | 7536m | -4.5m/s | -19.8°C | 62.1% | 402.5hPa | 2.6V | 00:00:00 | 02:43:08 | 00:00:00 | |
| OE5DRO-10 | 2026-09-04 01:14:55 | 47.37001 | 12.68471 | 140° | 88km/h | 7545m | -4.9m/s | -19.8°C | 61.7% | 402.0hPa | 2.6V | 00:00:00 | 00:00:00 | 00:00:00 | |
| DO3MHA-11 | 2026-09-04 01:14:53 | 47.37034 | 12.68429 | 139° | 88km/h | 7554m | -4.5m/s | -19.9°C | 62.5% | 401.5hPa | 2.6V | 00:00:00 | 02:43:04 | 00:00:00 | |
| OE5HKT-10 | 2026-09-04 01:14:50 | 47.37084 | 12.68366 | 139° | 88km/h | 7568m | -4.6m/s | -20.0°C | 62.9% | 400.7hPa | 2.4V | 00:00:00 | 02:43:01 | 00:00:00 | |
| DO3MHA-11 | 2026-09-04 01:14:43 | 47.37201 | 12.68217 | 139° | 88km/h | 7601m | -4.6m/s | -20.2°C | 62.3% | 399.0hPa | 2.4V | 07:50:00 | 02:42:54 | 00:00:00 | |
| OE5DXL-15 | 2026-09-04 01:14:42 | 47.37217 | 12.68195 | 138° | 89km/h | 7605m | -4.5m/s | -20.3°C | 62.6% | 398.7hPa | 2.4V | 00:00:00 | 00:00:00 | 00:00:00 | |
| DL6DJ-15 | 2026-09-04 01:14:39 | 47.37268 | 12.68130 | 138° | 88km/h | 7619m | -4.9m/s | -20.5°C | 61.3% | 398.0hPa | 2.4V | 00:00:00 | 00:00:00 | 00:00:00 | |
| OE5FHM-15 | 2026-09-04 01:14:38 | 47.37284 | 12.68108 | 140° | 89km/h | 7624m | -5.0m/s | -20.4°C | 63.9% | 397.6hPa | 2.4V | 00:00:00 | 02:42:49 | 00:00:00 | |
| PG1ADW-2 | 2026-09-04 01:14:37 | 47.37301 | 12.68087 | 140° | 89km/h | 7629m | -4.9m/s | -20.5°C | 64.2% | 397.4hPa | 2.4V | 00:00:00 | 00:00:00 | 00:00:00 | |
| OE5DRO-10 | 2026-09-04 01:14:36 | 47.37318 | 12.68066 | 139° | 89km/h | 7634m | -4.9m/s | -20.5°C | 64.5% | 397.2hPa | 2.6V | 00:00:00 | 00:00:00 | 00:00:00 | |
| OE5MMP-10 | 2026-09-04 01:14:33 | 47.37369 | 12.68001 | 140° | 89km/h | 7649m | -4.9m/s | -20.7°C | 65.1% | 396.4hPa | 2.6V | 00:00:00 | 02:42:44 | 00:00:00 | |
| DG1MFX-10 | 2026-09-04 01:14:32 | 47.37369 | 12.68001 | 140° | 88km/h | 7649m | -4.9m/s | -20.7°C | 62.9% | 396.5hPa | 2.6V | 07:51:00 | 00:00:00 | 00:00:00 | |
| DO3MHA-11 | 2026-09-04 01:14:31 | 47.37403 | 12.67958 | 140° | 89km/h | 7658m | -4.7m/s | -20.7°C | 65.3% | 395.9hPa | 2.6V | 00:00:00 | 02:42:42 | 00:00:00 | |
| OE5HKT-10 | 2026-09-04 01:14:29 | 47.37438 | 12.67915 | 139° | 91km/h | 7668m | -4.4m/s | -20.8°C | 65.5% | 395.4hPa | 2.6V | 00:00:00 | 00:00:00 | 00:00:00 | |
| DO3MHA-11 | 2026-09-04 01:14:21 | 47.37575 | 12.67742 | 141° | 89km/h | 7704m | -4.7m/s | -21.1°C | 65.4% | 393.4hPa | 2.5V | 00:00:00 | 02:42:32 | 00:00:00 | |
| NBG1-10 | 2026-09-04 01:14:20 | 47.37593 | 12.67721 | 141° | 91km/h | 7709m | -4.6m/s | -21.2°C | 65.2% | 393.2hPa | 2.5V | 00:00:00 | 02:42:31 | 00:00:00 | |
| PG1ADW-2 | 2026-09-04 01:14:17 | 47.37646 | 12.67657 | 142° | 89km/h | 7723m | -4.7m/s | -21.3°C | 64.8% | 392.4hPa | 2.5V | 00:00:00 | 00:00:00 | 00:00:00 | |
| OE5DXL-15 | 2026-09-04 01:14:12 | 47.37734 | 12.67551 | 140° | 91km/h | 7746m | -4.6m/s | -21.5°C | 64.9% | 391.1hPa | 2.5V | 00:00:00 | 00:00:00 | 00:00:00 | |
| DO3MHA-11 | 2026-09-04 01:14:11 | 47.37751 | 12.67529 | 140° | 89km/h | 7751m | -4.7m/s | -21.5°C | 64.8% | 390.9hPa | 2.5V | 00:00:00 | 02:42:22 | 00:00:00 | |
| OE5MMP-10 | 2026-09-04 01:14:09 | 47.37785 | 12.67486 | 140° | 89km/h | 7761m | -4.8m/s | -21.6°C | 65.2% | 390.4hPa | 2.5V | 00:00:00 | 02:42:20 | 00:00:00 | |
| OE5FHM-15 | 2026-09-04 01:14:08 | 47.37803 | 12.67464 | 140° | 91km/h | 7765m | -5.0m/s | -21.7°C | 65.3% | 390.2hPa | 2.4V | 00:00:00 | 02:42:19 | 00:00:00 | |
| OE5DRO-10 | 2026-09-04 01:13:58 | 47.37975 | 12.67249 | 140° | 93km/h | 7812m | -4.8m/s | -22.1°C | 65.3% | 387.7hPa | 2.6V | 00:00:00 | 00:00:00 | 00:00:00 | |
| PG1ADW-2 | 2026-09-04 01:13:57 | 47.37993 | 12.67227 | 140° | 93km/h | 7817m | -4.7m/s | -22.0°C | 62.2% | 387.5hPa | 2.6V | 00:00:00 | 00:00:00 | 00:00:00 | |
| OE5MMP-10 | 2026-09-04 01:13:54 | 47.38046 | 12.67160 | 140° | 93km/h | 7831m | -4.8m/s | -22.1°C | 60.1% | 386.7hPa | 2.6V | 07:51:00 | 02:42:05 | 00:00:00 | |
| DG1MFX-10 | 2026-09-04 01:13:51 | 47.38082 | 12.67114 | 140° | 93km/h | 7840m | -4.6m/s | -22.2°C | 57.3% | 386.3hPa | 2.6V | 07:51:00 | 00:00:00 | 00:00:00 | |
| BAUMI2-15 | 2026-09-04 01:13:49 | 47.38135 | 12.67046 | 140° | 93km/h | 7854m | -4.5m/s | -22.2°C | 60.9% | 385.4hPa | 2.6V | 00:00:00 | 02:42:00 | 00:00:00 | |
| NBG1-10 | 2026-09-04 01:13:47 | 47.38171 | 12.67000 | 139° | 89km/h | 7863m | -4.6m/s | -22.3°C | 60.8% | 385.0hPa | 2.6V | 00:00:00 | 02:41:58 | 00:00:00 | |
| BAUMI2-15 | 2026-09-04 01:13:44 | 47.38224 | 12.66932 | 139° | 91km/h | 7877m | -4.5m/s | -22.3°C | 59.6% | 384.3hPa | 2.4V | 00:00:00 | 02:41:55 | 00:00:00 | |
| OE5MMP-10 | 2026-09-04 01:13:43 | 47.38241 | 12.66909 | 139° | 89km/h | 7882m | -4.6m/s | -22.4°C | 59.4% | 384.0hPa | 2.4V | 00:00:00 | 02:41:54 | 00:00:00 | |
| OE5DXL-15 | 2026-09-04 01:13:42 | 47.38258 | 12.66886 | 139° | 89km/h | 7886m | -4.5m/s | -22.4°C | 58.9% | 383.8hPa | 2.4V | 07:51:00 | 00:00:00 | 00:00:00 | |
| DO3MHA-11 | 2026-09-04 01:13:40 | 47.38293 | 12.66841 | 139° | 91km/h | 7895m | -4.6m/s | -22.4°C | 58.5% | 383.4hPa | 2.4V | 00:00:00 | 02:41:51 | 00:00:00 | |
| BAUMI2-15 | 2026-09-04 01:13:39 | 47.38310 | 12.66819 | 139° | 91km/h | 7900m | -4.4m/s | -22.5°C | 58.1% | 383.1hPa | 2.4V | 07:51:00 | 02:41:50 | 00:00:00 | |
| OE5FHM-15 | 2026-09-04 01:13:38 | 47.38327 | 12.66796 | 139° | 89km/h | 7904m | -4.2m/s | -22.5°C | 58.3% | 382.9hPa | 2.4V | 00:00:00 | 02:41:49 | 00:00:00 | |
| PG1ADW-2 | 2026-09-04 01:13:37 | 47.38345 | 12.66774 | 139° | 89km/h | 7908m | -4.6m/s | -22.5°C | 58.5% | 382.7hPa | 2.4V | 00:00:00 | 02:41:48 | 00:00:00 | |
| BAUMI2-15 | 2026-09-04 01:13:34 | 47.38395 | 12.66706 | 138° | 89km/h | 7921m | -4.2m/s | -22.6°C | 58.6% | 382.0hPa | 2.5V | 00:00:00 | 02:41:45 | 00:00:00 | |
| OE5HKT-10 | 2026-09-04 01:13:31 | 47.38445 | 12.66636 | 137° | 89km/h | 7934m | -4.6m/s | -22.8°C | 58.2% | 381.3hPa | 2.5V | 00:00:00 | 00:00:00 | 00:00:00 | |
| DO3MHA-11 | 2026-09-04 01:13:30 | 47.38462 | 12.66613 | 137° | 89km/h | 7939m | -4.7m/s | -22.8°C | 57.3% | 381.1hPa | 2.5V | 00:00:00 | 02:41:41 | 00:00:00 | |
| OE5MMP-10 | 2026-09-04 01:13:29 | 47.38478 | 12.66590 | 137° | 88km/h | 7943m | -4.6m/s | -22.8°C | 56.2% | 380.9hPa | 2.4V | 00:00:00 | 02:41:40 | 00:00:00 | |
| BAUMI2-15 | 2026-09-04 01:13:24 | 47.38559 | 12.66475 | 137° | 88km/h | 7968m | -5.2m/s | -22.9°C | 51.2% | 379.5hPa | 2.5V | 00:00:00 | 02:41:35 | 00:00:00 | |
| OE5WHR-10 | 2026-09-04 01:13:20 | 47.38623 | 12.66384 | 136° | 78km/h | 7988m | -5.0m/s | -22.9°C | 45.1% | 378.6hPa | 2.5V | 00:00:00 | 00:00:00 | 00:00:00 | |
| OE5MMP-10 | 2026-09-04 01:13:19 | 47.38638 | 12.66360 | 136° | 88km/h | 7993m | -4.9m/s | -22.9°C | 45.3% | 378.2hPa | 2.5V | 00:00:00 | 02:41:30 | 00:00:00 | |
| PG1ADW-2 | 2026-09-04 01:13:17 | 47.38670 | 12.66314 | 135° | 88km/h | 8003m | -4.8m/s | -23.0°C | 44.6% | 377.8hPa | 2.5V | 00:00:00 | 00:00:00 | 00:00:00 | |
| BAUMI2-15 | 2026-09-04 01:13:14 | 47.38717 | 12.66243 | 134° | 88km/h | 8017m | -4.8m/s | -23.1°C | 45.0% | 377.1hPa | 2.5V | 00:00:00 | 02:41:25 | 00:00:00 | |
| DO3MHA-11 | 2026-09-04 01:13:10 | 47.38778 | 12.66147 | 133° | 88km/h | 8036m | -4.5m/s | -23.3°C | 45.4% | 376.1hPa | 2.5V | 00:00:00 | 02:41:21 | 00:00:00 | |
| OE5MMP-10 | 2026-09-04 01:13:09 | 47.38792 | 12.66123 | 132° | 88km/h | 8040m | -4.7m/s | -23.3°C | 45.4% | 375.8hPa | 2.5V | 00:00:00 | 02:41:20 | 00:00:00 | |
| OE5FHM-15 | 2026-09-04 01:13:08 | 47.38807 | 12.66099 | 132° | 82km/h | 8045m | -4.9m/s | -23.4°C | 45.7% | 375.6hPa | 2.5V | 07:52:00 | 02:41:19 | 00:00:00 | |
| DL6DJ-15 | 2026-09-04 01:13:06 | 47.38837 | 12.66050 | 132° | 86km/h | 8054m | -4.7m/s | -23.5°C | 43.6% | 375.1hPa | 2.5V | 00:00:00 | 00:00:00 | 00:00:00 | |
| BAUMI2-15 | 2026-09-04 01:13:04 | 47.38866 | 12.66002 | 132° | 88km/h | 8064m | -4.9m/s | -23.5°C | 45.5% | 374.6hPa | 2.5V | 00:00:00 | 02:41:15 | 00:00:00 | |
| OE5DRO-10 | 2026-09-04 01:13:01 | 47.38910 | 12.65927 | 131° | 86km/h | 8079m | -5.1m/s | -23.6°C | 43.7% | 373.9hPa | 2.5V | 07:52:00 | 00:00:00 | 00:00:00 | |
| DO3MHA-11 | 2026-09-04 01:13:00 | 47.38924 | 12.65903 | 131° | 88km/h | 8084m | -4.8m/s | -23.6°C | 43.3% | 373.7hPa | 2.5V | 07:52:00 | 02:41:11 | 00:00:00 | |
| OE5MMP-10 | 2026-09-04 01:12:59 | 47.38939 | 12.65878 | 130° | 88km/h | 8089m | -4.9m/s | -23.7°C | 43.0% | 373.4hPa | 2.5V | 00:00:00 | 02:41:10 | 00:00:00 | |
| PG1ADW-2 | 2026-09-04 01:12:57 | 47.38968 | 12.65827 | 130° | 86km/h | 8099m | -4.6m/s | -23.8°C | 43.1% | 372.9hPa | 2.4V | 07:52:00 | 00:00:00 | 00:00:00 | |
| OE5HKT-10 | 2026-09-04 01:12:56 | 47.38982 | 12.65802 | 129° | 84km/h | 8103m | -4.6m/s | -23.8°C | 42.4% | 372.7hPa | 2.4V | 07:52:00 | 02:41:07 | 00:00:00 | |
| BAUMI2-15 | 2026-09-04 01:12:54 | 47.39010 | 12.65751 | 130° | 86km/h | 8112m | -4.4m/s | -23.9°C | 41.8% | 372.3hPa | 2.4V | 00:00:00 | 02:41:05 | 00:00:00 | |
| DG1MFX-10 | 2026-09-04 01:12:50 | 47.39064 | 12.65652 | 130° | 84km/h | 8130m | -4.8m/s | -24.0°C | 37.3% | 371.4hPa | 2.4V | 07:52:00 | 00:00:00 | 00:00:00 | |
| OE5MMP-10 | 2026-09-04 01:12:49 | 47.39078 | 12.65627 | 129° | 86km/h | 8135m | -4.5m/s | -24.0°C | 39.2% | 371.1hPa | 2.4V | 00:00:00 | 02:41:00 | 00:00:00 | |
| BAUMI2-15 | 2026-09-04 01:12:44 | 47.39145 | 12.65503 | 129° | 84km/h | 8157m | -4.7m/s | -24.1°C | 39.0% | 370.0hPa | 2.4V | 00:00:00 | 02:40:55 | 00:00:00 | |
| OE5DXL-15 | 2026-09-04 01:12:42 | 47.39171 | 12.65453 | 127° | 80km/h | 8166m | -4.3m/s | -24.2°C | 38.0% | 369.4hPa | 2.4V | 00:00:00 | 00:00:00 | 00:00:00 | |
| NBG1-10 | 2026-09-04 01:12:41 | 47.39184 | 12.65428 | 128° | 80km/h | 8170m | -4.7m/s | -24.2°C | 37.8% | 369.2hPa | 2.4V | 00:00:00 | 02:40:52 | 00:00:00 | |
| DO3MHA-11 | 2026-09-04 01:12:40 | 47.39197 | 12.65403 | 128° | 82km/h | 8175m | -4.4m/s | -24.2°C | 37.6% | 369.0hPa | 2.4V | 00:00:00 | 02:40:51 | 00:00:00 | |
| BAUMI2-15 | 2026-09-04 01:12:39 | 47.39210 | 12.65379 | 127° | 82km/h | 8179m | -4.5m/s | -24.3°C | 37.5% | 368.7hPa | 2.4V | 00:00:00 | 02:40:50 | 00:00:00 | |
| PG1ADW-2 | 2026-09-04 01:12:37 | 47.39235 | 12.65330 | 128° | 80km/h | 8188m | -4.3m/s | -24.4°C | 37.4% | 368.4hPa | 2.4V | 00:00:00 | 00:00:00 | 00:00:00 | |
| DL6DJ-15 | 2026-09-04 01:12:35 | 47.39260 | 12.65281 | 127° | 80km/h | 8197m | -4.7m/s | -24.5°C | 35.2% | 368.0hPa | 2.4V | 00:00:00 | 00:00:00 | 00:00:00 | |
| OE5HKT-10 | 2026-09-04 01:12:34 | 47.39272 | 12.65257 | 129° | 77km/h | 8202m | -4.5m/s | -24.5°C | 37.1% | 367.7hPa | 2.4V | 00:00:00 | 00:00:00 | 00:00:00 | |
| DO3MHA-11 | 2026-09-04 01:12:30 | 47.39323 | 12.65162 | 128° | 80km/h | 8221m | -4.8m/s | -24.6°C | 36.6% | 366.7hPa | 2.5V | 00:00:00 | 02:40:41 | 00:00:00 | |
| BAUMI2-15 | 2026-09-04 01:12:29 | 47.39335 | 12.65138 | 128° | 80km/h | 8226m | -4.7m/s | -24.7°C | 36.5% | 366.5hPa | 2.5V | 00:00:00 | 02:40:40 | 00:00:00 | |
| BAUMI2-15 | 2026-09-04 01:12:24 | 47.39397 | 12.65018 | 127° | 78km/h | 8249m | -4.4m/s | -24.8°C | 35.1% | 365.2hPa | 2.4V | 00:00:00 | 02:40:35 | 00:00:00 | |
| OE5DRO-10 | 2026-09-04 01:12:23 | 47.39408 | 12.64994 | 127° | 78km/h | 8253m | -4.4m/s | -24.8°C | 34.9% | 365.1hPa | 2.4V | 00:00:00 | 00:00:00 | 00:00:00 | |
| OE5FHM-15 | 2026-09-04 01:12:21 | 47.39432 | 12.64946 | 127° | 77km/h | 8262m | -4.6m/s | -24.9°C | 34.7% | 364.6hPa | 2.5V | 00:00:00 | 02:40:32 | 00:00:00 | |
| DO3MHA-11 | 2026-09-04 01:12:20 | 47.39444 | 12.64923 | 127° | 78km/h | 8267m | -4.4m/s | -24.9°C | 34.7% | 364.4hPa | 2.5V | 00:00:00 | 02:40:31 | 00:00:00 | |
| OE5MMP-10 | 2026-09-04 01:12:19 | 47.39456 | 12.64899 | 127° | 77km/h | 8271m | -4.6m/s | -25.0°C | 34.6% | 364.2hPa | 2.5V | 00:00:00 | 02:40:30 | 00:00:00 | |
| PG1ADW-2 | 2026-09-04 01:12:17 | 47.39480 | 12.64853 | 127° | 77km/h | 8281m | -4.8m/s | -25.0°C | 34.5% | 363.7hPa | 2.5V | 00:00:00 | 02:40:28 | 00:00:00 | |
| OE3JTB-15 | 2026-09-04 01:12:15 | 47.39503 | 12.64807 | 128° | 77km/h | 8290m | -4.8m/s | -25.1°C | 34.4% | 363.2hPa | 2.5V | 00:00:00 | 02:40:26 | 00:00:00 | |
| BAUMI2-15 | 2026-09-04 01:12:14 | 47.39515 | 12.64784 | 128° | 77km/h | 8295m | -5.1m/s | -25.2°C | 34.3% | 363.0hPa | 2.5V | 00:00:00 | 02:40:25 | 00:00:00 | |
| OE5DXL-15 | 2026-09-04 01:12:11 | 47.39551 | 12.64715 | 128° | 75km/h | 8310m | -4.9m/s | -25.3°C | 33.7% | 362.2hPa | 2.4V | 00:00:00 | 00:00:00 | 00:00:00 | |
| DO3MHA-11 | 2026-09-04 01:12:10 | 47.39564 | 12.64692 | 129° | 77km/h | 8315m | -4.9m/s | -25.3°C | 32.9% | 362.0hPa | 2.4V | 00:00:00 | 02:40:21 | 00:00:00 | |
| BAUMI2-15 | 2026-09-04 01:12:09 | 47.39575 | 12.64670 | 128° | 77km/h | 8320m | -5.0m/s | -25.3°C | 32.5% | 361.8hPa | 2.4V | 00:00:00 | 02:40:20 | 00:00:00 | |
| OE5MMP-10 | 2026-09-04 01:12:08 | 47.39588 | 12.64647 | 129° | 77km/h | 8325m | -5.1m/s | -25.4°C | 32.1% | 361.5hPa | 2.4V | 00:00:00 | 02:40:19 | 00:00:00 | |
| BAUMI2-15 | 2026-09-04 01:12:04 | 47.39636 | 12.64558 | 128° | 77km/h | 8345m | -4.9m/s | -25.5°C | 30.1% | 360.5hPa | 2.4V | 00:00:00 | 02:40:15 | 00:00:00 | |
| DO3MHA-11 | 2026-09-04 01:12:00 | 47.39684 | 12.64470 | 130° | 75km/h | 8365m | -4.9m/s | -25.6°C | 30.0% | 359.6hPa | 2.4V | 00:00:00 | 02:40:11 | 00:00:00 | |
| BAUMI2-15 | 2026-09-04 01:11:59 | 47.39696 | 12.64448 | 130° | 75km/h | 8370m | -5.0m/s | -25.7°C | 29.9% | 359.3hPa | 2.5V | 00:00:00 | 02:40:10 | 00:00:00 | |
| BAUMI2-15 | 2026-09-04 01:11:54 | 47.39758 | 12.64340 | 131° | 75km/h | 8394m | -5.2m/s | -25.8°C | 29.2% | 358.1hPa | 2.5V | 00:00:00 | 02:40:05 | 00:00:00 | |
| OE5FHM-15 | 2026-09-04 01:11:51 | 47.39795 | 12.64277 | 131° | 75km/h | 8410m | -5.1m/s | -26.0°C | 28.8% | 357.3hPa | 2.5V | 00:00:00 | 02:40:02 | 00:00:00 | |
| DO3MHA-11 | 2026-09-04 01:11:50 | 47.39808 | 12.64256 | 132° | 75km/h | 8415m | -5.1m/s | -26.0°C | 28.9% | 357.0hPa | 2.5V | 00:00:00 | 02:40:01 | 00:00:00 | |
| DG1MFX-10 | 2026-09-04 01:11:48 | 47.39820 | 12.64235 | 132° | 75km/h | 8420m | -5.0m/s | -26.1°C | 27.0% | 356.8hPa | 2.5V | 07:53:00 | 00:00:00 | 00:00:00 | |
| OE5MMP-10 | 2026-09-04 01:11:47 | 47.39845 | 12.64193 | 132° | 75km/h | 8430m | -5.2m/s | -26.1°C | 28.5% | 356.3hPa | 2.5V | 00:00:00 | 02:39:58 | 00:00:00 | |
| OE5DRO-10 | 2026-09-04 01:11:45 | 47.39871 | 12.64151 | 133° | 73km/h | 8440m | -5.0m/s | -26.1°C | 28.5% | 355.8hPa | 2.5V | 00:00:00 | 00:00:00 | 00:00:00 | |
| OE5DXL-15 | 2026-09-04 01:11:42 | 47.39908 | 12.64090 | 133° | 73km/h | 8455m | -5.1m/s | -26.3°C | 28.7% | 355.1hPa | 2.5V | 00:00:00 | 00:00:00 | 00:00:00 | |
| DO3MHA-11 | 2026-09-04 01:11:40 | 47.39933 | 12.64049 | 133° | 73km/h | 8466m | -5.3m/s | -26.4°C | 28.8% | 354.5hPa | 2.5V | 07:53:00 | 02:39:51 | 00:00:00 | |
| OE5MMP-10 | 2026-09-04 01:11:37 | 47.39971 | 12.63988 | 133° | 75km/h | 8481m | -5.0m/s | -26.5°C | 29.1% | 353.8hPa | 2.5V | 00:00:00 | 02:39:48 | 00:00:00 | |
| NBG1-10 | 2026-09-04 01:11:35 | 47.39996 | 12.63948 | 134° | 75km/h | 8491m | -5.0m/s | -26.6°C | 29.2% | 353.2hPa | 2.5V | 00:00:00 | 02:39:46 | 00:00:00 | |
| DL6DJ-15 | 2026-09-04 01:11:33 | 47.40021 | 12.63907 | 132° | 75km/h | 8501m | -5.0m/s | -26.7°C | 27.5% | 352.9hPa | 2.5V | 00:00:00 | 00:00:00 | 00:00:00 | |
| DO3MHA-11 | 2026-09-04 01:11:30 | 47.40059 | 12.63846 | 133° | 75km/h | 8517m | -5.5m/s | -26.8°C | 28.4% | 352.0hPa | 2.5V | 00:00:00 | 02:39:41 | 00:00:00 | |
| OE5MMP-10 | 2026-09-04 01:11:27 | 47.40097 | 12.63784 | 132° | 75km/h | 8533m | -5.3m/s | -26.6°C | 23.7% | 351.2hPa | 2.4V | 00:00:00 | 02:39:38 | 00:00:00 | |
| OE5HKT-10 | 2026-09-04 01:11:26 | 47.40110 | 12.63763 | 132° | 75km/h | 8538m | -5.0m/s | -26.6°C | 22.1% | 351.0hPa | 2.5V | 00:00:00 | 02:39:37 | 00:00:00 | |
| OE5FHM-15 | 2026-09-04 01:11:21 | 47.40172 | 12.63659 | 132° | 73km/h | 8564m | -5.4m/s | -26.7°C | 21.3% | 349.7hPa | 2.5V | 00:00:00 | 02:39:32 | 00:00:00 | |
| DO3MHA-11 | 2026-09-04 01:11:20 | 47.40184 | 12.63638 | 133° | 73km/h | 8569m | -5.5m/s | -26.7°C | 21.3% | 349.4hPa | 2.5V | 00:00:00 | 02:39:31 | 00:00:00 | |
| OE5MMP-10 | 2026-09-04 01:11:17 | 47.40222 | 12.63576 | 132° | 73km/h | 8585m | -5.4m/s | -26.8°C | 21.5% | 348.6hPa | 2.5V | 00:00:00 | 02:39:28 | 00:00:00 | |
| OE5DXL-15 | 2026-09-04 01:11:11 | 47.40297 | 12.63455 | 133° | 73km/h | 8618m | -5.3m/s | -27.1°C | 21.3% | 347.2hPa | 2.5V | 00:00:00 | 00:00:00 | 00:00:00 | |
| DO3MHA-11 | 2026-09-04 01:11:10 | 47.40310 | 12.63435 | 133° | 73km/h | 8623m | -5.3m/s | -27.1°C | 21.2% | 346.9hPa | 2.5V | 00:00:00 | 02:39:21 | 00:00:00 | |
| OE5MMP-10 | 2026-09-04 01:11:07 | 47.40348 | 12.63374 | 133° | 73km/h | 8638m | -5.1m/s | -27.2°C | 21.0% | 346.1hPa | 2.5V | 07:54:00 | 02:39:18 | 00:00:00 | |
| DG1MFX-10 | 2026-09-04 01:11:06 | 47.40348 | 12.63374 | 133° | 75km/h | 8638m | -5.1m/s | -27.2°C | 19.4% | 346.2hPa | 2.5V | 07:54:00 | 00:00:00 | 00:00:00 | |
| OE5HKT-10 | 2026-09-04 01:11:05 | 47.40373 | 12.63333 | 133° | 73km/h | 8648m | -5.2m/s | -27.2°C | 21.1% | 345.7hPa | 2.5V | 00:00:00 | 00:00:00 | 00:00:00 | |
| NBG1-10 | 2026-09-04 01:11:02 | 47.40411 | 12.63273 | 133° | 73km/h | 8664m | -5.2m/s | -27.4°C | 21.3% | 344.9hPa | 2.5V | 00:00:00 | 02:39:13 | 00:00:00 | |
| OE5WHR-10 | 2026-09-04 01:11:01 | 47.40424 | 12.63253 | 133° | 73km/h | 8669m | -5.1m/s | -27.4°C | 21.4% | 344.6hPa | 2.5V | 00:00:00 | 00:00:00 | 00:00:00 | |
| DO3MHA-11 | 2026-09-04 01:11:00 | 47.40436 | 12.63233 | 134° | 73km/h | 8674m | -5.2m/s | -27.5°C | 21.5% | 344.4hPa | 2.5V | 00:00:00 | 02:39:11 | 00:00:00 | |
| PG1ADW-2 | 2026-09-04 01:10:57 | 47.40474 | 12.63174 | 133° | 73km/h | 8690m | -5.4m/s | -27.6°C | 21.8% | 343.7hPa | 2.5V | 00:00:00 | 02:39:08 | 00:00:00 | |
| DO3MHA-11 | 2026-09-04 01:10:50 | 47.40563 | 12.63034 | 134° | 73km/h | 8728m | -5.4m/s | -28.0°C | 22.6% | 341.9hPa | 2.5V | 00:00:00 | 02:39:01 | 00:00:00 | |
| OE5DRO-10 | 2026-09-04 01:10:48 | 47.40588 | 12.62995 | 135° | 73km/h | 8739m | -5.4m/s | -28.1°C | 22.9% | 341.3hPa | 2.5V | 00:00:00 | 00:00:00 | 00:00:00 | |
| OE5MMP-10 | 2026-09-04 01:10:47 | 47.40601 | 12.62975 | 133° | 73km/h | 8744m | -5.5m/s | -28.2°C | 22.9% | 341.1hPa | 2.5V | 00:00:00 | 02:38:58 | 00:00:00 | |
| DG1MFX-10 | 2026-09-04 01:10:46 | 47.40601 | 12.62975 | 134° | 71km/h | 8744m | -5.6m/s | -28.2°C | 21.2% | 341.1hPa | 2.5V | 07:54:00 | 00:00:00 | 00:00:00 | |
| OE5HKT-10 | 2026-09-04 01:10:44 | 47.40638 | 12.62917 | 135° | 73km/h | 8761m | -5.4m/s | -28.3°C | 23.5% | 340.3hPa | 2.5V | 00:00:00 | 00:00:00 | 00:00:00 | |
| OE5DXL-15 | 2026-09-04 01:10:42 | 47.40664 | 12.62878 | 134° | 71km/h | 8772m | -5.3m/s | -28.4°C | 24.3% | 339.8hPa | 2.5V | 00:00:00 | 00:00:00 | 00:00:00 | |
| OE5WHR-10 | 2026-09-04 01:10:40 | 47.40690 | 12.62840 | 135° | 71km/h | 8782m | -5.1m/s | -28.5°C | 24.6% | 339.3hPa | 2.5V | 00:00:00 | 02:38:51 | 00:00:00 | |
| OE5MMP-10 | 2026-09-04 01:10:37 | 47.40729 | 12.62782 | 135° | 73km/h | 8797m | -5.5m/s | -28.7°C | 24.9% | 338.6hPa | 2.5V | 00:00:00 | 02:38:48 | 00:00:00 | |
| DO3MHA-11 | 2026-09-04 01:10:30 | 47.40818 | 12.62646 | 134° | 71km/h | 8835m | -5.3m/s | -29.0°C | 25.8% | 336.8hPa | 2.5V | 00:00:00 | 02:38:41 | 00:00:00 | |
| NBG1-10 | 2026-09-04 01:10:29 | 47.40831 | 12.62627 | 135° | 71km/h | 8840m | -5.4m/s | -29.1°C | 25.9% | 336.5hPa | 2.4V | 00:00:00 | 02:38:40 | 00:00:00 | |
| OE3JTB-15 | 2026-09-04 01:10:28 | 47.40843 | 12.62607 | 135° | 71km/h | 8846m | -5.5m/s | -29.2°C | 26.0% | 336.3hPa | 2.4V | 07:54:00 | 02:38:39 | 00:00:00 | |
| OE5MMP-10 | 2026-09-04 01:10:27 | 47.40856 | 12.62588 | 134° | 71km/h | 8851m | -5.5m/s | -29.2°C | 26.1% | 336.0hPa | 2.4V | 00:00:00 | 02:38:38 | 00:00:00 | |
| DG1MFX-10 | 2026-09-04 01:10:25 | 47.40869 | 12.62569 | 136° | 71km/h | 8857m | -5.8m/s | -29.3°C | 24.3% | 335.8hPa | 2.4V | 07:55:00 | 00:00:00 | 00:00:00 | |
| OE5HKT-10 | 2026-09-04 01:10:23 | 47.40906 | 12.62512 | 135° | 71km/h | 8874m | -5.7m/s | -29.4°C | 26.4% | 335.0hPa | 2.4V | 00:00:00 | 02:38:34 | 00:00:00 | |
| OE5FHM-15 | 2026-09-04 01:10:21 | 47.40931 | 12.62474 | 135° | 71km/h | 8885m | -5.6m/s | -29.5°C | 26.5% | 334.5hPa | 2.4V | 00:00:00 | 02:38:32 | 00:00:00 | |
| OE5WHR-10 | 2026-09-04 01:10:19 | 47.40956 | 12.62436 | 135° | 71km/h | 8896m | -5.7m/s | -29.6°C | 26.7% | 333.8hPa | 2.4V | 00:00:00 | 00:00:00 | 00:00:00 | |
| PG1ADW-2 | 2026-09-04 01:10:17 | 47.40982 | 12.62397 | 135° | 71km/h | 8907m | -5.4m/s | -29.7°C | 26.9% | 333.4hPa | 2.4V | 07:54:00 | 00:00:00 | 00:00:00 | |
| OE5DXL-15 | 2026-09-04 01:10:12 | 47.41046 | 12.62303 | 135° | 71km/h | 8934m | -5.6m/s | -30.0°C | 27.1% | 332.1hPa | 2.4V | 00:00:00 | 00:00:00 | 00:00:00 | |
| DO3MHA-11 | 2026-09-04 01:10:10 | 47.41071 | 12.62265 | 135° | 69km/h | 8945m | -5.7m/s | -30.1°C | 27.4% | 331.6hPa | 2.5V | 00:00:00 | 02:38:21 | 00:00:00 | |
| OE5MMP-10 | 2026-09-04 01:10:07 | 47.41109 | 12.62210 | 135° | 69km/h | 8962m | -5.6m/s | -30.3°C | 27.6% | 330.9hPa | 2.5V | 00:00:00 | 02:38:18 | 00:00:00 | |
| DG1MFX-10 | 2026-09-04 01:10:04 | 47.41134 | 12.62173 | 137° | 69km/h | 8973m | -5.4m/s | -30.4°C | 25.5% | 330.4hPa | 2.5V | 07:55:00 | 00:00:00 | 00:00:00 | |
| DL6DJ-15 | 2026-09-04 01:10:00 | 47.41213 | 12.62067 | 137° | 69km/h | 9006m | -5.7m/s | -30.7°C | 25.1% | 328.9hPa | 2.5V | 00:00:00 | 00:00:00 | 00:00:00 | |
| OE3JTB-15 | 2026-09-04 01:09:59 | 47.41212 | 12.62067 | 138° | 71km/h | 9006m | -5.7m/s | -30.6°C | 27.2% | 328.8hPa | 2.5V | 00:00:00 | 00:00:00 | 00:00:00 | |
| OE5WHR-10 | 2026-09-04 01:09:58 | 47.41226 | 12.62049 | 139° | 71km/h | 9011m | -5.5m/s | -30.7°C | 27.3% | 328.6hPa | 2.5V | 00:00:00 | 00:00:00 | 00:00:00 | |
| OE5MMP-10 | 2026-09-04 01:09:57 | 47.41239 | 12.62031 | 138° | 71km/h | 9017m | -5.5m/s | -30.7°C | 27.3% | 328.3hPa | 2.5V | 00:00:00 | 02:38:08 | 00:00:00 | |
| NBG1-10 | 2026-09-04 01:09:56 | 47.41252 | 12.62013 | 137° | 73km/h | 9022m | -5.4m/s | -30.8°C | 27.5% | 328.0hPa | 2.4V | 00:00:00 | 02:38:07 | 00:00:00 | |
| OE5FHM-15 | 2026-09-04 01:09:51 | 47.41319 | 12.61924 | 139° | 73km/h | 9049m | -5.6m/s | -31.0°C | 27.9% | 326.8hPa | 2.4V | 00:00:00 | 02:38:02 | 00:00:00 | |
| DO3MHA-11 | 2026-09-04 01:09:50 | 47.41332 | 12.61906 | 140° | 71km/h | 9055m | -5.6m/s | -31.1°C | 28.0% | 326.5hPa | 2.4V | 00:00:00 | 02:38:01 | 00:00:00 | |
| BAUMI2-15 | 2026-09-04 01:09:49 | 47.41346 | 12.61889 | 139° | 71km/h | 9060m | -5.6m/s | -31.1°C | 28.1% | 326.3hPa | 2.4V | 00:00:00 | 02:38:00 | 00:00:00 | |
| BAUMI2-15 | 2026-09-04 01:09:44 | 47.41414 | 12.61803 | 139° | 71km/h | 9089m | -5.5m/s | -31.4°C | 28.4% | 325.0hPa | 2.4V | 00:00:00 | 02:37:55 | 00:00:00 | |
| OE5DXL-15 | 2026-09-04 01:09:42 | 47.41442 | 12.61768 | 139° | 73km/h | 9100m | -5.4m/s | -31.5°C | 28.6% | 324.5hPa | 2.4V | 07:55:00 | 00:00:00 | 00:00:00 | |
| OE5HKT-10 | 2026-09-04 01:09:41 | 47.41456 | 12.61751 | 139° | 73km/h | 9105m | -5.4m/s | -31.5°C | 28.7% | 324.2hPa | 2.4V | 07:55:00 | 00:00:00 | 00:00:00 | |
| DO3MHA-11 | 2026-09-04 01:09:40 | 47.41469 | 12.61733 | 140° | 73km/h | 9110m | -5.4m/s | -31.6°C | 28.7% | 324.0hPa | 2.4V | 00:00:00 | 02:37:51 | 00:00:00 | |
| BAUMI2-15 | 2026-09-04 01:09:39 | 47.41483 | 12.61715 | 140° | 73km/h | 9116m | -5.3m/s | -31.6°C | 28.8% | 323.8hPa | 2.4V | 07:55:00 | 02:37:50 | 00:00:00 | |
| OE5MMP-10 | 2026-09-04 01:09:37 | 47.41512 | 12.61680 | 141° | 73km/h | 9126m | -5.2m/s | -31.7°C | 28.9% | 323.3hPa | 2.4V | 00:00:00 | 02:37:48 | 00:00:00 | |
| OE5WHR-10 | 2026-09-04 01:09:36 | 47.41526 | 12.61662 | 141° | 75km/h | 9131m | -5.0m/s | -31.8°C | 28.7% | 323.0hPa | 2.4V | 07:55:00 | 02:37:47 | 00:00:00 | |
| BAUMI2-15 | 2026-09-04 01:09:34 | 47.41553 | 12.61627 | 140° | 73km/h | 9142m | -5.4m/s | -31.8°C | 28.1% | 322.6hPa | 2.4V | 00:00:00 | 02:37:45 | 00:00:00 | |
| OE5DRO-10 | 2026-09-04 01:09:32 | 47.41581 | 12.61592 | 139° | 75km/h | 9153m | -5.6m/s | -31.9°C | 28.1% | 322.0hPa | 2.4V | 00:00:00 | 00:00:00 | 00:00:00 | |
| DO3MHA-11 | 2026-09-04 01:09:30 | 47.41609 | 12.61557 | 139° | 73km/h | 9164m | -5.4m/s | -32.0°C | 28.0% | 321.6hPa | 2.5V | 00:00:00 | 02:37:41 | 00:00:00 | |
| DL6DJ-15 | 2026-09-04 01:09:29 | 47.41637 | 12.61522 | 139° | 71km/h | 9174m | -5.4m/s | -32.2°C | 26.0% | 321.1hPa | 2.4V | 00:00:00 | 00:00:00 | 00:00:00 | |
| OE5MMP-10 | 2026-09-04 01:09:27 | 47.41651 | 12.61504 | 140° | 75km/h | 9180m | -5.3m/s | -32.2°C | 28.5% | 320.8hPa | 2.4V | 00:00:00 | 02:37:38 | 00:00:00 | |
| BAUMI2-15 | 2026-09-04 01:09:24 | 47.41694 | 12.61451 | 140° | 75km/h | 9196m | -5.2m/s | -32.3°C | 30.1% | 320.1hPa | 2.5V | 00:00:00 | 02:37:35 | 00:00:00 | |
| NBG1-10 | 2026-09-04 01:09:23 | 47.41709 | 12.61433 | 141° | 77km/h | 9201m | -5.1m/s | -32.4°C | 30.7% | 319.8hPa | 2.5V | 00:00:00 | 02:37:34 | 00:00:00 | |
| OE5FHM-15 | 2026-09-04 01:09:21 | 47.41738 | 12.61398 | 140° | 77km/h | 9211m | -5.2m/s | -32.5°C | 31.6% | 319.3hPa | 2.5V | 00:00:00 | 02:37:32 | 00:00:00 | |
| OE5HKT-10 | 2026-09-04 01:09:20 | 47.41752 | 12.61380 | 141° | 75km/h | 9216m | -5.4m/s | -32.5°C | 31.9% | 319.1hPa | 2.4V | 00:00:00 | 02:37:31 | 00:00:00 | |
| BAUMI2-15 | 2026-09-04 01:09:19 | 47.41767 | 12.61362 | 141° | 75km/h | 9222m | -5.7m/s | -32.6°C | 32.5% | 318.9hPa | 2.4V | 00:00:00 | 02:37:30 | 00:00:00 | |
| OE5MMP-10 | 2026-09-04 01:09:17 | 47.41796 | 12.61326 | 141° | 75km/h | 9233m | -5.5m/s | -32.7°C | 34.2% | 318.4hPa | 2.4V | 00:00:00 | 02:37:28 | 00:00:00 | |
| BAUMI2-15 | 2026-09-04 01:09:14 | 47.41840 | 12.61273 | 141° | 75km/h | 9249m | -5.3m/s | -32.8°C | 36.8% | 317.7hPa | 2.4V | 00:00:00 | 02:37:25 | 00:00:00 | |
| OE5DRO-10 | 2026-09-04 01:09:13 | 47.41854 | 12.61255 | 141° | 77km/h | 9255m | -5.6m/s | -32.9°C | 38.3% | 317.4hPa | 2.4V | 00:00:00 | 00:00:00 | 00:00:00 | |
| OE5DXL-15 | 2026-09-04 01:09:12 | 47.41869 | 12.61237 | 141° | 78km/h | 9260m | -5.7m/s | -32.9°C | 40.1% | 317.2hPa | 2.4V | 00:00:00 | 00:00:00 | 00:00:00 | |
| DO3MHA-11 | 2026-09-04 01:09:10 | 47.41898 | 12.61201 | 141° | 77km/h | 9271m | -5.5m/s | -33.0°C | 42.1% | 316.6hPa | 2.4V | 00:00:00 | 02:37:21 | 00:00:00 | |
| BAUMI2-15 | 2026-09-04 01:09:09 | 47.41912 | 12.61184 | 141° | 77km/h | 9277m | -5.6m/s | -33.1°C | 42.9% | 316.4hPa | 2.4V | 00:00:00 | 02:37:20 | 00:00:00 | |
| OE5WHR-10 | 2026-09-04 01:09:08 | 47.41927 | 12.61166 | 141° | 77km/h | 9282m | -5.4m/s | -33.1°C | 43.3% | 316.1hPa | 2.4V | 00:00:00 | 00:00:00 | 00:00:00 | |
| OE5MMP-10 | 2026-09-04 01:09:07 | 47.41942 | 12.61147 | 141° | 77km/h | 9288m | -5.6m/s | -33.2°C | 43.5% | 315.9hPa | 2.4V | 00:00:00 | 02:37:18 | 00:00:00 | |
| BAUMI2-15 | 2026-09-04 01:09:04 | 47.41987 | 12.61093 | 141° | 77km/h | 9304m | -5.9m/s | -33.3°C | 43.5% | 315.2hPa | 2.4V | 00:00:00 | 02:37:15 | 00:00:00 | |
| DG1MFX-10 | 2026-09-04 01:09:02 | 47.42002 | 12.61074 | 141° | 77km/h | 9310m | -5.4m/s | -33.4°C | 40.4% | 315.0hPa | 2.4V | 07:57:00 | 00:00:00 | 00:00:00 | |
| DL6DJ-15 | 2026-09-04 01:08:58 | 47.42092 | 12.60965 | 140° | 75km/h | 9342m | -5.7m/s | -33.7°C | 38.7% | 313.5hPa | 2.4V | 00:00:00 | 00:00:00 | 00:00:00 | |
| OE5MMP-10 | 2026-09-04 01:08:57 | 47.42092 | 12.60965 | 141° | 78km/h | 9343m | -5.7m/s | -33.6°C | 41.6% | 313.4hPa | 2.4V | 00:00:00 | 02:37:08 | 00:00:00 | |
| BAUMI2-15 | 2026-09-04 01:08:55 | 47.42137 | 12.60910 | 142° | 78km/h | 9359m | -5.5m/s | -33.8°C | 40.5% | 312.7hPa | 2.5V | 00:00:00 | 02:37:05 | 00:00:00 | |
| DB0NH | 2026-09-04 01:08:52 | 47.42183 | 12.60856 | 142° | 82km/h | 9375m | -5.6m/s | 0°C | 0% | 0hPa | 2.5V | 00:00:00 | 02:37:02 | 00:00:00 | |
| DO3MHA-11 | 2026-09-04 01:08:51 | 47.42199 | 12.60837 | 141° | 82km/h | 9381m | -5.5m/s | -34.0°C | 40.7% | 311.7hPa | 2.5V | 00:00:00 | 02:37:01 | 00:00:00 | |
| BAUMI2-15 | 2026-09-04 01:08:50 | 47.42215 | 12.60818 | 143° | 82km/h | 9386m | -5.5m/s | -34.0°C | 40.8% | 311.5hPa | 2.5V | 00:00:00 | 02:37:00 | 00:00:00 | |
| OE5MMP-10 | 2026-09-04 01:08:47 | 47.42247 | 12.60781 | 142° | 82km/h | 9397m | -5.4m/s | -34.1°C | 41.2% | 311.0hPa | 2.5V | 00:00:00 | 02:36:58 | 00:00:00 | |
| DB0ND-19 | 2026-09-04 01:08:45 | 47.42296 | 12.60724 | 142° | 82km/h | 9413m | -5.8m/s | 0°C | -1.0% | -1.0hPa | 2.5V | 00:00:00 | 00:00:00 | 00:00:00 | |
| BAUMI2-15 | 2026-09-04 01:08:44 | 47.42296 | 12.60724 | 143° | 82km/h | 9413m | -5.7m/s | -34.3°C | 41.9% | 310.3hPa | 2.5V | 00:00:00 | 02:36:55 | 00:00:00 | |
| OE5DXL-15 | 2026-09-04 01:08:42 | 47.42329 | 12.60688 | 143° | 84km/h | 9424m | -5.8m/s | -34.4°C | 42.2% | 309.8hPa | 2.4V | 00:00:00 | 00:00:00 | 00:00:00 | |
| DG1MFX-10 | 2026-09-04 01:08:41 | 47.42329 | 12.60688 | 143° | 80km/h | 9424m | -5.9m/s | -34.4°C | 39.1% | 309.9hPa | 2.4V | 07:57:00 | 00:00:00 | 00:00:00 | |
| DO3MHA-11 | 2026-09-04 01:08:40 | 47.42362 | 12.60651 | 144° | 84km/h | 9435m | -6.0m/s | -34.5°C | 42.3% | 309.4hPa | 2.4V | 00:00:00 | 02:36:51 | 00:00:00 | |
| BAUMI2-15 | 2026-09-04 01:08:39 | 47.42378 | 12.60633 | 144° | 82km/h | 9441m | -5.9m/s | -34.5°C | 42.4% | 309.0hPa | 2.4V | 00:00:00 | 02:36:50 | 00:00:00 | |
| OE5HKT-10 | 2026-09-04 01:08:38 | 47.42395 | 12.60614 | 144° | 84km/h | 9447m | -6.0m/s | -34.5°C | 42.2% | 308.8hPa | 2.4V | 00:00:00 | 00:00:00 | 00:00:00 | |
| OE5MMP-10 | 2026-09-04 01:08:37 | 47.42412 | 12.60596 | 144° | 84km/h | 9453m | -5.9m/s | -34.6°C | 42.3% | 308.5hPa | 2.4V | 00:00:00 | 02:36:48 | 00:00:00 | |
| OE5DRO-10 | 2026-09-04 01:08:35 | 47.42445 | 12.60559 | 144° | 84km/h | 9465m | -5.8m/s | -34.7°C | 42.5% | 308.0hPa | 2.4V | 00:00:00 | 00:00:00 | 00:00:00 | |
| BAUMI2-15 | 2026-09-04 01:08:34 | 47.42462 | 12.60540 | 144° | 84km/h | 9470m | -5.7m/s | -34.7°C | 42.5% | 307.8hPa | 2.5V | 00:00:00 | 02:36:45 | 00:00:00 | |
| OE3JTB-15 | 2026-09-04 01:08:32 | 47.42497 | 12.60503 | 144° | 86km/h | 9481m | -5.9m/s | -34.8°C | 43.0% | 307.3hPa | 2.5V | 00:00:00 | 00:00:00 | 00:00:00 | |
| DO3MHA-11 | 2026-09-04 01:08:30 | 47.42532 | 12.60466 | 144° | 84km/h | 9493m | -5.5m/s | -34.9°C | 43.4% | 306.8hPa | 2.4V | 00:00:00 | 02:36:41 | 00:00:00 | |
| BAUMI2-15 | 2026-09-04 01:08:29 | 47.42549 | 12.60447 | 145° | 84km/h | 9498m | -5.5m/s | -35.0°C | 43.7% | 306.6hPa | 2.4V | 00:00:00 | 02:36:40 | 00:00:00 | |
| OE5MMP-10 | 2026-09-04 01:08:27 | 47.42584 | 12.60411 | 145° | 86km/h | 9509m | -5.3m/s | -35.1°C | 43.9% | 306.0hPa | 2.5V | 07:56:00 | 02:36:38 | 00:00:00 | |
| OE5WHR-10 | 2026-09-04 01:08:26 | 47.42601 | 12.60392 | 145° | 86km/h | 9515m | -5.3m/s | -35.1°C | 44.0% | 305.8hPa | 2.4V | 00:00:00 | 02:36:37 | 00:00:00 | |
| BAUMI2-15 | 2026-09-04 01:08:24 | 47.42636 | 12.60355 | 145° | 86km/h | 9526m | -5.5m/s | -35.2°C | 44.5% | 305.3hPa | 2.4V | 00:00:00 | 02:36:35 | 00:00:00 | |
| OE5FHM-15 | 2026-09-04 01:08:21 | 47.42688 | 12.60299 | 145° | 86km/h | 9542m | -5.8m/s | -35.4°C | 45.6% | 304.6hPa | 2.4V | 00:00:00 | 02:36:32 | 00:00:00 | |
| DO3MHA-11 | 2026-09-04 01:08:20 | 47.42706 | 12.60281 | 144° | 86km/h | 9548m | -5.5m/s | -35.4°C | 45.8% | 304.3hPa | 2.4V | 00:00:00 | 02:36:31 | 00:00:00 | |
| BAUMI2-15 | 2026-09-04 01:08:19 | 47.42723 | 12.60262 | 144° | 86km/h | 9554m | -5.6m/s | -35.5°C | 46.1% | 304.1hPa | 2.4V | 07:56:00 | 02:36:30 | 00:00:00 | |
| OE5HKT-10 | 2026-09-04 01:08:17 | 47.42758 | 12.60225 | 144° | 86km/h | 9565m | -5.8m/s | -35.6°C | 46.6% | 303.6hPa | 2.4V | 00:00:00 | 02:36:28 | 00:00:00 | |
| OE5DRO-10 | 2026-09-04 01:08:16 | 47.42776 | 12.60206 | 145° | 86km/h | 9571m | -5.7m/s | -35.6°C | 46.8% | 303.4hPa | 2.4V | 00:00:00 | 00:00:00 | 00:00:00 | |
| BAUMI2-15 | 2026-09-04 01:08:14 | 47.42812 | 12.60169 | 145° | 86km/h | 9582m | -5.7m/s | -35.7°C | 47.6% | 302.9hPa | 2.4V | 00:00:00 | 02:36:25 | 00:00:00 | |
| OE5DXL-15 | 2026-09-04 01:08:12 | 47.42847 | 12.60132 | 145° | 86km/h | 9593m | -5.5m/s | -35.8°C | 48.2% | 302.3hPa | 2.5V | 00:00:00 | 00:00:00 | 00:00:00 | |
| DO3MHA-11 | 2026-09-04 01:08:10 | 47.42883 | 12.60095 | 145° | 86km/h | 9604m | -5.6m/s | -35.9°C | 48.8% | 302.0hPa | 2.5V | 00:00:00 | 02:36:21 | 00:00:00 | |
| BAUMI2-15 | 2026-09-04 01:08:09 | 47.42901 | 12.60076 | 144° | 86km/h | 9609m | -5.4m/s | -36.0°C | 49.0% | 301.7hPa | 2.5V | 00:00:00 | 02:36:20 | 00:00:00 | |
| OE5MMP-10 | 2026-09-04 01:08:07 | 47.42936 | 12.60038 | 144° | 86km/h | 9620m | -5.1m/s | -36.1°C | 49.4% | 301.2hPa | 2.5V | 00:00:00 | 02:36:18 | 00:00:00 | |
| OE5WHR-10 | 2026-09-04 01:08:05 | 47.42970 | 12.60001 | 144° | 86km/h | 9630m | -5.5m/s | -36.2°C | 49.8% | 300.8hPa | 2.5V | 00:00:00 | 00:00:00 | 00:00:00 | |
| BAUMI2-15 | 2026-09-04 01:08:04 | 47.42988 | 12.59982 | 143° | 84km/h | 9636m | -5.2m/s | -36.2°C | 49.8% | 300.5hPa | 2.5V | 00:00:00 | 02:36:15 | 00:00:00 | |
| OE3JTB-15 | 2026-09-04 01:08:03 | 47.43005 | 12.59962 | 144° | 88km/h | 9641m | -5.9m/s | -36.3°C | 49.9% | 300.3hPa | 2.5V | 00:00:00 | 00:00:00 | 00:00:00 | |
| DL6DJ-15 | 2026-09-04 01:07:56 | 47.43144 | 12.59813 | 144° | 86km/h | 9686m | -5.4m/s | -36.8°C | 48.2% | 298.4hPa | 2.5V | 00:00:00 | 00:00:00 | 00:00:00 | |
| BAUMI2-15 | 2026-09-04 01:07:54 | 47.43162 | 12.59794 | 144° | 86km/h | 9691m | -5.6m/s | -36.8°C | 52.2% | 298.2hPa | 2.5V | 00:00:00 | 02:36:05 | 00:00:00 | |
| OE5FHM-15 | 2026-09-04 01:07:51 | 47.43215 | 12.59737 | 144° | 91km/h | 9707m | -5.2m/s | -36.9°C | 53.1% | 297.5hPa | 2.5V | 00:00:00 | 02:36:02 | 00:00:00 | |
| DO3MHA-11 | 2026-09-04 01:07:50 | 47.43233 | 12.59718 | 144° | 88km/h | 9712m | -5.0m/s | -37.0°C | 53.5% | 297.2hPa | 2.5V | 00:00:00 | 02:36:01 | 00:00:00 | |
| PG1ADW-2 | 2026-09-04 01:07:49 | 47.43251 | 12.59699 | 144° | 89km/h | 9717m | -4.8m/s | -37.0°C | 53.9% | 297.0hPa | 2.5V | 00:00:00 | 02:36:00 | 00:00:00 | |
| OE5MMP-10 | 2026-09-04 01:07:47 | 47.43286 | 12.59660 | 144° | 89km/h | 9727m | -5.0m/s | -37.1°C | 54.1% | 296.6hPa | 2.5V | 00:00:00 | 02:35:58 | 00:00:00 | |
| OE5WHR-10 | 2026-09-04 01:07:44 | 47.43340 | 12.59603 | 145° | 91km/h | 9743m | -5.6m/s | -37.3°C | 54.7% | 295.9hPa | 2.5V | 00:00:00 | 00:00:00 | 00:00:00 | |
| OE5DXL-15 | 2026-09-04 01:07:42 | 47.43377 | 12.59564 | 145° | 93km/h | 9754m | -5.4m/s | -37.4°C | 54.8% | 295.5hPa | 2.5V | 00:00:00 | 00:00:00 | 00:00:00 | |
| DO3MHA-11 | 2026-09-04 01:07:40 | 47.43414 | 12.59525 | 146° | 91km/h | 9764m | -4.8m/s | -37.5°C | 55.5% | 295.0hPa | 2.5V | 07:57:00 | 02:35:51 | 00:00:00 | |
| DG1MFX-10 | 2026-09-04 01:07:39 | 47.43414 | 12.59525 | 146° | 91km/h | 9764m | -4.9m/s | -37.5°C | 51.5% | 295.1hPa | 2.5V | 07:57:00 | 00:00:00 | 00:00:00 | |
| OE5DRO-10 | 2026-09-04 01:07:38 | 47.43452 | 12.59486 | 146° | 93km/h | 9774m | -5.2m/s | -37.6°C | 56.3% | 294.6hPa | 2.5V | 00:00:00 | 00:00:00 | 00:00:00 | |
| OE5MMP-10 | 2026-09-04 01:07:37 | 47.43471 | 12.59467 | 145° | 93km/h | 9780m | -5.1m/s | -37.6°C | 56.6% | 294.3hPa | 2.4V | 00:00:00 | 02:35:48 | 00:00:00 | |
| OE5HKT-10 | 2026-09-04 01:07:35 | 47.43509 | 12.59428 | 145° | 93km/h | 9790m | -5.9m/s | -37.7°C | 57.4% | 293.9hPa | 2.4V | 00:00:00 | 00:00:00 | 00:00:00 | |
| OE3JTB-15 | 2026-09-04 01:07:34 | 47.43528 | 12.59408 | 145° | 95km/h | 9796m | -5.6m/s | -37.8°C | 57.9% | 293.7hPa | 2.4V | 00:00:00 | 02:35:45 | 00:00:00 | |
| DO3MHA-11 | 2026-09-04 01:07:30 | 47.43605 | 12.59329 | 146° | 95km/h | 9817m | -5.7m/s | -37.9°C | 58.3% | 292.7hPa | 2.4V | 00:00:00 | 02:35:41 | 00:00:00 | |
| PG1ADW-2 | 2026-09-04 01:07:29 | 47.43624 | 12.59310 | 146° | 95km/h | 9822m | -5.7m/s | -38.0°C | 58.4% | 292.5hPa | 2.4V | 00:00:00 | 00:00:00 | 00:00:00 | |
| OE5MMP-10 | 2026-09-04 01:07:27 | 47.43664 | 12.59271 | 147° | 95km/h | 9833m | -5.6m/s | -38.1°C | 58.2% | 292.1hPa | 2.4V | 00:00:00 | 02:35:38 | 00:00:00 | |
| OE5WHR-10 | 2026-09-04 01:07:23 | 47.43745 | 12.59193 | 147° | 95km/h | 9856m | -5.7m/s | -38.2°C | 56.9% | 291.2hPa | 2.4V | 00:00:00 | 02:35:34 | 00:00:00 | |
| DO3MHA-11 | 2026-09-04 01:07:20 | 47.43804 | 12.59135 | 148° | 95km/h | 9872m | -6.0m/s | -38.4°C | 55.3% | 290.4hPa | 2.4V | 00:00:00 | 02:35:31 | 00:00:00 | |
| OE5DRO-10 | 2026-09-04 01:07:19 | 47.43824 | 12.59116 | 147° | 95km/h | 9879m | -6.1m/s | -38.4°C | 54.8% | 290.1hPa | 2.4V | 00:00:00 | 00:00:00 | 00:00:00 | |
| OE5MMP-10 | 2026-09-04 01:07:17 | 47.43865 | 12.59078 | 148° | 95km/h | 9890m | -5.8m/s | -38.6°C | 55.6% | 289.7hPa | 2.4V | 00:00:00 | 02:35:28 | 00:00:00 | |
| OE5HKT-10 | 2026-09-04 01:07:14 | 47.43927 | 12.59021 | 148° | 95km/h | 9907m | -5.3m/s | -38.7°C | 56.7% | 288.9hPa | 2.4V | 00:00:00 | 02:35:25 | 00:00:00 | |
| OE5DXL-15 | 2026-09-04 01:07:12 | 47.43968 | 12.58983 | 149° | 93km/h | 9918m | -5.6m/s | -38.8°C | 56.8% | 288.5hPa | 2.4V | 00:00:00 | 00:00:00 | 00:00:00 | |
| DO3MHA-11 | 2026-09-04 01:07:10 | 47.44009 | 12.58945 | 148° | 93km/h | 9929m | -5.8m/s | -38.9°C | 57.1% | 288.0hPa | 2.5V | 00:00:00 | 02:35:21 | 00:00:00 | |
| PG1ADW-2 | 2026-09-04 01:07:09 | 47.44029 | 12.58927 | 148° | 93km/h | 9935m | -5.9m/s | -39.0°C | 57.3% | 287.8hPa | 2.5V | 07:58:00 | 00:00:00 | 00:00:00 | |
| OE5MMP-10 | 2026-09-04 01:07:07 | 47.44068 | 12.58890 | 148° | 95km/h | 9946m | -5.7m/s | -39.1°C | 57.6% | 287.3hPa | 2.5V | 07:58:00 | 02:35:18 | 00:00:00 | |
| OE3JTB-15 | 2026-09-04 01:07:05 | 47.44108 | 12.58853 | 148° | 93km/h | 9958m | -5.5m/s | -39.2°C | 57.8% | 286.9hPa | 2.5V | 00:00:00 | 00:00:00 | 00:00:00 | |
| OE5WHR-10 | 2026-09-04 01:07:02 | 47.44168 | 12.58796 | 149° | 95km/h | 9974m | -5.4m/s | -39.4°C | 58.4% | 286.1hPa | 2.4V | 00:00:00 | 00:00:00 | 00:00:00 | |
| DO3MHA-11 | 2026-09-04 01:07:00 | 47.44209 | 12.58758 | 149° | 95km/h | 9985m | -5.8m/s | -39.5°C | 58.5% | 285.7hPa | 2.4V | 00:00:00 | 02:35:11 | 00:00:00 | |
| DG1MFX-10 | 2026-09-04 01:06:59 | 47.44209 | 12.58758 | 149° | 97km/h | 9985m | -5.8m/s | -39.5°C | 54.1% | 285.7hPa | 2.4V | 07:58:00 | 00:00:00 | 00:00:00 | |
| OE5MMP-10 | 2026-09-04 01:06:57 | 47.44271 | 12.58702 | 150° | 93km/h | 10002m | -6.0m/s | -39.6°C | 58.9% | 284.9hPa | 2.4V | 00:00:00 | 02:35:08 | 00:00:00 | |
| OE5HKT-10 | 2026-09-04 01:06:53 | 47.44352 | 12.58630 | 150° | 93km/h | 10025m | -5.6m/s | -39.8°C | 59.1% | 284.0hPa | 2.5V | 07:58:00 | 00:00:00 | 00:00:00 | |
| OE5FHM-15 | 2026-09-04 01:06:51 | 47.44393 | 12.58595 | 150° | 93km/h | 10036m | -5.9m/s | -39.9°C | 59.0% | 283.6hPa | 2.4V | 00:00:00 | 02:35:02 | 00:00:00 | |
| DO3MHA-11 | 2026-09-04 01:06:50 | 47.44413 | 12.58578 | 150° | 93km/h | 10042m | -5.9m/s | -40.0°C | 59.4% | 283.3hPa | 2.4V | 00:00:00 | 02:35:01 | 00:00:00 | |
| PG1ADW-2 | 2026-09-04 01:06:49 | 47.44434 | 12.58561 | 151° | 93km/h | 10048m | -5.7m/s | -40.1°C | 59.8% | 283.1hPa | 2.4V | 00:00:00 | 00:00:00 | 00:00:00 | |
| OE5MMP-10 | 2026-09-04 01:06:47 | 47.44475 | 12.58526 | 151° | 93km/h | 10059m | -5.5m/s | -40.2°C | 59.6% | 282.6hPa | 2.4V | 00:00:00 | 02:34:58 | 00:00:00 | |
| OE5WHR-10 | 2026-09-04 01:06:41 | 47.44598 | 12.58421 | 151° | 93km/h | 10092m | -5.7m/s | -40.4°C | 55.6% | 281.2hPa | 2.4V | 07:58:00 | 00:00:00 | 00:00:00 | |
| DO3MHA-11 | 2026-09-04 01:06:40 | 47.44619 | 12.58404 | 150° | 93km/h | 10097m | -5.8m/s | -40.5°C | 54.8% | 280.9hPa | 2.4V | 00:00:00 | 02:34:51 | 00:00:00 | |
| DG1MFX-10 | 2026-09-04 01:06:38 | 47.44639 | 12.58386 | 152° | 93km/h | 10103m | -5.8m/s | -40.6°C | 49.8% | 280.8hPa | 2.4V | 07:58:00 | 00:00:00 | 00:00:00 | |
| OE5MMP-10 | 2026-09-04 01:06:37 | 47.44680 | 12.58352 | 151° | 93km/h | 10114m | -5.9m/s | -40.6°C | 53.2% | 280.3hPa | 2.4V | 00:00:00 | 02:34:48 | 00:00:00 | |
| OE3JTB-15 | 2026-09-04 01:06:36 | 47.44700 | 12.58335 | 151° | 93km/h | 10120m | -6.0m/s | -40.6°C | 53.4% | 280.0hPa | 2.4V | 07:58:00 | 00:00:00 | 00:00:00 | |
| DO3MHA-11 | 2026-09-04 01:06:30 | 47.44824 | 12.58231 | 150° | 93km/h | 10155m | -5.4m/s | -40.9°C | 55.2% | 278.6hPa | 2.4V | 00:00:00 | 02:34:41 | 00:00:00 | |
| PG1ADW-2 | 2026-09-04 01:06:29 | 47.44845 | 12.58213 | 151° | 93km/h | 10160m | -5.6m/s | -41.0°C | 55.4% | 278.4hPa | 2.4V | 00:00:00 | 02:34:40 | 00:00:00 | |
| OE5MMP-10 | 2026-09-04 01:06:27 | 47.44886 | 12.58179 | 151° | 93km/h | 10171m | -5.9m/s | -41.1°C | 55.8% | 277.9hPa | 2.4V | 00:00:00 | 02:34:38 | 00:00:00 | |
| OE5DRO-10 | 2026-09-04 01:06:22 | 47.44989 | 12.58093 | 151° | 93km/h | 10200m | -5.8m/s | -41.4°C | 56.4% | 276.8hPa | 2.4V | 00:00:00 | 00:00:00 | 00:00:00 | |
| OE5FHM-15 | 2026-09-04 01:06:21 | 47.45009 | 12.58075 | 151° | 93km/h | 10205m | -5.7m/s | -41.4°C | 56.5% | 276.6hPa | 2.4V | 00:00:00 | 02:34:32 | 00:00:00 | |
| DO3MHA-11 | 2026-09-04 01:06:20 | 47.45030 | 12.58058 | 150° | 93km/h | 10211m | -5.7m/s | -41.5°C | 56.7% | 276.3hPa | 2.5V | 07:58:00 | 02:34:31 | 00:00:00 | |
| OE5WHR-10 | 2026-09-04 01:06:19 | 47.45050 | 12.58041 | 151° | 93km/h | 10217m | -5.7m/s | -41.5°C | 56.6% | 276.1hPa | 2.5V | 00:00:00 | 02:34:30 | 00:00:00 | |
| OE5MMP-10 | 2026-09-04 01:06:17 | 47.45091 | 12.58006 | 150° | 93km/h | 10228m | -5.7m/s | -41.6°C | 56.8% | 275.7hPa | 2.5V | 00:00:00 | 02:34:28 | 00:00:00 | |
| OE5DXL-15 | 2026-09-04 01:06:11 | 47.45214 | 12.57899 | 150° | 91km/h | 10262m | -5.8m/s | -42.0°C | 55.6% | 274.3hPa | 2.5V | 00:00:00 | 02:34:22 | 00:00:00 | |
| DO3MHA-11 | 2026-09-04 01:06:10 | 47.45234 | 12.57881 | 150° | 93km/h | 10267m | -5.9m/s | -42.0°C | 55.3% | 273.9hPa | 2.5V | 00:00:00 | 02:34:21 | 00:00:00 | |
| PG1ADW-2 | 2026-09-04 01:06:09 | 47.45255 | 12.57864 | 151° | 91km/h | 10273m | -5.8m/s | -42.1°C | 55.0% | 273.8hPa | 2.5V | 00:00:00 | 00:00:00 | 00:00:00 | |
| OE5MMP-10 | 2026-09-04 01:06:07 | 47.45295 | 12.57829 | 150° | 91km/h | 10285m | -5.9m/s | -42.2°C | 53.7% | 273.4hPa | 2.4V | 00:00:00 | 02:34:18 | 00:00:00 | |
| OE5DRO-10 | 2026-09-04 01:06:03 | 47.45376 | 12.57760 | 150° | 91km/h | 10308m | -5.7m/s | -42.4°C | 52.7% | 272.4hPa | 2.4V | 00:00:00 | 00:00:00 | 00:00:00 | |
| DO3MHA-11 | 2026-09-04 01:06:00 | 47.45436 | 12.57708 | 150° | 91km/h | 10325m | -6.1m/s | -42.6°C | 53.8% | 271.7hPa | 2.4V | 00:00:00 | 02:34:11 | 00:00:00 | |
| OE5WHR-10 | 2026-09-04 01:05:57 | 47.45496 | 12.57656 | 150° | 91km/h | 10342m | -5.9m/s | -42.7°C | 53.4% | 271.0hPa | 2.5V | 00:00:00 | 00:00:00 | 00:00:00 | |
| OE5HKT-10 | 2026-09-04 01:05:54 | 47.45555 | 12.57603 | 149° | 93km/h | 10360m | -5.8m/s | -42.9°C | 52.6% | 270.3hPa | 2.4V | 00:00:00 | 00:00:00 | 00:00:00 | |
| OE5FHM-15 | 2026-09-04 01:05:51 | 47.45615 | 12.57549 | 150° | 93km/h | 10377m | -5.9m/s | -43.0°C | 51.4% | 269.6hPa | 2.4V | 00:00:00 | 02:34:02 | 00:00:00 | |
| DO3MHA-11 | 2026-09-04 01:05:50 | 47.45635 | 12.57531 | 149° | 91km/h | 10383m | -6.0m/s | -43.1°C | 51.4% | 269.4hPa | 2.4V | 00:00:00 | 02:34:01 | 00:00:00 | |
| PG1ADW-2 | 2026-09-04 01:05:49 | 47.45655 | 12.57514 | 150° | 91km/h | 10389m | -6.1m/s | -43.1°C | 51.5% | 269.1hPa | 2.4V | 00:00:00 | 00:00:00 | 00:00:00 | |
| OE5MMP-10 | 2026-09-04 01:05:47 | 47.45695 | 12.57478 | 149° | 91km/h | 10401m | -5.9m/s | -43.2°C | 51.8% | 268.6hPa | 2.4V | 07:59:00 | 02:33:58 | 00:00:00 | |
| BAUMI2-15 | 2026-09-04 01:05:44 | 47.45755 | 12.57425 | 150° | 91km/h | 10418m | -5.9m/s | -43.4°C | 52.8% | 268.0hPa | 2.4V | 00:00:00 | 02:33:55 | 00:00:00 | |
| DO3MHA-11 | 2026-09-04 01:05:40 | 47.45835 | 12.57354 | 149° | 91km/h | 10442m | -6.0m/s | -43.6°C | 54.4% | 267.0hPa | 2.4V | 00:00:00 | 02:33:51 | 00:00:00 | |
| BAUMI2-15 | 2026-09-04 01:05:39 | 47.45855 | 12.57336 | 149° | 91km/h | 10448m | -5.8m/s | -43.7°C | 54.9% | 266.8hPa | 2.4V | 07:59:00 | 02:33:50 | 00:00:00 | |
| OE3JTB-15 | 2026-09-04 01:05:38 | 47.45875 | 12.57318 | 149° | 93km/h | 10454m | -6.2m/s | -43.7°C | 55.2% | 266.6hPa | 2.4V | 00:00:00 | 00:00:00 | 00:00:00 | |
| OE5MMP-10 | 2026-09-04 01:05:37 | 47.45894 | 12.57300 | 149° | 91km/h | 10460m | -5.9m/s | -43.8°C | 55.7% | 266.3hPa | 2.4V | 00:00:00 | 02:33:48 | 00:00:00 | |
| OE5WHR-10 | 2026-09-04 01:05:34 | 47.45953 | 12.57246 | 149° | 93km/h | 10478m | -6.0m/s | -44.0°C | 56.7% | 265.6hPa | 2.4V | 00:00:00 | 00:00:00 | 00:00:00 | |
| DB0UT-7 | 2026-09-04 01:05:32 | 47.45993 | 12.57210 | 149° | 97km/h | 10489m | -6.0m/s | -44.1°C | 56.2% | 265.1hPa | 2.4V | 00:00:00 | 00:00:00 | 00:00:00 | |
| DO3MHA-11 | 2026-09-04 01:05:30 | 47.46033 | 12.57174 | 149° | 93km/h | 10501m | -5.9m/s | -44.2°C | 55.1% | 264.7hPa | 2.4V | 00:00:00 | 02:33:41 | 00:00:00 | |
| BAUMI2-15 | 2026-09-04 01:05:29 | 47.46053 | 12.57156 | 149° | 93km/h | 10507m | -6.2m/s | -44.2°C | 54.2% | 264.5hPa | 2.5V | 00:00:00 | 02:33:40 | 00:00:00 | |
| OE5MMP-10 | 2026-09-04 01:05:27 | 47.46093 | 12.57120 | 149° | 93km/h | 10520m | -6.1m/s | -44.3°C | 53.3% | 264.0hPa | 2.4V | 00:00:00 | 02:33:38 | 00:00:00 | |
| OE5HKT-10 | 2026-09-04 01:05:26 | 47.46113 | 12.57102 | 149° | 93km/h | 10525m | -5.9m/s | -44.4°C | 53.0% | 263.8hPa | 2.4V | 00:00:00 | 02:33:37 | 00:00:00 | |
| OE5DRO-10 | 2026-09-04 01:05:25 | 47.46133 | 12.57084 | 149° | 93km/h | 10531m | -6.0m/s | -44.5°C | 52.8% | 263.5hPa | 2.4V | 07:59:00 | 00:00:00 | 00:00:00 | |
| BAUMI2-15 | 2026-09-04 01:05:24 | 47.46153 | 12.57066 | 149° | 93km/h | 10538m | -6.3m/s | -44.5°C | 52.1% | 263.3hPa | 2.4V | 00:00:00 | 02:33:35 | 00:00:00 | |
| OE5FHM-15 | 2026-09-04 01:05:21 | 47.46213 | 12.57011 | 148° | 97km/h | 10556m | -6.3m/s | -44.7°C | 53.6% | 262.6hPa | 2.4V | 00:00:00 | 02:33:32 | 00:00:00 | |
| DO3MHA-11 | 2026-09-04 01:05:20 | 47.46233 | 12.56993 | 149° | 93km/h | 10563m | -6.3m/s | -44.7°C | 54.1% | 262.3hPa | 2.4V | 00:00:00 | 02:33:31 | 00:00:00 | |
| BAUMI2-15 | 2026-09-04 01:05:19 | 47.46253 | 12.56975 | 149° | 93km/h | 10569m | -6.1m/s | -44.8°C | 54.5% | 262.1hPa | 2.4V | 00:00:00 | 02:33:30 | 00:00:00 | |
| OE5MMP-10 | 2026-09-04 01:05:17 | 47.46293 | 12.56938 | 149° | 93km/h | 10581m | -5.9m/s | -44.9°C | 55.1% | 261.6hPa | 2.4V | 00:00:00 | 02:33:28 | 00:00:00 | |
| DG1MFX-10 | 2026-09-04 01:05:16 | 47.46293 | 12.56938 | 149° | 93km/h | 10581m | -6.0m/s | -45.0°C | 49.9% | 261.7hPa | 2.4V | 08:00:00 | 00:00:00 | 00:00:00 | |
| BAUMI2-15 | 2026-09-04 01:05:14 | 47.46353 | 12.56883 | 149° | 93km/h | 10599m | -5.9m/s | -45.1°C | 55.5% | 260.9hPa | 2.4V | 00:00:00 | 02:33:25 | 00:00:00 | |
| OE5WHR-10 | 2026-09-04 01:05:13 | 47.46373 | 12.56864 | 149° | 95km/h | 10605m | -5.9m/s | -45.1°C | 55.5% | 260.7hPa | 2.5V | 00:00:00 | 02:33:24 | 00:00:00 | |
| DO3MHA-11 | 2026-09-04 01:05:10 | 47.46434 | 12.56810 | 150° | 95km/h | 10623m | -5.8m/s | -45.3°C | 55.6% | 260.0hPa | 2.5V | 00:00:00 | 02:33:21 | 00:00:00 | |
| BAUMI2-15 | 2026-09-04 01:05:09 | 47.46455 | 12.56792 | 150° | 95km/h | 10628m | -5.7m/s | -45.4°C | 55.4% | 259.8hPa | 2.5V | 00:00:00 | 02:33:20 | 00:00:00 | |
| OE5MMP-10 | 2026-09-04 01:05:07 | 47.46495 | 12.56755 | 150° | 93km/h | 10640m | -5.9m/s | -45.5°C | 55.5% | 259.3hPa | 2.5V | 00:00:00 | 02:33:18 | 00:00:00 | |
| OE5DRO-10 | 2026-09-04 01:05:06 | 47.46516 | 12.56737 | 149° | 95km/h | 10646m | -5.8m/s | -45.5°C | 55.6% | 259.1hPa | 2.5V | 00:00:00 | 00:00:00 | 00:00:00 | |
| OE5HKT-10 | 2026-09-04 01:05:05 | 47.46536 | 12.56719 | 149° | 95km/h | 10652m | -5.8m/s | -45.6°C | 55.9% | 258.9hPa | 2.5V | 00:00:00 | 00:00:00 | 00:00:00 | |
| BAUMI2-15 | 2026-09-04 01:05:04 | 47.46556 | 12.56700 | 149° | 93km/h | 10658m | -5.8m/s | -45.6°C | 55.9% | 258.6hPa | 2.5V | 00:00:00 | 02:33:15 | 00:00:00 | |
| DO3MHA-11 | 2026-09-04 01:05:00 | 47.46637 | 12.56627 | 149° | 95km/h | 10681m | -5.9m/s | -45.9°C | 56.5% | 257.7hPa | 2.5V | 08:00:00 | 02:33:11 | 00:00:00 | |
| BAUMI2-15 | 2026-09-04 01:04:59 | 47.46657 | 12.56609 | 149° | 93km/h | 10687m | -5.8m/s | -45.9°C | 56.8% | 257.5hPa | 2.4V | 00:00:00 | 02:33:10 | 00:00:00 | |
| OE5MMP-10 | 2026-09-04 01:04:57 | 47.46697 | 12.56572 | 149° | 95km/h | 10698m | -5.7m/s | -46.0°C | 57.5% | 257.1hPa | 2.4V | 00:00:00 | 02:33:08 | 00:00:00 | |
| DG1MFX-10 | 2026-09-04 01:04:55 | 47.46717 | 12.56554 | 150° | 93km/h | 10704m | -5.9m/s | -46.1°C | 52.1% | 256.9hPa | 2.4V | 08:00:00 | 00:00:00 | 00:00:00 | |
| BAUMI2-15 | 2026-09-04 01:04:54 | 47.46758 | 12.56517 | 149° | 97km/h | 10716m | -5.4m/s | -46.2°C | 57.6% | 256.4hPa | 2.4V | 00:00:00 | 02:33:05 | 00:00:00 | |
| OE5WHR-10 | 2026-09-04 01:04:52 | 47.46801 | 12.56480 | 151° | 99km/h | 10727m | -6.1m/s | -46.3°C | 57.3% | 256.0hPa | 2.4V | 08:00:00 | 00:00:00 | 00:00:00 | |
| DO3MHA-11 | 2026-09-04 01:04:50 | 47.46843 | 12.56444 | 151° | 97km/h | 10740m | -6.1m/s | -46.4°C | 56.9% | 255.5hPa | 2.5V | 00:00:00 | 02:33:01 | 00:00:00 | |
| BAUMI2-15 | 2026-09-04 01:04:49 | 47.46864 | 12.56426 | 150° | 97km/h | 10746m | -6.0m/s | -46.5°C | 56.6% | 255.3hPa | 2.5V | 00:00:00 | 02:33:00 | 00:00:00 | |
| OE5MMP-10 | 2026-09-04 01:04:47 | 47.46906 | 12.56390 | 150° | 97km/h | 10758m | -6.0m/s | -46.6°C | 56.0% | 254.8hPa | 2.5V | 00:00:00 | 02:32:58 | 00:00:00 | |
| OE5HKT-10 | 2026-09-04 01:04:44 | 47.46969 | 12.56335 | 150° | 99km/h | 10776m | -6.2m/s | -46.7°C | 53.4% | 254.1hPa | 2.5V | 00:00:00 | 00:00:00 | 00:00:00 | |
| DO3MHA-11 | 2026-09-04 01:04:40 | 47.47054 | 12.56262 | 151° | 99km/h | 10801m | -6.1m/s | -46.8°C | 44.9% | 253.2hPa | 2.5V | 00:00:00 | 02:32:51 | 00:00:00 | |
| BAUMI2-15 | 2026-09-04 01:04:39 | 47.47076 | 12.56244 | 150° | 99km/h | 10806m | -5.8m/s | -46.9°C | 43.9% | 253.0hPa | 2.5V | 00:00:00 | 02:32:50 | 00:00:00 | |
| OE5MMP-10 | 2026-09-04 01:04:37 | 47.47120 | 12.56207 | 151° | 99km/h | 10818m | -6.0m/s | -47.0°C | 43.7% | 252.5hPa | 2.5V | 00:00:00 | 02:32:48 | 00:00:00 | |
| DG1MFX-10 | 2026-09-04 01:04:35 | 47.47142 | 12.56189 | 151° | 100km/h | 10824m | -6.0m/s | -47.1°C | 38.6% | 252.3hPa | 2.5V | 08:01:00 | 00:00:00 | 00:00:00 | |
| BAUMI2-15 | 2026-09-04 01:04:34 | 47.47185 | 12.56152 | 151° | 99km/h | 10837m | -5.8m/s | -47.2°C | 43.5% | 251.8hPa | 2.5V | 00:00:00 | 02:32:45 | 00:00:00 | |
| OE5WHR-10 | 2026-09-04 01:04:31 | 47.47251 | 12.56097 | 151° | 100km/h | 10855m | -6.1m/s | -47.3°C | 43.3% | 251.1hPa | 2.5V | 00:00:00 | 00:00:00 | 00:00:00 | |
| DO3MHA-11 | 2026-09-04 01:04:30 | 47.47273 | 12.56079 | 151° | 100km/h | 10861m | -6.1m/s | -47.4°C | 43.2% | 250.9hPa | 2.5V | 00:00:00 | 02:32:41 | 00:00:00 | |
| PG1ADW-2 | 2026-09-04 01:04:29 | 47.47295 | 12.56061 | 150° | 100km/h | 10867m | -5.8m/s | -47.4°C | 43.1% | 250.7hPa | 2.4V | 00:00:00 | 00:00:00 | 00:00:00 | |
| OE5DRO-10 | 2026-09-04 01:04:28 | 47.47316 | 12.56042 | 151° | 100km/h | 10873m | -5.9m/s | -47.5°C | 43.1% | 250.4hPa | 2.4V | 00:00:00 | 00:00:00 | 00:00:00 | |
| OE5MMP-10 | 2026-09-04 01:04:27 | 47.47338 | 12.56024 | 150° | 102km/h | 10879m | -6.2m/s | -47.5°C | 43.2% | 250.2hPa | 2.4V | 00:00:00 | 02:32:38 | 00:00:00 | |
| OE5FHM-15 | 2026-09-04 01:04:26 | 47.47360 | 12.56005 | 150° | 102km/h | 10885m | -5.9m/s | -47.6°C | 43.3% | 249.9hPa | 2.4V | 00:00:00 | 02:32:37 | 00:00:00 | |
| BAUMI2-15 | 2026-09-04 01:04:24 | 47.47404 | 12.55967 | 150° | 102km/h | 10897m | -5.9m/s | -47.7°C | 43.6% | 249.5hPa | 2.4V | 00:00:00 | 02:32:35 | 00:00:00 | |
| OE5HKT-10 | 2026-09-04 01:04:23 | 47.47427 | 12.55947 | 150° | 102km/h | 10903m | -6.1m/s | -47.7°C | 43.5% | 249.2hPa | 2.4V | 00:00:00 | 02:32:34 | 00:00:00 | |
| DO3MHA-11 | 2026-09-04 01:04:20 | 47.47495 | 12.55890 | 152° | 100km/h | 10921m | -6.1m/s | -47.9°C | 44.1% | 248.6hPa | 2.4V | 00:00:00 | 02:32:31 | 00:00:00 | |
| BAUMI2-15 | 2026-09-04 01:04:19 | 47.47518 | 12.55872 | 151° | 100km/h | 10927m | -6.1m/s | -48.0°C | 44.3% | 248.3hPa | 2.4V | 00:00:00 | 02:32:30 | 00:00:00 | |
| DL6DJ-15 | 2026-09-04 01:04:18 | 47.47540 | 12.55853 | 151° | 100km/h | 10933m | -6.2m/s | -48.1°C | 39.5% | 248.2hPa | 2.4V | 00:00:00 | 00:00:00 | 00:00:00 | |
| OE5MMP-10 | 2026-09-04 01:04:17 | 47.47562 | 12.55835 | 151° | 100km/h | 10940m | -5.7m/s | -48.1°C | 44.7% | 247.9hPa | 2.4V | 00:00:00 | 02:32:28 | 00:00:00 | |
| DG1MFX-10 | 2026-09-04 01:04:15 | 47.47584 | 12.55816 | 151° | 100km/h | 10946m | -5.9m/s | -48.2°C | 39.6% | 247.8hPa | 2.4V | 08:01:00 | 00:00:00 | 00:00:00 | |
| BAUMI2-15 | 2026-09-04 01:04:14 | 47.47627 | 12.55779 | 149° | 99km/h | 10958m | -6.2m/s | -48.2°C | 44.9% | 247.2hPa | 2.4V | 00:00:00 | 02:32:25 | 00:00:00 | |
| OE3JTB-15 | 2026-09-04 01:04:12 | 47.47690 | 12.55722 | 148° | 102km/h | 10976m | -5.8m/s | -48.4°C | 45.4% | 246.5hPa | 2.4V | 08:01:00 | 00:00:00 | 00:00:00 | |
| OE5WHR-10 | 2026-09-04 01:04:10 | 47.47712 | 12.55702 | 148° | 104km/h | 10982m | -5.6m/s | -48.5°C | 45.5% | 246.3hPa | 2.4V | 00:00:00 | 02:32:21 | 00:00:00 | |
| BAUMI2-15 | 2026-09-04 01:04:09 | 47.47733 | 12.55681 | 148° | 108km/h | 10988m | -5.8m/s | -48.5°C | 45.5% | 246.1hPa | 2.4V | 00:00:00 | 02:32:20 | 00:00:00 | |
| OE5MMP-10 | 2026-09-04 01:04:07 | 47.47779 | 12.55640 | 151° | 100km/h | 10999m | -5.2m/s | -48.6°C | 45.2% | 245.7hPa | 2.4V | 00:00:00 | 02:32:18 | 00:00:00 | |
| DB0ND-19 | 2026-09-04 01:04:06 | 47.47853 | 12.55585 | 155° | 104km/h | 11016m | -5.8m/s | 0°C | -1.0% | -1.0hPa | 2.4V | 00:00:00 | 00:00:00 | 00:00:00 | |
| BAUMI2-15 | 2026-09-04 01:04:04 | 47.47853 | 12.55584 | 156° | 97km/h | 11016m | -5.7m/s | -48.8°C | 45.2% | 245.0hPa | 2.4V | 00:00:00 | 02:32:15 | 00:00:00 | |
| OE5HKT-10 | 2026-09-04 01:04:02 | 47.47899 | 12.55553 | 154° | 100km/h | 11027m | -5.4m/s | -48.9°C | 45.2% | 244.6hPa | 2.4V | 08:01:00 | 00:00:00 | 00:00:00 | |
| DO3MHA-11 | 2026-09-04 01:04:00 | 47.47940 | 12.55520 | 149° | 106km/h | 11038m | -5.7m/s | -49.0°C | 45.3% | 244.2hPa | 2.5V | 00:00:00 | 02:32:11 | 00:00:00 | |
| BAUMI2-15 | 2026-09-04 01:03:59 | 47.47959 | 12.55501 | 146° | 104km/h | 11044m | -5.8m/s | -49.0°C | 45.6% | 244.0hPa | 2.4V | 00:00:00 | 02:32:10 | 00:00:00 | |
| OE5MMP-10 | 2026-09-04 01:03:57 | 47.48000 | 12.55458 | 144° | 108km/h | 11055m | -5.2m/s | -49.1°C | 45.6% | 243.6hPa | 2.4V | 08:01:00 | 02:32:08 | 00:00:00 | |
| DG1MFX-10 | 2026-09-04 01:03:54 | 47.48045 | 12.55411 | 147° | 113km/h | 11066m | -6.3m/s | -49.3°C | 40.1% | 243.2hPa | 2.5V | 00:00:00 | 00:00:00 | 00:00:00 | |
| DO3MHA-11 | 2026-09-04 01:03:50 | 47.48168 | 12.55309 | 156° | 99km/h | 11095m | -5.8m/s | -49.5°C | 44.7% | 242.1hPa | 2.5V | 00:00:00 | 02:32:01 | 00:00:00 | |
| OE5WHR-10 | 2026-09-04 01:03:49 | 47.48191 | 12.55293 | 155° | 102km/h | 11101m | -5.5m/s | -49.5°C | 44.5% | 241.9hPa | 2.5V | 00:00:00 | 00:00:00 | 00:00:00 | |
| OE5MMP-10 | 2026-09-04 01:03:47 | 47.48234 | 12.55261 | 153° | 102km/h | 11111m | -5.6m/s | -49.6°C | 44.2% | 241.5hPa | 2.5V | 00:00:00 | 02:31:58 | 00:00:00 | |
| DF3TZ-5 | 2026-09-04 01:03:43 | 47.48314 | 12.55185 | 143° | 99km/h | 11135m | -5.5m/s | -49.9°C | 38.1% | 240.7hPa | 2.5V | 00:00:00 | 00:00:00 | 00:00:00 | |
| OE3JTB-15 | 2026-09-04 01:03:42 | 47.48334 | 12.55162 | 144° | 104km/h | 11141m | -5.9m/s | -49.9°C | 43.5% | 240.4hPa | 2.5V | 00:00:00 | 00:00:00 | 00:00:00 | |
| OE5HKT-10 | 2026-09-04 01:03:41 | 47.48356 | 12.55139 | 145° | 111km/h | 11147m | -6.0m/s | -50.0°C | 43.7% | 240.2hPa | 2.5V | 00:00:00 | 00:00:00 | 00:00:00 | |
| DO3MHA-11 | 2026-09-04 01:03:40 | 47.48379 | 12.55116 | 147° | 108km/h | 11153m | -5.4m/s | -50.0°C | 43.9% | 240.0hPa | 2.5V | 00:00:00 | 02:31:51 | 00:00:00 | |
| OE5MMP-10 | 2026-09-04 01:03:37 | 47.48453 | 12.55052 | 153° | 102km/h | 11170m | -6.0m/s | -50.2°C | 44.0% | 239.4hPa | 2.5V | 00:00:00 | 02:31:48 | 00:00:00 | |
| NBG1-10 | 2026-09-04 01:03:33 | 47.48554 | 12.54986 | 159° | 99km/h | 11193m | -6.2m/s | -50.4°C | 44.2% | 238.5hPa | 2.5V | 00:00:00 | 02:31:44 | 00:00:00 | |
| OE5DRO-10 | 2026-09-04 01:03:31 | 47.48602 | 12.54958 | 159° | 99km/h | 11206m | -5.7m/s | -50.5°C | 44.5% | 238.1hPa | 2.5V | 00:00:00 | 00:00:00 | 00:00:00 | |
| DO3MHA-11 | 2026-09-04 01:03:30 | 47.48624 | 12.54945 | 158° | 99km/h | 11211m | -5.9m/s | -50.6°C | 44.7% | 237.8hPa | 2.5V | 08:01:00 | 02:31:41 | 00:00:00 | |
| DB0UT-7 | 2026-09-04 01:03:29 | 47.48646 | 12.54931 | 156° | 100km/h | 11218m | -6.0m/s | -50.6°C | 44.8% | 237.6hPa | 2.4V | 00:00:00 | 02:31:40 | 00:00:00 | |
| OE5WHR-10 | 2026-09-04 01:03:28 | 47.48666 | 12.54916 | 153° | 99km/h | 11223m | -5.8m/s | -50.7°C | 45.0% | 237.4hPa | 2.4V | 00:00:00 | 00:00:00 | 00:00:00 | |
| OE5MMP-10 | 2026-09-04 01:03:27 | 47.48686 | 12.54900 | 150° | 104km/h | 11229m | -5.2m/s | -50.7°C | 45.0% | 237.2hPa | 2.4V | 00:00:00 | 02:31:38 | 00:00:00 | |
| OE5FHM-15 | 2026-09-04 01:03:24 | 47.48747 | 12.54841 | 146° | 99km/h | 11246m | -6.1m/s | -50.9°C | 45.3% | 236.6hPa | 2.4V | 00:00:00 | 02:31:35 | 00:00:00 | |
| DO3MHA-11 | 2026-09-04 01:03:20 | 47.48843 | 12.54758 | 155° | 97km/h | 11268m | -6.2m/s | -51.1°C | 45.4% | 235.7hPa | 2.4V | 00:00:00 | 02:31:31 | 00:00:00 | |
| OE5MMP-10 | 2026-09-04 01:03:17 | 47.48919 | 12.54710 | 159° | 93km/h | 11285m | -5.4m/s | -51.3°C | 45.6% | 235.1hPa | 2.4V | 00:00:00 | 02:31:28 | 00:00:00 | |
| DL6DJ-15 | 2026-09-04 01:03:16 | 47.48965 | 12.54684 | 159° | 93km/h | 11296m | -6.2m/s | -51.4°C | 39.8% | 234.8hPa | 2.4V | 00:00:00 | 00:00:00 | 00:00:00 | |
| OE3JTB-15 | 2026-09-04 01:03:13 | 47.49007 | 12.54659 | 156° | 99km/h | 11308m | -5.5m/s | -51.5°C | 45.9% | 234.3hPa | 2.4V | 00:00:00 | 02:31:24 | 00:00:00 | |
| OE5DRO-10 | 2026-09-04 01:03:12 | 47.49027 | 12.54645 | 154° | 95km/h | 11314m | -5.5m/s | -51.5°C | 45.8% | 234.1hPa | 2.4V | 00:00:00 | 00:00:00 | 00:00:00 | |
| DO3MHA-11 | 2026-09-04 01:03:10 | 47.49066 | 12.54612 | 149° | 104km/h | 11325m | -6.2m/s | -51.6°C | 45.8% | 233.7hPa | 2.4V | 00:00:00 | 02:31:21 | 00:00:00 | |
| PG1ADW-2 | 2026-09-04 01:03:09 | 47.49086 | 12.54594 | 149° | 97km/h | 11331m | -5.7m/s | -51.6°C | 45.9% | 233.5hPa | 2.4V | 00:00:00 | 00:00:00 | 00:00:00 | |
| OE5WHR-10 | 2026-09-04 01:03:07 | 47.49130 | 12.54555 | 151° | 99km/h | 11342m | -5.5m/s | -51.7°C | 45.5% | 233.1hPa | 2.4V | 00:00:00 | 02:31:18 | 00:00:00 | |
| NBG1-10 | 2026-09-04 01:03:00 | 47.49301 | 12.54446 | 162° | 95km/h | 11382m | -5.4m/s | -52.1°C | 46.0% | 231.6hPa | 2.4V | 00:00:00 | 02:31:11 | 00:00:00 | |
| DB0UT-7 | 2026-09-04 01:02:59 | 47.49322 | 12.54436 | 161° | 91km/h | 11388m | -5.5m/s | -52.1°C | 45.9% | 231.5hPa | 2.4V | 00:00:00 | 00:00:00 | 00:00:00 | |
| OE5MMP-10 | 2026-09-04 01:02:57 | 47.49362 | 12.54412 | 157° | 97km/h | 11399m | -5.6m/s | -52.2°C | 46.2% | 231.0hPa | 2.4V | 00:00:00 | 02:31:08 | 00:00:00 | |
| OE5FHM-15 | 2026-09-04 01:02:54 | 47.49420 | 12.54368 | 150° | 97km/h | 11416m | -6.0m/s | -52.4°C | 45.6% | 230.4hPa | 2.5V | 08:02:00 | 02:31:05 | 00:00:00 | |
| OE5DRO-10 | 2026-09-04 01:02:53 | 47.49440 | 12.54351 | 150° | 99km/h | 11422m | -5.5m/s | -52.4°C | 45.5% | 230.2hPa | 2.4V | 00:00:00 | 00:00:00 | 00:00:00 | |
| DO3MHA-11 | 2026-09-04 01:02:50 | 47.49507 | 12.54295 | 152° | 100km/h | 11439m | -6.3m/s | -52.6°C | 45.0% | 229.6hPa | 2.4V | 00:00:00 | 02:31:01 | 00:00:00 | |
| PG1ADW-2 | 2026-09-04 01:02:49 | 47.49531 | 12.54277 | 154° | 99km/h | 11445m | -6.0m/s | -52.6°C | 45.2% | 229.4hPa | 2.4V | 00:00:00 | 00:00:00 | 00:00:00 | |
| OE5HKT-10 | 2026-09-04 01:02:47 | 47.49580 | 12.54243 | 158° | 104km/h | 11457m | -5.9m/s | -52.7°C | 45.4% | 229.0hPa | 2.4V | 00:00:00 | 02:30:58 | 00:00:00 | |
| OE5WHR-10 | 2026-09-04 01:02:46 | 47.49606 | 12.54228 | 160° | 95km/h | 11463m | -5.9m/s | -52.7°C | 45.4% | 228.7hPa | 2.4V | 00:00:00 | 00:00:00 | 00:00:00 | |
| DL6DJ-15 | 2026-09-04 01:02:45 | 47.49656 | 12.54203 | 161° | 99km/h | 11475m | -5.8m/s | -52.8°C | 40.3% | 228.3hPa | 2.4V | 00:00:00 | 00:00:00 | 00:00:00 | |
| OE3JTB-15 | 2026-09-04 01:02:44 | 47.49656 | 12.54203 | 162° | 95km/h | 11475m | -5.8m/s | -52.7°C | 46.5% | 228.3hPa | 2.4V | 00:00:00 | 00:00:00 | 00:00:00 | |
| OE5DXL-15 | 2026-09-04 01:02:40 | 47.49741 | 12.54153 | 154° | 99km/h | 11497m | -5.7m/s | -52.9°C | 47.6% | 227.6hPa | 2.4V | 00:00:00 | 00:00:00 | 00:00:00 | |
| OE5MMP-10 | 2026-09-04 01:02:37 | 47.49803 | 12.54103 | 150° | 97km/h | 11514m | -5.7m/s | -53.1°C | 48.5% | 226.9hPa | 2.4V | 00:00:00 | 02:30:48 | 00:00:00 | |
| OE5DRO-10 | 2026-09-04 01:02:34 | 47.49870 | 12.54047 | 154° | 97km/h | 11532m | -5.6m/s | -53.3°C | 50.3% | 226.3hPa | 2.4V | 00:00:00 | 00:00:00 | 00:00:00 | |
| PG1ADW-2 | 2026-09-04 01:02:29 | 47.49983 | 12.53985 | 162° | 99km/h | 11560m | -6.3m/s | -53.5°C | 50.7% | 225.3hPa | 2.4V | 00:00:00 | 02:30:40 | 00:00:00 | |
| OE5MMP-10 | 2026-09-04 01:02:27 | 47.50025 | 12.53963 | 160° | 93km/h | 11571m | -6.1m/s | -53.6°C | 51.5% | 224.9hPa | 2.4V | 08:02:00 | 02:30:38 | 00:00:00 | |
| OE5WHR-10 | 2026-09-04 01:02:25 | 47.50064 | 12.53938 | 154° | 99km/h | 11583m | -5.8m/s | -53.8°C | 52.0% | 224.5hPa | 2.4V | 00:00:00 | 00:00:00 | 00:00:00 | |
| OE5FHM-15 | 2026-09-04 01:02:24 | 47.50084 | 12.53922 | 151° | 102km/h | 11589m | -6.2m/s | -53.8°C | 51.6% | 224.3hPa | 2.4V | 00:00:00 | 02:30:35 | 00:00:00 | |
| OE5MMP-10 | 2026-09-04 01:02:17 | 47.50234 | 12.53790 | 153° | 106km/h | 11632m | -5.7m/s | -54.2°C | 54.1% | 222.8hPa | 2.4V | 00:00:00 | 02:30:28 | 00:00:00 | |
| OE5DRO-10 | 2026-09-04 01:02:15 | 47.50286 | 12.53754 | 157° | 102km/h | 11643m | -6.6m/s | -54.3°C | 55.1% | 222.4hPa | 2.4V | 00:00:00 | 00:00:00 | 00:00:00 | |
| DL6DJ-15 | 2026-09-04 01:02:14 | 47.50338 | 12.53722 | 158° | 110km/h | 11656m | -6.5m/s | -54.5°C | 49.0% | 222.0hPa | 2.4V | 00:00:00 | 00:00:00 | 00:00:00 | |
| IN3HCDX | 2026-09-04 01:02:12 | 47.50338 | 12.53721 | 160° | 111km/h | 11656m | -6.5m/s | -54.5°C | 49.0% | 222.0hPa | 2.4V | 08:03:00 | 00:00:00 | 00:00:00 | |
| OE5DXL-15 | 2026-09-04 01:02:10 | 47.50414 | 12.53683 | 163° | 100km/h | 11674m | -5.8m/s | -54.6°C | 56.8% | 221.3hPa | 2.4V | 00:00:00 | 00:00:00 | 00:00:00 | |
| PG1ADW-2 | 2026-09-04 01:02:09 | 47.50438 | 12.53672 | 162° | 100km/h | 11680m | -5.4m/s | -54.7°C | 57.3% | 221.1hPa | 2.4V | 08:03:00 | 00:00:00 | 00:00:00 | |
| OE5MMP-10 | 2026-09-04 01:02:07 | 47.50481 | 12.53647 | 157° | 100km/h | 11692m | -5.8m/s | -54.8°C | 57.4% | 220.7hPa | 2.4V | 00:00:00 | 02:30:18 | 00:00:00 | |
| OE5WHR-10 | 2026-09-04 01:02:04 | 47.50541 | 12.53603 | 150° | 102km/h | 11710m | -5.7m/s | -55.0°C | 57.8% | 220.1hPa | 2.4V | 00:00:00 | 02:30:15 | 00:00:00 | |
| DB0ND-19 | 2026-09-04 01:02:01 | 47.50605 | 12.53545 | 148° | 106km/h | 11727m | -5.5m/s | 0°C | -1.0% | -1.0hPa | 2.4V | 00:00:00 | 00:00:00 | 00:00:00 | |
| DB0UT-7 | 2026-09-04 01:01:59 | 47.50653 | 12.53503 | 152° | 102km/h | 11738m | -5.9m/s | -55.2°C | 58.8% | 219.1hPa | 2.4V | 00:00:00 | 00:00:00 | 00:00:00 | |
| OE5HKT-10 | 2026-09-04 01:01:57 | 47.50705 | 12.53465 | 156° | 108km/h | 11750m | -5.7m/s | -55.4°C | 59.3% | 218.7hPa | 2.4V | 00:00:00 | 00:00:00 | 00:00:00 | |
| OE5DRO-10 | 2026-09-04 01:01:56 | 47.50732 | 12.53449 | 159° | 102km/h | 11756m | -5.3m/s | -55.4°C | 59.3% | 218.5hPa | 2.4V | 00:00:00 | 00:00:00 | 00:00:00 | |
| NBG1-10 | 2026-09-04 01:01:54 | 47.50784 | 12.53421 | 162° | 102km/h | 11768m | -6.5m/s | -55.5°C | 59.5% | 218.1hPa | 2.5V | 00:00:00 | 02:30:05 | 00:00:00 | |
| DO3MHA-11 | 2026-09-04 01:01:52 | 47.50831 | 12.53395 | 159° | 95km/h | 11779m | -5.4m/s | -55.6°C | 59.6% | 217.7hPa | 2.5V | 00:00:00 | 02:30:03 | 00:00:00 | |
| PG1ADW-2 | 2026-09-04 01:01:49 | 47.50893 | 12.53352 | 151° | 100km/h | 11797m | -6.3m/s | -55.8°C | 59.5% | 217.1hPa | 2.4V | 00:00:00 | 00:00:00 | 00:00:00 | |
| OE5MMP-10 | 2026-09-04 01:01:47 | 47.50932 | 12.53317 | 148° | 106km/h | 11810m | -6.2m/s | -55.9°C | 60.0% | 216.7hPa | 2.4V | 00:00:00 | 02:29:58 | 00:00:00 | |
| OE3JTB-15 | 2026-09-04 01:01:46 | 47.50952 | 12.53298 | 147° | 106km/h | 11816m | -6.1m/s | -56.0°C | 60.4% | 216.5hPa | 2.4V | 00:00:00 | 02:29:57 | 00:00:00 | |
| DL6DJ-15 | 2026-09-04 01:01:43 | 47.51042 | 12.53214 | 150° | 113km/h | 11840m | -5.6m/s | -56.3°C | 52.6% | 215.7hPa | 2.4V | 00:00:00 | 00:00:00 | 00:00:00 | |
| DO3MHA-11 | 2026-09-04 01:01:42 | 47.51042 | 12.53214 | 151° | 104km/h | 11840m | -5.5m/s | -56.2°C | 60.4% | 215.6hPa | 2.4V | 00:00:00 | 02:29:53 | 00:00:00 | |
| OE5DXL-15 | 2026-09-04 01:01:40 | 47.51094 | 12.53175 | 156° | 106km/h | 11852m | -6.1m/s | -56.3°C | 60.2% | 215.3hPa | 2.4V | 00:00:00 | 00:00:00 | 00:00:00 | |
| OE5MMP-10 | 2026-09-04 01:01:37 | 47.51170 | 12.53127 | 158° | 100km/h | 11870m | -5.4m/s | -56.5°C | 61.0% | 214.6hPa | 2.4V | 00:00:00 | 02:29:48 | 00:00:00 | |
| DO3MHA-11 | 2026-09-04 01:01:32 | 47.51275 | 12.53043 | 147° | 108km/h | 11902m | -6.1m/s | -56.8°C | 60.8% | 213.6hPa | 2.4V | 00:00:00 | 02:29:43 | 00:00:00 | |
| DB0UT-7 | 2026-09-04 01:01:29 | 47.51341 | 12.52980 | 149° | 108km/h | 11920m | -5.7m/s | -57.0°C | 61.3% | 213.0hPa | 2.4V | 08:03:00 | 02:29:40 | 00:00:00 | |
| OE5MMP-10 | 2026-09-04 01:01:27 | 47.51391 | 12.52939 | 153° | 108km/h | 11931m | -5.5m/s | -57.1°C | 61.2% | 212.6hPa | 2.5V | 00:00:00 | 02:29:38 | 00:00:00 | |
| OE5FHM-15 | 2026-09-04 01:01:24 | 47.51466 | 12.52884 | 154° | 106km/h | 11950m | -5.7m/s | -57.3°C | 62.0% | 212.0hPa | 2.4V | 00:00:00 | 02:29:35 | 00:00:00 | |
| OE5WHR-10 | 2026-09-04 01:01:22 | 47.51513 | 12.52847 | 151° | 106km/h | 11962m | -6.0m/s | -57.4°C | 62.0% | 211.6hPa | 2.4V | 00:00:00 | 00:00:00 | 00:00:00 | |
| NBG1-10 | 2026-09-04 01:01:21 | 47.51536 | 12.52828 | 151° | 106km/h | 11968m | -6.0m/s | -57.5°C | 61.8% | 211.4hPa | 2.4V | 00:00:00 | 02:29:32 | 00:00:00 | |
| OE5DRO-10 | 2026-09-04 01:01:18 | 47.51606 | 12.52771 | 152° | 106km/h | 11987m | -6.8m/s | -57.6°C | 61.0% | 210.7hPa | 2.4V | 00:00:00 | 00:00:00 | 00:00:00 | |
| OE5MMP-10 | 2026-09-04 01:01:17 | 47.51630 | 12.52752 | 152° | 106km/h | 11994m | -6.7m/s | -57.7°C | 60.9% | 210.5hPa | 2.4V | 00:00:00 | 02:29:28 | 00:00:00 | |
| BAUMI2-15 | 2026-09-04 01:01:12 | 47.51747 | 12.52657 | 151° | 106km/h | 12027m | -6.6m/s | -57.9°C | 60.9% | 209.4hPa | 2.4V | 00:00:00 | 02:29:23 | 00:00:00 | |
| DO3MHA-11 | 2026-09-04 01:01:11 | 47.51771 | 12.52638 | 152° | 106km/h | 12034m | -6.9m/s | -58.0°C | 60.8% | 209.2hPa | 2.4V | 00:00:00 | 02:29:22 | 00:00:00 | |
| OE5DXL-15 | 2026-09-04 01:01:10 | 47.51795 | 12.52618 | 152° | 106km/h | 12041m | -6.6m/s | -58.1°C | 60.8% | 209.0hPa | 2.4V | 00:00:00 | 00:00:00 | 00:00:00 | |
| PG1ADW-2 | 2026-09-04 01:01:09 | 47.51818 | 12.52599 | 153° | 106km/h | 12047m | -6.5m/s | -58.1°C | 60.7% | 208.8hPa | 2.4V | 00:00:00 | 02:29:20 | 00:00:00 | |
| BAUMI2-15 | 2026-09-04 01:01:07 | 47.51866 | 12.52563 | 154° | 106km/h | 12060m | -6.4m/s | -58.2°C | 60.8% | 208.3hPa | 2.4V | 00:00:00 | 02:29:18 | 00:00:00 | |
| BAUMI2-15 | 2026-09-04 01:01:02 | 47.51987 | 12.52474 | 154° | 106km/h | 12094m | -6.7m/s | -58.5°C | 61.0% | 207.2hPa | 2.4V | 00:00:00 | 02:29:13 | 00:00:00 | |
| OE5WHR-10 | 2026-09-04 01:01:01 | 47.52011 | 12.52456 | 153° | 106km/h | 12100m | -6.6m/s | -58.6°C | 61.1% | 207.0hPa | 2.4V | 00:00:00 | 02:29:12 | 00:00:00 | |
| DB0UT-7 | 2026-09-04 01:00:59 | 47.52058 | 12.52421 | 153° | 108km/h | 12114m | -6.4m/s | -58.7°C | 61.0% | 206.6hPa | 2.4V | 00:00:00 | 00:00:00 | 00:00:00 | |
| OE5MMP-10 | 2026-09-04 01:00:57 | 47.52106 | 12.52384 | 154° | 106km/h | 12126m | -6.2m/s | -58.9°C | 61.2% | 206.1hPa | 2.4V | 08:04:00 | 02:29:08 | 00:00:00 | |
| OE5FHM-15 | 2026-09-04 01:00:54 | 47.52177 | 12.52332 | 155° | 110km/h | 12146m | -6.4m/s | -59.0°C | 61.3% | 205.5hPa | 2.4V | 00:00:00 | 02:29:05 | 00:00:00 | |
| DO3MHA-11 | 2026-09-04 01:00:53 | 47.52201 | 12.52316 | 156° | 106km/h | 12152m | -6.7m/s | -59.0°C | 61.3% | 205.3hPa | 2.4V | 00:00:00 | 02:29:04 | 00:00:00 | |
| BAUMI2-15 | 2026-09-04 01:00:52 | 47.52226 | 12.52300 | 157° | 106km/h | 12159m | -6.2m/s | -59.1°C | 61.7% | 205.1hPa | 2.4V | 00:00:00 | 02:29:03 | 00:00:00 | |
| PG1ADW-2 | 2026-09-04 01:00:49 | 47.52299 | 12.52252 | 157° | 108km/h | 12178m | -6.2m/s | -59.3°C | 62.1% | 204.4hPa | 2.4V | 00:00:00 | 00:00:00 | 00:00:00 | |
| NBG1-10 | 2026-09-04 01:00:48 | 47.52323 | 12.52236 | 156° | 111km/h | 12184m | -6.4m/s | -59.4°C | 62.3% | 204.2hPa | 2.4V | 00:00:00 | 02:28:59 | 00:00:00 | |
| OE5MMP-10 | 2026-09-04 01:00:47 | 47.52348 | 12.52220 | 157° | 108km/h | 12191m | -6.1m/s | -59.4°C | 62.5% | 204.0hPa | 2.5V | 00:00:00 | 02:28:58 | 00:00:00 | |
| DO3MHA-11 | 2026-09-04 01:00:43 | 47.52446 | 12.52152 | 155° | 110km/h | 12215m | -6.4m/s | -59.6°C | 62.1% | 203.2hPa | 2.5V | 00:00:00 | 02:28:54 | 00:00:00 | |
| BAUMI2-15 | 2026-09-04 01:00:42 | 47.52470 | 12.52135 | 155° | 110km/h | 12222m | -6.3m/s | -59.7°C | 62.0% | 203.0hPa | 2.5V | 00:00:00 | 02:28:53 | 00:00:00 | |
| IN3HCDX | 2026-09-04 01:00:41 | 47.52495 | 12.52117 | 155° | 108km/h | 12228m | -6.4m/s | -59.8°C | 52.9% | 202.8hPa | 2.4V | 08:04:00 | 00:00:00 | 00:00:00 | |
| OE5WHR-10 | 2026-09-04 01:00:40 | 47.52519 | 12.52100 | 155° | 111km/h | 12234m | -6.6m/s | -59.8°C | 62.0% | 202.6hPa | 2.4V | 00:00:00 | 00:00:00 | 00:00:00 | |
| OE8JPQ-2 | 2026-09-04 01:00:39 | 47.52544 | 12.52082 | 155° | 111km/h | 12241m | -6.4m/s | -59.9°C | 61.7% | 202.4hPa | 2.4V | 00:00:00 | 00:00:00 | 00:00:00 | |
| OE5MMP-10 | 2026-09-04 01:00:37 | 47.52594 | 12.52047 | 154° | 111km/h | 12254m | -6.3m/s | -59.9°C | 60.8% | 202.0hPa | 2.4V | 00:00:00 | 02:28:48 | 00:00:00 | |
| BAUMI2-15 | 2026-09-04 01:00:34 | 47.52668 | 12.51992 | 153° | 111km/h | 12273m | -6.3m/s | -59.9°C | 60.4% | 201.3hPa | 2.4V | 00:00:00 | 02:28:45 | 00:00:00 | |
| DO3MHA-11 | 2026-09-04 01:00:33 | 47.52692 | 12.51973 | 153° | 113km/h | 12279m | -6.2m/s | 0°C | 0% | 0hPa | 2.4V | 00:00:00 | 02:28:44 | 00:00:00 | |
| DG1MFX-10 | 2026-09-04 01:00:30 | 47.52742 | 12.51935 | 153° | 111km/h | 12292m | -6.1m/s | -60.0°C | 51.2% | 200.8hPa | 2.4V | 08:05:00 | 00:00:00 | 00:00:00 | |
| PG1ADW-2 | 2026-09-04 01:00:29 | 47.52793 | 12.51896 | 154° | 115km/h | 12304m | -6.1m/s | -60.1°C | 60.1% | 200.3hPa | 2.4V | 00:00:00 | 00:00:00 | 00:00:00 | |
| OE5MMP-10 | 2026-09-04 01:00:27 | 47.52844 | 12.51858 | 153° | 113km/h | 12317m | -6.5m/s | -60.2°C | 60.4% | 199.9hPa | 2.4V | 00:00:00 | 02:28:38 | 00:00:00 | |
| BAUMI2-15 | 2026-09-04 01:00:24 | 47.52920 | 12.51799 | 153° | 113km/h | 12336m | -6.3m/s | -60.3°C | 60.2% | 199.3hPa | 2.5V | 00:00:00 | 02:28:35 | 00:00:00 | |
| DO3MHA-11 | 2026-09-04 01:00:23 | 47.52946 | 12.51780 | 153° | 115km/h | 12342m | -6.6m/s | -60.3°C | 60.2% | 199.1hPa | 2.4V | 00:00:00 | 02:28:34 | 00:00:00 | |
| OE5DRO-10 | 2026-09-04 01:00:21 | 47.52996 | 12.51740 | 152° | 117km/h | 12355m | -6.5m/s | -60.5°C | 60.5% | 198.7hPa | 2.4V | 00:00:00 | 00:00:00 | 00:00:00 | |
| BAUMI2-15 | 2026-09-04 01:00:20 | 47.53047 | 12.51699 | 152° | 115km/h | 12368m | -6.3m/s | -60.6°C | 60.5% | 198.2hPa | 2.4V | 00:00:00 | 02:28:30 | 00:00:00 | |
| OE5WHR-10 | 2026-09-04 01:00:19 | 47.53047 | 12.51699 | 152° | 117km/h | 12368m | -6.3m/s | -60.6°C | 60.5% | 198.2hPa | 2.4V | 00:00:00 | 00:00:00 | 00:00:00 | |
| OE5MMP-10 | 2026-09-04 01:00:17 | 47.53097 | 12.51657 | 151° | 117km/h | 12382m | -6.4m/s | -60.7°C | 60.3% | 197.8hPa | 2.4V | 00:00:00 | 02:28:28 | 00:00:00 | |
| NBG1-10 | 2026-09-04 01:00:15 | 47.53147 | 12.51614 | 151° | 119km/h | 12395m | -6.5m/s | -60.8°C | 60.3% | 197.4hPa | 2.4V | 00:00:00 | 02:28:26 | 00:00:00 | |
| BAUMI2-15 | 2026-09-04 01:00:14 | 47.53173 | 12.51593 | 152° | 119km/h | 12401m | -6.5m/s | -60.8°C | 60.3% | 197.2hPa | 2.4V | 00:00:00 | 02:28:25 | 00:00:00 | |
| DO3MHA-11 | 2026-09-04 01:00:13 | 47.53199 | 12.51572 | 152° | 117km/h | 12408m | -6.4m/s | -60.8°C | 60.5% | 197.0hPa | 2.4V | 00:00:00 | 02:28:24 | 00:00:00 | |
| OE5DXL-15 | 2026-09-04 01:00:10 | 47.53279 | 12.51510 | 153° | 119km/h | 12427m | -6.4m/s | -61.0°C | 61.0% | 196.4hPa | 2.4V | 00:00:00 | 00:00:00 | 00:00:00 | |
| PG1ADW-2 | 2026-09-04 01:00:09 | 47.53305 | 12.51490 | 154° | 119km/h | 12434m | -6.3m/s | -61.1°C | 61.3% | 196.2hPa | 2.4V | 00:00:00 | 00:00:00 | 00:00:00 | |
| OE5MMP-10 | 2026-09-04 01:00:07 | 47.53358 | 12.51450 | 152° | 117km/h | 12446m | -5.9m/s | -61.2°C | 61.4% | 195.8hPa | 2.4V | 00:00:00 | 02:28:18 | 00:00:00 | |
| DF3TZ-5 | 2026-09-04 01:00:06 | 47.53408 | 12.51407 | 148° | 115km/h | 12457m | -6.0m/s | -61.4°C | 51.7% | 195.5hPa | 2.4V | 00:00:00 | 00:00:00 | 00:00:00 | |
| BAUMI2-15 | 2026-09-04 01:00:04 | 47.53433 | 12.51384 | 149° | 119km/h | 12464m | -6.2m/s | -61.4°C | 61.0% | 195.3hPa | 2.4V | 00:00:00 | 02:28:15 | 00:00:00 | |
| OE5DRO-10 | 2026-09-04 01:00:02 | 47.53485 | 12.51340 | 151° | 119km/h | 12476m | -5.9m/s | -61.5°C | 61.0% | 194.8hPa | 2.4V | 00:00:00 | 00:00:00 | 00:00:00 | |
| DB0UT-7 | 2026-09-04 00:59:59 | 47.53562 | 12.51274 | 151° | 120km/h | 12496m | -6.7m/s | -61.7°C | 61.2% | 194.2hPa | 2.5V | 00:00:00 | 00:00:00 | 00:00:00 | |
| OE5WHR-10 | 2026-09-04 00:59:58 | 47.53588 | 12.51252 | 150° | 120km/h | 12503m | -6.5m/s | -61.7°C | 61.0% | 194.0hPa | 2.4V | 00:00:00 | 02:28:09 | 00:00:00 | |
| OE5MMP-10 | 2026-09-04 00:59:57 | 47.53614 | 12.51230 | 150° | 119km/h | 12509m | -6.7m/s | -61.7°C | 60.8% | 193.8hPa | 2.4V | 00:00:00 | 02:28:08 | 00:00:00 | |
| BAUMI2-15 | 2026-09-04 00:59:54 | 47.53692 | 12.51162 | 150° | 115km/h | 12529m | -6.7m/s | -61.9°C | 61.1% | 193.2hPa | 2.4V | 00:00:00 | 02:28:05 | 00:00:00 | |
| DO3MHA-11 | 2026-09-04 00:59:53 | 47.53717 | 12.51140 | 150° | 119km/h | 12536m | -6.8m/s | -62.0°C | 61.1% | 193.0hPa | 2.4V | 00:00:00 | 02:28:04 | 00:00:00 | |
| OE8JPQ-2 | 2026-09-04 00:59:52 | 47.53743 | 12.51117 | 150° | 120km/h | 12543m | -6.6m/s | -62.0°C | 61.1% | 192.8hPa | 2.4V | 00:00:00 | 02:28:03 | 00:00:00 | |
| PG1ADW-2 | 2026-09-04 00:59:49 | 47.53821 | 12.51050 | 151° | 120km/h | 12564m | -6.6m/s | -62.2°C | 61.2% | 192.1hPa | 2.4V | 00:00:00 | 02:28:00 | 00:00:00 | |
| OE5MMP-10 | 2026-09-04 00:59:47 | 47.53874 | 12.51006 | 151° | 120km/h | 12577m | -6.2m/s | -62.3°C | 61.2% | 191.7hPa | 2.4V | 00:00:00 | 02:27:58 | 00:00:00 | |
| OE3JTB-15 | 2026-09-04 00:59:44 | 47.53952 | 12.50940 | 151° | 124km/h | 12596m | -6.4m/s | -62.5°C | 61.1% | 191.1hPa | 2.4V | 08:05:00 | 00:00:00 | 00:00:00 | |
| DO3MHA-11 | 2026-09-04 00:59:43 | 47.53978 | 12.50917 | 150° | 122km/h | 12603m | -6.4m/s | -62.5°C | 61.0% | 190.9hPa | 2.4V | 08:05:00 | 02:27:54 | 00:00:00 | |
| NBG1-10 | 2026-09-04 00:59:42 | 47.54005 | 12.50894 | 150° | 126km/h | 12609m | -6.5m/s | -62.6°C | 60.9% | 190.7hPa | 2.4V | 00:00:00 | 02:27:53 | 00:00:00 | |
| OE5DXL-15 | 2026-09-04 00:59:39 | 47.54084 | 12.50827 | 151° | 126km/h | 12630m | -6.4m/s | -62.7°C | 60.7% | 190.1hPa | 2.4V | 08:05:00 | 00:00:00 | 00:00:00 | |
| DL6DJ-15 | 2026-09-04 00:59:38 | 47.54111 | 12.50804 | 150° | 120km/h | 12636m | -6.6m/s | -62.9°C | 50.9% | 189.9hPa | 2.5V | 00:00:00 | 00:00:00 | 00:00:00 | |
| OE5MMP-10 | 2026-09-04 00:59:37 | 47.54138 | 12.50782 | 151° | 124km/h | 12643m | -6.8m/s | -62.9°C | 60.6% | 189.7hPa | 2.5V | 00:00:00 | 02:27:48 | 00:00:00 | |
| DF3TZ-5 | 2026-09-04 00:59:35 | 47.54220 | 12.50715 | 151° | 122km/h | 12663m | -6.5m/s | -63.1°C | 50.9% | 189.1hPa | 2.5V | 00:00:00 | 00:00:00 | 00:00:00 | |
| DO3MHA-11 | 2026-09-04 00:59:33 | 47.54247 | 12.50693 | 151° | 124km/h | 12670m | -6.4m/s | -63.1°C | 60.5% | 188.8hPa | 2.5V | 00:00:00 | 02:27:44 | 00:00:00 | |
| DB0UT-7 | 2026-09-04 00:59:29 | 47.54356 | 12.50604 | 152° | 131km/h | 12697m | -6.6m/s | -63.3°C | 60.4% | 188.0hPa | 2.5V | 00:00:00 | 02:27:40 | 00:00:00 | |
| OE5MMP-10 | 2026-09-04 00:59:27 | 47.54412 | 12.50559 | 151° | 128km/h | 12710m | -6.5m/s | -63.4°C | 60.2% | 187.6hPa | 2.5V | 08:05:00 | 02:27:38 | 00:00:00 | |
| OE5DRO-10 | 2026-09-04 00:59:25 | 47.54495 | 12.50490 | 151° | 130km/h | 12731m | -6.6m/s | -63.5°C | 60.0% | 187.0hPa | 2.4V | 00:00:00 | 00:00:00 | 00:00:00 | |
| OE5FHM-15 | 2026-09-04 00:59:24 | 47.54495 | 12.50490 | 151° | 133km/h | 12731m | -6.6m/s | -63.5°C | 60.0% | 187.0hPa | 2.4V | 00:00:00 | 02:27:35 | 00:00:00 | |
| DO3MHA-11 | 2026-09-04 00:59:23 | 47.54523 | 12.50467 | 151° | 130km/h | 12737m | -6.7m/s | -63.6°C | 60.0% | 186.8hPa | 2.4V | 00:00:00 | 02:27:34 | 00:00:00 | |
| OE5MMP-10 | 2026-09-04 00:59:18 | 47.54693 | 12.50326 | 151° | 131km/h | 12778m | -6.8m/s | -63.9°C | 60.2% | 185.5hPa | 2.4V | 00:00:00 | 02:27:28 | 00:00:00 | |
| OE5WHR-10 | 2026-09-04 00:59:16 | 47.54722 | 12.50303 | 152° | 135km/h | 12785m | -6.3m/s | -64.0°C | 60.3% | 185.3hPa | 2.4V | 00:00:00 | 00:00:00 | 00:00:00 | |
| OE3JTB-15 | 2026-09-04 00:59:15 | 47.54751 | 12.50280 | 152° | 135km/h | 12791m | -6.6m/s | 0°C | 0% | 0hPa | 2.4V | 00:00:00 | 00:00:00 | 00:00:00 | |
| DO3MHA-11 | 2026-09-04 00:59:13 | 47.54809 | 12.50232 | 152° | 133km/h | 12804m | -6.5m/s | -64.1°C | 60.0% | 184.7hPa | 2.4V | 00:00:00 | 02:27:24 | 00:00:00 | |
| OE5DXL-15 | 2026-09-04 00:59:09 | 47.54924 | 12.50134 | 150° | 137km/h | 12831m | -6.7m/s | -64.4°C | 59.2% | 183.9hPa | 2.4V | 00:00:00 | 00:00:00 | 00:00:00 | |
| OE8JPQ-2 | 2026-09-04 00:59:07 | 47.54982 | 12.50084 | 150° | 137km/h | 12844m | -6.7m/s | -64.5°C | 59.1% | 183.5hPa | 2.4V | 00:00:00 | 00:00:00 | 00:00:00 | |
| OE5DRO-10 | 2026-09-04 00:59:05 | 47.55041 | 12.50033 | 151° | 137km/h | 12858m | -6.9m/s | -64.6°C | 59.0% | 183.1hPa | 2.4V | 00:00:00 | 00:00:00 | 00:00:00 | |
| DF3TZ-5 | 2026-09-04 00:59:04 | 47.55101 | 12.49982 | 149° | 135km/h | 12871m | -7.0m/s | -64.7°C | 48.6% | 182.7hPa | 2.5V | 00:00:00 | 00:00:00 | 00:00:00 | |
| DO3MHA-11 | 2026-09-04 00:59:03 | 47.55101 | 12.49982 | 150° | 137km/h | 12871m | -6.9m/s | -64.7°C | 59.0% | 182.7hPa | 2.5V | 00:00:00 | 02:27:14 | 00:00:00 | |
| DB0UT-7 | 2026-09-04 00:58:59 | 47.55220 | 12.49879 | 150° | 139km/h | 12898m | -6.1m/s | -64.9°C | 58.7% | 181.9hPa | 2.5V | 00:00:00 | 00:00:00 | 00:00:00 | |
| OE5MMP-10 | 2026-09-04 00:58:57 | 47.55280 | 12.49827 | 150° | 139km/h | 12911m | -6.9m/s | -65.0°C | 57.8% | 181.5hPa | 2.5V | 00:00:00 | 02:27:08 | 00:00:00 | |
| IN3HCDX | 2026-09-04 00:58:56 | 47.55280 | 12.49827 | 151° | 139km/h | 12911m | -7.0m/s | -65.1°C | 47.5% | 181.6hPa | 2.4V | 08:06:00 | 00:00:00 | 00:00:00 | |
| OE5WHR-10 | 2026-09-04 00:58:55 | 47.55340 | 12.49776 | 151° | 139km/h | 12925m | -6.8m/s | -65.1°C | 57.5% | 181.1hPa | 2.4V | 00:00:00 | 02:27:06 | 00:00:00 | |
| OE5FHM-15 | 2026-09-04 00:58:54 | 47.55371 | 12.49750 | 151° | 139km/h | 12932m | -7.1m/s | -65.2°C | 57.3% | 180.8hPa | 2.4V | 00:00:00 | 02:27:05 | 00:00:00 | |
| DO3MHA-11 | 2026-09-04 00:58:53 | 47.55401 | 12.49725 | 151° | 139km/h | 12939m | -6.6m/s | -65.2°C | 57.3% | 180.6hPa | 2.4V | 00:00:00 | 02:27:04 | 00:00:00 | |
| PG1ADW-2 | 2026-09-04 00:58:49 | 47.55525 | 12.49624 | 152° | 139km/h | 12967m | -6.8m/s | -65.4°C | 57.5% | 179.8hPa | 2.4V | 00:00:00 | 00:00:00 | 00:00:00 | |
| DG1MFX-10 | 2026-09-04 00:58:48 | 47.55525 | 12.49624 | 153° | 139km/h | 12967m | -6.9m/s | -65.5°C | 47.1% | 179.9hPa | 2.4V | 08:07:00 | 00:00:00 | 00:00:00 | |
| OE8JPQ-2 | 2026-09-04 00:58:47 | 47.55587 | 12.49575 | 152° | 139km/h | 12981m | -7.0m/s | -65.5°C | 57.6% | 179.4hPa | 2.4V | 00:00:00 | 02:26:58 | 00:00:00 | |
| OE5DRO-10 | 2026-09-04 00:58:46 | 47.55618 | 12.49550 | 153° | 139km/h | 12988m | -6.9m/s | -65.4°C | 57.4% | 179.2hPa | 2.4V | 00:00:00 | 00:00:00 | 00:00:00 | |
| DO3MHA-11 | 2026-09-04 00:58:43 | 47.55711 | 12.49478 | 153° | 139km/h | 13009m | -7.2m/s | -65.4°C | 56.5% | 178.6hPa | 2.4V | 00:00:00 | 02:26:54 | 00:00:00 | |
| OE5DXL-15 | 2026-09-04 00:58:39 | 47.55835 | 12.49385 | 154° | 139km/h | 13037m | -7.2m/s | -65.5°C | 55.8% | 177.8hPa | 2.4V | 00:00:00 | 00:00:00 | 00:00:00 | |
| OE5MMP-10 | 2026-09-04 00:58:37 | 47.55897 | 12.49340 | 154° | 139km/h | 13052m | -6.9m/s | -65.5°C | 55.1% | 177.4hPa | 2.4V | 00:00:00 | 02:26:48 | 00:00:00 | |
| IN3HCDX | 2026-09-04 00:58:35 | 47.55929 | 12.49318 | 155° | 139km/h | 13059m | -6.9m/s | -65.6°C | 44.6% | 177.2hPa | 2.4V | 08:07:00 | 00:00:00 | 00:00:00 | |
| OE5WHR-10 | 2026-09-04 00:58:34 | 47.55992 | 12.49272 | 155° | 141km/h | 13072m | -6.8m/s | -65.6°C | 54.4% | 176.7hPa | 2.4V | 08:06:00 | 00:00:00 | 00:00:00 | |
| DO3MHA-11 | 2026-09-04 00:58:33 | 47.56024 | 12.49250 | 156° | 139km/h | 13079m | -7.0m/s | -65.7°C | 54.4% | 176.5hPa | 2.4V | 00:00:00 | 02:26:44 | 00:00:00 | |
| DB0UT-7 | 2026-09-04 00:58:29 | 47.56152 | 12.49164 | 157° | 137km/h | 13107m | -7.2m/s | -65.9°C | 54.8% | 175.7hPa | 2.4V | 00:00:00 | 02:26:40 | 00:00:00 | |
| DG1MFX-10 | 2026-09-04 00:58:28 | 47.56152 | 12.49164 | 157° | 139km/h | 13107m | -7.3m/s | -66.0°C | 44.4% | 175.7hPa | 2.5V | 08:07:00 | 00:00:00 | 00:00:00 | |
| OE8JPQ-2 | 2026-09-04 00:58:27 | 47.56216 | 12.49123 | 157° | 141km/h | 13122m | -7.0m/s | -66.0°C | 55.3% | 175.3hPa | 2.5V | 00:00:00 | 00:00:00 | 00:00:00 | |
| OE5FHM-15 | 2026-09-04 00:58:24 | 47.56312 | 12.49064 | 157° | 135km/h | 13142m | -6.5m/s | -66.1°C | 56.0% | 174.7hPa | 2.4V | 08:06:00 | 02:26:35 | 00:00:00 | |
| DO3MHA-11 | 2026-09-04 00:58:23 | 47.56344 | 12.49043 | 156° | 142km/h | 13148m | -6.1m/s | -66.1°C | 56.0% | 174.5hPa | 2.5V | 00:00:00 | 02:26:34 | 00:00:00 | |
| OE5MMP-10 | 2026-09-04 00:58:17 | 47.56543 | 12.48917 | 158° | 139km/h | 13189m | -7.8m/s | -66.2°C | 56.9% | 173.4hPa | 2.5V | 00:00:00 | 02:26:28 | 00:00:00 | |
| IN3HCDX | 2026-09-04 00:58:15 | 47.56610 | 12.48877 | 159° | 142km/h | 13204m | -7.4m/s | -66.3°C | 46.7% | 173.0hPa | 2.5V | 08:07:00 | 00:00:00 | 00:00:00 | |
| OE5WHR-10 | 2026-09-04 00:58:13 | 47.56675 | 12.48837 | 158° | 130km/h | 13219m | -7.4m/s | -66.4°C | 58.3% | 172.5hPa | 2.5V | 00:00:00 | 00:00:00 | 00:00:00 | |
| NBG1-10 | 2026-09-04 00:58:12 | 47.56708 | 12.48818 | 159° | 117km/h | 13226m | -6.8m/s | -66.4°C | 58.6% | 172.3hPa | 2.5V | 00:00:00 | 02:26:23 | 00:00:00 | |
| PG1ADW-2 | 2026-09-04 00:58:09 | 47.56805 | 12.48762 | 160° | 124km/h | 13247m | -6.8m/s | -66.3°C | 58.0% | 171.7hPa | 2.5V | 00:00:00 | 00:00:00 | 00:00:00 | |
| OE5DRO-10 | 2026-09-04 00:58:08 | 47.56836 | 12.48744 | 160° | 124km/h | 13254m | -7.2m/s | -66.3°C | 57.4% | 171.5hPa | 2.5V | 08:07:00 | 00:00:00 | 00:00:00 | |
| OE5MMP-10 | 2026-09-04 00:58:07 | 47.56868 | 12.48726 | 159° | 128km/h | 13262m | -6.8m/s | -66.3°C | 56.8% | 171.3hPa | 2.5V | 00:00:00 | 02:26:18 | 00:00:00 | |
| DO3MHA-11 | 2026-09-04 00:58:03 | 47.56993 | 12.48654 | 160° | 124km/h | 13291m | -7.3m/s | -65.8°C | 53.1% | 170.5hPa | 2.5V | 00:00:00 | 02:26:14 | 00:00:00 | |
| DF3TZ-5 | 2026-09-04 00:58:02 | 47.57054 | 12.48620 | 158° | 126km/h | 13305m | -6.9m/s | -65.6°C | 41.4% | 170.1hPa | 2.5V | 00:00:00 | 00:00:00 | 00:00:00 | |
| DB0UT-7 | 2026-09-04 00:57:59 | 47.57112 | 12.48586 | 159° | 106km/h | 13320m | -7.3m/s | -65.5°C | 50.0% | 169.7hPa | 2.5V | 00:00:00 | 00:00:00 | 00:00:00 | |
| OE5MMP-10 | 2026-09-04 00:57:57 | 47.57170 | 12.48552 | 159° | 117km/h | 13335m | -7.3m/s | -65.4°C | 49.2% | 169.3hPa | 2.5V | 08:07:00 | 02:26:08 | 00:00:00 | |
| OE5FHM-15 | 2026-09-04 00:57:54 | 47.57254 | 12.48502 | 159° | 106km/h | 13357m | -7.3m/s | -65.3°C | 47.6% | 168.7hPa | 2.4V | 00:00:00 | 02:26:05 | 00:00:00 | |
| DO3MHA-11 | 2026-09-04 00:57:53 | 47.57282 | 12.48486 | 159° | 111km/h | 13364m | -7.0m/s | -65.3°C | 47.4% | 168.5hPa | 2.4V | 00:00:00 | 02:26:04 | 00:00:00 | |
| OE5WHR-10 | 2026-09-04 00:57:52 | 47.57309 | 12.48470 | 159° | 106km/h | 13371m | -7.0m/s | -65.3°C | 47.0% | 168.3hPa | 2.4V | 00:00:00 | 02:26:03 | 00:00:00 | |
| PG1ADW-2 | 2026-09-04 00:57:49 | 47.57390 | 12.48422 | 158° | 104km/h | 13394m | -7.1m/s | -65.3°C | 46.0% | 167.7hPa | 2.4V | 00:00:00 | 00:00:00 | 00:00:00 | |
| OE5MMP-10 | 2026-09-04 00:57:47 | 47.57442 | 12.48390 | 157° | 106km/h | 13408m | -7.0m/s | -65.2°C | 45.2% | 167.3hPa | 2.4V | 00:00:00 | 02:25:58 | 00:00:00 | |
| OE8JPQ-2 | 2026-09-04 00:57:45 | 47.57492 | 12.48356 | 156° | 102km/h | 13422m | -6.6m/s | -65.1°C | 44.0% | 166.9hPa | 2.4V | 00:00:00 | 02:25:56 | 00:00:00 | |
| DO3MHA-11 | 2026-09-04 00:57:43 | 47.57540 | 12.48323 | 155° | 102km/h | 13436m | -7.6m/s | -65.1°C | 42.7% | 166.5hPa | 2.4V | 00:00:00 | 02:25:54 | 00:00:00 | |
| BAUMI2-15 | 2026-09-04 00:57:40 | 47.57612 | 12.48274 | 155° | 102km/h | 13458m | -7.6m/s | -65.0°C | 41.5% | 165.9hPa | 2.4V | 00:00:00 | 02:25:51 | 00:00:00 | |
| OE5DXL-15 | 2026-09-04 00:57:39 | 47.57635 | 12.48258 | 156° | 99km/h | 13466m | -7.0m/s | -65.1°C | 41.2% | 165.7hPa | 2.4V | 00:00:00 | 00:00:00 | 00:00:00 | |
| NBG1-10 | 2026-09-04 00:57:38 | 47.57658 | 12.48241 | 155° | 100km/h | 13473m | -7.7m/s | -65.1°C | 40.9% | 165.4hPa | 2.4V | 00:00:00 | 02:25:49 | 00:00:00 | |
| OE5MMP-10 | 2026-09-04 00:57:37 | 47.57682 | 12.48225 | 156° | 100km/h | 13481m | -7.0m/s | -65.1°C | 40.5% | 165.3hPa | 2.4V | 00:00:00 | 02:25:48 | 00:00:00 | |
| BAUMI2-15 | 2026-09-04 00:57:35 | 47.57729 | 12.48192 | 155° | 100km/h | 13496m | -7.7m/s | -65.2°C | 39.4% | 164.9hPa | 2.4V | 00:00:00 | 02:25:46 | 00:00:00 | |
| DL6DJ-15 | 2026-09-04 00:57:34 | 47.57752 | 12.48175 | 153° | 100km/h | 13503m | -7.3m/s | -65.2°C | 30.3% | 164.7hPa | 2.4V | 00:00:00 | 00:00:00 | 00:00:00 | |
| DO3MHA-11 | 2026-09-04 00:57:33 | 47.57775 | 12.48158 | 153° | 99km/h | 13511m | -6.8m/s | -65.1°C | 38.3% | 164.4hPa | 2.4V | 00:00:00 | 02:25:44 | 00:00:00 | |
| IN3HCDX | 2026-09-04 00:57:32 | 47.57775 | 12.48158 | 153° | 100km/h | 13511m | -6.8m/s | -65.2°C | 29.7% | 164.5hPa | 2.4V | 08:08:00 | 00:00:00 | 00:00:00 | |
| OE5WHR-10 | 2026-09-04 00:57:31 | 47.57819 | 12.48123 | 151° | 97km/h | 13524m | -6.7m/s | -65.1°C | 37.1% | 164.1hPa | 2.4V | 00:00:00 | 00:00:00 | 00:00:00 | |
| BAUMI2-15 | 2026-09-04 00:57:30 | 47.57840 | 12.48104 | 149° | 99km/h | 13531m | -6.4m/s | -65.1°C | 36.9% | 163.9hPa | 2.5V | 00:00:00 | 02:25:41 | 00:00:00 | |
| DB0UT-7 | 2026-09-04 00:57:29 | 47.57861 | 12.48085 | 147° | 106km/h | 13537m | -6.4m/s | -65.2°C | 36.6% | 163.7hPa | 2.5V | 00:00:00 | 02:25:40 | 00:00:00 | |
| OE5MMP-10 | 2026-09-04 00:57:27 | 47.57902 | 12.48043 | 146° | 97km/h | 13551m | -7.0m/s | -65.2°C | 36.5% | 163.3hPa | 2.5V | 00:00:00 | 02:25:38 | 00:00:00 | |
| DG1MFX-10 | 2026-09-04 00:57:26 | 47.57902 | 12.48043 | 146° | 100km/h | 13551m | -7.0m/s | -65.3°C | 28.2% | 163.4hPa | 2.4V | 08:08:00 | 00:00:00 | 00:00:00 | |
| OE8JPQ-2 | 2026-09-04 00:57:25 | 47.57944 | 12.48002 | 149° | 97km/h | 13564m | -6.1m/s | -65.3°C | 36.4% | 163.0hPa | 2.4V | 00:00:00 | 00:00:00 | 00:00:00 | |
| OE5FHM-15 | 2026-09-04 00:57:24 | 47.57965 | 12.47983 | 150° | 100km/h | 13570m | -6.1m/s | -65.4°C | 36.3% | 162.8hPa | 2.5V | 00:00:00 | 02:25:35 | 00:00:00 | |
| DO3MHA-11 | 2026-09-04 00:57:23 | 47.57986 | 12.47965 | 150° | 97km/h | 13576m | -6.4m/s | -65.4°C | 36.0% | 162.7hPa | 2.5V | 00:00:00 | 02:25:34 | 00:00:00 | |
| BAUMI2-15 | 2026-09-04 00:57:20 | 47.58049 | 12.47908 | 149° | 97km/h | 13598m | -7.6m/s | -65.6°C | 35.7% | 162.1hPa | 2.5V | 08:07:00 | 02:25:31 | 00:00:00 | |
| OE5MMP-10 | 2026-09-04 00:57:17 | 47.58111 | 12.47852 | 149° | 95km/h | 13621m | -7.4m/s | -65.7°C | 34.8% | 161.5hPa | 2.4V | 00:00:00 | 02:25:28 | 00:00:00 | |
| BAUMI2-15 | 2026-09-04 00:57:15 | 47.58153 | 12.47815 | 150° | 95km/h | 13636m | -7.1m/s | -65.7°C | 33.9% | 161.1hPa | 2.4V | 00:00:00 | 02:25:26 | 00:00:00 | |
| DO3MHA-11 | 2026-09-04 00:57:13 | 47.58195 | 12.47778 | 149° | 99km/h | 13650m | -7.0m/s | -65.8°C | 32.9% | 160.7hPa | 2.4V | 00:00:00 | 02:25:24 | 00:00:00 | |
| OE5DRO-10 | 2026-09-04 00:57:11 | 47.58235 | 12.47739 | 146° | 102km/h | 13664m | -7.4m/s | -65.9°C | 32.0% | 160.3hPa | 2.4V | 00:00:00 | 00:00:00 | 00:00:00 | |
| OE5WHR-10 | 2026-09-04 00:57:10 | 47.58254 | 12.47719 | 144° | 102km/h | 13672m | -7.2m/s | -65.9°C | 31.5% | 160.1hPa | 2.4V | 00:00:00 | 00:00:00 | 00:00:00 | |
| OE5DXL-15 | 2026-09-04 00:57:09 | 47.58273 | 12.47697 | 142° | 106km/h | 13679m | -7.0m/s | -65.9°C | 30.7% | 160.0hPa | 2.4V | 00:00:00 | 00:00:00 | 00:00:00 | |
| OE5MMP-10 | 2026-09-04 00:57:07 | 47.58310 | 12.47651 | 139° | 108km/h | 13693m | -6.9m/s | -65.9°C | 29.9% | 159.5hPa | 2.4V | 00:00:00 | 02:25:18 | 00:00:00 | |
| BAUMI2-15 | 2026-09-04 00:57:05 | 47.58347 | 12.47599 | 138° | 110km/h | 13708m | -7.4m/s | -65.9°C | 29.9% | 159.1hPa | 2.4V | 00:00:00 | 02:25:16 | 00:00:00 | |
| DO3MHA-11 | 2026-09-04 00:57:03 | 47.58389 | 12.47547 | 142° | 106km/h | 13722m | -6.7m/s | -65.9°C | 29.6% | 158.8hPa | 2.5V | 00:00:00 | 02:25:14 | 00:00:00 | |
| DF3TZ-5 | 2026-09-04 00:57:00 | 47.58485 | 12.47457 | 153° | 108km/h | 13748m | -7.1m/s | -66.0°C | 20.3% | 158.1hPa | 2.5V | 00:00:00 | 00:00:00 | 00:00:00 | |
| OE5MMP-10 | 2026-09-04 00:56:57 | 47.58533 | 12.47423 | 156° | 99km/h | 13763m | -7.1m/s | -65.8°C | 27.3% | 157.7hPa | 2.5V | 00:00:00 | 02:25:08 | 00:00:00 | |
| BAUMI2-15 | 2026-09-04 00:56:55 | 47.58579 | 12.47392 | 155° | 93km/h | 13777m | -7.0m/s | -65.8°C | 26.8% | 157.3hPa | 2.4V | 00:00:00 | 02:25:06 | 00:00:00 | |
| OE5FHM-15 | 2026-09-04 00:56:54 | 47.58601 | 12.47376 | 154° | 100km/h | 13784m | -6.6m/s | -65.8°C | 26.4% | 157.1hPa | 2.4V | 00:00:00 | 02:25:05 | 00:00:00 | |
| DO3MHA-11 | 2026-09-04 00:56:53 | 47.58622 | 12.47360 | 150° | 108km/h | 13790m | -6.2m/s | -65.8°C | 25.6% | 157.0hPa | 2.4V | 00:00:00 | 02:25:04 | 00:00:00 | |
| OE5DRO-10 | 2026-09-04 00:56:52 | 47.58641 | 12.47341 | 146° | 106km/h | 13797m | -5.9m/s | -65.7°C | 25.0% | 156.8hPa | 2.4V | 00:00:00 | 00:00:00 | 00:00:00 | |
| BAUMI2-15 | 2026-09-04 00:56:50 | 47.58679 | 12.47297 | 140° | 111km/h | 13809m | -6.9m/s | -65.7°C | 24.1% | 156.5hPa | 2.4V | 00:00:00 | 02:25:01 | 00:00:00 | |
| OE5WHR-10 | 2026-09-04 00:56:49 | 47.58699 | 12.47272 | 140° | 104km/h | 13816m | -6.7m/s | -65.6°C | 23.6% | 156.3hPa | 2.4V | 00:00:00 | 02:25:00 | 00:00:00 | |
| OE5MMP-10 | 2026-09-04 00:56:47 | 47.58742 | 12.47219 | 142° | 113km/h | 13829m | -6.5m/s | -65.6°C | 23.1% | 156.0hPa | 2.4V | 00:00:00 | 02:24:58 | 00:00:00 | |
| OE8JPQ-2 | 2026-09-04 00:56:45 | 47.58791 | 12.47166 | 146° | 100km/h | 13843m | -6.9m/s | -65.7°C | 22.6% | 155.6hPa | 2.4V | 00:00:00 | 02:24:56 | 00:00:00 | |
| DG1MFX-10 | 2026-09-04 00:56:44 | 47.58790 | 12.47166 | 146° | 120km/h | 13843m | -7.0m/s | -65.7°C | 15.7% | 155.7hPa | 2.4V | 08:08:00 | 00:00:00 | 00:00:00 | |
| DO3MHA-11 | 2026-09-04 00:56:43 | 47.58842 | 12.47117 | 150° | 104km/h | 13857m | -6.5m/s | -65.8°C | 22.4% | 155.3hPa | 2.4V | 08:08:00 | 02:24:54 | 00:00:00 | |
| BAUMI2-15 | 2026-09-04 00:56:40 | 47.58919 | 12.47058 | 155° | 99km/h | 13876m | -6.1m/s | -66.0°C | 21.9% | 154.8hPa | 2.5V | 00:00:00 | 02:24:51 | 00:00:00 | |
| OE5DXL-15 | 2026-09-04 00:56:39 | 47.58942 | 12.47042 | 156° | 91km/h | 13882m | -6.1m/s | -66.0°C | 21.7% | 154.6hPa | 2.5V | 00:00:00 | 00:00:00 | 00:00:00 | |
| OE5MMP-10 | 2026-09-04 00:56:37 | 47.58987 | 12.47009 | 153° | 95km/h | 13896m | -6.8m/s | -66.1°C | 21.4% | 154.3hPa | 2.4V | 00:00:00 | 02:24:48 | 00:00:00 | |
| DB0UT-7 | 2026-09-04 00:56:35 | 47.59029 | 12.46975 | 149° | 89km/h | 13908m | -6.4m/s | -66.0°C | 21.0% | 154.0hPa | 2.4V | 08:08:00 | 00:00:00 | 00:00:00 | |
| DO3MHA-11 | 2026-09-04 00:56:33 | 47.59070 | 12.46936 | 148° | 91km/h | 13921m | -6.3m/s | -66.0°C | 20.4% | 153.7hPa | 2.5V | 00:00:00 | 02:24:44 | 00:00:00 | |
| DL6DJ-15 | 2026-09-04 00:56:32 | 47.59091 | 12.46917 | 148° | 97km/h | 13928m | -6.4m/s | -66.0°C | 13.0% | 153.6hPa | 2.5V | 00:00:00 | 00:00:00 | 00:00:00 | |
| BAUMI2-15 | 2026-09-04 00:56:30 | 47.59132 | 12.46879 | 148° | 88km/h | 13941m | -6.8m/s | -65.8°C | 19.0% | 153.1hPa | 2.5V | 00:00:00 | 02:24:41 | 00:00:00 | |
| PG1ADW-2 | 2026-09-04 00:56:29 | 47.59151 | 12.46861 | 147° | 86km/h | 13948m | -6.6m/s | -65.6°C | 18.3% | 152.9hPa | 2.5V | 00:00:00 | 00:00:00 | 00:00:00 | |
| OE5WHR-10 | 2026-09-04 00:56:28 | 47.59170 | 12.46842 | 146° | 89km/h | 13955m | -7.1m/s | -65.4°C | 17.6% | 152.8hPa | 2.5V | 00:00:00 | 00:00:00 | 00:00:00 | |
| OE5MMP-10 | 2026-09-04 00:56:27 | 47.59189 | 12.46823 | 146° | 82km/h | 13962m | -7.6m/s | -65.1°C | 16.9% | 152.6hPa | 2.5V | 08:08:00 | 02:24:38 | 00:00:00 | |
| OE8JPQ-2 | 2026-09-04 00:56:25 | 47.59225 | 12.46786 | 145° | 89km/h | 13977m | -7.2m/s | -64.9°C | 16.0% | 152.2hPa | 2.4V | 08:08:00 | 00:00:00 | 00:00:00 | |
| OE5FHM-15 | 2026-09-04 00:56:24 | 47.59242 | 12.46767 | 144° | 91km/h | 13985m | -7.3m/s | -64.8°C | 15.5% | 152.0hPa | 2.4V | 00:00:00 | 02:24:35 | 00:00:00 | |
| DO3MHA-11 | 2026-09-04 00:56:23 | 47.59258 | 12.46749 | 142° | 84km/h | 13992m | -7.5m/s | -64.7°C | 15.1% | 151.9hPa | 2.4V | 00:00:00 | 02:24:34 | 00:00:00 | |
| BAUMI2-15 | 2026-09-04 00:56:19 | 47.59319 | 12.46669 | 134° | 86km/h | 14022m | -6.8m/s | -64.3°C | 13.4% | 151.1hPa | 2.4V | 00:00:00 | 02:24:30 | 00:00:00 | |
| OE5MMP-10 | 2026-09-04 00:56:17 | 47.59346 | 12.46623 | 129° | 95km/h | 14037m | -7.6m/s | -64.1°C | 12.8% | 150.7hPa | 2.4V | 00:00:00 | 02:24:28 | 00:00:00 | |
| BAUMI2-15 | 2026-09-04 00:56:14 | 47.59388 | 12.46542 | 128° | 99km/h | 14058m | -7.1m/s | -63.7°C | 12.1% | 150.2hPa | 2.4V | 00:00:00 | 02:24:25 | 00:00:00 | |
| DO3MHA-11 | 2026-09-04 00:56:13 | 47.59403 | 12.46514 | 129° | 91km/h | 14065m | -7.1m/s | -63.6°C | 12.0% | 150.0hPa | 2.4V | 00:00:00 | 02:24:24 | 00:00:00 | |
| OE5DXL-15 | 2026-09-04 00:56:09 | 47.59470 | 12.46403 | 136° | 93km/h | 14093m | -6.7m/s | -63.6°C | 12.0% | 149.3hPa | 2.5V | 00:00:00 | 00:00:00 | 00:00:00 | |
| OE5MMP-10 | 2026-09-04 00:56:07 | 47.59505 | 12.46356 | 140° | 91km/h | 14106m | -5.6m/s | -63.7°C | 11.9% | 149.0hPa | 2.5V | 00:00:00 | 02:24:18 | 00:00:00 | |
| OE8JPQ-2 | 2026-09-04 00:56:05 | 47.59537 | 12.46314 | 137° | 88km/h | 14119m | -7.3m/s | -63.7°C | 11.6% | 148.7hPa | 2.5V | 00:00:00 | 00:00:00 | 00:00:00 | |
| BAUMI2-15 | 2026-09-04 00:56:04 | 47.59551 | 12.46293 | 132° | 89km/h | 14126m | -7.3m/s | -63.7°C | 11.5% | 148.6hPa | 2.5V | 00:00:00 | 02:24:15 | 00:00:00 | |
| DO3MHA-11 | 2026-09-04 00:56:03 | 47.59564 | 12.46270 | 129° | 102km/h | 14133m | -6.5m/s | -63.7°C | 11.4% | 148.4hPa | 2.4V | 00:00:00 | 02:24:14 | 00:00:00 | |
| DL6DJ-15 | 2026-09-04 00:56:01 | 47.59606 | 12.46187 | 127° | 100km/h | 14152m | -7.0m/s | -63.8°C | 6.1% | 148.0hPa | 2.4V | 00:00:00 | 00:00:00 | 00:00:00 | |
| DF3TZ-5 | 2026-09-04 00:55:58 | 47.59657 | 12.46097 | 132° | 108km/h | 14174m | -6.9m/s | -63.7°C | 5.8% | 147.5hPa | 2.4V | 00:00:00 | 00:00:00 | 00:00:00 | |
| OE5MMP-10 | 2026-09-04 00:55:57 | 47.59657 | 12.46097 | 133° | 100km/h | 14174m | -6.8m/s | -63.6°C | 10.9% | 147.4hPa | 2.4V | 00:00:00 | 02:24:08 | 00:00:00 | |
| NBG1-10 | 2026-09-04 00:55:55 | 47.59696 | 12.46039 | 138° | 91km/h | 14188m | -7.0m/s | -63.4°C | 10.5% | 147.1hPa | 2.4V | 00:00:00 | 02:24:06 | 00:00:00 | |
| OE5FHM-15 | 2026-09-04 00:55:54 | 47.59717 | 12.46013 | 141° | 91km/h | 14195m | -6.9m/s | -63.3°C | 10.4% | 146.9hPa | 2.4V | 00:00:00 | 02:24:05 | 00:00:00 | |
| IN3HCDX | 2026-09-04 00:55:48 | 47.59820 | 12.45906 | 149° | 89km/h | 14230m | -7.0m/s | -62.4°C | 4.8% | 146.1hPa | 2.4V | 08:09:00 | 00:00:00 | 00:00:00 | |
| OE5MMP-10 | 2026-09-04 00:55:47 | 47.59856 | 12.45871 | 146° | 88km/h | 14244m | -6.7m/s | -62.3°C | 9.2% | 145.8hPa | 2.4V | 00:00:00 | 02:23:58 | 00:00:00 | |
| OE5WHR-10 | 2026-09-04 00:55:46 | 47.59871 | 12.45853 | 142° | 91km/h | 14251m | -7.0m/s | -62.2°C | 9.0% | 145.5hPa | 2.4V | 00:00:00 | 02:23:57 | 00:00:00 | |
| DO3MHA-11 | 2026-09-04 00:55:43 | 47.59913 | 12.45793 | 131° | 99km/h | 14272m | -6.5m/s | -62.1°C | 9.0% | 145.0hPa | 2.4V | 00:00:00 | 02:23:54 | 00:00:00 | |
| OE8JPQ-2 | 2026-09-04 00:55:42 | 47.59926 | 12.45769 | 130° | 91km/h | 14278m | -5.9m/s | -62.1°C | 8.9% | 144.9hPa | 2.4V | 00:00:00 | 02:23:53 | 00:00:00 | |
| OE5DXL-15 | 2026-09-04 00:55:39 | 47.59973 | 12.45685 | 131° | 86km/h | 14298m | -7.4m/s | -62.0°C | 8.7% | 144.5hPa | 2.4V | 00:00:00 | 00:00:00 | 00:00:00 | |
| OE5MMP-10 | 2026-09-04 00:55:37 | 47.60007 | 12.45626 | 132° | 93km/h | 14312m | -7.4m/s | -62.0°C | 8.8% | 144.1hPa | 2.4V | 00:00:00 | 02:23:48 | 00:00:00 | |
| OE5DRO-10 | 2026-09-04 00:55:36 | 47.60025 | 12.45597 | 133° | 84km/h | 14320m | -7.3m/s | -62.0°C | 8.8% | 143.9hPa | 2.4V | 00:00:00 | 00:00:00 | 00:00:00 | |
| DB0UT-7 | 2026-09-04 00:55:35 | 47.60043 | 12.45568 | 134° | 84km/h | 14327m | -6.9m/s | -61.9°C | 8.9% | 143.8hPa | 2.4V | 00:00:00 | 00:00:00 | 00:00:00 | |
| DO3MHA-11 | 2026-09-04 00:55:33 | 47.60079 | 12.45515 | 137° | 84km/h | 14341m | -6.5m/s | -61.7°C | 8.8% | 143.5hPa | 2.4V | 00:00:00 | 02:23:44 | 00:00:00 | |
| DL6DJ-15 | 2026-09-04 00:55:30 | 47.60143 | 12.45426 | 135° | 80km/h | 14366m | -6.5m/s | -61.7°C | 4.3% | 142.9hPa | 2.4V | 00:00:00 | 00:00:00 | 00:00:00 | |
| IN3HCDX | 2026-09-04 00:55:28 | 47.60158 | 12.45405 | 137° | 82km/h | 14373m | -6.8m/s | -61.7°C | 4.3% | 142.8hPa | 2.4V | 08:09:00 | 00:00:00 | 00:00:00 | |
| DF3TZ-5 | 2026-09-04 00:55:27 | 47.60189 | 12.45364 | 140° | 80km/h | 14387m | -7.3m/s | -61.7°C | 4.2% | 142.5hPa | 2.4V | 00:00:00 | 00:00:00 | 00:00:00 | |
| OE5WHR-10 | 2026-09-04 00:55:25 | 47.60205 | 12.45345 | 145° | 80km/h | 14394m | -6.3m/s | -61.6°C | 8.4% | 142.2hPa | 2.4V | 08:09:00 | 00:00:00 | 00:00:00 | |
| OE5FHM-15 | 2026-09-04 00:55:24 | 47.60222 | 12.45328 | 146° | 82km/h | 14401m | -7.3m/s | -61.6°C | 8.4% | 142.1hPa | 2.5V | 00:00:00 | 02:23:35 | 00:00:00 | |
| DO3MHA-11 | 2026-09-04 00:55:23 | 47.60239 | 12.45311 | 146° | 77km/h | 14408m | -7.8m/s | -61.5°C | 8.3% | 141.9hPa | 2.4V | 00:00:00 | 02:23:34 | 00:00:00 | |
| OE8JPQ-2 | 2026-09-04 00:55:22 | 47.60256 | 12.45294 | 146° | 78km/h | 14416m | -6.9m/s | -61.4°C | 8.3% | 141.7hPa | 2.4V | 00:00:00 | 00:00:00 | 00:00:00 | |
| DB0ND-19 | 2026-09-04 00:55:18 | 47.60314 | 12.45223 | 134° | 71km/h | 14444m | -6.7m/s | -61.0°C | 4.0% | 141.1hPa | 2.5V | 00:00:00 | 00:00:00 | 00:00:00 | |
| OE5MMP-10 | 2026-09-04 00:55:17 | 47.60327 | 12.45203 | 131° | 84km/h | 14451m | -6.6m/s | -60.9°C | 8.0% | 141.0hPa | 2.5V | 00:00:00 | 02:23:28 | 00:00:00 | |
| DO3MHA-11 | 2026-09-04 00:55:13 | 47.60377 | 12.45109 | 131° | 84km/h | 14479m | -7.1m/s | -60.9°C | 8.0% | 140.3hPa | 2.5V | 08:10:00 | 02:23:24 | 00:00:00 | |
| OE5DXL-15 | 2026-09-04 00:55:09 | 47.60440 | 12.45016 | 140° | 82km/h | 14506m | -6.6m/s | -61.1°C | 8.0% | 139.7hPa | 2.4V | 08:10:00 | 00:00:00 | 00:00:00 | |
| OE5MMP-10 | 2026-09-04 00:55:07 | 47.60473 | 12.44975 | 140° | 82km/h | 14520m | -7.6m/s | -61.0°C | 7.9% | 139.4hPa | 2.4V | 00:00:00 | 02:23:18 | 00:00:00 | |
| IN3HCDX | 2026-09-04 00:55:06 | 47.60473 | 12.44975 | 141° | 84km/h | 14520m | -7.7m/s | -61.0°C | 3.9% | 139.4hPa | 2.4V | 08:10:00 | 00:00:00 | 00:00:00 | |
| DB0UT-7 | 2026-09-04 00:55:05 | 47.60505 | 12.44936 | 140° | 82km/h | 14535m | -7.8m/s | -60.9°C | 7.9% | 139.1hPa | 2.4V | 00:00:00 | 02:23:16 | 00:00:00 | |
| OE5WHR-10 | 2026-09-04 00:55:04 | 47.60520 | 12.44916 | 137° | 82km/h | 14543m | -7.7m/s | -60.9°C | 7.9% | 138.8hPa | 2.5V | 00:00:00 | 00:00:00 | 00:00:00 | |
| DO3MHA-11 | 2026-09-04 00:55:03 | 47.60534 | 12.44895 | 136° | 84km/h | 14551m | -7.9m/s | -61.0°C | 7.9% | 138.7hPa | 2.5V | 00:00:00 | 02:23:14 | 00:00:00 | |
| DL6DJ-15 | 2026-09-04 00:54:59 | 47.60606 | 12.44784 | 136° | 88km/h | 14587m | -6.8m/s | -60.7°C | 3.7% | 137.9hPa | 2.5V | 00:00:00 | 00:00:00 | 00:00:00 | |
| DF3TZ-5 | 2026-09-04 00:54:55 | 47.60655 | 12.44720 | 139° | 84km/h | 14609m | -7.9m/s | -60.7°C | 3.6% | 137.5hPa | 2.5V | 00:00:00 | 00:00:00 | 00:00:00 | |
| OE5FHM-15 | 2026-09-04 00:54:54 | 47.60671 | 12.44699 | 141° | 80km/h | 14617m | -8.1m/s | -60.7°C | 7.5% | 137.2hPa | 2.5V | 00:00:00 | 02:23:05 | 00:00:00 | |
| DO3MHA-11 | 2026-09-04 00:54:53 | 47.60688 | 12.44679 | 143° | 82km/h | 14625m | -8.0m/s | -60.7°C | 7.5% | 137.1hPa | 2.5V | 00:00:00 | 02:23:04 | 00:00:00 | |
| NBG1-10 | 2026-09-04 00:54:49 | 47.60756 | 12.44604 | 142° | 84km/h | 14658m | -8.0m/s | -60.7°C | 7.3% | 136.3hPa | 2.5V | 00:00:00 | 02:23:00 | 00:00:00 | |
| OE5MMP-10 | 2026-09-04 00:54:47 | 47.60786 | 12.44566 | 137° | 84km/h | 14674m | -7.8m/s | -60.7°C | 7.3% | 136.0hPa | 2.5V | 00:00:00 | 02:22:58 | 00:00:00 | |
| IN3HCDX | 2026-09-04 00:54:46 | 47.60800 | 12.44545 | 135° | 78km/h | 14682m | -8.1m/s | -60.8°C | 3.4% | 135.9hPa | 2.5V | 08:10:00 | 00:00:00 | 00:00:00 | |
| OE5WHR-10 | 2026-09-04 00:54:43 | 47.60839 | 12.44475 | 128° | 82km/h | 14705m | -7.6m/s | -60.7°C | 7.2% | 135.3hPa | 2.5V | 00:00:00 | 02:22:54 | 00:00:00 | |
| OE8JPQ-2 | 2026-09-04 00:54:42 | 47.60852 | 12.44450 | 128° | 78km/h | 14713m | -7.4m/s | -60.7°C | 7.3% | 135.2hPa | 2.5V | 00:00:00 | 02:22:53 | 00:00:00 | |
| DG1MFX-10 | 2026-09-04 00:54:41 | 47.60852 | 12.44450 | 129° | 84km/h | 14713m | -7.4m/s | -60.8°C | 3.4% | 135.2hPa | 2.5V | 08:10:00 | 00:00:00 | 00:00:00 | |
| OE5DXL-15 | 2026-09-04 00:54:39 | 47.60895 | 12.44375 | 134° | 78km/h | 14735m | -6.7m/s | -60.8°C | 7.4% | 134.7hPa | 2.5V | 00:00:00 | 00:00:00 | 00:00:00 | |
| OE5MMP-10 | 2026-09-04 00:54:37 | 47.60925 | 12.44350 | 142° | 73km/h | 14749m | -7.1m/s | -60.8°C | 7.3% | 134.3hPa | 2.5V | 00:00:00 | 02:22:48 | 00:00:00 | |
| DB0UT-7 | 2026-09-04 00:54:35 | 47.60956 | 12.44301 | 147° | 78km/h | 14762m | -7.3m/s | -60.8°C | 7.3% | 134.1hPa | 2.5V | 00:00:00 | 00:00:00 | 00:00:00 | |
| PG1ADW-2 | 2026-09-04 00:54:31 | 47.61014 | 12.44239 | 139° | 80km/h | 14792m | -7.0m/s | -60.8°C | 7.3% | 133.4hPa | 2.5V | 08:10:00 | 00:00:00 | 00:00:00 | |
| DL6DJ-15 | 2026-09-04 00:54:28 | 47.61070 | 12.44159 | 136° | 84km/h | 14822m | -7.3m/s | -60.7°C | 3.1% | 132.8hPa | 2.5V | 00:00:00 | 00:00:00 | 00:00:00 | |
| OE5MMP-10 | 2026-09-04 00:54:27 | 47.61069 | 12.44159 | 137° | 91km/h | 14822m | -7.3m/s | -60.6°C | 7.1% | 132.8hPa | 2.5V | 00:00:00 | 02:22:38 | 00:00:00 | |
| OE5FHM-15 | 2026-09-04 00:54:24 | 47.61121 | 12.44087 | 138° | 75km/h | 14844m | -8.1m/s | -60.3°C | 6.8% | 132.3hPa | 2.4V | 00:00:00 | 02:22:35 | 00:00:00 | |
| DO3MHA-11 | 2026-09-04 00:54:23 | 47.61139 | 12.44063 | 140° | 80km/h | 14852m | -7.5m/s | -60.2°C | 6.7% | 132.1hPa | 2.4V | 00:00:00 | 02:22:34 | 00:00:00 | |
| OE5WHR-10 | 2026-09-04 00:54:22 | 47.61158 | 12.44041 | 143° | 77km/h | 14860m | -7.8m/s | -60.2°C | 6.8% | 132.0hPa | 2.4V | 00:00:00 | 00:00:00 | 00:00:00 | |
| OE5DRO-10 | 2026-09-04 00:54:20 | 47.61197 | 12.44001 | 148° | 75km/h | 14875m | -7.8m/s | -60.1°C | 6.8% | 131.7hPa | 2.5V | 00:00:00 | 00:00:00 | 00:00:00 | |
| OE5MMP-10 | 2026-09-04 00:54:18 | 47.61251 | 12.43953 | 151° | 71km/h | 14897m | -6.9m/s | -60.1°C | 6.8% | 131.1hPa | 2.4V | 00:00:00 | 02:22:28 | 00:00:00 | |
| OE8JPQ-2 | 2026-09-04 00:54:16 | 47.61265 | 12.43940 | 148° | 64km/h | 14904m | -7.3m/s | -60.0°C | 6.7% | 131.0hPa | 2.4V | 00:00:00 | 00:00:00 | 00:00:00 | |
| DO3MHA-11 | 2026-09-04 00:54:13 | 47.61301 | 12.43894 | 131° | 75km/h | 14925m | -7.4m/s | -59.7°C | 6.5% | 130.6hPa | 2.4V | 00:00:00 | 02:22:24 | 00:00:00 | |
| OE5DXL-15 | 2026-09-04 00:54:09 | 47.61348 | 12.43811 | 133° | 71km/h | 14956m | -7.2m/s | -59.5°C | 6.4% | 130.0hPa | 2.4V | 00:00:00 | 00:00:00 | 00:00:00 | |
| PG1ADW-2 | 2026-09-04 00:54:08 | 47.61362 | 12.43789 | 135° | 73km/h | 14963m | -7.3m/s | -59.6°C | 6.3% | 129.8hPa | 2.4V | 00:00:00 | 02:22:19 | 00:00:00 | |
| OE5MMP-10 | 2026-09-04 00:54:07 | 47.61378 | 12.43768 | 140° | 68km/h | 14971m | -7.9m/s | -59.6°C | 6.4% | 129.7hPa | 2.4V | 00:00:00 | 02:22:18 | 00:00:00 | |
| DB0UT-7 | 2026-09-04 00:54:05 | 47.61410 | 12.43732 | 147° | 71km/h | 14986m | -6.7m/s | -59.4°C | 6.2% | 129.3hPa | 2.4V | 00:00:00 | 02:22:16 | 00:00:00 | |
| DO3MHA-11 | 2026-09-04 00:54:03 | 47.61441 | 12.43705 | 152° | 66km/h | 15002m | -8.7m/s | -59.3°C | 6.2% | 129.0hPa | 2.4V | 00:00:00 | 02:22:14 | 00:00:00 | |
| DL6DJ-15 | 2026-09-04 00:53:56 | 47.61523 | 12.43602 | 123° | 66km/h | 15056m | -7.1m/s | -59.6°C | 2.8% | 127.9hPa | 2.4V | 00:00:00 | 00:00:00 | 00:00:00 | |
| OE8JPQ-2 | 2026-09-04 00:53:55 | 47.61532 | 12.43580 | 122° | 71km/h | 15063m | -6.9m/s | -59.5°C | 6.3% | 127.7hPa | 2.4V | 00:00:00 | 00:00:00 | 00:00:00 | |
| OE5FHM-15 | 2026-09-04 00:53:54 | 47.61542 | 12.43556 | 121° | 77km/h | 15070m | -7.1m/s | -59.5°C | 6.3% | 127.5hPa | 2.4V | 08:11:00 | 02:22:05 | 00:00:00 | |
| DO3MHA-11 | 2026-09-04 00:53:53 | 47.61553 | 12.43530 | 123° | 75km/h | 15078m | -8.1m/s | -59.6°C | 6.3% | 127.4hPa | 2.4V | 00:00:00 | 02:22:04 | 00:00:00 | |
| BAUMI2-15 | 2026-09-04 00:53:48 | 47.61619 | 12.43410 | 139° | 68km/h | 15115m | -6.7m/s | -59.7°C | 6.3% | 126.7hPa | 2.4V | 08:11:00 | 02:21:59 | 00:00:00 | |
| OE5MMP-10 | 2026-09-04 00:53:47 | 47.61632 | 12.43392 | 141° | 68km/h | 15122m | -7.1m/s | -59.8°C | 6.3% | 126.5hPa | 2.4V | 00:00:00 | 02:21:58 | 00:00:00 | |
| NBG1-10 | 2026-09-04 00:53:43 | 47.61677 | 12.43323 | 126° | 69km/h | 15153m | -7.4m/s | -60.0°C | 6.5% | 125.9hPa | 2.4V | 00:00:00 | 02:21:54 | 00:00:00 | |
| OE5DRO-10 | 2026-09-04 00:53:42 | 47.61687 | 12.43302 | 123° | 78km/h | 15160m | -7.4m/s | -60.0°C | 6.4% | 125.8hPa | 2.4V | 00:00:00 | 00:00:00 | 00:00:00 | |
| OE5WHR-10 | 2026-09-04 00:53:40 | 47.61705 | 12.43257 | 121° | 80km/h | 15176m | -8.2m/s | -60.1°C | 6.4% | 125.4hPa | 2.4V | 00:00:00 | 02:21:51 | 00:00:00 | |
| OE5DXL-15 | 2026-09-04 00:53:39 | 47.61715 | 12.43234 | 124° | 78km/h | 15185m | -8.3m/s | -60.1°C | 6.4% | 125.3hPa | 2.4V | 00:00:00 | 00:00:00 | 00:00:00 | |
| BAUMI2-15 | 2026-09-04 00:53:38 | 47.61725 | 12.43212 | 127° | 78km/h | 15193m | -7.7m/s | -60.1°C | 6.5% | 125.1hPa | 2.5V | 00:00:00 | 02:21:49 | 00:00:00 | |
| OE5MMP-10 | 2026-09-04 00:53:37 | 47.61737 | 12.43190 | 130° | 80km/h | 15201m | -8.0m/s | -60.2°C | 6.5% | 125.0hPa | 2.5V | 00:00:00 | 02:21:48 | 00:00:00 | |
| DB0UT-7 | 2026-09-04 00:53:35 | 47.61763 | 12.43145 | 131° | 80km/h | 15216m | -7.3m/s | -60.2°C | 6.4% | 124.7hPa | 2.5V | 00:00:00 | 00:00:00 | 00:00:00 | |
| BAUMI2-15 | 2026-09-04 00:53:33 | 47.61791 | 12.43100 | 134° | 80km/h | 15233m | -8.9m/s | -60.2°C | 6.3% | 124.3hPa | 2.4V | 00:00:00 | 02:21:44 | 00:00:00 | |
| BAUMI2-15 | 2026-09-04 00:53:28 | 47.61860 | 12.42992 | 131° | 80km/h | 15275m | -8.3m/s | -60.2°C | 6.3% | 123.5hPa | 2.5V | 00:00:00 | 02:21:39 | 00:00:00 | |
| OE5HKT-10 | 2026-09-04 00:53:27 | 47.61873 | 12.42969 | 128° | 80km/h | 15283m | -7.7m/s | -60.3°C | 6.3% | 123.3hPa | 2.5V | 00:00:00 | 02:21:38 | 00:00:00 | |
| DL6DJ-15 | 2026-09-04 00:53:26 | 47.61897 | 12.42921 | 128° | 84km/h | 15298m | -8.0m/s | -60.4°C | 2.7% | 123.1hPa | 2.5V | 00:00:00 | 00:00:00 | 00:00:00 | |
| OE5FHM-15 | 2026-09-04 00:53:24 | 47.61911 | 12.42897 | 132° | 75km/h | 15307m | -8.4m/s | -60.3°C | 6.3% | 122.9hPa | 2.5V | 00:00:00 | 02:21:35 | 00:00:00 | |
| DO3MHA-11 | 2026-09-04 00:53:23 | 47.61927 | 12.42874 | 138° | 82km/h | 15315m | -7.5m/s | -60.3°C | 6.4% | 122.7hPa | 2.5V | 00:00:00 | 02:21:34 | 00:00:00 | |
| DF3TZ-5 | 2026-09-04 00:53:22 | 47.61943 | 12.42853 | 141° | 84km/h | 15322m | -6.7m/s | -60.4°C | 2.6% | 122.6hPa | 2.5V | 00:00:00 | 00:00:00 | 00:00:00 | |
| OE5WHR-10 | 2026-09-04 00:53:19 | 47.61998 | 12.42798 | 149° | 75km/h | 15346m | -8.9m/s | -60.4°C | 6.5% | 122.1hPa | 2.5V | 00:00:00 | 00:00:00 | 00:00:00 | |
| BAUMI2-15 | 2026-09-04 00:53:18 | 47.62017 | 12.42781 | 149° | 77km/h | 15355m | -8.3m/s | -60.5°C | 6.6% | 121.9hPa | 2.5V | 00:00:00 | 02:21:29 | 00:00:00 | |
| OE5MMP-10 | 2026-09-04 00:53:17 | 47.62035 | 12.42764 | 149° | 75km/h | 15363m | -8.4m/s | -60.5°C | 6.7% | 121.7hPa | 2.4V | 00:00:00 | 02:21:28 | 00:00:00 | |
| OE8JPQ-2 | 2026-09-04 00:53:15 | 47.62068 | 12.42734 | 146° | 71km/h | 15379m | -7.7m/s | -60.5°C | 6.7% | 121.4hPa | 2.4V | 08:11:00 | 00:00:00 | 00:00:00 | |
| BAUMI2-15 | 2026-09-04 00:53:14 | 47.62094 | 12.42702 | 135° | 73km/h | 15394m | -7.5m/s | -60.3°C | 6.7% | 121.1hPa | 2.5V | 00:00:00 | 02:21:24 | 00:00:00 | |
| DO3MHA-11 | 2026-09-04 00:53:13 | 47.62094 | 12.42702 | 135° | 75km/h | 15394m | -7.5m/s | -60.3°C | 6.7% | 121.1hPa | 2.5V | 00:00:00 | 02:21:24 | 00:00:00 | |
| OE5DXL-15 | 2026-09-04 00:53:09 | 47.62138 | 12.42615 | 126° | 68km/h | 15425m | -8.1m/s | -60.2°C | 6.5% | 120.5hPa | 2.5V | 00:00:00 | 00:00:00 | 00:00:00 | |
| PG1ADW-2 | 2026-09-04 00:53:08 | 47.62150 | 12.42591 | 128° | 69km/h | 15433m | -8.1m/s | -60.3°C | 6.5% | 120.4hPa | 2.5V | 00:00:00 | 00:00:00 | 00:00:00 | |
| OE5MMP-10 | 2026-09-04 00:53:07 | 47.62163 | 12.42567 | 131° | 73km/h | 15441m | -8.2m/s | -60.3°C | 6.5% | 120.2hPa | 2.5V | 00:00:00 | 02:21:18 | 00:00:00 | |
| OE5HKT-10 | 2026-09-04 00:53:06 | 47.62176 | 12.42546 | 136° | 73km/h | 15450m | -8.3m/s | -60.2°C | 6.5% | 120.0hPa | 2.5V | 00:00:00 | 00:00:00 | 00:00:00 | |
| DB0UT-7 | 2026-09-04 00:53:05 | 47.62190 | 12.42527 | 142° | 64km/h | 15457m | -6.9m/s | -60.1°C | 6.5% | 119.9hPa | 2.4V | 00:00:00 | 02:21:16 | 00:00:00 | |
| OE5DRO-10 | 2026-09-04 00:53:04 | 47.62205 | 12.42511 | 147° | 68km/h | 15464m | -6.9m/s | -59.9°C | 6.4% | 119.8hPa | 2.4V | 00:00:00 | 00:00:00 | 00:00:00 | |
| BAUMI2-15 | 2026-09-04 00:53:03 | 47.62221 | 12.42497 | 152° | 71km/h | 15472m | -7.9m/s | -59.8°C | 6.3% | 119.6hPa | 2.4V | 08:12:00 | 02:21:14 | 00:00:00 | |
| DL6DJ-15 | 2026-09-04 00:52:55 | 47.62360 | 12.42400 | 147° | 55km/h | 15547m | -8.1m/s | -59.3°C | 2.5% | 118.2hPa | 2.4V | 00:00:00 | 00:00:00 | 00:00:00 | |
| DF3TZ-5 | 2026-09-04 00:52:51 | 47.62393 | 12.42355 | 130° | 66km/h | 15568m | -6.9m/s | -59.3°C | -1.0% | 117.8hPa | 2.4V | 00:00:00 | 00:00:00 | 00:00:00 | |
| NBG1-10 | 2026-09-04 00:52:49 | 47.62416 | 12.42314 | 132° | 62km/h | 15584m | -8.8m/s | -59.1°C | 6.0% | 117.5hPa | 2.4V | 00:00:00 | 02:21:00 | 00:00:00 | |
| PG1ADW-2 | 2026-09-04 00:52:48 | 47.62429 | 12.42294 | 135° | 64km/h | 15593m | -8.3m/s | -59.1°C | 6.1% | 117.3hPa | 2.4V | 00:00:00 | 02:20:59 | 00:00:00 | |
| OE5MMP-10 | 2026-09-04 00:52:47 | 47.62442 | 12.42275 | 139° | 58km/h | 15601m | -7.8m/s | -59.0°C | 6.0% | 117.1hPa | 2.4V | 00:00:00 | 02:20:58 | 00:00:00 | |
| OE5DRO-10 | 2026-09-04 00:52:45 | 47.62470 | 12.42243 | 147° | 64km/h | 15616m | -8.2m/s | -58.9°C | 5.9% | 116.9hPa | 2.4V | 00:00:00 | 00:00:00 | 00:00:00 | |
| DO3MHA-11 | 2026-09-04 00:52:43 | 47.62497 | 12.42220 | 154° | 53km/h | 15633m | -8.8m/s | -58.8°C | 5.8% | 116.6hPa | 2.4V | 00:00:00 | 02:20:54 | 00:00:00 | |
| OE5DXL-15 | 2026-09-04 00:52:39 | 47.62547 | 12.42187 | 152° | 66km/h | 15668m | -8.8m/s | -58.8°C | 5.9% | 115.9hPa | 2.5V | 00:00:00 | 00:00:00 | 00:00:00 | |
| BAUMI2-15 | 2026-09-04 00:52:38 | 47.62556 | 12.42178 | 145° | 53km/h | 15676m | -8.5m/s | -58.9°C | 5.9% | 115.8hPa | 2.5V | 00:00:00 | 02:20:49 | 00:00:00 | |
| OE5WHR-10 | 2026-09-04 00:52:37 | 47.62565 | 12.42168 | 136° | 64km/h | 15685m | -8.6m/s | -58.9°C | 6.0% | 115.6hPa | 2.5V | 00:00:00 | 02:20:48 | 00:00:00 | |
| DB0UT-7 | 2026-09-04 00:52:35 | 47.62582 | 12.42138 | 126° | 69km/h | 15701m | -7.4m/s | -58.9°C | 6.0% | 115.3hPa | 2.5V | 00:00:00 | 00:00:00 | 00:00:00 | |
| IN3HCDX | 2026-09-04 00:52:34 | 47.62582 | 12.42138 | 126° | 58km/h | 15701m | -7.5m/s | -58.9°C | 2.4% | 115.4hPa | 2.5V | 00:00:00 | 00:00:00 | 00:00:00 | |
| DO3MHA-11 | 2026-09-04 00:52:33 | 47.62601 | 12.42096 | 126° | 73km/h | 15716m | -7.7m/s | -58.7°C | 5.9% | 115.0hPa | 2.5V | 00:00:00 | 02:20:44 | 00:00:00 | |
| BAUMI2-15 | 2026-09-04 00:52:28 | 47.62671 | 12.41983 | 140° | 66km/h | 15758m | -7.9m/s | -58.5°C | 5.8% | 114.3hPa | 2.5V | 00:00:00 | 02:20:39 | 00:00:00 | |
| OE5MMP-10 | 2026-09-04 00:52:27 | 47.62686 | 12.41965 | 143° | 57km/h | 15765m | -7.7m/s | -58.6°C | 5.7% | 114.1hPa | 2.5V | 00:00:00 | 02:20:38 | 00:00:00 | |
| OE5DRO-10 | 2026-09-04 00:52:26 | 47.62700 | 12.41949 | 145° | 66km/h | 15773m | -7.8m/s | -58.5°C | 5.7% | 114.0hPa | 2.4V | 08:12:00 | 00:00:00 | 00:00:00 | |
| OE5FHM-15 | 2026-09-04 00:52:24 | 47.62725 | 12.41924 | 144° | 60km/h | 15788m | -7.3m/s | -58.4°C | 5.7% | 113.7hPa | 2.4V | 00:00:00 | 02:20:35 | 00:00:00 | |
| DO3MHA-11 | 2026-09-04 00:52:23 | 47.62735 | 12.41913 | 143° | 62km/h | 15797m | -8.9m/s | -58.4°C | 5.7% | 113.6hPa | 2.4V | 00:00:00 | 02:20:34 | 00:00:00 | |
| BAUMI2-15 | 2026-09-04 00:52:18 | 47.62779 | 12.41840 | 126° | 73km/h | 15839m | -8.9m/s | -58.4°C | 5.7% | 112.8hPa | 2.4V | 08:12:00 | 02:20:29 | 00:00:00 | |
| OE5MMP-10 | 2026-09-04 00:52:17 | 47.62789 | 12.41819 | 127° | 77km/h | 15847m | -8.6m/s | -58.3°C | 5.7% | 112.6hPa | 2.5V | 00:00:00 | 02:20:28 | 00:00:00 | |
| OE5WHR-10 | 2026-09-04 00:52:16 | 47.62800 | 12.41798 | 129° | 62km/h | 15856m | -8.5m/s | -58.3°C | 5.7% | 112.5hPa | 2.5V | 08:12:00 | 00:00:00 | 00:00:00 | |
| OE8JPQ-2 | 2026-09-04 00:52:15 | 47.62812 | 12.41776 | 132° | 60km/h | 15865m | -8.4m/s | -58.3°C | 5.7% | 112.3hPa | 2.4V | 00:00:00 | 00:00:00 | 00:00:00 | |
| BAUMI2-15 | 2026-09-04 00:52:13 | 47.62841 | 12.41734 | 140° | 78km/h | 15882m | -8.4m/s | -58.3°C | 5.7% | 112.0hPa | 2.4V | 00:00:00 | 02:20:24 | 00:00:00 | |
| DB0ND-19 | 2026-09-04 00:52:12 | 47.62857 | 12.41715 | 143° | 80km/h | 15890m | -8.2m/s | -58.3°C | 2.3% | 111.9hPa | 2.4V | 00:00:00 | 00:00:00 | 00:00:00 | |
| DF7PN | 2026-09-04 00:52:11 | 47.62874 | 12.41698 | 147° | 78km/h | 15897m | -7.4m/s | -58.4°C | 2.3% | 111.8hPa | 2.4V | 00:00:00 | 00:00:00 | 00:00:00 | |
| IN3HCDX | 2026-09-04 00:52:10 | 47.62890 | 12.41684 | 153° | 77km/h | 15905m | -7.5m/s | -58.4°C | 2.3% | 111.7hPa | 2.4V | 00:00:00 | 00:00:00 | 00:00:00 | |
| OE5DXL-15 | 2026-09-04 00:52:09 | 47.62907 | 12.41671 | 156° | 58km/h | 15913m | -8.2m/s | -58.5°C | 5.6% | 111.5hPa | 2.4V | 00:00:00 | 00:00:00 | 00:00:00 | |
| BAUMI2-15 | 2026-09-04 00:52:08 | 47.62923 | 12.41661 | 157° | 60km/h | 15921m | -8.5m/s | -58.5°C | 5.8% | 111.3hPa | 2.5V | 00:00:00 | 02:20:19 | 00:00:00 | |
| OE5MMP-10 | 2026-09-04 00:52:07 | 47.62939 | 12.41651 | 157° | 49km/h | 15930m | -8.3m/s | -58.6°C | 5.8% | 111.2hPa | 2.5V | 00:00:00 | 02:20:18 | 00:00:00 | |
| DB0UT-7 | 2026-09-04 00:52:05 | 47.62966 | 12.41633 | 154° | 58km/h | 15946m | -8.1m/s | -58.7°C | 5.9% | 110.9hPa | 2.5V | 08:13:00 | 02:20:16 | 00:00:00 | |
| DO3MHA-11 | 2026-09-04 00:52:03 | 47.62989 | 12.41614 | 147° | 49km/h | 15962m | -7.6m/s | -58.7°C | 5.9% | 110.6hPa | 2.5V | 00:00:00 | 02:20:14 | 00:00:00 | |
| DL6DJ-15 | 2026-09-04 00:51:52 | 47.63091 | 12.41474 | 137° | 62km/h | 16054m | -9.0m/s | -58.8°C | 2.4% | 109.0hPa | 2.5V | 00:00:00 | 00:00:00 | 00:00:00 | |
| DF3TZ-5 | 2026-09-04 00:51:49 | 47.63141 | 12.41408 | 138° | 68km/h | 16091m | -9.1m/s | -58.7°C | -1.0% | 108.4hPa | 2.5V | 00:00:00 | 00:00:00 | 00:00:00 | |
| OE5DRO-10 | 2026-09-04 00:51:48 | 47.63141 | 12.41408 | 139° | 64km/h | 16091m | -9.0m/s | -58.6°C | 5.9% | 108.3hPa | 2.5V | 00:00:00 | 00:00:00 | 00:00:00 | |
| OE5MMP-10 | 2026-09-04 00:51:47 | 47.63154 | 12.41390 | 138° | 64km/h | 16100m | -9.1m/s | -58.6°C | 5.8% | 108.2hPa | 2.5V | 00:00:00 | 02:19:58 | 00:00:00 | |
| DO3MHA-11 | 2026-09-04 00:51:43 | 47.63208 | 12.41323 | 143° | 58km/h | 16137m | -8.4m/s | -58.4°C | 5.7% | 107.6hPa | 2.5V | 00:00:00 | 02:19:54 | 00:00:00 | |
| NBG1-10 | 2026-09-04 00:51:41 | 47.63234 | 12.41293 | 142° | 57km/h | 16154m | -8.9m/s | -58.3°C | 5.7% | 107.3hPa | 2.4V | 08:13:00 | 02:19:52 | 00:00:00 | |
| DF7PN | 2026-09-04 00:51:40 | 47.63246 | 12.41280 | 143° | 58km/h | 16163m | -9.1m/s | -58.4°C | 2.2% | 107.2hPa | 2.4V | 00:00:00 | 00:00:00 | 00:00:00 | |
| OE5DXL-15 | 2026-09-04 00:51:39 | 47.63258 | 12.41267 | 143° | 57km/h | 16173m | -9.3m/s | -58.3°C | 5.6% | 106.9hPa | 2.4V | 00:00:00 | 00:00:00 | 00:00:00 | |
| OE5MMP-10 | 2026-09-04 00:51:37 | 47.63280 | 12.41241 | 141° | 60km/h | 16191m | -9.1m/s | -58.2°C | 5.5% | 106.7hPa | 2.4V | 00:00:00 | 02:19:48 | 00:00:00 | |
| OE8JPQ-2 | 2026-09-04 00:51:35 | 47.63299 | 12.41213 | 131° | 58km/h | 16209m | -8.1m/s | -58.1°C | 5.4% | 106.4hPa | 2.4V | 00:00:00 | 02:19:46 | 00:00:00 | |
| OE5WHR-10 | 2026-09-04 00:51:34 | 47.63308 | 12.41197 | 130° | 58km/h | 16217m | -7.5m/s | -58.0°C | 5.4% | 106.2hPa | 2.4V | 00:00:00 | 02:19:45 | 00:00:00 | |
| DO3MHA-11 | 2026-09-04 00:51:33 | 47.63319 | 12.41178 | 130° | 60km/h | 16224m | -7.7m/s | -58.0°C | 5.4% | 106.1hPa | 2.4V | 00:00:00 | 02:19:44 | 00:00:00 | |
| OE5MMP-10 | 2026-09-04 00:51:27 | 47.63375 | 12.41066 | 119° | 58km/h | 16273m | -8.7m/s | -58.2°C | 5.3% | 105.3hPa | 2.4V | 00:00:00 | 02:19:38 | 00:00:00 | |
| OE5FHM-15 | 2026-09-04 00:51:24 | 47.63397 | 12.41010 | 124° | 55km/h | 16299m | -8.1m/s | -58.3°C | 5.5% | 104.8hPa | 2.5V | 00:00:00 | 02:19:35 | 00:00:00 | |
| DO3MHA-11 | 2026-09-04 00:51:23 | 47.63405 | 12.40990 | 127° | 55km/h | 16307m | -7.9m/s | -58.3°C | 5.5% | 104.7hPa | 2.5V | 00:00:00 | 02:19:34 | 00:00:00 | |
| DL6DJ-15 | 2026-09-04 00:51:21 | 47.63426 | 12.40955 | 133° | 58km/h | 16323m | -7.8m/s | -58.2°C | 2.1% | 104.5hPa | 2.5V | 00:00:00 | 00:00:00 | 00:00:00 | |
| DF3TZ-5 | 2026-09-04 00:51:18 | 47.63456 | 12.40914 | 139° | 49km/h | 16348m | -8.9m/s | -58.0°C | -1.0% | 104.1hPa | 2.5V | 00:00:00 | 00:00:00 | 00:00:00 | |
| OE5MMP-10 | 2026-09-04 00:51:17 | 47.63466 | 12.40901 | 141° | 49km/h | 16358m | -9.2m/s | -58.0°C | 5.3% | 103.9hPa | 2.5V | 00:00:00 | 02:19:28 | 00:00:00 | |
| DG1MFX-10 | 2026-09-04 00:51:16 | 47.63465 | 12.40901 | 142° | 49km/h | 16358m | -9.3m/s | -58.0°C | 2.1% | 104.0hPa | 2.5V | 08:14:00 | 00:00:00 | 00:00:00 | |
| OE8JPQ-2 | 2026-09-04 00:51:15 | 47.63484 | 12.40876 | 135° | 55km/h | 16376m | -8.9m/s | -58.1°C | 5.3% | 103.6hPa | 2.5V | 00:00:00 | 00:00:00 | 00:00:00 | |
| DO3MHA-11 | 2026-09-04 00:51:13 | 47.63500 | 12.40849 | 131° | 51km/h | 16394m | -9.3m/s | -58.2°C | 5.4% | 103.3hPa | 2.4V | 00:00:00 | 02:19:24 | 00:00:00 | |
| OE5DRO-10 | 2026-09-04 00:51:10 | 47.63525 | 12.40806 | 131° | 57km/h | 16422m | -8.9m/s | -58.3°C | 5.3% | 102.8hPa | 2.4V | 00:00:00 | 00:00:00 | 00:00:00 | |
| OE5DXL-15 | 2026-09-04 00:51:09 | 47.63534 | 12.40792 | 133° | 58km/h | 16431m | -9.0m/s | -58.3°C | 5.4% | 102.7hPa | 2.4V | 00:00:00 | 00:00:00 | 00:00:00 | |
| OE5MMP-10 | 2026-09-04 00:51:07 | 47.63551 | 12.40764 | 133° | 57km/h | 16449m | -9.1m/s | -58.5°C | 5.4% | 102.4hPa | 2.4V | 00:00:00 | 02:19:18 | 00:00:00 | |
| IN3HCDX | 2026-09-04 00:51:06 | 47.63551 | 12.40764 | 134° | 53km/h | 16449m | -9.1m/s | -58.5°C | 2.0% | 102.5hPa | 2.4V | 00:00:00 | 00:00:00 | 00:00:00 | |
| DB0UT-7 | 2026-09-04 00:51:05 | 47.63570 | 12.40735 | 134° | 58km/h | 16467m | -9.0m/s | -58.6°C | 5.4% | 102.1hPa | 2.4V | 00:00:00 | 02:19:16 | 00:00:00 | |
| DO3MHA-11 | 2026-09-04 00:51:03 | 47.63589 | 12.40705 | 135° | 60km/h | 16486m | -9.5m/s | -58.6°C | 5.4% | 101.8hPa | 2.4V | 00:00:00 | 02:19:14 | 00:00:00 | |
| DL6DJ-15 | 2026-09-04 00:50:50 | 47.63703 | 12.40478 | 129° | 55km/h | 16602m | -9.3m/s | -58.5°C | 2.0% | 100.0hPa | 2.4V | 00:00:00 | 00:00:00 | 00:00:00 | |
| DH7VM-15 | 2026-09-04 00:50:48 | 47.63713 | 12.40462 | 135° | 62km/h | 16611m | -8.9m/s | -58.4°C | 0% | 99.8hPa | 2.4V | 00:00:00 | 00:00:00 | 00:00:00 | |
| OE5MMP-10 | 2026-09-04 00:50:47 | 47.63738 | 12.40430 | 144° | 58km/h | 16627m | -8.1m/s | -58.3°C | 5.4% | 99.5hPa | 2.4V | 00:00:00 | 02:18:58 | 00:00:00 | |
| DK5PH-5 | 2026-09-04 00:50:46 | 47.63752 | 12.40415 | 146° | 47km/h | 16636m | -9.5m/s | -58.3°C | 5.3% | 99.4hPa | 2.4V | 00:00:00 | 02:18:57 | 00:00:00 | |
| DO3MHA-11 | 2026-09-04 00:50:43 | 47.63797 | 12.40377 | 154° | 49km/h | 16663m | -8.6m/s | -58.4°C | 5.4% | 98.9hPa | 2.4V | 08:14:00 | 02:18:54 | 00:00:00 | |
| IN3HCDX | 2026-09-04 00:50:41 | 47.63811 | 12.40367 | 157° | 57km/h | 16671m | -8.7m/s | -58.5°C | 2.0% | 98.8hPa | 2.4V | 00:00:00 | 00:00:00 | 00:00:00 | |
| OE5DXL-15 | 2026-09-04 00:50:39 | 47.63844 | 12.40340 | 144° | 46km/h | 16697m | -8.0m/s | -58.4°C | 5.4% | 98.4hPa | 2.4V | 08:14:00 | 00:00:00 | 00:00:00 | |
| DF7PN | 2026-09-04 00:50:38 | 47.63859 | 12.40318 | 125° | 40km/h | 16712m | -7.1m/s | -58.3°C | 1.9% | 98.2hPa | 2.4V | 00:00:00 | 00:00:00 | 00:00:00 | |
| OE5MMP-10 | 2026-09-04 00:50:37 | 47.63859 | 12.40318 | 126° | 49km/h | 16712m | -7.1m/s | -58.3°C | 5.3% | 98.1hPa | 2.4V | 00:00:00 | 02:18:48 | 00:00:00 | |
| DG1MFX-10 | 2026-09-04 00:50:35 | 47.63865 | 12.40304 | 118° | 46km/h | 16720m | -8.4m/s | -58.2°C | 1.9% | 98.1hPa | 2.4V | 08:14:00 | 00:00:00 | 00:00:00 | |
| OE5DRO-10 | 2026-09-04 00:50:32 | 47.63885 | 12.40237 | 117° | 44km/h | 16754m | -8.6m/s | -57.9°C | 5.2% | 97.5hPa | 2.4V | 00:00:00 | 00:00:00 | 00:00:00 | |
| OE5WHR-10 | 2026-09-04 00:50:31 | 47.63892 | 12.40220 | 121° | 46km/h | 16763m | -8.5m/s | -57.9°C | 5.2% | 97.4hPa | 2.4V | 00:00:00 | 02:18:42 | 00:00:00 | |
| PG1ADW-2 | 2026-09-04 00:50:27 | 47.63927 | 12.40165 | 149° | 46km/h | 16797m | -8.3m/s | -57.9°C | 5.2% | 96.9hPa | 2.4V | 00:00:00 | 00:00:00 | 00:00:00 | |
| OE5FHM-15 | 2026-09-04 00:50:24 | 47.63958 | 12.40141 | 156° | 46km/h | 16824m | -8.6m/s | -57.9°C | 5.2% | 96.5hPa | 2.5V | 00:00:00 | 02:18:35 | 00:00:00 | |
| DO3MHA-11 | 2026-09-04 00:50:23 | 47.63968 | 12.40135 | 155° | 37km/h | 16833m | -8.7m/s | -58.0°C | 5.2% | 96.3hPa | 2.5V | 00:00:00 | 02:18:34 | 00:00:00 | |
| OE5HKT-10 | 2026-09-04 00:50:22 | 47.63976 | 12.40129 | 151° | 44km/h | 16842m | -8.7m/s | -58.0°C | 5.2% | 96.2hPa | 2.5V | 00:00:00 | 02:18:33 | 00:00:00 | |
| IN3HCDX | 2026-09-04 00:50:20 | 47.63982 | 12.40123 | 143° | 29km/h | 16851m | -9.0m/s | -58.1°C | 1.8% | 96.1hPa | 2.5V | 00:00:00 | 00:00:00 | 00:00:00 | |
| DL6DJ-15 | 2026-09-04 00:50:19 | 47.63991 | 12.40107 | 116° | 27km/h | 16868m | -8.5m/s | -58.2°C | 1.9% | 95.8hPa | 2.5V | 00:00:00 | 00:00:00 | 00:00:00 | |
| OE5MMP-10 | 2026-09-04 00:50:17 | 47.63996 | 12.40083 | 101° | 47km/h | 16885m | -8.5m/s | -58.2°C | 5.4% | 95.5hPa | 2.5V | 00:00:00 | 02:18:28 | 00:00:00 | |
| DK5PH-5 | 2026-09-04 00:50:16 | 47.63997 | 12.40067 | 100° | 47km/h | 16894m | -8.4m/s | -58.2°C | 5.3% | 95.4hPa | 2.5V | 00:00:00 | 02:18:27 | 00:00:00 | |
| OE8JPQ-2 | 2026-09-04 00:50:15 | 47.63999 | 12.40050 | 101° | 51km/h | 16902m | -8.5m/s | -58.2°C | 5.3% | 95.2hPa | 2.5V | 08:14:00 | 00:00:00 | 00:00:00 | |
| DO3MHA-11 | 2026-09-04 00:50:13 | 47.64006 | 12.40012 | 108° | 47km/h | 16920m | -8.6m/s | -58.0°C | 5.2% | 94.9hPa | 2.4V | 00:00:00 | 02:18:24 | 00:00:00 | |
| OE5WHR-10 | 2026-09-04 00:50:10 | 47.64021 | 12.39958 | 121° | 46km/h | 16946m | -8.0m/s | -58.0°C | 5.3% | 94.6hPa | 2.4V | 00:00:00 | 00:00:00 | 00:00:00 | |
| OE5DXL-15 | 2026-09-04 00:50:09 | 47.64028 | 12.39943 | 127° | 51km/h | 16954m | -7.7m/s | -57.8°C | 5.1% | 94.5hPa | 2.4V | 00:00:00 | 00:00:00 | 00:00:00 | |
| DF7PN | 2026-09-04 00:50:07 | 47.64049 | 12.39911 | 138° | 40km/h | 16979m | -9.4m/s | -57.6°C | 1.7% | 94.2hPa | 2.4V | 00:00:00 | 00:00:00 | 00:00:00 | |
| DB0UT-7 | 2026-09-04 00:50:03 | 47.64077 | 12.39873 | 140° | 47km/h | 17004m | -7.9m/s | -57.4°C | 5.0% | 93.7hPa | 2.4V | 00:00:00 | 02:18:14 | 00:00:00 | |
| DL6DJ-15 | 2026-09-04 00:49:48 | 47.64216 | 12.39730 | 127° | 60km/h | 17139m | -8.9m/s | -57.9°C | 1.7% | 91.7hPa | 2.4V | 00:00:00 | 00:00:00 | 00:00:00 | |
| OE5MMP-10 | 2026-09-04 00:49:47 | 47.64227 | 12.39712 | 134° | 57km/h | 17149m | -9.6m/s | -57.8°C | 5.0% | 91.6hPa | 2.4V | 00:00:00 | 02:17:58 | 00:00:00 | |
| DK5PH-5 | 2026-09-04 00:49:46 | 47.64239 | 12.39694 | 140° | 44km/h | 17158m | -9.1m/s | -57.7°C | 5.0% | 91.4hPa | 2.4V | 00:00:00 | 02:17:57 | 00:00:00 | |
| BAUMI2-15 | 2026-09-04 00:49:44 | 47.64267 | 12.39665 | 151° | 58km/h | 17177m | -9.5m/s | -57.7°C | 5.1% | 91.2hPa | 2.4V | 00:00:00 | 02:17:55 | 00:00:00 | |
| DO3MHA-11 | 2026-09-04 00:49:43 | 47.64282 | 12.39654 | 156° | 38km/h | 17186m | -9.2m/s | -57.6°C | 5.1% | 91.1hPa | 2.4V | 00:00:00 | 02:17:54 | 00:00:00 | |
| OE5HKT-10 | 2026-09-04 00:49:40 | 47.64323 | 12.39636 | 171° | 37km/h | 17213m | -9.7m/s | -57.5°C | 5.0% | 90.7hPa | 2.4V | 00:00:00 | 00:00:00 | 00:00:00 | |
| OE5DXL-15 | 2026-09-04 00:49:39 | 47.64333 | 12.39634 | 172° | 37km/h | 17223m | -9.0m/s | -57.6°C | 5.0% | 90.5hPa | 2.4V | 00:00:00 | 00:00:00 | 00:00:00 | |
| IN3HCDX | 2026-09-04 00:49:38 | 47.64342 | 12.39632 | 171° | 33km/h | 17232m | -8.9m/s | -57.7°C | 1.7% | 90.4hPa | 2.4V | 00:00:00 | 00:00:00 | 00:00:00 | |
| OE5MMP-10 | 2026-09-04 00:49:37 | 47.64350 | 12.39629 | 166° | 27km/h | 17240m | -8.7m/s | -57.6°C | 5.1% | 90.2hPa | 2.4V | 00:00:00 | 02:17:48 | 00:00:00 | |
| OE8JPQ-2 | 2026-09-04 00:49:35 | 47.64360 | 12.39622 | 141° | 40km/h | 17258m | -8.9m/s | -57.7°C | 5.1% | 90.0hPa | 2.4V | 00:00:00 | 02:17:46 | 00:00:00 | |
| BAUMI2-15 | 2026-09-04 00:49:34 | 47.64364 | 12.39617 | 126° | 27km/h | 17267m | -9.0m/s | -57.6°C | 5.1% | 89.8hPa | 2.4V | 00:00:00 | 02:17:45 | 00:00:00 | |
| DB0UT-7 | 2026-09-04 00:49:33 | 47.64367 | 12.39610 | 119° | 35km/h | 17276m | -9.7m/s | -57.5°C | 5.1% | 89.7hPa | 2.4V | 00:00:00 | 00:00:00 | 00:00:00 | |
| BAUMI2-15 | 2026-09-04 00:49:29 | 47.64383 | 12.39571 | 128° | 38km/h | 17311m | -8.4m/s | -57.4°C | 4.9% | 89.2hPa | 2.4V | 08:15:00 | 02:17:40 | 00:00:00 | |
| OE5WHR-10 | 2026-09-04 00:49:28 | 47.64389 | 12.39560 | 129° | 38km/h | 17320m | -8.9m/s | -57.4°C | 5.0% | 89.1hPa | 2.4V | 00:00:00 | 02:17:39 | 00:00:00 | |
| OE5MMP-10 | 2026-09-04 00:49:27 | 47.64395 | 12.39548 | 126° | 47km/h | 17329m | -9.4m/s | -57.4°C | 4.9% | 89.0hPa | 2.4V | 00:00:00 | 02:17:38 | 00:00:00 | |
| OE5FHM-15 | 2026-09-04 00:49:24 | 47.64409 | 12.39508 | 110° | 38km/h | 17357m | -9.1m/s | -57.5°C | 4.9% | 88.6hPa | 2.5V | 08:15:00 | 02:17:35 | 00:00:00 | |
| DO3MHA-11 | 2026-09-04 00:49:23 | 47.64413 | 12.39492 | 113° | 49km/h | 17367m | -10.4m/s | -57.5°C | 4.9% | 88.5hPa | 2.4V | 00:00:00 | 02:17:34 | 00:00:00 | |
| OE5HKT-10 | 2026-09-04 00:49:19 | 47.64441 | 12.39429 | 136° | 37km/h | 17406m | -10.6m/s | -57.1°C | 4.8% | 87.9hPa | 2.4V | 00:00:00 | 02:17:30 | 00:00:00 | |
| OE5MMP-10 | 2026-09-04 00:49:17 | 47.64463 | 12.39404 | 150° | 27km/h | 17427m | -9.8m/s | -57.1°C | 4.8% | 87.6hPa | 2.4V | 00:00:00 | 02:17:28 | 00:00:00 | |
| DK5PH-5 | 2026-09-04 00:49:16 | 47.64474 | 12.39395 | 156° | 29km/h | 17436m | -10.2m/s | -57.1°C | 4.8% | 87.5hPa | 2.4V | 08:15:00 | 02:17:27 | 00:00:00 | |
| OE8JPQ-2 | 2026-09-04 00:49:15 | 47.64485 | 12.39388 | 161° | 33km/h | 17446m | -9.6m/s | -57.0°C | 4.7% | 87.3hPa | 2.4V | 00:00:00 | 00:00:00 | 00:00:00 | |
| BAUMI2-15 | 2026-09-04 00:49:14 | 47.64495 | 12.39384 | 166° | 24km/h | 17456m | -9.2m/s | -57.1°C | 4.7% | 87.2hPa | 2.4V | 00:00:00 | 02:17:25 | 00:00:00 | |
| DO3MHA-11 | 2026-09-04 00:49:13 | 47.64503 | 12.39381 | 171° | 18km/h | 17465m | -8.7m/s | -57.1°C | 4.8% | 87.1hPa | 2.5V | 08:16:00 | 02:17:24 | 00:00:00 | |
| OE5DXL-15 | 2026-09-04 00:49:09 | 47.64519 | 12.39377 | 158° | 33km/h | 17500m | -9.8m/s | -57.4°C | 4.8% | 86.6hPa | 2.4V | 00:00:00 | 00:00:00 | 00:00:00 | |
| OE5WHR-10 | 2026-09-04 00:49:07 | 47.64524 | 12.39374 | 157° | 31km/h | 17522m | -10.4m/s | -57.5°C | 4.9% | 86.3hPa | 2.4V | 08:16:00 | 00:00:00 | 00:00:00 | |
| DF7PN | 2026-09-04 00:49:05 | 47.64532 | 12.39367 | 145° | 24km/h | 17542m | -9.4m/s | -57.7°C | 1.7% | 86.1hPa | 2.4V | 00:00:00 | 00:00:00 | 00:00:00 | |
| BAUMI2-15 | 2026-09-04 00:49:04 | 47.64538 | 12.39361 | 147° | 51km/h | 17551m | -8.6m/s | -57.6°C | 5.1% | 85.9hPa | 2.4V | 00:00:00 | 02:17:15 | 00:00:00 | |
| DB0UT-7 | 2026-09-04 00:49:03 | 47.64547 | 12.39353 | 149° | 38km/h | 17559m | -7.2m/s | -57.6°C | 5.1% | 85.8hPa | 2.4V | 00:00:00 | 02:17:14 | 00:00:00 | |
| BAUMI2-15 | 2026-09-04 00:48:59 | 47.64592 | 12.39305 | 142° | 42km/h | 17597m | -10.0m/s | -57.6°C | 5.1% | 85.2hPa | 2.4V | 00:00:00 | 02:17:10 | 00:00:00 | |
| OE5HKT-10 | 2026-09-04 00:48:58 | 47.64603 | 12.39293 | 141° | 29km/h | 17607m | -9.4m/s | -57.6°C | 5.1% | 85.1hPa | 2.4V | 00:00:00 | 00:00:00 | 00:00:00 | |
| OE5MMP-10 | 2026-09-04 00:48:57 | 47.64612 | 12.39282 | 141° | 24km/h | 17616m | -9.0m/s | -57.6°C | 5.1% | 85.0hPa | 2.4V | 08:16:00 | 02:17:08 | 00:00:00 | |
| OE8JPQ-2 | 2026-09-04 00:48:55 | 47.64625 | 12.39264 | 133° | 35km/h | 17633m | -8.3m/s | -57.4°C | 5.0% | 84.8hPa | 2.5V | 00:00:00 | 00:00:00 | 00:00:00 | |
| OE5FHM-15 | 2026-09-04 00:48:54 | 47.64629 | 12.39256 | 120° | 31km/h | 17642m | -9.0m/s | -57.3°C | 4.9% | 84.7hPa | 2.5V | 00:00:00 | 02:17:05 | 00:00:00 | |
| DG1MFX-10 | 2026-09-04 00:48:53 | 47.64632 | 12.39249 | 118° | 22km/h | 17651m | -10.0m/s | -57.2°C | 1.6% | 84.6hPa | 2.5V | 08:16:00 | 00:00:00 | 00:00:00 | |
| NBG1-10 | 2026-09-04 00:48:51 | 47.64636 | 12.39236 | 118° | 38km/h | 17671m | -9.7m/s | -57.0°C | 4.8% | 84.3hPa | 2.5V | 00:00:00 | 02:17:02 | 00:00:00 | |
| BAUMI2-15 | 2026-09-04 00:48:49 | 47.64641 | 12.39229 | 160° | 24km/h | 17692m | -10.0m/s | -57.1°C | 4.8% | 84.0hPa | 2.5V | 00:00:00 | 02:17:00 | 00:00:00 | |
| DO8TBO-1 | 2026-09-04 00:48:48 | 47.64645 | 12.39228 | 178° | 33km/h | 17702m | -10.0m/s | -57.2°C | 4.8% | 83.9hPa | 2.5V | 00:00:00 | 02:16:59 | 00:00:00 | |
| OE5MMP-10 | 2026-09-04 00:48:47 | 47.64650 | 12.39229 | 185° | 44km/h | 17712m | -9.8m/s | -57.2°C | 4.8% | 83.7hPa | 2.5V | 00:00:00 | 02:16:58 | 00:00:00 | |
| OE5WHR-10 | 2026-09-04 00:48:46 | 47.64657 | 12.39229 | 183° | 37km/h | 17722m | -10.4m/s | -57.1°C | 4.8% | 83.6hPa | 2.5V | 00:00:00 | 00:00:00 | 00:00:00 | |
| BAUMI2-15 | 2026-09-04 00:48:44 | 47.64675 | 12.39228 | 172° | 51km/h | 17743m | -10.3m/s | -57.0°C | 4.7% | 83.3hPa | 2.5V | 08:16:00 | 02:16:55 | 00:00:00 | |
| DF3TZ-5 | 2026-09-04 00:48:43 | 47.64698 | 12.39217 | 152° | 51km/h | 17761m | -8.9m/s | -56.9°C | 1.5% | 83.1hPa | 2.5V | 00:00:00 | 00:00:00 | 00:00:00 | |
| OE5DXL-15 | 2026-09-04 00:48:39 | 47.64726 | 12.39174 | 117° | 35km/h | 17789m | -9.6m/s | -56.9°C | 4.6% | 82.7hPa | 2.5V | 00:00:00 | 00:00:00 | 00:00:00 | |
| OE5MMP-10 | 2026-09-04 00:48:37 | 47.64733 | 12.39139 | 95° | 24km/h | 17809m | -9.9m/s | -56.9°C | 4.6% | 82.4hPa | 2.5V | 00:00:00 | 02:16:48 | 00:00:00 | |
| IN3HCDX | 2026-09-04 00:48:35 | 47.64731 | 12.39112 | 73° | 27km/h | 17828m | -9.4m/s | -56.9°C | 1.5% | 82.2hPa | 2.5V | 08:17:00 | 00:00:00 | 00:00:00 | |
| BAUMI2-15 | 2026-09-04 00:48:34 | 47.64729 | 12.39104 | 62° | 13km/h | 17837m | -9.5m/s | -57.0°C | 4.6% | 82.1hPa | 2.5V | 00:00:00 | 02:16:45 | 00:00:00 | |
| DB0UT-7 | 2026-09-04 00:48:33 | 47.64727 | 12.39099 | 52° | 35km/h | 17847m | -9.2m/s | -57.0°C | 4.6% | 81.9hPa | 2.5V | 00:00:00 | 00:00:00 | 00:00:00 | |
| DG1MFX-10 | 2026-09-04 00:48:31 | 47.64726 | 12.39098 | 0° | 0km/h | 17856m | -9.2m/s | -57.1°C | 1.5% | 81.9hPa | 2.5V | 08:17:00 | 00:00:00 | 00:00:00 | |
| BAUMI2-15 | 2026-09-04 00:48:29 | 47.64738 | 12.39098 | 171° | 44km/h | 17884m | -9.0m/s | -57.1°C | 4.7% | 81.4hPa | 2.5V | 00:00:00 | 02:16:40 | 00:00:00 | |
| OE5MMP-10 | 2026-09-04 00:48:27 | 47.64756 | 12.39087 | 146° | 40km/h | 17903m | -9.4m/s | -57.2°C | 4.7% | 81.2hPa | 2.4V | 00:00:00 | 02:16:38 | 00:00:00 | |
| OE5WHR-10 | 2026-09-04 00:48:25 | 47.64772 | 12.39060 | 121° | 40km/h | 17922m | -9.7m/s | -57.4°C | 4.8% | 81.0hPa | 2.4V | 00:00:00 | 02:16:36 | 00:00:00 | |
| OE5FHM-15 | 2026-09-04 00:48:24 | 47.64778 | 12.39042 | 110° | 35km/h | 17932m | -9.5m/s | -57.4°C | 4.8% | 80.8hPa | 2.4V | 00:00:00 | 02:16:35 | 00:00:00 | |
| DO3MHA-11 | 2026-09-04 00:48:23 | 47.64780 | 12.39024 | 98° | 27km/h | 17941m | -9.2m/s | -57.5°C | 4.8% | 80.7hPa | 2.4V | 00:00:00 | 02:16:34 | 00:00:00 | |
| BAUMI2-15 | 2026-09-04 00:48:19 | 47.64772 | 12.38969 | 54° | 15km/h | 17980m | -9.6m/s | -57.7°C | 4.9% | 80.2hPa | 2.4V | 00:00:00 | 02:16:30 | 00:00:00 | |
| NBG1-10 | 2026-09-04 00:48:18 | 47.64770 | 12.38964 | 52° | 38km/h | 17989m | -9.5m/s | -57.7°C | 4.9% | 80.1hPa | 2.4V | 00:00:00 | 02:16:29 | 00:00:00 | |
| OE5MMP-10 | 2026-09-04 00:48:17 | 47.64769 | 12.38961 | 119° | 38km/h | 17998m | -9.2m/s | -57.7°C | 4.9% | 80.0hPa | 2.4V | 00:00:00 | 02:16:28 | 00:00:00 | |
| DK5PH-5 | 2026-09-04 00:48:16 | 47.64771 | 12.38961 | 176° | 40km/h | 18008m | -9.4m/s | -57.8°C | 4.9% | 79.9hPa | 2.4V | 00:00:00 | 02:16:27 | 00:00:00 | |
| OE5HKT-10 | 2026-09-04 00:48:15 | 47.64775 | 12.38960 | 170° | 27km/h | 18017m | -9.7m/s | -57.9°C | 5.0% | 79.7hPa | 2.4V | 00:00:00 | 02:16:26 | 00:00:00 | |
| IN3HCDX | 2026-09-04 00:48:14 | 47.64782 | 12.38957 | 162° | 33km/h | 18027m | -9.6m/s | -58.0°C | 1.6% | 79.7hPa | 2.4V | 08:17:00 | 00:00:00 | 00:00:00 | |
| DO3MHA-11 | 2026-09-04 00:48:13 | 47.64790 | 12.38951 | 152° | 47km/h | 18037m | -10.0m/s | -58.1°C | 5.1% | 79.5hPa | 2.4V | 00:00:00 | 02:16:24 | 00:00:00 | |
| DG1MFX-10 | 2026-09-04 00:48:11 | 47.64799 | 12.38942 | 143° | 47km/h | 18047m | -9.9m/s | -58.2°C | 1.7% | 79.4hPa | 2.5V | 08:17:00 | 00:00:00 | 00:00:00 | |
| BAUMI2-15 | 2026-09-04 00:48:09 | 47.64824 | 12.38893 | 113° | 49km/h | 18076m | -10.0m/s | -58.2°C | 5.2% | 79.0hPa | 2.5V | 00:00:00 | 02:16:20 | 00:00:00 | |
| OE5DXL-15 | 2026-09-04 00:48:08 | 47.64828 | 12.38873 | 104° | 44km/h | 18087m | -9.8m/s | -57.9°C | 5.1% | 78.9hPa | 2.5V | 00:00:00 | 00:00:00 | 00:00:00 | |
| OE5MMP-10 | 2026-09-04 00:48:07 | 47.64830 | 12.38853 | 96° | 27km/h | 18096m | -9.5m/s | -57.7°C | 5.1% | 78.8hPa | 2.5V | 00:00:00 | 02:16:18 | 00:00:00 | |
| OE5WHR-10 | 2026-09-04 00:48:04 | 47.64828 | 12.38808 | 76° | 40km/h | 18124m | -8.9m/s | -57.4°C | 4.9% | 78.4hPa | 2.5V | 00:00:00 | 00:00:00 | 00:00:00 | |
| DB0UT-7 | 2026-09-04 00:48:03 | 47.64827 | 12.38800 | 80° | 44km/h | 18133m | -9.5m/s | -57.4°C | 4.8% | 78.3hPa | 2.5V | 00:00:00 | 02:16:14 | 00:00:00 | |
| BAUMI2-15 | 2026-09-04 00:47:59 | 47.64835 | 12.38783 | 159° | 42km/h | 18175m | -10.9m/s | -57.4°C | 4.9% | 77.8hPa | 2.5V | 08:17:00 | 02:16:10 | 00:00:00 | |
| OE5MMP-10 | 2026-09-04 00:47:57 | 47.64850 | 12.38775 | 158° | 53km/h | 18195m | -10.5m/s | -57.4°C | 4.8% | 77.5hPa | 2.4V | 00:00:00 | 02:16:08 | 00:00:00 | |
| OE8JPQ-2 | 2026-09-04 00:47:55 | 47.64872 | 12.38756 | 144° | 51km/h | 18216m | -10.3m/s | -57.4°C | 4.9% | 77.3hPa | 2.4V | 00:00:00 | 00:00:00 | 00:00:00 | |
| BAUMI2-15 | 2026-09-04 00:47:54 | 47.64883 | 12.38742 | 136° | 62km/h | 18226m | -9.8m/s | -57.5°C | 4.9% | 77.1hPa | 2.4V | 00:00:00 | 02:16:05 | 00:00:00 | |
| IN3HCDX | 2026-09-04 00:47:53 | 47.64894 | 12.38724 | 127° | 64km/h | 18236m | -9.1m/s | -57.5°C | 1.6% | 77.1hPa | 2.4V | 08:17:00 | 00:00:00 | 00:00:00 | |
| DG1MFX-10 | 2026-09-04 00:47:50 | 47.64907 | 12.38683 | 107° | 60km/h | 18253m | -8.5m/s | -57.5°C | 1.6% | 76.9hPa | 2.4V | 08:17:00 | 00:00:00 | 00:00:00 | |
| OE5MMP-10 | 2026-09-04 00:47:47 | 47.64912 | 12.38613 | 99° | 49km/h | 18292m | -10.4m/s | -57.5°C | 5.0% | 76.4hPa | 2.4V | 00:00:00 | 02:15:58 | 00:00:00 | |
| DK5PH-5 | 2026-09-04 00:47:46 | 47.64915 | 12.38601 | 114° | 44km/h | 18302m | -9.9m/s | -57.5°C | 5.0% | 76.2hPa | 2.4V | 00:00:00 | 02:15:57 | 00:00:00 | |
| NBG1-10 | 2026-09-04 00:47:45 | 47.64919 | 12.38590 | 128° | 46km/h | 18312m | -9.0m/s | -57.5°C | 5.0% | 76.1hPa | 2.4V | 00:00:00 | 02:15:56 | 00:00:00 | |
| DL6DJ-15 | 2026-09-04 00:47:44 | 47.64936 | 12.38568 | 143° | 53km/h | 18328m | -8.4m/s | -57.2°C | 1.5% | 76.0hPa | 2.4V | 00:00:00 | 00:00:00 | 00:00:00 | |
| OE5WHR-10 | 2026-09-04 00:47:43 | 47.64936 | 12.38568 | 144° | 47km/h | 18329m | -8.3m/s | -57.2°C | 4.9% | 75.9hPa | 2.4V | 00:00:00 | 00:00:00 | 00:00:00 | |
| PG1ADW-2 | 2026-09-04 00:47:41 | 47.64984 | 12.38518 | 147° | 44km/h | 18369m | -10.9m/s | -56.8°C | 4.8% | 75.4hPa | 2.4V | 00:00:00 | 02:15:50 | 00:00:00 | |
| OE5MMP-10 | 2026-09-04 00:47:37 | 47.65005 | 12.38496 | 144° | 40km/h | 18390m | -10.2m/s | -56.5°C | 4.6% | 75.2hPa | 2.4V | 00:00:00 | 02:15:48 | 00:00:00 | |
| OE8JPQ-2 | 2026-09-04 00:47:35 | 47.65021 | 12.38474 | 130° | 42km/h | 18410m | -9.0m/s | -56.5°C | 4.6% | 75.0hPa | 2.4V | 00:00:00 | 02:15:46 | 00:00:00 | |
| DB0UT-7 | 2026-09-04 00:47:33 | 47.65031 | 12.38449 | 111° | 42km/h | 18428m | -8.7m/s | -56.6°C | 4.6% | 74.7hPa | 2.4V | 08:17:00 | 00:00:00 | 00:00:00 | |
| IN3HCDX | 2026-09-04 00:47:32 | 47.65034 | 12.38435 | 105° | 40km/h | 18437m | -10.4m/s | -56.7°C | 1.5% | 74.7hPa | 2.4V | 08:18:00 | 00:00:00 | 00:00:00 | |
| DG1MFX-10 | 2026-09-04 00:47:30 | 47.65036 | 12.38421 | 105° | 38km/h | 18448m | -10.7m/s | -56.7°C | 1.5% | 74.6hPa | 2.4V | 08:18:00 | 00:00:00 | 00:00:00 | |
| OE5MMP-10 | 2026-09-04 00:47:27 | 47.65044 | 12.38362 | 97° | 40km/h | 18487m | -9.5m/s | -56.7°C | 4.5% | 74.0hPa | 2.4V | 08:17:00 | 02:15:38 | 00:00:00 | |
| OE5FHM-15 | 2026-09-04 00:47:24 | 47.65046 | 12.38308 | 91° | 42km/h | 18518m | -10.6m/s | -56.6°C | 4.5% | 73.7hPa | 2.4V | 00:00:00 | 02:15:35 | 00:00:00 | |
| DO3MHA-11 | 2026-09-04 00:47:23 | 47.65046 | 12.38290 | 90° | 44km/h | 18528m | -10.5m/s | -56.5°C | 4.4% | 73.6hPa | 2.4V | 00:00:00 | 02:15:34 | 00:00:00 | |
| OE5WHR-10 | 2026-09-04 00:47:22 | 47.65046 | 12.38274 | 90° | 40km/h | 18540m | -11.5m/s | -56.5°C | 4.4% | 73.5hPa | 2.4V | 00:00:00 | 02:15:33 | 00:00:00 | |
| PG1ADW-2 | 2026-09-04 00:47:21 | 47.65049 | 12.38237 | 117° | 40km/h | 18570m | -9.7m/s | -56.7°C | 4.5% | 73.0hPa | 2.4V | 00:00:00 | 00:00:00 | 00:00:00 | |
| OE5MMP-10 | 2026-09-04 00:47:17 | 47.65061 | 12.38216 | 136° | 53km/h | 18589m | -8.8m/s | -56.7°C | 4.5% | 72.8hPa | 2.4V | 00:00:00 | 02:15:28 | 00:00:00 | |
| DK5PH-5 | 2026-09-04 00:47:16 | 47.65070 | 12.38203 | 136° | 44km/h | 18597m | -8.0m/s | -56.8°C | 4.5% | 72.7hPa | 2.4V | 00:00:00 | 02:15:27 | 00:00:00 | |
| DO3MHA-11 | 2026-09-04 00:47:13 | 47.65103 | 12.38156 | 140° | 40km/h | 18626m | -10.2m/s | -56.9°C | 4.5% | 72.4hPa | 2.4V | 00:00:00 | 02:15:24 | 00:00:00 | |
| NBG1-10 | 2026-09-04 00:47:12 | 47.65115 | 12.38142 | 144° | 38km/h | 18636m | -10.2m/s | -57.0°C | 4.5% | 72.3hPa | 2.6V | 00:00:00 | 02:15:23 | 00:00:00 | |
| IN3HCDX | 2026-09-04 00:47:11 | 47.65127 | 12.38130 | 150° | 57km/h | 18646m | -10.5m/s | -57.1°C | 1.4% | 72.2hPa | 2.6V | 08:18:00 | 00:00:00 | 00:00:00 | |
| OE5MMP-10 | 2026-09-04 00:47:07 | 47.65169 | 12.38104 | 163° | 27km/h | 18688m | -9.6m/s | -57.4°C | 4.7% | 71.7hPa | 2.6V | 00:00:00 | 02:15:18 | 00:00:00 | |
| DB0UT-7 | 2026-09-04 00:47:03 | 47.65186 | 12.38088 | 111° | 35km/h | 18728m | -10.7m/s | -57.7°C | 4.8% | 71.3hPa | 2.6V | 00:00:00 | 02:15:14 | 00:00:00 | |
| DF7PN | 2026-09-04 00:47:01 | 47.65189 | 12.38060 | 98° | 33km/h | 18759m | -10.7m/s | -58.0°C | 1.6% | 71.0hPa | 2.6V | 00:00:00 | 00:00:00 | 00:00:00 | |
| OE5MMP-10 | 2026-09-04 00:46:57 | 47.65201 | 12.38016 | 122° | 53km/h | 18789m | -8.9m/s | -58.1°C | 5.1% | 70.6hPa | 2.6V | 00:00:00 | 02:15:08 | 00:00:00 | |
| OE8JPQ-2 | 2026-09-04 00:46:55 | 47.65218 | 12.37984 | 135° | 33km/h | 18807m | -9.1m/s | -58.2°C | 5.1% | 70.4hPa | 2.4V | 00:00:00 | 00:00:00 | 00:00:00 | |
| OE5FHM-15 | 2026-09-04 00:46:54 | 47.65229 | 12.37969 | 139° | 38km/h | 18817m | -10.7m/s | -58.2°C | 5.2% | 70.3hPa | 2.4V | 00:00:00 | 02:15:05 | 00:00:00 | |
| DO3MHA-11 | 2026-09-04 00:46:53 | 47.65240 | 12.37954 | 140° | 40km/h | 18827m | -10.3m/s | -58.1°C | 5.1% | 70.1hPa | 2.4V | 00:00:00 | 02:15:04 | 00:00:00 | |
| IN3HCDX | 2026-09-04 00:46:50 | 47.65274 | 12.37916 | 148° | 51km/h | 18859m | -10.1m/s | -58.2°C | 1.6% | 69.8hPa | 2.4V | 08:19:00 | 00:00:00 | 00:00:00 | |
| DG1MFX-10 | 2026-09-04 00:46:49 | 47.65274 | 12.37916 | 148° | 51km/h | 18859m | -10.1m/s | -58.2°C | 1.6% | 69.8hPa | 2.4V | 08:19:00 | 00:00:00 | 00:00:00 | |
| OE5MMP-10 | 2026-09-04 00:46:47 | 47.65300 | 12.37891 | 141° | 18km/h | 18888m | -9.2m/s | -58.2°C | 5.3% | 69.5hPa | 2.4V | 00:00:00 | 02:14:58 | 00:00:00 | |
| DK5PH-5 | 2026-09-04 00:46:46 | 47.65305 | 12.37884 | 137° | 33km/h | 18898m | -9.5m/s | -58.2°C | 5.3% | 69.3hPa | 2.4V | 00:00:00 | 02:14:57 | 00:00:00 | |
| DO3MHA-11 | 2026-09-04 00:46:43 | 47.65317 | 12.37871 | 158° | 24km/h | 18928m | -9.6m/s | -57.8°C | 5.1% | 69.0hPa | 2.4V | 00:00:00 | 02:14:54 | 00:00:00 | |
| DL6DJ-15 | 2026-09-04 00:46:42 | 47.65323 | 12.37867 | 149° | 13km/h | 18948m | -10.4m/s | -57.6°C | 1.5% | 68.9hPa | 2.4V | 00:00:00 | 00:00:00 | 00:00:00 | |
| PG1ADW-2 | 2026-09-04 00:46:41 | 47.65323 | 12.37867 | 150° | 38km/h | 18949m | -10.4m/s | -57.6°C | 5.0% | 68.8hPa | 2.4V | 00:00:00 | 00:00:00 | 00:00:00 | |
| OE5WHR-10 | 2026-09-04 00:46:40 | 47.65326 | 12.37863 | 133° | 38km/h | 18959m | -10.8m/s | -57.6°C | 5.1% | 68.7hPa | 2.4V | 00:00:00 | 00:00:00 | 00:00:00 | |
| NBG1-10 | 2026-09-04 00:46:39 | 47.65328 | 12.37859 | 121° | 35km/h | 18970m | -10.5m/s | -57.5°C | 5.1% | 68.6hPa | 2.4V | 08:18:00 | 02:14:50 | 00:00:00 | |
| OE5MMP-10 | 2026-09-04 00:46:37 | 47.65334 | 12.37845 | 125° | 44km/h | 18991m | -9.7m/s | -57.6°C | 5.2% | 68.3hPa | 2.4V | 00:00:00 | 02:14:48 | 00:00:00 | |
| OE8JPQ-2 | 2026-09-04 00:46:35 | 47.65344 | 12.37827 | 132° | 40km/h | 19009m | -8.5m/s | -57.3°C | 5.1% | 68.1hPa | 2.4V | 00:00:00 | 02:14:46 | 00:00:00 | |
| DB0UT-7 | 2026-09-04 00:46:33 | 47.65359 | 12.37803 | 136° | 38km/h | 19027m | -10.1m/s | -56.9°C | 5.0% | 68.0hPa | 2.4V | 00:00:00 | 00:00:00 | 00:00:00 | |
| DF7PN | 2026-09-04 00:46:30 | 47.65396 | 12.37750 | 142° | 49km/h | 19070m | -10.7m/s | -56.2°C | 1.4% | 67.6hPa | 2.4V | 00:00:00 | 00:00:00 | 00:00:00 | |
| IN3HCDX | 2026-09-04 00:46:29 | 47.65396 | 12.37750 | 144° | 51km/h | 19070m | -10.7m/s | -56.2°C | 1.4% | 67.6hPa | 2.4V | 08:19:00 | 00:00:00 | 00:00:00 | |
| DG1MFX-10 | 2026-09-04 00:46:28 | 47.65396 | 12.37750 | 144° | 51km/h | 19070m | -10.7m/s | -56.2°C | 1.4% | 67.6hPa | 2.4V | 08:19:00 | 00:00:00 | 00:00:00 | |
| OE5MMP-10 | 2026-09-04 00:46:27 | 47.65418 | 12.37732 | 159° | 37km/h | 19091m | -9.5m/s | -56.0°C | 4.4% | 67.2hPa | 2.4V | 00:00:00 | 02:14:38 | 00:00:00 | |
| OE5FHM-15 | 2026-09-04 00:46:24 | 47.65453 | 12.37721 | 181° | 33km/h | 19121m | -10.4m/s | -56.1°C | 4.4% | 66.9hPa | 2.4V | 00:00:00 | 02:14:35 | 00:00:00 | |
| DO3MHA-11 | 2026-09-04 00:46:23 | 47.65463 | 12.37722 | 188° | 26km/h | 19132m | -9.6m/s | -56.1°C | 4.4% | 66.8hPa | 2.4V | 00:00:00 | 02:14:34 | 00:00:00 | |
| PG1ADW-2 | 2026-09-04 00:46:21 | 47.65479 | 12.37730 | 209° | 33km/h | 19151m | -10.0m/s | -56.3°C | 4.6% | 66.6hPa | 2.4V | 00:00:00 | 02:14:32 | 00:00:00 | |
| DL1ZP-14 | 2026-09-04 00:46:19 | 47.65494 | 12.37747 | 226° | 22km/h | 19181m | -9.7m/s | -55.9°C | 1.3% | 66.3hPa | 2.4V | 00:00:00 | 00:00:00 | 00:00:00 | |
| OE5WHR-10 | 2026-09-04 00:46:18 | 47.65494 | 12.37747 | 227° | 33km/h | 19181m | -9.7m/s | -55.8°C | 4.4% | 66.3hPa | 2.5V | 00:00:00 | 02:14:29 | 00:00:00 | |
| OE5MMP-10 | 2026-09-04 00:46:17 | 47.65498 | 12.37753 | 235° | 29km/h | 19191m | -10.1m/s | -55.8°C | 4.3% | 66.2hPa | 2.5V | 00:00:00 | 02:14:28 | 00:00:00 | |
| DK5PH-5 | 2026-09-04 00:46:16 | 47.65501 | 12.37760 | 240° | 33km/h | 19201m | -9.8m/s | -55.8°C | 4.3% | 66.1hPa | 2.5V | 00:00:00 | 02:14:27 | 00:00:00 | |
| OE8JPQ-2 | 2026-09-04 00:46:15 | 47.65503 | 12.37767 | 246° | 35km/h | 19212m | -9.9m/s | -55.9°C | 4.3% | 66.0hPa | 2.5V | 00:00:00 | 00:00:00 | 00:00:00 | |
| DO3MHA-11 | 2026-09-04 00:46:13 | 47.65508 | 12.37784 | 249° | 38km/h | 19233m | -11.1m/s | -56.0°C | 4.4% | 65.7hPa | 2.4V | 08:19:00 | 02:14:24 | 00:00:00 | |
| DL6DJ-15 | 2026-09-04 00:46:10 | 47.65520 | 12.37813 | 229° | 35km/h | 19266m | -11.1m/s | -56.3°C | 1.4% | 65.5hPa | 2.5V | 00:00:00 | 00:00:00 | 00:00:00 | |
| IN3HCDX | 2026-09-04 00:46:08 | 47.65526 | 12.37823 | 219° | 40km/h | 19278m | -11.1m/s | -56.4°C | 1.4% | 65.3hPa | 2.5V | 08:19:00 | 00:00:00 | 00:00:00 | |
| OE5MMP-10 | 2026-09-04 00:46:07 | 47.65545 | 12.37838 | 197° | 38km/h | 19297m | -10.2m/s | -56.6°C | 4.5% | 65.1hPa | 2.5V | 00:00:00 | 02:14:18 | 00:00:00 | |
| NBG1-10 | 2026-09-04 00:46:06 | 47.65557 | 12.37841 | 188° | 33km/h | 19308m | -10.3m/s | -56.7°C | 4.5% | 65.0hPa | 2.5V | 00:00:00 | 02:14:17 | 00:00:00 | |
| DB0UT-7 | 2026-09-04 00:46:03 | 47.65591 | 12.37836 | 160° | 29km/h | 19340m | -10.2m/s | -56.9°C | 4.7% | 64.6hPa | 2.5V | 00:00:00 | 02:14:14 | 00:00:00 | |
| DF7PN | 2026-09-04 00:45:58 | 47.65626 | 12.37798 | 149° | 18km/h | 19391m | -9.0m/s | -57.3°C | 1.5% | 64.2hPa | 2.6V | 00:00:00 | 00:00:00 | 00:00:00 | |
| OE5MMP-10 | 2026-09-04 00:45:57 | 47.65630 | 12.37797 | 181° | 27km/h | 19400m | -8.8m/s | -57.3°C | 4.9% | 64.0hPa | 2.6V | 08:19:00 | 02:14:08 | 00:00:00 | |
| OE8JPQ-2 | 2026-09-04 00:45:55 | 47.65642 | 12.37802 | 204° | 27km/h | 19419m | -10.3m/s | -57.3°C | 4.9% | 63.9hPa | 2.5V | 00:00:00 | 00:00:00 | 00:00:00 | |
| OE5FHM-15 | 2026-09-04 00:45:54 | 47.65650 | 12.37807 | 201° | 35km/h | 19430m | -11.5m/s | -57.3°C | 4.9% | 63.7hPa | 2.5V | 00:00:00 | 02:14:05 | 00:00:00 | |
| DO3MHA-11 | 2026-09-04 00:45:53 | 47.65658 | 12.37812 | 201° | 27km/h | 19441m | -10.5m/s | -57.3°C | 4.9% | 63.6hPa | 2.5V | 00:00:00 | 02:14:04 | 00:00:00 | |
| IN3HCDX | 2026-09-04 00:45:48 | 47.65690 | 12.37820 | 164° | 24km/h | 19493m | -9.8m/s | -57.3°C | 1.6% | 63.1hPa | 2.5V | 08:19:00 | 00:00:00 | 00:00:00 | |
| OE5MMP-10 | 2026-09-04 00:45:47 | 47.65696 | 12.37816 | 155° | 24km/h | 19504m | -11.5m/s | -57.3°C | 5.0% | 63.0hPa | 2.5V | 00:00:00 | 02:13:58 | 00:00:00 | |
| DK5PH-5 | 2026-09-04 00:45:46 | 47.65702 | 12.37812 | 153° | 33km/h | 19516m | -12.1m/s | -57.3°C | 5.1% | 62.9hPa | 2.5V | 00:00:00 | 02:13:57 | 00:00:00 | |
| OE5DRO-10 | 2026-09-04 00:45:45 | 47.65719 | 12.37793 | 139° | 35km/h | 19552m | -12.1m/s | -57.1°C | 5.0% | 62.5hPa | 2.5V | 00:00:00 | 00:00:00 | 00:00:00 | |
| DO3MHA-11 | 2026-09-04 00:45:43 | 47.65719 | 12.37793 | 139° | 27km/h | 19552m | -12.1m/s | -57.1°C | 5.0% | 62.5hPa | 2.5V | 00:00:00 | 02:13:54 | 00:00:00 | |
| DO8TBO-1 | 2026-09-04 00:45:39 | 47.65736 | 12.37774 | 167° | 38km/h | 19600m | -12.0m/s | -57.0°C | 5.1% | 62.0hPa | 2.4V | 00:00:00 | 02:13:50 | 00:00:00 | |
| BAUMI2-15 | 2026-09-04 00:45:38 | 47.65741 | 12.37773 | 178° | 31km/h | 19613m | -12.1m/s | -56.9°C | 5.0% | 61.9hPa | 2.4V | 00:00:00 | 02:13:49 | 00:00:00 | |
| OE5MMP-10 | 2026-09-04 00:45:37 | 47.65747 | 12.37773 | 189° | 44km/h | 19624m | -10.6m/s | -56.8°C | 5.0% | 61.8hPa | 2.4V | 00:00:00 | 02:13:48 | 00:00:00 | |
| OE5WHR-10 | 2026-09-04 00:45:36 | 47.65755 | 12.37776 | 195° | 37km/h | 19635m | -11.7m/s | -56.8°C | 5.0% | 61.7hPa | 2.4V | 00:00:00 | 00:00:00 | 00:00:00 | |
| OE8JPQ-2 | 2026-09-04 00:45:35 | 47.65763 | 12.37779 | 193° | 37km/h | 19647m | -12.0m/s | -56.8°C | 5.0% | 61.6hPa | 2.4V | 00:00:00 | 02:13:46 | 00:00:00 | |
| DO3MHA-11 | 2026-09-04 00:45:33 | 47.65783 | 12.37784 | 186° | 49km/h | 19669m | -10.9m/s | -56.5°C | 4.9% | 61.4hPa | 2.4V | 00:00:00 | 02:13:44 | 00:00:00 | |
| BAUMI2-15 | 2026-09-04 00:45:28 | 47.65845 | 12.37768 | 152° | 49km/h | 19728m | -12.2m/s | -55.9°C | 4.7% | 60.8hPa | 2.4V | 00:00:00 | 02:13:39 | 00:00:00 | |
| IN3HCDX | 2026-09-04 00:45:27 | 47.65856 | 12.37757 | 142° | 53km/h | 19741m | -12.0m/s | -56.0°C | 1.4% | 60.7hPa | 2.4V | 08:19:00 | 00:00:00 | 00:00:00 | |
| DG1MFX-10 | 2026-09-04 00:45:25 | 47.65866 | 12.37743 | 130° | 53km/h | 19752m | -10.5m/s | -56.0°C | 1.5% | 60.5hPa | 2.4V | 08:19:00 | 00:00:00 | 00:00:00 | |
| OE5FHM-15 | 2026-09-04 00:45:24 | 47.65877 | 12.37711 | 104° | 33km/h | 19774m | -11.3m/s | -55.7°C | 4.7% | 60.3hPa | 2.4V | 00:00:00 | 02:13:35 | 00:00:00 | |
| DO3MHA-11 | 2026-09-04 00:45:23 | 47.65878 | 12.37697 | 92° | 26km/h | 19785m | -11.7m/s | -55.5°C | 4.6% | 60.2hPa | 2.4V | 00:00:00 | 02:13:34 | 00:00:00 | |
| OE5DRO-10 | 2026-09-04 00:45:21 | 47.65873 | 12.37680 | 237° | 33km/h | 19840m | -10.2m/s | -54.8°C | 4.3% | 59.7hPa | 2.4V | 00:00:00 | 00:00:00 | 00:00:00 | |
| BAUMI2-15 | 2026-09-04 00:45:18 | 47.65873 | 12.37680 | 237° | 31km/h | 19840m | -10.2m/s | -54.8°C | 4.3% | 59.7hPa | 2.4V | 00:00:00 | 02:13:29 | 00:00:00 | |
| DK5PH-5 | 2026-09-04 00:45:17 | 47.65884 | 12.37690 | 200° | 33km/h | 19861m | -11.4m/s | -55.0°C | 4.3% | 59.5hPa | 2.4V | 00:00:00 | 02:13:27 | 00:00:00 | |
| OE8JPQ-2 | 2026-09-04 00:45:15 | 47.65893 | 12.37693 | 184° | 37km/h | 19873m | -11.6m/s | -55.0°C | 4.4% | 59.4hPa | 2.4V | 00:00:00 | 00:00:00 | 00:00:00 | |
| DO3MHA-11 | 2026-09-04 00:45:13 | 47.65914 | 12.37687 | 156° | 31km/h | 19895m | -10.6m/s | -55.2°C | 4.5% | 59.2hPa | 2.5V | 00:00:00 | 02:13:24 | 00:00:00 | |
| BAUMI2-15 | 2026-09-04 00:45:08 | 47.65939 | 12.37624 | 93° | 20km/h | 19946m | -11.7m/s | -54.5°C | 4.3% | 58.7hPa | 2.4V | 00:00:00 | 02:13:19 | 00:00:00 | |
| OE5MMP-10 | 2026-09-04 00:45:07 | 47.65940 | 12.37614 | 92° | 33km/h | 19958m | -12.2m/s | -54.4°C | 4.3% | 58.6hPa | 2.4V | 00:00:00 | 02:13:18 | 00:00:00 | |
| IN3HCDX | 2026-09-04 00:45:06 | 47.65940 | 12.37608 | 110° | 15km/h | 19970m | -11.5m/s | -54.4°C | 1.3% | 58.5hPa | 2.4V | 08:20:00 | 00:00:00 | 00:00:00 | |
| DF3TZ-5 | 2026-09-04 00:45:05 | 47.65942 | 12.37604 | 152° | 13km/h | 19981m | -10.1m/s | -54.3°C | 1.3% | 58.4hPa | 2.4V | 00:00:00 | 00:00:00 | 00:00:00 | |
| DG1MFX-10 | 2026-09-04 00:45:04 | 47.65942 | 12.37604 | 154° | 13km/h | 19981m | -10.1m/s | -54.3°C | 1.3% | 58.4hPa | 2.4V | 08:20:00 | 00:00:00 | 00:00:00 | |
| DB0ND-19 | 2026-09-04 00:44:57 | 47.66018 | 12.37626 | 207° | 44km/h | 20068m | -11.8m/s | -54.4°C | 1.2% | 57.6hPa | 2.4V | 00:00:00 | 00:00:00 | 00:00:00 | |
| DF7PN | 2026-09-04 00:44:56 | 47.66027 | 12.37634 | 212° | 40km/h | 20081m | -12.0m/s | -54.5°C | 1.2% | 57.5hPa | 2.4V | 00:00:00 | 00:00:00 | 00:00:00 | |
| DL1ZP-14 | 2026-09-04 00:44:46 | 47.66033 | 12.37680 | 45° | 15km/h | 20209m | -11.9m/s | -54.3°C | 1.2% | 56.3hPa | 2.4V | 00:00:00 | 00:00:00 | 00:00:00 | |
| IN3HCDX | 2026-09-04 00:44:45 | 47.66033 | 12.37680 | 47° | 15km/h | 20210m | -11.9m/s | -54.3°C | 1.2% | 56.3hPa | 2.6V | 08:20:00 | 00:00:00 | 00:00:00 | |
| DG1MFX-10 | 2026-09-04 00:44:44 | 47.66033 | 12.37680 | 47° | 15km/h | 20210m | -11.9m/s | -54.3°C | 1.2% | 56.3hPa | 2.6V | 08:20:00 | 00:00:00 | 00:00:00 | |
| DO3MHA-11 | 2026-09-04 00:44:43 | 47.66030 | 12.37669 | 91° | 24km/h | 20232m | -10.6m/s | -54.5°C | 4.0% | 56.1hPa | 2.6V | 08:20:00 | 02:12:54 | 00:00:00 | |
| OE5DRO-10 | 2026-09-04 00:44:42 | 47.66034 | 12.37655 | 124° | 24km/h | 20254m | -10.9m/s | -54.6°C | 4.0% | 55.9hPa | 2.4V | 08:20:00 | 00:00:00 | 00:00:00 | |
| PG1ADW-2 | 2026-09-04 00:44:41 | 47.66047 | 12.37637 | 150° | 26km/h | 20289m | -11.3m/s | -54.8°C | 4.1% | 55.6hPa | 2.6V | 00:00:00 | 00:00:00 | 00:00:00 | |
| BAUMI2-15 | 2026-09-04 00:44:39 | 47.66047 | 12.37637 | 150° | 27km/h | 20289m | -11.3m/s | -54.8°C | 4.1% | 55.6hPa | 2.6V | 00:00:00 | 02:12:49 | 00:00:00 | |
| OE5MMP-10 | 2026-09-04 00:44:37 | 47.66052 | 12.37633 | 165° | 22km/h | 20300m | -10.9m/s | -54.9°C | 4.1% | 55.5hPa | 2.6V | 00:00:00 | 02:12:48 | 00:00:00 | |
| OE8JPQ-2 | 2026-09-04 00:44:35 | 47.66066 | 12.37633 | 194° | 27km/h | 20323m | -11.8m/s | -55.0°C | 4.1% | 55.3hPa | 2.6V | 00:00:00 | 02:12:46 | 00:00:00 | |
| DB0UT-7 | 2026-09-04 00:44:33 | 47.66079 | 12.37641 | 208° | 31km/h | 20348m | -13.0m/s | -55.2°C | 4.2% | 55.1hPa | 2.6V | 00:00:00 | 00:00:00 | 00:00:00 | |
| BAUMI2-15 | 2026-09-04 00:44:28 | 47.66090 | 12.37661 | 350° | 26km/h | 20408m | -9.7m/s | -55.8°C | 4.3% | 54.6hPa | 2.4V | 08:20:00 | 02:12:39 | 00:00:00 | |
| OE5MMP-10 | 2026-09-04 00:44:27 | 47.66086 | 12.37661 | 13° | 33km/h | 20418m | -10.6m/s | -55.9°C | 4.4% | 54.5hPa | 2.6V | 08:20:00 | 02:12:38 | 00:00:00 | |
| DB0ND-19 | 2026-09-04 00:44:26 | 47.66080 | 12.37657 | 28° | 27km/h | 20429m | -12.1m/s | -56.0°C | 1.3% | 54.5hPa | 2.6V | 00:00:00 | 00:00:00 | 00:00:00 | |
| OE5DRO-10 | 2026-09-04 00:44:24 | 47.66062 | 12.37634 | 55° | 35km/h | 20465m | -11.7m/s | -56.0°C | 4.5% | 54.1hPa | 2.6V | 00:00:00 | 00:00:00 | 00:00:00 | |
| DO3MHA-11 | 2026-09-04 00:44:23 | 47.66062 | 12.37634 | 55° | 35km/h | 20465m | -11.7m/s | -56.0°C | 4.5% | 54.1hPa | 2.6V | 00:00:00 | 02:12:34 | 00:00:00 | |
| PG1ADW-2 | 2026-09-04 00:44:21 | 47.66053 | 12.37584 | 96° | 35km/h | 20511m | -11.1m/s | -56.3°C | 4.6% | 53.7hPa | 2.6V | 00:00:00 | 00:00:00 | 00:00:00 | |
| BAUMI2-15 | 2026-09-04 00:44:18 | 47.66054 | 12.37570 | 108° | 33km/h | 20522m | -10.9m/s | -56.3°C | 4.7% | 53.6hPa | 2.6V | 00:00:00 | 02:12:29 | 00:00:00 | |
| OE5MMP-10 | 2026-09-04 00:44:17 | 47.66058 | 12.37558 | 116° | 33km/h | 20533m | -10.7m/s | -56.3°C | 4.7% | 53.5hPa | 2.6V | 00:00:00 | 02:12:28 | 00:00:00 | |
| DK5PH-5 | 2026-09-04 00:44:16 | 47.66062 | 12.37547 | 125° | 35km/h | 20543m | -10.6m/s | -56.2°C | 4.7% | 53.4hPa | 2.6V | 00:00:00 | 02:12:27 | 00:00:00 | |
| OE8JPQ-2 | 2026-09-04 00:44:15 | 47.66067 | 12.37538 | 133° | 38km/h | 20554m | -10.7m/s | -56.3°C | 4.7% | 53.3hPa | 2.6V | 08:20:00 | 00:00:00 | 00:00:00 | |
| DL1ZP-14 | 2026-09-04 00:44:14 | 47.66073 | 12.37530 | 141° | 29km/h | 20565m | -10.9m/s | -56.4°C | 1.4% | 53.3hPa | 2.5V | 00:00:00 | 00:00:00 | 00:00:00 | |
| DO3MHA-11 | 2026-09-04 00:44:13 | 47.66079 | 12.37523 | 149° | 37km/h | 20576m | -11.0m/s | -56.4°C | 4.7% | 53.2hPa | 2.4V | 00:00:00 | 02:12:24 | 00:00:00 | |
| OE5WHR-10 | 2026-09-04 00:44:12 | 47.66086 | 12.37518 | 152° | 38km/h | 20587m | -11.8m/s | -56.5°C | 4.8% | 53.1hPa | 2.4V | 00:00:00 | 02:12:23 | 00:00:00 | |
| BAUMI2-15 | 2026-09-04 00:44:08 | 47.66116 | 12.37492 | 150° | 38km/h | 20635m | -12.1m/s | -56.3°C | 4.8% | 52.6hPa | 2.4V | 00:00:00 | 02:12:19 | 00:00:00 | |
| OE5MMP-10 | 2026-09-04 00:44:07 | 47.66124 | 12.37485 | 144° | 44km/h | 20647m | -11.7m/s | -56.2°C | 4.8% | 52.5hPa | 2.4V | 00:00:00 | 02:12:18 | 00:00:00 | |
| DL6DJ-15 | 2026-09-04 00:44:06 | 47.66131 | 12.37476 | 134° | 37km/h | 20658m | -12.2m/s | -56.3°C | 1.4% | 52.5hPa | 2.4V | 00:00:00 | 00:00:00 | 00:00:00 | |
| OE5DRO-10 | 2026-09-04 00:44:04 | 47.66143 | 12.37451 | 117° | 35km/h | 20682m | -10.6m/s | -56.3°C | 4.9% | 52.3hPa | 2.4V | 00:00:00 | 00:00:00 | 00:00:00 | |
| IN3HCDX | 2026-09-04 00:44:03 | 47.66147 | 12.37435 | 110° | 49km/h | 20692m | -10.5m/s | -56.3°C | 1.5% | 52.2hPa | 2.4V | 08:21:00 | 00:00:00 | 00:00:00 | |
| DG1MFX-10 | 2026-09-04 00:44:02 | 47.66147 | 12.37435 | 110° | 49km/h | 20692m | -10.5m/s | -56.3°C | 1.5% | 52.2hPa | 2.4V | 08:21:00 | 00:00:00 | 00:00:00 | |
| PG1ADW-2 | 2026-09-04 00:44:01 | 47.66155 | 12.37399 | 109° | 29km/h | 20717m | -12.8m/s | -56.1°C | 4.8% | 52.0hPa | 2.4V | 00:00:00 | 00:00:00 | 00:00:00 | |
| OE5MMP-10 | 2026-09-04 00:43:57 | 47.66177 | 12.37345 | 143° | 29km/h | 20768m | -11.6m/s | -55.6°C | 4.6% | 51.6hPa | 2.4V | 00:00:00 | 02:12:08 | 00:00:00 | |
| OE8JPQ-2 | 2026-09-04 00:43:55 | 47.66192 | 12.37336 | 179° | 24km/h | 20790m | -11.0m/s | -55.4°C | 4.6% | 51.4hPa | 2.4V | 00:00:00 | 00:00:00 | 00:00:00 | |
| OE5FHM-15 | 2026-09-04 00:43:54 | 47.66199 | 12.37337 | 197° | 27km/h | 20802m | -12.1m/s | -55.3°C | 4.5% | 51.3hPa | 2.4V | 00:00:00 | 02:12:05 | 00:00:00 | |
| DO3MHA-11 | 2026-09-04 00:43:53 | 47.66205 | 12.37341 | 208° | 27km/h | 20814m | -12.3m/s | -55.1°C | 4.4% | 51.2hPa | 2.4V | 00:00:00 | 02:12:04 | 00:00:00 | |
| OE5WHR-10 | 2026-09-04 00:43:51 | 47.66217 | 12.37353 | 225° | 24km/h | 20838m | -12.0m/s | -55.0°C | 4.4% | 51.0hPa | 2.4V | 00:00:00 | 00:00:00 | 00:00:00 | |
| OE5MMP-10 | 2026-09-04 00:43:47 | 47.66231 | 12.37389 | 259° | 22km/h | 20888m | -12.2m/s | -54.6°C | 4.2% | 50.6hPa | 2.4V | 00:00:00 | 02:11:58 | 00:00:00 | |
| OE5DRO-10 | 2026-09-04 00:43:46 | 47.66230 | 12.37407 | 294° | 18km/h | 20912m | -11.6m/s | -54.6°C | 4.2% | 50.4hPa | 2.4V | 00:00:00 | 00:00:00 | 00:00:00 | |
| IN3HCDX | 2026-09-04 00:43:42 | 47.66218 | 12.37426 | 331° | 22km/h | 20949m | -12.5m/s | -54.7°C | 1.2% | 50.1hPa | 2.6V | 08:21:00 | 00:00:00 | 00:00:00 | |
| OE5MMP-10 | 2026-09-04 00:43:37 | 47.66200 | 12.37420 | 76° | 18km/h | 21008m | -11.7m/s | -54.6°C | 4.2% | 49.6hPa | 2.6V | 00:00:00 | 02:11:48 | 00:00:00 | |
| OE8JPQ-2 | 2026-09-04 00:43:35 | 47.66199 | 12.37404 | 100° | 18km/h | 21033m | -12.6m/s | -54.5°C | 4.2% | 49.5hPa | 2.6V | 00:00:00 | 02:11:46 | 00:00:00 | |
| DO3MHA-11 | 2026-09-04 00:43:33 | 47.66204 | 12.37386 | 118° | 15km/h | 21058m | -13.2m/s | -54.5°C | 4.1% | 49.2hPa | 2.6V | 00:00:00 | 02:11:44 | 00:00:00 | |
| DF3TZ-5 | 2026-09-04 00:43:32 | 47.66207 | 12.37378 | 120° | 24km/h | 21071m | -13.0m/s | -54.7°C | 1.2% | 49.2hPa | 2.6V | 00:00:00 | 00:00:00 | 00:00:00 | |
| OE5WHR-10 | 2026-09-04 00:43:30 | 47.66213 | 12.37367 | 140° | 18km/h | 21097m | -12.3m/s | -54.7°C | 4.3% | 49.0hPa | 2.6V | 00:00:00 | 00:00:00 | 00:00:00 | |
| OE5DRO-10 | 2026-09-04 00:43:27 | 47.66213 | 12.37377 | 310° | 24km/h | 21156m | -12.0m/s | -55.0°C | 4.3% | 48.5hPa | 2.6V | 00:00:00 | 00:00:00 | 00:00:00 | |
| DB0ND-19 | 2026-09-04 00:43:24 | 47.66211 | 12.37381 | 305° | 15km/h | 21167m | -11.7m/s | -55.0°C | 1.2% | 48.5hPa | 2.6V | 00:00:00 | 00:00:00 | 00:00:00 | |
| DO3MHA-11 | 2026-09-04 00:43:23 | 47.66209 | 12.37386 | 297° | 22km/h | 21180m | -12.0m/s | -55.0°C | 4.3% | 48.3hPa | 2.6V | 00:00:00 | 02:11:34 | 00:00:00 | |
| NBG1-10 | 2026-09-04 00:43:21 | 47.66206 | 12.37401 | 278° | 24km/h | 21204m | -11.6m/s | -55.0°C | 4.3% | 48.1hPa | 2.6V | 00:00:00 | 02:11:32 | 00:00:00 | |
| OE5MMP-10 | 2026-09-04 00:43:17 | 47.66201 | 12.37435 | 302° | 26km/h | 21256m | -12.6m/s | -55.0°C | 4.3% | 47.7hPa | 2.6V | 00:00:00 | 02:11:28 | 00:00:00 | |
| DK5PH-5 | 2026-09-04 00:43:16 | 47.66198 | 12.37441 | 324° | 26km/h | 21269m | -12.3m/s | -55.0°C | 4.4% | 47.6hPa | 2.6V | 00:00:00 | 02:11:27 | 00:00:00 | |
| OE8JPQ-2 | 2026-09-04 00:43:15 | 47.66194 | 12.37444 | 349° | 29km/h | 21281m | -11.8m/s | -55.1°C | 4.3% | 47.5hPa | 2.4V | 00:00:00 | 00:00:00 | 00:00:00 | |
| DO3MHA-11 | 2026-09-04 00:43:13 | 47.66185 | 12.37439 | 43° | 31km/h | 21305m | -12.4m/s | -55.2°C | 4.4% | 47.4hPa | 2.4V | 08:22:00 | 02:11:24 | 00:00:00 | |
| OE5WHR-10 | 2026-09-04 00:43:09 | 47.66177 | 12.37402 | 96° | 27km/h | 21355m | -12.8m/s | -55.0°C | 4.4% | 47.0hPa | 2.4V | 00:00:00 | 02:11:20 | 00:00:00 | |
| OE5DRO-10 | 2026-09-04 00:43:07 | 47.66192 | 12.37358 | 141° | 26km/h | 21408m | -12.4m/s | -54.9°C | 4.3% | 46.6hPa | 2.4V | 00:00:00 | 00:00:00 | 00:00:00 | |
| DL6DJ-15 | 2026-09-04 00:43:05 | 47.66199 | 12.37352 | 157° | 33km/h | 21420m | -13.1m/s | -55.0°C | 1.3% | 46.5hPa | 2.4V | 00:00:00 | 00:00:00 | 00:00:00 | |
| DO3MHA-11 | 2026-09-04 00:43:03 | 47.66207 | 12.37349 | 174° | 27km/h | 21434m | -12.7m/s | -54.9°C | 4.3% | 46.4hPa | 2.4V | 00:00:00 | 02:11:14 | 00:00:00 | |
| DF3TZ-5 | 2026-09-04 00:43:01 | 47.66244 | 12.37391 | 267° | 24km/h | 21525m | -13.1m/s | -54.9°C | 1.2% | 45.8hPa | 2.4V | 00:00:00 | 00:00:00 | 00:00:00 | |
| DB0ND-19 | 2026-09-04 00:42:53 | 47.66239 | 12.37412 | 323° | 15km/h | 21564m | -13.5m/s | -54.9°C | 1.3% | 45.5hPa | 2.4V | 00:00:00 | 00:00:00 | 00:00:00 | |
| DF7PN | 2026-09-04 00:42:52 | 47.66222 | 12.37398 | 61° | 26km/h | 21625m | -12.9m/s | -54.5°C | 1.2% | 45.1hPa | 2.4V | 00:00:00 | 00:00:00 | 00:00:00 | |
| OE5WHR-10 | 2026-09-04 00:42:48 | 47.66221 | 12.37397 | 62° | 26km/h | 21625m | -12.8m/s | -54.4°C | 4.3% | 45.0hPa | 2.4V | 08:22:00 | 00:00:00 | 00:00:00 | |
| OE5MMP-10 | 2026-09-04 00:42:47 | 47.66218 | 12.37389 | 64° | 27km/h | 21638m | -14.2m/s | -54.4°C | 4.3% | 45.0hPa | 2.4V | 00:00:00 | 02:10:58 | 00:00:00 | |
| DK5PH-5 | 2026-09-04 00:42:46 | 47.66215 | 12.37379 | 67° | 22km/h | 21653m | -14.1m/s | -54.4°C | 4.3% | 44.8hPa | 2.4V | 00:00:00 | 02:10:57 | 00:00:00 | |
| DO3MHA-11 | 2026-09-04 00:42:43 | 47.66213 | 12.37349 | 105° | 27km/h | 21695m | -13.1m/s | -54.4°C | 4.3% | 44.5hPa | 2.4V | 00:00:00 | 02:10:54 | 00:00:00 | |
| IN3HCDX | 2026-09-04 00:42:40 | 47.66227 | 12.37331 | 177° | 27km/h | 21731m | -12.4m/s | -54.5°C | 1.2% | 44.3hPa | 2.6V | 08:23:00 | 00:00:00 | 00:00:00 | |
| OE5MMP-10 | 2026-09-04 00:42:37 | 47.66243 | 12.37345 | 238° | 22km/h | 21771m | -12.8m/s | -54.3°C | 4.3% | 44.0hPa | 2.6V | 00:00:00 | 02:10:48 | 00:00:00 | |
| OE5FHM-15 | 2026-09-04 00:42:36 | 47.66246 | 12.37353 | 258° | 16km/h | 21783m | -12.5m/s | -54.3°C | 4.2% | 43.9hPa | 2.6V | 00:00:00 | 02:10:47 | 00:00:00 | |
| OE8JPQ-2 | 2026-09-04 00:42:35 | 47.66246 | 12.37363 | 273° | 20km/h | 21796m | -13.3m/s | -54.3°C | 4.3% | 43.8hPa | 2.4V | 00:00:00 | 02:10:46 | 00:00:00 | |
| DO3MHA-11 | 2026-09-04 00:42:33 | 47.66243 | 12.37383 | 295° | 16km/h | 21823m | -13.7m/s | -54.2°C | 4.2% | 43.7hPa | 2.4V | 00:00:00 | 02:10:44 | 00:00:00 | |
| DB0UT-7 | 2026-09-04 00:42:30 | 47.66233 | 12.37406 | 315° | 22km/h | 21864m | -12.4m/s | -53.9°C | 4.1% | 43.3hPa | 2.4V | 08:22:00 | 02:10:41 | 00:00:00 | |
| OE5WHR-10 | 2026-09-04 00:42:27 | 47.66227 | 12.37409 | 80° | 22km/h | 21900m | -12.3m/s | -53.6°C | 4.0% | 43.1hPa | 2.4V | 00:00:00 | 00:00:00 | 00:00:00 | |
| OE5HKT-10 | 2026-09-04 00:42:24 | 47.66230 | 12.37398 | 120° | 18km/h | 21940m | -13.8m/s | -53.8°C | 4.1% | 42.9hPa | 2.4V | 00:00:00 | 00:00:00 | 00:00:00 | |
| DO3MHA-11 | 2026-09-04 00:42:23 | 47.66231 | 12.37395 | 135° | 26km/h | 21954m | -15.0m/s | -53.8°C | 4.0% | 42.8hPa | 2.4V | 00:00:00 | 02:10:34 | 00:00:00 | |
| DF7PN | 2026-09-04 00:42:21 | 47.66231 | 12.37397 | 292° | 9km/h | 21982m | -13.6m/s | -53.9°C | 1.2% | 42.6hPa | 2.4V | 00:00:00 | 00:00:00 | 00:00:00 | |
| IN3HCDX | 2026-09-04 00:42:19 | 47.66227 | 12.37411 | 298° | 29km/h | 22007m | -10.8m/s | -53.9°C | 1.1% | 42.5hPa | 2.4V | 08:23:00 | 00:00:00 | 00:00:00 | |
| OE5MMP-10 | 2026-09-04 00:42:17 | 47.66218 | 12.37433 | 306° | 29km/h | 22033m | -14.1m/s | -53.5°C | 3.9% | 42.2hPa | 2.4V | 00:00:00 | 02:10:28 | 00:00:00 | |
| DK5PH-5 | 2026-09-04 00:42:16 | 47.66212 | 12.37444 | 314° | 33km/h | 22047m | -14.1m/s | -53.5°C | 3.9% | 42.1hPa | 2.4V | 00:00:00 | 02:10:27 | 00:00:00 | |
| NBG1-10 | 2026-09-04 00:42:15 | 47.66205 | 12.37453 | 322° | 27km/h | 22062m | -14.6m/s | -53.5°C | 3.9% | 42.0hPa | 2.4V | 00:00:00 | 02:10:26 | 00:00:00 | |
| DO3MHA-11 | 2026-09-04 00:42:13 | 47.66189 | 12.37466 | 343° | 22km/h | 22090m | -14.3m/s | -53.7°C | 3.9% | 41.8hPa | 2.4V | 00:00:00 | 02:10:24 | 00:00:00 | |
| DL1ZP-14 | 2026-09-04 00:42:10 | 47.66172 | 12.37463 | 49° | 18km/h | 22128m | -11.8m/s | -54.0°C | 1.2% | 41.6hPa | 2.4V | 00:00:00 | 00:00:00 | 00:00:00 | |
| OE5DRO-10 | 2026-09-04 00:42:09 | 47.66172 | 12.37442 | 110° | 33km/h | 22165m | -12.5m/s | -54.2°C | 4.1% | 41.3hPa | 2.6V | 00:00:00 | 00:00:00 | 00:00:00 | |
| OE5MMP-10 | 2026-09-04 00:42:07 | 47.66172 | 12.37442 | 110° | 27km/h | 22165m | -12.5m/s | -54.2°C | 4.1% | 41.3hPa | 2.6V | 00:00:00 | 02:10:18 | 00:00:00 | |
| OE5FHM-15 | 2026-09-04 00:42:06 | 47.66173 | 12.37435 | 111° | 29km/h | 22178m | -13.0m/s | -54.3°C | 4.1% | 41.3hPa | 2.6V | 00:00:00 | 02:10:17 | 00:00:00 | |
| OE5HKT-10 | 2026-09-04 00:42:03 | 47.66177 | 12.37408 | 86° | 37km/h | 22219m | -13.2m/s | -54.3°C | 4.2% | 41.0hPa | 2.6V | 00:00:00 | 02:10:14 | 00:00:00 | |
| DL6DJ-15 | 2026-09-04 00:42:02 | 47.66175 | 12.37399 | 72° | 26km/h | 22232m | -13.1m/s | -54.4°C | 1.2% | 41.0hPa | 2.6V | 00:00:00 | 00:00:00 | 00:00:00 | |
| DF3TZ-5 | 2026-09-04 00:41:59 | 47.66145 | 12.37359 | 26° | 42km/h | 22294m | -13.2m/s | -54.6°C | 1.2% | 40.6hPa | 2.6V | 00:00:00 | 00:00:00 | 00:00:00 | |
| DF7PN | 2026-09-04 00:41:50 | 47.66104 | 12.37264 | 99° | 44km/h | 22392m | -13.0m/s | -54.6°C | 1.2% | 39.9hPa | 2.6V | 00:00:00 | 00:00:00 | 00:00:00 | |
| BAUMI2-15 | 2026-09-04 00:41:49 | 47.66107 | 12.37249 | 112° | 37km/h | 22405m | -13.0m/s | -54.5°C | 4.3% | 39.8hPa | 2.6V | 00:00:00 | 02:10:00 | 00:00:00 | |
| OE5MMP-10 | 2026-09-04 00:41:47 | 47.66118 | 12.37225 | 138° | 22km/h | 22431m | -13.6m/s | -54.4°C | 4.2% | 39.6hPa | 2.6V | 00:00:00 | 02:09:58 | 00:00:00 | |
| DK5PH-5 | 2026-09-04 00:41:46 | 47.66125 | 12.37217 | 148° | 31km/h | 22446m | -14.8m/s | -54.5°C | 4.2% | 39.6hPa | 2.6V | 00:00:00 | 02:09:57 | 00:00:00 | |
| OE5WHR-10 | 2026-09-04 00:41:45 | 47.66132 | 12.37212 | 158° | 24km/h | 22460m | -14.4m/s | -54.6°C | 4.3% | 39.4hPa | 2.4V | 00:00:00 | 00:00:00 | 00:00:00 | |
| BAUMI2-15 | 2026-09-04 00:41:44 | 47.66138 | 12.37209 | 170° | 15km/h | 22475m | -13.7m/s | -54.6°C | 4.3% | 39.4hPa | 2.4V | 08:23:00 | 02:09:55 | 00:00:00 | |
| DO3MHA-11 | 2026-09-04 00:41:43 | 47.66143 | 12.37208 | 186° | 22km/h | 22488m | -13.1m/s | -54.6°C | 4.3% | 39.3hPa | 2.4V | 08:23:00 | 02:09:54 | 00:00:00 | |
| OE5HKT-10 | 2026-09-04 00:41:42 | 47.66146 | 12.37210 | 220° | 26km/h | 22501m | -13.1m/s | -54.7°C | 4.3% | 39.2hPa | 2.6V | 08:23:00 | 00:00:00 | 00:00:00 | |
| BAUMI2-15 | 2026-09-04 00:41:39 | 47.66141 | 12.37217 | 349° | 27km/h | 22542m | -12.9m/s | -54.7°C | 4.3% | 39.0hPa | 2.4V | 00:00:00 | 02:09:50 | 00:00:00 | |
| DG1MFX-10 | 2026-09-04 00:41:38 | 47.66141 | 12.37217 | 350° | 18km/h | 22542m | -13.0m/s | -54.7°C | 1.3% | 39.0hPa | 2.4V | 08:24:00 | 00:00:00 | 00:00:00 | |
| IN3HCDX | 2026-09-04 00:41:37 | 47.66129 | 12.37217 | 11° | 29km/h | 22569m | -14.7m/s | -54.7°C | 1.2% | 38.9hPa | 2.4V | 08:24:00 | 00:00:00 | 00:00:00 | |
| OE5FHM-15 | 2026-09-04 00:41:36 | 47.66121 | 12.37214 | 15° | 33km/h | 22584m | -14.8m/s | -54.5°C | 4.3% | 38.7hPa | 2.4V | 00:00:00 | 02:09:47 | 00:00:00 | |
| OE8JPQ-2 | 2026-09-04 00:41:35 | 47.66114 | 12.37211 | 20° | 37km/h | 22598m | -14.7m/s | -54.5°C | 4.3% | 38.6hPa | 2.4V | 00:00:00 | 02:09:46 | 00:00:00 | |
| BAUMI2-15 | 2026-09-04 00:41:34 | 47.66106 | 12.37206 | 25° | 20km/h | 22613m | -15.7m/s | -54.4°C | 4.2% | 38.5hPa | 2.4V | 00:00:00 | 02:09:45 | 00:00:00 | |
| DO3MHA-11 | 2026-09-04 00:41:33 | 47.66100 | 12.37202 | 32° | 29km/h | 22629m | -15.0m/s | -54.3°C | 4.3% | 38.4hPa | 2.4V | 00:00:00 | 02:09:44 | 00:00:00 | |
| DL6DJ-15 | 2026-09-04 00:41:31 | 47.66094 | 12.37192 | 71° | 13km/h | 22657m | -13.1m/s | -54.5°C | 1.2% | 38.3hPa | 2.4V | 00:00:00 | 00:00:00 | 00:00:00 | |
| DB0UT-7 | 2026-09-04 00:41:30 | 47.66094 | 12.37187 | 123° | 29km/h | 22670m | -12.5m/s | -54.5°C | 4.3% | 38.2hPa | 2.4V | 00:00:00 | 02:09:41 | 00:00:00 | |
| BAUMI2-15 | 2026-09-04 00:41:29 | 47.66097 | 12.37182 | 146° | 35km/h | 22682m | -12.3m/s | -54.4°C | 4.3% | 38.1hPa | 2.4V | 00:00:00 | 02:09:40 | 00:00:00 | |
| OE5MMP-10 | 2026-09-04 00:41:27 | 47.66111 | 12.37172 | 160° | 46km/h | 22709m | -13.8m/s | -54.2°C | 4.2% | 38.0hPa | 2.6V | 08:23:00 | 02:09:38 | 00:00:00 | |
| OE5WHR-10 | 2026-09-04 00:41:24 | 47.66140 | 12.37152 | 148° | 31km/h | 22751m | -14.9m/s | -54.2°C | 4.2% | 37.7hPa | 2.4V | 00:00:00 | 00:00:00 | 00:00:00 | |
| DO3MHA-11 | 2026-09-04 00:41:23 | 47.66150 | 12.37141 | 141° | 40km/h | 22766m | -15.2m/s | -54.3°C | 4.2% | 37.6hPa | 2.4V | 00:00:00 | 02:09:34 | 00:00:00 | |
| DB0ND-19 | 2026-09-04 00:41:20 | 47.66173 | 12.37096 | 113° | 47km/h | 22814m | -16.0m/s | -54.5°C | 1.2% | 37.3hPa | 2.4V | 00:00:00 | 00:00:00 | 00:00:00 | |
| BAUMI2-15 | 2026-09-04 00:41:19 | 47.66176 | 12.37080 | 101° | 35km/h | 22829m | -15.0m/s | -54.5°C | 4.2% | 37.2hPa | 2.4V | 00:00:00 | 02:09:30 | 00:00:00 | |
| OE5MMP-10 | 2026-09-04 00:41:17 | 47.66175 | 12.37051 | 65° | 26km/h | 22857m | -12.8m/s | -54.4°C | 4.2% | 37.0hPa | 2.4V | 00:00:00 | 02:09:28 | 00:00:00 | |
| DK5PH-5 | 2026-09-04 00:41:16 | 47.66170 | 12.37042 | 36° | 18km/h | 22869m | -12.8m/s | -54.3°C | 4.2% | 37.0hPa | 2.4V | 00:00:00 | 02:09:27 | 00:00:00 | |
| OE8JPQ-2 | 2026-09-04 00:41:15 | 47.66164 | 12.37039 | 360° | 16km/h | 22883m | -14.0m/s | -54.3°C | 4.2% | 36.9hPa | 2.4V | 08:23:00 | 00:00:00 | 00:00:00 | |
| BAUMI2-15 | 2026-09-04 00:41:14 | 47.66159 | 12.37041 | 327° | 24km/h | 22897m | -13.8m/s | -54.2°C | 4.2% | 36.8hPa | 2.4V | 00:00:00 | 02:09:25 | 00:00:00 | |
| DO3MHA-11 | 2026-09-04 00:41:13 | 47.66155 | 12.37047 | 298° | 20km/h | 22911m | -13.3m/s | -54.2°C | 4.1% | 36.7hPa | 2.5V | 00:00:00 | 02:09:24 | 00:00:00 | |
| BAUMI2-15 | 2026-09-04 00:41:09 | 47.66162 | 12.37080 | 213° | 18km/h | 22965m | -13.4m/s | -54.4°C | 4.3% | 36.4hPa | 2.4V | 00:00:00 | 02:09:20 | 00:00:00 | |
| DL1ZP-14 | 2026-09-04 00:41:08 | 47.66166 | 12.37083 | 185° | 16km/h | 22978m | -13.2m/s | -54.5°C | 1.2% | 36.4hPa | 2.4V | 00:00:00 | 00:00:00 | 00:00:00 | |
| OE5MMP-10 | 2026-09-04 00:41:07 | 47.66170 | 12.37082 | 151° | 13km/h | 22991m | -12.4m/s | -54.5°C | 4.3% | 36.3hPa | 2.6V | 00:00:00 | 02:09:18 | 00:00:00 | |
| OE5FHM-15 | 2026-09-04 00:41:06 | 47.66172 | 12.37077 | 108° | 24km/h | 23004m | -12.8m/s | -54.5°C | 4.3% | 36.3hPa | 2.6V | 00:00:00 | 02:09:17 | 00:00:00 | |
| BAUMI2-15 | 2026-09-04 00:41:04 | 47.66170 | 12.37068 | 36° | 15km/h | 23031m | -14.4m/s | -54.5°C | 4.4% | 36.1hPa | 2.6V | 00:00:00 | 02:09:15 | 00:00:00 | |
| OE5WHR-10 | 2026-09-04 00:41:03 | 47.66166 | 12.37066 | 12° | 22km/h | 23046m | -14.4m/s | -54.6°C | 4.4% | 36.0hPa | 2.6V | 00:00:00 | 02:09:14 | 00:00:00 | |
| DL6DJ-15 | 2026-09-04 00:41:00 | 47.66156 | 12.37065 | 356° | 9km/h | 23088m | -13.9m/s | -54.7°C | 1.3% | 35.8hPa | 2.6V | 00:00:00 | 00:00:00 | 00:00:00 | |
| DB0ND-19 | 2026-09-04 00:40:49 | 47.66111 | 12.37055 | 52° | 20km/h | 23255m | -15.8m/s | -54.0°C | 1.3% | 34.9hPa | 2.6V | 00:00:00 | 00:00:00 | 00:00:00 | |
| DF7PN | 2026-09-04 00:40:48 | 47.66109 | 12.37041 | 109° | 20km/h | 23284m | -13.3m/s | -53.9°C | 1.3% | 34.7hPa | 2.6V | 00:00:00 | 00:00:00 | 00:00:00 | |
| OE5MMP-10 | 2026-09-04 00:40:47 | 47.66109 | 12.37041 | 110° | 37km/h | 23284m | -13.2m/s | -53.8°C | 4.5% | 34.6hPa | 2.6V | 00:00:00 | 02:08:58 | 00:00:00 | |
| DK5PH-5 | 2026-09-04 00:40:46 | 47.66113 | 12.37034 | 132° | 38km/h | 23297m | -12.6m/s | -53.8°C | 4.4% | 34.6hPa | 2.6V | 00:00:00 | 02:08:57 | 00:00:00 | |
| BAUMI2-15 | 2026-09-04 00:40:44 | 47.66127 | 12.37016 | 145° | 44km/h | 23325m | -15.5m/s | -53.6°C | 4.3% | 34.4hPa | 2.6V | 00:00:00 | 02:08:55 | 00:00:00 | |
| DO3MHA-11 | 2026-09-04 00:40:43 | 47.66136 | 12.37006 | 143° | 35km/h | 23341m | -16.0m/s | -53.4°C | 4.2% | 34.4hPa | 2.4V | 00:00:00 | 02:08:54 | 00:00:00 | |
| OE5WHR-10 | 2026-09-04 00:40:42 | 47.66145 | 12.36995 | 140° | 38km/h | 23357m | -16.6m/s | -53.2°C | 4.1% | 34.2hPa | 2.4V | 00:00:00 | 00:00:00 | 00:00:00 | |
| BAUMI2-15 | 2026-09-04 00:40:39 | 47.66163 | 12.36960 | 108° | 29km/h | 23407m | -15.2m/s | -52.9°C | 4.1% | 34.0hPa | 2.4V | 00:00:00 | 02:08:50 | 00:00:00 | |
| DG1MFX-10 | 2026-09-04 00:40:37 | 47.66162 | 12.36937 | 63° | 27km/h | 23437m | -15.4m/s | -52.7°C | 1.1% | 33.9hPa | 2.4V | 08:25:00 | 00:00:00 | 00:00:00 | |
| OE5FHM-15 | 2026-09-04 00:40:36 | 47.66158 | 12.36930 | 38° | 38km/h | 23453m | -16.7m/s | -52.5°C | 4.0% | 33.7hPa | 2.4V | 00:00:00 | 02:08:47 | 00:00:00 | |
| OE8JPQ-2 | 2026-09-04 00:40:35 | 47.66152 | 12.36925 | 18° | 38km/h | 23470m | -16.3m/s | -52.5°C | 3.9% | 33.6hPa | 2.4V | 00:00:00 | 02:08:46 | 00:00:00 | |
| BAUMI2-15 | 2026-09-04 00:40:34 | 47.66146 | 12.36925 | 355° | 29km/h | 23486m | -15.6m/s | -52.4°C | 4.0% | 33.6hPa | 2.4V | 00:00:00 | 02:08:45 | 00:00:00 | |
| DO3MHA-11 | 2026-09-04 00:40:33 | 47.66139 | 12.36928 | 331° | 40km/h | 23502m | -15.7m/s | -52.4°C | 4.0% | 33.4hPa | 2.4V | 00:00:00 | 02:08:44 | 00:00:00 | |
| DB0UT-7 | 2026-09-04 00:40:30 | 47.66129 | 12.36956 | 271° | 42km/h | 23551m | -15.9m/s | -52.1°C | 3.9% | 33.2hPa | 2.4V | 00:00:00 | 02:08:41 | 00:00:00 | |
| BAUMI2-15 | 2026-09-04 00:40:29 | 47.66131 | 12.36969 | 254° | 44km/h | 23566m | -14.7m/s | -52.1°C | 3.9% | 33.1hPa | 2.4V | 00:00:00 | 02:08:40 | 00:00:00 | |
| OE5MMP-10 | 2026-09-04 00:40:27 | 47.66142 | 12.36995 | 222° | 47km/h | 23596m | -15.4m/s | -52.0°C | 3.8% | 33.0hPa | 2.6V | 00:00:00 | 02:08:38 | 00:00:00 | |
| BAUMI2-15 | 2026-09-04 00:40:24 | 47.66176 | 12.37015 | 185° | 51km/h | 23645m | -15.9m/s | -51.9°C | 3.8% | 32.7hPa | 2.6V | 00:00:00 | 02:08:35 | 00:00:00 | |
| DO3MHA-11 | 2026-09-04 00:40:23 | 47.66189 | 12.37014 | 172° | 37km/h | 23661m | -15.7m/s | -52.0°C | 3.8% | 32.7hPa | 2.6V | 00:00:00 | 02:08:34 | 00:00:00 | |
| OE5WHR-10 | 2026-09-04 00:40:21 | 47.66213 | 12.37000 | 145° | 40km/h | 23693m | -16.8m/s | -51.9°C | 3.8% | 32.5hPa | 2.6V | 00:00:00 | 00:00:00 | 00:00:00 | |
| OE5DRO-10 | 2026-09-04 00:40:20 | 47.66229 | 12.36976 | 121° | 37km/h | 23727m | -16.6m/s | -51.9°C | 3.8% | 32.3hPa | 2.6V | 00:00:00 | 00:00:00 | 00:00:00 | |
| BAUMI2-15 | 2026-09-04 00:40:19 | 47.66229 | 12.36976 | 121° | 27km/h | 23727m | -16.6m/s | -51.9°C | 3.8% | 32.3hPa | 2.6V | 00:00:00 | 02:08:30 | 00:00:00 | |
| DB0ND-19 | 2026-09-04 00:40:18 | 47.66232 | 12.36963 | 104° | 33km/h | 23743m | -15.0m/s | -51.9°C | 1.0% | 32.3hPa | 2.6V | 00:00:00 | 00:00:00 | 00:00:00 | |
| DF7PN | 2026-09-04 00:40:17 | 47.66231 | 12.36945 | 46° | 18km/h | 23774m | -16.0m/s | -52.0°C | 1.0% | 32.1hPa | 2.6V | 00:00:00 | 00:00:00 | 00:00:00 | |
| DK5PH-5 | 2026-09-04 00:40:16 | 47.66230 | 12.36945 | 47° | 33km/h | 23774m | -15.9m/s | -52.0°C | 3.8% | 32.1hPa | 2.6V | 08:24:00 | 02:08:27 | 00:00:00 | |
| OE8JPQ-2 | 2026-09-04 00:40:15 | 47.66227 | 12.36942 | 5° | 35km/h | 23791m | -17.1m/s | -51.9°C | 3.8% | 32.0hPa | 2.6V | 00:00:00 | 00:00:00 | 00:00:00 | |
| IN3HCDX | 2026-09-04 00:40:14 | 47.66222 | 12.36943 | 331° | 22km/h | 23808m | -17.3m/s | -52.0°C | 1.1% | 31.9hPa | 2.4V | 08:25:00 | 00:00:00 | 00:00:00 | |
| DO3MHA-11 | 2026-09-04 00:40:13 | 47.66217 | 12.36950 | 305° | 49km/h | 23825m | -17.3m/s | -51.9°C | 3.8% | 31.8hPa | 2.4V | 08:25:00 | 02:08:24 | 00:00:00 | |
| BAUMI2-15 | 2026-09-04 00:40:09 | 47.66223 | 12.37010 | 232° | 53km/h | 23891m | -14.4m/s | -51.9°C | 3.8% | 31.5hPa | 2.4V | 00:00:00 | 02:08:20 | 00:00:00 | |
| OE5MMP-10 | 2026-09-04 00:40:07 | 47.66246 | 12.37032 | 196° | 35km/h | 23918m | -13.1m/s | -52.0°C | 3.8% | 31.3hPa | 2.4V | 00:00:00 | 02:08:18 | 00:00:00 | |
| OE5FHM-15 | 2026-09-04 00:40:06 | 47.66260 | 12.37035 | 178° | 26km/h | 23932m | -14.4m/s | -52.0°C | 3.8% | 31.3hPa | 2.4V | 00:00:00 | 02:08:17 | 00:00:00 | |
| OE5DXL-15 | 2026-09-04 00:40:05 | 47.66274 | 12.37031 | 162° | 24km/h | 23947m | -16.5m/s | -52.1°C | 3.9% | 31.3hPa | 2.4V | 00:00:00 | 00:00:00 | 00:00:00 | |
| DO3MHA-11 | 2026-09-04 00:40:03 | 47.66295 | 12.37015 | 140° | 31km/h | 23982m | -17.8m/s | -52.1°C | 3.9% | 31.0hPa | 2.4V | 00:00:00 | 02:08:14 | 00:00:00 | |
| DL6DJ-15 | 2026-09-04 00:39:58 | 47.66301 | 12.37018 | 279° | 40km/h | 24069m | -13.8m/s | -51.9°C | 1.0% | 30.7hPa | 2.4V | 00:00:00 | 00:00:00 | 00:00:00 | |
| DF3TZ-5 | 2026-09-04 00:39:55 | 47.66296 | 12.37067 | 281° | 42km/h | 24116m | -16.9m/s | -51.7°C | 1.0% | 30.4hPa | 2.4V | 00:00:00 | 00:00:00 | 00:00:00 | |
| DB0ND-19 | 2026-09-04 00:39:47 | 47.66273 | 12.37100 | 105° | 9km/h | 24258m | -15.6m/s | -51.4°C | 1.0% | 29.8hPa | 2.4V | 00:00:00 | 00:00:00 | 00:00:00 | |
| DF7PN | 2026-09-04 00:39:46 | 47.66273 | 12.37100 | 105° | 9km/h | 24258m | -15.6m/s | -51.4°C | 1.0% | 29.8hPa | 2.4V | 00:00:00 | 00:00:00 | 00:00:00 | |
| DO3MHA-11 | 2026-09-04 00:39:43 | 47.66275 | 12.37090 | 105° | 18km/h | 24290m | -17.0m/s | -51.2°C | 3.5% | 29.6hPa | 2.4V | 00:00:00 | 02:07:54 | 00:00:00 | |
| PETON7-10 | 2026-09-04 00:39:41 | 47.66275 | 12.37080 | 76° | 18km/h | 24324m | -16.9m/s | -51.4°C | 3.6% | 29.4hPa | 2.4V | 00:00:00 | 00:00:00 | 00:00:00 | |
| OE5WHR-10 | 2026-09-04 00:39:39 | 47.66270 | 12.37071 | 30° | 18km/h | 24357m | -15.4m/s | -51.6°C | 3.6% | 29.3hPa | 2.4V | 08:25:00 | 00:00:00 | 00:00:00 | |
| OE5MMP-10 | 2026-09-04 00:39:37 | 47.66261 | 12.37068 | 1° | 18km/h | 24389m | -15.7m/s | -51.7°C | 3.7% | 29.1hPa | 2.6V | 00:00:00 | 02:07:48 | 00:00:00 | |
| OE5FHM-15 | 2026-09-04 00:39:36 | 47.66256 | 12.37068 | 352° | 18km/h | 24404m | -16.3m/s | -51.7°C | 3.7% | 29.1hPa | 2.6V | 08:25:00 | 02:07:47 | 00:00:00 | |
| OE8JPQ-2 | 2026-09-04 00:39:35 | 47.66251 | 12.37070 | 344° | 18km/h | 24421m | -16.3m/s | -51.8°C | 3.7% | 29.0hPa | 2.6V | 00:00:00 | 02:07:46 | 00:00:00 | |
| DO3MHA-11 | 2026-09-04 00:39:33 | 47.66240 | 12.37077 | 333° | 16km/h | 24453m | -16.7m/s | -51.9°C | 3.7% | 28.9hPa | 2.6V | 00:00:00 | 02:07:44 | 00:00:00 | |
| IN3HCDX | 2026-09-04 00:39:32 | 47.66235 | 12.37081 | 330° | 24km/h | 24470m | -17.7m/s | -51.9°C | 1.0% | 28.8hPa | 2.6V | 08:25:00 | 00:00:00 | 00:00:00 | |
| DB0UT-7 | 2026-09-04 00:39:30 | 47.66227 | 12.37088 | 333° | 18km/h | 24505m | -17.0m/s | -52.0°C | 3.8% | 28.6hPa | 2.6V | 00:00:00 | 02:07:41 | 00:00:00 | |
| OE5MMP-10 | 2026-09-04 00:39:27 | 47.66226 | 12.37085 | 125° | 16km/h | 24552m | -15.2m/s | -52.1°C | 3.8% | 28.4hPa | 2.4V | 00:00:00 | 02:07:38 | 00:00:00 | |
| DF3TZ-5 | 2026-09-04 00:39:24 | 47.66238 | 12.37059 | 116° | 22km/h | 24620m | -18.7m/s | -52.2°C | 1.1% | 28.1hPa | 2.4V | 00:00:00 | 00:00:00 | 00:00:00 | |
| PETON7-10 | 2026-09-04 00:39:23 | 47.66238 | 12.37059 | 117° | 18km/h | 24620m | -18.7m/s | -52.1°C | 3.8% | 28.1hPa | 2.4V | 00:00:00 | 02:07:34 | 00:00:00 | |
| OE5WHR-10 | 2026-09-04 00:39:18 | 47.66237 | 12.37042 | 322° | 22km/h | 24706m | -15.0m/s | -52.6°C | 4.1% | 27.7hPa | 2.4V | 00:00:00 | 00:00:00 | 00:00:00 | |
| OE5MMP-10 | 2026-09-04 00:39:17 | 47.66233 | 12.37047 | 311° | 20km/h | 24722m | -17.0m/s | -52.6°C | 4.1% | 27.7hPa | 2.4V | 00:00:00 | 02:07:28 | 00:00:00 | |
| DK5PH-5 | 2026-09-04 00:39:16 | 47.66228 | 12.37056 | 306° | 26km/h | 24739m | -18.0m/s | -52.5°C | 4.2% | 27.6hPa | 2.4V | 00:00:00 | 02:07:27 | 00:00:00 | |
| OE8JPQ-2 | 2026-09-04 00:39:15 | 47.66224 | 12.37066 | 308° | 24km/h | 24758m | -19.3m/s | -52.4°C | 4.1% | 27.5hPa | 2.4V | 00:00:00 | 00:00:00 | 00:00:00 | |
| DG1MFX-10 | 2026-09-04 00:39:14 | 47.66224 | 12.37066 | 308° | 33km/h | 24758m | -19.4m/s | -52.4°C | 1.1% | 27.6hPa | 2.6V | 08:26:00 | 00:00:00 | 00:00:00 | |
| DO3MHA-11 | 2026-09-04 00:39:13 | 47.66215 | 12.37084 | 301° | 13km/h | 24798m | -19.5m/s | -52.2°C | 4.1% | 27.3hPa | 2.6V | 00:00:00 | 02:07:24 | 00:00:00 | |
| IN3HCDX | 2026-09-04 00:39:11 | 47.66210 | 12.37093 | 326° | 7km/h | 24833m | -16.9m/s | -52.2°C | 1.1% | 27.2hPa | 2.6V | 08:26:00 | 00:00:00 | 00:00:00 | |
| PETON7-10 | 2026-09-04 00:39:07 | 47.66210 | 12.37080 | 83° | 27km/h | 24907m | -20.7m/s | -51.9°C | 3.9% | 26.9hPa | 2.6V | 00:00:00 | 00:00:00 | 00:00:00 | |
| OE5FHM-15 | 2026-09-04 00:39:06 | 47.66209 | 12.37076 | 66° | 31km/h | 24927m | -20.3m/s | -51.9°C | 3.9% | 26.8hPa | 2.6V | 00:00:00 | 02:07:17 | 00:00:00 | |
| OE5DXL-15 | 2026-09-04 00:39:05 | 47.66207 | 12.37073 | 32° | 33km/h | 24948m | -19.7m/s | -51.8°C | 3.9% | 26.7hPa | 2.6V | 00:00:00 | 00:00:00 | 00:00:00 | |
| DL1ZP-14 | 2026-09-04 00:39:04 | 47.66198 | 12.37071 | 353° | 24km/h | 24986m | -18.6m/s | -51.6°C | 1.1% | 26.6hPa | 2.4V | 00:00:00 | 00:00:00 | 00:00:00 | |
| DL6DJ-15 | 2026-09-04 00:38:56 | 47.66127 | 12.37080 | 20° | 29km/h | 25134m | -19.1m/s | -51.0°C | 1.0% | 26.0hPa | 2.4V | 00:00:00 | 00:00:00 | 00:00:00 | |
| DF3TZ-5 | 2026-09-04 00:38:53 | 47.66118 | 12.37064 | 117° | 18km/h | 25182m | -14.3m/s | -51.1°C | 1.0% | 25.7hPa | 2.4V | 00:00:00 | 00:00:00 | 00:00:00 | |
| PETON7-10 | 2026-09-04 00:38:52 | 47.66118 | 12.37064 | 118° | 33km/h | 25182m | -14.3m/s | -51.1°C | 3.8% | 25.7hPa | 2.4V | 00:00:00 | 00:00:00 | 00:00:00 | |
| NBG1-10 | 2026-09-04 00:38:51 | 47.66121 | 12.37058 | 143° | 35km/h | 25197m | -16.3m/s | -51.0°C | 3.7% | 25.6hPa | 2.4V | 00:00:00 | 02:07:02 | 00:00:00 | |
| IN3HCDX | 2026-09-04 00:38:50 | 47.66122 | 12.37058 | 144° | 29km/h | 25197m | -16.3m/s | -51.0°C | 1.0% | 25.7hPa | 2.4V | 08:26:00 | 00:00:00 | 00:00:00 | |
| OE5MMP-10 | 2026-09-04 00:38:47 | 47.66155 | 12.37040 | 177° | 33km/h | 25268m | -18.3m/s | -50.4°C | 3.6% | 25.4hPa | 2.4V | 00:00:00 | 02:06:58 | 00:00:00 | |
| DK5PH-5 | 2026-09-04 00:38:46 | 47.66164 | 12.37040 | 191° | 33km/h | 25287m | -18.6m/s | -50.3°C | 3.5% | 25.3hPa | 2.4V | 00:00:00 | 02:06:57 | 00:00:00 | |
| DF7PN | 2026-09-04 00:38:44 | 47.66187 | 12.37061 | 234° | 31km/h | 25342m | -18.3m/s | -50.4°C | 0.9% | 25.1hPa | 2.6V | 00:00:00 | 00:00:00 | 00:00:00 | |
| DO3MHA-11 | 2026-09-04 00:38:43 | 47.66187 | 12.37061 | 235° | 37km/h | 25342m | -18.3m/s | -50.4°C | 3.5% | 25.0hPa | 2.6V | 08:26:00 | 02:06:54 | 00:00:00 | |
| OE5MMP-10 | 2026-09-04 00:38:37 | 47.66163 | 12.37102 | 4° | 33km/h | 25441m | -16.8m/s | -50.4°C | 3.5% | 24.7hPa | 2.6V | 00:00:00 | 02:06:48 | 00:00:00 | |
| OE5WHR-10 | 2026-09-04 00:38:36 | 47.66152 | 12.37100 | 12° | 31km/h | 25458m | -18.2m/s | -50.4°C | 3.6% | 24.6hPa | 2.6V | 00:00:00 | 00:00:00 | 00:00:00 | |
| OE8JPQ-2 | 2026-09-04 00:38:35 | 47.66140 | 12.37096 | 18° | 31km/h | 25477m | -19.1m/s | -50.5°C | 3.6% | 24.5hPa | 2.4V | 00:00:00 | 02:06:46 | 00:00:00 | |
| OE5DXL-15 | 2026-09-04 00:38:34 | 47.66129 | 12.37090 | 23° | 29km/h | 25496m | -19.7m/s | -50.5°C | 3.6% | 24.5hPa | 2.4V | 00:00:00 | 00:00:00 | 00:00:00 | |
| DO3MHA-11 | 2026-09-04 00:38:33 | 47.66118 | 12.37082 | 29° | 29km/h | 25516m | -20.7m/s | -50.6°C | 3.6% | 24.4hPa | 2.4V | 00:00:00 | 02:06:44 | 00:00:00 | |
| DG1MFX-10 | 2026-09-04 00:38:32 | 47.66118 | 12.37082 | 29° | 42km/h | 25516m | -20.7m/s | -50.6°C | 1.0% | 24.4hPa | 2.4V | 08:26:00 | 00:00:00 | 00:00:00 | |
| DB0UT-7 | 2026-09-04 00:38:30 | 47.66100 | 12.37065 | 45° | 31km/h | 25573m | -16.0m/s | -50.6°C | 3.7% | 24.1hPa | 2.4V | 00:00:00 | 02:06:41 | 00:00:00 | |
| IN3HCDX | 2026-09-04 00:38:29 | 47.66100 | 12.37065 | 45° | 11km/h | 25573m | -16.1m/s | -50.7°C | 1.0% | 24.2hPa | 2.4V | 08:26:00 | 00:00:00 | 00:00:00 | |
| OE5MMP-10 | 2026-09-04 00:38:27 | 47.66106 | 12.37074 | 228° | 35km/h | 25615m | -16.0m/s | -50.7°C | 3.7% | 24.0hPa | 2.4V | 08:26:00 | 02:06:38 | 00:00:00 | |
| DL6DJ-15 | 2026-09-04 00:38:25 | 47.66121 | 12.37114 | 258° | 42km/h | 25669m | -17.6m/s | -50.7°C | 1.0% | 23.8hPa | 2.4V | 00:00:00 | 00:00:00 | 00:00:00 | |
| DO3MHA-11 | 2026-09-04 00:38:24 | 47.66121 | 12.37130 | 274° | 27km/h | 25687m | -18.1m/s | -50.7°C | 3.7% | 23.8hPa | 2.4V | 00:00:00 | 02:06:34 | 00:00:00 | |
| PETON7-10 | 2026-09-04 00:38:22 | 47.66119 | 12.37145 | 289° | 29km/h | 25706m | -19.1m/s | -50.6°C | 3.8% | 23.7hPa | 2.4V | 00:00:00 | 00:00:00 | 00:00:00 | |
| BIOWL1-15 | 2026-09-04 00:38:02 | 47.66079 | 12.37107 | 334° | 46km/h | 26066m | -20.3m/s | 0°C | 0% | 0hPa | 2.5V | 18:12:15 | 02:06:13 | 00:00:00 | |
| DL1ZP-14 | 2026-09-04 00:38:02 | 47.66069 | 12.37113 | 340° | 44km/h | 26087m | -20.6m/s | -49.5°C | 1.0% | 22.3hPa | 2.6V | 00:00:00 | 00:00:00 | 00:00:00 | |
| DB0UT-7 | 2026-09-04 00:38:00 | 47.66058 | 12.37117 | 350° | 38km/h | 26107m | -20.0m/s | -49.4°C | 3.6% | 22.2hPa | 2.6V | 08:27:00 | 00:00:00 | 00:00:00 | |
| OE5MMP-10 | 2026-09-04 00:37:57 | 47.66038 | 12.37112 | 63° | 26km/h | 26162m | -17.7m/s | -49.1°C | 3.5% | 22.0hPa | 2.5V | 00:00:00 | 02:06:08 | 00:00:00 | |
| OE8JPQ-2 | 2026-09-04 00:37:55 | 47.66039 | 12.37098 | 126° | 40km/h | 26197m | -18.3m/s | -49.0°C | 3.5% | 21.9hPa | 2.5V | 00:00:00 | 00:00:00 | 00:00:00 | |
| OE5WHR-10 | 2026-09-04 00:37:54 | 47.66043 | 12.37093 | 144° | 40km/h | 26215m | -17.4m/s | -49.0°C | 3.5% | 21.8hPa | 2.5V | 00:00:00 | 02:06:05 | 00:00:00 | |
| PETON7-10 | 2026-09-04 00:37:52 | 47.66054 | 12.37083 | 152° | 42km/h | 26248m | -16.5m/s | -49.0°C | 3.5% | 21.7hPa | 2.5V | 00:00:00 | 02:06:03 | 00:00:00 | |
| OE5DRO-10 | 2026-09-04 00:37:51 | 47.66067 | 12.37073 | 147° | 44km/h | 26281m | -17.9m/s | -48.9°C | 3.5% | 21.6hPa | 2.5V | 00:00:00 | 00:00:00 | 00:00:00 | |
| OE5MMP-10 | 2026-09-04 00:37:47 | 47.66087 | 12.37045 | 124° | 47km/h | 26334m | -18.7m/s | -48.7°C | 3.5% | 21.4hPa | 2.5V | 00:00:00 | 02:05:58 | 00:00:00 | |
| DK5PH-5 | 2026-09-04 00:37:46 | 47.66092 | 12.37031 | 113° | 49km/h | 26352m | -18.8m/s | -48.5°C | 3.4% | 21.3hPa | 2.5V | 00:00:00 | 02:05:57 | 00:00:00 | |
| NBG1-10 | 2026-09-04 00:37:45 | 47.66095 | 12.37016 | 105° | 47km/h | 26371m | -18.5m/s | -48.1°C | 3.3% | 21.3hPa | 2.5V | 00:00:00 | 02:05:56 | 00:00:00 | |
| DO3MHA-11 | 2026-09-04 00:37:43 | 47.66096 | 12.36982 | 87° | 47km/h | 26408m | -18.9m/s | -47.8°C | 3.2% | 21.2hPa | 2.5V | 00:00:00 | 02:05:54 | 00:00:00 | |
| BAUMI2-15 | 2026-09-04 00:37:41 | 47.66090 | 12.36947 | 64° | 49km/h | 26446m | -18.6m/s | -47.8°C | 3.2% | 21.1hPa | 2.6V | 00:00:00 | 02:05:52 | 00:00:00 | |
| OE5MMP-10 | 2026-09-04 00:37:37 | 47.66052 | 12.36902 | 12° | 44km/h | 26521m | -20.7m/s | -47.8°C | 3.2% | 20.8hPa | 2.4V | 00:00:00 | 02:05:48 | 00:00:00 | |
| OE5FHM-15 | 2026-09-04 00:37:36 | 47.66040 | 12.36901 | 357° | 51km/h | 26541m | -20.8m/s | -47.8°C | 3.2% | 20.7hPa | 2.4V | 00:00:00 | 02:05:47 | 00:00:00 | |
| OE5WHR-10 | 2026-09-04 00:37:33 | 47.66015 | 12.36925 | 293° | 49km/h | 26601m | -19.7m/s | -47.8°C | 3.2% | 20.5hPa | 2.4V | 00:00:00 | 00:00:00 | 00:00:00 | |
| OE5DRO-10 | 2026-09-04 00:37:32 | 47.66013 | 12.36941 | 270° | 51km/h | 26621m | -21.0m/s | -47.8°C | 3.2% | 20.5hPa | 2.5V | 00:00:00 | 00:00:00 | 00:00:00 | |
| BAUMI2-15 | 2026-09-04 00:37:31 | 47.66015 | 12.36957 | 251° | 46km/h | 26641m | -22.3m/s | -47.8°C | 3.2% | 20.4hPa | 2.4V | 00:00:00 | 02:05:42 | 00:00:00 | |
| DB0UT-7 | 2026-09-04 00:37:30 | 47.66021 | 12.36971 | 228° | 53km/h | 26663m | -21.7m/s | -47.7°C | 3.2% | 20.3hPa | 2.4V | 00:00:00 | 02:05:41 | 00:00:00 | |
| OE5MMP-10 | 2026-09-04 00:37:27 | 47.66053 | 12.36980 | 158° | 57km/h | 26723m | -20.2m/s | -47.8°C | 3.2% | 20.2hPa | 2.4V | 00:00:00 | 02:05:38 | 00:00:00 | |
| BAUMI2-15 | 2026-09-04 00:37:26 | 47.66062 | 12.36970 | 130° | 55km/h | 26743m | -19.3m/s | -47.8°C | 3.3% | 20.1hPa | 2.5V | 08:27:00 | 02:05:37 | 00:00:00 | |
| DO3MHA-11 | 2026-09-04 00:37:23 | 47.66066 | 12.36913 | 63° | 55km/h | 26803m | -20.9m/s | -47.6°C | 3.2% | 19.9hPa | 2.4V | 00:00:00 | 02:05:34 | 00:00:00 | |
| PETON7-10 | 2026-09-04 00:37:22 | 47.66057 | 12.36895 | 47° | 55km/h | 26824m | -21.6m/s | -47.5°C | 3.2% | 19.9hPa | 2.4V | 00:00:00 | 00:00:00 | 00:00:00 | |
| BAUMI2-15 | 2026-09-04 00:37:21 | 47.66045 | 12.36882 | 26° | 58km/h | 26845m | -20.7m/s | -47.6°C | 3.2% | 19.8hPa | 2.4V | 00:00:00 | 02:05:32 | 00:00:00 | |
| OE5MMP-10 | 2026-09-04 00:37:17 | 47.65993 | 12.36897 | 305° | 49km/h | 26925m | -21.6m/s | -47.7°C | 3.2% | 19.5hPa | 2.4V | 00:00:00 | 02:05:28 | 00:00:00 | |
| DK5PH-5 | 2026-09-04 00:37:16 | 47.65988 | 12.36914 | 280° | 44km/h | 26946m | -21.3m/s | -47.7°C | 3.2% | 19.4hPa | 2.4V | 00:00:00 | 02:05:27 | 00:00:00 | |
| OE8JPQ-2 | 2026-09-04 00:37:15 | 47.65989 | 12.36930 | 250° | 51km/h | 26967m | -21.2m/s | -47.7°C | 3.2% | 19.4hPa | 2.4V | 00:00:00 | 00:00:00 | 00:00:00 | |
| DO3MHA-11 | 2026-09-04 00:37:13 | 47.66004 | 12.36948 | 189° | 55km/h | 27007m | -19.3m/s | -47.8°C | 3.3% | 19.3hPa | 2.5V | 08:28:00 | 02:05:24 | 00:00:00 | |
| DB0ND-19 | 2026-09-04 00:37:12 | 47.66028 | 12.36919 | 108° | 55km/h | 27064m | -18.8m/s | -47.9°C | 0.9% | 19.1hPa | 2.6V | 00:00:00 | 00:00:00 | 00:00:00 | |
| BAUMI2-15 | 2026-09-04 00:37:10 | 47.66028 | 12.36919 | 109° | 62km/h | 27064m | -18.7m/s | -47.8°C | 3.3% | 19.1hPa | 2.6V | 00:00:00 | 02:05:21 | 00:00:00 | |
| OE5MMP-10 | 2026-09-04 00:37:07 | 47.66023 | 12.36851 | 61° | 47km/h | 27125m | -22.3m/s | -47.6°C | 3.3% | 18.9hPa | 2.6V | 00:00:00 | 02:05:18 | 00:00:00 | |
| IN3HCDX | 2026-09-04 00:37:06 | 47.66013 | 12.36831 | 49° | 64km/h | 27148m | -22.9m/s | -47.7°C | 0.9% | 18.9hPa | 2.6V | 00:00:00 | 00:00:00 | 00:00:00 | |
| OE5HKT-10 | 2026-09-04 00:37:05 | 47.66002 | 12.36816 | 33° | 37km/h | 27170m | -23.6m/s | -47.5°C | 3.3% | 18.8hPa | 2.6V | 00:00:00 | 02:05:16 | 00:00:00 | |
| BAUMI2-15 | 2026-09-04 00:37:04 | 47.65990 | 12.36808 | 19° | 38km/h | 27193m | -22.6m/s | -47.4°C | 3.3% | 18.7hPa | 2.6V | 00:00:00 | 02:05:15 | 00:00:00 | |
| DO3MHA-11 | 2026-09-04 00:37:03 | 47.65979 | 12.36805 | 360° | 44km/h | 27215m | -20.6m/s | -47.4°C | 3.3% | 18.6hPa | 2.6V | 00:00:00 | 02:05:14 | 00:00:00 | |
| DL1ZP-14 | 2026-09-04 00:37:00 | 47.65976 | 12.36842 | 221° | 47km/h | 27287m | -19.3m/s | -47.3°C | 0.9% | 18.5hPa | 2.6V | 00:00:00 | 00:00:00 | 00:00:00 | |
| DL6DJ-15 | 2026-09-04 00:36:51 | 47.66052 | 12.36841 | 69° | 20km/h | 27447m | -17.4m/s | -46.7°C | 0.8% | 18.1hPa | 2.4V | 00:00:00 | 00:00:00 | 00:00:00 | |
| DF3TZ-5 | 2026-09-04 00:36:49 | 47.66037 | 12.36824 | 35° | 29km/h | 27505m | -19.8m/s | -46.4°C | 0.8% | 17.9hPa | 2.4V | 00:00:00 | 00:00:00 | 00:00:00 | |
| BAUMI2-15 | 2026-09-04 00:36:48 | 47.66036 | 12.36824 | 36° | 33km/h | 27505m | -19.8m/s | -46.3°C | 3.1% | 17.9hPa | 2.4V | 00:00:00 | 02:04:59 | 00:00:00 | |
| OE5MMP-10 | 2026-09-04 00:36:47 | 47.66030 | 12.36817 | 42° | 33km/h | 27524m | -19.8m/s | -46.3°C | 3.1% | 17.8hPa | 2.4V | 00:00:00 | 02:04:58 | 00:00:00 | |
| DK5PH-5 | 2026-09-04 00:36:46 | 47.66024 | 12.36808 | 48° | 38km/h | 27544m | -20.0m/s | -46.2°C | 3.1% | 17.7hPa | 2.4V | 00:00:00 | 02:04:57 | 00:00:00 | |
| IN3HCDX | 2026-09-04 00:36:45 | 47.66018 | 12.36799 | 55° | 33km/h | 27564m | -19.8m/s | -46.2°C | 0.8% | 17.8hPa | 2.4V | 08:29:00 | 00:00:00 | 00:00:00 | |
| DO3MHA-11 | 2026-09-04 00:36:43 | 47.66010 | 12.36777 | 66° | 37km/h | 27603m | -19.6m/s | -46.1°C | 3.1% | 17.6hPa | 2.4V | 00:00:00 | 02:04:54 | 00:00:00 | |
| DB0ND-19 | 2026-09-04 00:36:41 | 47.66003 | 12.36744 | 83° | 29km/h | 27659m | -18.9m/s | -46.0°C | 0.8% | 17.5hPa | 2.4V | 00:00:00 | 00:00:00 | 00:00:00 | |
| NBG1-10 | 2026-09-04 00:36:39 | 47.66003 | 12.36732 | 91° | 38km/h | 27677m | -19.3m/s | -45.9°C | 3.0% | 17.4hPa | 2.4V | 08:28:00 | 02:04:50 | 00:00:00 | |
| BAUMI2-15 | 2026-09-04 00:36:38 | 47.66003 | 12.36719 | 94° | 42km/h | 27697m | -20.1m/s | -45.8°C | 3.0% | 17.4hPa | 2.5V | 00:00:00 | 02:04:49 | 08:30:00 | |
| PETON7-10 | 2026-09-04 00:36:37 | 47.66004 | 12.36706 | 96° | 44km/h | 27717m | -20.4m/s | -45.6°C | 3.0% | 17.3hPa | 2.6V | 00:00:00 | 00:00:00 | 00:00:00 | |
| OE5DRO-10 | 2026-09-04 00:36:36 | 47.66006 | 12.36674 | 98° | 42km/h | 27757m | -20.9m/s | -45.4°C | 2.9% | 17.2hPa | 2.6V | 00:00:00 | 00:00:00 | 00:00:00 | |
| OE8JPQ-2 | 2026-09-04 00:36:35 | 47.66006 | 12.36674 | 98° | 42km/h | 27757m | -20.9m/s | -45.4°C | 2.9% | 17.2hPa | 2.6V | 00:00:00 | 02:04:46 | 00:00:00 | |
| OE5DXL-15 | 2026-09-04 00:36:34 | 47.66008 | 12.36656 | 97° | 38km/h | 27778m | -20.5m/s | -45.4°C | 2.9% | 17.1hPa | 2.6V | 00:00:00 | 00:00:00 | 00:00:00 | |
| DB0UT-7 | 2026-09-04 00:36:30 | 47.66023 | 12.36587 | 126° | 37km/h | 27865m | -22.0m/s | -45.2°C | 2.9% | 16.9hPa | 2.6V | 00:00:00 | 02:04:41 | 00:00:00 | |
| DG1MFX-10 | 2026-09-04 00:36:29 | 47.66023 | 12.36587 | 127° | 47km/h | 27865m | -22.0m/s | -45.3°C | 0.8% | 16.9hPa | 2.4V | 08:29:00 | 00:00:00 | 00:00:00 | |
| BAUMI2-15 | 2026-09-04 00:36:28 | 47.66040 | 12.36566 | 155° | 42km/h | 27908m | -20.8m/s | -45.1°C | 2.9% | 16.8hPa | 2.4V | 00:00:00 | 02:04:39 | 00:00:00 | |
| OE5MMP-10 | 2026-09-04 00:36:27 | 47.66050 | 12.36561 | 171° | 38km/h | 27929m | -20.3m/s | -45.0°C | 2.8% | 16.7hPa | 2.4V | 00:00:00 | 02:04:38 | 00:00:00 | |
| BAUMI2-15 | 2026-09-04 00:36:23 | 47.66087 | 12.36582 | 230° | 38km/h | 28010m | -21.4m/s | -45.1°C | 2.8% | 16.5hPa | 2.6V | 00:00:00 | 02:04:34 | 00:00:00 | |
| PETON7-10 | 2026-09-04 00:36:22 | 47.66093 | 12.36594 | 239° | 33km/h | 28031m | -20.9m/s | -45.2°C | 2.8% | 16.5hPa | 2.4V | 00:00:00 | 02:04:33 | 00:00:00 | |
| DL6DJ-15 | 2026-09-04 00:36:20 | 47.66101 | 12.36620 | 254° | 33km/h | 28073m | -21.2m/s | -45.4°C | 0.8% | 16.4hPa | 2.4V | 00:00:00 | 00:00:00 | 00:00:00 | |
| DF3TZ-5 | 2026-09-04 00:36:18 | 47.66097 | 12.36654 | 300° | 27km/h | 28135m | -20.8m/s | -45.5°C | 0.8% | 16.2hPa | 2.4V | 00:00:00 | 00:00:00 | 00:00:00 | |
| OE5MMP-10 | 2026-09-04 00:36:17 | 47.66097 | 12.36654 | 301° | 33km/h | 28135m | -20.8m/s | -45.4°C | 2.9% | 16.2hPa | 2.4V | 00:00:00 | 02:04:28 | 00:00:00 | |
| DK5PH-5 | 2026-09-04 00:36:16 | 47.66092 | 12.36662 | 323° | 38km/h | 28155m | -20.3m/s | -45.4°C | 2.9% | 16.1hPa | 2.4V | 00:00:00 | 02:04:27 | 00:00:00 | |
| OE8JPQ-2 | 2026-09-04 00:36:15 | 47.66086 | 12.36667 | 340° | 37km/h | 28175m | -20.7m/s | -45.3°C | 2.9% | 16.1hPa | 2.4V | 00:00:00 | 00:00:00 | 00:00:00 | |
| DO3MHA-11 | 2026-09-04 00:36:13 | 47.66071 | 12.36671 | 8° | 35km/h | 28216m | -20.7m/s | -45.3°C | 2.9% | 16.0hPa | 2.5V | 00:00:00 | 02:04:24 | 00:00:00 | |
| OE5HKT-10 | 2026-09-04 00:36:12 | 47.66064 | 12.36668 | 18° | 40km/h | 28237m | -20.8m/s | -45.3°C | 2.9% | 15.9hPa | 2.4V | 00:00:00 | 00:00:00 | 00:00:00 | |
| OE5WHR-10 | 2026-09-04 00:36:09 | 47.66042 | 12.36648 | 45° | 40km/h | 28299m | -20.5m/s | -45.4°C | 2.9% | 15.8hPa | 2.4V | 00:00:00 | 00:00:00 | 00:00:00 | |
| OE5MMP-10 | 2026-09-04 00:36:07 | 47.66030 | 12.36627 | 65° | 38km/h | 28339m | -20.1m/s | -45.4°C | 2.9% | 15.7hPa | 2.4V | 00:00:00 | 02:04:18 | 00:00:00 | |
| OE5FHM-15 | 2026-09-04 00:36:06 | 47.66027 | 12.36614 | 70° | 40km/h | 28358m | -20.2m/s | -45.4°C | 2.9% | 15.6hPa | 2.4V | 00:00:00 | 02:04:17 | 00:00:00 | |
| OE5DXL-15 | 2026-09-04 00:36:04 | 47.66023 | 12.36588 | 87° | 40km/h | 28398m | -19.9m/s | -45.4°C | 2.9% | 15.5hPa | 2.4V | 08:29:00 | 00:00:00 | 00:00:00 | |
| DO3MHA-11 | 2026-09-04 00:36:03 | 47.66023 | 12.36574 | 90° | 42km/h | 28418m | -20.4m/s | -45.4°C | 2.9% | 15.5hPa | 2.4V | 00:00:00 | 02:04:14 | 00:00:00 | |
| DL1ZP-14 | 2026-09-04 00:35:57 | 47.66041 | 12.36486 | 119° | 42km/h | 28537m | -20.0m/s | -45.5°C | 0.8% | 15.3hPa | 2.4V | 00:00:00 | 00:00:00 | 00:00:00 | |
| DL6DJ-15 | 2026-09-04 00:35:49 | 47.66091 | 12.36381 | 125° | 40km/h | 28696m | -20.4m/s | -45.2°C | 0.8% | 14.9hPa | 2.6V | 00:00:00 | 00:00:00 | 00:00:00 | |
| DF3TZ-5 | 2026-09-04 00:35:47 | 47.66110 | 12.36343 | 125° | 42km/h | 28756m | -20.7m/s | -45.1°C | 0.8% | 14.8hPa | 2.6V | 00:00:00 | 00:00:00 | 00:00:00 | |
| DK5PH-5 | 2026-09-04 00:35:46 | 47.66110 | 12.36343 | 126° | 26km/h | 28756m | -20.7m/s | -45.0°C | 3.0% | 14.7hPa | 2.6V | 00:00:00 | 02:03:57 | 08:30:00 | |
| DO3MHA-11 | 2026-09-04 00:35:43 | 47.66127 | 12.36301 | 114° | 35km/h | 28819m | -21.6m/s | -45.0°C | 3.0% | 14.6hPa | 2.4V | 00:00:00 | 02:03:54 | 08:30:00 | |
| IN3HCDX | 2026-09-04 00:35:41 | 47.66131 | 12.36286 | 114° | 47km/h | 28841m | -22.2m/s | -45.0°C | 0.8% | 14.5hPa | 2.4V | 00:00:00 | 00:00:00 | 00:00:00 | |
| OE5DRO-10 | 2026-09-04 00:35:38 | 47.66142 | 12.36227 | 99° | 22km/h | 28931m | -23.3m/s | -44.7°C | 3.1% | 14.3hPa | 2.4V | 00:00:00 | 00:00:00 | 08:30:00 | |
| OE5MMP-10 | 2026-09-04 00:35:37 | 47.66143 | 12.36215 | 101° | 18km/h | 28954m | -23.0m/s | -44.7°C | 3.2% | 14.3hPa | 2.6V | 00:00:00 | 02:03:48 | 00:00:00 | |
| OE5FHM-15 | 2026-09-04 00:35:36 | 47.66143 | 12.36206 | 83° | 16km/h | 28976m | -23.4m/s | -44.6°C | 3.2% | 14.2hPa | 2.6V | 00:00:00 | 02:03:47 | 00:00:00 | |
| OE8JPQ-2 | 2026-09-04 00:35:35 | 47.66143 | 12.36198 | 77° | 18km/h | 29000m | -23.7m/s | -44.6°C | 3.2% | 14.1hPa | 2.6V | 00:00:00 | 02:03:46 | 00:00:00 | |
| OE5DXL-15 | 2026-09-04 00:35:34 | 47.66142 | 12.36192 | 58° | 16km/h | 29024m | -24.4m/s | -44.6°C | 3.2% | 14.2hPa | 2.6V | 00:00:00 | 00:00:00 | 00:00:00 | |
| DO3MHA-11 | 2026-09-04 00:35:33 | 47.66138 | 12.36187 | 42° | 18km/h | 29049m | -27.0m/s | -44.5°C | 3.1% | 14.1hPa | 2.6V | 00:00:00 | 02:03:44 | 00:00:00 | |
| OE5HKT-10 | 2026-09-04 00:35:30 | 47.66129 | 12.36175 | 56° | 16km/h | 29153m | -52.8m/s | -43.7°C | 2.9% | 14.0hPa | 2.6V | 00:00:00 | 00:00:00 | 00:00:00 | |
| DG1MFX-10 | 2026-09-04 00:35:29 | 47.66127 | 12.36170 | 50° | 16km/h | 29206m | -54.5m/s | -43.5°C | 0.8% | 14.0hPa | 2.4V | 00:00:00 | 00:00:00 | 00:00:00 | |
| DL1ZP-14 | 2026-09-04 00:35:27 | 47.66120 | 12.36152 | 70° | 20km/h | 29370m | -54.5m/s | -43.4°C | 0.8% | 13.6hPa | 2.4V | 00:00:00 | 00:00:00 | 00:00:00 | |
| DO3MHA-11 | 2026-09-04 00:35:23 | 47.66115 | 12.36127 | 84° | 15km/h | 29533m | -56.1m/s | -42.8°C | 2.7% | 13.2hPa | 2.6V | 00:00:00 | 02:03:34 | 00:00:00 | |
| PETON7-10 | 2026-09-04 00:35:22 | 47.66114 | 12.36118 | 93° | 15km/h | 29590m | -56.7m/s | -42.7°C | 2.7% | 13.1hPa | 2.6V | 00:00:00 | 00:00:00 | 08:30:00 | |
| IN3HCDX | 2026-09-04 00:35:21 | 47.66114 | 12.36118 | 93° | 24km/h | 29590m | -56.8m/s | -42.8°C | 0.7% | 13.2hPa | 2.4V | 00:00:00 | 00:00:00 | 00:00:00 | |
| OE5DRO-10 | 2026-09-04 00:35:19 | 47.66117 | 12.36095 | 107° | 15km/h | 29763m | -59.0m/s | -42.4°C | 2.7% | 12.8hPa | 2.4V | 00:00:00 | 00:00:00 | 00:00:00 | |
| DL6DJ-15 | 2026-09-04 00:35:18 | 47.66118 | 12.36090 | 118° | 13km/h | 29821m | -58.9m/s | -42.5°C | 0.7% | 12.8hPa | 2.4V | 00:00:00 | 00:00:00 | 00:00:00 | |
| OE5MMP-10 | 2026-09-04 00:35:17 | 47.66119 | 12.36085 | 109° | 9km/h | 29881m | -60.1m/s | -42.3°C | 2.7% | 12.6hPa | 2.4V | 00:00:00 | 02:03:28 | 00:00:00 | |
| DK5PH-5 | 2026-09-04 00:35:16 | 47.66120 | 12.36082 | 86° | 18km/h | 29940m | -59.1m/s | -42.2°C | 2.7% | 12.5hPa | 2.4V | 00:00:00 | 02:03:27 | 00:00:00 | |
| OE8JPQ-2 | 2026-09-04 00:35:15 | 47.66120 | 12.36080 | 37° | 13km/h | 29998m | -59.1m/s | -42.0°C | 2.6% | 12.4hPa | 2.4V | 00:00:00 | 00:00:00 | 08:30:00 | |
| DO3MHA-11 | 2026-09-04 00:35:13 | 47.66117 | 12.36079 | 2° | 16km/h | 30117m | -60.4m/s | -41.7°C | 2.6% | 12.1hPa | 2.4V | 00:00:00 | 02:03:24 | 00:00:00 | |
| OE5HKT-10 | 2026-09-04 00:35:09 | 47.66103 | 12.36079 | 18° | 20km/h | 30362m | -61.8m/s | -41.0°C | 2.4% | 11.7hPa | 2.6V | 00:00:00 | 00:00:00 | 00:00:00 | |
| DB0ND-19 | 2026-09-04 00:35:08 | 47.66095 | 12.36073 | 43° | 15km/h | 30485m | -62.5m/s | -40.9°C | 0.6% | 11.5hPa | 2.6V | 00:00:00 | 00:00:00 | 00:00:00 | |
| PETON7-10 | 2026-09-04 00:35:07 | 47.66095 | 12.36073 | 44° | 16km/h | 30485m | -62.4m/s | -40.9°C | 2.4% | 11.5hPa | 2.6V | 00:00:00 | 00:00:00 | 00:00:00 | |
| OE5WHR-10 | 2026-09-04 00:35:06 | 47.66092 | 12.36068 | 59° | 22km/h | 30549m | -63.3m/s | -41.0°C | 2.4% | 11.4hPa | 2.6V | 00:00:00 | 00:00:00 | 00:00:00 | |
| OE5DXL-15 | 2026-09-04 00:35:04 | 47.66090 | 12.36055 | 91° | 20km/h | 30678m | -66.4m/s | -41.0°C | 2.4% | 11.1hPa | 2.6V | 00:00:00 | 00:00:00 | 00:00:00 | |
| DO3MHA-11 | 2026-09-04 00:35:03 | 47.66091 | 12.36049 | 109° | 13km/h | 30746m | -67.8m/s | -40.9°C | 2.4% | 11.0hPa | 2.6V | 00:00:00 | 02:03:14 | 00:00:00 | |
| DL1ZP-14 | 2026-09-04 00:34:55 | 47.66105 | 12.36021 | 97° | 5km/h | 31275m | -62.5m/s | -40.1°C | 0.5% | 10.1hPa | 2.6V | 00:00:00 | 00:00:00 | 00:00:00 | |
| PETON7-10 | 2026-09-04 00:34:52 | 47.66112 | 12.35993 | 110° | 26km/h | 31480m | -63.0m/s | -40.4°C | 2.1% | 9.8hPa | 2.6V | 00:00:00 | 02:03:03 | 00:00:00 | |
| OE5HKT-10 | 2026-09-04 00:34:48 | 47.66123 | 12.35944 | 113° | 27km/h | 31679m | -35.8m/s | -41.4°C | 2.3% | 9.3hPa | 2.6V | 00:00:00 | 02:02:59 | 00:00:00 | |
| DG1MFX-10 | 2026-09-04 00:34:47 | 47.66127 | 12.35932 | 120° | 35km/h | 31711m | -28.5m/s | -41.5°C | 0.7% | 9.3hPa | 2.6V | 00:00:00 | 00:00:00 | 00:00:00 | |
| OE5WHR-10 | 2026-09-04 00:34:45 | 47.66138 | 12.35914 | 148° | 20km/h | 31753m | -13.2m/s | -41.5°C | 2.5% | 9.2hPa | 2.6V | 00:00:00 | 02:02:56 | 00:00:00 | |
| DO3MHA-11 | 2026-09-04 00:34:43 | 47.66151 | 12.35912 | 199° | 16km/h | 31767m | -1.1m/s | -41.5°C | 2.5% | 9.2hPa | 2.6V | 00:00:00 | 02:02:54 | 00:00:00 | |
| IN3HCDX | 2026-09-04 00:34:40 | 47.66167 | 12.35922 | 222° | 13km/h | 31752m | 5.4m/s | -41.6°C | 0.6% | 9.3hPa | 2.6V | 00:00:00 | 00:00:00 | 00:00:00 | |
| PETON7-10 | 2026-09-04 00:34:37 | 47.66171 | 12.35925 | 158° | 22km/h | 31736m | 5.7m/s | -41.7°C | 2.5% | 9.2hPa | 2.6V | 00:00:00 | 00:00:00 | 00:00:00 | |
| OE5MMP-10 | 2026-09-04 00:34:36 | 47.66174 | 12.35924 | 160° | 20km/h | 31730m | 5.9m/s | -41.7°C | 2.5% | 9.2hPa | 2.5V | 00:00:00 | 02:02:47 | 00:00:00 | |
| OE8JPQ-2 | 2026-09-04 00:34:35 | 47.66178 | 12.35922 | 166° | 20km/h | 31724m | 5.7m/s | -41.7°C | 2.5% | 9.2hPa | 2.5V | 00:00:00 | 02:02:46 | 00:00:00 | |
| OE5DXL-15 | 2026-09-04 00:34:34 | 47.66183 | 12.35920 | 172° | 18km/h | 31719m | 5.3m/s | -41.7°C | 2.5% | 9.2hPa | 2.5V | 00:00:00 | 00:00:00 | 00:00:00 | |
| DO3MHA-11 | 2026-09-04 00:34:33 | 47.66190 | 12.35919 | 177° | 22km/h | 31714m | 5.1m/s | -41.7°C | 2.5% | 9.3hPa | 2.6V | 00:00:00 | 02:02:44 | 00:00:00 | |
| DB0UT-7 | 2026-09-04 00:34:30 | 47.66208 | 12.35923 | 201° | 18km/h | 31696m | 5.8m/s | -41.7°C | 2.5% | 9.3hPa | 2.6V | 00:00:00 | 02:02:41 | 00:00:00 | |
| DG1MFX-10 | 2026-09-04 00:34:27 | 47.66219 | 12.35934 | 225° | 20km/h | 31681m | 5.0m/s | -41.8°C | 0.7% | 9.4hPa | 2.6V | 00:00:00 | 00:00:00 | 00:00:00 | |
| OE5MMP-10 | 2026-09-04 00:34:26 | 47.66223 | 12.35940 | 223° | 18km/h | 31675m | 5.5m/s | -41.8°C | 2.5% | 9.3hPa | 2.6V | 00:00:00 | 02:02:37 | 00:00:00 | |
| OE5WHR-10 | 2026-09-04 00:34:24 | 47.66233 | 12.35951 | 214° | 16km/h | 31664m | 5.2m/s | -41.9°C | 2.5% | 9.3hPa | 2.5V | 00:00:00 | 00:00:00 | 00:00:00 | |
| DO3MHA-11 | 2026-09-04 00:34:23 | 47.66238 | 12.35956 | 206° | 16km/h | 31660m | 4.4m/s | -41.8°C | 2.5% | 9.3hPa | 2.5V | 00:00:00 | 02:02:34 | 00:00:00 | |
| OE5HKT-10 | 2026-09-04 00:34:22 | 47.66244 | 12.35960 | 197° | 18km/h | 31655m | 4.2m/s | -41.9°C | 2.6% | 9.3hPa | 2.5V | 00:00:00 | 00:00:00 | 08:30:00 | |
| IN3HCDX | 2026-09-04 00:34:18 | 47.66254 | 12.35958 | 119° | 11km/h | 31638m | 6.1m/s | -41.8°C | 0.6% | 9.4hPa | 2.6V | 00:00:00 | 00:00:00 | 00:00:00 | |
| OE5MMP-10 | 2026-09-04 00:34:16 | 47.66258 | 12.35945 | 131° | 15km/h | 31623m | 5.5m/s | -41.7°C | 2.5% | 9.4hPa | 2.6V | 00:00:00 | 02:02:27 | 00:00:00 | |
| OE8JPQ-2 | 2026-09-04 00:34:15 | 47.66260 | 12.35943 | 166° | 16km/h | 31617m | 5.9m/s | -41.7°C | 2.5% | 9.4hPa | 2.6V | 00:00:00 | 00:00:00 | 00:00:00 | |
| DO3MHA-11 | 2026-09-04 00:34:13 | 47.66269 | 12.35945 | 204° | 15km/h | 31605m | 5.6m/s | -41.7°C | 2.5% | 9.4hPa | 2.5V | 00:00:00 | 02:02:24 | 08:30:00 | |
| DO8TBO-1 | 2026-09-04 00:34:12 | 47.66275 | 12.35949 | 214° | 20km/h | 31600m | 5.2m/s | -41.6°C | 2.5% | 9.4hPa | 2.5V | 00:00:00 | 02:02:23 | 00:00:00 | |
| PETON7-10 | 2026-09-04 00:34:07 | 47.66286 | 12.35963 | 98° | 18km/h | 31573m | 4.9m/s | -41.5°C | 2.5% | 9.4hPa | 2.6V | 00:00:00 | 02:02:18 | 00:00:00 | |
| OE5FHM-15 | 2026-09-04 00:34:06 | 47.66286 | 12.35960 | 112° | 20km/h | 31568m | 5.7m/s | -41.5°C | 2.4% | 9.5hPa | 2.6V | 00:00:00 | 02:02:17 | 00:00:00 | |
| DG1MFX-10 | 2026-09-04 00:34:05 | 47.66286 | 12.35960 | 113° | 13km/h | 31568m | 5.7m/s | -41.5°C | 0.7% | 9.5hPa | 2.6V | 00:00:00 | 00:00:00 | 00:00:00 | |
| OE5DXL-15 | 2026-09-04 00:34:04 | 47.66291 | 12.35949 | 135° | 20km/h | 31555m | 5.8m/s | -41.5°C | 2.4% | 9.5hPa | 2.6V | 00:00:00 | 00:00:00 | 00:00:00 | |
| OE5WHR-10 | 2026-09-04 00:34:03 | 47.66296 | 12.35943 | 144° | 20km/h | 31550m | 4.9m/s | -41.5°C | 2.5% | 9.5hPa | 2.6V | 00:00:00 | 00:00:00 | 00:00:00 | |
| DL1ZP-14 | 2026-09-04 00:33:54 | 47.66342 | 12.35943 | 179° | 22km/h | 31494m | 4.7m/s | -41.7°C | 0.7% | 9.6hPa | 2.6V | 00:00:00 | 00:00:00 | 00:00:00 | |
| DO3MHA-11 | 2026-09-04 00:33:53 | 47.66342 | 12.35943 | 180° | 18km/h | 31494m | 4.6m/s | -41.6°C | 2.5% | 9.6hPa | 2.6V | 00:00:00 | 02:02:04 | 00:00:00 | |
| PETON7-10 | 2026-09-04 00:33:52 | 47.66347 | 12.35942 | 164° | 20km/h | 31489m | 5.2m/s | -41.6°C | 2.5% | 9.6hPa | 2.6V | 00:00:00 | 00:00:00 | 00:00:00 | |
| BAUMI2-15 | 2026-09-04 00:33:47 | 47.66362 | 12.35922 | 159° | 22km/h | 31463m | 4.8m/s | -41.7°C | 2.5% | 9.6hPa | 2.6V | 00:00:00 | 02:01:58 | 00:00:00 | |
| OE5MMP-10 | 2026-09-04 00:33:46 | 47.66365 | 12.35922 | 189° | 20km/h | 31457m | 5.8m/s | -41.7°C | 2.5% | 9.6hPa | 2.6V | 00:00:00 | 02:01:57 | 00:00:00 | |
| DG1MFX-10 | 2026-09-04 00:33:45 | 47.66369 | 12.35924 | 201° | 22km/h | 31451m | 6.5m/s | -41.7°C | 0.7% | 9.7hPa | 2.6V | 00:00:00 | 00:00:00 | 00:00:00 | |
| DK5PH-5 | 2026-09-04 00:33:43 | 47.66382 | 12.35932 | 202° | 22km/h | 31440m | 5.1m/s | -41.7°C | 2.5% | 9.6hPa | 2.6V | 00:00:00 | 02:01:54 | 00:00:00 | |
| OE5WHR-10 | 2026-09-04 00:33:42 | 47.66390 | 12.35936 | 199° | 20km/h | 31435m | 4.6m/s | -41.7°C | 2.5% | 9.7hPa | 2.6V | 00:00:00 | 02:01:53 | 00:00:00 | |
| DO8TBO-1 | 2026-09-04 00:33:39 | 47.66409 | 12.35944 | 193° | 20km/h | 31418m | 6.4m/s | -41.7°C | 2.5% | 9.7hPa | 2.6V | 00:00:00 | 02:01:50 | 00:00:00 | |
| IN3HCDX | 2026-09-04 00:33:37 | 47.66414 | 12.35944 | 165° | 7km/h | 31406m | 5.3m/s | -41.7°C | 0.6% | 9.8hPa | 2.6V | 00:00:00 | 00:00:00 | 00:00:00 | |
| OE5FHM-15 | 2026-09-04 00:33:36 | 47.66417 | 12.35943 | 156° | 22km/h | 31401m | 5.0m/s | -41.7°C | 2.5% | 9.7hPa | 2.6V | 00:00:00 | 02:01:47 | 00:00:00 | |
| OE8JPQ-2 | 2026-09-04 00:33:35 | 47.66419 | 12.35941 | 158° | 22km/h | 31395m | 5.9m/s | -41.7°C | 2.5% | 9.7hPa | 2.6V | 00:00:00 | 02:01:46 | 00:00:00 | |
| OE5DXL-15 | 2026-09-04 00:33:34 | 47.66430 | 12.35936 | 167° | 22km/h | 31383m | 6.5m/s | -41.8°C | 2.5% | 9.7hPa | 2.6V | 00:00:00 | 00:00:00 | 00:00:00 | |
| DF7PN | 2026-09-04 00:33:33 | 47.66438 | 12.35934 | 170° | 35km/h | 31376m | 6.1m/s | -41.8°C | 0.6% | 9.8hPa | 2.6V | 00:00:00 | 00:00:00 | 00:00:00 | |
| BAUMI2-15 | 2026-09-04 00:33:31 | 47.66447 | 12.35932 | 175° | 27km/h | 31371m | 5.2m/s | -41.8°C | 2.5% | 9.8hPa | 2.6V | 00:00:00 | 02:01:42 | 00:00:00 | |
| DB0UT-7 | 2026-09-04 00:33:30 | 47.66456 | 12.35931 | 179° | 22km/h | 31365m | 4.9m/s | -41.8°C | 2.5% | 9.8hPa | 2.6V | 00:00:00 | 02:01:41 | 08:30:00 | |
| BAUMI2-15 | 2026-09-04 00:33:26 | 47.66477 | 12.35934 | 178° | 15km/h | 31342m | 5.5m/s | -41.7°C | 2.5% | 9.8hPa | 2.6V | 00:00:00 | 02:01:37 | 00:00:00 | |
| OE5MMP-10 | 2026-09-04 00:33:25 | 47.66479 | 12.35933 | 133° | 18km/h | 31336m | 5.9m/s | -41.7°C | 2.5% | 9.8hPa | 2.6V | 00:00:00 | 02:01:36 | 00:00:00 | |
| DG1MFX-10 | 2026-09-04 00:33:24 | 47.66479 | 12.35933 | 134° | 7km/h | 31336m | 6.0m/s | -41.7°C | 0.7% | 9.9hPa | 2.5V | 00:00:00 | 00:00:00 | 00:00:00 | |
| DO3MHA-11 | 2026-09-04 00:33:23 | 47.66482 | 12.35925 | 120° | 24km/h | 31324m | 5.7m/s | -41.6°C | 2.5% | 9.8hPa | 2.5V | 00:00:00 | 02:01:34 | 00:00:00 | |
| PETON7-10 | 2026-09-04 00:33:22 | 47.66485 | 12.35918 | 123° | 20km/h | 31319m | 5.2m/s | -41.6°C | 2.5% | 9.8hPa | 2.5V | 00:00:00 | 02:01:33 | 00:00:00 | |
| OE5WHR-10 | 2026-09-04 00:33:21 | 47.66488 | 12.35911 | 128° | 24km/h | 31313m | 5.6m/s | -41.6°C | 2.5% | 9.8hPa | 2.5V | 00:00:00 | 00:00:00 | 08:30:00 | |
| IN3HCDX | 2026-09-04 00:33:17 | 47.66507 | 12.35888 | 153° | 24km/h | 31290m | 5.6m/s | -41.6°C | 0.6% | 10.0hPa | 2.5V | 00:00:00 | 00:00:00 | 00:00:00 | |
| BAUMI2-15 | 2026-09-04 00:33:16 | 47.66512 | 12.35884 | 153° | 24km/h | 31283m | 6.3m/s | -41.6°C | 2.5% | 9.9hPa | 2.5V | 00:00:00 | 02:01:27 | 00:00:00 | |
| OE5HKT-10 | 2026-09-04 00:33:15 | 47.66518 | 12.35879 | 152° | 26km/h | 31277m | 6.2m/s | -41.6°C | 2.5% | 9.9hPa | 2.5V | 00:00:00 | 00:00:00 | 00:00:00 | |
| DL6DJ-15 | 2026-09-04 00:33:14 | 47.66530 | 12.35869 | 145° | 22km/h | 31266m | 4.9m/s | -41.6°C | 0.6% | 10.0hPa | 2.5V | 00:00:00 | 00:00:00 | 00:00:00 | |
| DK5PH-5 | 2026-09-04 00:33:13 | 47.66530 | 12.35869 | 146° | 27km/h | 31266m | 4.9m/s | -41.6°C | 2.5% | 9.9hPa | 2.5V | 00:00:00 | 02:01:24 | 00:00:00 | |
| BAUMI2-15 | 2026-09-04 00:33:11 | 47.66536 | 12.35860 | 135° | 16km/h | 31254m | 6.8m/s | -41.6°C | 2.5% | 10.0hPa | 2.5V | 00:00:00 | 02:01:22 | 00:00:00 | |
| DO8TBO-1 | 2026-09-04 00:33:09 | 47.66539 | 12.35853 | 107° | 29km/h | 31242m | 5.2m/s | -41.6°C | 2.5% | 10.0hPa | 2.5V | 00:00:00 | 02:01:20 | 00:00:00 | |
| PETON7-10 | 2026-09-04 00:33:07 | 47.66542 | 12.35842 | 112° | 29km/h | 31231m | 6.4m/s | -41.6°C | 2.5% | 10.0hPa | 2.5V | 00:00:00 | 00:00:00 | 08:30:00 | |
| BAUMI2-15 | 2026-09-04 00:33:06 | 47.66544 | 12.35833 | 117° | 33km/h | 31224m | 5.9m/s | -41.6°C | 2.5% | 10.0hPa | 2.5V | 00:00:00 | 02:01:17 | 08:30:00 | |
| OE5MMP-10 | 2026-09-04 00:33:05 | 47.66548 | 12.35822 | 122° | 31km/h | 31219m | 5.2m/s | -41.6°C | 2.4% | 10.0hPa | 2.6V | 00:00:00 | 02:01:16 | 00:00:00 | |
| OE5DXL-15 | 2026-09-04 00:33:04 | 47.66553 | 12.35812 | 128° | 31km/h | 31213m | 5.3m/s | -41.6°C | 2.4% | 10.0hPa | 2.6V | 00:00:00 | 00:00:00 | 00:00:00 | |
| DO3MHA-11 | 2026-09-04 00:33:03 | 47.66559 | 12.35801 | 134° | 29km/h | 31208m | 6.2m/s | -41.6°C | 2.4% | 10.0hPa | 2.6V | 00:00:00 | 02:01:14 | 00:00:00 | |
| DF7PN | 2026-09-04 00:33:02 | 47.66571 | 12.35786 | 145° | 27km/h | 31195m | 5.6m/s | -41.6°C | 0.6% | 10.1hPa | 2.6V | 00:00:00 | 00:00:00 | 00:00:00 | |
| BAUMI2-15 | 2026-09-04 00:33:01 | 47.66571 | 12.35786 | 146° | 29km/h | 31195m | 5.6m/s | -41.6°C | 2.4% | 10.1hPa | 2.6V | 00:00:00 | 02:01:12 | 00:00:00 | |
| DB0UT-7 | 2026-09-04 00:33:00 | 47.66577 | 12.35780 | 148° | 31km/h | 31190m | 5.4m/s | -41.6°C | 2.4% | 10.0hPa | 2.6V | 00:00:00 | 00:00:00 | 00:00:00 | |
| IN3HCDX | 2026-09-04 00:32:56 | 47.66597 | 12.35751 | 122° | 31km/h | 31167m | 5.1m/s | -41.8°C | 0.6% | 10.1hPa | 2.6V | 00:00:00 | 00:00:00 | 00:00:00 | |
| OE5MMP-10 | 2026-09-04 00:32:55 | 47.66601 | 12.35741 | 116° | 35km/h | 31162m | 5.3m/s | -41.7°C | 2.5% | 10.1hPa | 2.6V | 00:00:00 | 02:01:06 | 00:00:00 | |
| DO3MHA-11 | 2026-09-04 00:32:53 | 47.66606 | 12.35722 | 107° | 33km/h | 31149m | 6.2m/s | -41.8°C | 2.5% | 10.1hPa | 2.6V | 00:00:00 | 02:01:04 | 00:00:00 | |
| PETON7-10 | 2026-09-04 00:32:52 | 47.66608 | 12.35713 | 107° | 33km/h | 31143m | 5.4m/s | -41.8°C | 2.5% | 10.1hPa | 2.6V | 00:00:00 | 00:00:00 | 00:00:00 | |
| BAUMI2-15 | 2026-09-04 00:32:51 | 47.66610 | 12.35704 | 111° | 35km/h | 31138m | 5.0m/s | -41.9°C | 2.5% | 10.1hPa | 2.6V | 00:00:00 | 02:01:02 | 00:00:00 | |
| BAUMI2-15 | 2026-09-04 00:32:46 | 47.66635 | 12.35648 | 134° | 35km/h | 31109m | 6.4m/s | -42.0°C | 2.5% | 10.2hPa | 2.5V | 00:00:00 | 02:00:57 | 00:00:00 | |
| OE5MMP-10 | 2026-09-04 00:32:45 | 47.66641 | 12.35638 | 135° | 31km/h | 31103m | 6.1m/s | -42.1°C | 2.5% | 10.2hPa | 2.5V | 00:00:00 | 02:00:56 | 00:00:00 | |
| DL6DJ-15 | 2026-09-04 00:32:43 | 47.66657 | 12.35610 | 122° | 31km/h | 31086m | 5.9m/s | -42.2°C | 0.7% | 10.3hPa | 2.5V | 00:00:00 | 00:00:00 | 00:00:00 | |
| BAUMI2-15 | 2026-09-04 00:32:41 | 47.66661 | 12.35599 | 117° | 29km/h | 31080m | 5.8m/s | -42.2°C | 2.5% | 10.2hPa | 2.5V | 00:00:00 | 02:00:52 | 00:00:00 | |
| OE5WHR-10 | 2026-09-04 00:32:39 | 47.66667 | 12.35577 | 110° | 29km/h | 31070m | 4.8m/s | -42.2°C | 2.5% | 10.3hPa | 2.5V | 00:00:00 | 02:00:50 | 00:00:00 | |
| PETON7-10 | 2026-09-04 00:32:37 | 47.66672 | 12.35555 | 108° | 27km/h | 31058m | 6.5m/s | -42.2°C | 2.5% | 10.3hPa | 2.5V | 00:00:00 | 02:00:48 | 00:00:00 | |
| OE5FHM-15 | 2026-09-04 00:32:36 | 47.66674 | 12.35546 | 111° | 27km/h | 31052m | 5.6m/s | -42.2°C | 2.5% | 10.3hPa | 2.5V | 00:00:00 | 02:00:47 | 00:00:00 | |
| BAUMI2-15 | 2026-09-04 00:32:35 | 47.66677 | 12.35538 | 114° | 29km/h | 31047m | 5.2m/s | -42.2°C | 2.5% | 10.3hPa | 2.5V | 00:00:00 | 02:00:46 | 00:00:00 | |
| OE5DXL-15 | 2026-09-04 00:32:34 | 47.66679 | 12.35529 | 115° | 29km/h | 31041m | 5.4m/s | -42.3°C | 2.6% | 10.3hPa | 2.5V | 00:00:00 | 00:00:00 | 00:00:00 | |
| DO3MHA-11 | 2026-09-04 00:32:33 | 47.66682 | 12.35520 | 117° | 29km/h | 31035m | 6.3m/s | -42.3°C | 2.5% | 10.3hPa | 2.5V | 00:00:00 | 02:00:44 | 00:00:00 | |
| DB0ND-19 | 2026-09-04 00:32:32 | 47.66686 | 12.35510 | 117° | 33km/h | 31029m | 6.2m/s | -42.3°C | 0.7% | 10.4hPa | 2.5V | 00:00:00 | 00:00:00 | 00:00:00 | |
| DF7PN | 2026-09-04 00:32:31 | 47.66693 | 12.35486 | 112° | 35km/h | 31018m | 4.6m/s | -42.4°C | 0.7% | 10.4hPa | 2.5V | 00:00:00 | 00:00:00 | 00:00:00 | |
| BAUMI2-15 | 2026-09-04 00:32:30 | 47.66693 | 12.35486 | 113° | 27km/h | 31018m | 4.6m/s | -42.3°C | 2.5% | 10.3hPa | 2.5V | 00:00:00 | 02:00:41 | 00:00:00 | |
| OE5DRO-10 | 2026-09-04 00:32:26 | 47.66697 | 12.35447 | 67° | 27km/h | 30995m | 5.5m/s | -42.4°C | 2.5% | 10.4hPa | 2.5V | 00:00:00 | 00:00:00 | 00:00:00 | |
| OE5MMP-10 | 2026-09-04 00:32:25 | 47.66694 | 12.35439 | 61° | 27km/h | 30990m | 4.9m/s | -42.4°C | 2.5% | 10.4hPa | 2.5V | 00:00:00 | 02:00:36 | 00:00:00 | |
| DO3MHA-11 | 2026-09-04 00:32:23 | 47.66688 | 12.35420 | 71° | 29km/h | 30978m | 6.0m/s | -42.4°C | 2.5% | 10.4hPa | 2.5V | 00:00:00 | 02:00:34 | 00:00:00 | |
| PETON7-10 | 2026-09-04 00:32:22 | 47.66685 | 12.35408 | 78° | 27km/h | 30973m | 5.3m/s | -42.5°C | 2.6% | 10.4hPa | 2.5V | 00:00:00 | 00:00:00 | 00:00:00 | |
| BAUMI2-15 | 2026-09-04 00:32:20 | 47.66684 | 12.35382 | 92° | 27km/h | 30962m | 6.1m/s | -42.6°C | 2.6% | 10.4hPa | 2.6V | 00:00:00 | 02:00:31 | 08:30:00 | |
| OE5WHR-10 | 2026-09-04 00:32:18 | 47.66686 | 12.35360 | 111° | 22km/h | 30949m | 5.9m/s | -42.7°C | 2.6% | 10.4hPa | 2.5V | 00:00:00 | 00:00:00 | 00:00:00 | |
| BAUMI2-15 | 2026-09-04 00:32:15 | 47.66696 | 12.35336 | 124° | 20km/h | 30931m | 5.2m/s | -42.9°C | 2.7% | 10.5hPa | 2.6V | 00:00:00 | 02:00:26 | 00:00:00 | |
| OE5MMP-10 | 2026-09-04 00:32:14 | 47.66699 | 12.35329 | 115° | 20km/h | 30926m | 3.8m/s | -42.9°C | 2.7% | 10.5hPa | 2.6V | 00:00:00 | 02:00:25 | 08:30:00 | |
| DO3MHA-11 | 2026-09-04 00:32:13 | 47.66700 | 12.35322 | 92° | 29km/h | 30922m | 4.2m/s | -42.9°C | 2.7% | 10.5hPa | 2.5V | 00:00:00 | 02:00:24 | 00:00:00 | |
| DL6DJ-15 | 2026-09-04 00:32:12 | 47.66696 | 12.35312 | 39° | 20km/h | 30910m | 7.2m/s | -42.9°C | 0.7% | 10.5hPa | 2.5V | 00:00:00 | 00:00:00 | 00:00:00 | |
| BAUMI2-15 | 2026-09-04 00:32:10 | 47.66691 | 12.35306 | 32° | 37km/h | 30903m | 6.3m/s | -42.8°C | 2.6% | 10.5hPa | 2.5V | 00:00:00 | 02:00:21 | 00:00:00 | |
| DO8TBO-1 | 2026-09-04 00:32:09 | 47.66684 | 12.35300 | 34° | 26km/h | 30898m | 5.3m/s | 0°C | 0% | 0hPa | 2.5V | 00:00:00 | 02:00:20 | 00:00:00 | |
| OE5HKT-10 | 2026-09-04 00:32:07 | 47.66669 | 12.35281 | 50° | 18km/h | 30886m | 5.9m/s | -42.8°C | 2.7% | 10.5hPa | 2.5V | 00:00:00 | 00:00:00 | 00:00:00 | |
| OE5FHM-15 | 2026-09-04 00:32:06 | 47.66664 | 12.35269 | 60° | 24km/h | 30881m | 4.8m/s | -42.8°C | 2.7% | 10.6hPa | 2.5V | 00:00:00 | 02:00:17 | 00:00:00 | |
| BAUMI2-15 | 2026-09-04 00:32:05 | 47.66659 | 12.35256 | 69° | 20km/h | 30876m | 4.0m/s | -42.7°C | 2.6% | 10.6hPa | 2.6V | 00:00:00 | 02:00:16 | 00:00:00 | |
| DO3MHA-11 | 2026-09-04 00:32:03 | 47.66656 | 12.35236 | 84° | 16km/h | 30866m | 6.7m/s | -42.7°C | 2.6% | 10.6hPa | 2.5V | 00:00:00 | 02:00:14 | 00:00:00 | |
| DF7PN | 2026-09-04 00:31:59 | 47.66655 | 12.35227 | 356° | 2km/h | 30841m | 4.6m/s | -42.7°C | 0.7% | 10.7hPa | 2.5V | 00:00:00 | 00:00:00 | 00:00:00 | |
| DL1ZP-14 | 2026-09-04 00:31:49 | 47.66603 | 12.35167 | 59° | 18km/h | 30786m | 6.9m/s | -42.5°C | 0.7% | 10.8hPa | 2.5V | 00:00:00 | 00:00:00 | 00:00:00 | |
| OE5DRO-10 | 2026-09-04 00:31:48 | 47.66601 | 12.35161 | 82° | 24km/h | 30779m | 6.1m/s | -42.5°C | 2.6% | 10.7hPa | 2.6V | 00:00:00 | 00:00:00 | 00:00:00 | |
| OE5MMP-10 | 2026-09-04 00:31:47 | 47.66601 | 12.35156 | 102° | 26km/h | 30774m | 4.7m/s | -42.4°C | 2.6% | 10.7hPa | 2.6V | 00:00:00 | 01:59:58 | 00:00:00 | |
| OE5HKT-10 | 2026-09-04 00:31:45 | 47.66602 | 12.35152 | 10° | 27km/h | 30764m | 5.5m/s | -42.4°C | 2.6% | 10.8hPa | 2.6V | 00:00:00 | 00:00:00 | 00:00:00 | |
| DK5PH-5 | 2026-09-04 00:31:43 | 47.66596 | 12.35154 | 350° | 27km/h | 30753m | 4.9m/s | -42.3°C | 2.6% | 10.8hPa | 2.6V | 00:00:00 | 01:59:54 | 00:00:00 | |
| DG1MFX-10 | 2026-09-04 00:31:41 | 47.66589 | 12.35155 | 360° | 31km/h | 30748m | 5.4m/s | -42.3°C | 0.7% | 10.8hPa | 2.6V | 00:00:00 | 00:00:00 | 00:00:00 | |
| DL6DJ-15 | 2026-09-04 00:31:40 | 47.66571 | 12.35150 | 18° | 42km/h | 30736m | 6.6m/s | -42.3°C | 0.7% | 10.8hPa | 2.6V | 00:00:00 | 00:00:00 | 00:00:00 | |
| DO8TBO-1 | 2026-09-04 00:31:39 | 47.66560 | 12.35144 | 28° | 24km/h | 30730m | 5.8m/s | 0°C | 0% | 0hPa | 2.6V | 00:00:00 | 01:59:50 | 00:00:00 | |
| DF3TZ-5 | 2026-09-04 00:31:38 | 47.66542 | 12.35127 | 35° | 38km/h | 30720m | 4.7m/s | -42.2°C | 0.7% | 10.9hPa | 2.6V | 00:00:00 | 00:00:00 | 00:00:00 | |
| PETON7-10 | 2026-09-04 00:31:37 | 47.66542 | 12.35127 | 36° | 26km/h | 30720m | 4.6m/s | -42.2°C | 2.5% | 10.8hPa | 2.6V | 00:00:00 | 00:00:00 | 00:00:00 | |
| OE5FHM-15 | 2026-09-04 00:31:36 | 47.66535 | 12.35120 | 33° | 24km/h | 30714m | 5.4m/s | -42.1°C | 2.6% | 10.8hPa | 2.6V | 00:00:00 | 01:59:47 | 00:00:00 | |
| OE8JPQ-2 | 2026-09-04 00:31:35 | 47.66529 | 12.35114 | 26° | 24km/h | 30709m | 5.8m/s | -42.1°C | 2.6% | 10.8hPa | 2.6V | 00:00:00 | 01:59:46 | 00:00:00 | |
| OE5DXL-15 | 2026-09-04 00:31:34 | 47.66519 | 12.35112 | 355° | 24km/h | 30697m | 5.3m/s | -42.0°C | 2.5% | 10.9hPa | 2.6V | 00:00:00 | 00:00:00 | 08:30:00 | |
| DO3MHA-11 | 2026-09-04 00:31:33 | 47.66519 | 12.35112 | 355° | 26km/h | 30697m | 5.3m/s | -42.0°C | 2.5% | 10.9hPa | 2.5V | 00:00:00 | 01:59:44 | 00:00:00 | |
| IN3HCDX | 2026-09-04 00:31:31 | 47.66515 | 12.35113 | 348° | 15km/h | 30692m | 5.3m/s | -42.1°C | 0.7% | 10.9hPa | 2.5V | 00:00:00 | 00:00:00 | 00:00:00 | |
| DB0UT-7 | 2026-09-04 00:31:30 | 47.66507 | 12.35114 | 1° | 24km/h | 30680m | 5.5m/s | -42.0°C | 2.5% | 10.9hPa | 2.5V | 00:00:00 | 01:59:41 | 00:00:00 | |
| DF7PN | 2026-09-04 00:31:29 | 47.66496 | 12.35113 | 5° | 27km/h | 30670m | 5.3m/s | -42.1°C | 0.7% | 10.9hPa | 2.5V | 00:00:00 | 00:00:00 | 00:00:00 | |
| OE5HKT-10 | 2026-09-04 00:31:24 | 47.66463 | 12.35109 | 8° | 24km/h | 30649m | 4.7m/s | -42.1°C | 2.5% | 10.9hPa | 2.5V | 00:00:00 | 01:59:35 | 00:00:00 | |
| DO3MHA-11 | 2026-09-04 00:31:23 | 47.66456 | 12.35106 | 16° | 26km/h | 30644m | 5.3m/s | -42.1°C | 2.6% | 10.9hPa | 2.5V | 00:00:00 | 01:59:34 | 00:00:00 | |
| PETON7-10 | 2026-09-04 00:31:22 | 47.66449 | 12.35103 | 27° | 24km/h | 30638m | 5.6m/s | -42.2°C | 2.5% | 11.0hPa | 2.5V | 00:00:00 | 00:00:00 | 00:00:00 | |
| DG1MFX-10 | 2026-09-04 00:31:21 | 47.66444 | 12.35098 | 36° | 24km/h | 30633m | 4.9m/s | -42.2°C | 0.7% | 11.0hPa | 2.5V | 00:00:00 | 00:00:00 | 00:00:00 | |
| OE5WHR-10 | 2026-09-04 00:31:15 | 47.66412 | 12.35098 | 325° | 22km/h | 30602m | 4.7m/s | -42.1°C | 2.6% | 11.0hPa | 2.5V | 00:00:00 | 00:00:00 | 00:00:00 | |
| DK5PH-5 | 2026-09-04 00:31:13 | 47.66400 | 12.35110 | 331° | 18km/h | 30593m | 4.6m/s | -42.1°C | 2.5% | 11.0hPa | 2.6V | 00:00:00 | 01:59:24 | 08:30:00 | |
| DL6DJ-15 | 2026-09-04 00:31:10 | 47.66381 | 12.35104 | 37° | 26km/h | 30572m | 5.1m/s | -42.2°C | 0.7% | 11.1hPa | 2.6V | 00:00:00 | 00:00:00 | 00:00:00 | |
| PETON7-10 | 2026-09-04 00:31:07 | 47.66369 | 12.35093 | 25° | 20km/h | 30562m | 4.5m/s | -42.1°C | 2.5% | 11.1hPa | 2.6V | 00:00:00 | 01:59:18 | 00:00:00 | |
| OE5FHM-15 | 2026-09-04 00:31:06 | 47.66364 | 12.35090 | 10° | 18km/h | 30558m | 4.9m/s | -42.1°C | 2.5% | 11.1hPa | 2.6V | 00:00:00 | 01:59:17 | 00:00:00 | |
| DO3MHA-11 | 2026-09-04 00:31:03 | 47.66352 | 12.35097 | 312° | 20km/h | 30541m | 4.9m/s | -42.2°C | 2.5% | 11.1hPa | 2.6V | 00:00:00 | 01:59:14 | 00:00:00 | |
| DB0ND-19 | 2026-09-04 00:30:59 | 47.66338 | 12.35110 | 350° | 22km/h | 30521m | 5.5m/s | -42.2°C | 0.7% | 11.2hPa | 2.6V | 00:00:00 | 00:00:00 | 00:00:00 | |
| DF7PN | 2026-09-04 00:30:58 | 47.66325 | 12.35110 | 4° | 27km/h | 30511m | 4.6m/s | -42.2°C | 0.7% | 11.2hPa | 2.6V | 00:00:00 | 00:00:00 | 00:00:00 | |
| DL1ZP-14 | 2026-09-04 00:30:47 | 47.66288 | 12.35103 | 1° | 22km/h | 30458m | 5.1m/s | -42.3°C | 0.7% | 11.3hPa | 2.6V | 00:00:00 | 00:00:00 | 00:00:00 | |
| DO3MHA-11 | 2026-09-04 00:30:43 | 47.66266 | 12.35101 | 7° | 13km/h | 30437m | 5.0m/s | -42.3°C | 2.5% | 11.3hPa | 2.6V | 00:00:00 | 01:58:54 | 00:00:00 | |
| OE5HKT-10 | 2026-09-04 00:30:42 | 47.66260 | 12.35100 | 8° | 13km/h | 30431m | 6.1m/s | -42.3°C | 2.5% | 11.3hPa | 2.5V | 00:00:00 | 00:00:00 | 00:00:00 | |
| DL6DJ-15 | 2026-09-04 00:30:39 | 47.66241 | 12.35095 | 10° | 7km/h | 30411m | 6.5m/s | -42.4°C | 0.7% | 11.4hPa | 2.5V | 00:00:00 | 00:00:00 | 00:00:00 | |
| PETON7-10 | 2026-09-04 00:30:37 | 47.66239 | 12.35095 | 11° | 13km/h | 30404m | 5.7m/s | -42.3°C | 2.5% | 11.4hPa | 2.5V | 00:00:00 | 00:00:00 | 00:00:00 | |
| DF3TZ-5 | 2026-09-04 00:30:36 | 47.66239 | 12.35095 | 18° | 0km/h | 30394m | 4.9m/s | -42.4°C | 0.7% | 11.4hPa | 2.5V | 00:00:00 | 00:00:00 | 00:00:00 | |
| OE5MMP-10 | 2026-09-04 00:30:35 | 47.66238 | 12.35095 | 13° | 15km/h | 30389m | 5.9m/s | -42.4°C | 2.5% | 11.4hPa | 2.5V | 00:00:00 | 01:58:45 | 00:00:00 | |
| OE5WHR-10 | 2026-09-04 00:30:34 | 47.66235 | 12.35093 | 14° | 16km/h | 30383m | 5.5m/s | -42.4°C | 2.5% | 11.4hPa | 2.5V | 00:00:00 | 01:58:44 | 00:00:00 | |
| OE8JPQ-2 | 2026-09-04 00:30:32 | 47.66231 | 12.35092 | 14° | 20km/h | 30378m | 4.7m/s | -42.4°C | 2.6% | 11.4hPa | 2.5V | 00:00:00 | 01:58:43 | 00:00:00 | |
| DB0UT-7 | 2026-09-04 00:30:30 | 47.66221 | 12.35088 | 13° | 13km/h | 30368m | 5.6m/s | -42.5°C | 2.5% | 11.4hPa | 2.5V | 00:00:00 | 01:58:41 | 00:00:00 | |
| DO8TBO-1 | 2026-09-04 00:30:29 | 47.66216 | 12.35087 | 10° | 16km/h | 30362m | 5.3m/s | 0°C | 0% | 0hPa | 2.6V | 00:00:00 | 01:58:40 | 00:00:00 | |
| IN3HCDX | 2026-09-04 00:30:28 | 47.66212 | 12.35086 | 5° | 16km/h | 30357m | 4.8m/s | -42.6°C | 0.7% | 11.5hPa | 2.6V | 00:00:00 | 00:00:00 | 00:00:00 | |
| DF7PN | 2026-09-04 00:30:26 | 47.66204 | 12.35087 | 351° | 13km/h | 30347m | 5.4m/s | -42.6°C | 0.7% | 11.5hPa | 2.6V | 00:00:00 | 00:00:00 | 00:00:00 | |
| OE5MMP-10 | 2026-09-04 00:30:23 | 47.66194 | 12.35089 | 355° | 15km/h | 30332m | 4.5m/s | -42.8°C | 2.6% | 11.5hPa | 2.6V | 00:00:00 | 01:58:34 | 08:30:00 | |
| PETON7-10 | 2026-09-04 00:30:22 | 47.66192 | 12.35089 | 13° | 13km/h | 30327m | 5.5m/s | -42.8°C | 2.6% | 11.5hPa | 2.5V | 00:00:00 | 01:58:33 | 00:00:00 | |
| OE5HKT-10 | 2026-09-04 00:30:21 | 47.66192 | 12.35088 | 103° | 13km/h | 30321m | 6.2m/s | -42.9°C | 2.6% | 11.5hPa | 2.5V | 00:00:00 | 01:58:32 | 00:00:00 | |
| DG1MFX-10 | 2026-09-04 00:30:19 | 47.66192 | 12.35086 | 113° | 9km/h | 30315m | 5.2m/s | -42.9°C | 0.7% | 11.6hPa | 2.5V | 00:00:00 | 00:00:00 | 00:00:00 | |
| DL1ZP-14 | 2026-09-04 00:30:17 | 47.66186 | 12.35051 | 49° | 26km/h | 30289m | 4.1m/s | -43.0°C | 0.7% | 11.6hPa | 2.5V | 00:00:00 | 00:00:00 | 00:00:00 | |
| OE5MMP-10 | 2026-09-04 00:30:13 | 47.66178 | 12.35039 | 37° | 9km/h | 30279m | 5.5m/s | -43.0°C | 2.7% | 11.6hPa | 2.6V | 00:00:00 | 01:58:24 | 00:00:00 | |
| OE5WHR-10 | 2026-09-04 00:30:12 | 47.66175 | 12.35036 | 31° | 9km/h | 30273m | 5.5m/s | -43.0°C | 2.6% | 11.6hPa | 2.6V | 00:00:00 | 00:00:00 | 08:30:00 | |
| PETON7-10 | 2026-09-04 00:30:07 | 47.66175 | 12.35039 | 331° | 9km/h | 30247m | 5.3m/s | -43.1°C | 2.7% | 11.7hPa | 2.6V | 00:00:00 | 00:00:00 | 00:00:00 | |
| OE5FHM-15 | 2026-09-04 00:30:06 | 47.66174 | 12.35039 | 19° | 11km/h | 30242m | 4.6m/s | -43.1°C | 2.7% | 11.7hPa | 2.5V | 00:00:00 | 01:58:17 | 00:00:00 | |
| DF3TZ-5 | 2026-09-04 00:30:05 | 47.66171 | 12.35036 | 56° | 7km/h | 30232m | 5.3m/s | -43.1°C | 0.7% | 11.7hPa | 2.5V | 00:00:00 | 00:00:00 | 00:00:00 | |
| DB0ND-19 | 2026-09-04 00:29:57 | 47.66169 | 12.35005 | 80° | 9km/h | 30194m | 4.1m/s | -43.2°C | -1.0% | -1.0hPa | 2.5V | 00:00:00 | 00:00:00 | 00:00:00 | |
| DF7PN | 2026-09-04 00:29:55 | 47.66170 | 12.35000 | 153° | 5km/h | 30184m | 6.3m/s | -43.1°C | 0.7% | 11.8hPa | 2.5V | 00:00:00 | 00:00:00 | 00:00:00 | |
| DO3MHA-11 | 2026-09-04 00:29:53 | 47.66174 | 12.35001 | 200° | 9km/h | 30172m | 4.9m/s | -43.1°C | 2.7% | 11.8hPa | 2.5V | 00:00:00 | 01:58:04 | 00:00:00 | |
| PETON7-10 | 2026-09-04 00:29:52 | 47.66177 | 12.35003 | 204° | 11km/h | 30168m | 4.3m/s | -43.1°C | 2.7% | 11.8hPa | 2.5V | 00:00:00 | 00:00:00 | 00:00:00 | |
| OE5WHR-10 | 2026-09-04 00:29:51 | 47.66180 | 12.35005 | 205° | 11km/h | 30163m | 5.5m/s | -43.1°C | 2.6% | 11.8hPa | 2.5V | 00:00:00 | 00:00:00 | 00:00:00 | |
| OE8JPQ-2 | 2026-09-04 00:29:50 | 47.66182 | 12.35006 | 200° | 13km/h | 30157m | 5.7m/s | -43.1°C | 2.7% | 11.8hPa | 2.5V | 00:00:00 | 00:00:00 | 00:00:00 | |
| IN3HCDX | 2026-09-04 00:29:46 | 47.66184 | 12.34999 | 116° | 9km/h | 30136m | 5.8m/s | -43.0°C | 0.7% | 11.9hPa | 2.5V | 00:00:00 | 00:00:00 | 00:00:00 | |
| BAUMI2-15 | 2026-09-04 00:29:45 | 47.66185 | 12.34996 | 128° | 13km/h | 30130m | 5.2m/s | -42.9°C | 2.6% | 11.9hPa | 2.5V | 00:00:00 | 01:57:56 | 00:00:00 | |
| OE5MMP-10 | 2026-09-04 00:29:41 | 47.66193 | 12.34978 | 111° | 13km/h | 30109m | 5.4m/s | -43.0°C | 2.6% | 11.9hPa | 2.5V | 00:00:00 | 01:57:52 | 00:00:00 | |
| BAUMI2-15 | 2026-09-04 00:29:40 | 47.66194 | 12.34973 | 117° | 15km/h | 30104m | 4.8m/s | -43.0°C | 2.6% | 11.9hPa | 2.5V | 00:00:00 | 01:57:51 | 00:00:00 | |
| OE5HKT-10 | 2026-09-04 00:29:39 | 47.66196 | 12.34969 | 130° | 16km/h | 30099m | 5.2m/s | -43.0°C | 2.6% | 11.9hPa | 2.5V | 00:00:00 | 00:00:00 | 00:00:00 | |
| DG1MFX-10 | 2026-09-04 00:29:38 | 47.66196 | 12.34969 | 131° | 15km/h | 30099m | 5.3m/s | -43.0°C | 0.7% | 12.0hPa | 2.5V | 00:00:00 | 00:00:00 | 00:00:00 | |
| PETON7-10 | 2026-09-04 00:29:37 | 47.66202 | 12.34962 | 156° | 16km/h | 30087m | 5.2m/s | -43.1°C | 2.6% | 11.9hPa | 2.5V | 00:00:00 | 01:57:48 | 00:00:00 | |
| OE5FHM-15 | 2026-09-04 00:29:36 | 47.66206 | 12.34960 | 155° | 18km/h | 30082m | 4.7m/s | -43.1°C | 2.6% | 12.0hPa | 2.5V | 00:00:00 | 01:57:47 | 00:00:00 | |
| BAUMI2-15 | 2026-09-04 00:29:35 | 47.66208 | 12.34958 | 140° | 15km/h | 30077m | 5.7m/s | -43.2°C | 2.6% | 12.0hPa | 2.5V | 00:00:00 | 01:57:46 | 00:00:00 | |
| DF3TZ-5 | 2026-09-04 00:29:34 | 47.66209 | 12.34951 | 73° | 11km/h | 30065m | 5.6m/s | -43.4°C | 0.7% | 12.0hPa | 2.5V | 00:00:00 | 00:00:00 | 00:00:00 | |
| DO3MHA-11 | 2026-09-04 00:29:33 | 47.66209 | 12.34951 | 74° | 18km/h | 30065m | 5.5m/s | -43.3°C | 2.7% | 12.0hPa | 2.5V | 00:00:00 | 01:57:44 | 00:00:00 | |
| OE5MMP-10 | 2026-09-04 00:29:30 | 47.66205 | 12.34933 | 82° | 18km/h | 30049m | 5.9m/s | -43.4°C | 2.7% | 12.0hPa | 2.5V | 00:00:00 | 01:57:41 | 00:00:00 | |
| BAUMI2-15 | 2026-09-04 00:29:29 | 47.66205 | 12.34926 | 93° | 18km/h | 30044m | 5.1m/s | -43.3°C | 2.6% | 12.0hPa | 2.5V | 00:00:00 | 01:57:40 | 08:30:00 | |
| DB0ND-19 | 2026-09-04 00:29:26 | 47.66207 | 12.34905 | 95° | 16km/h | 30027m | 5.8m/s | -43.5°C | -1.0% | -1.0hPa | 2.6V | 00:00:00 | 00:00:00 | 00:00:00 | |
| IN3HCDX | 2026-09-04 00:29:25 | 47.66207 | 12.34899 | 97° | 18km/h | 30022m | 5.0m/s | -43.5°C | 0.7% | 12.1hPa | 2.6V | 00:00:00 | 00:00:00 | 00:00:00 | |
| BAUMI2-15 | 2026-09-04 00:29:24 | 47.66208 | 12.34892 | 103° | 16km/h | 30017m | 5.1m/s | -43.5°C | 2.6% | 12.1hPa | 2.6V | 00:00:00 | 01:57:35 | 00:00:00 | |
| DO8TBO-1 | 2026-09-04 00:29:23 | 47.66209 | 12.34886 | 113° | 22km/h | 30011m | 6.3m/s | 0°C | 0% | 0hPa | 2.6V | 00:00:00 | 01:57:34 | 00:00:00 | |
| PETON7-10 | 2026-09-04 00:29:22 | 47.66211 | 12.34881 | 121° | 18km/h | 30005m | 5.9m/s | -43.5°C | 2.6% | 12.1hPa | 2.6V | 00:00:00 | 00:00:00 | 00:00:00 | |
| BIOWL1-15 | 2026-09-04 00:29:05 | 47.66213 | 12.34758 | 88° | 24km/h | 29909m | 5.2m/s | 0°C | 0% | 0hPa | 2.5V | 18:12:15 | 01:57:15 | 00:00:00 | |
| BAUMI2-15 | 2026-09-04 00:29:04 | 47.66213 | 12.34758 | 89° | 26km/h | 29910m | 5.2m/s | -43.8°C | 2.8% | 12.3hPa | 2.5V | 00:00:00 | 01:57:15 | 00:00:00 | |
| DF3TZ-5 | 2026-09-04 00:29:03 | 47.66211 | 12.34739 | 78° | 26km/h | 29900m | 5.4m/s | -43.8°C | 0.7% | 12.4hPa | 2.5V | 00:00:00 | 00:00:00 | 00:00:00 | |
| DB0ND-19 | 2026-09-04 00:28:55 | 47.66210 | 12.34678 | 123° | 22km/h | 29861m | 4.8m/s | 0°C | -1.0% | -1.0hPa | 2.5V | 00:00:00 | 00:00:00 | 00:00:00 | |
| BAUMI2-15 | 2026-09-04 00:28:54 | 47.66213 | 12.34670 | 119° | 24km/h | 29856m | 4.9m/s | -43.7°C | 2.8% | 12.4hPa | 2.5V | 00:00:00 | 01:57:05 | 00:00:00 | |
| DO3MHA-11 | 2026-09-04 00:28:53 | 47.66215 | 12.34662 | 107° | 26km/h | 29851m | 5.9m/s | -43.7°C | 2.7% | 12.4hPa | 2.5V | 00:00:00 | 01:57:04 | 00:00:00 | |
| PETON7-10 | 2026-09-04 00:28:52 | 47.66216 | 12.34654 | 90° | 27km/h | 29845m | 5.3m/s | -43.7°C | 2.7% | 12.4hPa | 2.5V | 00:00:00 | 01:57:03 | 00:00:00 | |
| OE8JPQ-2 | 2026-09-04 00:28:50 | 47.66214 | 12.34636 | 75° | 27km/h | 29834m | 5.8m/s | -43.6°C | 2.8% | 12.4hPa | 2.5V | 00:00:00 | 00:00:00 | 00:00:00 | |
| BAUMI2-15 | 2026-09-04 00:28:49 | 47.66212 | 12.34626 | 74° | 26km/h | 29828m | 6.1m/s | -43.6°C | 2.7% | 12.4hPa | 2.5V | 00:00:00 | 01:57:00 | 00:00:00 | |
| OE5WHR-10 | 2026-09-04 00:28:48 | 47.66210 | 12.34617 | 77° | 26km/h | 29823m | 5.2m/s | -43.6°C | 2.7% | 12.4hPa | 2.5V | 00:00:00 | 00:00:00 | 00:00:00 | |
| BAUMI2-15 | 2026-09-04 00:28:44 | 47.66204 | 12.34576 | 79° | 29km/h | 29801m | 5.5m/s | -43.6°C | 2.7% | 12.5hPa | 2.5V | 00:00:00 | 01:56:55 | 08:30:00 | |
| IN3HCDX | 2026-09-04 00:28:43 | 47.66203 | 12.34565 | 85° | 29km/h | 29796m | 4.7m/s | -43.6°C | 0.7% | 12.5hPa | 2.6V | 00:00:00 | 00:00:00 | 00:00:00 | |
| OE5MMP-10 | 2026-09-04 00:28:40 | 47.66206 | 12.34536 | 114° | 27km/h | 29779m | 5.4m/s | -43.6°C | 2.7% | 12.5hPa | 2.6V | 00:00:00 | 01:56:51 | 00:00:00 | |
| BAUMI2-15 | 2026-09-04 00:28:39 | 47.66208 | 12.34527 | 114° | 29km/h | 29774m | 4.5m/s | -43.6°C | 2.7% | 12.5hPa | 2.6V | 00:00:00 | 01:56:50 | 00:00:00 | |
| NBG1-10 | 2026-09-04 00:28:38 | 47.66210 | 12.34519 | 107° | 27km/h | 29769m | 5.1m/s | -43.6°C | 2.7% | 12.6hPa | 2.6V | 00:00:00 | 01:56:49 | 00:00:00 | |
| PETON7-10 | 2026-09-04 00:28:37 | 47.66211 | 12.34509 | 94° | 27km/h | 29764m | 5.8m/s | -43.6°C | 2.7% | 12.6hPa | 2.6V | 00:00:00 | 00:00:00 | 08:30:00 | |
| OE5HKT-10 | 2026-09-04 00:28:36 | 47.66211 | 12.34499 | 80° | 29km/h | 29758m | 5.3m/s | -43.6°C | 2.7% | 12.6hPa | 2.6V | 00:00:00 | 00:00:00 | 00:00:00 | |
| DL6DJ-15 | 2026-09-04 00:28:34 | 47.66206 | 12.34477 | 65° | 29km/h | 29748m | 5.0m/s | -43.6°C | 0.7% | 12.7hPa | 2.6V | 00:00:00 | 00:00:00 | 00:00:00 | |
| DO3MHA-11 | 2026-09-04 00:28:33 | 47.66203 | 12.34467 | 64° | 26km/h | 29742m | 6.1m/s | -43.6°C | 2.7% | 12.6hPa | 2.6V | 00:00:00 | 01:56:44 | 00:00:00 | |
| DF3TZ-5 | 2026-09-04 00:28:32 | 47.66197 | 12.34451 | 60° | 20km/h | 29731m | 5.2m/s | -43.7°C | 0.7% | 12.7hPa | 2.6V | 00:00:00 | 00:00:00 | 00:00:00 | |
| OE5DXL-15 | 2026-09-04 00:28:30 | 47.66194 | 12.34445 | 61° | 29km/h | 29726m | 4.8m/s | -43.7°C | 2.7% | 12.6hPa | 2.6V | 00:00:00 | 00:00:00 | 00:00:00 | |
| BAUMI2-15 | 2026-09-04 00:28:28 | 47.66189 | 12.34431 | 61° | 27km/h | 29715m | 6.1m/s | -43.7°C | 2.7% | 12.7hPa | 2.6V | 00:00:00 | 01:56:39 | 00:00:00 | |
| OE5WHR-10 | 2026-09-04 00:28:27 | 47.66186 | 12.34422 | 64° | 29km/h | 29709m | 5.4m/s | -43.7°C | 2.7% | 12.7hPa | 2.5V | 00:00:00 | 01:56:38 | 00:00:00 | |
| DB0ND-19 | 2026-09-04 00:28:24 | 47.66180 | 12.34392 | 86° | 29km/h | 29693m | 6.3m/s | 0°C | -1.0% | -1.0hPa | 2.5V | 00:00:00 | 00:00:00 | 00:00:00 | |
| DO3MHA-11 | 2026-09-04 00:28:23 | 47.66180 | 12.34381 | 95° | 31km/h | 29687m | 6.0m/s | -43.7°C | 2.7% | 12.7hPa | 2.5V | 00:00:00 | 01:56:34 | 00:00:00 | |
| IN3HCDX | 2026-09-04 00:28:22 | 47.66181 | 12.34370 | 98° | 29km/h | 29681m | 5.1m/s | -43.8°C | 0.7% | 12.8hPa | 2.5V | 00:00:00 | 00:00:00 | 00:00:00 | |
| OE5MMP-10 | 2026-09-04 00:28:20 | 47.66181 | 12.34347 | 84° | 31km/h | 29671m | 6.1m/s | -43.7°C | 2.7% | 12.8hPa | 2.5V | 00:00:00 | 01:56:31 | 00:00:00 | |
| BAUMI2-15 | 2026-09-04 00:28:18 | 47.66176 | 12.34322 | 67° | 31km/h | 29659m | 5.0m/s | -43.7°C | 2.7% | 12.8hPa | 2.6V | 00:00:00 | 01:56:29 | 00:00:00 | |
| OE5DRO-10 | 2026-09-04 00:28:16 | 47.66169 | 12.34299 | 63° | 27km/h | 29649m | 5.8m/s | -43.7°C | 2.7% | 12.8hPa | 2.6V | 00:00:00 | 00:00:00 | 00:00:00 | |
| OE5HKT-10 | 2026-09-04 00:28:15 | 47.66165 | 12.34289 | 66° | 27km/h | 29643m | 5.7m/s | -43.7°C | 2.7% | 12.8hPa | 2.6V | 00:00:00 | 01:56:26 | 00:00:00 | |
| DO3MHA-11 | 2026-09-04 00:28:13 | 47.66160 | 12.34271 | 71° | 27km/h | 29633m | 5.5m/s | -43.8°C | 2.7% | 12.8hPa | 2.6V | 00:00:00 | 01:56:24 | 08:30:00 | |
| OE5MMP-10 | 2026-09-04 00:28:10 | 47.66153 | 12.34243 | 68° | 29km/h | 29615m | 5.1m/s | -43.8°C | 2.7% | 12.8hPa | 2.5V | 00:00:00 | 01:56:21 | 00:00:00 | |
| BAUMI2-15 | 2026-09-04 00:28:08 | 47.66149 | 12.34224 | 74° | 27km/h | 29604m | 6.3m/s | -43.9°C | 2.7% | 12.9hPa | 2.5V | 00:00:00 | 01:56:19 | 00:00:00 | |
| PETON7-10 | 2026-09-04 00:28:07 | 47.66147 | 12.34216 | 74° | 29km/h | 29598m | 5.1m/s | -43.9°C | 2.7% | 12.9hPa | 2.5V | 00:00:00 | 01:56:18 | 00:00:00 | |
| OE5WHR-10 | 2026-09-04 00:28:06 | 47.66145 | 12.34207 | 69° | 27km/h | 29593m | 4.6m/s | -43.9°C | 2.8% | 12.9hPa | 2.5V | 00:00:00 | 00:00:00 | 00:00:00 | |
| NBG1-10 | 2026-09-04 00:28:05 | 47.66142 | 12.34197 | 64° | 26km/h | 29588m | 6.2m/s | -43.9°C | 2.7% | 12.9hPa | 2.5V | 00:00:00 | 01:56:16 | 00:00:00 | |
| DO3MHA-11 | 2026-09-04 00:28:03 | 47.66134 | 12.34175 | 58° | 27km/h | 29576m | 5.1m/s | -43.9°C | 2.8% | 12.9hPa | 2.5V | 00:00:00 | 01:56:14 | 00:00:00 | |
| DF3TZ-5 | 2026-09-04 00:28:01 | 47.66120 | 12.34145 | 60° | 26km/h | 29559m | 6.0m/s | -43.9°C | 0.7% | 13.0hPa | 2.5V | 00:00:00 | 00:00:00 | 00:00:00 | |
| DF7PN | 2026-09-04 00:27:51 | 47.66080 | 12.34046 | 61° | 18km/h | 29495m | 5.1m/s | -44.0°C | 0.7% | 13.2hPa | 2.5V | 00:00:00 | 00:00:00 | 00:00:00 | |
| OE5MMP-10 | 2026-09-04 00:27:50 | 47.66086 | 12.34058 | 51° | 24km/h | 29506m | 5.3m/s | -43.9°C | 2.7% | 13.1hPa | 2.5V | 00:00:00 | 01:56:01 | 00:00:00 | |
| OE5WHR-10 | 2026-09-04 00:27:45 | 47.66071 | 12.34023 | 58° | 26km/h | 29479m | 5.4m/s | -44.1°C | 2.7% | 13.1hPa | 2.6V | 00:00:00 | 00:00:00 | 00:00:00 | |
| DO3MHA-11 | 2026-09-04 00:27:43 | 47.66062 | 12.34007 | 46° | 24km/h | 29468m | 5.7m/s | -44.2°C | 2.8% | 13.2hPa | 2.6V | 00:00:00 | 01:55:54 | 00:00:00 | |
| OE5MMP-10 | 2026-09-04 00:27:40 | 47.66047 | 12.33990 | 31° | 22km/h | 29451m | 5.0m/s | -44.3°C | 2.8% | 13.2hPa | 2.5V | 00:00:00 | 01:55:51 | 00:00:00 | |
| OE5DRO-10 | 2026-09-04 00:27:38 | 47.66037 | 12.33979 | 42° | 24km/h | 29439m | 5.6m/s | -44.4°C | 2.8% | 13.2hPa | 2.5V | 00:00:00 | 00:00:00 | 00:00:00 | |
| PETON7-10 | 2026-09-04 00:27:37 | 47.66032 | 12.33972 | 50° | 24km/h | 29434m | 4.9m/s | -44.4°C | 2.8% | 13.2hPa | 2.5V | 00:00:00 | 00:00:00 | 00:00:00 | |
| OE5FHM-15 | 2026-09-04 00:27:36 | 47.66029 | 12.33965 | 58° | 20km/h | 29429m | 5.1m/s | -44.4°C | 2.8% | 13.2hPa | 2.5V | 00:00:00 | 01:55:47 | 00:00:00 | |
| DG1MFX-10 | 2026-09-04 00:27:34 | 47.66026 | 12.33958 | 65° | 20km/h | 29424m | 5.8m/s | -44.5°C | 0.8% | 13.3hPa | 2.5V | 00:00:00 | 00:00:00 | 00:00:00 | |
| OE5HKT-10 | 2026-09-04 00:27:33 | 47.66023 | 12.33946 | 72° | 22km/h | 29411m | 5.3m/s | -44.5°C | 2.8% | 13.3hPa | 2.5V | 00:00:00 | 00:00:00 | 00:00:00 | |
| DL6DJ-15 | 2026-09-04 00:27:32 | 47.66022 | 12.33940 | 68° | 16km/h | 29406m | 4.7m/s | -44.5°C | 0.7% | 13.3hPa | 2.5V | 00:00:00 | 00:00:00 | 00:00:00 | |
| NBG1-10 | 2026-09-04 00:27:31 | 47.66019 | 12.33934 | 63° | 20km/h | 29401m | 5.8m/s | 0°C | 0% | 0hPa | 2.5V | 00:00:00 | 01:55:42 | 08:30:00 | |
| DF3TZ-5 | 2026-09-04 00:27:30 | 47.66012 | 12.33918 | 52° | 29km/h | 29389m | 5.2m/s | -44.6°C | 0.7% | 13.4hPa | 2.5V | 00:00:00 | 00:00:00 | 00:00:00 | |
| DB0UT-7 | 2026-09-04 00:27:29 | 47.66012 | 12.33918 | 53° | 18km/h | 29389m | 5.2m/s | -44.6°C | 2.8% | 13.3hPa | 2.5V | 00:00:00 | 01:55:40 | 00:00:00 | |
| OE5WHR-10 | 2026-09-04 00:27:24 | 47.65987 | 12.33881 | 36° | 18km/h | 29363m | 4.6m/s | -44.6°C | 2.8% | 13.4hPa | 2.5V | 00:00:00 | 01:55:35 | 00:00:00 | |
| DO3MHA-11 | 2026-09-04 00:27:23 | 47.65982 | 12.33876 | 37° | 20km/h | 29358m | 5.3m/s | -44.6°C | 2.9% | 13.4hPa | 2.5V | 00:00:00 | 01:55:34 | 00:00:00 | |
| PETON7-10 | 2026-09-04 00:27:22 | 47.65977 | 12.33871 | 39° | 18km/h | 29352m | 6.3m/s | -44.6°C | 2.8% | 13.4hPa | 2.5V | 00:00:00 | 01:55:33 | 00:00:00 | |
| OE5MMP-10 | 2026-09-04 00:27:20 | 47.65968 | 12.33858 | 45° | 18km/h | 29341m | 4.7m/s | -44.6°C | 2.8% | 13.4hPa | 2.5V | 00:00:00 | 01:55:31 | 08:30:00 | |
| OE5DRO-10 | 2026-09-04 00:27:19 | 47.65960 | 12.33846 | 48° | 13km/h | 29331m | 5.9m/s | -44.5°C | 2.8% | 13.4hPa | 2.6V | 00:00:00 | 00:00:00 | 00:00:00 | |
| DK5PH-5 | 2026-09-04 00:27:13 | 47.65946 | 12.33827 | 36° | 11km/h | 29302m | 5.6m/s | -44.4°C | 2.7% | 13.5hPa | 2.6V | 00:00:00 | 01:55:24 | 00:00:00 | |
| OE5HKT-10 | 2026-09-04 00:27:12 | 47.65942 | 12.33823 | 34° | 11km/h | 29296m | 4.7m/s | -44.4°C | 2.8% | 13.5hPa | 2.6V | 00:00:00 | 01:55:23 | 00:00:00 | |
| OE5MMP-10 | 2026-09-04 00:27:10 | 47.65933 | 12.33814 | 32° | 11km/h | 29287m | 5.8m/s | -44.5°C | 2.7% | 13.6hPa | 2.6V | 00:00:00 | 01:55:21 | 00:00:00 | |
| PETON7-10 | 2026-09-04 00:27:07 | 47.65923 | 12.33806 | 34° | 9km/h | 29269m | 5.2m/s | -44.6°C | 2.8% | 13.6hPa | 2.6V | 00:00:00 | 00:00:00 | 00:00:00 | |
| OE5FHM-15 | 2026-09-04 00:27:06 | 47.65921 | 12.33803 | 40° | 7km/h | 29263m | 6.2m/s | -44.6°C | 2.8% | 13.6hPa | 2.6V | 00:00:00 | 01:55:17 | 00:00:00 | |
| OE5WHR-10 | 2026-09-04 00:27:03 | 47.65915 | 12.33794 | 52° | 7km/h | 29247m | 5.3m/s | -44.7°C | 2.8% | 13.6hPa | 2.6V | 00:00:00 | 00:00:00 | 08:30:00 | |
| DL6DJ-15 | 2026-09-04 00:27:01 | 47.65913 | 12.33790 | 73° | 4km/h | 29235m | 5.6m/s | -44.9°C | 0.8% | 13.7hPa | 2.6V | 00:00:00 | 00:00:00 | 00:00:00 | |
| DF3TZ-5 | 2026-09-04 00:26:58 | 47.65912 | 12.33784 | 56° | 9km/h | 29219m | 6.5m/s | -45.0°C | 0.8% | 13.7hPa | 2.6V | 00:00:00 | 00:00:00 | 00:00:00 | |
| DF7PN | 2026-09-04 00:26:49 | 47.65910 | 12.33769 | 87° | 5km/h | 29166m | 5.1m/s | -45.1°C | 0.8% | 13.8hPa | 2.6V | 00:00:00 | 00:00:00 | 00:00:00 | |
| DO3MHA-11 | 2026-09-04 00:26:43 | 47.65910 | 12.33751 | 107° | 5km/h | 29139m | 5.1m/s | -45.0°C | 2.9% | 13.9hPa | 2.6V | 00:00:00 | 01:54:54 | 08:30:00 | |
| OE5WHR-10 | 2026-09-04 00:26:42 | 47.65910 | 12.33749 | 95° | 5km/h | 29134m | 4.9m/s | -45.0°C | 2.9% | 13.9hPa | 2.5V | 00:00:00 | 00:00:00 | 00:00:00 | |
| OE5MMP-10 | 2026-09-04 00:26:40 | 47.65909 | 12.33747 | 25° | 5km/h | 29123m | 6.0m/s | -45.1°C | 2.9% | 13.9hPa | 2.5V | 00:00:00 | 01:54:51 | 00:00:00 | |
| PETON7-10 | 2026-09-04 00:26:37 | 47.65906 | 12.33746 | 260° | 5km/h | 29107m | 6.3m/s | -45.1°C | 2.9% | 13.9hPa | 2.5V | 00:00:00 | 01:54:48 | 00:00:00 | |
| OE5FHM-15 | 2026-09-04 00:26:36 | 47.65906 | 12.33746 | 197° | 7km/h | 29101m | 5.6m/s | -45.1°C | 2.9% | 13.9hPa | 2.5V | 00:00:00 | 01:54:47 | 00:00:00 | |
| DO3MHA-11 | 2026-09-04 00:26:33 | 47.65912 | 12.33745 | 140° | 5km/h | 29086m | 5.5m/s | -45.1°C | 2.9% | 14.0hPa | 2.5V | 00:00:00 | 01:54:44 | 00:00:00 | |
| OE5HKT-10 | 2026-09-04 00:26:30 | 47.65911 | 12.33738 | 54° | 5km/h | 29070m | 5.0m/s | -45.2°C | 2.9% | 14.0hPa | 2.5V | 00:00:00 | 00:00:00 | 00:00:00 | |
| DF3TZ-5 | 2026-09-04 00:26:27 | 47.65908 | 12.33732 | 90° | 2km/h | 29054m | 5.0m/s | -45.3°C | 0.8% | 14.1hPa | 2.5V | 00:00:00 | 00:00:00 | 00:00:00 | |
| NBG1-10 | 2026-09-04 00:26:25 | 47.65908 | 12.33730 | 105° | 7km/h | 29044m | 5.6m/s | 0°C | 0% | 0hPa | 2.5V | 00:00:00 | 01:54:36 | 00:00:00 | |
| DO3MHA-11 | 2026-09-04 00:26:23 | 47.65909 | 12.33727 | 96° | 5km/h | 29033m | 4.8m/s | -45.2°C | 2.9% | 14.1hPa | 2.5V | 00:00:00 | 01:54:34 | 00:00:00 | |
| PETON7-10 | 2026-09-04 00:26:22 | 47.65909 | 12.33724 | 113° | 7km/h | 29028m | 4.6m/s | -45.2°C | 2.9% | 14.1hPa | 2.5V | 00:00:00 | 00:00:00 | 08:30:00 | |
| OE5WHR-10 | 2026-09-04 00:26:21 | 47.65910 | 12.33723 | 142° | 7km/h | 29022m | 6.3m/s | -45.2°C | 2.9% | 14.1hPa | 2.6V | 00:00:00 | 01:54:32 | 00:00:00 | |
| OE5MMP-10 | 2026-09-04 00:26:20 | 47.65911 | 12.33722 | 169° | 7km/h | 29016m | 5.7m/s | -45.2°C | 2.9% | 14.1hPa | 2.6V | 00:00:00 | 01:54:31 | 00:00:00 | |
| DF7PN | 2026-09-04 00:26:18 | 47.65915 | 12.33719 | 106° | 5km/h | 29000m | 6.0m/s | -45.4°C | 0.8% | 14.2hPa | 2.5V | 00:00:00 | 00:00:00 | 00:00:00 | |
| IN3HCDX | 2026-09-04 00:26:16 | 47.65915 | 12.33719 | 108° | 5km/h | 29000m | 6.0m/s | -45.4°C | 0.8% | 14.2hPa | 2.5V | 00:00:00 | 00:00:00 | 00:00:00 | |
| DO3MHA-11 | 2026-09-04 00:26:13 | 47.65916 | 12.33709 | 141° | 7km/h | 28979m | 5.9m/s | -45.4°C | 2.9% | 14.2hPa | 2.5V | 00:00:00 | 01:54:24 | 00:00:00 | |
| DG1MFX-10 | 2026-09-04 00:26:12 | 47.65916 | 12.33709 | 142° | 5km/h | 28979m | 6.0m/s | -45.4°C | 0.8% | 14.3hPa | 2.6V | 00:00:00 | 00:00:00 | 00:00:00 | |
| OE8JPQ-2 | 2026-09-04 00:26:10 | 47.65922 | 12.33706 | 154° | 9km/h | 28963m | 5.5m/s | -45.4°C | 2.9% | 14.2hPa | 2.6V | 00:00:00 | 00:00:00 | 08:30:00 | |
| OE5HKT-10 | 2026-09-04 00:26:09 | 47.65924 | 12.33704 | 132° | 9km/h | 28957m | 6.1m/s | -45.4°C | 2.9% | 14.2hPa | 2.5V | 00:00:00 | 01:54:20 | 00:00:00 | |
| PETON7-10 | 2026-09-04 00:26:07 | 47.65926 | 12.33698 | 110° | 7km/h | 28947m | 4.8m/s | -45.4°C | 2.9% | 14.3hPa | 2.5V | 00:00:00 | 00:00:00 | 00:00:00 | |
| OE5FHM-15 | 2026-09-04 00:26:06 | 47.65927 | 12.33696 | 116° | 11km/h | 28941m | 6.1m/s | -45.4°C | 2.9% | 14.3hPa | 2.5V | 00:00:00 | 01:54:17 | 08:30:00 | |
| DO3MHA-11 | 2026-09-04 00:26:03 | 47.65927 | 12.33693 | 21° | 7km/h | 28925m | 5.2m/s | -45.5°C | 3.0% | 14.3hPa | 2.5V | 00:00:00 | 01:54:14 | 00:00:00 | |
| DL6DJ-15 | 2026-09-04 00:25:59 | 47.65922 | 12.33687 | 70° | 4km/h | 28905m | 4.2m/s | -45.6°C | 0.8% | 14.4hPa | 2.5V | 00:00:00 | 00:00:00 | 00:00:00 | |
| DF3TZ-5 | 2026-09-04 00:25:56 | 47.65926 | 12.33687 | 187° | 11km/h | 28888m | 5.1m/s | -45.6°C | 0.8% | 14.5hPa | 2.5V | 00:00:00 | 00:00:00 | 00:00:00 | |
| DF7PN | 2026-09-04 00:25:47 | 47.65950 | 12.33663 | 85° | 5km/h | 28835m | 6.3m/s | -45.5°C | 0.8% | 14.6hPa | 2.5V | 00:00:00 | 00:00:00 | 00:00:00 | |
| DK5PH-5 | 2026-09-04 00:25:43 | 47.65949 | 12.33654 | 110° | 11km/h | 28820m | 4.4m/s | -45.4°C | 2.9% | 14.6hPa | 2.5V | 00:00:00 | 01:53:54 | 00:00:00 | |
| OE5MMP-10 | 2026-09-04 00:25:40 | 47.65958 | 12.33649 | 178° | 11km/h | 28803m | 4.8m/s | -45.5°C | 2.9% | 14.6hPa | 2.5V | 00:00:00 | 01:53:51 | 00:00:00 | |
| OE5WHR-10 | 2026-09-04 00:25:39 | 47.65963 | 12.33649 | 176° | 11km/h | 28799m | 4.2m/s | -45.5°C | 3.0% | 14.6hPa | 2.5V | 00:00:00 | 00:00:00 | 00:00:00 | |
| BAUMI2-15 | 2026-09-04 00:25:38 | 47.65968 | 12.33648 | 169° | 11km/h | 28794m | 5.1m/s | -45.4°C | 2.9% | 14.6hPa | 2.5V | 00:00:00 | 01:53:49 | 00:00:00 | |
| PETON7-10 | 2026-09-04 00:25:37 | 47.65971 | 12.33646 | 154° | 9km/h | 28789m | 5.5m/s | -45.4°C | 2.9% | 14.6hPa | 2.5V | 00:00:00 | 00:00:00 | 00:00:00 | |
| OE5FHM-15 | 2026-09-04 00:25:36 | 47.65973 | 12.33643 | 118° | 9km/h | 28783m | 4.9m/s | -45.4°C | 2.9% | 14.6hPa | 2.5V | 00:00:00 | 01:53:47 | 00:00:00 | |
| IN3HCDX | 2026-09-04 00:25:34 | 47.65974 | 12.33640 | 77° | 7km/h | 28779m | 4.5m/s | -45.5°C | 0.8% | 14.7hPa | 2.5V | 00:00:00 | 00:00:00 | 00:00:00 | |
| DO3MHA-11 | 2026-09-04 00:25:33 | 47.65972 | 12.33636 | 38° | 9km/h | 28768m | 5.9m/s | -45.4°C | 2.9% | 14.7hPa | 2.5V | 00:00:00 | 01:53:44 | 00:00:00 | |
| DB0UT-7 | 2026-09-04 00:25:32 | 47.65971 | 12.33635 | 18° | 5km/h | 28763m | 5.3m/s | -45.5°C | 2.9% | 14.7hPa | 2.5V | 00:00:00 | 00:00:00 | 00:00:00 | |
| DG1MFX-10 | 2026-09-04 00:25:31 | 47.65971 | 12.33635 | 18° | 4km/h | 28763m | 5.3m/s | -45.5°C | 0.8% | 14.7hPa | 2.6V | 00:00:00 | 00:00:00 | 00:00:00 | |
| OE5MMP-10 | 2026-09-04 00:25:30 | 47.65970 | 12.33634 | 114° | 11km/h | 28754m | 4.2m/s | -45.5°C | 2.9% | 14.7hPa | 2.6V | 00:00:00 | 01:53:41 | 00:00:00 | |
| BAUMI2-15 | 2026-09-04 00:25:28 | 47.65971 | 12.33630 | 110° | 15km/h | 28742m | 6.2m/s | -45.5°C | 3.0% | 14.7hPa | 2.6V | 00:00:00 | 01:53:39 | 00:00:00 | |
| OE5HKT-10 | 2026-09-04 00:25:27 | 47.65972 | 12.33625 | 111° | 11km/h | 28737m | 5.4m/s | -45.5°C | 3.0% | 14.7hPa | 2.5V | 00:00:00 | 00:00:00 | 00:00:00 | |
| DF3TZ-5 | 2026-09-04 00:25:25 | 47.65976 | 12.33615 | 124° | 15km/h | 28726m | 5.6m/s | -45.6°C | 0.8% | 14.8hPa | 2.5V | 00:00:00 | 00:00:00 | 00:00:00 | |
| OE5DRO-10 | 2026-09-04 00:25:24 | 47.65978 | 12.33611 | 141° | 11km/h | 28720m | 6.1m/s | -45.6°C | 3.0% | 14.8hPa | 2.5V | 00:00:00 | 00:00:00 | 00:00:00 | |
| DO3MHA-11 | 2026-09-04 00:25:23 | 47.65981 | 12.33608 | 152° | 9km/h | 28715m | 4.9m/s | -45.6°C | 3.0% | 14.8hPa | 2.5V | 00:00:00 | 01:53:34 | 00:00:00 | |
| PETON7-10 | 2026-09-04 00:25:22 | 47.65983 | 12.33606 | 151° | 11km/h | 28710m | 4.5m/s | -45.6°C | 2.9% | 14.8hPa | 2.5V | 00:00:00 | 00:00:00 | 00:00:00 | |
| OE5MMP-10 | 2026-09-04 00:25:20 | 47.65985 | 12.33602 | 98° | 9km/h | 28699m | 5.8m/s | -45.6°C | 3.0% | 14.8hPa | 2.5V | 00:00:00 | 01:53:31 | 00:00:00 | |
| OE5WHR-10 | 2026-09-04 00:25:18 | 47.65985 | 12.33595 | 77° | 11km/h | 28689m | 4.3m/s | -45.6°C | 3.0% | 14.9hPa | 2.5V | 00:00:00 | 01:53:29 | 00:00:00 | |
| DF7PN | 2026-09-04 00:25:16 | 47.65984 | 12.33587 | 110° | 4km/h | 28673m | 4.9m/s | -45.6°C | 0.8% | 14.9hPa | 2.5V | 00:00:00 | 00:00:00 | 00:00:00 | |
| IN3HCDX | 2026-09-04 00:25:14 | 47.65985 | 12.33584 | 111° | 7km/h | 28668m | 4.5m/s | -45.6°C | 0.8% | 15.0hPa | 2.5V | 00:00:00 | 00:00:00 | 00:00:00 | |
| DK5PH-5 | 2026-09-04 00:25:13 | 47.65985 | 12.33582 | 101° | 9km/h | 28663m | 5.3m/s | -45.5°C | 3.0% | 14.9hPa | 2.5V | 00:00:00 | 01:53:24 | 00:00:00 | |
| DG1MFX-10 | 2026-09-04 00:25:11 | 47.65986 | 12.33572 | 92° | 16km/h | 28652m | 5.3m/s | -45.6°C | 0.8% | 15.0hPa | 2.5V | 00:00:00 | 00:00:00 | 00:00:00 | |
| OE5MMP-10 | 2026-09-04 00:25:10 | 47.65986 | 12.33565 | 93° | 13km/h | 28647m | 5.0m/s | -45.5°C | 3.0% | 14.9hPa | 2.5V | 00:00:00 | 01:53:21 | 00:00:00 | |
| BAUMI2-15 | 2026-09-04 00:25:08 | 47.65987 | 12.33554 | 106° | 11km/h | 28636m | 5.3m/s | -45.5°C | 3.0% | 15.0hPa | 2.5V | 00:00:00 | 01:53:19 | 00:00:00 | |
| PETON7-10 | 2026-09-04 00:25:07 | 47.65988 | 12.33550 | 109° | 9km/h | 28630m | 4.5m/s | -45.6°C | 2.9% | 15.0hPa | 2.5V | 00:00:00 | 01:53:18 | 00:00:00 | |
| OE5DRO-10 | 2026-09-04 00:25:06 | 47.65986 | 12.33533 | 60° | 7km/h | 28609m | 4.5m/s | -45.6°C | 3.0% | 15.1hPa | 2.5V | 00:00:00 | 00:00:00 | 00:00:00 | |
| DO3MHA-11 | 2026-09-04 00:25:03 | 47.65986 | 12.33533 | 60° | 7km/h | 28609m | 4.5m/s | -45.6°C | 3.0% | 15.1hPa | 2.6V | 00:00:00 | 01:53:14 | 00:00:00 | |
| DL6DJ-15 | 2026-09-04 00:24:57 | 47.65981 | 12.33517 | 79° | 9km/h | 28572m | 4.8m/s | -45.6°C | 0.8% | 15.2hPa | 2.6V | 00:00:00 | 00:00:00 | 00:00:00 | |
| DF3TZ-5 | 2026-09-04 00:24:54 | 47.65980 | 12.33510 | 90° | 5km/h | 28562m | 6.1m/s | -45.6°C | 0.8% | 15.2hPa | 2.6V | 00:00:00 | 00:00:00 | 00:00:00 | |
| DO3MHA-11 | 2026-09-04 00:24:53 | 47.65980 | 12.33508 | 102° | 7km/h | 28556m | 5.6m/s | -45.6°C | 3.0% | 15.2hPa | 2.6V | 00:00:00 | 01:53:04 | 00:00:00 | |
| PETON7-10 | 2026-09-04 00:24:52 | 47.65980 | 12.33506 | 93° | 7km/h | 28551m | 5.0m/s | -45.5°C | 3.0% | 15.2hPa | 2.6V | 00:00:00 | 00:00:00 | 00:00:00 | |
| DB0UT-7 | 2026-09-04 00:24:51 | 47.65980 | 12.33505 | 68° | 5km/h | 28545m | 5.1m/s | -45.5°C | 3.0% | 15.2hPa | 2.5V | 00:00:00 | 01:53:02 | 00:00:00 | |
| OE8JPQ-2 | 2026-09-04 00:24:50 | 47.65979 | 12.33503 | 50° | 7km/h | 28540m | 6.1m/s | -45.5°C | 3.0% | 15.2hPa | 2.5V | 00:00:00 | 00:00:00 | 00:00:00 | |
| BAUMI2-15 | 2026-09-04 00:24:48 | 47.65975 | 12.33498 | 32° | 9km/h | 28529m | 4.4m/s | -45.6°C | 3.0% | 15.3hPa | 2.5V | 00:00:00 | 01:52:59 | 00:00:00 | |
| OE5DRO-10 | 2026-09-04 00:24:46 | 47.65967 | 12.33496 | 337° | 5km/h | 28508m | 5.0m/s | -45.6°C | 3.0% | 15.3hPa | 2.5V | 00:00:00 | 00:00:00 | 00:00:00 | |
| DF7PN | 2026-09-04 00:24:45 | 47.65967 | 12.33496 | 336° | 4km/h | 28508m | 5.1m/s | -45.6°C | 0.8% | 15.3hPa | 2.5V | 00:00:00 | 00:00:00 | 00:00:00 | |
| NBG1-10 | 2026-09-04 00:24:44 | 47.65967 | 12.33496 | 337° | 5km/h | 28508m | 5.0m/s | 0°C | 0% | 0hPa | 2.5V | 00:00:00 | 01:52:55 | 00:00:00 | |
| DO3MHA-11 | 2026-09-04 00:24:43 | 47.65966 | 12.33497 | 360° | 5km/h | 28502m | 6.1m/s | -45.6°C | 3.0% | 15.3hPa | 2.5V | 00:00:00 | 01:52:54 | 00:00:00 | |
| OE5MMP-10 | 2026-09-04 00:24:40 | 47.65964 | 12.33491 | 101° | 5km/h | 28486m | 4.5m/s | -45.6°C | 3.0% | 15.4hPa | 2.6V | 00:00:00 | 01:52:51 | 00:00:00 | |
| BAUMI2-15 | 2026-09-04 00:24:38 | 47.65967 | 12.33487 | 155° | 5km/h | 28475m | 6.1m/s | -45.5°C | 3.0% | 15.4hPa | 2.6V | 00:00:00 | 01:52:49 | 00:00:00 | |
| PETON7-10 | 2026-09-04 00:24:37 | 47.65968 | 12.33486 | 170° | 4km/h | 28470m | 4.8m/s | -45.5°C | 3.0% | 15.4hPa | 2.6V | 00:00:00 | 00:00:00 | 00:00:00 | |
| OE5WHR-10 | 2026-09-04 00:24:36 | 47.65969 | 12.33486 | 164° | 5km/h | 28464m | 4.9m/s | -45.4°C | 3.0% | 15.4hPa | 2.6V | 00:00:00 | 00:00:00 | 00:00:00 | |
| DO3MHA-11 | 2026-09-04 00:24:33 | 47.65969 | 12.33483 | 32° | 4km/h | 28448m | 4.9m/s | -45.4°C | 3.0% | 15.4hPa | 2.6V | 00:00:00 | 01:52:44 | 00:00:00 | |
| IN3HCDX | 2026-09-04 00:24:32 | 47.65969 | 12.33483 | 32° | 5km/h | 28448m | 5.0m/s | -45.4°C | 0.8% | 15.5hPa | 2.6V | 00:00:00 | 00:00:00 | 00:00:00 | |
| OE5DXL-15 | 2026-09-04 00:24:30 | 47.65966 | 12.33484 | 306° | 5km/h | 28431m | 4.7m/s | -45.3°C | 3.0% | 15.5hPa | 2.6V | 00:00:00 | 00:00:00 | 00:00:00 | |
| DG1MFX-10 | 2026-09-04 00:24:29 | 47.65966 | 12.33484 | 306° | 5km/h | 28431m | 4.7m/s | -45.4°C | 0.9% | 15.5hPa | 2.6V | 00:00:00 | 00:00:00 | 00:00:00 | |
| BAUMI2-15 | 2026-09-04 00:24:28 | 47.65965 | 12.33486 | 358° | 4km/h | 28421m | 6.1m/s | -45.3°C | 3.0% | 15.5hPa | 2.6V | 00:00:00 | 01:52:39 | 08:30:00 | |
| OE5DRO-10 | 2026-09-04 00:24:27 | 47.65964 | 12.33482 | 111° | 4km/h | 28405m | 4.5m/s | -45.2°C | 3.0% | 15.6hPa | 2.5V | 00:00:00 | 00:00:00 | 00:00:00 | |
| DL6DJ-15 | 2026-09-04 00:24:26 | 47.65964 | 12.33483 | 110° | 2km/h | 28405m | 4.6m/s | -45.3°C | 0.8% | 15.6hPa | 2.5V | 00:00:00 | 00:00:00 | 00:00:00 | |
| OE5HKT-10 | 2026-09-04 00:24:24 | 47.65965 | 12.33482 | 182° | 5km/h | 28400m | 6.0m/s | -45.2°C | 2.9% | 15.6hPa | 2.5V | 00:00:00 | 00:00:00 | 00:00:00 | |
| DO3MHA-11 | 2026-09-04 00:24:23 | 47.65966 | 12.33483 | 217° | 5km/h | 28394m | 5.3m/s | -45.2°C | 3.0% | 15.6hPa | 2.5V | 00:00:00 | 01:52:34 | 00:00:00 | |
| PETON7-10 | 2026-09-04 00:24:22 | 47.65967 | 12.33485 | 229° | 5km/h | 28389m | 4.4m/s | -45.2°C | 2.9% | 15.6hPa | 2.5V | 00:00:00 | 01:52:33 | 00:00:00 | |
| OE5MMP-10 | 2026-09-04 00:24:20 | 47.65969 | 12.33489 | 255° | 5km/h | 28379m | 6.0m/s | -45.2°C | 2.9% | 15.6hPa | 2.5V | 00:00:00 | 01:52:31 | 08:30:00 | |
| DB0UT-7 | 2026-09-04 00:24:19 | 47.65969 | 12.33490 | 340° | 5km/h | 28374m | 5.6m/s | -45.2°C | 2.9% | 15.6hPa | 2.6V | 00:00:00 | 00:00:00 | 00:00:00 | |
| BAUMI2-15 | 2026-09-04 00:24:18 | 47.65968 | 12.33490 | 10° | 5km/h | 28368m | 5.0m/s | -45.2°C | 3.0% | 15.6hPa | 2.6V | 00:00:00 | 01:52:29 | 00:00:00 | |
| OE5WHR-10 | 2026-09-04 00:24:15 | 47.65964 | 12.33491 | 291° | 5km/h | 28352m | 6.1m/s | -45.2°C | 3.0% | 15.7hPa | 2.6V | 00:00:00 | 01:52:26 | 00:00:00 | |
| DO3MHA-11 | 2026-09-04 00:24:13 | 47.65965 | 12.33495 | 245° | 5km/h | 28342m | 5.3m/s | -45.2°C | 3.0% | 15.7hPa | 2.6V | 00:00:00 | 01:52:24 | 00:00:00 | |
| IN3HCDX | 2026-09-04 00:24:12 | 47.65966 | 12.33498 | 236° | 5km/h | 28336m | 6.1m/s | -45.3°C | 0.8% | 15.7hPa | 2.5V | 00:00:00 | 00:00:00 | 00:00:00 | |
| NBG1-10 | 2026-09-04 00:24:11 | 47.65967 | 12.33499 | 212° | 7km/h | 28330m | 5.7m/s | 0°C | 0% | 0hPa | 2.5V | 00:00:00 | 01:52:22 | 00:00:00 | |
| OE8JPQ-2 | 2026-09-04 00:24:10 | 47.65968 | 12.33499 | 195° | 5km/h | 28324m | 4.8m/s | -45.2°C | 2.9% | 15.7hPa | 2.5V | 00:00:00 | 00:00:00 | 00:00:00 | |
| BAUMI2-15 | 2026-09-04 00:24:08 | 47.65970 | 12.33501 | 208° | 5km/h | 28314m | 6.1m/s | -45.1°C | 2.9% | 15.8hPa | 2.5V | 00:00:00 | 01:52:19 | 00:00:00 | |
| PETON7-10 | 2026-09-04 00:24:07 | 47.65972 | 12.33502 | 212° | 5km/h | 28308m | 4.7m/s | -45.1°C | 2.9% | 15.8hPa | 2.5V | 00:00:00 | 00:00:00 | 08:30:00 | |
| OE5FHM-15 | 2026-09-04 00:24:06 | 47.65973 | 12.33503 | 201° | 9km/h | 28304m | 4.5m/s | -45.1°C | 2.9% | 15.8hPa | 2.5V | 00:00:00 | 01:52:17 | 00:00:00 | |
| OE5DRO-10 | 2026-09-04 00:24:05 | 47.65973 | 12.33499 | 69° | 7km/h | 28288m | 4.2m/s | -45.1°C | 2.9% | 15.8hPa | 2.5V | 00:00:00 | 00:00:00 | 08:30:00 | |
| OE5HKT-10 | 2026-09-04 00:24:03 | 47.65973 | 12.33499 | 69° | 7km/h | 28288m | 4.2m/s | -45.1°C | 2.9% | 15.8hPa | 2.5V | 00:00:00 | 01:52:14 | 00:00:00 | |
| DL6DJ-15 | 2026-09-04 00:23:55 | 47.65984 | 12.33492 | 148° | 4km/h | 28240m | 5.8m/s | -45.2°C | 0.8% | 16.0hPa | 2.5V | 00:00:00 | 00:00:00 | 00:00:00 | |
| OE5WHR-10 | 2026-09-04 00:23:54 | 47.65984 | 12.33492 | 149° | 9km/h | 28240m | 5.7m/s | -45.2°C | 2.9% | 15.9hPa | 2.5V | 00:00:00 | 00:00:00 | 08:30:00 | |
| DO3MHA-11 | 2026-09-04 00:23:53 | 47.65985 | 12.33491 | 183° | 7km/h | 28234m | 5.8m/s | -45.2°C | 2.9% | 15.9hPa | 2.5V | 00:00:00 | 01:52:04 | 00:00:00 | |
| PETON7-10 | 2026-09-04 00:23:52 | 47.65986 | 12.33492 | 201° | 11km/h | 28229m | 4.5m/s | -45.2°C | 2.9% | 16.0hPa | 2.5V | 00:00:00 | 00:00:00 | 00:00:00 | |
| IN3HCDX | 2026-09-04 00:23:51 | 47.65987 | 12.33492 | 191° | 2km/h | 28225m | 4.4m/s | -45.2°C | 0.8% | 16.0hPa | 2.5V | 00:00:00 | 00:00:00 | 00:00:00 | |
| OE8JPQ-2 | 2026-09-04 00:23:50 | 47.65987 | 12.33492 | 109° | 13km/h | 28220m | 6.1m/s | -45.2°C | 2.9% | 16.0hPa | 2.5V | 00:00:00 | 00:00:00 | 00:00:00 | |
| DB0UT-7 | 2026-09-04 00:23:49 | 47.65987 | 12.33490 | 91° | 11km/h | 28214m | 5.8m/s | -45.2°C | 2.9% | 16.0hPa | 2.5V | 00:00:00 | 01:52:00 | 08:30:00 | |
| DG1MFX-10 | 2026-09-04 00:23:47 | 47.65987 | 12.33487 | 98° | 9km/h | 28208m | 5.0m/s | -45.2°C | 0.8% | 16.1hPa | 2.6V | 00:00:00 | 00:00:00 | 00:00:00 | |
| OE5DRO-10 | 2026-09-04 00:23:46 | 47.65997 | 12.33477 | 170° | 15km/h | 28186m | 5.0m/s | -45.3°C | 2.9% | 16.1hPa | 2.6V | 00:00:00 | 00:00:00 | 00:00:00 | |
| DO3MHA-11 | 2026-09-04 00:23:43 | 47.66001 | 12.33476 | 169° | 13km/h | 28181m | 4.8m/s | -45.3°C | 2.9% | 16.1hPa | 2.6V | 00:00:00 | 01:51:54 | 08:30:00 | |
| OE5HKT-10 | 2026-09-04 00:23:42 | 47.66006 | 12.33474 | 163° | 13km/h | 28175m | 5.9m/s | -45.3°C | 2.9% | 16.1hPa | 2.5V | 00:00:00 | 00:00:00 | 00:00:00 | |
| OE5MMP-10 | 2026-09-04 00:23:40 | 47.66013 | 12.33469 | 138° | 11km/h | 28165m | 4.5m/s | -45.4°C | 3.0% | 16.1hPa | 2.6V | 00:00:00 | 01:51:51 | 00:00:00 | |
| PETON7-10 | 2026-09-04 00:23:37 | 47.66018 | 12.33463 | 177° | 13km/h | 28149m | 5.5m/s | -45.5°C | 3.0% | 16.2hPa | 2.6V | 00:00:00 | 01:51:48 | 00:00:00 | |
| OE5FHM-15 | 2026-09-04 00:23:36 | 47.66020 | 12.33463 | 185° | 11km/h | 28144m | 4.6m/s | -45.5°C | 3.0% | 16.2hPa | 2.6V | 00:00:00 | 01:51:47 | 00:00:00 | |
| OE5WHR-10 | 2026-09-04 00:23:33 | 47.66027 | 12.33459 | 139° | 13km/h | 28128m | 6.1m/s | -45.4°C | 3.0% | 16.2hPa | 2.6V | 00:00:00 | 00:00:00 | 00:00:00 | |
| OE5MMP-10 | 2026-09-04 00:23:30 | 47.66036 | 12.33443 | 132° | 13km/h | 28112m | 4.8m/s | -45.4°C | 3.0% | 16.3hPa | 2.6V | 00:00:00 | 01:51:41 | 00:00:00 | |
| IN3HCDX | 2026-09-04 00:23:29 | 47.66036 | 12.33443 | 133° | 18km/h | 28112m | 4.8m/s | -45.4°C | 0.8% | 16.3hPa | 2.6V | 00:00:00 | 00:00:00 | 00:00:00 | |
| OE5DRO-10 | 2026-09-04 00:23:27 | 47.66055 | 12.33437 | 181° | 11km/h | 28078m | 5.1m/s | -45.4°C | 3.0% | 16.4hPa | 2.6V | 00:00:00 | 00:00:00 | 00:00:00 | |
| DL6DJ-15 | 2026-09-04 00:23:24 | 47.66058 | 12.33437 | 175° | 11km/h | 28073m | 4.8m/s | -45.4°C | 0.8% | 16.4hPa | 2.6V | 00:00:00 | 00:00:00 | 00:00:00 | |
| DO3MHA-11 | 2026-09-04 00:23:23 | 47.66058 | 12.33437 | 176° | 11km/h | 28074m | 4.7m/s | -45.4°C | 3.0% | 16.4hPa | 2.6V | 00:00:00 | 01:51:34 | 00:00:00 | |
| PETON7-10 | 2026-09-04 00:23:22 | 47.66060 | 12.33437 | 177° | 9km/h | 28068m | 5.9m/s | -45.4°C | 3.0% | 16.4hPa | 2.6V | 00:00:00 | 00:00:00 | 00:00:00 | |
| OE5HKT-10 | 2026-09-04 00:23:21 | 47.66064 | 12.33437 | 178° | 9km/h | 28062m | 5.7m/s | -45.3°C | 3.0% | 16.4hPa | 2.6V | 00:00:00 | 00:00:00 | 00:00:00 | |
| OE5MMP-10 | 2026-09-04 00:23:20 | 47.66067 | 12.33436 | 169° | 9km/h | 28057m | 4.9m/s | -45.3°C | 3.0% | 16.4hPa | 2.6V | 00:00:00 | 01:51:31 | 00:00:00 | |
| DK5PH-5 | 2026-09-04 00:23:13 | 47.66073 | 12.33414 | 213° | 9km/h | 28019m | 5.2m/s | -45.2°C | 2.9% | 16.5hPa | 2.6V | 00:00:00 | 01:51:24 | 00:00:00 | |
| OE5WHR-10 | 2026-09-04 00:23:12 | 47.66074 | 12.33414 | 216° | 9km/h | 28014m | 4.6m/s | -45.2°C | 2.9% | 16.5hPa | 2.6V | 00:00:00 | 01:51:23 | 00:00:00 | |
| DF7PN | 2026-09-04 00:23:11 | 47.66075 | 12.33416 | 201° | 5km/h | 28009m | 5.9m/s | -45.2°C | 0.8% | 16.6hPa | 2.6V | 00:00:00 | 00:00:00 | 00:00:00 | |
| OE8JPQ-2 | 2026-09-04 00:23:10 | 47.66077 | 12.33416 | 173° | 9km/h | 28003m | 6.1m/s | -45.2°C | 2.9% | 16.5hPa | 2.6V | 00:00:00 | 00:00:00 | 08:30:00 | |
| IN3HCDX | 2026-09-04 00:23:08 | 47.66079 | 12.33415 | 154° | 9km/h | 27997m | 5.4m/s | -45.2°C | 0.8% | 16.6hPa | 2.5V | 00:00:00 | 00:00:00 | 00:00:00 | |
| PETON7-10 | 2026-09-04 00:23:07 | 47.66084 | 12.33410 | 148° | 9km/h | 27986m | 5.7m/s | -45.2°C | 2.9% | 16.6hPa | 2.5V | 00:00:00 | 00:00:00 | 00:00:00 | |
| OE5FHM-15 | 2026-09-04 00:23:06 | 47.66086 | 12.33408 | 150° | 11km/h | 27980m | 5.7m/s | -45.2°C | 2.9% | 16.6hPa | 2.5V | 00:00:00 | 01:51:17 | 00:00:00 | |
| DO3MHA-11 | 2026-09-04 00:23:03 | 47.66090 | 12.33401 | 94° | 9km/h | 27966m | 5.8m/s | -45.1°C | 2.9% | 16.6hPa | 2.6V | 00:00:00 | 01:51:14 | 00:00:00 | |
| DL6DJ-15 | 2026-09-04 00:22:53 | 47.66093 | 12.33397 | 65° | 0km/h | 27905m | 5.6m/s | -45.6°C | 0.8% | 16.9hPa | 2.6V | 00:00:00 | 00:00:00 | 00:00:00 | |
| PETON7-10 | 2026-09-04 00:22:52 | 47.66093 | 12.33397 | 66° | 11km/h | 27905m | 5.5m/s | -45.5°C | 2.9% | 16.8hPa | 2.6V | 00:00:00 | 01:51:03 | 00:00:00 | |
| OE5WHR-10 | 2026-09-04 00:22:51 | 47.66092 | 12.33396 | 85° | 15km/h | 27900m | 6.2m/s | -45.5°C | 3.0% | 16.8hPa | 2.6V | 00:00:00 | 00:00:00 | 00:00:00 | |
| OE5MMP-10 | 2026-09-04 00:22:50 | 47.66092 | 12.33393 | 94° | 13km/h | 27893m | 6.4m/s | -45.6°C | 3.0% | 16.8hPa | 2.5V | 00:00:00 | 01:51:01 | 08:30:00 | |
| IN3HCDX | 2026-09-04 00:22:48 | 47.66093 | 12.33385 | 95° | 15km/h | 27882m | 5.0m/s | -45.6°C | 0.8% | 16.9hPa | 2.5V | 00:00:00 | 00:00:00 | 00:00:00 | |
| NBG1-10 | 2026-09-04 00:22:47 | 47.66093 | 12.33380 | 89° | 24km/h | 27877m | 6.1m/s | 0°C | 0% | 0hPa | 2.5V | 00:00:00 | 01:50:58 | 00:00:00 | |
| DG1MFX-10 | 2026-09-04 00:22:45 | 47.66093 | 12.33373 | 84° | 16km/h | 27871m | 5.8m/s | -45.6°C | 0.8% | 16.9hPa | 2.5V | 00:00:00 | 00:00:00 | 00:00:00 | |
| DO3MHA-11 | 2026-09-04 00:22:43 | 47.66093 | 12.33361 | 142° | 16km/h | 27856m | 6.5m/s | -45.6°C | 2.9% | 16.9hPa | 2.5V | 00:00:00 | 01:50:54 | 00:00:00 | |
| OE5MMP-10 | 2026-09-04 00:22:40 | 47.66103 | 12.33362 | 188° | 16km/h | 27840m | 4.3m/s | -45.6°C | 3.0% | 17.0hPa | 2.6V | 00:00:00 | 01:50:51 | 00:00:00 | |
| OE5HKT-10 | 2026-09-04 00:22:39 | 47.66107 | 12.33362 | 175° | 13km/h | 27835m | 5.5m/s | -45.6°C | 2.9% | 17.0hPa | 2.6V | 00:00:00 | 00:00:00 | 00:00:00 | |
| PETON7-10 | 2026-09-04 00:22:37 | 47.66110 | 12.33356 | 99° | 11km/h | 27823m | 5.7m/s | -45.7°C | 2.9% | 17.0hPa | 2.5V | 00:00:00 | 00:00:00 | 00:00:00 | |
| DM0DOS-11 | 2026-09-04 00:22:36 | 47.66114 | 12.33309 | 118° | 7km/h | 27785m | 6.2m/s | 0°C | 0% | 0hPa | 2.5V | 00:00:00 | 01:50:41 | 00:00:00 | |
| OE5FHM-15 | 2026-09-04 00:22:36 | 47.66111 | 12.33349 | 88° | 11km/h | 27818m | 5.2m/s | -45.7°C | 2.9% | 17.0hPa | 2.5V | 00:00:00 | 01:50:47 | 00:00:00 | |
| DO3MHA-11 | 2026-09-04 00:22:33 | 47.66111 | 12.33324 | 101° | 9km/h | 27801m | 5.3m/s | -45.7°C | 2.9% | 17.1hPa | 2.5V | 00:00:00 | 01:50:44 | 00:00:00 | |
| OE5WHR-10 | 2026-09-04 00:22:30 | 47.66114 | 12.33309 | 119° | 9km/h | 27785m | 6.1m/s | -45.8°C | 2.9% | 17.1hPa | 2.5V | 00:00:00 | 00:00:00 | 00:00:00 | |
| OE5DRO-10 | 2026-09-04 00:22:29 | 47.66115 | 12.33306 | 20° | 7km/h | 27768m | 5.2m/s | -45.8°C | 2.9% | 17.2hPa | 2.5V | 00:00:00 | 00:00:00 | 00:00:00 | |
| IN3HCDX | 2026-09-04 00:22:25 | 47.66115 | 12.33305 | 133° | 2km/h | 27763m | 5.2m/s | -45.9°C | 0.8% | 17.2hPa | 2.5V | 00:00:00 | 00:00:00 | 00:00:00 | |
| DG1MFX-10 | 2026-09-04 00:22:24 | 47.66116 | 12.33304 | 143° | 5km/h | 27757m | 6.5m/s | -46.0°C | 0.8% | 17.2hPa | 2.5V | 00:00:00 | 00:00:00 | 00:00:00 | |
| DO3MHA-11 | 2026-09-04 00:22:23 | 47.66119 | 12.33299 | 122° | 11km/h | 27746m | 4.9m/s | -46.0°C | 3.0% | 17.2hPa | 2.5V | 00:00:00 | 01:50:34 | 00:00:00 | |
| DL6DJ-15 | 2026-09-04 00:22:22 | 47.66120 | 12.33291 | 85° | 13km/h | 27734m | 5.7m/s | -46.2°C | 0.8% | 17.3hPa | 2.5V | 00:00:00 | 00:00:00 | 00:00:00 | |
| OE5MMP-10 | 2026-09-04 00:22:20 | 47.66120 | 12.33286 | 77° | 11km/h | 27729m | 4.8m/s | -46.2°C | 3.0% | 17.3hPa | 2.5V | 00:00:00 | 01:50:31 | 00:00:00 | |
| DF3TZ-5 | 2026-09-04 00:22:19 | 47.66118 | 12.33276 | 81° | 11km/h | 27717m | 6.1m/s | -46.3°C | 0.9% | 17.3hPa | 2.5V | 00:00:00 | 00:00:00 | 00:00:00 | |
| OE5HKT-10 | 2026-09-04 00:22:18 | 47.66118 | 12.33276 | 82° | 7km/h | 27718m | 6.1m/s | -46.2°C | 3.0% | 17.3hPa | 2.5V | 00:00:00 | 00:00:00 | 00:00:00 | |
| DO3MHA-11 | 2026-09-04 00:22:13 | 47.66116 | 12.33261 | 9° | 5km/h | 27689m | 6.5m/s | -46.3°C | 3.0% | 17.4hPa | 2.5V | 00:00:00 | 01:50:24 | 08:30:00 | |
| DB0ND-19 | 2026-09-04 00:22:12 | 47.66111 | 12.33262 | 345° | 7km/h | 27678m | 4.7m/s | -46.4°C | -1.0% | -1.0hPa | 2.6V | 00:00:00 | 00:00:00 | 00:00:00 | |
| OE5MMP-10 | 2026-09-04 00:22:10 | 47.66110 | 12.33262 | 341° | 5km/h | 27673m | 5.8m/s | -46.4°C | 3.0% | 17.4hPa | 2.6V | 00:00:00 | 01:50:21 | 00:00:00 | |
| OE5WHR-10 | 2026-09-04 00:22:09 | 47.66109 | 12.33263 | 233° | 9km/h | 27667m | 6.4m/s | -46.4°C | 3.1% | 17.4hPa | 2.6V | 00:00:00 | 01:50:20 | 00:00:00 | |
| PETON7-10 | 2026-09-04 00:22:07 | 47.66111 | 12.33262 | 156° | 7km/h | 27655m | 5.1m/s | -46.5°C | 3.0% | 17.5hPa | 2.6V | 00:00:00 | 01:50:18 | 00:00:00 | |
| IN3HCDX | 2026-09-04 00:22:06 | 47.66113 | 12.33260 | 145° | 7km/h | 27649m | 6.5m/s | -46.5°C | 0.9% | 17.5hPa | 2.6V | 00:00:00 | 00:00:00 | 00:00:00 | |
| DG1MFX-10 | 2026-09-04 00:22:04 | 47.66115 | 12.33257 | 111° | 5km/h | 27638m | 5.1m/s | -46.5°C | 0.9% | 17.6hPa | 2.6V | 00:00:00 | 00:00:00 | 00:00:00 | |
| DO3MHA-11 | 2026-09-04 00:22:03 | 47.66115 | 12.33255 | 117° | 5km/h | 27632m | 5.9m/s | -46.5°C | 3.0% | 17.5hPa | 2.6V | 00:00:00 | 01:50:14 | 00:00:00 | |
| DL6DJ-15 | 2026-09-04 00:21:51 | 47.66129 | 12.33248 | 147° | 16km/h | 27557m | 5.7m/s | -46.9°C | 0.9% | 17.8hPa | 2.6V | 00:00:00 | 00:00:00 | 00:00:00 | |
| OE8JPQ-2 | 2026-09-04 00:21:50 | 47.66129 | 12.33248 | 148° | 15km/h | 27557m | 5.6m/s | -46.8°C | 3.1% | 17.7hPa | 2.6V | 00:00:00 | 00:00:00 | 00:00:00 | |
| OE5WHR-10 | 2026-09-04 00:21:48 | 47.66137 | 12.33241 | 148° | 15km/h | 27545m | 6.3m/s | -46.9°C | 3.1% | 17.8hPa | 2.6V | 00:00:00 | 00:00:00 | 00:00:00 | |
| BAUMI2-15 | 2026-09-04 00:21:47 | 47.66141 | 12.33237 | 148° | 13km/h | 27540m | 5.2m/s | -46.9°C | 3.1% | 17.8hPa | 2.6V | 00:00:00 | 01:49:58 | 00:00:00 | |
| IN3HCDX | 2026-09-04 00:21:45 | 47.66144 | 12.33233 | 142° | 15km/h | 27535m | 4.7m/s | -47.0°C | 0.9% | 17.9hPa | 2.6V | 00:00:00 | 00:00:00 | 00:00:00 | |
| DK5PH-5 | 2026-09-04 00:21:43 | 47.66149 | 12.33224 | 113° | 15km/h | 27518m | 4.2m/s | -47.0°C | 3.1% | 17.8hPa | 2.6V | 00:00:00 | 01:49:54 | 00:00:00 | |
| BAUMI2-15 | 2026-09-04 00:21:42 | 47.66149 | 12.33222 | 142° | 15km/h | 27513m | 4.8m/s | -47.0°C | 3.1% | 17.9hPa | 2.6V | 00:00:00 | 01:49:53 | 08:30:00 | |
| DB0ND-19 | 2026-09-04 00:21:41 | 47.66155 | 12.33221 | 177° | 15km/h | 27501m | 6.1m/s | -47.1°C | -1.0% | -1.0hPa | 2.5V | 00:00:00 | 00:00:00 | 00:00:00 | |
| OE5MMP-10 | 2026-09-04 00:21:40 | 47.66155 | 12.33221 | 178° | 16km/h | 27501m | 6.0m/s | -47.1°C | 3.1% | 17.9hPa | 2.5V | 00:00:00 | 01:49:51 | 00:00:00 | |
| DF7PN | 2026-09-04 00:21:38 | 47.66164 | 12.33220 | 174° | 20km/h | 27490m | 5.0m/s | -47.2°C | 0.9% | 18.0hPa | 2.5V | 00:00:00 | 00:00:00 | 00:00:00 | |
| PETON7-10 | 2026-09-04 00:21:37 | 47.66169 | 12.33219 | 168° | 15km/h | 27485m | 5.9m/s | -47.1°C | 3.1% | 17.9hPa | 2.5V | 00:00:00 | 00:00:00 | 00:00:00 | |
| OE5FHM-15 | 2026-09-04 00:21:36 | 47.66173 | 12.33217 | 156° | 16km/h | 27479m | 5.7m/s | -47.1°C | 3.1% | 18.0hPa | 2.5V | 00:00:00 | 01:49:47 | 08:30:00 | |
| PG1ADW-2 | 2026-09-04 00:21:35 | 47.66176 | 12.33214 | 140° | 16km/h | 27473m | 4.8m/s | -47.2°C | 3.1% | 18.0hPa | 2.6V | 00:00:00 | 01:49:46 | 00:00:00 | |
| DO3MHA-11 | 2026-09-04 00:21:33 | 47.66181 | 12.33206 | 126° | 15km/h | 27463m | 6.3m/s | -47.3°C | 3.1% | 18.0hPa | 2.6V | 00:00:00 | 01:49:44 | 00:00:00 | |
| BAUMI2-15 | 2026-09-04 00:21:32 | 47.66183 | 12.33202 | 128° | 15km/h | 27457m | 6.1m/s | -47.3°C | 3.2% | 18.0hPa | 2.6V | 00:00:00 | 01:49:43 | 00:00:00 | |
| OE5MMP-10 | 2026-09-04 00:21:30 | 47.66188 | 12.33192 | 132° | 16km/h | 27446m | 4.8m/s | -47.3°C | 3.2% | 18.0hPa | 2.6V | 00:00:00 | 01:49:41 | 00:00:00 | |
| IN3HCDX | 2026-09-04 00:21:25 | 47.66197 | 12.33170 | 129° | 13km/h | 27420m | 4.6m/s | -47.5°C | 0.9% | 18.1hPa | 2.6V | 00:00:00 | 00:00:00 | 00:00:00 | |
| DO3MHA-11 | 2026-09-04 00:21:23 | 47.66203 | 12.33163 | 162° | 16km/h | 27408m | 5.9m/s | -47.5°C | 3.2% | 18.1hPa | 2.6V | 00:00:00 | 01:49:34 | 00:00:00 | |
| DG1MFX-10 | 2026-09-04 00:21:22 | 47.66208 | 12.33162 | 173° | 20km/h | 27402m | 5.2m/s | -47.5°C | 0.9% | 18.2hPa | 2.6V | 00:00:00 | 00:00:00 | 00:00:00 | |
| OE5DRO-10 | 2026-09-04 00:21:21 | 47.66221 | 12.33161 | 178° | 18km/h | 27385m | 4.9m/s | -47.5°C | 3.2% | 18.2hPa | 2.6V | 00:00:00 | 00:00:00 | 00:00:00 | |
| DL6DJ-15 | 2026-09-04 00:21:20 | 47.66221 | 12.33161 | 177° | 11km/h | 27385m | 5.0m/s | -47.6°C | 0.9% | 18.2hPa | 2.6V | 00:00:00 | 00:00:00 | 00:00:00 | |
| DF3TZ-5 | 2026-09-04 00:21:17 | 47.66229 | 12.33155 | 137° | 16km/h | 27369m | 6.3m/s | -47.7°C | 0.9% | 18.3hPa | 2.6V | 00:00:00 | 00:00:00 | 00:00:00 | |
| OE5HKT-10 | 2026-09-04 00:21:15 | 47.66232 | 12.33150 | 130° | 18km/h | 27363m | 5.4m/s | -47.6°C | 3.2% | 18.3hPa | 2.6V | 00:00:00 | 00:00:00 | 00:00:00 | |
| DK5PH-5 | 2026-09-04 00:21:13 | 47.66238 | 12.33136 | 113° | 16km/h | 27352m | 5.7m/s | -47.6°C | 3.2% | 18.3hPa | 2.6V | 00:00:00 | 01:49:24 | 00:00:00 | |
| BAUMI2-15 | 2026-09-04 00:21:12 | 47.66240 | 12.33128 | 104° | 18km/h | 27346m | 6.3m/s | -47.6°C | 3.2% | 18.3hPa | 2.6V | 00:00:00 | 01:49:23 | 00:00:00 | |
| OE5MMP-10 | 2026-09-04 00:21:10 | 47.66241 | 12.33114 | 98° | 16km/h | 27335m | 4.8m/s | -47.7°C | 3.2% | 18.3hPa | 2.5V | 00:00:00 | 01:49:21 | 00:00:00 | |
| PG1ADW-2 | 2026-09-04 00:21:08 | 47.66243 | 12.33104 | 126° | 16km/h | 27324m | 6.2m/s | -47.7°C | 3.2% | 18.4hPa | 2.5V | 00:00:00 | 00:00:00 | 00:00:00 | |
| PETON7-10 | 2026-09-04 00:21:07 | 47.66246 | 12.33099 | 140° | 16km/h | 27318m | 5.3m/s | -47.7°C | 3.2% | 18.4hPa | 2.5V | 00:00:00 | 00:00:00 | 00:00:00 | |
| OE5WHR-10 | 2026-09-04 00:21:06 | 47.66249 | 12.33095 | 150° | 15km/h | 27313m | 5.5m/s | -47.7°C | 3.2% | 18.4hPa | 2.5V | 00:00:00 | 01:49:17 | 00:00:00 | |
| DO3MHA-11 | 2026-09-04 00:21:03 | 47.66260 | 12.33086 | 142° | 18km/h | 27296m | 4.9m/s | -47.7°C | 3.2% | 18.4hPa | 2.5V | 00:00:00 | 01:49:14 | 00:00:00 | |
| DH7VM-15 | 2026-09-04 00:21:02 | 47.66260 | 12.33087 | 142° | 16km/h | 27296m | 4.9m/s | -47.8°C | 0% | 18.5hPa | 2.5V | 00:00:00 | 00:00:00 | 00:00:00 | |
| DL6DJ-15 | 2026-09-04 00:20:49 | 47.66263 | 12.33011 | 94° | 13km/h | 27212m | 5.4m/s | -48.2°C | 0.9% | 18.8hPa | 2.5V | 00:00:00 | 00:00:00 | 00:00:00 | |
| DF3TZ-5 | 2026-09-04 00:20:46 | 47.66265 | 12.32991 | 92° | 18km/h | 27195m | 5.1m/s | -48.2°C | 0.9% | 18.8hPa | 2.5V | 00:00:00 | 00:00:00 | 00:00:00 | |
| OE5WHR-10 | 2026-09-04 00:20:45 | 47.66265 | 12.32991 | 93° | 15km/h | 27195m | 5.0m/s | -48.2°C | 3.3% | 18.8hPa | 2.5V | 00:00:00 | 00:00:00 | 08:30:00 | |
| IN3IJJ | 2026-09-04 00:20:44 | 47.66265 | 12.32992 | 93° | 20km/h | 27195m | 5.1m/s | 0°C | 0% | 0hPa | 2.5V | 00:00:00 | 00:00:00 | 00:00:00 | |
| DO3MHA-11 | 2026-09-04 00:20:43 | 47.66264 | 12.32978 | 64° | 13km/h | 27183m | 5.7m/s | -48.1°C | 3.3% | 18.8hPa | 2.5V | 00:00:00 | 01:48:54 | 08:30:00 | |
| BAUMI2-15 | 2026-09-04 00:20:42 | 47.66261 | 12.32973 | 52° | 13km/h | 27177m | 4.9m/s | -48.1°C | 3.3% | 18.8hPa | 2.5V | 00:00:00 | 01:48:53 | 00:00:00 | |
| OE5MMP-10 | 2026-09-04 00:20:40 | 47.66256 | 12.32964 | 52° | 11km/h | 27166m | 6.2m/s | -48.1°C | 3.3% | 18.8hPa | 2.5V | 00:00:00 | 01:48:51 | 00:00:00 | |
| PETON7-10 | 2026-09-04 00:20:37 | 47.66251 | 12.32954 | 43° | 13km/h | 27150m | 6.1m/s | -48.1°C | 3.3% | 18.9hPa | 2.5V | 00:00:00 | 01:48:48 | 00:00:00 | |
| OE5FHM-15 | 2026-09-04 00:20:36 | 47.66249 | 12.32952 | 26° | 11km/h | 27143m | 6.4m/s | -48.2°C | 3.3% | 18.9hPa | 2.5V | 00:00:00 | 01:48:47 | 00:00:00 | |
| OE5HKT-10 | 2026-09-04 00:20:33 | 47.66244 | 12.32947 | 57° | 11km/h | 27127m | 6.4m/s | -48.2°C | 3.4% | 19.0hPa | 2.5V | 00:00:00 | 00:00:00 | 00:00:00 | |
| BAUMI2-15 | 2026-09-04 00:20:32 | 47.66243 | 12.32944 | 73° | 15km/h | 27120m | 5.3m/s | -48.1°C | 3.3% | 19.0hPa | 2.6V | 00:00:00 | 01:48:43 | 00:00:00 | |
| OE5DXL-15 | 2026-09-04 00:20:30 | 47.66240 | 12.32935 | 60° | 11km/h | 27110m | 6.2m/s | -48.1°C | 3.3% | 19.0hPa | 2.6V | 00:00:00 | 01:48:41 | 00:00:00 | |
| BAUMI2-15 | 2026-09-04 00:20:27 | 47.66231 | 12.32923 | 36° | 16km/h | 27093m | 5.3m/s | -48.1°C | 3.4% | 19.1hPa | 2.5V | 00:00:00 | 01:48:38 | 00:00:00 | |
| DB0UT-7 | 2026-09-04 00:20:25 | 47.66225 | 12.32914 | 52° | 11km/h | 27081m | 5.1m/s | -48.1°C | 3.3% | 19.1hPa | 2.6V | 00:00:00 | 01:48:36 | 00:00:00 | |
| OE5WHR-10 | 2026-09-04 00:20:24 | 47.66223 | 12.32910 | 53° | 11km/h | 27077m | 4.4m/s | -48.1°C | 3.4% | 19.1hPa | 2.6V | 00:00:00 | 00:00:00 | 00:00:00 | |
| DO3MHA-11 | 2026-09-04 00:20:23 | 47.66221 | 12.32906 | 48° | 9km/h | 27071m | 5.6m/s | -48.1°C | 3.4% | 19.1hPa | 2.6V | 00:00:00 | 01:48:34 | 00:00:00 | |
| PETON7-10 | 2026-09-04 00:20:22 | 47.66218 | 12.32902 | 38° | 11km/h | 27065m | 6.4m/s | -48.1°C | 3.4% | 19.1hPa | 2.6V | 00:00:00 | 00:00:00 | 00:00:00 | |
| IN3HCDX | 2026-09-04 00:20:21 | 47.66218 | 12.32902 | 38° | 13km/h | 27065m | 6.5m/s | -48.1°C | 0.9% | 19.2hPa | 2.5V | 00:00:00 | 00:00:00 | 00:00:00 | |
| OE5MMP-10 | 2026-09-04 00:20:20 | 47.66213 | 12.32898 | 15° | 11km/h | 27054m | 4.8m/s | -48.0°C | 3.3% | 19.2hPa | 2.5V | 00:00:00 | 01:48:31 | 00:00:00 | |
| DG1MFX-10 | 2026-09-04 00:20:19 | 47.66213 | 12.32898 | 15° | 9km/h | 27054m | 4.9m/s | -48.1°C | 1.0% | 19.2hPa | 2.5V | 00:00:00 | 00:00:00 | 00:00:00 | |
| BAUMI2-15 | 2026-09-04 00:20:17 | 47.66210 | 12.32895 | 114° | 9km/h | 27037m | 6.1m/s | -48.0°C | 3.4% | 19.2hPa | 2.5V | 00:00:00 | 01:48:28 | 00:00:00 | |
| DF3TZ-5 | 2026-09-04 00:20:15 | 47.66209 | 12.32889 | 46° | 9km/h | 27021m | 6.4m/s | -48.0°C | 1.0% | 19.3hPa | 2.5V | 00:00:00 | 00:00:00 | 00:00:00 | |
| DO3MHA-11 | 2026-09-04 00:20:13 | 47.66206 | 12.32886 | 34° | 11km/h | 27015m | 5.6m/s | -47.9°C | 3.3% | 19.3hPa | 2.5V | 00:00:00 | 01:48:24 | 00:00:00 | |
| OE5HKT-10 | 2026-09-04 00:20:12 | 47.66203 | 12.32882 | 33° | 9km/h | 27010m | 5.0m/s | -47.9°C | 3.3% | 19.3hPa | 2.6V | 00:00:00 | 00:00:00 | 00:00:00 | |
| IN3IJJ | 2026-09-04 00:20:11 | 47.66199 | 12.32878 | 38° | 20km/h | 27004m | 5.7m/s | 0°C | 0% | 0hPa | 2.6V | 00:00:00 | 00:00:00 | 00:00:00 | |
| OE8JPQ-2 | 2026-09-04 00:20:10 | 47.66195 | 12.32873 | 43° | 9km/h | 26998m | 5.7m/s | -47.9°C | 3.3% | 19.3hPa | 2.6V | 00:00:00 | 00:00:00 | 08:30:00 | |
| PETON7-10 | 2026-09-04 00:20:07 | 47.66190 | 12.32866 | 7° | 7km/h | 26982m | 5.9m/s | -47.9°C | 3.4% | 19.4hPa | 2.5V | 00:00:00 | 00:00:00 | 00:00:00 | |
| OE5FHM-15 | 2026-09-04 00:20:06 | 47.66190 | 12.32866 | 288° | 9km/h | 26976m | 6.2m/s | -47.8°C | 3.3% | 19.4hPa | 2.5V | 00:00:00 | 01:48:17 | 00:00:00 | |
| DF7PN | 2026-09-04 00:20:05 | 47.66189 | 12.32868 | 274° | 5km/h | 26971m | 5.4m/s | -47.8°C | 0.9% | 19.5hPa | 2.5V | 00:00:00 | 00:00:00 | 00:00:00 | |
| DL6DJ-15 | 2026-09-04 00:19:46 | 47.66164 | 12.32855 | 34° | 2km/h | 26863m | 5.1m/s | -47.7°C | 0.9% | 19.8hPa | 2.5V | 00:00:00 | 00:00:00 | 00:00:00 | |
| OE5DRO-10 | 2026-09-04 00:19:44 | 47.66160 | 12.32853 | 5° | 9km/h | 26850m | 6.3m/s | -47.7°C | 3.2% | 19.8hPa | 2.5V | 00:00:00 | 00:00:00 | 00:00:00 | |
| DO3MHA-11 | 2026-09-04 00:19:43 | 47.66155 | 12.32853 | 6° | 11km/h | 26845m | 5.1m/s | -47.7°C | 3.2% | 19.8hPa | 2.5V | 00:00:00 | 01:47:54 | 00:00:00 | |
| OE5WHR-10 | 2026-09-04 00:19:42 | 47.66151 | 12.32852 | 11° | 9km/h | 26839m | 6.0m/s | -47.8°C | 3.3% | 19.8hPa | 2.5V | 00:00:00 | 00:00:00 | 00:00:00 | |
| OE5MMP-10 | 2026-09-04 00:19:40 | 47.66143 | 12.32848 | 22° | 7km/h | 26827m | 5.4m/s | -47.9°C | 3.3% | 19.9hPa | 2.5V | 00:00:00 | 01:47:51 | 00:00:00 | |
| IN3IJJ | 2026-09-04 00:19:39 | 47.66140 | 12.32847 | 18° | 11km/h | 26821m | 5.8m/s | 0°C | 0% | 0hPa | 2.5V | 00:00:00 | 00:00:00 | 00:00:00 | |
| IN3HCDX | 2026-09-04 00:19:38 | 47.66140 | 12.32847 | 18° | 11km/h | 26821m | 5.8m/s | -48.0°C | 0.9% | 19.9hPa | 2.5V | 00:00:00 | 00:00:00 | 00:00:00 | |
| PETON7-10 | 2026-09-04 00:19:37 | 47.66137 | 12.32846 | 356° | 7km/h | 26809m | 5.3m/s | -48.0°C | 3.3% | 19.9hPa | 2.5V | 00:00:00 | 00:00:00 | 08:30:00 | |
| OE5FHM-15 | 2026-09-04 00:19:36 | 47.66136 | 12.32846 | 167° | 9km/h | 26804m | 5.2m/s | -48.0°C | 3.3% | 19.9hPa | 2.5V | 00:00:00 | 01:47:47 | 00:00:00 | |
| DF7PN | 2026-09-04 00:19:34 | 47.66140 | 12.32842 | 143° | 9km/h | 26786m | 4.5m/s | -48.0°C | 1.0% | 20.1hPa | 2.5V | 00:00:00 | 00:00:00 | 00:00:00 | |
| DO3MHA-11 | 2026-09-04 00:19:33 | 47.66140 | 12.32842 | 144° | 7km/h | 26786m | 4.4m/s | -48.0°C | 3.4% | 20.0hPa | 2.5V | 00:00:00 | 01:47:44 | 00:00:00 | |
| OE8JPQ-2 | 2026-09-04 00:19:30 | 47.66143 | 12.32839 | 339° | 9km/h | 26770m | 5.8m/s | -47.9°C | 3.3% | 20.1hPa | 2.5V | 00:00:00 | 01:47:41 | 00:00:00 | |
| OE5HKT-10 | 2026-09-04 00:19:27 | 47.66138 | 12.32840 | 10° | 11km/h | 26754m | 6.3m/s | -47.9°C | 3.3% | 20.1hPa | 2.5V | 00:00:00 | 00:00:00 | 00:00:00 | |
| OE5DRO-10 | 2026-09-04 00:19:25 | 47.66136 | 12.32837 | 83° | 11km/h | 26742m | 5.2m/s | -47.9°C | 3.3% | 20.1hPa | 2.6V | 00:00:00 | 00:00:00 | 00:00:00 | |
| DO3MHA-11 | 2026-09-04 00:19:23 | 47.66136 | 12.32830 | 107° | 11km/h | 26731m | 5.7m/s | -47.8°C | 3.3% | 20.2hPa | 2.6V | 00:00:00 | 01:47:34 | 00:00:00 | |
| PETON7-10 | 2026-09-04 00:19:22 | 47.66137 | 12.32827 | 101° | 11km/h | 26725m | 5.3m/s | -47.8°C | 3.3% | 20.2hPa | 2.6V | 00:00:00 | 00:00:00 | 00:00:00 | |
| OE5WHR-10 | 2026-09-04 00:19:21 | 47.66137 | 12.32823 | 91° | 13km/h | 26720m | 5.1m/s | -47.8°C | 3.3% | 20.2hPa | 2.6V | 00:00:00 | 00:00:00 | 00:00:00 | |
| OE5MMP-10 | 2026-09-04 00:19:20 | 47.66137 | 12.32820 | 91° | 9km/h | 26715m | 5.6m/s | -47.8°C | 3.3% | 20.2hPa | 2.6V | 00:00:00 | 01:47:31 | 00:00:00 | |
| IN3HCDX | 2026-09-04 00:19:18 | 47.66138 | 12.32811 | 109° | 13km/h | 26704m | 5.0m/s | -47.8°C | 0.9% | 20.3hPa | 2.6V | 00:00:00 | 00:00:00 | 00:00:00 | |
| PG1ADW-2 | 2026-09-04 00:19:16 | 47.66142 | 12.32803 | 148° | 15km/h | 26694m | 5.5m/s | -47.7°C | 3.2% | 20.3hPa | 2.6V | 00:00:00 | 00:00:00 | 00:00:00 | |
| DL6DJ-15 | 2026-09-04 00:19:15 | 47.66144 | 12.32802 | 175° | 11km/h | 26688m | 5.9m/s | -47.8°C | 0.9% | 20.4hPa | 2.6V | 00:00:00 | 00:00:00 | 00:00:00 | |
| DF3TZ-5 | 2026-09-04 00:19:13 | 47.66150 | 12.32807 | 256° | 5km/h | 26671m | 5.3m/s | -47.8°C | 0.9% | 20.4hPa | 2.6V | 00:00:00 | 00:00:00 | 00:00:00 | |
| OE5MMP-10 | 2026-09-04 00:19:10 | 47.66149 | 12.32806 | 81° | 16km/h | 26659m | 6.1m/s | -47.8°C | 3.2% | 20.4hPa | 2.6V | 00:00:00 | 01:47:21 | 00:00:00 | |
| PETON7-10 | 2026-09-04 00:19:07 | 47.66151 | 12.32787 | 109° | 16km/h | 26642m | 5.7m/s | -47.9°C | 3.2% | 20.5hPa | 2.6V | 00:00:00 | 01:47:18 | 00:00:00 | |
| OE5FHM-15 | 2026-09-04 00:19:06 | 47.66153 | 12.32779 | 118° | 15km/h | 26636m | 5.7m/s | -47.9°C | 3.2% | 20.5hPa | 2.6V | 00:00:00 | 01:47:17 | 00:00:00 | |
| DF7PN | 2026-09-04 00:19:03 | 47.66165 | 12.32759 | 135° | 13km/h | 26614m | 6.2m/s | -48.0°C | 0.9% | 20.6hPa | 2.6V | 00:00:00 | 00:00:00 | 00:00:00 | |
| OE5WHR-10 | 2026-09-04 00:19:00 | 47.66169 | 12.32751 | 120° | 13km/h | 26603m | 5.4m/s | -47.9°C | 3.3% | 20.6hPa | 2.6V | 00:00:00 | 01:47:11 | 00:00:00 | |
| DG1MFX-10 | 2026-09-04 00:18:56 | 47.66173 | 12.32741 | 118° | 9km/h | 26585m | 5.2m/s | -48.0°C | 1.0% | 20.7hPa | 2.6V | 00:00:00 | 00:00:00 | 00:00:00 | |
| DO3MHA-11 | 2026-09-04 00:18:53 | 47.66172 | 12.32720 | 78° | 13km/h | 26562m | 4.7m/s | -48.0°C | 3.3% | 20.7hPa | 2.6V | 00:00:00 | 01:47:04 | 00:00:00 | |
| PETON7-10 | 2026-09-04 00:18:52 | 47.66171 | 12.32712 | 83° | 13km/h | 26558m | 5.3m/s | -48.0°C | 3.3% | 20.7hPa | 2.6V | 00:00:00 | 00:00:00 | 00:00:00 | |
| OE5MMP-10 | 2026-09-04 00:18:50 | 47.66172 | 12.32700 | 111° | 11km/h | 26546m | 5.6m/s | -48.0°C | 3.3% | 20.8hPa | 2.5V | 00:00:00 | 01:47:01 | 00:00:00 | |
| OE5DRO-10 | 2026-09-04 00:18:47 | 47.66177 | 12.32687 | 91° | 11km/h | 26524m | 5.8m/s | -48.0°C | 3.3% | 20.8hPa | 2.5V | 00:00:00 | 00:00:00 | 00:00:00 | |
| OE5HKT-10 | 2026-09-04 00:18:45 | 47.66176 | 12.32684 | 78° | 11km/h | 26519m | 5.5m/s | -47.9°C | 3.3% | 20.9hPa | 2.5V | 00:00:00 | 01:46:56 | 00:00:00 | |
| DL6DJ-15 | 2026-09-04 00:18:44 | 47.66176 | 12.32680 | 77° | 9km/h | 26513m | 5.4m/s | -48.0°C | 0.9% | 20.9hPa | 2.5V | 00:00:00 | 00:00:00 | 00:00:00 | |
| DB0UT-7 | 2026-09-04 00:18:43 | 47.66175 | 12.32676 | 86° | 9km/h | 26508m | 6.1m/s | -47.9°C | 3.3% | 20.9hPa | 2.5V | 00:00:00 | 01:46:54 | 00:00:00 | |
| DF3TZ-5 | 2026-09-04 00:18:41 | 47.66175 | 12.32666 | 88° | 15km/h | 26497m | 4.6m/s | -48.0°C | 0.9% | 20.9hPa | 2.5V | 00:00:00 | 00:00:00 | 00:00:00 | |
| OE5MMP-10 | 2026-09-04 00:18:40 | 47.66175 | 12.32660 | 82° | 9km/h | 26491m | 6.2m/s | -47.9°C | 3.3% | 20.9hPa | 2.5V | 00:00:00 | 01:46:51 | 00:00:00 | |
| OE5WHR-10 | 2026-09-04 00:18:39 | 47.66174 | 12.32654 | 75° | 9km/h | 26486m | 5.7m/s | -47.9°C | 3.2% | 21.0hPa | 2.5V | 00:00:00 | 00:00:00 | 00:00:00 | |
| PETON7-10 | 2026-09-04 00:18:37 | 47.66172 | 12.32642 | 76° | 9km/h | 26476m | 5.1m/s | -47.9°C | 3.2% | 21.0hPa | 2.6V | 00:00:00 | 00:00:00 | 00:00:00 | |
| OE5FHM-15 | 2026-09-04 00:18:36 | 47.66171 | 12.32639 | 92° | 7km/h | 26470m | 6.5m/s | -47.9°C | 3.2% | 21.0hPa | 2.6V | 00:00:00 | 01:46:47 | 00:00:00 | |
| IN3HCDX | 2026-09-04 00:18:35 | 47.66171 | 12.32639 | 92° | 9km/h | 26470m | 6.5m/s | -48.0°C | 0.9% | 21.1hPa | 2.5V | 00:00:00 | 00:00:00 | 00:00:00 | |
| DO3MHA-11 | 2026-09-04 00:18:33 | 47.66174 | 12.32636 | 187° | 11km/h | 26453m | 5.4m/s | -47.9°C | 3.2% | 21.1hPa | 2.5V | 00:00:00 | 01:46:44 | 00:00:00 | |
| DF7PN | 2026-09-04 00:18:32 | 47.66173 | 12.32634 | 47° | 5km/h | 26442m | 4.7m/s | -47.9°C | 0.9% | 21.1hPa | 2.5V | 00:00:00 | 00:00:00 | 00:00:00 | |
| OE5MMP-10 | 2026-09-04 00:18:30 | 47.66172 | 12.32632 | 59° | 11km/h | 26437m | 4.6m/s | -47.9°C | 3.1% | 21.1hPa | 2.5V | 00:00:00 | 01:46:41 | 00:00:00 | |
| OE5DRO-10 | 2026-09-04 00:18:28 | 47.66169 | 12.32619 | 80° | 9km/h | 26421m | 4.7m/s | -48.1°C | 3.2% | 21.2hPa | 2.5V | 00:00:00 | 00:00:00 | 00:00:00 | |
| OE5HKT-10 | 2026-09-04 00:18:24 | 47.66165 | 12.32604 | 56° | 7km/h | 26404m | 5.1m/s | -48.3°C | 3.2% | 21.2hPa | 2.5V | 00:00:00 | 00:00:00 | 08:30:00 | |
| DO3MHA-11 | 2026-09-04 00:18:23 | 47.66164 | 12.32601 | 58° | 7km/h | 26399m | 5.5m/s | -48.4°C | 3.3% | 21.2hPa | 2.6V | 00:00:00 | 01:46:34 | 00:00:00 | |
| PETON7-10 | 2026-09-04 00:18:22 | 47.66163 | 12.32598 | 80° | 7km/h | 26393m | 6.2m/s | -48.5°C | 3.3% | 21.3hPa | 2.6V | 00:00:00 | 01:46:33 | 00:00:00 | |
| OE5MMP-10 | 2026-09-04 00:18:20 | 47.66164 | 12.32593 | 114° | 7km/h | 26383m | 4.5m/s | -48.8°C | 3.3% | 21.3hPa | 2.6V | 00:00:00 | 01:46:31 | 08:30:00 | |
| OE5WHR-10 | 2026-09-04 00:18:18 | 47.66164 | 12.32590 | 70° | 7km/h | 26371m | 5.8m/s | -48.9°C | 3.4% | 21.3hPa | 2.6V | 00:00:00 | 00:00:00 | 00:00:00 | |
| DG1MFX-10 | 2026-09-04 00:18:16 | 47.66162 | 12.32586 | 74° | 9km/h | 26361m | 5.1m/s | -49.1°C | 1.0% | 21.4hPa | 2.6V | 00:00:00 | 00:00:00 | 00:00:00 | |
| IN3HCDX | 2026-09-04 00:18:15 | 47.66162 | 12.32582 | 92° | 9km/h | 26355m | 5.6m/s | -49.1°C | 1.0% | 21.4hPa | 2.6V | 00:00:00 | 00:00:00 | 00:00:00 | |
| DB0UT-7 | 2026-09-04 00:18:13 | 47.66164 | 12.32575 | 124° | 5km/h | 26346m | 4.0m/s | -49.1°C | 3.4% | 21.4hPa | 2.6V | 00:00:00 | 00:00:00 | 00:00:00 | |
| OE5MMP-10 | 2026-09-04 00:18:10 | 47.66167 | 12.32569 | 122° | 5km/h | 26330m | 4.8m/s | -49.1°C | 3.4% | 21.5hPa | 2.6V | 00:00:00 | 01:46:21 | 00:00:00 | |
| OE5DRO-10 | 2026-09-04 00:18:09 | 47.66168 | 12.32566 | 104° | 5km/h | 26318m | 5.4m/s | -49.0°C | 3.4% | 21.5hPa | 2.6V | 00:00:00 | 00:00:00 | 08:30:00 | |
| PETON7-10 | 2026-09-04 00:18:07 | 47.66168 | 12.32564 | 75° | 5km/h | 26313m | 4.2m/s | -49.0°C | 3.4% | 21.5hPa | 2.6V | 00:00:00 | 00:00:00 | 00:00:00 | |
| OE5FHM-15 | 2026-09-04 00:18:06 | 47.66167 | 12.32562 | 47° | 5km/h | 26309m | 5.1m/s | -49.0°C | 3.4% | 21.5hPa | 2.6V | 00:00:00 | 01:46:17 | 00:00:00 | |
| OE5HKT-10 | 2026-09-04 00:18:03 | 47.66160 | 12.32560 | 5° | 5km/h | 26292m | 5.0m/s | -49.1°C | 3.4% | 21.6hPa | 2.6V | 00:00:00 | 00:00:00 | 00:00:00 | |
| DF7PN | 2026-09-04 00:18:01 | 47.66157 | 12.32559 | 183° | 2km/h | 26275m | 4.9m/s | -49.2°C | 0.9% | 21.7hPa | 2.6V | 00:00:00 | 00:00:00 | 00:00:00 | |
| OE5MMP-10 | 2026-09-04 00:18:00 | 47.66157 | 12.32559 | 184° | 5km/h | 26275m | 4.9m/s | -49.2°C | 3.4% | 21.7hPa | 2.6V | 00:00:00 | 01:46:11 | 00:00:00 | |
| OE5WHR-10 | 2026-09-04 00:17:57 | 47.66159 | 12.32564 | 266° | 5km/h | 26259m | 5.4m/s | -49.3°C | 3.4% | 21.7hPa | 2.6V | 00:00:00 | 01:46:08 | 00:00:00 | |
| PG1ADW-2 | 2026-09-04 00:17:56 | 47.66159 | 12.32566 | 276° | 5km/h | 26253m | 5.1m/s | -49.3°C | 3.4% | 21.7hPa | 2.6V | 00:00:00 | 00:00:00 | 00:00:00 | |
| DG1MFX-10 | 2026-09-04 00:17:55 | 47.66159 | 12.32566 | 276° | 7km/h | 26253m | 5.1m/s | -49.3°C | 1.0% | 21.8hPa | 2.6V | 00:00:00 | 00:00:00 | 00:00:00 | |
| DO3MHA-11 | 2026-09-04 00:17:53 | 47.66158 | 12.32571 | 328° | 7km/h | 26237m | 4.4m/s | -49.3°C | 3.4% | 21.8hPa | 2.6V | 00:00:00 | 01:46:04 | 00:00:00 | |
| PETON7-10 | 2026-09-04 00:17:52 | 47.66157 | 12.32572 | 333° | 5km/h | 26232m | 5.3m/s | -49.3°C | 3.4% | 21.8hPa | 2.6V | 00:00:00 | 00:00:00 | 00:00:00 | |
| OE5MMP-10 | 2026-09-04 00:17:50 | 47.66152 | 12.32575 | 334° | 5km/h | 26221m | 4.9m/s | -49.4°C | 3.4% | 21.8hPa | 2.6V | 00:00:00 | 01:46:01 | 00:00:00 | |
| BAUMI2-15 | 2026-09-04 00:17:47 | 47.66145 | 12.32578 | 17° | 2km/h | 26205m | 5.3m/s | -49.5°C | 3.5% | 21.9hPa | 2.5V | 00:00:00 | 01:45:58 | 00:00:00 | |
| DK5PH-5 | 2026-09-04 00:17:43 | 47.66143 | 12.32576 | 165° | 5km/h | 26183m | 4.8m/s | -49.6°C | 3.5% | 22.0hPa | 2.5V | 00:00:00 | 01:45:54 | 08:30:00 | |
| OE5HKT-10 | 2026-09-04 00:17:42 | 47.66144 | 12.32576 | 148° | 7km/h | 26178m | 5.4m/s | -49.7°C | 3.5% | 22.0hPa | 2.6V | 00:00:00 | 01:45:53 | 00:00:00 | |
| OE5MMP-10 | 2026-09-04 00:17:40 | 47.66145 | 12.32573 | 107° | 7km/h | 26166m | 4.9m/s | -49.7°C | 3.5% | 22.0hPa | 2.6V | 00:00:00 | 01:45:51 | 00:00:00 | |
| PETON7-10 | 2026-09-04 00:17:37 | 47.66142 | 12.32570 | 348° | 7km/h | 26150m | 5.2m/s | -49.7°C | 3.5% | 22.1hPa | 2.6V | 00:00:00 | 01:45:48 | 00:00:00 | |
| DG1MFX-10 | 2026-09-04 00:17:34 | 47.66137 | 12.32572 | 355° | 11km/h | 26141m | 5.7m/s | -49.8°C | 1.0% | 22.2hPa | 2.6V | 00:00:00 | 00:00:00 | 00:00:00 | |
| BAUMI2-15 | 2026-09-04 00:17:32 | 47.66131 | 12.32570 | 28° | 4km/h | 26124m | 5.4m/s | -49.8°C | 3.5% | 22.2hPa | 2.6V | 00:00:00 | 01:45:43 | 00:00:00 | |
| OE5DRO-10 | 2026-09-04 00:17:31 | 47.66130 | 12.32570 | 21° | 5km/h | 26119m | 5.7m/s | -49.9°C | 3.5% | 22.2hPa | 2.6V | 00:00:00 | 00:00:00 | 00:00:00 | |
| DF7PN | 2026-09-04 00:17:30 | 47.66131 | 12.32569 | 163° | 4km/h | 26109m | 4.3m/s | -50.0°C | 1.0% | 22.3hPa | 2.6V | 00:00:00 | 00:00:00 | 00:00:00 | |
| BAUMI2-15 | 2026-09-04 00:17:27 | 47.66135 | 12.32566 | 149° | 9km/h | 26097m | 5.8m/s | -50.0°C | 3.6% | 22.3hPa | 2.6V | 00:00:00 | 01:45:38 | 08:30:00 | |
| PETON7-10 | 2026-09-04 00:17:22 | 47.66141 | 12.32564 | 309° | 7km/h | 26071m | 4.8m/s | -50.1°C | 3.6% | 22.4hPa | 2.5V | 00:00:00 | 00:00:00 | 08:30:00 | |
| OE5HKT-10 | 2026-09-04 00:17:21 | 47.66139 | 12.32566 | 320° | 7km/h | 26066m | 5.6m/s | -50.1°C | 3.6% | 22.4hPa | 2.5V | 00:00:00 | 00:00:00 | 00:00:00 | |
| OE5MMP-10 | 2026-09-04 00:17:20 | 47.66138 | 12.32568 | 334° | 5km/h | 26060m | 5.7m/s | -50.1°C | 3.6% | 22.4hPa | 2.6V | 00:00:00 | 01:45:31 | 00:00:00 | |
| PG1ADW-2 | 2026-09-04 00:17:17 | 47.66138 | 12.32572 | 198° | 7km/h | 26029m | 5.5m/s | -50.1°C | 3.6% | 22.5hPa | 2.5V | 00:00:00 | 01:45:25 | 00:00:00 | |
| DG1MFX-10 | 2026-09-04 00:17:15 | 47.66138 | 12.32572 | 198° | 7km/h | 26029m | 5.5m/s | -50.2°C | 1.0% | 22.6hPa | 2.5V | 00:00:00 | 00:00:00 | 00:00:00 | |
| DK5PH-5 | 2026-09-04 00:17:13 | 47.66139 | 12.32572 | 171° | 7km/h | 26023m | 6.3m/s | -50.1°C | 3.5% | 22.5hPa | 2.5V | 00:00:00 | 01:45:24 | 00:00:00 | |
| DL6DJ-15 | 2026-09-04 00:17:11 | 47.66143 | 12.32570 | 153° | 7km/h | 26013m | 3.7m/s | -50.2°C | 1.0% | 22.6hPa | 2.5V | 00:00:00 | 00:00:00 | 00:00:00 | |
| OE5MMP-10 | 2026-09-04 00:17:10 | 47.66145 | 12.32569 | 174° | 7km/h | 26009m | 5.1m/s | -50.1°C | 3.5% | 22.6hPa | 2.5V | 00:00:00 | 01:45:21 | 00:00:00 | |
| OE8JPQ-2 | 2026-09-04 00:17:09 | 47.66147 | 12.32570 | 204° | 7km/h | 26003m | 5.8m/s | -50.1°C | 3.6% | 22.6hPa | 2.5V | 00:00:00 | 00:00:00 | 08:30:00 | |
| PETON7-10 | 2026-09-04 00:17:07 | 47.66150 | 12.32574 | 228° | 7km/h | 25993m | 4.8m/s | -50.1°C | 3.6% | 22.7hPa | 2.6V | 00:00:00 | 00:00:00 | 00:00:00 | |
| OE5FHM-15 | 2026-09-04 00:17:06 | 47.66152 | 12.32577 | 226° | 7km/h | 25987m | 6.2m/s | -50.1°C | 3.6% | 22.6hPa | 2.6V | 00:00:00 | 01:45:17 | 08:30:00 | |
| BAUMI2-15 | 2026-09-04 00:17:02 | 47.66157 | 12.32584 | 235° | 5km/h | 25965m | 5.7m/s | -50.3°C | 3.6% | 22.7hPa | 2.6V | 00:00:00 | 01:45:13 | 00:00:00 | |
| BAUMI2-15 | 2026-09-04 00:16:57 | 47.66162 | 12.32587 | 147° | 5km/h | 25939m | 4.3m/s | -50.4°C | 3.6% | 22.8hPa | 2.6V | 00:00:00 | 01:45:08 | 00:00:00 | |
| PG1ADW-2 | 2026-09-04 00:16:56 | 47.66163 | 12.32586 | 180° | 9km/h | 25934m | 6.0m/s | -50.5°C | 3.6% | 22.9hPa | 2.5V | 00:00:00 | 00:00:00 | 00:00:00 | |
| OE5WHR-10 | 2026-09-04 00:16:54 | 47.66166 | 12.32589 | 233° | 9km/h | 25924m | 4.5m/s | -50.5°C | 3.6% | 22.9hPa | 2.5V | 00:00:00 | 01:45:05 | 00:00:00 | |
| OE5DRO-10 | 2026-09-04 00:16:53 | 47.66167 | 12.32591 | 251° | 9km/h | 25918m | 6.1m/s | -50.5°C | 3.7% | 22.9hPa | 2.5V | 00:00:00 | 00:00:00 | 00:00:00 | |
| BAUMI2-15 | 2026-09-04 00:16:52 | 47.66167 | 12.32594 | 274° | 11km/h | 25912m | 5.3m/s | -50.5°C | 3.6% | 22.9hPa | 2.5V | 00:00:00 | 01:45:03 | 00:00:00 | |
| OE5MMP-10 | 2026-09-04 00:16:50 | 47.66167 | 12.32601 | 279° | 9km/h | 25902m | 5.7m/s | -50.5°C | 3.6% | 23.0hPa | 2.5V | 00:00:00 | 01:45:01 | 08:30:00 | |
| OE8JPQ-2 | 2026-09-04 00:16:49 | 47.66166 | 12.32606 | 274° | 9km/h | 25896m | 5.6m/s | -50.5°C | 3.6% | 23.0hPa | 2.5V | 00:00:00 | 00:00:00 | 00:00:00 | |
| BAUMI2-15 | 2026-09-04 00:16:47 | 47.66166 | 12.32615 | 272° | 5km/h | 25886m | 5.2m/s | -50.6°C | 3.6% | 23.0hPa | 2.5V | 00:00:00 | 01:44:58 | 00:00:00 | |
| DO3MHA-11 | 2026-09-04 00:16:42 | 47.66166 | 12.32624 | 255° | 22km/h | 25860m | 5.6m/s | -50.7°C | 3.7% | 23.1hPa | 2.5V | 00:00:00 | 01:44:53 | 00:00:00 | |
| OE5MMP-10 | 2026-09-04 00:16:40 | 47.66167 | 12.32632 | 258° | 11km/h | 25849m | 5.4m/s | -50.7°C | 3.6% | 23.1hPa | 2.5V | 00:00:00 | 01:44:51 | 00:00:00 | |
| OE5HKT-10 | 2026-09-04 00:16:39 | 47.66168 | 12.32637 | 261° | 11km/h | 25844m | 6.2m/s | -50.7°C | 3.7% | 23.2hPa | 2.5V | 00:00:00 | 01:44:50 | 00:00:00 | |
| PETON7-10 | 2026-09-04 00:16:37 | 47.66169 | 12.32646 | 262° | 11km/h | 25833m | 4.6m/s | -50.7°C | 3.7% | 23.2hPa | 2.5V | 00:00:00 | 00:00:00 | 00:00:00 | |
| OE5FHM-15 | 2026-09-04 00:16:36 | 47.66169 | 12.32651 | 258° | 11km/h | 25828m | 5.6m/s | -50.7°C | 3.6% | 23.2hPa | 2.5V | 00:00:00 | 01:44:47 | 00:00:00 | |
| OE5DRO-10 | 2026-09-04 00:16:34 | 47.66171 | 12.32661 | 244° | 9km/h | 25817m | 4.1m/s | -50.7°C | 3.6% | 23.3hPa | 2.5V | 00:00:00 | 00:00:00 | 00:00:00 | |
| OE5WHR-10 | 2026-09-04 00:16:33 | 47.66173 | 12.32665 | 234° | 9km/h | 25813m | 5.3m/s | -50.7°C | 3.7% | 23.3hPa | 2.5V | 00:00:00 | 00:00:00 | 00:00:00 | |
| BAUMI2-15 | 2026-09-04 00:16:32 | 47.66175 | 12.32667 | 211° | 7km/h | 25807m | 6.2m/s | -50.7°C | 3.7% | 23.3hPa | 2.5V | 00:00:00 | 01:44:43 | 00:00:00 | |
| OE5MMP-10 | 2026-09-04 00:16:30 | 47.66178 | 12.32667 | 168° | 11km/h | 25796m | 4.6m/s | -50.7°C | 3.7% | 23.3hPa | 2.5V | 00:00:00 | 01:44:41 | 00:00:00 | |
| OE8JPQ-2 | 2026-09-04 00:16:29 | 47.66180 | 12.32667 | 185° | 11km/h | 25791m | 5.8m/s | -50.7°C | 3.7% | 23.4hPa | 2.5V | 00:00:00 | 01:44:40 | 00:00:00 | |
| BAUMI2-15 | 2026-09-04 00:16:27 | 47.66184 | 12.32670 | 215° | 11km/h | 25780m | 4.7m/s | -50.8°C | 3.7% | 23.4hPa | 2.5V | 00:00:00 | 01:44:38 | 00:00:00 | |
| BAUMI2-15 | 2026-09-04 00:16:22 | 47.66195 | 12.32681 | 221° | 11km/h | 25753m | 6.2m/s | -50.7°C | 3.7% | 23.5hPa | 2.5V | 00:00:00 | 01:44:33 | 00:00:00 | |
| OE5MMP-10 | 2026-09-04 00:16:20 | 47.66200 | 12.32687 | 213° | 11km/h | 25742m | 4.2m/s | -50.8°C | 3.7% | 23.6hPa | 2.5V | 00:00:00 | 01:44:31 | 00:00:00 | |
| BAUMI2-15 | 2026-09-04 00:16:17 | 47.66207 | 12.32686 | 141° | 11km/h | 25726m | 4.9m/s | -50.8°C | 3.7% | 23.6hPa | 2.6V | 00:00:00 | 01:44:28 | 00:00:00 | |
| PG1ADW-2 | 2026-09-04 00:16:16 | 47.66209 | 12.32684 | 144° | 11km/h | 25721m | 4.7m/s | -50.8°C | 3.7% | 23.6hPa | 2.6V | 00:00:00 | 00:00:00 | 00:00:00 | |
| OE5DRO-10 | 2026-09-04 00:16:15 | 47.66211 | 12.32682 | 161° | 11km/h | 25716m | 5.9m/s | -50.8°C | 3.7% | 23.6hPa | 2.6V | 00:00:00 | 00:00:00 | 00:00:00 | |
| DK5PH-5 | 2026-09-04 00:16:13 | 47.66217 | 12.32682 | 190° | 11km/h | 25705m | 5.1m/s | -50.8°C | 3.7% | 23.7hPa | 2.5V | 00:00:00 | 01:44:24 | 00:00:00 | |
| OE5WHR-10 | 2026-09-04 00:16:12 | 47.66220 | 12.32683 | 190° | 11km/h | 25699m | 6.1m/s | -50.8°C | 3.7% | 23.7hPa | 2.6V | 00:00:00 | 00:00:00 | 00:00:00 | |
| OE5MMP-10 | 2026-09-04 00:16:10 | 47.66227 | 12.32685 | 189° | 9km/h | 25688m | 4.6m/s | -50.8°C | 3.7% | 23.8hPa | 2.6V | 00:00:00 | 01:44:21 | 00:00:00 | |
| OE8JPQ-2 | 2026-09-04 00:16:09 | 47.66231 | 12.32686 | 199° | 9km/h | 25683m | 5.7m/s | -50.8°C | 3.7% | 23.7hPa | 2.6V | 00:00:00 | 00:00:00 | 00:00:00 | |
| PETON7-10 | 2026-09-04 00:16:07 | 47.66236 | 12.32690 | 222° | 11km/h | 25672m | 4.6m/s | -50.8°C | 3.7% | 23.8hPa | 2.5V | 00:00:00 | 01:44:18 | 00:00:00 | |
| OE5FHM-15 | 2026-09-04 00:16:06 | 47.66237 | 12.32692 | 217° | 9km/h | 25667m | 5.2m/s | -50.8°C | 3.7% | 23.9hPa | 2.5V | 00:00:00 | 01:44:17 | 00:00:00 | |
| BAUMI2-15 | 2026-09-04 00:16:02 | 47.66238 | 12.32686 | 102° | 9km/h | 25644m | 6.1m/s | -50.8°C | 3.7% | 23.9hPa | 2.5V | 00:00:00 | 01:44:13 | 00:00:00 | |
| OE5MMP-10 | 2026-09-04 00:16:00 | 47.66240 | 12.32682 | 162° | 13km/h | 25634m | 4.9m/s | -50.8°C | 3.7% | 24.0hPa | 2.5V | 00:00:00 | 01:44:11 | 00:00:00 | |
| BAUMI2-15 | 2026-09-04 00:15:57 | 47.66251 | 12.32679 | 178° | 15km/h | 25617m | 4.4m/s | -50.8°C | 3.7% | 24.0hPa | 2.5V | 00:00:00 | 01:44:08 | 08:30:00 | |
| DB0UT-7 | 2026-09-04 00:15:56 | 47.66255 | 12.32680 | 194° | 18km/h | 25612m | 4.8m/s | -50.8°C | 3.7% | 24.0hPa | 2.5V | 00:00:00 | 00:00:00 | 00:00:00 | |
| PETON7-10 | 2026-09-04 00:15:52 | 47.66263 | 12.32693 | 279° | 9km/h | 25592m | 5.1m/s | -50.8°C | 3.7% | 24.1hPa | 2.5V | 00:00:00 | 00:00:00 | 00:00:00 | |
| OE5WHR-10 | 2026-09-04 00:15:51 | 47.66262 | 12.32694 | 6° | 9km/h | 25586m | 5.4m/s | -50.8°C | 3.7% | 24.1hPa | 2.5V | 00:00:00 | 01:44:02 | 00:00:00 | |
| OE5MMP-10 | 2026-09-04 00:15:50 | 47.66261 | 12.32693 | 53° | 7km/h | 25581m | 4.9m/s | -50.8°C | 3.8% | 24.1hPa | 2.5V | 00:00:00 | 01:44:01 | 00:00:00 | |
| IN3HCDX | 2026-09-04 00:15:49 | 47.66260 | 12.32690 | 72° | 11km/h | 25576m | 4.5m/s | -50.9°C | 1.0% | 24.2hPa | 2.5V | 00:00:00 | 00:00:00 | 00:00:00 | |
| OE5HKT-10 | 2026-09-04 00:15:45 | 47.66263 | 12.32681 | 195° | 9km/h | 25555m | 5.2m/s | -51.0°C | 3.8% | 24.3hPa | 2.5V | 00:00:00 | 00:00:00 | 00:00:00 | |
| DK5PH-5 | 2026-09-04 00:15:43 | 47.66266 | 12.32684 | 222° | 9km/h | 25544m | 5.7m/s | -50.9°C | 3.8% | 24.3hPa | 2.5V | 00:00:00 | 01:43:54 | 00:00:00 | |
| OE5MMP-10 | 2026-09-04 00:15:40 | 47.66269 | 12.32693 | 266° | 11km/h | 25528m | 6.3m/s | -50.9°C | 3.7% | 24.3hPa | 2.5V | 00:00:00 | 01:43:51 | 00:00:00 | |
| DL6DJ-15 | 2026-09-04 00:15:38 | 47.66266 | 12.32705 | 329° | 9km/h | 25511m | 6.4m/s | -50.8°C | 1.0% | 24.4hPa | 2.5V | 00:00:00 | 00:00:00 | 00:00:00 | |
| PETON7-10 | 2026-09-04 00:15:37 | 47.66266 | 12.32705 | 330° | 9km/h | 25511m | 6.3m/s | -50.8°C | 3.7% | 24.4hPa | 2.5V | 00:00:00 | 00:00:00 | 00:00:00 | |
| OE5FHM-15 | 2026-09-04 00:15:36 | 47.66263 | 12.32706 | 4° | 9km/h | 25505m | 6.0m/s | -50.8°C | 3.7% | 24.4hPa | 2.5V | 00:00:00 | 01:43:47 | 00:00:00 | |
| DF3TZ-5 | 2026-09-04 00:15:35 | 47.66256 | 12.32703 | 24° | 15km/h | 25495m | 5.1m/s | -50.8°C | 1.0% | 24.5hPa | 2.5V | 00:00:00 | 00:00:00 | 00:00:00 | |
| OE5WHR-10 | 2026-09-04 00:15:30 | 47.66249 | 12.32699 | 194° | 9km/h | 25474m | 5.4m/s | -50.7°C | 3.7% | 24.5hPa | 2.5V | 00:00:00 | 00:00:00 | 00:00:00 | |
| OE8JPQ-2 | 2026-09-04 00:15:29 | 47.66250 | 12.32699 | 167° | 9km/h | 25468m | 6.1m/s | -50.8°C | 3.7% | 24.6hPa | 2.6V | 00:00:00 | 01:43:40 | 00:00:00 | |
| IN3HCDX | 2026-09-04 00:15:27 | 47.66251 | 12.32698 | 160° | 7km/h | 25463m | 5.4m/s | -50.8°C | 1.0% | 24.6hPa | 2.6V | 00:00:00 | 00:00:00 | 00:00:00 | |
| DF7PN | 2026-09-04 00:15:25 | 47.66257 | 12.32698 | 215° | 5km/h | 25447m | 6.4m/s | -50.9°C | 1.1% | 24.7hPa | 2.6V | 00:00:00 | 00:00:00 | 00:00:00 | |
| PETON7-10 | 2026-09-04 00:15:22 | 47.66258 | 12.32704 | 310° | 9km/h | 25431m | 6.0m/s | -50.9°C | 3.7% | 24.7hPa | 2.6V | 00:00:00 | 01:43:33 | 00:00:00 | |
| OE5MMP-10 | 2026-09-04 00:15:20 | 47.66256 | 12.32703 | 59° | 11km/h | 25419m | 5.1m/s | -50.9°C | 3.8% | 24.8hPa | 2.6V | 00:00:00 | 01:43:31 | 08:30:00 | |
| OE5DRO-10 | 2026-09-04 00:15:19 | 47.66255 | 12.32699 | 103° | 7km/h | 25408m | 6.0m/s | -50.8°C | 3.7% | 24.8hPa | 2.5V | 00:00:00 | 00:00:00 | 08:30:00 | |
| PG1ADW-2 | 2026-09-04 00:15:16 | 47.66258 | 12.32692 | 126° | 7km/h | 25397m | 6.0m/s | -50.8°C | 3.7% | 24.9hPa | 2.6V | 00:00:00 | 00:00:00 | 00:00:00 | |
| DK5PH-5 | 2026-09-04 00:15:13 | 47.66265 | 12.32677 | 134° | 5km/h | 25380m | 4.5m/s | -50.7°C | 3.7% | 24.9hPa | 2.6V | 00:00:00 | 01:43:24 | 00:00:00 | |
| DG1MFX-10 | 2026-09-04 00:15:11 | 47.66272 | 12.32672 | 203° | 5km/h | 25364m | 5.0m/s | -50.7°C | 1.1% | 25.0hPa | 2.6V | 00:00:00 | 00:00:00 | 00:00:00 | |
| OE5WHR-10 | 2026-09-04 00:15:09 | 47.66273 | 12.32673 | 229° | 4km/h | 25358m | 6.1m/s | -50.6°C | 3.6% | 25.0hPa | 2.6V | 00:00:00 | 00:00:00 | 00:00:00 | |
| IN3HCDX | 2026-09-04 00:15:07 | 47.66273 | 12.32673 | 0° | 0km/h | 25347m | 5.4m/s | -50.6°C | 1.0% | 25.1hPa | 2.6V | 00:00:00 | 00:00:00 | 00:00:00 | |
| OE5FHM-15 | 2026-09-04 00:15:06 | 47.66273 | 12.32673 | 65° | 5km/h | 25341m | 5.9m/s | -50.6°C | 3.6% | 25.1hPa | 2.6V | 00:00:00 | 01:43:17 | 00:00:00 | |
| DF3TZ-5 | 2026-09-04 00:15:04 | 47.66273 | 12.32672 | 152° | 2km/h | 25329m | 4.8m/s | -50.7°C | 1.0% | 25.2hPa | 2.6V | 00:00:00 | 00:00:00 | 00:00:00 | |
| DF7PN | 2026-09-04 00:14:54 | 47.66279 | 12.32663 | 340° | 4km/h | 25274m | 5.5m/s | -51.1°C | 1.1% | 25.4hPa | 2.6V | 00:00:00 | 00:00:00 | 00:00:00 | |
| PETON7-10 | 2026-09-04 00:14:52 | 47.66277 | 12.32664 | 325° | 5km/h | 25263m | 6.3m/s | -51.0°C | 3.7% | 25.4hPa | 2.6V | 00:00:00 | 00:00:00 | 00:00:00 | |
| OE5MMP-10 | 2026-09-04 00:14:50 | 47.66277 | 12.32665 | 72° | 7km/h | 25252m | 4.9m/s | -51.0°C | 3.8% | 25.4hPa | 2.6V | 00:00:00 | 01:43:01 | 00:00:00 | |
| OE8JPQ-2 | 2026-09-04 00:14:49 | 47.66276 | 12.32664 | 69° | 9km/h | 25246m | 6.6m/s | -51.0°C | 3.7% | 25.5hPa | 2.5V | 00:00:00 | 00:00:00 | 00:00:00 | |
| OE5WHR-10 | 2026-09-04 00:14:48 | 47.66275 | 12.32661 | 62° | 9km/h | 25240m | 5.3m/s | -51.1°C | 3.7% | 25.5hPa | 2.5V | 00:00:00 | 01:42:59 | 00:00:00 | |
| IN3HCDX | 2026-09-04 00:14:45 | 47.66273 | 12.32655 | 47° | 9km/h | 25230m | 5.5m/s | -51.1°C | 1.1% | 25.6hPa | 2.5V | 00:00:00 | 00:00:00 | 00:00:00 | |
| DK5PH-5 | 2026-09-04 00:14:43 | 47.66269 | 12.32653 | 336° | 9km/h | 25214m | 5.0m/s | -51.1°C | 3.7% | 25.6hPa | 2.5V | 00:00:00 | 01:42:54 | 00:00:00 | |
| OE5MMP-10 | 2026-09-04 00:14:40 | 47.66264 | 12.32653 | 41° | 11km/h | 25198m | 4.7m/s | -51.1°C | 3.8% | 25.6hPa | 2.5V | 00:00:00 | 01:42:51 | 00:00:00 | |
| PETON7-10 | 2026-09-04 00:14:37 | 47.66264 | 12.32646 | 131° | 11km/h | 25182m | 5.5m/s | -51.1°C | 3.7% | 25.7hPa | 2.5V | 00:00:00 | 01:42:48 | 00:00:00 | |
| OE5FHM-15 | 2026-09-04 00:14:36 | 47.66266 | 12.32643 | 129° | 9km/h | 25176m | 5.2m/s | -51.1°C | 3.8% | 25.7hPa | 2.5V | 00:00:00 | 01:42:47 | 00:00:00 | |
| DL6DJ-15 | 2026-09-04 00:14:35 | 47.66268 | 12.32639 | 121° | 15km/h | 25170m | 6.4m/s | -51.1°C | 1.1% | 25.8hPa | 2.5V | 00:00:00 | 00:00:00 | 00:00:00 | |
| DF3TZ-5 | 2026-09-04 00:14:33 | 47.66272 | 12.32628 | 116° | 15km/h | 25158m | 5.5m/s | -51.1°C | 1.1% | 25.8hPa | 2.5V | 00:00:00 | 00:00:00 | 00:00:00 | |
| OE5MMP-10 | 2026-09-04 00:14:30 | 47.66277 | 12.32617 | 126° | 9km/h | 25143m | 4.1m/s | -51.0°C | 3.7% | 25.9hPa | 2.5V | 00:00:00 | 01:42:41 | 00:00:00 | |
| OE8JPQ-2 | 2026-09-04 00:14:29 | 47.66278 | 12.32614 | 111° | 7km/h | 25138m | 6.0m/s | -50.9°C | 3.7% | 25.9hPa | 2.5V | 00:00:00 | 01:42:40 | 00:00:00 | |
| DG1MFX-10 | 2026-09-04 00:14:28 | 47.66278 | 12.32614 | 112° | 7km/h | 25138m | 6.0m/s | -51.0°C | 1.1% | 25.9hPa | 2.5V | 00:00:00 | 00:00:00 | 00:00:00 | |
| OE5WHR-10 | 2026-09-04 00:14:27 | 47.66278 | 12.32608 | 88° | 7km/h | 25126m | 5.4m/s | -50.9°C | 3.7% | 25.9hPa | 2.5V | 00:00:00 | 00:00:00 | 08:30:00 | |
| IN3HCDX | 2026-09-04 00:14:25 | 47.66278 | 12.32602 | 100° | 7km/h | 25114m | 6.0m/s | -51.0°C | 1.1% | 26.0hPa | 2.5V | 00:00:00 | 00:00:00 | 00:00:00 | |
| DF7PN | 2026-09-04 00:14:23 | 47.66279 | 12.32597 | 92° | 5km/h | 25104m | 4.5m/s | -51.0°C | 1.1% | 26.1hPa | 2.5V | 00:00:00 | 00:00:00 | 00:00:00 | |
| PETON7-10 | 2026-09-04 00:14:22 | 47.66279 | 12.32595 | 80° | 7km/h | 25099m | 5.7m/s | -50.9°C | 3.7% | 26.0hPa | 2.5V | 00:00:00 | 00:00:00 | 00:00:00 | |
| OE5DRO-10 | 2026-09-04 00:14:21 | 47.66278 | 12.32591 | 73° | 7km/h | 25094m | 5.5m/s | -50.9°C | 3.7% | 26.1hPa | 2.5V | 00:00:00 | 00:00:00 | 00:00:00 | |
| OE5MMP-10 | 2026-09-04 00:14:20 | 47.66277 | 12.32586 | 77° | 7km/h | 25088m | 4.7m/s | -50.9°C | 3.7% | 26.1hPa | 2.5V | 00:00:00 | 01:42:31 | 00:00:00 | |
| PG1ADW-2 | 2026-09-04 00:14:16 | 47.66280 | 12.32572 | 150° | 5km/h | 25067m | 4.8m/s | -51.0°C | 3.7% | 26.2hPa | 2.6V | 00:00:00 | 00:00:00 | 00:00:00 | |
| DK5PH-5 | 2026-09-04 00:14:13 | 47.66282 | 12.32568 | 82° | 7km/h | 25051m | 4.9m/s | -51.0°C | 3.7% | 26.3hPa | 2.6V | 00:00:00 | 01:42:24 | 00:00:00 | |
| OE5MMP-10 | 2026-09-04 00:14:10 | 47.66282 | 12.32565 | 81° | 7km/h | 25035m | 4.8m/s | -51.1°C | 3.7% | 26.3hPa | 2.6V | 00:00:00 | 01:42:21 | 00:00:00 | |
| OE8JPQ-2 | 2026-09-04 00:14:09 | 47.66281 | 12.32564 | 50° | 9km/h | 25030m | 5.2m/s | -51.1°C | 3.7% | 26.4hPa | 2.6V | 00:00:00 | 00:00:00 | 08:30:00 | |
| DG1MFX-10 | 2026-09-04 00:14:08 | 47.66282 | 12.32564 | 51° | 4km/h | 25030m | 5.3m/s | -51.1°C | 1.1% | 26.4hPa | 2.5V | 00:00:00 | 00:00:00 | 00:00:00 | |
| PETON7-10 | 2026-09-04 00:14:07 | 47.66278 | 12.32561 | 30° | 9km/h | 25018m | 5.8m/s | -51.2°C | 3.7% | 26.4hPa | 2.5V | 00:00:00 | 00:00:00 | 00:00:00 | |
| OE5WHR-10 | 2026-09-04 00:14:06 | 47.66276 | 12.32559 | 27° | 9km/h | 25013m | 4.4m/s | -51.2°C | 3.7% | 26.4hPa | 2.5V | 00:00:00 | 00:00:00 | 00:00:00 | |
| IN3HCDX | 2026-09-04 00:14:04 | 47.66273 | 12.32557 | 25° | 11km/h | 25008m | 4.7m/s | -51.3°C | 1.1% | 26.5hPa | 2.5V | 00:00:00 | 00:00:00 | 00:00:00 | |
| OE5DRO-10 | 2026-09-04 00:14:02 | 47.66270 | 12.32554 | 66° | 7km/h | 24992m | 4.6m/s | -51.4°C | 3.8% | 26.5hPa | 2.5V | 00:00:00 | 00:00:00 | 00:00:00 | |
| OE5MMP-10 | 2026-09-04 00:14:00 | 47.66268 | 12.32551 | 57° | 9km/h | 24981m | 5.4m/s | -51.5°C | 3.8% | 26.5hPa | 2.5V | 00:00:00 | 01:42:11 | 00:00:00 | |
| PG1ADW-2 | 2026-09-04 00:13:56 | 47.66264 | 12.32542 | 47° | 9km/h | 24959m | 4.7m/s | -51.5°C | 3.8% | 26.6hPa | 2.5V | 00:00:00 | 00:00:00 | 00:00:00 | |
| PETON7-10 | 2026-09-04 00:13:52 | 47.66253 | 12.32533 | 17° | 7km/h | 24938m | 4.9m/s | -51.6°C | 3.8% | 26.7hPa | 2.5V | 00:00:00 | 01:42:03 | 00:00:00 | |
| OE5MMP-10 | 2026-09-04 00:13:50 | 47.66248 | 12.32532 | 330° | 5km/h | 24927m | 5.3m/s | -51.6°C | 3.9% | 26.7hPa | 2.5V | 00:00:00 | 01:42:01 | 08:30:00 | |
| OE8JPQ-2 | 2026-09-04 00:13:49 | 47.66247 | 12.32534 | 296° | 9km/h | 24922m | 4.7m/s | -51.6°C | 3.8% | 26.8hPa | 2.6V | 00:00:00 | 00:00:00 | 00:00:00 | |
| BAUMI2-15 | 2026-09-04 00:13:47 | 47.66246 | 12.32538 | 307° | 5km/h | 24911m | 5.5m/s | -51.6°C | 3.9% | 26.8hPa | 2.6V | 00:00:00 | 01:41:58 | 00:00:00 | |
| OE5WHR-10 | 2026-09-04 00:13:45 | 47.66243 | 12.32542 | 318° | 11km/h | 24900m | 5.2m/s | -51.6°C | 3.9% | 26.9hPa | 2.6V | 00:00:00 | 01:41:56 | 00:00:00 | |
| IN3HCDX | 2026-09-04 00:13:44 | 47.66242 | 12.32543 | 308° | 4km/h | 24895m | 6.4m/s | -51.6°C | 1.1% | 26.9hPa | 2.6V | 00:00:00 | 00:00:00 | 00:00:00 | |
| DK5PH-5 | 2026-09-04 00:13:43 | 47.66242 | 12.32544 | 357° | 15km/h | 24889m | 5.1m/s | -51.6°C | 3.8% | 26.9hPa | 2.6V | 00:00:00 | 01:41:54 | 00:00:00 | |
| BAUMI2-15 | 2026-09-04 00:13:42 | 47.66242 | 12.32543 | 29° | 9km/h | 24884m | 5.1m/s | -51.5°C | 3.8% | 26.9hPa | 2.6V | 00:00:00 | 01:41:53 | 00:00:00 | |
| OE5MMP-10 | 2026-09-04 00:13:40 | 47.66238 | 12.32541 | 27° | 13km/h | 24873m | 4.8m/s | -51.5°C | 3.8% | 27.0hPa | 2.5V | 00:00:00 | 01:41:51 | 00:00:00 | |
| BIOWL1-15 | 2026-09-04 00:13:22 | 47.66201 | 12.32587 | 313° | 11km/h | 24776m | 5.7m/s | 0°C | 0% | 0hPa | 2.5V | 18:12:15 | 01:41:33 | 00:00:00 | |
| PETON7-10 | 2026-09-04 00:13:22 | 47.66201 | 12.32587 | 314° | 18km/h | 24777m | 5.7m/s | -51.5°C | 3.8% | 27.4hPa | 2.6V | 00:00:00 | 00:00:00 | 00:00:00 | |
| DF7PN | 2026-09-04 00:13:21 | 47.66199 | 12.32591 | 307° | 13km/h | 24771m | 5.5m/s | -51.6°C | 1.1% | 27.5hPa | 2.6V | 00:00:00 | 00:00:00 | 00:00:00 | |
| OE5MMP-10 | 2026-09-04 00:13:20 | 47.66197 | 12.32595 | 298° | 22km/h | 24766m | 4.8m/s | -51.6°C | 3.9% | 27.4hPa | 2.6V | 00:00:00 | 01:41:31 | 00:00:00 | |
| BAUMI2-15 | 2026-09-04 00:13:17 | 47.66193 | 12.32617 | 276° | 24km/h | 24749m | 4.4m/s | -51.7°C | 3.9% | 27.5hPa | 2.5V | 00:00:00 | 01:41:28 | 00:00:00 | |
| PG1ADW-2 | 2026-09-04 00:13:16 | 47.66193 | 12.32626 | 280° | 16km/h | 24744m | 5.3m/s | -51.7°C | 3.9% | 27.5hPa | 2.5V | 00:00:00 | 01:41:27 | 00:00:00 | |
| DK5PH-5 | 2026-09-04 00:13:13 | 47.66186 | 12.32652 | 299° | 16km/h | 24729m | 4.5m/s | -51.7°C | 3.9% | 27.6hPa | 2.5V | 00:00:00 | 01:41:24 | 08:30:00 | |
| BAUMI2-15 | 2026-09-04 00:13:12 | 47.66184 | 12.32659 | 298° | 15km/h | 24724m | 5.9m/s | -51.7°C | 3.8% | 27.6hPa | 2.5V | 00:00:00 | 01:41:23 | 08:30:00 | |
| OE5MMP-10 | 2026-09-04 00:13:10 | 47.66180 | 12.32669 | 293° | 15km/h | 24713m | 4.1m/s | -51.6°C | 3.9% | 27.7hPa | 2.6V | 00:00:00 | 01:41:21 | 00:00:00 | |
| OE8JPQ-2 | 2026-09-04 00:13:09 | 47.66179 | 12.32674 | 297° | 16km/h | 24709m | 5.2m/s | -51.6°C | 3.8% | 27.7hPa | 2.6V | 00:00:00 | 00:00:00 | 00:00:00 | |
| PETON7-10 | 2026-09-04 00:13:07 | 47.66175 | 12.32682 | 305° | 16km/h | 24698m | 4.3m/s | -51.6°C | 3.8% | 27.7hPa | 2.5V | 00:00:00 | 01:41:18 | 00:00:00 | |
| OE5FHM-15 | 2026-09-04 00:13:06 | 47.66174 | 12.32687 | 300° | 18km/h | 24694m | 3.7m/s | -51.6°C | 3.9% | 27.7hPa | 2.5V | 00:00:00 | 01:41:17 | 00:00:00 | |
| OE5DRO-10 | 2026-09-04 00:13:05 | 47.66172 | 12.32691 | 287° | 16km/h | 24689m | 5.6m/s | -51.6°C | 3.8% | 27.8hPa | 2.5V | 00:00:00 | 00:00:00 | 00:00:00 | |
| OE5WHR-10 | 2026-09-04 00:13:03 | 47.66173 | 12.32701 | 251° | 18km/h | 24678m | 5.2m/s | -51.7°C | 3.8% | 27.8hPa | 2.5V | 00:00:00 | 00:00:00 | 00:00:00 | |
| IN3HCDX | 2026-09-04 00:13:02 | 47.66174 | 12.32706 | 251° | 15km/h | 24673m | 4.8m/s | -51.7°C | 1.1% | 27.9hPa | 2.5V | 00:00:00 | 00:00:00 | 00:00:00 | |
| OE5DXL-15 | 2026-09-04 00:13:00 | 47.66175 | 12.32718 | 278° | 20km/h | 24663m | 5.4m/s | -51.8°C | 3.9% | 27.9hPa | 2.5V | 00:00:00 | 00:00:00 | 08:30:00 | |
| BAUMI2-15 | 2026-09-04 00:12:57 | 47.66171 | 12.32740 | 285° | 20km/h | 24646m | 5.6m/s | -51.8°C | 3.9% | 28.0hPa | 2.5V | 00:00:00 | 01:41:08 | 00:00:00 | |
| PG1ADW-2 | 2026-09-04 00:12:56 | 47.66169 | 12.32747 | 283° | 18km/h | 24641m | 4.4m/s | -51.8°C | 3.9% | 28.0hPa | 2.5V | 00:00:00 | 00:00:00 | 00:00:00 | |
| PETON7-10 | 2026-09-04 00:12:52 | 47.66164 | 12.32773 | 274° | 18km/h | 24621m | 5.0m/s | -51.7°C | 3.9% | 28.1hPa | 2.5V | 00:00:00 | 00:00:00 | 08:30:00 | |
| OE5MMP-10 | 2026-09-04 00:12:50 | 47.66166 | 12.32782 | 236° | 20km/h | 24609m | 4.9m/s | -51.6°C | 3.9% | 28.1hPa | 2.5V | 00:00:00 | 01:41:01 | 00:00:00 | |
| OE8JPQ-2 | 2026-09-04 00:12:49 | 47.66169 | 12.32787 | 236° | 22km/h | 24605m | 3.9m/s | -51.6°C | 3.8% | 28.2hPa | 2.5V | 00:00:00 | 00:00:00 | 00:00:00 | |
| BAUMI2-15 | 2026-09-04 00:12:47 | 47.66172 | 12.32798 | 259° | 22km/h | 24595m | 5.1m/s | -51.5°C | 3.8% | 28.2hPa | 2.5V | 00:00:00 | 01:40:58 | 00:00:00 | |
| OE5DRO-10 | 2026-09-04 00:12:46 | 47.66172 | 12.32804 | 268° | 24km/h | 24590m | 4.5m/s | -51.5°C | 3.8% | 28.2hPa | 2.5V | 00:00:00 | 00:00:00 | 00:00:00 | |
| DG1MFX-10 | 2026-09-04 00:12:44 | 47.66173 | 12.32812 | 269° | 22km/h | 24585m | 4.8m/s | -51.6°C | 1.1% | 28.3hPa | 2.5V | 00:00:00 | 00:00:00 | 00:00:00 | |
| DK5PH-5 | 2026-09-04 00:12:43 | 47.66173 | 12.32829 | 264° | 22km/h | 24574m | 5.3m/s | -51.7°C | 3.9% | 28.3hPa | 2.5V | 00:00:00 | 01:40:54 | 00:00:00 | |
| OE5WHR-10 | 2026-09-04 00:12:42 | 47.66174 | 12.32838 | 265° | 22km/h | 24569m | 4.9m/s | -51.7°C | 3.9% | 28.3hPa | 2.5V | 00:00:00 | 01:40:53 | 00:00:00 | |
| DB0UT-7 | 2026-09-04 00:12:41 | 47.66175 | 12.32847 | 267° | 22km/h | 24564m | 5.6m/s | -51.7°C | 3.9% | 28.3hPa | 2.5V | 00:00:00 | 01:40:52 | 00:00:00 | |
| IN3HCDX | 2026-09-04 00:12:40 | 47.66175 | 12.32847 | 267° | 22km/h | 24564m | 5.7m/s | -51.7°C | 1.1% | 28.4hPa | 2.5V | 00:00:00 | 00:00:00 | 00:00:00 | |
| PETON7-10 | 2026-09-04 00:12:37 | 47.66181 | 12.32873 | 225° | 24km/h | 24543m | 5.5m/s | -51.6°C | 3.9% | 28.4hPa | 2.5V | 00:00:00 | 00:00:00 | 00:00:00 | |
| OE5FHM-15 | 2026-09-04 00:12:36 | 47.66185 | 12.32878 | 223° | 22km/h | 24538m | 4.4m/s | -51.6°C | 3.9% | 28.4hPa | 2.5V | 00:00:00 | 01:40:47 | 08:30:00 | |
| PG1ADW-2 | 2026-09-04 00:12:34 | 47.66192 | 12.32890 | 238° | 24km/h | 24528m | 5.3m/s | -51.6°C | 3.9% | 28.5hPa | 2.5V | 00:00:00 | 00:00:00 | 00:00:00 | |
| DL6DJ-15 | 2026-09-04 00:12:32 | 47.66199 | 12.32915 | 250° | 27km/h | 24512m | 5.1m/s | -51.6°C | 1.1% | 28.6hPa | 2.6V | 00:00:00 | 00:00:00 | 00:00:00 | |
| OE5DXL-15 | 2026-09-04 00:12:30 | 47.66201 | 12.32925 | 254° | 22km/h | 24507m | 4.4m/s | -51.6°C | 3.9% | 28.6hPa | 2.6V | 00:00:00 | 00:00:00 | 00:00:00 | |
| OE8JPQ-2 | 2026-09-04 00:12:29 | 47.66203 | 12.32935 | 259° | 22km/h | 24502m | 5.6m/s | -51.5°C | 3.9% | 28.6hPa | 2.6V | 00:00:00 | 01:40:40 | 00:00:00 | |
| BAUMI2-15 | 2026-09-04 00:12:27 | 47.66205 | 12.32955 | 263° | 22km/h | 24491m | 4.3m/s | -51.5°C | 3.9% | 28.6hPa | 2.6V | 00:00:00 | 01:40:38 | 08:30:00 | |
| DG1MFX-10 | 2026-09-04 00:12:24 | 47.66208 | 12.32972 | 248° | 22km/h | 24481m | 5.3m/s | -51.5°C | 1.1% | 28.8hPa | 2.6V | 00:00:00 | 00:00:00 | 00:00:00 | |
| PETON7-10 | 2026-09-04 00:12:22 | 47.66214 | 12.32992 | 245° | 20km/h | 24465m | 5.2m/s | -51.3°C | 3.9% | 28.8hPa | 2.6V | 00:00:00 | 01:40:33 | 00:00:00 | |
| OE5WHR-10 | 2026-09-04 00:12:21 | 47.66216 | 12.32998 | 249° | 20km/h | 24460m | 4.3m/s | -51.3°C | 3.9% | 28.8hPa | 2.6V | 00:00:00 | 00:00:00 | 00:00:00 | |
| OE5MMP-10 | 2026-09-04 00:12:20 | 47.66218 | 12.33005 | 250° | 22km/h | 24456m | 4.3m/s | -51.3°C | 3.8% | 28.8hPa | 2.5V | 00:00:00 | 01:40:31 | 08:30:00 | |
| DF7PN | 2026-09-04 00:12:19 | 47.66223 | 12.33021 | 245° | 24km/h | 24446m | 4.8m/s | -51.3°C | 1.1% | 28.9hPa | 2.5V | 00:00:00 | 00:00:00 | 00:00:00 | |
| BAUMI2-15 | 2026-09-04 00:12:17 | 47.66225 | 12.33029 | 248° | 22km/h | 24441m | 4.1m/s | -51.2°C | 3.9% | 28.9hPa | 2.5V | 00:00:00 | 01:40:28 | 00:00:00 | |
| DK5PH-5 | 2026-09-04 00:12:13 | 47.66229 | 12.33060 | 263° | 18km/h | 24421m | 5.3m/s | -51.1°C | 3.8% | 29.0hPa | 2.5V | 00:00:00 | 01:40:24 | 00:00:00 | |
| BAUMI2-15 | 2026-09-04 00:12:12 | 47.66230 | 12.33068 | 257° | 18km/h | 24416m | 5.4m/s | -51.1°C | 3.8% | 29.0hPa | 2.5V | 00:00:00 | 01:40:23 | 00:00:00 | |
| DB0UT-7 | 2026-09-04 00:12:11 | 47.66232 | 12.33075 | 252° | 15km/h | 24411m | 4.5m/s | -51.1°C | 3.8% | 29.0hPa | 2.5V | 00:00:00 | 00:00:00 | 00:00:00 | |
| OE5MMP-10 | 2026-09-04 00:12:10 | 47.66233 | 12.33083 | 252° | 18km/h | 24406m | 4.7m/s | -51.0°C | 3.8% | 29.1hPa | 2.5V | 00:00:00 | 01:40:21 | 00:00:00 | |
| OE8JPQ-2 | 2026-09-04 00:12:09 | 47.66235 | 12.33090 | 252° | 18km/h | 24401m | 5.9m/s | -51.0°C | 3.8% | 29.1hPa | 2.5V | 00:00:00 | 00:00:00 | 00:00:00 | |
| OE5DRO-10 | 2026-09-04 00:12:08 | 47.66236 | 12.33095 | 253° | 18km/h | 24396m | 4.6m/s | -51.0°C | 3.8% | 29.1hPa | 2.5V | 00:00:00 | 00:00:00 | 00:00:00 | |
| PETON7-10 | 2026-09-04 00:12:07 | 47.66237 | 12.33101 | 248° | 18km/h | 24391m | 3.9m/s | -51.0°C | 3.8% | 29.1hPa | 2.5V | 00:00:00 | 00:00:00 | 00:00:00 | |
| OE5FHM-15 | 2026-09-04 00:12:06 | 47.66239 | 12.33106 | 240° | 16km/h | 24386m | 5.5m/s | -51.0°C | 3.8% | 29.1hPa | 2.5V | 00:00:00 | 01:40:17 | 00:00:00 | |
| DG1MFX-10 | 2026-09-04 00:12:04 | 47.66242 | 12.33112 | 235° | 20km/h | 24381m | 5.4m/s | -51.0°C | 1.1% | 29.2hPa | 2.5V | 00:00:00 | 00:00:00 | 00:00:00 | |
| DL6DJ-15 | 2026-09-04 00:12:01 | 47.66253 | 12.33143 | 261° | 16km/h | 24356m | 4.8m/s | -51.0°C | 1.1% | 29.3hPa | 2.5V | 00:00:00 | 00:00:00 | 00:00:00 | |
| DF3TZ-5 | 2026-09-04 00:11:58 | 47.66254 | 12.33157 | 268° | 20km/h | 24346m | 4.8m/s | -51.0°C | 1.1% | 29.4hPa | 2.5V | 00:00:00 | 00:00:00 | 00:00:00 | |
| DF7PN | 2026-09-04 00:11:48 | 47.66267 | 12.33228 | 247° | 16km/h | 24291m | 4.5m/s | -50.8°C | 1.1% | 29.6hPa | 2.5V | 00:00:00 | 00:00:00 | 00:00:00 | |
| DK5PH-5 | 2026-09-04 00:11:43 | 47.66270 | 12.33253 | 278° | 16km/h | 24271m | 5.9m/s | -50.6°C | 3.7% | 29.7hPa | 2.5V | 00:00:00 | 01:39:54 | 00:00:00 | |
| OE5MMP-10 | 2026-09-04 00:11:40 | 47.66268 | 12.33266 | 274° | 15km/h | 24257m | 5.4m/s | -50.5°C | 3.6% | 29.7hPa | 2.6V | 00:00:00 | 01:39:51 | 00:00:00 | |
| OE5WHR-10 | 2026-09-04 00:11:39 | 47.66269 | 12.33270 | 243° | 16km/h | 24251m | 5.3m/s | -50.5°C | 3.6% | 29.8hPa | 2.6V | 00:00:00 | 01:39:50 | 00:00:00 | |
| IN3HCDX | 2026-09-04 00:11:38 | 47.66269 | 12.33270 | 243° | 11km/h | 24251m | 5.4m/s | -50.6°C | 1.1% | 29.8hPa | 2.6V | 00:00:00 | 00:00:00 | 00:00:00 | |
| PETON7-10 | 2026-09-04 00:11:37 | 47.66273 | 12.33277 | 216° | 16km/h | 24241m | 4.7m/s | -50.5°C | 3.6% | 29.8hPa | 2.6V | 00:00:00 | 01:39:48 | 00:00:00 | |
| OE5FHM-15 | 2026-09-04 00:11:36 | 47.66276 | 12.33280 | 216° | 15km/h | 24236m | 5.7m/s | -50.5°C | 3.6% | 29.8hPa | 2.6V | 00:00:00 | 01:39:47 | 00:00:00 | |
| OE5MMP-10 | 2026-09-04 00:11:30 | 47.66286 | 12.33309 | 273° | 18km/h | 24206m | 6.1m/s | -50.5°C | 3.5% | 30.0hPa | 2.6V | 00:00:00 | 01:39:41 | 00:00:00 | |
| OE8JPQ-2 | 2026-09-04 00:11:29 | 47.66286 | 12.33315 | 286° | 16km/h | 24201m | 4.9m/s | -50.5°C | 3.5% | 30.0hPa | 2.6V | 00:00:00 | 01:39:40 | 00:00:00 | |
| DF3TZ-5 | 2026-09-04 00:11:27 | 47.66284 | 12.33335 | 259° | 18km/h | 24185m | 4.9m/s | -50.7°C | -1.0% | 30.1hPa | 2.6V | 00:00:00 | 00:00:00 | 00:00:00 | |
| PG1ADW-2 | 2026-09-04 00:11:25 | 47.66285 | 12.33341 | 246° | 20km/h | 24181m | 4.3m/s | -50.7°C | 3.6% | 30.1hPa | 2.6V | 00:00:00 | 00:00:00 | 08:30:00 | |
| PETON7-10 | 2026-09-04 00:11:22 | 47.66294 | 12.33357 | 220° | 15km/h | 24165m | 4.6m/s | -50.8°C | 3.6% | 30.2hPa | 2.5V | 00:00:00 | 00:00:00 | 00:00:00 | |
| OE5MMP-10 | 2026-09-04 00:11:20 | 47.66302 | 12.33367 | 218° | 15km/h | 24155m | 5.8m/s | -51.0°C | 3.6% | 30.2hPa | 2.6V | 00:00:00 | 01:39:31 | 00:00:00 | |
| IN3HCDX | 2026-09-04 00:11:18 | 47.66311 | 12.33378 | 225° | 22km/h | 24146m | 3.7m/s | -51.1°C | 1.1% | 30.3hPa | 2.6V | 00:00:00 | 00:00:00 | 00:00:00 | |
| DK5PH-5 | 2026-09-04 00:11:13 | 47.66318 | 12.33398 | 276° | 13km/h | 24121m | 5.6m/s | -51.1°C | 3.6% | 30.4hPa | 2.6V | 00:00:00 | 01:39:24 | 00:00:00 | |
| OE5DRO-10 | 2026-09-04 00:11:11 | 47.66318 | 12.33405 | 260° | 11km/h | 24112m | 4.5m/s | -51.3°C | 3.7% | 30.4hPa | 2.6V | 00:00:00 | 00:00:00 | 00:00:00 | |
| OE5MMP-10 | 2026-09-04 00:11:10 | 47.66319 | 12.33408 | 259° | 11km/h | 24106m | 5.8m/s | -51.4°C | 3.7% | 30.4hPa | 2.6V | 00:00:00 | 01:39:21 | 00:00:00 | |
| OE8JPQ-2 | 2026-09-04 00:11:09 | 47.66319 | 12.33412 | 254° | 11km/h | 24101m | 4.8m/s | -51.5°C | 3.7% | 30.5hPa | 2.6V | 00:00:00 | 00:00:00 | 08:30:00 | |
| PETON7-10 | 2026-09-04 00:11:07 | 47.66321 | 12.33418 | 236° | 11km/h | 24092m | 5.4m/s | -51.5°C | 3.7% | 30.5hPa | 2.5V | 00:00:00 | 00:00:00 | 00:00:00 | |
| OE5FHM-15 | 2026-09-04 00:11:06 | 47.66323 | 12.33422 | 231° | 15km/h | 24086m | 5.7m/s | -51.6°C | 3.7% | 30.5hPa | 2.5V | 00:00:00 | 01:39:17 | 00:00:00 | |
| DL6DJ-15 | 2026-09-04 00:10:58 | 47.66335 | 12.33454 | 240° | 9km/h | 24044m | 5.5m/s | -52.2°C | 1.1% | 30.8hPa | 2.6V | 00:00:00 | 00:00:00 | 00:00:00 | |
| DF3TZ-5 | 2026-09-04 00:10:56 | 47.66339 | 12.33462 | 230° | 9km/h | 24029m | 4.8m/s | 0°C | -1.0% | -1.0hPa | 2.6V | 00:00:00 | 00:00:00 | 00:00:00 | |
| DF7PN | 2026-09-04 00:10:46 | 47.66365 | 12.33496 | 206° | 15km/h | 23977m | 5.6m/s | -52.4°C | 1.2% | 31.1hPa | 2.6V | 00:00:00 | 00:00:00 | 00:00:00 | |
| DK5PH-5 | 2026-09-04 00:10:43 | 47.66371 | 12.33501 | 219° | 20km/h | 23968m | 3.9m/s | -52.4°C | 4.0% | 31.1hPa | 2.6V | 00:00:00 | 01:38:54 | 00:00:00 | |
| OE5MMP-10 | 2026-09-04 00:10:40 | 47.66378 | 12.33512 | 222° | 22km/h | 23953m | 5.2m/s | -52.4°C | 4.0% | 31.2hPa | 2.6V | 00:00:00 | 01:38:51 | 00:00:00 | |
| DB0UT-7 | 2026-09-04 00:10:39 | 47.66382 | 12.33516 | 215° | 22km/h | 23948m | 4.7m/s | -52.4°C | 4.0% | 31.2hPa | 2.6V | 00:00:00 | 01:38:50 | 00:00:00 | |
| PETON7-10 | 2026-09-04 00:10:37 | 47.66392 | 12.33523 | 195° | 22km/h | 23937m | 5.8m/s | -52.4°C | 4.0% | 31.2hPa | 2.6V | 00:00:00 | 00:00:00 | 08:30:00 | |
| OE5WHR-10 | 2026-09-04 00:10:36 | 47.66397 | 12.33525 | 184° | 22km/h | 23932m | 5.2m/s | -52.4°C | 4.0% | 31.3hPa | 2.5V | 00:00:00 | 01:38:47 | 00:00:00 | |
| IN3HCDX | 2026-09-04 00:10:35 | 47.66397 | 12.33525 | 185° | 20km/h | 23932m | 5.2m/s | -52.4°C | 1.2% | 31.3hPa | 2.5V | 00:00:00 | 00:00:00 | 00:00:00 | |
| OE5DRO-10 | 2026-09-04 00:10:33 | 47.66414 | 12.33525 | 182° | 22km/h | 23916m | 4.7m/s | -52.3°C | 3.9% | 31.4hPa | 2.5V | 00:00:00 | 00:00:00 | 00:00:00 | |
| OE5MMP-10 | 2026-09-04 00:10:30 | 47.66429 | 12.33525 | 182° | 22km/h | 23901m | 4.8m/s | -52.4°C | 3.9% | 31.5hPa | 2.6V | 00:00:00 | 01:38:41 | 00:00:00 | |
| OE8JPQ-2 | 2026-09-04 00:10:29 | 47.66434 | 12.33525 | 189° | 22km/h | 23896m | 4.5m/s | -52.4°C | 4.0% | 31.5hPa | 2.6V | 00:00:00 | 01:38:40 | 00:00:00 | |
| DL6DJ-15 | 2026-09-04 00:10:28 | 47.66444 | 12.33529 | 199° | 22km/h | 23885m | 5.0m/s | -52.5°C | 1.2% | 31.6hPa | 2.6V | 00:00:00 | 00:00:00 | 00:00:00 | |
| PG1ADW-2 | 2026-09-04 00:10:27 | 47.66444 | 12.33529 | 200° | 24km/h | 23885m | 4.9m/s | -52.4°C | 4.0% | 31.5hPa | 2.6V | 00:00:00 | 00:00:00 | 00:00:00 | |
| PETON7-10 | 2026-09-04 00:10:22 | 47.66472 | 12.33535 | 174° | 24km/h | 23860m | 6.0m/s | -52.4°C | 4.0% | 31.6hPa | 2.6V | 00:00:00 | 00:00:00 | 00:00:00 | |
| OE5MMP-10 | 2026-09-04 00:10:20 | 47.66484 | 12.33532 | 169° | 22km/h | 23849m | 4.6m/s | -52.4°C | 3.9% | 31.7hPa | 2.6V | 00:00:00 | 01:38:31 | 00:00:00 | |
| DF7PN | 2026-09-04 00:10:15 | 47.66515 | 12.33529 | 192° | 22km/h | 23817m | 4.6m/s | -52.5°C | 1.1% | 31.9hPa | 2.6V | 00:00:00 | 00:00:00 | 00:00:00 | |
| OE5DRO-10 | 2026-09-04 00:10:14 | 47.66515 | 12.33529 | 193° | 20km/h | 23818m | 4.6m/s | -52.5°C | 3.9% | 31.8hPa | 2.6V | 00:00:00 | 00:00:00 | 00:00:00 | |
| DK5PH-5 | 2026-09-04 00:10:13 | 47.66521 | 12.33530 | 191° | 16km/h | 23812m | 5.9m/s | -52.5°C | 3.9% | 31.9hPa | 2.6V | 00:00:00 | 01:38:24 | 00:00:00 | |
| OE5MMP-10 | 2026-09-04 00:10:10 | 47.66538 | 12.33531 | 175° | 22km/h | 23796m | 6.0m/s | -52.6°C | 3.9% | 31.9hPa | 2.5V | 00:00:00 | 01:38:21 | 00:00:00 | |
| OE8JPQ-2 | 2026-09-04 00:10:09 | 47.66545 | 12.33530 | 170° | 16km/h | 23791m | 4.7m/s | -52.7°C | 4.0% | 32.0hPa | 2.5V | 00:00:00 | 00:00:00 | 00:00:00 | |
| PETON7-10 | 2026-09-04 00:10:07 | 47.66557 | 12.33523 | 150° | 16km/h | 23781m | 6.2m/s | -52.7°C | 4.0% | 32.0hPa | 2.5V | 00:00:00 | 01:38:18 | 00:00:00 | |
| OE5FHM-15 | 2026-09-04 00:10:06 | 47.66562 | 12.33518 | 140° | 11km/h | 23775m | 5.3m/s | -52.7°C | 4.0% | 32.0hPa | 2.5V | 00:00:00 | 01:38:17 | 00:00:00 | |
| DL6DJ-15 | 2026-09-04 00:09:56 | 47.66599 | 12.33506 | 203° | 13km/h | 23722m | 4.5m/s | -52.9°C | 1.2% | 32.4hPa | 2.5V | 00:00:00 | 00:00:00 | 00:00:00 | |
| OE5DRO-10 | 2026-09-04 00:09:55 | 47.66602 | 12.33507 | 194° | 9km/h | 23717m | 5.0m/s | -52.9°C | 4.0% | 32.3hPa | 2.5V | 00:00:00 | 00:00:00 | 00:00:00 | |
| OE5WHR-10 | 2026-09-04 00:09:54 | 47.66605 | 12.33508 | 176° | 9km/h | 23712m | 6.2m/s | -52.9°C | 4.1% | 32.4hPa | 2.5V | 00:00:00 | 00:00:00 | 00:00:00 | |
| IN3HCDX | 2026-09-04 00:09:53 | 47.66605 | 12.33508 | 176° | 11km/h | 23712m | 6.2m/s | -52.9°C | 1.2% | 32.5hPa | 2.5V | 00:00:00 | 00:00:00 | 00:00:00 | |
| PETON7-10 | 2026-09-04 00:09:52 | 47.66609 | 12.33504 | 142° | 9km/h | 23702m | 4.3m/s | -52.8°C | 4.1% | 32.4hPa | 2.5V | 00:00:00 | 00:00:00 | 00:00:00 | |
| OE5MMP-10 | 2026-09-04 00:09:50 | 47.66615 | 12.33499 | 159° | 9km/h | 23691m | 5.2m/s | -52.8°C | 4.1% | 32.5hPa | 2.5V | 00:00:00 | 01:38:01 | 00:00:00 | |
| OE8JPQ-2 | 2026-09-04 00:09:49 | 47.66618 | 12.33498 | 170° | 7km/h | 23686m | 4.5m/s | -52.8°C | 4.0% | 32.5hPa | 2.6V | 00:00:00 | 00:00:00 | 00:00:00 | |
| PG1ADW-2 | 2026-09-04 00:09:47 | 47.66623 | 12.33496 | 166° | 7km/h | 23676m | 5.3m/s | -52.7°C | 4.0% | 32.6hPa | 2.6V | 00:00:00 | 01:37:58 | 00:00:00 | |
| DK5PH-5 | 2026-09-04 00:09:43 | 47.66629 | 12.33492 | 171° | 7km/h | 23656m | 5.7m/s | -52.7°C | 4.0% | 32.7hPa | 2.5V | 00:00:00 | 01:37:54 | 00:00:00 | |
| BAUMI2-15 | 2026-09-04 00:09:42 | 47.66631 | 12.33492 | 185° | 5km/h | 23650m | 5.1m/s | -52.8°C | 4.0% | 32.7hPa | 2.5V | 00:00:00 | 01:37:53 | 08:30:00 | |
| OE5MMP-10 | 2026-09-04 00:09:40 | 47.66634 | 12.33491 | 163° | 7km/h | 23640m | 6.0m/s | -52.8°C | 4.0% | 32.7hPa | 2.5V | 00:00:00 | 01:37:51 | 00:00:00 | |
| DG1MFX-10 | 2026-09-04 00:09:38 | 47.66636 | 12.33490 | 134° | 5km/h | 23634m | 5.5m/s | -52.9°C | 1.2% | 32.8hPa | 2.5V | 00:00:00 | 00:00:00 | 00:00:00 | |
| OE5FHM-15 | 2026-09-04 00:09:36 | 47.66638 | 12.33488 | 182° | 9km/h | 23618m | 5.3m/s | -52.9°C | 4.1% | 32.9hPa | 2.5V | 00:00:00 | 01:37:47 | 00:00:00 | |
| OE5WHR-10 | 2026-09-04 00:09:33 | 47.66645 | 12.33488 | 167° | 9km/h | 23604m | 5.5m/s | -52.9°C | 4.1% | 32.9hPa | 2.5V | 00:00:00 | 01:37:44 | 00:00:00 | |
| BAUMI2-15 | 2026-09-04 00:09:32 | 47.66647 | 12.33486 | 155° | 11km/h | 23598m | 5.1m/s | -52.9°C | 4.0% | 33.0hPa | 2.5V | 00:00:00 | 01:37:43 | 00:00:00 | |
| OE5MMP-10 | 2026-09-04 00:09:30 | 47.66652 | 12.33484 | 171° | 5km/h | 23588m | 5.1m/s | -52.9°C | 4.1% | 33.0hPa | 2.5V | 00:00:00 | 01:37:41 | 00:00:00 | |
| OE8JPQ-2 | 2026-09-04 00:09:29 | 47.66655 | 12.33484 | 187° | 9km/h | 23583m | 5.9m/s | -53.0°C | 4.1% | 33.0hPa | 2.5V | 00:00:00 | 01:37:40 | 00:00:00 | |
| BAUMI2-15 | 2026-09-04 00:09:27 | 47.66660 | 12.33486 | 207° | 4km/h | 23573m | 4.7m/s | -53.0°C | 4.1% | 33.1hPa | 2.5V | 00:00:00 | 01:37:38 | 00:00:00 | |
| DL6DJ-15 | 2026-09-04 00:09:25 | 47.66663 | 12.33487 | 122° | 2km/h | 23556m | 4.9m/s | -53.1°C | 1.2% | 33.2hPa | 2.5V | 00:00:00 | 00:00:00 | 00:00:00 | |
| PETON7-10 | 2026-09-04 00:09:22 | 47.66664 | 12.33486 | 183° | 9km/h | 23545m | 5.3m/s | -53.0°C | 4.0% | 33.3hPa | 2.5V | 00:00:00 | 01:37:33 | 00:00:00 | |
| OE5MMP-10 | 2026-09-04 00:09:20 | 47.66667 | 12.33486 | 164° | 11km/h | 23535m | 5.8m/s | -53.0°C | 4.0% | 33.3hPa | 2.5V | 00:00:00 | 01:37:31 | 08:30:00 | |
| DG1MFX-10 | 2026-09-04 00:09:18 | 47.66668 | 12.33485 | 163° | 9km/h | 23530m | 5.3m/s | -53.0°C | 1.2% | 33.4hPa | 2.5V | 00:00:00 | 00:00:00 | 00:00:00 | |
| BAUMI2-15 | 2026-09-04 00:09:17 | 47.66673 | 12.33484 | 187° | 15km/h | 23520m | 6.0m/s | -53.0°C | 4.0% | 33.4hPa | 2.5V | 00:00:00 | 01:37:28 | 00:00:00 | |
| DK5PH-5 | 2026-09-04 00:09:13 | 47.66687 | 12.33492 | 196° | 13km/h | 23499m | 5.8m/s | -53.1°C | 4.0% | 33.5hPa | 2.5V | 00:00:00 | 01:37:24 | 00:00:00 | |
| OE5WHR-10 | 2026-09-04 00:09:12 | 47.66690 | 12.33492 | 185° | 11km/h | 23493m | 4.7m/s | -53.1°C | 4.0% | 33.5hPa | 2.5V | 00:00:00 | 00:00:00 | 00:00:00 | |
| IN3HCDX | 2026-09-04 00:09:11 | 47.66690 | 12.33492 | 186° | 7km/h | 23493m | 4.7m/s | -53.2°C | 1.2% | 33.6hPa | 2.6V | 00:00:00 | 00:00:00 | 00:00:00 | |
| OE5MMP-10 | 2026-09-04 00:09:10 | 47.66693 | 12.33492 | 188° | 9km/h | 23483m | 6.0m/s | -53.2°C | 4.0% | 33.5hPa | 2.6V | 00:00:00 | 01:37:21 | 00:00:00 | |
| OE8JPQ-2 | 2026-09-04 00:09:09 | 47.66695 | 12.33493 | 195° | 13km/h | 23478m | 5.2m/s | -53.2°C | 4.0% | 33.6hPa | 2.6V | 00:00:00 | 00:00:00 | 00:00:00 | |
| PETON7-10 | 2026-09-04 00:09:07 | 47.66698 | 12.33494 | 181° | 11km/h | 23467m | 5.3m/s | -53.3°C | 4.0% | 33.6hPa | 2.6V | 00:00:00 | 00:00:00 | 00:00:00 | |
| OE5FHM-15 | 2026-09-04 00:09:06 | 47.66700 | 12.33493 | 165° | 16km/h | 23462m | 6.0m/s | -53.4°C | 4.0% | 33.7hPa | 2.5V | 00:00:00 | 01:37:17 | 00:00:00 | |
| DL6DJ-15 | 2026-09-04 00:08:54 | 47.66732 | 12.33483 | 141° | 16km/h | 23394m | 5.0m/s | -54.0°C | 1.2% | 34.1hPa | 2.5V | 00:00:00 | 00:00:00 | 00:00:00 | |
| PETON7-10 | 2026-09-04 00:08:52 | 47.66735 | 12.33479 | 135° | 20km/h | 23389m | 5.9m/s | -54.0°C | 4.2% | 34.1hPa | 2.5V | 00:00:00 | 00:00:00 | 00:00:00 | |
| OE5WHR-10 | 2026-09-04 00:08:51 | 47.66739 | 12.33473 | 132° | 20km/h | 23384m | 4.8m/s | -54.0°C | 4.2% | 34.1hPa | 2.5V | 00:00:00 | 00:00:00 | 00:00:00 | |
| OE5MMP-10 | 2026-09-04 00:08:50 | 47.66742 | 12.33468 | 136° | 22km/h | 23379m | 4.6m/s | -54.0°C | 4.2% | 34.1hPa | 2.5V | 00:00:00 | 01:37:01 | 00:00:00 | |
| OE8JPQ-2 | 2026-09-04 00:08:49 | 47.66747 | 12.33462 | 143° | 20km/h | 23374m | 6.1m/s | -54.1°C | 4.3% | 34.1hPa | 2.5V | 00:00:00 | 00:00:00 | 00:00:00 | |
| BAUMI2-15 | 2026-09-04 00:08:47 | 47.66756 | 12.33454 | 151° | 22km/h | 23364m | 4.2m/s | -54.2°C | 4.3% | 34.2hPa | 2.5V | 00:00:00 | 01:36:58 | 00:00:00 | |
| PG1ADW-2 | 2026-09-04 00:08:44 | 47.66768 | 12.33439 | 127° | 18km/h | 23349m | 4.8m/s | -54.2°C | 4.3% | 34.3hPa | 2.5V | 00:00:00 | 00:00:00 | 00:00:00 | |
| DK5PH-5 | 2026-09-04 00:08:43 | 47.66771 | 12.33432 | 124° | 18km/h | 23344m | 4.1m/s | -54.2°C | 4.3% | 34.3hPa | 2.5V | 00:00:00 | 01:36:54 | 08:30:00 | |
| DB0UT-7 | 2026-09-04 00:08:42 | 47.66774 | 12.33425 | 126° | 18km/h | 23339m | 5.2m/s | -54.2°C | 4.2% | 34.3hPa | 2.5V | 00:00:00 | 00:00:00 | 00:00:00 | |
| DF7PN | 2026-09-04 00:08:41 | 47.66777 | 12.33419 | 131° | 20km/h | 23334m | 5.8m/s | -54.2°C | -1.0% | -1.0hPa | 2.5V | 00:00:00 | 00:00:00 | 00:00:00 | |
| OE5MMP-10 | 2026-09-04 00:08:40 | 47.66781 | 12.33414 | 137° | 18km/h | 23328m | 4.8m/s | -54.2°C | 4.2% | 34.4hPa | 2.5V | 00:00:00 | 01:36:51 | 00:00:00 | |
| OE5DRO-10 | 2026-09-04 00:08:39 | 47.66784 | 12.33409 | 134° | 18km/h | 23324m | 5.0m/s | -54.2°C | 4.3% | 34.4hPa | 2.5V | 00:00:00 | 00:00:00 | 00:00:00 | |
| PETON7-10 | 2026-09-04 00:08:37 | 47.66789 | 12.33398 | 118° | 18km/h | 23312m | 5.1m/s | -54.3°C | 4.3% | 34.5hPa | 2.5V | 00:00:00 | 01:36:48 | 00:00:00 | |
| OE5FHM-15 | 2026-09-04 00:08:36 | 47.66791 | 12.33392 | 117° | 16km/h | 23307m | 4.4m/s | -54.3°C | 4.3% | 34.5hPa | 2.5V | 00:00:00 | 01:36:47 | 00:00:00 | |
| OE5HKT-10 | 2026-09-04 00:08:34 | 47.66795 | 12.33382 | 127° | 16km/h | 23297m | 4.9m/s | -54.3°C | 4.4% | 34.6hPa | 2.5V | 00:00:00 | 01:36:45 | 00:00:00 | |
| OE5MMP-10 | 2026-09-04 00:08:30 | 47.66806 | 12.33356 | 119° | 18km/h | 23276m | 4.4m/s | -54.3°C | 4.3% | 34.7hPa | 2.5V | 00:00:00 | 01:36:41 | 00:00:00 | |
| OE8JPQ-2 | 2026-09-04 00:08:29 | 47.66809 | 12.33348 | 123° | 16km/h | 23271m | 5.9m/s | -54.3°C | 4.3% | 34.7hPa | 2.5V | 00:00:00 | 01:36:40 | 00:00:00 | |
| BAUMI2-15 | 2026-09-04 00:08:27 | 47.66816 | 12.33334 | 130° | 16km/h | 23260m | 4.4m/s | -54.2°C | 4.3% | 34.8hPa | 2.5V | 00:00:00 | 01:36:38 | 00:00:00 | |
| DL6DJ-15 | 2026-09-04 00:08:23 | 47.66822 | 12.33309 | 87° | 9km/h | 23233m | 6.1m/s | -54.3°C | 1.3% | 35.0hPa | 2.5V | 00:00:00 | 00:00:00 | 00:00:00 | |
| PETON7-10 | 2026-09-04 00:08:22 | 47.66822 | 12.33308 | 88° | 15km/h | 23233m | 6.1m/s | -54.2°C | 4.3% | 34.9hPa | 2.5V | 00:00:00 | 00:00:00 | 08:30:00 | |
| OE5MMP-10 | 2026-09-04 00:08:20 | 47.66822 | 12.33300 | 90° | 18km/h | 23222m | 4.8m/s | -54.3°C | 4.3% | 35.0hPa | 2.5V | 00:00:00 | 01:36:31 | 00:00:00 | |
| BAUMI2-15 | 2026-09-04 00:08:17 | 47.66823 | 12.33281 | 104° | 20km/h | 23207m | 4.8m/s | -54.3°C | 4.3% | 35.1hPa | 2.6V | 00:00:00 | 01:36:28 | 00:00:00 | |
| DK5PH-5 | 2026-09-04 00:08:13 | 47.66832 | 12.33254 | 114° | 11km/h | 23185m | 5.5m/s | -54.4°C | 4.3% | 35.2hPa | 2.6V | 00:00:00 | 01:36:24 | 00:00:00 | |
| BAUMI2-15 | 2026-09-04 00:08:12 | 47.66833 | 12.33248 | 107° | 11km/h | 23180m | 4.4m/s | -54.5°C | 4.3% | 35.2hPa | 2.6V | 00:00:00 | 01:36:23 | 08:30:00 | |
| IN3HCDX | 2026-09-04 00:08:10 | 47.66835 | 12.33238 | 105° | 11km/h | 23170m | 5.9m/s | -54.5°C | 1.3% | 35.3hPa | 2.5V | 00:00:00 | 00:00:00 | 00:00:00 | |
| OE5HKT-10 | 2026-09-04 00:08:09 | 47.66836 | 12.33234 | 93° | 11km/h | 23165m | 4.9m/s | -54.4°C | 4.3% | 35.3hPa | 2.5V | 00:00:00 | 00:00:00 | 08:30:00 | |
| BAUMI2-15 | 2026-09-04 00:08:07 | 47.66834 | 12.33229 | 53° | 11km/h | 23154m | 5.8m/s | -54.5°C | 4.3% | 35.4hPa | 2.5V | 00:00:00 | 01:36:18 | 00:00:00 | |
| OE5FHM-15 | 2026-09-04 00:08:06 | 47.66832 | 12.33226 | 52° | 9km/h | 23149m | 4.7m/s | -54.5°C | 4.3% | 35.4hPa | 2.5V | 00:00:00 | 01:36:17 | 08:30:00 | |
| PG1ADW-2 | 2026-09-04 00:08:03 | 47.66829 | 12.33214 | 92° | 11km/h | 23134m | 4.7m/s | -54.7°C | 4.3% | 35.5hPa | 2.5V | 00:00:00 | 00:00:00 | 00:00:00 | |
| DL6DJ-15 | 2026-09-04 00:07:52 | 47.66832 | 12.33165 | 38° | 5km/h | 23071m | 6.0m/s | -54.9°C | 1.3% | 35.9hPa | 2.5V | 00:00:00 | 00:00:00 | 00:00:00 | |
| BIOWL1-15 | 2026-09-04 00:07:42 | 47.66832 | 12.33152 | 172° | 11km/h | 23024m | 6m/s | 0°C | 0% | 0hPa | 2.5V | 18:12:15 | 01:35:53 | 00:00:00 | |
| BIOWL1-15 | 2026-09-04 00:07:29 | 47.66860 | 12.33133 | 166° | 11km/h | 22947m | 5.1m/s | 0°C | 0% | 0hPa | 2.5V | 18:12:15 | 01:35:38 | 00:00:00 | |
| BIOWL1-15 | 2026-09-04 00:07:16 | 47.66878 | 12.33107 | 102° | 16km/h | 22891m | 4.4m/s | 0°C | 0% | 0hPa | 2.5V | 18:12:15 | 01:35:27 | 00:00:00 | |
| DG1MFX-10 | 2026-09-04 00:07:15 | 47.66878 | 12.33107 | 103° | 16km/h | 22891m | 4.4m/s | -54.9°C | 1.4% | 36.9hPa | 2.5V | 00:00:00 | 00:00:00 | 00:00:00 | |
| BIOWL1-15 | 2026-09-04 00:07:01 | 47.66916 | 12.33055 | 154° | 9km/h | 22794m | 4.2m/s | 0°C | 0% | 0hPa | 2.5V | 18:12:15 | 01:35:08 | 00:00:00 | |
| DL6DJ-15 | 2026-09-04 00:06:50 | 47.66936 | 12.33036 | 119° | 9km/h | 22754m | 5.3m/s | -54.3°C | 1.3% | 37.7hPa | 2.6V | 00:00:00 | 00:00:00 | 00:00:00 | |
| BIOWL1-15 | 2026-09-04 00:06:42 | 47.66935 | 12.33027 | 186° | 4km/h | 22719m | 4.8m/s | 0°C | 0% | 0hPa | 2.6V | 18:12:15 | 01:34:53 | 00:00:00 | |
| OE5MMP-10 | 2026-09-04 00:06:40 | 47.66938 | 12.33029 | 202° | 11km/h | 22709m | 4.5m/s | -54.2°C | 4.3% | 38.0hPa | 2.5V | 00:00:00 | 01:34:51 | 00:00:00 | |
| PETON7-10 | 2026-09-04 00:06:37 | 47.66945 | 12.33027 | 148° | 7km/h | 22694m | 4.4m/s | -54.3°C | 4.3% | 38.0hPa | 2.5V | 00:00:00 | 00:00:00 | 00:00:00 | |
| OE5FHM-15 | 2026-09-04 00:06:36 | 47.66948 | 12.33024 | 148° | 7km/h | 22689m | 4.0m/s | -54.4°C | 4.4% | 38.1hPa | 2.5V | 00:00:00 | 01:34:47 | 00:00:00 | |
| DG1MFX-10 | 2026-09-04 00:06:35 | 47.66948 | 12.33024 | 148° | 16km/h | 22689m | 4.1m/s | -54.4°C | 1.4% | 38.1hPa | 2.5V | 00:00:00 | 00:00:00 | 00:00:00 | |
| OE5MMP-10 | 2026-09-04 00:06:30 | 47.66961 | 12.33018 | 80° | 7km/h | 22659m | 5.4m/s | -54.3°C | 4.3% | 38.3hPa | 2.5V | 00:00:00 | 01:34:41 | 00:00:00 | |
| OE8JPQ-2 | 2026-09-04 00:06:29 | 47.66961 | 12.33018 | 330° | 7km/h | 22653m | 5.0m/s | -54.3°C | 4.3% | 38.3hPa | 2.5V | 00:00:00 | 01:34:40 | 00:00:00 | |
| OE5DRO-10 | 2026-09-04 00:06:26 | 47.66962 | 12.33021 | 199° | 7km/h | 22638m | 5.2m/s | -54.2°C | 4.3% | 38.4hPa | 2.5V | 00:00:00 | 00:00:00 | 00:00:00 | |
| IN3HCDX | 2026-09-04 00:06:25 | 47.66963 | 12.33021 | 174° | 7km/h | 22632m | 5.8m/s | -54.2°C | 1.3% | 38.5hPa | 2.5V | 00:00:00 | 00:00:00 | 00:00:00 | |
| OE5WHR-10 | 2026-09-04 00:06:24 | 47.66965 | 12.33020 | 171° | 7km/h | 22627m | 4.9m/s | -54.2°C | 4.2% | 38.4hPa | 2.5V | 00:00:00 | 01:34:35 | 00:00:00 | |
| PG1ADW-2 | 2026-09-04 00:06:23 | 47.66968 | 12.33020 | 176° | 9km/h | 22622m | 5.4m/s | -54.2°C | 4.2% | 38.5hPa | 2.5V | 00:00:00 | 00:00:00 | 00:00:00 | |
| DH7VM-15 | 2026-09-04 00:06:22 | 47.66971 | 12.33020 | 188° | 13km/h | 22616m | 5.7m/s | -54.2°C | 0% | 38.6hPa | 2.5V | 00:00:00 | 00:00:00 | 00:00:00 | |
| OE5MMP-10 | 2026-09-04 00:06:20 | 47.66977 | 12.33021 | 188° | 7km/h | 22607m | 4.6m/s | -54.2°C | 4.3% | 38.6hPa | 2.5V | 00:00:00 | 01:34:31 | 08:30:00 | |
| DL6DJ-15 | 2026-09-04 00:06:18 | 47.66979 | 12.33020 | 76° | 4km/h | 22596m | 5.3m/s | -54.2°C | 1.3% | 38.7hPa | 2.6V | 00:00:00 | 00:00:00 | 00:00:00 | |
| DG1MFX-10 | 2026-09-04 00:06:14 | 47.66975 | 12.33015 | 28° | 9km/h | 22580m | 4.6m/s | -54.4°C | 1.3% | 38.8hPa | 2.6V | 00:00:00 | 00:00:00 | 00:00:00 | |
| DK5PH-5 | 2026-09-04 00:06:13 | 47.66971 | 12.33011 | 40° | 11km/h | 22570m | 5.7m/s | 0°C | 0% | 0hPa | 2.6V | 00:00:00 | 01:34:24 | 00:00:00 | |
| OE8JPQ-2 | 2026-09-04 00:06:09 | 47.66968 | 12.33004 | 184° | 9km/h | 22549m | 4.9m/s | -54.5°C | 4.3% | 38.9hPa | 2.6V | 00:00:00 | 00:00:00 | 00:00:00 | |
| PETON7-10 | 2026-09-04 00:06:07 | 47.66972 | 12.33004 | 167° | 11km/h | 22538m | 5.5m/s | -54.4°C | 4.4% | 39.0hPa | 2.5V | 00:00:00 | 00:00:00 | 08:30:00 | |
| OE5FHM-15 | 2026-09-04 00:06:06 | 47.66974 | 12.33003 | 156° | 13km/h | 22533m | 4.7m/s | -54.4°C | 4.3% | 39.0hPa | 2.5V | 00:00:00 | 01:34:17 | 00:00:00 | |
| IN3HCDX | 2026-09-04 00:06:04 | 47.66975 | 12.33002 | 148° | 7km/h | 22528m | 5.2m/s | -54.5°C | 1.3% | 39.1hPa | 2.5V | 00:00:00 | 00:00:00 | 00:00:00 | |
| OE5WHR-10 | 2026-09-04 00:06:03 | 47.66977 | 12.32998 | 77° | 13km/h | 22518m | 4.1m/s | -54.5°C | 4.4% | 39.1hPa | 2.5V | 00:00:00 | 00:00:00 | 00:00:00 | |
| DL6DJ-15 | 2026-09-04 00:05:48 | 47.66963 | 12.32940 | 67° | 11km/h | 22439m | 5.9m/s | -54.4°C | 1.3% | 39.7hPa | 2.5V | 00:00:00 | 00:00:00 | 00:00:00 | |
| BAUMI2-15 | 2026-09-04 00:05:47 | 47.66963 | 12.32940 | 68° | 18km/h | 22439m | 5.8m/s | -54.3°C | 4.3% | 39.6hPa | 2.5V | 00:00:00 | 01:33:58 | 00:00:00 | |
| DK5PH-5 | 2026-09-04 00:05:43 | 47.66953 | 12.32915 | 46° | 15km/h | 22417m | 5.0m/s | 0°C | 0% | 0hPa | 2.5V | 00:00:00 | 01:33:54 | 00:00:00 | |
| OE5WHR-10 | 2026-09-04 00:05:42 | 47.66949 | 12.32910 | 44° | 15km/h | 22413m | 4.3m/s | -54.5°C | 4.4% | 39.8hPa | 2.5V | 00:00:00 | 00:00:00 | 00:00:00 | |
| OE5MMP-10 | 2026-09-04 00:05:40 | 47.66942 | 12.32899 | 50° | 11km/h | 22402m | 4.8m/s | -54.5°C | 4.4% | 39.8hPa | 2.5V | 00:00:00 | 01:33:51 | 00:00:00 | |
| PETON7-10 | 2026-09-04 00:05:37 | 47.66934 | 12.32889 | 27° | 13km/h | 22386m | 4.4m/s | -54.5°C | 4.4% | 39.9hPa | 2.5V | 00:00:00 | 01:33:48 | 00:00:00 | |
| OE5FHM-15 | 2026-09-04 00:05:36 | 47.66932 | 12.32887 | 29° | 13km/h | 22382m | 4.1m/s | -54.6°C | 4.4% | 40.0hPa | 2.5V | 00:00:00 | 01:33:47 | 00:00:00 | |
| DG1MFX-10 | 2026-09-04 00:05:33 | 47.66929 | 12.32883 | 69° | 9km/h | 22372m | 5.4m/s | -54.6°C | 1.4% | 40.1hPa | 2.5V | 00:00:00 | 00:00:00 | 00:00:00 | |
| BAUMI2-15 | 2026-09-04 00:05:32 | 47.66928 | 12.32875 | 72° | 15km/h | 22362m | 5.4m/s | -54.6°C | 4.4% | 40.1hPa | 2.5V | 00:00:00 | 01:33:43 | 00:00:00 | |
| OE5MMP-10 | 2026-09-04 00:05:30 | 47.66925 | 12.32866 | 65° | 15km/h | 22351m | 4.7m/s | -54.6°C | 4.4% | 40.2hPa | 2.5V | 00:00:00 | 01:33:41 | 00:00:00 | |
| OE8JPQ-2 | 2026-09-04 00:05:29 | 47.66923 | 12.32861 | 68° | 13km/h | 22346m | 6.2m/s | -54.5°C | 4.4% | 40.2hPa | 2.5V | 00:00:00 | 01:33:40 | 00:00:00 | |
| BAUMI2-15 | 2026-09-04 00:05:27 | 47.66920 | 12.32849 | 63° | 15km/h | 22336m | 4.3m/s | -54.5°C | 4.5% | 40.2hPa | 2.5V | 00:00:00 | 01:33:38 | 08:30:00 | |
| PETON7-10 | 2026-09-04 00:05:22 | 47.66908 | 12.32831 | 41° | 11km/h | 22310m | 4.9m/s | -54.4°C | 4.5% | 40.4hPa | 2.6V | 00:00:00 | 00:00:00 | 00:00:00 | |
| OE5WHR-10 | 2026-09-04 00:05:21 | 47.66906 | 12.32829 | 32° | 11km/h | 22305m | 4.3m/s | -54.4°C | 4.5% | 40.5hPa | 2.6V | 00:00:00 | 01:33:32 | 00:00:00 | |
| OE5MMP-10 | 2026-09-04 00:05:20 | 47.66904 | 12.32828 | 12° | 13km/h | 22300m | 5.6m/s | -54.4°C | 4.4% | 40.5hPa | 2.6V | 00:00:00 | 01:33:31 | 00:00:00 | |
| BAUMI2-15 | 2026-09-04 00:05:17 | 47.66897 | 12.32826 | 23° | 15km/h | 22285m | 5.7m/s | -54.4°C | 4.4% | 40.6hPa | 2.5V | 00:00:00 | 01:33:28 | 00:00:00 | |
| DL6DJ-15 | 2026-09-04 00:05:16 | 47.66894 | 12.32824 | 36° | 13km/h | 22279m | 5.0m/s | -54.4°C | 1.3% | 40.7hPa | 2.5V | 00:00:00 | 00:00:00 | 00:00:00 | |
| DK5PH-5 | 2026-09-04 00:05:13 | 47.66884 | 12.32814 | 27° | 11km/h | 22264m | 4.5m/s | 0°C | 0% | 0hPa | 2.5V | 00:00:00 | 01:33:24 | 00:00:00 | |
| OE5HKT-10 | 2026-09-04 00:05:12 | 47.66881 | 12.32812 | 29° | 13km/h | 22259m | 4.4m/s | -54.2°C | 4.4% | 40.7hPa | 2.5V | 00:00:00 | 01:33:23 | 00:00:00 | |
| OE5MMP-10 | 2026-09-04 00:05:10 | 47.66877 | 12.32807 | 31° | 11km/h | 22249m | 4.4m/s | -54.2°C | 4.3% | 40.8hPa | 2.5V | 00:00:00 | 01:33:21 | 00:00:00 | |
| OE8JPQ-2 | 2026-09-04 00:05:09 | 47.66875 | 12.32806 | 2° | 11km/h | 22244m | 4.7m/s | -54.1°C | 4.4% | 40.8hPa | 2.5V | 00:00:00 | 00:00:00 | 08:30:00 | |
| PETON7-10 | 2026-09-04 00:05:07 | 47.66871 | 12.32810 | 311° | 11km/h | 22233m | 5.0m/s | -54.0°C | 4.4% | 40.9hPa | 2.6V | 00:00:00 | 00:00:00 | 00:00:00 | |
| OE5FHM-15 | 2026-09-04 00:05:06 | 47.66869 | 12.32814 | 310° | 13km/h | 22228m | 4.5m/s | -54.0°C | 4.3% | 41.0hPa | 2.6V | 00:00:00 | 01:33:17 | 00:00:00 | |
| DF7PN | 2026-09-04 00:05:04 | 47.66850 | 12.32825 | 8° | 11km/h | 22192m | 5.8m/s | -53.9°C | -1.0% | -1.0hPa | 2.5V | 00:00:00 | 00:00:00 | 00:00:00 | |
| DL6DJ-15 | 2026-09-04 00:04:45 | 47.66816 | 12.32859 | 356° | 7km/h | 22121m | 4.5m/s | -53.5°C | 1.2% | 41.7hPa | 2.5V | 00:00:00 | 00:00:00 | 00:00:00 | |
| OE5MMP-10 | 2026-09-04 00:04:43 | 47.66806 | 12.32866 | 307° | 15km/h | 22095m | 4.9m/s | -53.3°C | 4.1% | 41.8hPa | 2.5V | 00:00:00 | 01:32:51 | 00:00:00 | |
| OE5WHR-10 | 2026-09-04 00:04:39 | 47.66805 | 12.32869 | 300° | 13km/h | 22090m | 6.1m/s | -53.2°C | 4.1% | 41.8hPa | 2.5V | 00:00:00 | 00:00:00 | 00:00:00 | |
| PETON7-10 | 2026-09-04 00:04:37 | 47.66802 | 12.32878 | 287° | 13km/h | 22079m | 5.5m/s | -53.1°C | 4.0% | 41.9hPa | 2.5V | 00:00:00 | 00:00:00 | 00:00:00 | |
| OE5FHM-15 | 2026-09-04 00:04:36 | 47.66801 | 12.32883 | 289° | 15km/h | 22074m | 6.0m/s | -53.1°C | 4.0% | 42.0hPa | 2.5V | 00:00:00 | 01:32:47 | 00:00:00 | |
| DG1MFX-10 | 2026-09-04 00:04:33 | 47.66797 | 12.32901 | 286° | 15km/h | 22058m | 5.6m/s | -53.1°C | 1.3% | 42.1hPa | 2.5V | 00:00:00 | 00:00:00 | 00:00:00 | |
| BAUMI2-15 | 2026-09-04 00:04:32 | 47.66796 | 12.32906 | 284° | 11km/h | 22053m | 4.6m/s | -53.0°C | 4.1% | 42.1hPa | 2.5V | 00:00:00 | 01:32:43 | 00:00:00 | |
| OE5DXL-15 | 2026-09-04 00:04:31 | 47.66795 | 12.32915 | 282° | 15km/h | 22042m | 4.9m/s | -53.0°C | 4.0% | 42.2hPa | 2.5V | 00:00:00 | 00:00:00 | 00:00:00 | |
| OE5MMP-10 | 2026-09-04 00:04:30 | 47.66795 | 12.32915 | 282° | 11km/h | 22042m | 4.9m/s | -53.0°C | 4.1% | 42.2hPa | 2.5V | 00:00:00 | 01:32:41 | 00:00:00 | |
| OE8JPQ-2 | 2026-09-04 00:04:29 | 47.66795 | 12.32919 | 275° | 15km/h | 22037m | 4.2m/s | -53.0°C | 4.1% | 42.2hPa | 2.5V | 00:00:00 | 01:32:40 | 00:00:00 | |
| BAUMI2-15 | 2026-09-04 00:04:27 | 47.66795 | 12.32925 | 262° | 11km/h | 22026m | 5.3m/s | -53.0°C | 4.0% | 42.3hPa | 2.5V | 00:00:00 | 01:32:38 | 00:00:00 | |
| PETON7-10 | 2026-09-04 00:04:22 | 47.66791 | 12.32945 | 298° | 18km/h | 22001m | 5.6m/s | -53.3°C | 4.0% | 42.5hPa | 2.5V | 00:00:00 | 00:00:00 | 00:00:00 | |
| IN3HCDX | 2026-09-04 00:04:20 | 47.66788 | 12.32954 | 298° | 13km/h | 21990m | 4.9m/s | -53.6°C | 1.2% | 42.6hPa | 2.5V | 00:00:00 | 00:00:00 | 00:00:00 | |
| OE5WHR-10 | 2026-09-04 00:04:18 | 47.66785 | 12.32964 | 279° | 15km/h | 21980m | 5.4m/s | -53.6°C | 4.1% | 42.6hPa | 2.5V | 00:00:00 | 01:32:29 | 00:00:00 | |
| OE5HKT-10 | 2026-09-04 00:04:17 | 47.66785 | 12.32969 | 261° | 29km/h | 21975m | 4.0m/s | 0°C | 0% | 0hPa | 2.5V | 00:00:00 | 00:00:00 | 00:00:00 | |
| DL6DJ-15 | 2026-09-04 00:04:14 | 47.66792 | 12.32982 | 208° | 16km/h | 21959m | 4.8m/s | -53.8°C | 1.2% | 42.8hPa | 2.5V | 00:00:00 | 00:00:00 | 00:00:00 | |
| OE5DRO-10 | 2026-09-04 00:04:13 | 47.66797 | 12.32985 | 207° | 15km/h | 21954m | 5.7m/s | -53.8°C | 4.1% | 42.8hPa | 2.5V | 00:00:00 | 00:00:00 | 00:00:00 | |
| BAUMI2-15 | 2026-09-04 00:04:12 | 47.66801 | 12.32989 | 209° | 22km/h | 21949m | 5.2m/s | -53.8°C | 4.1% | 42.8hPa | 2.5V | 00:00:00 | 01:32:23 | 00:00:00 | |
| OE5MMP-10 | 2026-09-04 00:04:11 | 47.66812 | 12.32997 | 206° | 15km/h | 21939m | 5.6m/s | -53.8°C | 4.1% | 42.9hPa | 2.6V | 00:00:00 | 01:32:21 | 00:00:00 | |
| OE8JPQ-2 | 2026-09-04 00:04:10 | 47.66818 | 12.33001 | 202° | 11km/h | 21934m | 5.2m/s | -53.9°C | 4.1% | 42.9hPa | 2.6V | 00:00:00 | 00:00:00 | 00:00:00 | |
| OE5FHM-15 | 2026-09-04 00:04:08 | 47.66830 | 12.33008 | 213° | 7km/h | 21918m | 5.6m/s | -54.0°C | 4.2% | 43.0hPa | 2.5V | 00:00:00 | 01:32:17 | 00:00:00 | |
| BAUMI2-15 | 2026-09-04 00:04:02 | 47.66838 | 12.33019 | 225° | 9km/h | 21898m | 4.6m/s | -54.2°C | 4.3% | 43.1hPa | 2.5V | 00:00:00 | 01:32:13 | 00:00:00 | |
| OE5MMP-10 | 2026-09-04 00:04:00 | 47.66840 | 12.33023 | 225° | 9km/h | 21887m | 5.4m/s | -54.3°C | 4.3% | 43.2hPa | 2.5V | 00:00:00 | 01:32:11 | 00:00:00 | |
| DB0UT-7 | 2026-09-04 00:03:59 | 47.66842 | 12.33025 | 218° | 5km/h | 21883m | 4.5m/s | -54.3°C | 4.3% | 43.3hPa | 2.5V | 00:00:00 | 00:00:00 | 00:00:00 | |
| IN3HCDX | 2026-09-04 00:03:58 | 47.66842 | 12.33025 | 218° | 11km/h | 21883m | 4.5m/s | -54.4°C | 1.3% | 43.3hPa | 2.5V | 00:00:00 | 00:00:00 | 00:00:00 | |
| OE5WHR-10 | 2026-09-04 00:03:57 | 47.66847 | 12.33028 | 196° | 5km/h | 21872m | 5.5m/s | -54.4°C | 4.3% | 43.3hPa | 2.5V | 00:00:00 | 00:00:00 | 00:00:00 | |
| OE5DRO-10 | 2026-09-04 00:03:54 | 47.66854 | 12.33032 | 216° | 4km/h | 21856m | 4.9m/s | -54.5°C | 4.4% | 43.4hPa | 2.6V | 00:00:00 | 00:00:00 | 08:30:00 | |
| DG1MFX-10 | 2026-09-04 00:03:52 | 47.66858 | 12.33037 | 224° | 7km/h | 21847m | 5.0m/s | -54.6°C | 1.4% | 43.5hPa | 2.5V | 00:00:00 | 00:00:00 | 00:00:00 | |
| OE5MMP-10 | 2026-09-04 00:03:50 | 47.66859 | 12.33038 | 127° | 2km/h | 21836m | 4.7m/s | -54.6°C | 4.4% | 43.6hPa | 2.5V | 00:00:00 | 01:32:01 | 00:00:00 | |
| DF3TZ-5 | 2026-09-04 00:03:41 | 47.66858 | 12.33042 | 218° | 2km/h | 21786m | 5.0m/s | -54.5°C | 1.4% | 43.9hPa | 2.6V | 00:00:00 | 00:00:00 | 00:00:00 | |
| OE5MMP-10 | 2026-09-04 00:03:40 | 47.66858 | 12.33042 | 219° | 4km/h | 21786m | 5.0m/s | -54.5°C | 4.4% | 43.9hPa | 2.6V | 00:00:00 | 01:31:51 | 00:00:00 | |
| IN3HCDX | 2026-09-04 00:03:37 | 47.66861 | 12.33039 | 137° | 7km/h | 21772m | 4.2m/s | -54.5°C | 1.3% | 44.1hPa | 2.6V | 00:00:00 | 00:00:00 | 00:00:00 | |
| OE5FHM-15 | 2026-09-04 00:03:36 | 47.66863 | 12.33037 | 142° | 9km/h | 21768m | 5.0m/s | -54.4°C | 4.3% | 44.0hPa | 2.6V | 00:00:00 | 01:31:47 | 08:30:00 | |
| OE5DRO-10 | 2026-09-04 00:03:35 | 47.66864 | 12.33036 | 158° | 9km/h | 21762m | 5.3m/s | -54.4°C | 4.4% | 44.1hPa | 2.6V | 00:00:00 | 00:00:00 | 00:00:00 | |
| DG1MFX-10 | 2026-09-04 00:03:33 | 47.66865 | 12.33035 | 0° | 0km/h | 21747m | 5.5m/s | -54.4°C | 1.4% | 44.2hPa | 2.6V | 00:00:00 | 00:00:00 | 00:00:00 | |
| DB0UT-7 | 2026-09-04 00:03:30 | 47.66865 | 12.33036 | 233° | 11km/h | 21732m | 5.0m/s | -54.3°C | 4.4% | 44.3hPa | 2.6V | 00:00:00 | 01:31:40 | 00:00:00 | |
| OE8JPQ-2 | 2026-09-04 00:03:29 | 47.66865 | 12.33036 | 233° | 11km/h | 21732m | 5.0m/s | -54.3°C | 4.4% | 44.3hPa | 2.6V | 00:00:00 | 01:31:40 | 00:00:00 | |
| PETON7-10 | 2026-09-04 00:03:22 | 47.66886 | 12.33041 | 183° | 11km/h | 21697m | 4.2m/s | -54.3°C | 4.3% | 44.5hPa | 2.6V | 00:00:00 | 01:31:33 | 00:00:00 | |
| OE5MMP-10 | 2026-09-04 00:03:20 | 47.66892 | 12.33039 | 158° | 11km/h | 21687m | 4.7m/s | -54.2°C | 4.3% | 44.6hPa | 2.6V | 00:00:00 | 01:31:31 | 08:30:00 | |
| IN3HCDX | 2026-09-04 00:03:16 | 47.66902 | 12.33036 | 181° | 11km/h | 21667m | 4.5m/s | -54.2°C | 1.3% | 44.8hPa | 2.5V | 00:00:00 | 00:00:00 | 00:00:00 | |
| OE5WHR-10 | 2026-09-04 00:03:15 | 47.66904 | 12.33036 | 173° | 9km/h | 21662m | 5.8m/s | -54.2°C | 4.3% | 44.8hPa | 2.5V | 00:00:00 | 01:31:26 | 00:00:00 | |
| DL6DJ-15 | 2026-09-04 00:03:12 | 47.66914 | 12.33036 | 191° | 13km/h | 21647m | 5.8m/s | -54.2°C | 1.3% | 45.0hPa | 2.5V | 00:00:00 | 00:00:00 | 00:00:00 | |
| DF3TZ-5 | 2026-09-04 00:03:11 | 47.66920 | 12.33039 | 202° | 13km/h | 21637m | 4.4m/s | -54.2°C | 1.3% | 45.0hPa | 2.5V | 00:00:00 | 00:00:00 | 00:00:00 | |
| OE5MMP-10 | 2026-09-04 00:03:10 | 47.66920 | 12.33039 | 203° | 9km/h | 21637m | 4.4m/s | -54.1°C | 4.3% | 44.9hPa | 2.5V | 00:00:00 | 01:31:21 | 00:00:00 | |
| OE8JPQ-2 | 2026-09-04 00:03:09 | 47.66923 | 12.33040 | 194° | 7km/h | 21632m | 5.7m/s | -54.1°C | 4.3% | 45.0hPa | 2.5V | 00:00:00 | 00:00:00 | 00:00:00 | |
| PETON7-10 | 2026-09-04 00:03:08 | 47.66928 | 12.33041 | 189° | 7km/h | 21622m | 4.5m/s | -54.1°C | 4.2% | 45.1hPa | 2.5V | 00:00:00 | 00:00:00 | 00:00:00 | |
| OE5FHM-15 | 2026-09-04 00:03:06 | 47.66930 | 12.33042 | 200° | 5km/h | 21617m | 5.7m/s | -54.1°C | 4.2% | 45.1hPa | 2.6V | 00:00:00 | 01:31:17 | 00:00:00 | |
| DG1MFX-10 | 2026-09-04 00:02:31 | 47.66986 | 12.33069 | 176° | 5km/h | 21343m | 4.5m/s | -55.0°C | 1.4% | 47.1hPa | 2.6V | 00:00:00 | 00:00:00 | 00:00:00 | |
| DL6DJ-15 | 2026-09-04 00:02:30 | 47.67001 | 12.33071 | 177° | 11km/h | 21312m | 4.9m/s | -55.2°C | 1.4% | 47.4hPa | 2.6V | 00:00:00 | 00:00:00 | 00:00:00 | |
| OE8JPQ-2 | 2026-09-04 00:02:29 | 47.66990 | 12.33069 | 187° | 7km/h | 21334m | 5.5m/s | -55.1°C | 4.5% | 47.2hPa | 2.6V | 00:00:00 | 00:00:00 | 08:30:00 | |
| DF3TZ-5 | 2026-09-04 00:02:28 | 47.67001 | 12.33071 | 177° | 11km/h | 21312m | 4.9m/s | -55.2°C | 1.4% | 47.4hPa | 2.5V | 00:00:00 | 00:00:00 | 00:00:00 | |
| PETON7-10 | 2026-09-04 00:02:27 | 47.66995 | 12.33071 | 193° | 7km/h | 21323m | 4.7m/s | -55.1°C | 4.5% | 47.2hPa | 2.5V | 00:00:00 | 00:00:00 | 00:00:00 | |
| OE5DXL-15 | 2026-09-04 00:02:19 | 47.67014 | 12.33072 | 164° | 4km/h | 21288m | 5.4m/s | -55.1°C | 4.6% | 47.5hPa | 2.5V | 00:00:00 | 00:00:00 | 00:00:00 | |
| OE5MMP-10 | 2026-09-04 00:02:18 | 47.67014 | 12.33072 | 164° | 4km/h | 21288m | 5.4m/s | -55.1°C | 4.6% | 47.5hPa | 2.5V | 00:00:00 | 01:30:11 | 00:00:00 | |
| IN3HCDX | 2026-09-04 00:02:09 | 47.67020 | 12.33066 | 177° | 4km/h | 21250m | 5.7m/s | -55.0°C | 1.4% | 47.8hPa | 2.5V | 00:00:00 | 00:00:00 | 00:00:00 | |
| OE5WHR-10 | 2026-09-04 00:02:08 | 47.67021 | 12.33067 | 215° | 4km/h | 21245m | 4.5m/s | -54.9°C | 4.4% | 47.8hPa | 2.5V | 00:00:00 | 00:00:00 | 08:30:00 | |
| OE5MMP-10 | 2026-09-04 00:02:06 | 47.67021 | 12.33067 | 232° | 4km/h | 21240m | 4.5m/s | -55.0°C | 4.4% | 47.9hPa | 2.5V | 00:00:00 | 01:30:01 | 08:30:00 | |
| OE8JPQ-2 | 2026-09-04 00:02:05 | 47.67022 | 12.33068 | 233° | 4km/h | 21235m | 5.4m/s | -54.9°C | 4.4% | 47.9hPa | 2.5V | 00:00:00 | 00:00:00 | 00:00:00 | |
| BAUMI2-15 | 2026-09-04 00:02:01 | 47.67022 | 12.33068 | 288° | 4km/h | 21225m | 5.0m/s | -54.9°C | 4.4% | 48.0hPa | 2.5V | 00:00:00 | 01:29:58 | 00:00:00 | |
| BAUMI2-15 | 2026-09-04 00:01:56 | 47.67019 | 12.33067 | 27° | 5km/h | 21202m | 4.2m/s | -54.8°C | 4.4% | 48.2hPa | 2.5V | 00:00:00 | 01:29:53 | 00:00:00 | |
| OE5DRO-10 | 2026-09-04 00:01:54 | 47.67017 | 12.33066 | 20° | 5km/h | 21198m | 5.1m/s | -54.8°C | 4.4% | 48.2hPa | 2.6V | 00:00:00 | 00:00:00 | 00:00:00 | |
| OE5MMP-10 | 2026-09-04 00:01:52 | 47.67015 | 12.33065 | 6° | 4km/h | 21192m | 4.9m/s | -54.8°C | 4.4% | 48.2hPa | 2.6V | 00:00:00 | 01:29:51 | 00:00:00 | |
| DL6DJ-15 | 2026-09-04 00:01:50 | 47.67014 | 12.33065 | 342° | 2km/h | 21188m | 4.8m/s | -54.8°C | 1.4% | 48.3hPa | 2.6V | 00:00:00 | 00:00:00 | 00:00:00 | |
| DF3TZ-5 | 2026-09-04 00:01:48 | 47.67014 | 12.33065 | 92° | 0km/h | 21172m | 4.5m/s | -54.8°C | 1.4% | -1.0hPa | 2.6V | 00:00:00 | 00:00:00 | 00:00:00 | |
| PETON7-10 | 2026-09-04 00:01:47 | 47.67014 | 12.33065 | 58° | 7km/h | 21177m | 5.5m/s | -54.8°C | 4.4% | 48.3hPa | 2.6V | 00:00:00 | 00:00:00 | 08:30:00 | |
| OE5FHM-15 | 2026-09-04 00:01:44 | 47.67014 | 12.33065 | 93° | 7km/h | 21172m | 4.4m/s | -54.8°C | 4.4% | 48.4hPa | 2.5V | 00:00:00 | 01:29:47 | 00:00:00 | |
| BAUMI2-15 | 2026-09-04 00:01:39 | 47.67012 | 12.33068 | 311° | 7km/h | 21155m | 4.0m/s | -54.9°C | 4.5% | 48.5hPa | 2.5V | 00:00:00 | 01:29:43 | 00:00:00 | |
| IN3HCDX | 2026-09-04 00:01:38 | 47.67012 | 12.33069 | 337° | 5km/h | 21150m | 5.4m/s | -55.0°C | 1.4% | 48.6hPa | 2.5V | 00:00:00 | 00:00:00 | 00:00:00 | |
| DG1MFX-10 | 2026-09-04 00:01:37 | 47.67010 | 12.33069 | 351° | 7km/h | 21145m | 4.1m/s | -55.0°C | 1.4% | 48.7hPa | 2.5V | 00:00:00 | 00:00:00 | 00:00:00 | |
| OE8JPQ-2 | 2026-09-04 00:01:36 | 47.67008 | 12.33070 | 344° | 7km/h | 21141m | 3.8m/s | -55.0°C | 4.5% | 48.6hPa | 2.5V | 00:00:00 | 01:29:40 | 00:00:00 | |
| BAUMI2-15 | 2026-09-04 00:01:33 | 47.67003 | 12.33073 | 326° | 11km/h | 21132m | 4.6m/s | -54.9°C | 4.4% | 48.7hPa | 2.5V | 00:00:00 | 01:29:38 | 00:00:00 | |
| PG1ADW-2 | 2026-09-04 00:01:28 | 47.66996 | 12.33080 | 338° | 9km/h | 21118m | 4.3m/s | -54.9°C | 4.4% | 48.8hPa | 2.6V | 00:00:00 | 00:00:00 | 00:00:00 | |
| BAUMI2-15 | 2026-09-04 00:01:27 | 47.66993 | 12.33083 | 289° | 7km/h | 21109m | 5.4m/s | -54.9°C | 4.4% | 48.9hPa | 2.6V | 00:00:00 | 01:29:33 | 00:00:00 | |
| OE5MMP-10 | 2026-09-04 00:01:22 | 47.66993 | 12.33088 | 240° | 7km/h | 21099m | 5.3m/s | -54.8°C | 4.4% | 48.9hPa | 2.6V | 00:00:00 | 01:29:31 | 00:00:00 | |
| BAUMI2-15 | 2026-09-04 00:01:21 | 47.66998 | 12.33095 | 223° | 9km/h | 21084m | 4.8m/s | -54.8°C | 4.3% | 49.0hPa | 2.6V | 00:00:00 | 01:29:28 | 00:00:00 | |
| BAUMI2-15 | 2026-09-04 00:01:15 | 47.67003 | 12.33106 | 195° | 5km/h | 21060m | 4.1m/s | -55.0°C | 4.5% | 49.3hPa | 2.6V | 00:00:00 | 01:29:23 | 08:30:00 | |
| OE5WHR-10 | 2026-09-04 00:01:12 | 47.67006 | 12.33107 | 204° | 13km/h | 21047m | 4.2m/s | -55.0°C | 4.5% | 49.4hPa | 2.6V | 00:00:00 | 01:29:20 | 00:00:00 | |
| DL6DJ-15 | 2026-09-04 00:01:11 | 47.67011 | 12.33110 | 202° | 9km/h | 21038m | 4.8m/s | -55.1°C | 1.4% | 49.5hPa | 2.6V | 00:00:00 | 00:00:00 | 00:00:00 | |
| BAUMI2-15 | 2026-09-04 00:01:10 | 47.67010 | 12.33110 | 203° | 11km/h | 21038m | 4.8m/s | -55.0°C | 4.5% | 49.4hPa | 2.6V | 00:00:00 | 01:29:18 | 00:00:00 | |
| PETON7-10 | 2026-09-04 00:01:09 | 47.67010 | 12.33110 | 203° | 13km/h | 21038m | 4.8m/s | -55.0°C | 4.5% | 49.4hPa | 2.6V | 00:00:00 | 01:29:18 | 00:00:00 | |
| DF3TZ-5 | 2026-09-04 00:01:08 | 47.67022 | 12.33133 | 249° | 16km/h | 21010m | 4.1m/s | -55.0°C | -1.0% | -1.0hPa | 2.6V | 00:00:00 | 00:00:00 | 00:00:00 | |
| OE5FHM-15 | 2026-09-04 00:01:07 | 47.67013 | 12.33112 | 210° | 13km/h | 21034m | 4.6m/s | -55.0°C | 4.5% | 49.4hPa | 2.6V | 00:00:00 | 01:29:17 | 00:00:00 | |
| OE5MMP-10 | 2026-09-04 00:01:03 | 47.67023 | 12.33139 | 255° | 13km/h | 21005m | 5.5m/s | -55.0°C | 4.4% | 49.7hPa | 2.6V | 00:00:00 | 01:29:11 | 00:00:00 | |
| BAUMI2-15 | 2026-09-04 00:00:58 | 47.67027 | 12.33151 | 213° | 11km/h | 20990m | 5.1m/s | -55.0°C | 4.4% | 49.8hPa | 2.6V | 00:00:00 | 01:29:08 | 00:00:00 | |
| PETON7-10 | 2026-09-04 00:00:52 | 47.67042 | 12.33153 | 190° | 13km/h | 20966m | 5.2m/s | -55.0°C | 4.3% | 50.0hPa | 2.5V | 00:00:00 | 00:00:00 | 00:00:00 | |
| OE5MMP-10 | 2026-09-04 00:00:50 | 47.67050 | 12.33157 | 209° | 11km/h | 20956m | 4.7m/s | -55.0°C | 4.3% | 50.1hPa | 2.6V | 00:00:00 | 01:29:01 | 00:00:00 | |
| DG1MFX-10 | 2026-09-04 00:00:49 | 47.67053 | 12.33160 | 220° | 15km/h | 20951m | 5.2m/s | -55.0°C | 1.4% | 50.2hPa | 2.6V | 00:00:00 | 00:00:00 | 00:00:00 | |
| OE5WHR-10 | 2026-09-04 00:00:48 | 47.67056 | 12.33163 | 226° | 13km/h | 20947m | 4.1m/s | -55.0°C | 4.4% | 50.1hPa | 2.6V | 00:00:00 | 00:00:00 | 00:00:00 | |
| BAUMI2-15 | 2026-09-04 00:00:47 | 47.67058 | 12.33166 | 222° | 11km/h | 20943m | 4.3m/s | -55.0°C | 4.3% | 50.2hPa | 2.6V | 00:00:00 | 01:28:58 | 00:00:00 | |
| OE5DRO-10 | 2026-09-04 00:00:45 | 47.67065 | 12.33170 | 179° | 13km/h | 20928m | 4.2m/s | -55.1°C | 4.4% | 50.3hPa | 2.6V | 00:00:00 | 00:00:00 | 00:00:00 | |
| BAUMI2-15 | 2026-09-04 00:00:42 | 47.67070 | 12.33169 | 170° | 13km/h | 20919m | 4.8m/s | -55.2°C | 4.4% | 50.4hPa | 2.6V | 00:00:00 | 01:28:53 | 00:00:00 | |
| PG1ADW-2 | 2026-09-04 00:00:41 | 47.67073 | 12.33169 | 175° | 15km/h | 20914m | 4.5m/s | -55.2°C | 4.5% | 50.4hPa | 2.6V | 00:00:00 | 01:28:52 | 00:00:00 | |
| OE5MMP-10 | 2026-09-04 00:00:40 | 47.67075 | 12.33168 | 179° | 15km/h | 20910m | 5.4m/s | -55.3°C | 4.5% | 50.4hPa | 2.5V | 00:00:00 | 01:28:51 | 00:00:00 | |
| OE5FHM-15 | 2026-09-04 00:00:38 | 47.67090 | 12.33169 | 180° | 16km/h | 20889m | 4.6m/s | -55.3°C | 4.5% | 50.6hPa | 2.5V | 00:00:00 | 01:28:47 | 00:00:00 | |
| DF3TZ-5 | 2026-09-04 00:00:37 | 47.67098 | 12.33168 | 171° | 15km/h | 20879m | 5.6m/s | -55.4°C | -1.0% | -1.0hPa | 2.5V | 00:00:00 | 00:00:00 | 00:00:00 | |
| BAUMI2-15 | 2026-09-04 00:00:36 | 47.67104 | 12.33165 | 151° | 13km/h | 20870m | 5.5m/s | -55.4°C | 4.4% | 50.7hPa | 2.5V | 00:00:00 | 01:28:43 | 00:00:00 | |
| OE8JPQ-2 | 2026-09-04 00:00:35 | 47.67110 | 12.33155 | 128° | 18km/h | 20854m | 5.6m/s | -55.6°C | 4.5% | 50.9hPa | 2.5V | 00:00:00 | 01:28:40 | 00:00:00 | |
| DG1MFX-10 | 2026-09-04 00:00:34 | 47.67113 | 12.33151 | 140° | 15km/h | 20849m | 5.2m/s | -55.7°C | 1.4% | 51.0hPa | 2.5V | 00:00:00 | 00:00:00 | 00:00:00 | |
| BAUMI2-15 | 2026-09-04 00:00:33 | 47.67116 | 12.33148 | 150° | 15km/h | 20844m | 4.3m/s | -55.7°C | 4.5% | 51.0hPa | 2.5V | 00:00:00 | 01:28:38 | 08:30:00 | |
| OE5WHR-10 | 2026-09-04 00:00:32 | 47.67116 | 12.33148 | 150° | 18km/h | 20844m | 4.3m/s | -55.7°C | 4.5% | 51.0hPa | 2.5V | 00:00:00 | 00:00:00 | 00:00:00 | |
| OE5DRO-10 | 2026-09-04 00:00:28 | 47.67122 | 12.33145 | 169° | 20km/h | 20834m | 4.7m/s | -55.8°C | 4.5% | 51.0hPa | 2.5V | 00:00:00 | 00:00:00 | 00:00:00 | |
| BAUMI2-15 | 2026-09-04 00:00:23 | 47.67134 | 12.33142 | 167° | 20km/h | 20819m | 4.8m/s | -55.8°C | 4.5% | 51.2hPa | 2.5V | 00:00:00 | 01:28:33 | 00:00:00 | |
| PETON7-10 | 2026-09-04 00:00:22 | 47.67134 | 12.33142 | 167° | 20km/h | 20819m | 4.8m/s | -55.8°C | 4.5% | 51.2hPa | 2.5V | 00:00:00 | 01:28:33 | 00:00:00 | |
| PG1ADW-2 | 2026-09-04 00:00:21 | 47.67139 | 12.33140 | 160° | 20km/h | 20814m | 4.1m/s | -55.8°C | 4.5% | 51.2hPa | 2.5V | 00:00:00 | 00:00:00 | 00:00:00 | |
| OE5MMP-10 | 2026-09-04 00:00:20 | 47.67143 | 12.33137 | 154° | 20km/h | 20810m | 5.3m/s | -55.8°C | 4.5% | 51.2hPa | 2.5V | 00:00:00 | 01:28:31 | 08:30:00 | |
| BAUMI2-15 | 2026-09-04 00:00:19 | 47.67155 | 12.33125 | 143° | 20km/h | 20795m | 5.6m/s | -55.9°C | 4.4% | 51.4hPa | 2.5V | 00:00:00 | 01:28:28 | 00:00:00 | |
| BAUMI2-15 | 2026-09-04 00:00:12 | 47.67174 | 12.33101 | 144° | 22km/h | 20772m | 3.9m/s | -56.4°C | 4.6% | 51.5hPa | 2.5V | 00:00:00 | 01:28:23 | 00:00:00 | |
| OE8JPQ-2 | 2026-09-04 00:00:10 | 47.67188 | 12.33089 | 150° | 26km/h | 20757m | 4.3m/s | -56.5°C | 4.7% | 51.7hPa | 2.6V | 00:00:00 | 00:00:00 | 00:00:00 | |
| DG1MFX-10 | 2026-09-04 00:00:09 | 47.67193 | 12.33084 | 147° | 24km/h | 20752m | 5.6m/s | -56.6°C | 1.5% | 51.8hPa | 2.5V | 00:00:00 | 00:00:00 | 00:00:00 | |
| BAUMI2-15 | 2026-09-04 00:00:08 | 47.67197 | 12.33079 | 137° | 26km/h | 20747m | 5.0m/s | -56.6°C | 4.8% | 51.7hPa | 2.5V | 00:00:00 | 01:28:18 | 00:00:00 | |
| DL6DJ-15 | 2026-09-04 00:00:06 | 47.67232 | 12.32976 | 109° | 24km/h | 20691m | 5.8m/s | -56.6°C | 1.5% | 52.2hPa | 2.5V | 00:00:00 | 00:00:00 | 00:00:00 | |
| PG1ADW-2 | 2026-09-04 00:00:01 | 47.67218 | 12.33025 | 112° | 22km/h | 20716m | 4.9m/s | -56.7°C | 4.9% | 52.0hPa | 2.5V | 00:00:00 | 00:00:00 | 00:00:00 | |
| OE5MMP-10 | 2026-09-04 00:00:00 | 47.67221 | 12.33015 | 113° | 24km/h | 20711m | 3.9m/s | -56.7°C | 4.9% | 52.0hPa | 2.5V | 00:00:00 | 01:28:11 | 00:00:00 | |
| BAUMI2-15 | 2026-09-03 23:59:57 | 47.67230 | 12.32985 | 116° | 22km/h | 20697m | 4.4m/s | -56.6°C | 4.8% | 52.2hPa | 2.5V | 00:00:00 | 01:28:08 | 00:00:00 | |
| PETON7-10 | 2026-09-03 23:59:52 | 47.67237 | 12.32945 | 102° | 20km/h | 20670m | 4.8m/s | -56.6°C | 4.8% | 52.4hPa | 2.5V | 00:00:00 | 00:00:00 | 00:00:00 | |
| OE5MMP-10 | 2026-09-03 23:59:50 | 47.67239 | 12.32932 | 98° | 20km/h | 20660m | 5.7m/s | -56.8°C | 4.9% | 52.5hPa | 2.5V | 00:00:00 | 01:28:01 | 00:00:00 | |
| OE8JPQ-2 | 2026-09-03 23:59:49 | 47.67239 | 12.32925 | 98° | 20km/h | 20655m | 4.5m/s | -56.7°C | 4.9% | 52.5hPa | 2.6V | 00:00:00 | 00:00:00 | 00:00:00 | |
| DG1MFX-10 | 2026-09-03 23:59:47 | 47.67242 | 12.32912 | 114° | 20km/h | 20645m | 5.9m/s | -56.7°C | 1.6% | 52.6hPa | 2.6V | 00:00:00 | 00:00:00 | 00:00:00 | |
| OE5WHR-10 | 2026-09-03 23:59:44 | 47.67248 | 12.32890 | 105° | 20km/h | 20632m | 5.6m/s | -56.6°C | 4.9% | 52.7hPa | 2.6V | 00:00:00 | 00:00:00 | 00:00:00 | |
| OE5MMP-10 | 2026-09-03 23:59:40 | 47.67247 | 12.32858 | 80° | 20km/h | 20610m | 5.0m/s | -56.4°C | 4.9% | 52.9hPa | 2.5V | 00:00:00 | 01:27:51 | 00:00:00 | |
| PETON7-10 | 2026-09-03 23:59:37 | 47.67242 | 12.32836 | 68° | 18km/h | 20595m | 4.9m/s | -56.3°C | 4.8% | 53.0hPa | 2.5V | 00:00:00 | 01:27:48 | 00:00:00 | |
| DL6DJ-15 | 2026-09-03 23:59:35 | 47.67240 | 12.32814 | 95° | 20km/h | 20580m | 4.7m/s | -56.3°C | 1.5% | 53.2hPa | 2.5V | 00:00:00 | 00:00:00 | 00:00:00 | |
| DB0UT-7 | 2026-09-03 23:59:33 | 47.67241 | 12.32806 | 100° | 13km/h | 20576m | 4.6m/s | -56.2°C | 4.7% | 53.2hPa | 2.5V | 00:00:00 | 00:00:00 | 08:30:00 | |
| OE5MMP-10 | 2026-09-03 23:59:30 | 47.67243 | 12.32786 | 93° | 16km/h | 20560m | 4.5m/s | -56.1°C | 4.7% | 53.3hPa | 2.6V | 00:00:00 | 01:27:41 | 00:00:00 | |
| OE8JPQ-2 | 2026-09-03 23:59:29 | 47.67243 | 12.32780 | 94° | 15km/h | 20555m | 4.6m/s | -56.1°C | 4.7% | 53.3hPa | 2.6V | 00:00:00 | 01:27:40 | 00:00:00 | |
| PG1ADW-2 | 2026-09-03 23:59:28 | 47.67243 | 12.32773 | 96° | 15km/h | 20550m | 6.2m/s | -56.0°C | 4.7% | 53.4hPa | 2.6V | 00:00:00 | 00:00:00 | 08:30:00 | |
| DG1MFX-10 | 2026-09-03 23:59:26 | 47.67243 | 12.32767 | 95° | 18km/h | 20544m | 4.8m/s | -56.1°C | 1.5% | 53.5hPa | 2.6V | 00:00:00 | 00:00:00 | 00:00:00 | |
| OE5DRO-10 | 2026-09-03 23:59:25 | 47.67243 | 12.32754 | 76° | 13km/h | 20533m | 5.8m/s | -56.0°C | 4.7% | 53.6hPa | 2.6V | 00:00:00 | 00:00:00 | 00:00:00 | |
| OE5WHR-10 | 2026-09-03 23:59:23 | 47.67240 | 12.32743 | 68° | 11km/h | 20522m | 5.6m/s | -55.9°C | 4.8% | 53.6hPa | 2.6V | 00:00:00 | 00:00:00 | 00:00:00 | |
| PETON7-10 | 2026-09-03 23:59:22 | 47.67239 | 12.32737 | 75° | 13km/h | 20517m | 4.8m/s | -55.9°C | 4.8% | 53.7hPa | 2.6V | 00:00:00 | 00:00:00 | 08:30:00 | |
| OE5MMP-10 | 2026-09-03 23:59:20 | 47.67237 | 12.32728 | 78° | 13km/h | 20508m | 4.9m/s | -55.9°C | 4.8% | 53.7hPa | 2.6V | 00:00:00 | 01:27:31 | 00:00:00 | |
| OE5MMP-10 | 2026-09-03 23:59:10 | 47.67230 | 12.32682 | 75° | 9km/h | 20458m | 5.1m/s | -55.5°C | 4.7% | 54.2hPa | 2.5V | 00:00:00 | 01:27:21 | 00:00:00 | |
| OE8JPQ-2 | 2026-09-03 23:59:09 | 47.67229 | 12.32677 | 76° | 9km/h | 20453m | 4.2m/s | -55.4°C | 4.7% | 54.2hPa | 2.5V | 00:00:00 | 00:00:00 | 08:30:00 | |
| PG1ADW-2 | 2026-09-03 23:59:08 | 47.67228 | 12.32673 | 64° | 9km/h | 20448m | 6.0m/s | -55.4°C | 4.7% | 54.3hPa | 2.6V | 00:00:00 | 01:27:19 | 00:00:00 | |
| PETON7-10 | 2026-09-03 23:59:07 | 47.67227 | 12.32671 | 46° | 11km/h | 20442m | 4.5m/s | -55.3°C | 4.7% | 54.3hPa | 2.6V | 00:00:00 | 00:00:00 | 00:00:00 | |
| OE5DRO-10 | 2026-09-03 23:59:06 | 47.67226 | 12.32669 | 40° | 9km/h | 20438m | 4.8m/s | -55.3°C | 4.6% | 54.4hPa | 2.6V | 00:00:00 | 00:00:00 | 00:00:00 | |
| OE5FHM-15 | 2026-09-03 23:59:05 | 47.67225 | 12.32668 | 52° | 9km/h | 20433m | 5.3m/s | -55.2°C | 4.6% | 54.4hPa | 2.6V | 00:00:00 | 01:27:16 | 08:30:00 | |
| IN3HCDX | 2026-09-03 23:59:04 | 47.67225 | 12.32668 | 53° | 5km/h | 20433m | 5.3m/s | -55.3°C | 1.4% | 54.4hPa | 2.6V | 00:00:00 | 00:00:00 | 00:00:00 | |
| DB0UT-7 | 2026-09-03 23:59:03 | 47.67223 | 12.32664 | 41° | 24km/h | 20423m | 4.7m/s | -55.2°C | 4.6% | 54.5hPa | 2.6V | 00:00:00 | 01:27:14 | 00:00:00 | |
| DF3TZ-5 | 2026-09-03 23:59:02 | 47.67210 | 12.32636 | 71° | 16km/h | 20389m | 5.4m/s | -55.0°C | -1.0% | -1.0hPa | 2.6V | 00:00:00 | 00:00:00 | 00:00:00 | |
| OE5MMP-10 | 2026-09-03 23:59:00 | 47.67216 | 12.32657 | 43° | 11km/h | 20409m | 4.3m/s | -55.1°C | 4.6% | 54.6hPa | 2.6V | 00:00:00 | 01:27:11 | 00:00:00 | |
| PETON7-10 | 2026-09-03 23:58:52 | 47.67207 | 12.32622 | 107° | 7km/h | 20370m | 6.1m/s | -54.8°C | 4.4% | 54.9hPa | 2.6V | 00:00:00 | 01:27:03 | 00:00:00 | |
| OE5MMP-10 | 2026-09-03 23:58:50 | 47.67208 | 12.32619 | 99° | 9km/h | 20360m | 4.7m/s | -54.7°C | 4.4% | 55.0hPa | 2.6V | 00:00:00 | 01:27:01 | 08:30:00 | |
| OE8JPQ-2 | 2026-09-03 23:58:49 | 47.67208 | 12.32618 | 47° | 5km/h | 20355m | 5.4m/s | -54.7°C | 4.4% | 55.1hPa | 2.6V | 00:00:00 | 00:00:00 | 00:00:00 | |
| PG1ADW-2 | 2026-09-03 23:58:48 | 47.67206 | 12.32616 | 30° | 5km/h | 20350m | 4.2m/s | -54.7°C | 4.4% | 55.1hPa | 2.6V | 00:00:00 | 00:00:00 | 00:00:00 | |
| OE5DRO-10 | 2026-09-03 23:58:47 | 47.67204 | 12.32614 | 37° | 5km/h | 20345m | 4.0m/s | -54.6°C | 4.4% | 55.1hPa | 2.6V | 00:00:00 | 00:00:00 | 00:00:00 | |
| DG1MFX-10 | 2026-09-03 23:58:44 | 47.67200 | 12.32607 | 62° | 13km/h | 20335m | 5.1m/s | -54.7°C | 1.4% | 55.3hPa | 2.6V | 00:00:00 | 00:00:00 | 00:00:00 | |
| IN3HCDX | 2026-09-03 23:58:43 | 47.67199 | 12.32603 | 71° | 13km/h | 20330m | 4.7m/s | -54.6°C | 1.4% | 55.3hPa | 2.6V | 00:00:00 | 00:00:00 | 00:00:00 | |
| OE5WHR-10 | 2026-09-03 23:58:41 | 47.67196 | 12.32595 | 49° | 5km/h | 20315m | 4.7m/s | -54.6°C | 4.4% | 55.4hPa | 2.6V | 00:00:00 | 00:00:00 | 08:30:00 | |
| OE5MMP-10 | 2026-09-03 23:58:40 | 47.67196 | 12.32595 | 173° | 4km/h | 20311m | 4.1m/s | -54.5°C | 4.4% | 55.5hPa | 2.5V | 00:00:00 | 01:26:51 | 00:00:00 | |
| PETON7-10 | 2026-09-03 23:58:37 | 47.67198 | 12.32593 | 138° | 5km/h | 20296m | 4.1m/s | -54.5°C | 4.4% | 55.6hPa | 2.5V | 00:00:00 | 00:00:00 | 00:00:00 | |
| OE5FHM-15 | 2026-09-03 23:58:35 | 47.67199 | 12.32591 | 137° | 11km/h | 20286m | 5.4m/s | -54.5°C | 4.4% | 55.7hPa | 2.5V | 00:00:00 | 01:26:46 | 00:00:00 | |
| DL6DJ-15 | 2026-09-03 23:58:33 | 47.67202 | 12.32591 | 177° | 5km/h | 20270m | 5.4m/s | -54.6°C | 1.4% | 55.9hPa | 2.5V | 00:00:00 | 00:00:00 | 00:00:00 | |
| OE5MMP-10 | 2026-09-03 23:58:30 | 47.67205 | 12.32590 | 174° | 7km/h | 20260m | 6.0m/s | -54.5°C | 4.4% | 55.9hPa | 2.5V | 00:00:00 | 01:26:41 | 00:00:00 | |
| OE8JPQ-2 | 2026-09-03 23:58:29 | 47.67206 | 12.32590 | 176° | 13km/h | 20254m | 4.8m/s | -54.4°C | 4.4% | 56.0hPa | 2.5V | 00:00:00 | 01:26:40 | 00:00:00 | |
| PG1ADW-2 | 2026-09-03 23:58:28 | 47.67208 | 12.32590 | 174° | 13km/h | 20250m | 3.6m/s | -54.4°C | 4.4% | 56.0hPa | 2.5V | 00:00:00 | 00:00:00 | 00:00:00 | |
| DG1MFX-10 | 2026-09-03 23:58:24 | 47.67215 | 12.32589 | 178° | 11km/h | 20235m | 5.0m/s | -54.5°C | 1.4% | 56.2hPa | 2.6V | 00:00:00 | 00:00:00 | 00:00:00 | |
| PETON7-10 | 2026-09-03 23:58:22 | 47.67221 | 12.32589 | 191° | 16km/h | 20220m | 4.3m/s | -54.3°C | 4.3% | 56.3hPa | 2.6V | 00:00:00 | 00:00:00 | 00:00:00 | |
| OE5WHR-10 | 2026-09-03 23:58:20 | 47.67225 | 12.32590 | 191° | 18km/h | 20209m | 4.9m/s | -54.3°C | 4.3% | 56.3hPa | 2.6V | 00:00:00 | 00:00:00 | 00:00:00 | |
| OE5MMP-10 | 2026-09-03 23:58:10 | 47.67258 | 12.32617 | 186° | 22km/h | 20158m | 6.1m/s | -54.3°C | 4.3% | 56.8hPa | 2.6V | 00:00:00 | 01:26:21 | 00:00:00 | |
| OE8JPQ-2 | 2026-09-03 23:58:09 | 47.67264 | 12.32617 | 178° | 26km/h | 20152m | 5.2m/s | -54.3°C | 4.3% | 56.8hPa | 2.6V | 00:00:00 | 00:00:00 | 00:00:00 | |
| PG1ADW-2 | 2026-09-03 23:58:08 | 47.67269 | 12.32617 | 177° | 26km/h | 20147m | 4.3m/s | -54.3°C | 4.3% | 56.9hPa | 2.6V | 00:00:00 | 00:00:00 | 00:00:00 | |
| OE5FHM-15 | 2026-09-03 23:58:05 | 47.67284 | 12.32618 | 191° | 26km/h | 20131m | 4.6m/s | -54.4°C | 4.3% | 57.0hPa | 2.6V | 00:00:00 | 01:26:16 | 00:00:00 | |
| PETON7-10 | 2026-09-03 23:58:04 | 47.67290 | 12.32619 | 189° | 27km/h | 20126m | 5.9m/s | -54.4°C | 4.3% | 57.1hPa | 2.6V | 00:00:00 | 01:26:15 | 00:00:00 | |
| DG1MFX-10 | 2026-09-03 23:58:03 | 47.67290 | 12.32619 | 189° | 20km/h | 20126m | 6.0m/s | -54.5°C | 1.4% | 57.1hPa | 2.6V | 00:00:00 | 00:00:00 | 00:00:00 | |
| DL6DJ-15 | 2026-09-03 23:58:01 | 47.67339 | 12.32624 | 174° | 29km/h | 20085m | 4.9m/s | -54.5°C | 1.3% | 57.5hPa | 2.6V | 00:00:00 | 00:00:00 | 00:00:00 | |
| OE5DXL-15 | 2026-09-03 23:58:00 | 47.67312 | 12.32623 | 191° | 27km/h | 20105m | 4.7m/s | -54.5°C | 4.3% | 57.3hPa | 2.6V | 00:00:00 | 00:00:00 | 00:00:00 | |
| OE5WHR-10 | 2026-09-03 23:57:59 | 47.67318 | 12.32625 | 187° | 27km/h | 20100m | 4.2m/s | -54.5°C | 4.3% | 57.3hPa | 2.5V | 00:00:00 | 01:26:10 | 00:00:00 | |
| OE5MMP-10 | 2026-09-03 23:57:50 | 47.67385 | 12.32614 | 170° | 26km/h | 20056m | 4.9m/s | -54.4°C | 4.2% | 57.8hPa | 2.5V | 00:00:00 | 01:26:01 | 00:00:00 | |
| PETON7-10 | 2026-09-03 23:57:49 | 47.67392 | 12.32612 | 176° | 26km/h | 20051m | 5.1m/s | -54.4°C | 4.2% | 57.8hPa | 2.5V | 00:00:00 | 00:00:00 | 00:00:00 | |
| PG1ADW-2 | 2026-09-03 23:57:48 | 47.67398 | 12.32612 | 179° | 24km/h | 20046m | 4.3m/s | -54.4°C | 4.2% | 57.8hPa | 2.6V | 00:00:00 | 01:25:59 | 00:00:00 | |
| BAUMI2-15 | 2026-09-03 23:57:47 | 47.67405 | 12.32612 | 177° | 26km/h | 20042m | 4.1m/s | -54.5°C | 4.2% | 57.9hPa | 2.6V | 00:00:00 | 01:25:58 | 00:00:00 | |
| DG1MFX-10 | 2026-09-03 23:57:43 | 47.67423 | 12.32606 | 164° | 26km/h | 20028m | 4.1m/s | -54.6°C | 1.4% | 58.0hPa | 2.6V | 00:00:00 | 00:00:00 | 00:00:00 | |
| BAUMI2-15 | 2026-09-03 23:57:42 | 47.67435 | 12.32601 | 162° | 24km/h | 20019m | 4.4m/s | -54.6°C | 4.2% | 58.1hPa | 2.6V | 00:00:00 | 01:25:53 | 08:30:00 | |
| OE5MMP-10 | 2026-09-03 23:57:40 | 47.67445 | 12.32595 | 156° | 26km/h | 20010m | 5.3m/s | -54.7°C | 4.2% | 58.2hPa | 2.5V | 00:00:00 | 01:25:51 | 00:00:00 | |
| OE5WHR-10 | 2026-09-03 23:57:38 | 47.67457 | 12.32585 | 149° | 26km/h | 20001m | 4.3m/s | -54.7°C | 4.3% | 58.2hPa | 2.5V | 00:00:00 | 00:00:00 | 00:00:00 | |
| BAUMI2-15 | 2026-09-03 23:57:37 | 47.67463 | 12.32580 | 148° | 27km/h | 19996m | 5.4m/s | -54.8°C | 4.2% | 58.3hPa | 2.6V | 00:00:00 | 01:25:48 | 00:00:00 | |
| OE5FHM-15 | 2026-09-03 23:57:35 | 47.67474 | 12.32569 | 150° | 24km/h | 19986m | 3.6m/s | -54.8°C | 4.2% | 58.4hPa | 2.6V | 00:00:00 | 01:25:46 | 00:00:00 | |
| PETON7-10 | 2026-09-03 23:57:34 | 47.67480 | 12.32564 | 152° | 26km/h | 19982m | 5.5m/s | -55.0°C | 4.2% | 58.4hPa | 2.5V | 00:00:00 | 00:00:00 | 00:00:00 | |
| BAUMI2-15 | 2026-09-03 23:57:32 | 47.67492 | 12.32556 | 159° | 22km/h | 19973m | 4.1m/s | -55.6°C | 4.5% | 58.5hPa | 2.5V | 00:00:00 | 01:25:43 | 00:00:00 | |
| OE5DRO-10 | 2026-09-03 23:57:31 | 47.67498 | 12.32553 | 162° | 24km/h | 19968m | 5.3m/s | -55.7°C | 4.6% | 58.5hPa | 2.5V | 00:00:00 | 00:00:00 | 00:00:00 | |
| OE5MMP-10 | 2026-09-03 23:57:30 | 47.67503 | 12.32550 | 162° | 26km/h | 19963m | 4.0m/s | -55.7°C | 4.6% | 58.5hPa | 2.5V | 00:00:00 | 01:25:41 | 00:00:00 | |
| OE8JPQ-2 | 2026-09-03 23:57:29 | 47.67508 | 12.32547 | 158° | 24km/h | 19959m | 3.8m/s | -55.7°C | 4.6% | 58.6hPa | 2.5V | 00:00:00 | 01:25:40 | 00:00:00 | |
| BAUMI2-15 | 2026-09-03 23:57:27 | 47.67517 | 12.32539 | 140° | 26km/h | 19950m | 3.7m/s | -55.7°C | 4.6% | 58.7hPa | 2.5V | 00:00:00 | 01:25:38 | 00:00:00 | |
| BAUMI2-15 | 2026-09-03 23:57:22 | 47.67532 | 12.32498 | 112° | 27km/h | 19928m | 4.7m/s | -55.6°C | 4.5% | 58.9hPa | 2.6V | 00:00:00 | 01:25:33 | 00:00:00 | |
| OE5MMP-10 | 2026-09-03 23:57:20 | 47.67539 | 12.32478 | 124° | 22km/h | 19920m | 3.3m/s | -55.5°C | 4.5% | 59.0hPa | 2.6V | 00:00:00 | 01:25:31 | 08:30:00 | |
| PETON7-10 | 2026-09-03 23:57:19 | 47.67543 | 12.32469 | 130° | 24km/h | 19916m | 4.1m/s | -55.5°C | 4.4% | 59.0hPa | 2.6V | 00:00:00 | 01:25:30 | 00:00:00 | |
| IN3HCDX | 2026-09-03 23:57:18 | 47.67544 | 12.32469 | 131° | 27km/h | 19916m | 4.2m/s | -55.6°C | 1.4% | 59.1hPa | 2.6V | 00:00:00 | 00:00:00 | 00:00:00 | |
| OE5WHR-10 | 2026-09-03 23:57:17 | 47.67552 | 12.32458 | 148° | 24km/h | 19906m | 4.5m/s | -55.5°C | 4.4% | 59.1hPa | 2.6V | 00:00:00 | 00:00:00 | 00:00:00 | |
| BAUMI2-15 | 2026-09-03 23:57:12 | 47.67574 | 12.32442 | 147° | 24km/h | 19883m | 5.4m/s | -56.1°C | 4.5% | 59.3hPa | 2.6V | 00:00:00 | 01:25:23 | 00:00:00 | |
| OE5MMP-10 | 2026-09-03 23:57:10 | 47.67580 | 12.32432 | 130° | 29km/h | 19874m | 4.1m/s | -56.2°C | 4.6% | 59.4hPa | 2.5V | 00:00:00 | 01:25:21 | 00:00:00 | |
| OE8JPQ-2 | 2026-09-03 23:57:09 | 47.67584 | 12.32425 | 129° | 26km/h | 19869m | 5.5m/s | -56.3°C | 4.5% | 59.5hPa | 2.5V | 00:00:00 | 00:00:00 | 00:00:00 | |
| BAUMI2-15 | 2026-09-03 23:57:07 | 47.67595 | 12.32407 | 131° | 31km/h | 19860m | 3.8m/s | -56.6°C | 4.7% | 59.5hPa | 2.6V | 00:00:00 | 01:25:18 | 00:00:00 | |
| PG1ADW-2 | 2026-09-03 23:57:06 | 47.67600 | 12.32398 | 134° | 26km/h | 19856m | 4.9m/s | -56.7°C | 4.8% | 59.6hPa | 2.6V | 00:00:00 | 00:00:00 | 00:00:00 | |
| OE5FHM-15 | 2026-09-03 23:57:05 | 47.67606 | 12.32390 | 138° | 27km/h | 19851m | 4.2m/s | -56.8°C | 4.8% | 59.6hPa | 2.6V | 00:00:00 | 01:25:16 | 00:00:00 | |
| PETON7-10 | 2026-09-03 23:57:04 | 47.67612 | 12.32383 | 146° | 24km/h | 19847m | 4.0m/s | -56.8°C | 4.8% | 59.7hPa | 2.6V | 00:00:00 | 00:00:00 | 08:30:00 | |
| DL6DJ-15 | 2026-09-03 23:56:59 | 47.67643 | 12.32367 | 171° | 20km/h | 19823m | 4.9m/s | -56.8°C | 1.5% | 59.9hPa | 2.5V | 00:00:00 | 00:00:00 | 00:00:00 | |
| BAUMI2-15 | 2026-09-03 23:56:57 | 47.67654 | 12.32364 | 161° | 24km/h | 19815m | 5.0m/s | -56.8°C | 4.8% | 60.0hPa | 2.5V | 00:00:00 | 01:25:08 | 08:30:00 | |
| OE5WHR-10 | 2026-09-03 23:56:56 | 47.67659 | 12.32360 | 153° | 27km/h | 19810m | 4.2m/s | -56.8°C | 4.8% | 60.0hPa | 2.5V | 00:00:00 | 01:25:07 | 00:00:00 | |
| OE5DRO-10 | 2026-09-03 23:56:53 | 47.67674 | 12.32345 | 139° | 27km/h | 19796m | 4.1m/s | -56.8°C | 4.7% | 60.1hPa | 2.5V | 00:00:00 | 00:00:00 | 00:00:00 | |
| BAUMI2-15 | 2026-09-03 23:56:52 | 47.67678 | 12.32339 | 137° | 24km/h | 19792m | 4.3m/s | -56.8°C | 4.7% | 60.2hPa | 2.5V | 00:00:00 | 01:25:03 | 00:00:00 | |
| OE5MMP-10 | 2026-09-03 23:56:50 | 47.67687 | 12.32327 | 143° | 26km/h | 19782m | 4.0m/s | -56.9°C | 4.7% | 60.3hPa | 2.5V | 00:00:00 | 01:25:01 | 00:00:00 | |
| PETON7-10 | 2026-09-03 23:56:49 | 47.67692 | 12.32322 | 149° | 29km/h | 19778m | 3.7m/s | -56.9°C | 4.7% | 60.3hPa | 2.6V | 00:00:00 | 00:00:00 | 00:00:00 | |
| BAUMI2-15 | 2026-09-03 23:56:47 | 47.67702 | 12.32315 | 164° | 26km/h | 19769m | 4.2m/s | -57.2°C | 4.8% | 60.4hPa | 2.6V | 00:00:00 | 01:24:58 | 00:00:00 | |
| PG1ADW-2 | 2026-09-03 23:56:46 | 47.67707 | 12.32313 | 168° | 31km/h | 19765m | 4.1m/s | -57.3°C | 4.9% | 60.5hPa | 2.6V | 00:00:00 | 00:00:00 | 00:00:00 | |
| BAUMI2-15 | 2026-09-03 23:56:42 | 47.67734 | 12.32302 | 164° | 33km/h | 19745m | 5.1m/s | -57.6°C | 5.0% | 60.6hPa | 2.6V | 00:00:00 | 01:24:53 | 00:00:00 | |
| DG1MFX-10 | 2026-09-03 23:56:41 | 47.67734 | 12.32302 | 165° | 31km/h | 19745m | 5.2m/s | -57.6°C | 1.7% | 60.7hPa | 2.5V | 00:00:00 | 00:00:00 | 00:00:00 | |
| OE5MMP-10 | 2026-09-03 23:56:40 | 47.67749 | 12.32295 | 158° | 31km/h | 19736m | 4.2m/s | -57.7°C | 5.0% | 60.7hPa | 2.5V | 00:00:00 | 01:24:51 | 00:00:00 | |
| BAUMI2-15 | 2026-09-03 23:56:37 | 47.67773 | 12.32276 | 149° | 31km/h | 19722m | 5.0m/s | -57.8°C | 5.1% | 60.9hPa | 2.5V | 00:00:00 | 01:24:48 | 00:00:00 | |
| IN3HCDX | 2026-09-03 23:56:36 | 47.67773 | 12.32276 | 149° | 35km/h | 19722m | 5.1m/s | -57.8°C | 1.6% | 60.9hPa | 2.5V | 00:00:00 | 00:00:00 | 00:00:00 | |
| OE5WHR-10 | 2026-09-03 23:56:35 | 47.67786 | 12.32264 | 150° | 29km/h | 19712m | 4.5m/s | -57.9°C | 5.1% | 61.0hPa | 2.5V | 00:00:00 | 00:00:00 | 00:00:00 | |
| PETON7-10 | 2026-09-03 23:56:34 | 47.67793 | 12.32258 | 149° | 31km/h | 19707m | 5.5m/s | -57.9°C | 5.2% | 61.0hPa | 2.5V | 00:00:00 | 01:24:45 | 00:00:00 | |
| BAUMI2-15 | 2026-09-03 23:56:32 | 47.67806 | 12.32247 | 155° | 29km/h | 19697m | 4.6m/s | -57.9°C | 5.2% | 61.1hPa | 2.5V | 00:00:00 | 01:24:43 | 00:00:00 | |
| OE5MMP-10 | 2026-09-03 23:56:30 | 47.67819 | 12.32240 | 164° | 31km/h | 19687m | 4.2m/s | -57.9°C | 5.2% | 61.2hPa | 2.5V | 00:00:00 | 01:24:41 | 00:00:00 | |
| OE8JPQ-2 | 2026-09-03 23:56:29 | 47.67826 | 12.32237 | 164° | 29km/h | 19682m | 5.3m/s | -57.8°C | 5.2% | 61.3hPa | 2.5V | 00:00:00 | 01:24:40 | 00:00:00 | |
| DL6DJ-15 | 2026-09-03 23:56:28 | 47.67834 | 12.32233 | 161° | 31km/h | 19677m | 4.9m/s | -57.8°C | 1.7% | 61.3hPa | 2.5V | 00:00:00 | 00:00:00 | 00:00:00 | |
| DF3TZ-5 | 2026-09-03 23:56:27 | 47.67856 | 12.32223 | 163° | 29km/h | 19663m | 3.9m/s | 0°C | -1.0% | -1.0hPa | 2.5V | 00:00:00 | 00:00:00 | 00:00:00 | |
| PG1ADW-2 | 2026-09-03 23:56:25 | 47.67856 | 12.32223 | 164° | 27km/h | 19663m | 3.8m/s | -57.7°C | 5.2% | 61.4hPa | 2.5V | 00:00:00 | 01:24:36 | 08:30:00 | |
| BAUMI2-15 | 2026-09-03 23:56:22 | 47.67879 | 12.32209 | 154° | 29km/h | 19650m | 4.6m/s | -57.6°C | 5.2% | 61.6hPa | 2.6V | 00:00:00 | 01:24:33 | 00:00:00 | |
| DG1MFX-10 | 2026-09-03 23:56:21 | 47.67879 | 12.32209 | 154° | 33km/h | 19650m | 4.6m/s | -57.6°C | 1.7% | 61.6hPa | 2.6V | 00:00:00 | 00:00:00 | 00:00:00 | |
| OE5MMP-10 | 2026-09-03 23:56:20 | 47.67893 | 12.32199 | 159° | 26km/h | 19640m | 5.2m/s | -57.5°C | 5.1% | 61.7hPa | 2.6V | 00:00:00 | 01:24:31 | 00:00:00 | |
| PETON7-10 | 2026-09-03 23:56:19 | 47.67900 | 12.32195 | 161° | 26km/h | 19636m | 4.0m/s | -57.5°C | 5.2% | 61.7hPa | 2.5V | 00:00:00 | 00:00:00 | 00:00:00 | |
| BAUMI2-15 | 2026-09-03 23:56:17 | 47.67912 | 12.32188 | 158° | 26km/h | 19626m | 5.0m/s | -57.4°C | 5.1% | 61.8hPa | 2.6V | 00:00:00 | 01:24:28 | 00:00:00 | |
| IN3HCDX | 2026-09-03 23:56:16 | 47.67918 | 12.32184 | 158° | 26km/h | 19621m | 5.0m/s | -57.4°C | 1.6% | 61.9hPa | 2.6V | 00:00:00 | 00:00:00 | 00:00:00 | |
| OE5DRO-10 | 2026-09-03 23:56:15 | 47.67925 | 12.32181 | 162° | 26km/h | 19616m | 5.5m/s | -57.3°C | 5.1% | 61.9hPa | 2.6V | 00:00:00 | 00:00:00 | 00:00:00 | |
| OE5WHR-10 | 2026-09-03 23:56:14 | 47.67930 | 12.32178 | 165° | 26km/h | 19611m | 4.4m/s | -57.3°C | 5.1% | 62.0hPa | 2.5V | 00:00:00 | 00:00:00 | 00:00:00 | |
| BAUMI2-15 | 2026-09-03 23:56:12 | 47.67942 | 12.32172 | 157° | 26km/h | 19602m | 5.4m/s | -57.2°C | 5.1% | 62.0hPa | 2.5V | 00:00:00 | 01:24:23 | 08:30:00 | |
| OE5MMP-10 | 2026-09-03 23:56:10 | 47.67954 | 12.32164 | 155° | 27km/h | 19592m | 4.7m/s | -57.1°C | 5.0% | 62.1hPa | 2.5V | 00:00:00 | 01:24:21 | 00:00:00 | |
| OE8JPQ-2 | 2026-09-03 23:56:09 | 47.67960 | 12.32160 | 159° | 26km/h | 19587m | 4.9m/s | -57.1°C | 5.0% | 62.2hPa | 2.5V | 00:00:00 | 00:00:00 | 08:30:00 | |
| DB0UT-7 | 2026-09-03 23:56:08 | 47.67966 | 12.32156 | 162° | 26km/h | 19582m | 3.5m/s | -57.0°C | 5.0% | 62.2hPa | 2.6V | 00:00:00 | 00:00:00 | 00:00:00 | |
| BAUMI2-15 | 2026-09-03 23:56:07 | 47.67973 | 12.32153 | 161° | 27km/h | 19578m | 5.0m/s | -57.0°C | 5.0% | 62.2hPa | 2.6V | 00:00:00 | 01:24:18 | 00:00:00 | |
| OE5FHM-15 | 2026-09-03 23:56:05 | 47.67985 | 12.32146 | 161° | 26km/h | 19568m | 4.1m/s | -56.9°C | 4.9% | 62.3hPa | 2.6V | 00:00:00 | 01:24:16 | 00:00:00 | |
| PETON7-10 | 2026-09-03 23:56:04 | 47.67992 | 12.32143 | 166° | 26km/h | 19564m | 5.1m/s | -56.8°C | 4.8% | 62.4hPa | 2.5V | 00:00:00 | 00:00:00 | 00:00:00 | |
| DL6DJ-15 | 2026-09-03 23:55:57 | 47.68038 | 12.32128 | 160° | 27km/h | 19531m | 4.8m/s | -56.6°C | 1.5% | 62.8hPa | 2.5V | 00:00:00 | 00:00:00 | 00:00:00 | |
| DF3TZ-5 | 2026-09-03 23:55:55 | 47.68056 | 12.32116 | 152° | 22km/h | 19516m | 5.2m/s | 0°C | -1.0% | -1.0hPa | 2.5V | 00:00:00 | 00:00:00 | 00:00:00 | |
| IN3HCDX | 2026-09-03 23:55:54 | 47.68051 | 12.32120 | 156° | 26km/h | 19522m | 5.2m/s | -56.5°C | 1.5% | 62.9hPa | 2.5V | 00:00:00 | 00:00:00 | 00:00:00 | |
| OE5WHR-10 | 2026-09-03 23:55:53 | 47.68061 | 12.32112 | 152° | 26km/h | 19512m | 4.3m/s | -56.4°C | 4.6% | 62.9hPa | 2.5V | 00:00:00 | 01:24:04 | 00:00:00 | |
| BAUMI2-15 | 2026-09-03 23:55:52 | 47.68067 | 12.32108 | 156° | 24km/h | 19507m | 5.4m/s | -56.4°C | 4.5% | 63.0hPa | 2.5V | 00:00:00 | 01:24:03 | 00:00:00 | |
| OE5MMP-10 | 2026-09-03 23:55:50 | 47.68078 | 12.32103 | 168° | 27km/h | 19497m | 4.6m/s | -56.4°C | 4.6% | 63.1hPa | 2.5V | 00:00:00 | 01:24:01 | 08:30:00 | |
| OE8JPQ-2 | 2026-09-03 23:55:49 | 47.68084 | 12.32101 | 168° | 27km/h | 19492m | 5.7m/s | -56.5°C | 4.7% | 63.1hPa | 2.5V | 00:00:00 | 00:00:00 | 00:00:00 | |
| OE5REO-15 | 2026-09-03 23:55:46 | 47.68095 | 12.32097 | 170° | 26km/h | 19482m | 4.5m/s | -56.8°C | 1.5% | 63.3hPa | 2.5V | 00:00:00 | 00:00:00 | 00:00:00 | |
| PG1ADW-2 | 2026-09-03 23:55:40 | 47.68143 | 12.32070 | 154° | 29km/h | 19450m | 5.0m/s | -57.0°C | 4.8% | 63.6hPa | 2.5V | 00:00:00 | 00:00:00 | 00:00:00 | |
| DG1MFX-10 | 2026-09-03 23:55:39 | 47.68143 | 12.32070 | 155° | 26km/h | 19450m | 5.0m/s | -57.0°C | 1.6% | 63.6hPa | 2.5V | 00:00:00 | 00:00:00 | 00:00:00 | |
| DB0UT-7 | 2026-09-03 23:55:38 | 47.68155 | 12.32063 | 159° | 27km/h | 19440m | 4.7m/s | -56.9°C | 4.8% | 63.7hPa | 2.5V | 00:00:00 | 01:23:49 | 00:00:00 | |
| OE5DRO-10 | 2026-09-03 23:55:37 | 47.68161 | 12.32060 | 158° | 29km/h | 19435m | 5.1m/s | -56.9°C | 4.8% | 63.7hPa | 2.5V | 00:00:00 | 00:00:00 | 00:00:00 | |
| OE5FHM-15 | 2026-09-03 23:55:35 | 47.68173 | 12.32053 | 165° | 27km/h | 19426m | 5.1m/s | -56.9°C | 4.9% | 63.8hPa | 2.5V | 00:00:00 | 01:23:46 | 00:00:00 | |
| PETON7-10 | 2026-09-03 23:55:34 | 47.68179 | 12.32051 | 168° | 29km/h | 19422m | 4.4m/s | -56.9°C | 4.9% | 63.9hPa | 2.5V | 00:00:00 | 00:00:00 | 00:00:00 | |
| IN3HCDX | 2026-09-03 23:55:33 | 47.68179 | 12.32051 | 169° | 27km/h | 19422m | 4.4m/s | -56.9°C | 1.5% | 63.9hPa | 2.6V | 00:00:00 | 00:00:00 | 00:00:00 | |
| OE5WHR-10 | 2026-09-03 23:55:32 | 47.68193 | 12.32045 | 160° | 29km/h | 19414m | 5.0m/s | -56.9°C | 4.8% | 63.9hPa | 2.6V | 00:00:00 | 00:00:00 | 08:30:00 | |
| OE5MMP-10 | 2026-09-03 23:55:30 | 47.68207 | 12.32036 | 150° | 29km/h | 19404m | 4.1m/s | -56.9°C | 4.9% | 64.0hPa | 2.5V | 00:00:00 | 01:23:41 | 00:00:00 | |
| OE8JPQ-2 | 2026-09-03 23:55:29 | 47.68213 | 12.32030 | 151° | 29km/h | 19400m | 4.8m/s | -56.9°C | 4.9% | 64.1hPa | 2.5V | 00:00:00 | 01:23:40 | 00:00:00 | |
| DL6DJ-15 | 2026-09-03 23:55:26 | 47.68233 | 12.32016 | 154° | 29km/h | 19386m | 4.2m/s | -57.1°C | 1.6% | 64.3hPa | 2.5V | 00:00:00 | 00:00:00 | 00:00:00 | |
| OE5MMP-10 | 2026-09-03 23:55:20 | 47.68275 | 12.31989 | 159° | 29km/h | 19357m | 5.3m/s | -56.9°C | 4.9% | 64.5hPa | 2.5V | 00:00:00 | 01:23:31 | 00:00:00 | |
| PETON7-10 | 2026-09-03 23:55:19 | 47.68282 | 12.31985 | 158° | 29km/h | 19351m | 4.7m/s | -56.9°C | 4.9% | 64.6hPa | 2.5V | 00:00:00 | 00:00:00 | 00:00:00 | |
| OE5DRO-10 | 2026-09-03 23:55:18 | 47.68288 | 12.31981 | 160° | 29km/h | 19347m | 4.5m/s | -56.9°C | 4.9% | 64.6hPa | 2.5V | 00:00:00 | 00:00:00 | 08:30:00 | |
| OE5REO-15 | 2026-09-03 23:55:14 | 47.68308 | 12.31974 | 170° | 27km/h | 19332m | 4.3m/s | -56.8°C | 1.6% | 64.8hPa | 2.5V | 00:00:00 | 00:00:00 | 00:00:00 | |
| IN3HCDX | 2026-09-03 23:55:12 | 47.68323 | 12.31969 | 167° | 31km/h | 19322m | 4.0m/s | -56.8°C | 1.5% | 64.9hPa | 2.5V | 00:00:00 | 00:00:00 | 00:00:00 | |
| OE5WHR-10 | 2026-09-03 23:55:11 | 47.68338 | 12.31964 | 172° | 29km/h | 19313m | 5.4m/s | -56.7°C | 4.8% | 65.0hPa | 2.5V | 00:00:00 | 00:00:00 | 00:00:00 | |
| OE5MMP-10 | 2026-09-03 23:55:10 | 47.68346 | 12.31963 | 175° | 29km/h | 19308m | 4.7m/s | -56.6°C | 4.8% | 65.0hPa | 2.5V | 00:00:00 | 01:23:21 | 00:00:00 | |
| OE8JPQ-2 | 2026-09-03 23:55:09 | 47.68353 | 12.31962 | 174° | 29km/h | 19304m | 4.4m/s | -56.6°C | 4.9% | 65.1hPa | 2.5V | 00:00:00 | 00:00:00 | 00:00:00 | |
| PETON7-10 | 2026-09-03 23:55:04 | 47.68390 | 12.31950 | 170° | 29km/h | 19279m | 4.3m/s | -56.5°C | 4.8% | 65.3hPa | 2.6V | 00:00:00 | 01:23:15 | 00:00:00 | |
| DL6DJ-15 | 2026-09-03 23:54:55 | 47.68459 | 12.31922 | 162° | 33km/h | 19228m | 5.9m/s | -56.2°C | 1.5% | 65.9hPa | 2.6V | 00:00:00 | 00:00:00 | 00:00:00 | |
| DF3TZ-5 | 2026-09-03 23:54:53 | 47.68467 | 12.31918 | 162° | 31km/h | 19223m | 4.5m/s | 0°C | -1.0% | -1.0hPa | 2.6V | 00:00:00 | 00:00:00 | 00:00:00 | |
| IN3HCDX | 2026-09-03 23:54:51 | 47.68474 | 12.31914 | 160° | 29km/h | 19218m | 5.0m/s | -56.2°C | 1.5% | 66.0hPa | 2.6V | 00:00:00 | 00:00:00 | 00:00:00 | |
| OE5MMP-10 | 2026-09-03 23:54:50 | 47.68487 | 12.31905 | 152° | 22km/h | 19208m | 4.3m/s | -56.2°C | 4.7% | 66.0hPa | 2.6V | 00:00:00 | 01:23:01 | 00:00:00 | |
| PETON7-10 | 2026-09-03 23:54:49 | 47.68492 | 12.31901 | 153° | 24km/h | 19204m | 4.8m/s | -56.1°C | 4.7% | 66.1hPa | 2.5V | 00:00:00 | 00:00:00 | 08:30:00 | |
| OE5REO-15 | 2026-09-03 23:54:43 | 47.68518 | 12.31890 | 169° | 22km/h | 19178m | 4.5m/s | -56.1°C | 1.5% | 66.4hPa | 2.5V | 00:00:00 | 00:00:00 | 00:00:00 | |
| OE5MMP-10 | 2026-09-03 23:54:40 | 47.68541 | 12.31883 | 160° | 26km/h | 19158m | 5.6m/s | -55.9°C | 4.6% | 66.6hPa | 2.5V | 00:00:00 | 01:22:51 | 00:00:00 | |
| DG1MFX-10 | 2026-09-03 23:54:38 | 47.68547 | 12.31879 | 153° | 26km/h | 19153m | 5.1m/s | -55.9°C | 1.5% | 66.7hPa | 2.5V | 00:00:00 | 00:00:00 | 00:00:00 | |
| PETON7-10 | 2026-09-03 23:54:34 | 47.68575 | 12.31859 | 156° | 31km/h | 19127m | 5.5m/s | -55.8°C | 4.5% | 66.9hPa | 2.5V | 00:00:00 | 00:00:00 | 00:00:00 | |
| IN3HCDX | 2026-09-03 23:54:31 | 47.68587 | 12.31852 | 164° | 27km/h | 19117m | 5.8m/s | -55.8°C | 1.5% | 67.1hPa | 2.5V | 00:00:00 | 00:00:00 | 00:00:00 | |
| OE5MMP-10 | 2026-09-03 23:54:30 | 47.68601 | 12.31847 | 168° | 31km/h | 19107m | 4.7m/s | -55.8°C | 4.5% | 67.1hPa | 2.5V | 00:00:00 | 01:22:41 | 00:00:00 | |
| OE8JPQ-2 | 2026-09-03 23:54:29 | 47.68608 | 12.31844 | 164° | 37km/h | 19102m | 5.6m/s | -55.8°C | 4.5% | 67.2hPa | 2.5V | 00:00:00 | 01:22:40 | 00:00:00 | |
| OE5REO-15 | 2026-09-03 23:54:27 | 47.68615 | 12.31841 | 160° | 31km/h | 19097m | 4.4m/s | -55.8°C | 1.5% | 67.3hPa | 2.5V | 00:00:00 | 00:00:00 | 00:00:00 | |
| DB0UT-7 | 2026-09-03 23:54:25 | 47.68637 | 12.31828 | 157° | 40km/h | 19082m | 4.6m/s | -55.7°C | 4.5% | 67.4hPa | 2.5V | 00:00:00 | 00:00:00 | 00:00:00 | |
| OE5DRO-10 | 2026-09-03 23:54:21 | 47.68667 | 12.31804 | 153° | 40km/h | 19062m | 5.3m/s | -55.6°C | 4.4% | 67.6hPa | 2.5V | 00:00:00 | 00:00:00 | 00:00:00 | |
| PG1ADW-2 | 2026-09-03 23:54:20 | 47.68674 | 12.31799 | 157° | 40km/h | 19056m | 5.5m/s | -55.6°C | 4.4% | 67.6hPa | 2.5V | 00:00:00 | 00:00:00 | 00:00:00 | |
| PETON7-10 | 2026-09-03 23:54:19 | 47.68682 | 12.31793 | 157° | 40km/h | 19051m | 4.5m/s | -55.7°C | 4.4% | 67.7hPa | 2.5V | 00:00:00 | 01:22:30 | 00:00:00 | |
| OE5REO-15 | 2026-09-03 23:54:12 | 47.68735 | 12.31756 | 150° | 40km/h | 19020m | 4.3m/s | -56.3°C | 1.4% | 68.1hPa | 2.5V | 00:00:00 | 00:00:00 | 00:00:00 | |
| OE5MMP-10 | 2026-09-03 23:54:10 | 47.68762 | 12.31727 | 141° | 42km/h | 19005m | 4.6m/s | -56.5°C | 4.7% | 68.2hPa | 2.5V | 00:00:00 | 01:22:21 | 00:00:00 | |
| OE8JPQ-2 | 2026-09-03 23:54:09 | 47.68771 | 12.31717 | 143° | 44km/h | 19000m | 5.5m/s | -56.6°C | 4.7% | 68.3hPa | 2.5V | 00:00:00 | 00:00:00 | 00:00:00 | |
| OE5WHR-10 | 2026-09-03 23:54:08 | 47.68779 | 12.31707 | 145° | 44km/h | 18995m | 4.5m/s | -56.6°C | 4.7% | 68.3hPa | 2.5V | 00:00:00 | 00:00:00 | 00:00:00 | |
| PETON7-10 | 2026-09-03 23:54:04 | 47.68815 | 12.31675 | 153° | 44km/h | 18975m | 5.9m/s | -56.6°C | 4.6% | 68.6hPa | 2.5V | 00:00:00 | 00:00:00 | 00:00:00 | |
| DL6DJ-15 | 2026-09-03 23:53:53 | 47.68912 | 12.31547 | 136° | 47km/h | 18917m | 6.1m/s | -57.0°C | 1.6% | 69.2hPa | 2.5V | 00:00:00 | 00:00:00 | 00:00:00 | |
| DF3TZ-5 | 2026-09-03 23:53:51 | 47.68937 | 12.31509 | 133° | 47km/h | 18902m | 5.9m/s | 0°C | -1.0% | -1.0hPa | 2.5V | 00:00:00 | 00:00:00 | 00:00:00 | |
| OE5MMP-10 | 2026-09-03 23:53:50 | 47.68929 | 12.31521 | 134° | 51km/h | 18907m | 4.8m/s | -56.9°C | 4.8% | 69.3hPa | 2.5V | 00:00:00 | 01:22:01 | 00:00:00 | |
| OE8JPQ-2 | 2026-09-03 23:53:49 | 47.68937 | 12.31509 | 134° | 47km/h | 18902m | 5.9m/s | -56.8°C | 4.8% | 69.3hPa | 2.5V | 00:00:00 | 00:00:00 | 00:00:00 | |
| OE5WHR-10 | 2026-09-03 23:53:47 | 47.68954 | 12.31482 | 134° | 47km/h | 18893m | 4.0m/s | -56.8°C | 4.8% | 69.5hPa | 2.5V | 00:00:00 | 01:21:58 | 00:00:00 | |
| OE5DRO-10 | 2026-09-03 23:53:43 | 47.68986 | 12.31425 | 129° | 46km/h | 18873m | 5.7m/s | -56.8°C | 4.8% | 69.6hPa | 2.5V | 00:00:00 | 00:00:00 | 00:00:00 | |
| BAUMI2-15 | 2026-09-03 23:53:42 | 47.68995 | 12.31410 | 129° | 51km/h | 18868m | 4.3m/s | -56.8°C | 4.7% | 69.7hPa | 2.5V | 00:00:00 | 01:21:53 | 00:00:00 | |
| OE5REO-15 | 2026-09-03 23:53:41 | 47.68995 | 12.31410 | 129° | 55km/h | 18868m | 4.3m/s | -56.9°C | 1.5% | 69.8hPa | 2.5V | 00:00:00 | 00:00:00 | 00:00:00 | |
| OE5FHM-15 | 2026-09-03 23:53:40 | 47.69011 | 12.31377 | 127° | 47km/h | 18859m | 5.4m/s | -56.9°C | 4.8% | 69.9hPa | 2.5V | 00:00:00 | 01:21:51 | 00:00:00 | |
| BAUMI2-15 | 2026-09-03 23:53:37 | 47.69034 | 12.31334 | 133° | 42km/h | 18844m | 5.5m/s | -57.0°C | 4.8% | 70.0hPa | 2.5V | 00:00:00 | 01:21:48 | 00:00:00 | |
| DG1MFX-10 | 2026-09-03 23:53:36 | 47.69034 | 12.31334 | 133° | 46km/h | 18844m | 5.5m/s | -57.0°C | 1.6% | 70.1hPa | 2.5V | 00:00:00 | 00:00:00 | 00:00:00 | |
| BAUMI2-15 | 2026-09-03 23:53:32 | 47.69071 | 12.31281 | 136° | 44km/h | 18820m | 4.6m/s | -56.9°C | 4.8% | 70.2hPa | 2.5V | 00:00:00 | 01:21:43 | 00:00:00 | |
| OE5MMP-10 | 2026-09-03 23:53:30 | 47.69086 | 12.31258 | 135° | 44km/h | 18811m | 4.3m/s | -56.9°C | 4.8% | 70.3hPa | 2.5V | 00:00:00 | 01:21:41 | 00:00:00 | |
| OE8JPQ-2 | 2026-09-03 23:53:29 | 47.69095 | 12.31245 | 132° | 44km/h | 18806m | 5.1m/s | -56.9°C | 4.9% | 70.4hPa | 2.5V | 00:00:00 | 01:21:40 | 00:00:00 | |
| IN3HCDX | 2026-09-03 23:53:28 | 47.69094 | 12.31245 | 133° | 46km/h | 18806m | 5.2m/s | -56.9°C | 1.6% | 70.5hPa | 2.5V | 00:00:00 | 00:00:00 | 00:00:00 | |
| BAUMI2-15 | 2026-09-03 23:53:27 | 47.69109 | 12.31219 | 130° | 44km/h | 18797m | 3.8m/s | -56.9°C | 4.9% | 70.5hPa | 2.5V | 00:00:00 | 01:21:38 | 08:30:00 | |
| OE5WHR-10 | 2026-09-03 23:53:26 | 47.69117 | 12.31206 | 131° | 44km/h | 18792m | 5.5m/s | -56.9°C | 4.8% | 70.6hPa | 2.5V | 00:00:00 | 00:00:00 | 00:00:00 | |
| OE5REO-15 | 2026-09-03 23:53:25 | 47.69117 | 12.31206 | 131° | 46km/h | 18792m | 5.6m/s | -56.9°C | 1.5% | 70.6hPa | 2.6V | 00:00:00 | 00:00:00 | 00:00:00 | |
| OE5DRO-10 | 2026-09-03 23:53:24 | 47.69132 | 12.31181 | 137° | 42km/h | 18782m | 4.6m/s | -56.8°C | 4.9% | 70.7hPa | 2.6V | 00:00:00 | 00:00:00 | 00:00:00 | |
| BAUMI2-15 | 2026-09-03 23:53:22 | 47.69147 | 12.31161 | 139° | 40km/h | 18772m | 4.3m/s | -56.8°C | 4.9% | 70.8hPa | 2.6V | 00:00:00 | 01:21:33 | 00:00:00 | |
| DH7VM-15 | 2026-09-03 23:53:21 | 47.69147 | 12.31161 | 139° | 37km/h | 18772m | 4.3m/s | 0°C | 0% | 70.8hPa | 2.6V | 00:00:00 | 00:00:00 | 00:00:00 | |
| OE5MMP-10 | 2026-09-03 23:53:20 | 47.69162 | 12.31143 | 142° | 44km/h | 18763m | 5.3m/s | -56.8°C | 4.9% | 70.9hPa | 2.6V | 00:00:00 | 01:21:31 | 00:00:00 | |
| BAUMI2-15 | 2026-09-03 23:53:17 | 47.69186 | 12.31113 | 140° | 46km/h | 18749m | 5.0m/s | -56.8°C | 4.8% | 71.0hPa | 2.6V | 00:00:00 | 01:21:28 | 00:00:00 | |
| PETON7-10 | 2026-09-03 23:53:15 | 47.69203 | 12.31091 | 140° | 46km/h | 18740m | 4.8m/s | -56.8°C | 4.8% | 71.2hPa | 2.6V | 00:00:00 | 00:00:00 | 00:00:00 | |
| BAUMI2-15 | 2026-09-03 23:53:12 | 47.69231 | 12.31057 | 139° | 44km/h | 18726m | 5.2m/s | -56.8°C | 4.8% | 71.3hPa | 2.5V | 00:00:00 | 01:21:23 | 00:00:00 | |
| OE5MMP-10 | 2026-09-03 23:53:10 | 47.69247 | 12.31036 | 139° | 46km/h | 18717m | 3.9m/s | -56.8°C | 4.8% | 71.4hPa | 2.6V | 00:00:00 | 01:21:21 | 00:00:00 | |
| OE8JPQ-2 | 2026-09-03 23:53:09 | 47.69255 | 12.31025 | 140° | 47km/h | 18713m | 5.0m/s | -56.8°C | 4.8% | 71.4hPa | 2.6V | 00:00:00 | 00:00:00 | 08:30:00 | |
| BAUMI2-15 | 2026-09-03 23:53:07 | 47.69271 | 12.31004 | 139° | 46km/h | 18704m | 3.7m/s | -56.8°C | 4.8% | 71.6hPa | 2.5V | 00:00:00 | 01:21:18 | 00:00:00 | |
| OE5WHR-10 | 2026-09-03 23:53:05 | 47.69288 | 12.30982 | 135° | 49km/h | 18695m | 4.4m/s | -56.7°C | 4.9% | 71.7hPa | 2.5V | 00:00:00 | 00:00:00 | 00:00:00 | |
| OE5REO-15 | 2026-09-03 23:53:03 | 47.69295 | 12.30970 | 135° | 44km/h | 18691m | 3.5m/s | -56.7°C | 1.6% | 71.8hPa | 2.5V | 00:00:00 | 00:00:00 | 00:00:00 | |
| DL6DJ-15 | 2026-09-03 23:52:51 | 47.69433 | 12.30753 | 132° | 49km/h | 18619m | 5.0m/s | -56.4°C | -1.0% | 72.6hPa | 2.5V | 00:00:00 | 00:00:00 | 00:00:00 | |
| OE5MMP-10 | 2026-09-03 23:52:50 | 47.69415 | 12.30782 | 132° | 53km/h | 18628m | 4.4m/s | -56.4°C | 4.8% | 72.4hPa | 2.5V | 00:00:00 | 01:21:01 | 08:30:00 | |
| OE8JPQ-2 | 2026-09-03 23:52:49 | 47.69424 | 12.30767 | 132° | 55km/h | 18624m | 4.2m/s | -56.4°C | 4.8% | 72.5hPa | 2.5V | 00:00:00 | 00:00:00 | 00:00:00 | |
| OE5REO-15 | 2026-09-03 23:52:48 | 47.69424 | 12.30767 | 133° | 53km/h | 18624m | 4.3m/s | -56.5°C | 1.5% | 72.5hPa | 2.5V | 00:00:00 | 00:00:00 | 00:00:00 | |
| BAUMI2-15 | 2026-09-03 23:52:47 | 47.69441 | 12.30739 | 134° | 53km/h | 18615m | 3.7m/s | -56.4°C | 4.8% | 72.6hPa | 2.5V | 00:00:00 | 01:20:58 | 00:00:00 | |
| OE5DRO-10 | 2026-09-03 23:52:46 | 47.69450 | 12.30725 | 133° | 55km/h | 18611m | 4.2m/s | -56.4°C | 4.7% | 72.6hPa | 2.5V | 00:00:00 | 00:00:00 | 00:00:00 | |
| PETON7-10 | 2026-09-03 23:52:45 | 47.69459 | 12.30710 | 132° | 55km/h | 18606m | 4.8m/s | -56.4°C | 4.7% | 72.7hPa | 2.5V | 00:00:00 | 01:20:56 | 00:00:00 | |
| OE5WHR-10 | 2026-09-03 23:52:44 | 47.69468 | 12.30695 | 131° | 57km/h | 18602m | 4.1m/s | -56.3°C | 4.7% | 72.7hPa | 2.5V | 00:00:00 | 01:20:55 | 00:00:00 | |
| BAUMI2-15 | 2026-09-03 23:52:42 | 47.69486 | 12.30664 | 130° | 55km/h | 18593m | 4.8m/s | -56.3°C | 4.8% | 72.9hPa | 2.5V | 00:00:00 | 01:20:53 | 08:30:00 | |
| OE5MMP-10 | 2026-09-03 23:52:40 | 47.69503 | 12.30632 | 128° | 57km/h | 18585m | 4.8m/s | -56.3°C | 4.8% | 72.9hPa | 2.5V | 00:00:00 | 01:20:51 | 00:00:00 | |
| BAUMI2-15 | 2026-09-03 23:52:37 | 47.69528 | 12.30583 | 126° | 57km/h | 18571m | 5.1m/s | -56.2°C | 4.7% | 73.1hPa | 2.5V | 00:00:00 | 01:20:48 | 00:00:00 | |
| DG1MFX-10 | 2026-09-03 23:52:34 | 47.69543 | 12.30549 | 123° | 55km/h | 18562m | 4.4m/s | -56.3°C | 1.6% | 73.2hPa | 2.5V | 00:00:00 | 00:00:00 | 00:00:00 | |
| BAUMI2-15 | 2026-09-03 23:52:32 | 47.69565 | 12.30493 | 119° | 57km/h | 18549m | 4.2m/s | -56.2°C | 4.7% | 73.3hPa | 2.5V | 00:00:00 | 01:20:43 | 00:00:00 | |
| PETON7-10 | 2026-09-03 23:52:30 | 47.69579 | 12.30456 | 121° | 58km/h | 18540m | 3.7m/s | -56.2°C | 4.6% | 73.4hPa | 2.5V | 00:00:00 | 00:00:00 | 08:30:00 | |
| OE8JPQ-2 | 2026-09-03 23:52:29 | 47.69586 | 12.30438 | 124° | 58km/h | 18536m | 3.9m/s | -56.2°C | 4.6% | 73.5hPa | 2.5V | 00:00:00 | 01:20:40 | 00:00:00 | |
| BAUMI2-15 | 2026-09-03 23:52:27 | 47.69603 | 12.30403 | 126° | 58km/h | 18528m | 3.5m/s | -56.2°C | 4.6% | 73.6hPa | 2.5V | 00:00:00 | 01:20:38 | 00:00:00 | |
| OE5FHM-15 | 2026-09-03 23:52:26 | 47.69612 | 12.30385 | 125° | 57km/h | 18524m | 4.7m/s | -56.1°C | 4.6% | 73.6hPa | 2.7V | 00:00:00 | 01:20:37 | 00:00:00 | |
| IN3HCDX | 2026-09-03 23:52:25 | 47.69620 | 12.30367 | 123° | 57km/h | 18519m | 4.5m/s | -56.2°C | 0% | 0hPa | 2.5V | 00:00:00 | 00:00:00 | 00:00:00 | |
| OE5WHR-10 | 2026-09-03 23:52:23 | 47.69634 | 12.30330 | 118° | 58km/h | 18511m | 4.5m/s | -56.0°C | 4.6% | 73.8hPa | 2.5V | 00:00:00 | 00:00:00 | 08:30:00 | |
| BAUMI2-15 | 2026-09-03 23:52:22 | 47.69640 | 12.30311 | 117° | 58km/h | 18506m | 4.8m/s | -56.1°C | 4.6% | 73.8hPa | 2.5V | 00:00:00 | 01:20:33 | 00:00:00 | |
| DL6DJ-15 | 2026-09-03 23:52:20 | 47.69658 | 12.30250 | 110° | 57km/h | 18493m | 4.7m/s | 0°C | -1.0% | -1.0hPa | 2.5V | 00:00:00 | 00:00:00 | 00:00:00 | |
| DB0UT-7 | 2026-09-03 23:52:19 | 47.69658 | 12.30250 | 111° | 38km/h | 18493m | 4.6m/s | -56.3°C | 4.7% | 74.0hPa | 2.5V | 00:00:00 | 00:00:00 | 00:00:00 | |
| BAUMI2-15 | 2026-09-03 23:52:17 | 47.69668 | 12.30211 | 113° | 60km/h | 18485m | 4.3m/s | -56.4°C | 4.7% | 74.1hPa | 2.5V | 00:00:00 | 01:20:28 | 00:00:00 | |
| PETON7-10 | 2026-09-03 23:52:15 | 47.69680 | 12.30171 | 117° | 58km/h | 18476m | 3.3m/s | -56.5°C | 4.8% | 74.2hPa | 2.5V | 00:00:00 | 00:00:00 | 00:00:00 | |
| DG1MFX-10 | 2026-09-03 23:52:13 | 47.69687 | 12.30150 | 117° | 62km/h | 18473m | 3.9m/s | -56.6°C | 1.6% | 74.3hPa | 2.5V | 00:00:00 | 00:00:00 | 00:00:00 | |
| BAUMI2-15 | 2026-09-03 23:52:12 | 47.69701 | 12.30109 | 114° | 62km/h | 18464m | 4.4m/s | -56.6°C | 4.8% | 74.3hPa | 2.5V | 00:00:00 | 01:20:23 | 00:00:00 | |
| OE5MMP-10 | 2026-09-03 23:52:10 | 47.69713 | 12.30066 | 113° | 58km/h | 18456m | 4.4m/s | -56.6°C | 4.8% | 74.4hPa | 2.5V | 00:00:00 | 01:20:21 | 00:00:00 | |
| OE8JPQ-2 | 2026-09-03 23:52:09 | 47.69719 | 12.30045 | 113° | 53km/h | 18451m | 4.2m/s | -56.6°C | 4.8% | 74.5hPa | 2.5V | 00:00:00 | 00:00:00 | 00:00:00 | |
| OE5DRO-10 | 2026-09-03 23:52:08 | 47.69725 | 12.30023 | 112° | 53km/h | 18448m | 3.0m/s | -56.6°C | 4.8% | 74.5hPa | 2.5V | 00:00:00 | 00:00:00 | 00:00:00 | |
| BAUMI2-15 | 2026-09-03 23:52:07 | 47.69731 | 12.30001 | 112° | 57km/h | 18444m | 4.7m/s | -56.6°C | 4.8% | 74.6hPa | 2.5V | 00:00:00 | 01:20:18 | 00:00:00 | |
| IN3HCDX | 2026-09-03 23:52:03 | 47.69746 | 12.29941 | 115° | 55km/h | 18431m | 4.8m/s | -56.6°C | 0% | 0hPa | 2.5V | 00:00:00 | 00:00:00 | 00:00:00 | |
| DL6DJ-15 | 2026-09-03 23:51:49 | 47.69852 | 12.29618 | 117° | 46km/h | 18346m | 5.1m/s | 0°C | -1.0% | -1.0hPa | 2.5V | 00:00:00 | 00:00:00 | 00:00:00 | |
| PETON7-10 | 2026-09-03 23:51:45 | 47.69852 | 12.29618 | 118° | 47km/h | 18347m | 5.1m/s | -56.6°C | 4.7% | 75.7hPa | 2.5V | 00:00:00 | 00:00:00 | 00:00:00 | |
| OE5WHR-10 | 2026-09-03 23:51:41 | 47.69872 | 12.29558 | 118° | 46km/h | 18328m | 3.8m/s | -56.8°C | 4.7% | 75.9hPa | 2.5V | 00:00:00 | 01:19:52 | 00:00:00 | |
| OE5MMP-10 | 2026-09-03 23:51:40 | 47.69877 | 12.29543 | 116° | 47km/h | 18324m | 4.4m/s | -56.8°C | 4.7% | 76.0hPa | 2.5V | 00:00:00 | 01:19:51 | 00:00:00 | |
| PG1ADW-2 | 2026-09-03 23:51:38 | 47.69887 | 12.29510 | 115° | 46km/h | 18315m | 3.7m/s | -57.2°C | 4.9% | 76.1hPa | 2.5V | 00:00:00 | 00:00:00 | 00:00:00 | |
| DG1MFX-10 | 2026-09-03 23:51:32 | 47.69916 | 12.29431 | 119° | 47km/h | 18293m | 3.9m/s | -57.5°C | 1.7% | 76.4hPa | 2.5V | 00:00:00 | 00:00:00 | 00:00:00 | |
| OE5MMP-10 | 2026-09-03 23:51:30 | 47.69934 | 12.29387 | 124° | 44km/h | 18279m | 3.7m/s | -57.5°C | 5.0% | 76.5hPa | 2.5V | 00:00:00 | 01:19:41 | 00:00:00 | |
| OE8JPQ-2 | 2026-09-03 23:51:29 | 47.69940 | 12.29373 | 122° | 44km/h | 18275m | 5.3m/s | -57.5°C | 5.0% | 76.6hPa | 2.5V | 00:00:00 | 01:19:40 | 00:00:00 | |
| OE5REO-15 | 2026-09-03 23:51:27 | 47.69945 | 12.29359 | 120° | 44km/h | 18270m | 4.7m/s | -57.6°C | 1.7% | 76.7hPa | 2.5V | 00:00:00 | 00:00:00 | 00:00:00 | |
| OE5FHM-15 | 2026-09-03 23:51:26 | 47.69956 | 12.29331 | 121° | 42km/h | 18261m | 5.0m/s | -57.6°C | 5.1% | 76.8hPa | 2.5V | 00:00:00 | 01:19:37 | 00:00:00 | |
| OE5MMP-10 | 2026-09-03 23:51:20 | 47.69987 | 12.29240 | 119° | 44km/h | 18234m | 4.4m/s | -57.5°C | 5.0% | 77.1hPa | 2.5V | 00:00:00 | 01:19:31 | 08:30:00 | |
| PG1ADW-2 | 2026-09-03 23:51:18 | 47.69998 | 12.29209 | 117° | 40km/h | 18225m | 5.1m/s | -57.5°C | 5.0% | 77.2hPa | 2.5V | 00:00:00 | 00:00:00 | 00:00:00 | |
| PETON7-10 | 2026-09-03 23:51:15 | 47.70013 | 12.29163 | 117° | 38km/h | 18211m | 4.8m/s | -57.4°C | 4.9% | 77.4hPa | 2.5V | 00:00:00 | 01:19:26 | 00:00:00 | |
| OE5DRO-10 | 2026-09-03 23:51:11 | 47.70028 | 12.29108 | 109° | 38km/h | 18193m | 4.1m/s | -57.3°C | 4.9% | 77.6hPa | 2.5V | 00:00:00 | 00:00:00 | 00:00:00 | |
| OE5MMP-10 | 2026-09-03 23:51:10 | 47.70031 | 12.29095 | 112° | 38km/h | 18189m | 5.1m/s | -57.3°C | 4.9% | 77.7hPa | 2.5V | 00:00:00 | 01:19:21 | 00:00:00 | |
| OE8JPQ-2 | 2026-09-03 23:51:09 | 47.70035 | 12.29083 | 116° | 38km/h | 18184m | 4.4m/s | -57.3°C | 4.9% | 77.7hPa | 2.5V | 00:00:00 | 00:00:00 | 00:00:00 | |
| DL6DJ-15 | 2026-09-03 23:50:46 | 47.70107 | 12.28778 | 109° | 33km/h | 18077m | 4.9m/s | 0°C | -1.0% | -1.0hPa | 2.7V | 00:00:00 | 00:00:00 | 00:00:00 | |
| PETON7-10 | 2026-09-03 23:50:45 | 47.70110 | 12.28766 | 110° | 29km/h | 18073m | 4.6m/s | 0°C | 0% | 0hPa | 2.7V | 00:00:00 | 00:00:00 | 00:00:00 | |
| DH7VM-15 | 2026-09-03 23:50:44 | 47.70110 | 12.28766 | 111° | 35km/h | 18073m | 4.6m/s | 0°C | 0% | 79.2hPa | 2.7V | 00:00:00 | 00:00:00 | 00:00:00 | |
| OE5MMP-10 | 2026-09-03 23:50:40 | 47.70119 | 12.28708 | 101° | 27km/h | 18048m | 4.5m/s | -58.0°C | 5.2% | 79.4hPa | 2.7V | 00:00:00 | 01:18:51 | 00:00:00 | |
| OE5WHR-10 | 2026-09-03 23:50:38 | 47.70121 | 12.28687 | 96° | 27km/h | 18038m | 4.8m/s | -58.0°C | 5.1% | 79.6hPa | 2.7V | 00:00:00 | 01:18:49 | 00:00:00 | |
| OE5DRO-10 | 2026-09-03 23:50:33 | 47.70128 | 12.28636 | 102° | 26km/h | 18014m | 5.0m/s | -58.2°C | 5.3% | 79.8hPa | 2.7V | 00:00:00 | 00:00:00 | 00:00:00 | |
| OE5MMP-10 | 2026-09-03 23:50:30 | 47.70134 | 12.28604 | 109° | 26km/h | 17999m | 4.1m/s | -58.1°C | 5.3% | 80.0hPa | 2.7V | 00:00:00 | 01:18:41 | 00:00:00 | |
| OE8JPQ-2 | 2026-09-03 23:50:29 | 47.70136 | 12.28594 | 107° | 24km/h | 17995m | 5.0m/s | -58.1°C | 5.3% | 80.1hPa | 2.7V | 00:00:00 | 01:18:40 | 00:00:00 | |
| OE5FHM-15 | 2026-09-03 23:50:26 | 47.70141 | 12.28566 | 105° | 22km/h | 17980m | 5.6m/s | -58.0°C | 5.3% | 80.3hPa | 2.7V | 00:00:00 | 01:18:37 | 00:00:00 | |
| OE5REO-15 | 2026-09-03 23:50:24 | 47.70142 | 12.28557 | 107° | 22km/h | 17975m | 4.0m/s | -58.0°C | 1.8% | 80.4hPa | 2.7V | 00:00:00 | 00:00:00 | 00:00:00 | |
| OE5MMP-10 | 2026-09-03 23:50:20 | 47.70149 | 12.28512 | 107° | 22km/h | 17951m | 4.9m/s | -57.9°C | 5.3% | 80.7hPa | 2.7V | 00:00:00 | 01:18:31 | 00:00:00 | |
| PG1ADW-2 | 2026-09-03 23:50:18 | 47.70153 | 12.28494 | 105° | 22km/h | 17942m | 5.5m/s | -57.9°C | 5.3% | 80.8hPa | 2.6V | 00:00:00 | 00:00:00 | 08:30:00 | |
| OE5WHR-10 | 2026-09-03 23:50:17 | 47.70154 | 12.28484 | 102° | 22km/h | 17937m | 4.6m/s | -57.9°C | 5.3% | 80.8hPa | 2.5V | 00:00:00 | 00:00:00 | 00:00:00 | |
| PETON7-10 | 2026-09-03 23:50:15 | 47.70157 | 12.28468 | 113° | 22km/h | 17928m | 5.9m/s | 0°C | 0% | 0hPa | 2.5V | 00:00:00 | 00:00:00 | 00:00:00 | |
| OE5DRO-10 | 2026-09-03 23:50:14 | 47.70159 | 12.28462 | 123° | 20km/h | 17922m | 4.7m/s | -57.8°C | 5.3% | 81.0hPa | 2.5V | 00:00:00 | 00:00:00 | 00:00:00 | |
| OE5MMP-10 | 2026-09-03 23:50:10 | 47.70169 | 12.28439 | 120° | 24km/h | 17903m | 4.4m/s | -57.7°C | 5.3% | 81.3hPa | 2.5V | 00:00:00 | 01:18:21 | 00:00:00 | |
| OE8JPQ-2 | 2026-09-03 23:50:09 | 47.70171 | 12.28432 | 125° | 22km/h | 17898m | 5.0m/s | -57.7°C | 5.3% | 81.3hPa | 2.5V | 00:00:00 | 00:00:00 | 08:30:00 | |
| OE5REO-15 | 2026-09-03 23:50:08 | 47.70171 | 12.28432 | 125° | 22km/h | 17898m | 5.1m/s | -57.8°C | 1.8% | 81.4hPa | 2.5V | 00:00:00 | 00:00:00 | 00:00:00 | |
| OE5MMP-10 | 2026-09-03 23:50:00 | 47.70207 | 12.28369 | 141° | 20km/h | 17855m | 4.8m/s | -57.3°C | 5.1% | 81.9hPa | 2.5V | 00:00:00 | 01:18:11 | 00:00:00 | |
| PG1ADW-2 | 2026-09-03 23:49:58 | 47.70214 | 12.28360 | 138° | 22km/h | 17844m | 4.3m/s | -57.3°C | 5.1% | 82.0hPa | 2.5V | 00:00:00 | 00:00:00 | 00:00:00 | |
| OE5WHR-10 | 2026-09-03 23:49:56 | 47.70220 | 12.28354 | 154° | 24km/h | 17834m | 5.4m/s | -57.2°C | 5.1% | 82.2hPa | 2.5V | 00:00:00 | 00:00:00 | 00:00:00 | |
| OE5DRO-10 | 2026-09-03 23:49:55 | 47.70224 | 12.28351 | 155° | 24km/h | 17830m | 4.1m/s | -57.2°C | 5.2% | 82.2hPa | 2.5V | 00:00:00 | 00:00:00 | 00:00:00 | |
| OE5REO-15 | 2026-09-03 23:49:52 | 47.70234 | 12.28343 | 144° | 24km/h | 17820m | 4.9m/s | -57.1°C | 1.8% | 82.4hPa | 2.5V | 00:00:00 | 00:00:00 | 00:00:00 | |
| OE5MMP-10 | 2026-09-03 23:49:50 | 47.70250 | 12.28324 | 146° | 24km/h | 17804m | 5.6m/s | -57.0°C | 5.0% | 82.6hPa | 2.5V | 00:00:00 | 01:18:01 | 08:30:00 | |
| OE8JPQ-2 | 2026-09-03 23:49:49 | 47.70256 | 12.28317 | 146° | 26km/h | 17799m | 4.4m/s | -56.9°C | 5.0% | 82.6hPa | 2.7V | 00:00:00 | 00:00:00 | 00:00:00 | |
| BAUMI2-15 | 2026-09-03 23:49:46 | 47.70272 | 12.28298 | 136° | 22km/h | 17784m | 4.2m/s | -56.8°C | 5.0% | 82.8hPa | 2.7V | 00:00:00 | 01:17:57 | 00:00:00 | |
| BAUMI2-15 | 2026-09-03 23:49:41 | 47.70292 | 12.28273 | 145° | 26km/h | 17760m | 4.5m/s | -56.7°C | 4.8% | 83.1hPa | 2.7V | 00:00:00 | 01:17:52 | 00:00:00 | |
| OE5MMP-10 | 2026-09-03 23:49:40 | 47.70297 | 12.28269 | 152° | 26km/h | 17756m | 3.9m/s | -56.7°C | 4.8% | 83.2hPa | 2.7V | 00:00:00 | 01:17:51 | 00:00:00 | |
| PG1ADW-2 | 2026-09-03 23:49:38 | 47.70308 | 12.28262 | 162° | 31km/h | 17746m | 4.0m/s | -56.6°C | 4.8% | 83.3hPa | 2.7V | 00:00:00 | 01:17:49 | 00:00:00 | |
| OE5REO-15 | 2026-09-03 23:49:36 | 47.70316 | 12.28259 | 161° | 29km/h | 17741m | 4.1m/s | -56.6°C | 1.7% | 83.4hPa | 2.7V | 00:00:00 | 00:00:00 | 00:00:00 | |
| OE5WHR-10 | 2026-09-03 23:49:35 | 47.70328 | 12.28249 | 148° | 31km/h | 17731m | 5.0m/s | -56.5°C | 4.7% | 83.5hPa | 2.7V | 00:00:00 | 01:17:46 | 00:00:00 | |
| BAUMI2-15 | 2026-09-03 23:49:31 | 47.70350 | 12.28226 | 152° | 27km/h | 17711m | 5.6m/s | -56.7°C | 4.7% | 83.8hPa | 2.7V | 00:00:00 | 01:17:42 | 00:00:00 | |
| OE5MMP-10 | 2026-09-03 23:49:30 | 47.70356 | 12.28222 | 157° | 35km/h | 17706m | 4.2m/s | -56.9°C | 4.8% | 83.9hPa | 2.7V | 00:00:00 | 01:17:41 | 00:00:00 | |
| DG1MFX-10 | 2026-09-03 23:49:29 | 47.70362 | 12.28218 | 156° | 26km/h | 17702m | 4.6m/s | -57.1°C | 1.8% | 84.0hPa | 2.7V | 00:00:00 | 00:00:00 | 00:00:00 | |
| OE5FHM-15 | 2026-09-03 23:49:26 | 47.70381 | 12.28201 | 146° | 38km/h | 17687m | 4.9m/s | -57.2°C | 5.0% | 84.1hPa | 2.7V | 00:00:00 | 01:17:37 | 08:30:00 | |
| DB0UT-7 | 2026-09-03 23:49:22 | 47.70414 | 12.28168 | 142° | 40km/h | 17665m | 5.2m/s | -57.5°C | 5.2% | 84.4hPa | 2.6V | 00:00:00 | 01:17:33 | 08:30:00 | |
| BAUMI2-15 | 2026-09-03 23:49:21 | 47.70421 | 12.28159 | 141° | 33km/h | 17661m | 3.8m/s | -57.5°C | 5.2% | 84.5hPa | 2.7V | 00:00:00 | 01:17:32 | 00:00:00 | |
| OE5MMP-10 | 2026-09-03 23:49:20 | 47.70428 | 12.28151 | 143° | 37km/h | 17656m | 4.9m/s | -57.5°C | 5.2% | 84.5hPa | 2.7V | 00:00:00 | 01:17:31 | 00:00:00 | |
| OE5DRO-10 | 2026-09-03 23:49:17 | 47.70449 | 12.28132 | 150° | 38km/h | 17642m | 4.3m/s | -57.5°C | 5.2% | 84.7hPa | 2.5V | 00:00:00 | 00:00:00 | 00:00:00 | |
| BAUMI2-15 | 2026-09-03 23:49:16 | 47.70455 | 12.28125 | 146° | 38km/h | 17638m | 5.1m/s | -57.6°C | 5.2% | 84.8hPa | 2.5V | 00:00:00 | 01:17:27 | 00:00:00 | |
| OE5WHR-10 | 2026-09-03 23:49:14 | 47.70470 | 12.28109 | 141° | 40km/h | 17628m | 4.3m/s | -57.6°C | 5.2% | 84.9hPa | 2.5V | 00:00:00 | 00:00:00 | 08:30:00 | |
| BAUMI2-15 | 2026-09-03 23:49:11 | 47.70494 | 12.28081 | 141° | 42km/h | 17613m | 5.8m/s | -57.5°C | 5.1% | 85.1hPa | 2.5V | 00:00:00 | 01:17:22 | 08:30:00 | |
| OE5MMP-10 | 2026-09-03 23:49:10 | 47.70502 | 12.28070 | 139° | 40km/h | 17607m | 4.8m/s | -57.5°C | 5.2% | 85.2hPa | 2.7V | 00:00:00 | 01:17:21 | 00:00:00 | |
| OE8JPQ-2 | 2026-09-03 23:49:09 | 47.70511 | 12.28059 | 139° | 40km/h | 17603m | 3.8m/s | -57.5°C | 5.2% | 85.2hPa | 2.7V | 00:00:00 | 00:00:00 | 00:00:00 | |
| DG1MFX-10 | 2026-09-03 23:49:08 | 47.70511 | 12.28059 | 139° | 44km/h | 17603m | 3.9m/s | -57.6°C | 1.9% | 85.3hPa | 2.5V | 00:00:00 | 00:00:00 | 00:00:00 | |
| BAUMI2-15 | 2026-09-03 23:49:06 | 47.70534 | 12.28029 | 139° | 38km/h | 17588m | 5.5m/s | -57.5°C | 5.1% | 85.4hPa | 2.5V | 00:00:00 | 01:17:17 | 00:00:00 | |
| OE5REO-15 | 2026-09-03 23:49:05 | 47.70534 | 12.28029 | 140° | 40km/h | 17588m | 5.6m/s | 0°C | 0% | 85.5hPa | 2.5V | 00:00:00 | 00:00:00 | 00:00:00 | |
| BAUMI2-15 | 2026-09-03 23:49:01 | 47.70568 | 12.27981 | 134° | 40km/h | 17563m | 5.6m/s | -57.5°C | 5.2% | 85.8hPa | 2.5V | 00:00:00 | 01:17:12 | 00:00:00 | |
| OE5MMP-10 | 2026-09-03 23:49:00 | 47.70575 | 12.27971 | 133° | 40km/h | 17557m | 4.5m/s | -57.5°C | 5.2% | 85.9hPa | 2.5V | 00:00:00 | 01:17:11 | 00:00:00 | |
| PG1ADW-2 | 2026-09-03 23:48:58 | 47.70589 | 12.27949 | 138° | 40km/h | 17548m | 5.7m/s | -57.6°C | 5.2% | 86.0hPa | 2.5V | 00:00:00 | 00:00:00 | 00:00:00 | |
| OE5FHM-15 | 2026-09-03 23:48:56 | 47.70606 | 12.27929 | 144° | 37km/h | 17537m | 5.1m/s | -57.6°C | 5.2% | 86.1hPa | 2.5V | 00:00:00 | 01:17:07 | 00:00:00 | |
| OE5WHR-10 | 2026-09-03 23:48:53 | 47.70632 | 12.27901 | 148° | 37km/h | 17522m | 5.4m/s | -57.6°C | 5.3% | 86.3hPa | 2.5V | 00:00:00 | 00:00:00 | 00:00:00 | |
| DB0UT-7 | 2026-09-03 23:48:51 | 47.70649 | 12.27886 | 150° | 47km/h | 17513m | 4.6m/s | -57.6°C | 5.3% | 86.5hPa | 2.5V | 00:00:00 | 00:00:00 | 00:00:00 | |
| OE5MMP-10 | 2026-09-03 23:48:50 | 47.70656 | 12.27879 | 146° | 38km/h | 17507m | 5.2m/s | -57.6°C | 5.3% | 86.5hPa | 2.5V | 00:00:00 | 01:17:01 | 00:00:00 | |
| OE5REO-15 | 2026-09-03 23:48:49 | 47.70656 | 12.27879 | 147° | 35km/h | 17507m | 5.2m/s | 0°C | 0% | 0hPa | 2.5V | 00:00:00 | 00:00:00 | 00:00:00 | |
| BAUMI2-15 | 2026-09-03 23:48:46 | 47.70683 | 12.27849 | 145° | 40km/h | 17489m | 4.1m/s | -57.5°C | 5.3% | 86.8hPa | 2.5V | 00:00:00 | 01:16:57 | 00:00:00 | |
| BAUMI2-15 | 2026-09-03 23:48:41 | 47.70724 | 12.27803 | 148° | 40km/h | 17466m | 4.5m/s | -57.3°C | 5.1% | 87.1hPa | 2.5V | 00:00:00 | 01:16:52 | 00:00:00 | |
| OE5MMP-10 | 2026-09-03 23:48:40 | 47.70733 | 12.27795 | 150° | 35km/h | 17461m | 4.2m/s | -57.3°C | 5.1% | 87.2hPa | 2.7V | 00:00:00 | 01:16:51 | 00:00:00 | |
| OE5DRO-10 | 2026-09-03 23:48:39 | 47.70742 | 12.27788 | 149° | 35km/h | 17457m | 5.2m/s | -57.3°C | 5.0% | 87.2hPa | 2.7V | 00:00:00 | 00:00:00 | 00:00:00 | |
| PG1ADW-2 | 2026-09-03 23:48:38 | 47.70750 | 12.27780 | 149° | 35km/h | 17452m | 4.4m/s | -57.3°C | 5.0% | 87.3hPa | 2.7V | 00:00:00 | 00:00:00 | 00:00:00 | |
| BAUMI2-15 | 2026-09-03 23:48:36 | 47.70766 | 12.27766 | 153° | 33km/h | 17443m | 5.3m/s | -57.2°C | 5.0% | 87.4hPa | 2.7V | 00:00:00 | 01:16:47 | 00:00:00 | |
| OE5WHR-10 | 2026-09-03 23:48:32 | 47.70795 | 12.27740 | 141° | 35km/h | 17424m | 4.4m/s | -57.2°C | 5.0% | 87.7hPa | 2.7V | 00:00:00 | 01:16:43 | 00:00:00 | |
| BAUMI2-15 | 2026-09-03 23:48:31 | 47.70801 | 12.27732 | 141° | 35km/h | 17419m | 5.3m/s | -57.2°C | 5.0% | 87.8hPa | 2.7V | 00:00:00 | 01:16:42 | 00:00:00 | |
| OE5DXL-15 | 2026-09-03 23:48:30 | 47.70807 | 12.27724 | 142° | 38km/h | 17414m | 4.2m/s | -57.3°C | 5.1% | 87.8hPa | 2.7V | 00:00:00 | 00:00:00 | 00:00:00 | |
| OE8JPQ-2 | 2026-09-03 23:48:29 | 47.70814 | 12.27716 | 142° | 37km/h | 17410m | 3.8m/s | -57.3°C | 5.1% | 87.9hPa | 2.7V | 00:00:00 | 01:16:40 | 00:00:00 | |
| DG1MFX-10 | 2026-09-03 23:48:27 | 47.70821 | 12.27708 | 142° | 35km/h | 17406m | 5.2m/s | -57.4°C | 1.9% | 88.0hPa | 2.7V | 00:00:00 | 00:00:00 | 00:00:00 | |
| OE5FHM-15 | 2026-09-03 23:48:26 | 47.70835 | 12.27692 | 147° | 40km/h | 17397m | 4.8m/s | -57.4°C | 5.2% | 88.0hPa | 2.7V | 00:00:00 | 01:16:37 | 00:00:00 | |
| BAUMI2-15 | 2026-09-03 23:48:21 | 47.70876 | 12.27660 | 152° | 33km/h | 17374m | 4.8m/s | -57.7°C | 5.2% | 88.4hPa | 2.7V | 00:00:00 | 01:16:32 | 00:00:00 | |
| OE5MMP-10 | 2026-09-03 23:48:20 | 47.70884 | 12.27654 | 151° | 37km/h | 17369m | 4.7m/s | -57.7°C | 5.2% | 88.5hPa | 2.7V | 00:00:00 | 01:16:31 | 08:30:00 | |
| PG1ADW-2 | 2026-09-03 23:48:18 | 47.70897 | 12.27640 | 141° | 42km/h | 17360m | 5.3m/s | -57.7°C | 5.2% | 88.6hPa | 2.7V | 00:00:00 | 01:16:29 | 00:00:00 | |
| BAUMI2-15 | 2026-09-03 23:48:16 | 47.70910 | 12.27623 | 137° | 37km/h | 17350m | 4.6m/s | -57.8°C | 5.2% | 88.7hPa | 2.5V | 00:00:00 | 01:16:27 | 00:00:00 | |
| OE5WHR-10 | 2026-09-03 23:48:11 | 47.70946 | 12.27579 | 144° | 46km/h | 17328m | 4.1m/s | -57.8°C | 5.2% | 89.0hPa | 2.5V | 00:00:00 | 00:00:00 | 00:00:00 | |
| OE5MMP-10 | 2026-09-03 23:48:10 | 47.70955 | 12.27570 | 148° | 44km/h | 17323m | 5.2m/s | -57.8°C | 5.2% | 89.1hPa | 2.6V | 00:00:00 | 01:16:21 | 00:00:00 | |
| OE8JPQ-2 | 2026-09-03 23:48:09 | 47.70964 | 12.27562 | 152° | 46km/h | 17318m | 4.8m/s | -57.8°C | 5.2% | 89.2hPa | 2.6V | 00:00:00 | 00:00:00 | 00:00:00 | |
| DG1MFX-10 | 2026-09-03 23:48:07 | 47.70973 | 12.27555 | 154° | 40km/h | 17314m | 3.7m/s | -57.8°C | 1.9% | 89.3hPa | 2.6V | 00:00:00 | 00:00:00 | 00:00:00 | |
| BAUMI2-15 | 2026-09-03 23:48:06 | 47.70991 | 12.27540 | 148° | 44km/h | 17304m | 4.8m/s | -57.7°C | 5.3% | 89.4hPa | 2.6V | 00:00:00 | 01:16:17 | 00:00:00 | |
| OE5DRO-10 | 2026-09-03 23:48:01 | 47.71037 | 12.27492 | 145° | 49km/h | 17280m | 4.8m/s | -57.6°C | 5.2% | 89.7hPa | 2.6V | 00:00:00 | 00:00:00 | 00:00:00 | |
| OE5MMP-10 | 2026-09-03 23:48:00 | 47.71048 | 12.27481 | 146° | 47km/h | 17276m | 3.8m/s | -57.6°C | 5.2% | 89.8hPa | 2.6V | 00:00:00 | 01:16:11 | 00:00:00 | |
| PG1ADW-2 | 2026-09-03 23:47:58 | 47.71069 | 12.27461 | 149° | 49km/h | 17267m | 4.3m/s | -57.6°C | 5.2% | 89.9hPa | 2.6V | 00:00:00 | 00:00:00 | 00:00:00 | |
| OE5FHM-15 | 2026-09-03 23:47:56 | 47.71090 | 12.27441 | 148° | 47km/h | 17257m | 5.0m/s | -57.7°C | 5.2% | 90.0hPa | 2.6V | 00:00:00 | 01:16:07 | 00:00:00 | |
| BAUMI2-15 | 2026-09-03 23:47:51 | 47.71137 | 12.27392 | 141° | 44km/h | 17235m | 4.7m/s | -57.9°C | 5.3% | 90.3hPa | 2.6V | 00:00:00 | 01:16:02 | 00:00:00 | |
| OE5MMP-10 | 2026-09-03 23:47:50 | 47.71145 | 12.27382 | 141° | 51km/h | 17230m | 4.2m/s | -57.9°C | 5.3% | 90.4hPa | 2.6V | 00:00:00 | 01:16:01 | 00:00:00 | |
| OE8JPQ-2 | 2026-09-03 23:47:49 | 47.71154 | 12.27371 | 143° | 51km/h | 17226m | 4.8m/s | -57.9°C | 5.3% | 90.5hPa | 2.7V | 00:00:00 | 00:00:00 | 00:00:00 | |
| DG1MFX-10 | 2026-09-03 23:47:46 | 47.71173 | 12.27351 | 146° | 47km/h | 17217m | 3.8m/s | -58.2°C | 2.0% | 90.7hPa | 2.7V | 00:00:00 | 00:00:00 | 00:00:00 | |
| OE5DRO-10 | 2026-09-03 23:47:42 | 47.71229 | 12.27295 | 146° | 53km/h | 17194m | 4.0m/s | -58.0°C | 5.5% | 90.9hPa | 2.7V | 00:00:00 | 00:00:00 | 00:00:00 | |
| OE5MMP-10 | 2026-09-03 23:47:40 | 47.71251 | 12.27271 | 143° | 51km/h | 17186m | 4.7m/s | -58.0°C | 5.5% | 91.1hPa | 2.6V | 00:00:00 | 01:15:51 | 00:00:00 | |
| PG1ADW-2 | 2026-09-03 23:47:38 | 47.71271 | 12.27246 | 141° | 49km/h | 17176m | 5.3m/s | -57.9°C | 5.5% | 91.2hPa | 2.6V | 00:00:00 | 00:00:00 | 00:00:00 | |
| DB0UT-7 | 2026-09-03 23:47:36 | 47.71291 | 12.27223 | 140° | 49km/h | 17167m | 4.8m/s | -57.8°C | 5.5% | 91.3hPa | 2.6V | 00:00:00 | 01:15:47 | 00:00:00 | |
| OE5MMP-10 | 2026-09-03 23:47:30 | 47.71351 | 12.27148 | 140° | 49km/h | 17139m | 5.7m/s | -57.6°C | 5.3% | 91.8hPa | 2.6V | 00:00:00 | 01:15:41 | 00:00:00 | |
| OE8JPQ-2 | 2026-09-03 23:47:29 | 47.71362 | 12.27134 | 137° | 47km/h | 17133m | 5.5m/s | -57.5°C | 5.3% | 91.8hPa | 2.6V | 00:00:00 | 01:15:40 | 00:00:00 | |
| DG1MFX-10 | 2026-09-03 23:47:25 | 47.71393 | 12.27090 | 139° | 51km/h | 17120m | 5.3m/s | -57.4°C | 1.9% | 92.1hPa | 2.6V | 00:00:00 | 00:00:00 | 00:00:00 | |
| OE5DRO-10 | 2026-09-03 23:47:23 | 47.71419 | 12.27058 | 143° | 46km/h | 17105m | 4.5m/s | -57.3°C | 5.2% | 92.2hPa | 2.6V | 00:00:00 | 00:00:00 | 00:00:00 | |
| OE5MMP-10 | 2026-09-03 23:47:20 | 47.71445 | 12.27027 | 139° | 46km/h | 17092m | 3.6m/s | -57.1°C | 5.3% | 92.4hPa | 2.6V | 00:00:00 | 01:15:31 | 00:00:00 | |
| OE5MMP-10 | 2026-09-03 23:47:10 | 47.71527 | 12.26901 | 135° | 49km/h | 17046m | 4.4m/s | -56.8°C | 5.1% | 93.1hPa | 2.6V | 00:00:00 | 01:15:21 | 00:00:00 | |
| OE8JPQ-2 | 2026-09-03 23:47:09 | 47.71535 | 12.26888 | 138° | 47km/h | 17042m | 3.4m/s | -56.8°C | 5.1% | 93.2hPa | 2.6V | 00:00:00 | 00:00:00 | 08:30:00 | |
| OE5WHR-10 | 2026-09-03 23:47:08 | 47.71544 | 12.26877 | 141° | 47km/h | 17038m | 5.1m/s | -56.8°C | 5.1% | 93.2hPa | 2.6V | 00:00:00 | 00:00:00 | 00:00:00 | |
| DB0UT-7 | 2026-09-03 23:47:07 | 47.71562 | 12.26856 | 145° | 42km/h | 17028m | 3.4m/s | -56.8°C | 5.1% | 93.4hPa | 2.7V | 00:00:00 | 00:00:00 | 00:00:00 | |
| OE5DRO-10 | 2026-09-03 23:47:04 | 47.71581 | 12.26834 | 139° | 47km/h | 17021m | 5.1m/s | -56.7°C | 5.1% | 93.5hPa | 2.6V | 00:00:00 | 00:00:00 | 00:00:00 | |
| OE5DXL-15 | 2026-09-03 23:47:00 | 47.71614 | 12.26775 | 125° | 44km/h | 17002m | 4.8m/s | -56.8°C | 5.1% | 93.8hPa | 2.6V | 00:00:00 | 00:00:00 | 00:00:00 | |
| PG1ADW-2 | 2026-09-03 23:46:56 | 47.71643 | 12.26723 | 135° | 44km/h | 16984m | 4.5m/s | -56.8°C | 5.2% | 94.0hPa | 2.6V | 00:00:00 | 00:00:00 | 08:30:00 | |
| OE5FHM-15 | 2026-09-03 23:46:55 | 47.71650 | 12.26712 | 135° | 44km/h | 16979m | 5.2m/s | -56.7°C | 5.2% | 94.1hPa | 2.6V | 00:00:00 | 01:15:06 | 00:00:00 | |
| OE5MMP-10 | 2026-09-03 23:46:50 | 47.71688 | 12.26646 | 127° | 46km/h | 16958m | 4.2m/s | -56.6°C | 5.0% | 94.4hPa | 2.6V | 00:00:00 | 01:15:01 | 08:30:00 | |
| OE8JPQ-2 | 2026-09-03 23:46:49 | 47.71695 | 12.26632 | 125° | 44km/h | 16954m | 4.4m/s | -56.6°C | 5.0% | 94.5hPa | 2.6V | 00:00:00 | 00:00:00 | 00:00:00 | |
| OE5WHR-10 | 2026-09-03 23:46:47 | 47.71708 | 12.26604 | 128° | 44km/h | 16945m | 4.4m/s | -56.7°C | 5.1% | 94.6hPa | 2.6V | 00:00:00 | 00:00:00 | 00:00:00 | |
| OE5DRO-10 | 2026-09-03 23:46:45 | 47.71723 | 12.26578 | 133° | 42km/h | 16937m | 3.9m/s | -56.8°C | 5.1% | 94.8hPa | 2.6V | 00:00:00 | 00:00:00 | 08:30:00 | |
| DG1MFX-10 | 2026-09-03 23:46:44 | 47.71723 | 12.26577 | 133° | 46km/h | 16937m | 3.9m/s | -56.8°C | 1.9% | 94.8hPa | 2.6V | 00:00:00 | 00:00:00 | 00:00:00 | |
| OE5MMP-10 | 2026-09-03 23:46:40 | 47.71761 | 12.26518 | 135° | 42km/h | 16914m | 4.2m/s | -56.8°C | 5.1% | 95.1hPa | 2.6V | 00:00:00 | 01:14:51 | 00:00:00 | |
| PG1ADW-2 | 2026-09-03 23:46:35 | 47.71798 | 12.26464 | 138° | 44km/h | 16893m | 3.4m/s | -56.8°C | 5.1% | 95.4hPa | 2.6V | 00:00:00 | 01:14:46 | 00:00:00 | |
| OE5MMP-10 | 2026-09-03 23:46:30 | 47.71836 | 12.26411 | 134° | 47km/h | 16872m | 4.9m/s | -56.8°C | 5.2% | 95.7hPa | 2.6V | 00:00:00 | 01:14:41 | 00:00:00 | |
| OE8JPQ-2 | 2026-09-03 23:46:29 | 47.71844 | 12.26399 | 132° | 47km/h | 16867m | 3.9m/s | -56.7°C | 5.1% | 95.8hPa | 2.6V | 00:00:00 | 01:14:40 | 00:00:00 | |
| OE5WHR-10 | 2026-09-03 23:46:26 | 47.71865 | 12.26358 | 125° | 47km/h | 16854m | 4.1m/s | -56.7°C | 5.0% | 96.0hPa | 2.6V | 00:00:00 | 01:14:37 | 00:00:00 | |
| DG1MFX-10 | 2026-09-03 23:46:24 | 47.71880 | 12.26328 | 128° | 49km/h | 16844m | 3.9m/s | -56.8°C | 1.9% | 96.2hPa | 2.6V | 00:00:00 | 00:00:00 | 00:00:00 | |
| OE5MMP-10 | 2026-09-03 23:46:20 | 47.71910 | 12.26273 | 133° | 46km/h | 16827m | 5.2m/s | -56.9°C | 5.1% | 96.4hPa | 2.6V | 00:00:00 | 01:14:31 | 00:00:00 | |
| PG1ADW-2 | 2026-09-03 23:46:15 | 47.71948 | 12.26211 | 127° | 40km/h | 16806m | 4.0m/s | -57.0°C | 5.1% | 96.7hPa | 2.6V | 00:00:00 | 00:00:00 | 00:00:00 | |
| OE5MMP-10 | 2026-09-03 23:46:10 | 47.71982 | 12.26136 | 124° | 42km/h | 16784m | 4.1m/s | -57.0°C | 5.3% | 97.1hPa | 2.6V | 00:00:00 | 01:14:21 | 00:00:00 | |
| OE8JPQ-2 | 2026-09-03 23:46:09 | 47.71988 | 12.26122 | 125° | 40km/h | 16780m | 4.0m/s | -57.0°C | 5.3% | 97.1hPa | 2.6V | 00:00:00 | 00:00:00 | 00:00:00 | |
| OE5DRO-10 | 2026-09-03 23:46:07 | 47.72001 | 12.26094 | 125° | 40km/h | 16771m | 3.8m/s | -57.1°C | 5.4% | 97.3hPa | 2.7V | 00:00:00 | 00:00:00 | 00:00:00 | |
| OE5WHR-10 | 2026-09-03 23:46:05 | 47.72014 | 12.26068 | 126° | 40km/h | 16762m | 4.9m/s | -57.2°C | 5.4% | 97.4hPa | 2.7V | 00:00:00 | 00:00:00 | 08:30:00 | |
| DG1MFX-10 | 2026-09-03 23:46:03 | 47.72019 | 12.26056 | 127° | 38km/h | 16758m | 3.5m/s | -57.2°C | 2.1% | 97.6hPa | 2.7V | 00:00:00 | 00:00:00 | 00:00:00 | |
| OE5MMP-10 | 2026-09-03 23:46:00 | 47.72043 | 12.26006 | 124° | 40km/h | 16740m | 5.3m/s | -57.2°C | 5.3% | 97.8hPa | 2.7V | 00:00:00 | 01:14:11 | 00:00:00 | |
| OE5FHM-15 | 2026-09-03 23:45:54 | 47.72075 | 12.25931 | 129° | 51km/h | 16713m | 4.5m/s | -57.1°C | 5.1% | 98.1hPa | 2.7V | 00:00:00 | 01:14:05 | 00:00:00 | |
| PG1ADW-2 | 2026-09-03 23:45:53 | 47.72081 | 12.25921 | 134° | 47km/h | 16709m | 3.6m/s | -57.1°C | 5.2% | 98.3hPa | 2.7V | 00:00:00 | 00:00:00 | 00:00:00 | |
| DB0UT-7 | 2026-09-03 23:45:52 | 47.72088 | 12.25910 | 137° | 51km/h | 16705m | 4.2m/s | -57.1°C | 5.3% | 98.2hPa | 2.6V | 00:00:00 | 01:14:03 | 00:00:00 | |
| OE5MMP-10 | 2026-09-03 23:45:50 | 47.72104 | 12.25889 | 138° | 46km/h | 16696m | 3.9m/s | -57.1°C | 5.3% | 98.4hPa | 2.6V | 00:00:00 | 01:14:01 | 00:00:00 | |
| OE8JPQ-2 | 2026-09-03 23:45:49 | 47.72112 | 12.25878 | 137° | 47km/h | 16692m | 4.2m/s | -57.1°C | 5.3% | 98.5hPa | 2.7V | 00:00:00 | 00:00:00 | 00:00:00 | |
| OE5DRO-10 | 2026-09-03 23:45:48 | 47.72120 | 12.25867 | 136° | 47km/h | 16687m | 5.2m/s | -57.2°C | 5.3% | 98.6hPa | 2.7V | 00:00:00 | 00:00:00 | 00:00:00 | |
| BAUMI2-15 | 2026-09-03 23:45:46 | 47.72135 | 12.25843 | 134° | 46km/h | 16678m | 3.9m/s | -57.2°C | 5.3% | 98.7hPa | 2.7V | 00:00:00 | 01:13:57 | 00:00:00 | |
| OE5WHR-10 | 2026-09-03 23:45:44 | 47.72151 | 12.25819 | 134° | 53km/h | 16669m | 4.5m/s | -57.2°C | 5.4% | 98.8hPa | 2.7V | 00:00:00 | 00:00:00 | 00:00:00 | |
| DG1MFX-10 | 2026-09-03 23:45:42 | 47.72159 | 12.25806 | 135° | 47km/h | 16664m | 4.7m/s | -57.3°C | 2.2% | 99.0hPa | 2.7V | 00:00:00 | 00:00:00 | 00:00:00 | |
| BAUMI2-15 | 2026-09-03 23:45:41 | 47.72175 | 12.25781 | 135° | 49km/h | 16655m | 3.2m/s | -57.3°C | 5.4% | 99.1hPa | 2.7V | 00:00:00 | 01:13:52 | 08:30:00 | |
| OE5MMP-10 | 2026-09-03 23:45:40 | 47.72184 | 12.25768 | 136° | 49km/h | 16651m | 5.2m/s | -57.3°C | 5.4% | 99.1hPa | 2.6V | 00:00:00 | 01:13:51 | 00:00:00 | |
| BAUMI2-15 | 2026-09-03 23:45:36 | 47.72220 | 12.25719 | 138° | 51km/h | 16633m | 3.9m/s | -57.5°C | 5.3% | 99.4hPa | 2.6V | 00:00:00 | 01:13:47 | 00:00:00 | |
| BAUMI2-15 | 2026-09-03 23:45:31 | 47.72266 | 12.25651 | 135° | 58km/h | 16609m | 5.4m/s | -57.5°C | 5.4% | 99.8hPa | 2.6V | 00:00:00 | 01:13:42 | 00:00:00 | |
| OE5MMP-10 | 2026-09-03 23:45:30 | 47.72275 | 12.25636 | 135° | 62km/h | 16604m | 4.2m/s | -57.5°C | 5.4% | 99.8hPa | 2.6V | 00:00:00 | 01:13:41 | 00:00:00 | |
| BAUMI2-15 | 2026-09-03 23:45:26 | 47.72319 | 12.25573 | 138° | 64km/h | 16585m | 4.7m/s | -57.5°C | 5.4% | 100.2hPa | 2.6V | 00:00:00 | 01:13:37 | 00:00:00 | |
| OE5FHM-15 | 2026-09-03 23:45:23 | 47.72353 | 12.25523 | 133° | 51km/h | 16572m | 4.4m/s | -57.5°C | 5.4% | 100.4hPa | 2.6V | 00:00:00 | 01:13:34 | 00:00:00 | |
| DB0UT-7 | 2026-09-03 23:45:22 | 47.72364 | 12.25505 | 131° | 47km/h | 16568m | 3.7m/s | -57.5°C | 5.4% | 100.5hPa | 2.6V | 00:00:00 | 00:00:00 | 00:00:00 | |
| BAUMI2-15 | 2026-09-03 23:45:21 | 47.72374 | 12.25488 | 130° | 58km/h | 16563m | 5.0m/s | -57.5°C | 5.4% | 100.5hPa | 2.6V | 00:00:00 | 01:13:32 | 00:00:00 | |
| OE5MMP-10 | 2026-09-03 23:45:20 | 47.72383 | 12.25470 | 129° | 57km/h | 16558m | 4.5m/s | -57.6°C | 5.5% | 100.6hPa | 2.6V | 00:00:00 | 01:13:31 | 08:30:00 | |
| BAUMI2-15 | 2026-09-03 23:45:16 | 47.72420 | 12.25403 | 131° | 57km/h | 16540m | 4.5m/s | -57.7°C | 5.5% | 100.9hPa | 2.7V | 00:00:00 | 01:13:27 | 00:00:00 | |
| BAUMI2-15 | 2026-09-03 23:45:11 | 47.72469 | 12.25325 | 134° | 57km/h | 16517m | 3.9m/s | -57.8°C | 5.5% | 101.3hPa | 2.7V | 00:00:00 | 01:13:22 | 00:00:00 | |
| OE5MMP-10 | 2026-09-03 23:45:10 | 47.72479 | 12.25309 | 134° | 53km/h | 16513m | 5.1m/s | -57.8°C | 5.5% | 101.3hPa | 2.6V | 00:00:00 | 01:13:21 | 00:00:00 | |
| OE8JPQ-2 | 2026-09-03 23:45:09 | 47.72488 | 12.25293 | 133° | 51km/h | 16508m | 3.9m/s | -57.8°C | 5.5% | 101.4hPa | 2.6V | 00:00:00 | 00:00:00 | 00:00:00 | |
| BAUMI2-15 | 2026-09-03 23:45:06 | 47.72516 | 12.25246 | 130° | 49km/h | 16495m | 3.8m/s | -57.7°C | 5.5% | 101.6hPa | 2.6V | 00:00:00 | 01:13:17 | 00:00:00 | |
| BAUMI2-15 | 2026-09-03 23:45:01 | 47.72557 | 12.25176 | 131° | 49km/h | 16473m | 3.8m/s | -57.7°C | 5.7% | 102.0hPa | 2.6V | 00:00:00 | 01:13:12 | 00:00:00 | |
| OE5DXL-15 | 2026-09-03 23:45:00 | 47.72565 | 12.25162 | 131° | 49km/h | 16469m | 3.5m/s | -57.7°C | 5.6% | 102.0hPa | 2.6V | 00:00:00 | 00:00:00 | 00:00:00 | |
| BAUMI2-15 | 2026-09-03 23:44:56 | 47.72598 | 12.25105 | 130° | 51km/h | 16452m | 4.7m/s | -57.6°C | 5.5% | 102.3hPa | 2.6V | 00:00:00 | 01:13:07 | 08:30:00 | |
| BAUMI2-15 | 2026-09-03 23:44:51 | 47.72640 | 12.25035 | 136° | 49km/h | 16431m | 4.8m/s | -57.7°C | 5.6% | 102.7hPa | 2.7V | 00:00:00 | 01:13:02 | 00:00:00 | |
| OE8JPQ-2 | 2026-09-03 23:44:49 | 47.72658 | 12.25008 | 135° | 47km/h | 16422m | 3.6m/s | -57.8°C | 5.7% | 102.8hPa | 2.7V | 00:00:00 | 00:00:00 | 00:00:00 | |
| BAUMI2-15 | 2026-09-03 23:44:46 | 47.72683 | 12.24968 | 130° | 46km/h | 16409m | 4.0m/s | -57.8°C | 5.7% | 103.0hPa | 2.7V | 00:00:00 | 01:12:57 | 00:00:00 | |
| OE5WHR-10 | 2026-09-03 23:44:41 | 47.72721 | 12.24902 | 134° | 46km/h | 16385m | 4.6m/s | -57.7°C | 5.6% | 103.4hPa | 2.7V | 00:00:00 | 00:00:00 | 00:00:00 | |
| OE5MMP-10 | 2026-09-03 23:44:40 | 47.72729 | 12.24889 | 134° | 47km/h | 16381m | 4.8m/s | -57.7°C | 5.7% | 103.5hPa | 2.7V | 00:00:00 | 01:12:51 | 00:00:00 | |
| OE5FHM-15 | 2026-09-03 23:44:36 | 47.72762 | 12.24837 | 131° | 44km/h | 16363m | 4.0m/s | -57.6°C | 5.6% | 103.8hPa | 2.7V | 00:00:00 | 01:12:47 | 00:00:00 | |
| BAUMI2-15 | 2026-09-03 23:44:31 | 47.72797 | 12.24764 | 124° | 44km/h | 16341m | 3.9m/s | -57.4°C | 5.6% | 104.1hPa | 2.7V | 00:00:00 | 01:12:42 | 00:00:00 | |
| OE5MMP-10 | 2026-09-03 23:44:30 | 47.72803 | 12.24751 | 128° | 42km/h | 16337m | 4.0m/s | -57.4°C | 5.6% | 104.2hPa | 2.7V | 00:00:00 | 01:12:41 | 00:00:00 | |
| OE8JPQ-2 | 2026-09-03 23:44:29 | 47.72810 | 12.24739 | 132° | 44km/h | 16332m | 4.5m/s | -57.4°C | 5.5% | 104.3hPa | 2.7V | 00:00:00 | 01:12:40 | 00:00:00 | |
| BAUMI2-15 | 2026-09-03 23:44:21 | 47.72871 | 12.24649 | 137° | 44km/h | 16297m | 4.8m/s | -57.2°C | 5.6% | 104.9hPa | 2.7V | 00:00:00 | 01:12:32 | 00:00:00 | |
| OE5WHR-10 | 2026-09-03 23:44:20 | 47.72879 | 12.24638 | 136° | 46km/h | 16292m | 4.4m/s | -57.2°C | 5.6% | 105.0hPa | 2.7V | 00:00:00 | 01:12:31 | 00:00:00 | |
| DG1MFX-10 | 2026-09-03 23:44:19 | 47.72879 | 12.24638 | 137° | 42km/h | 16292m | 4.4m/s | -57.2°C | 2.3% | 105.0hPa | 2.7V | 00:00:00 | 00:00:00 | 00:00:00 | |
| BAUMI2-15 | 2026-09-03 23:44:16 | 47.72911 | 12.24590 | 132° | 46km/h | 16275m | 4.4m/s | -57.1°C | 5.5% | 105.3hPa | 2.7V | 00:00:00 | 01:12:27 | 00:00:00 | |
| PG1ADW-2 | 2026-09-03 23:44:12 | 47.72940 | 12.24539 | 134° | 49km/h | 16256m | 4.1m/s | -57.2°C | 5.5% | 105.6hPa | 2.7V | 00:00:00 | 00:00:00 | 00:00:00 | |
| BAUMI2-15 | 2026-09-03 23:44:11 | 47.72948 | 12.24527 | 136° | 44km/h | 16252m | 4.0m/s | -57.2°C | 5.4% | 105.7hPa | 2.7V | 00:00:00 | 01:12:22 | 08:30:00 | |
| OE5MMP-10 | 2026-09-03 23:44:10 | 47.72956 | 12.24516 | 137° | 46km/h | 16248m | 5.0m/s | -57.2°C | 5.4% | 105.7hPa | 2.6V | 00:00:00 | 01:12:21 | 00:00:00 | |
| OE8JPQ-2 | 2026-09-03 23:44:09 | 47.72964 | 12.24505 | 139° | 49km/h | 16243m | 3.8m/s | -57.2°C | 5.5% | 105.8hPa | 2.6V | 00:00:00 | 00:00:00 | 08:30:00 | |
| OE5FHM-15 | 2026-09-03 23:44:06 | 47.72990 | 12.24473 | 141° | 57km/h | 16229m | 4.3m/s | -57.1°C | 5.4% | 106.0hPa | 2.7V | 00:00:00 | 01:12:17 | 08:30:00 | |
| BAUMI2-15 | 2026-09-03 23:44:01 | 47.73035 | 12.24415 | 138° | 51km/h | 16207m | 4.2m/s | -57.1°C | 5.5% | 106.4hPa | 2.6V | 00:00:00 | 01:12:12 | 00:00:00 | |
| OE5MMP-10 | 2026-09-03 23:44:00 | 47.73044 | 12.24402 | 137° | 51km/h | 16202m | 5.3m/s | -57.1°C | 5.5% | 106.5hPa | 2.6V | 00:00:00 | 01:12:11 | 00:00:00 | |
| OE5WHR-10 | 2026-09-03 23:43:59 | 47.73053 | 12.24389 | 136° | 57km/h | 16198m | 3.8m/s | -57.1°C | 5.5% | 106.6hPa | 2.6V | 00:00:00 | 00:00:00 | 00:00:00 | |
| DG1MFX-10 | 2026-09-03 23:43:58 | 47.73053 | 12.24389 | 136° | 49km/h | 16198m | 3.9m/s | -57.2°C | 2.3% | 106.6hPa | 2.6V | 00:00:00 | 00:00:00 | 00:00:00 | |
| BAUMI2-15 | 2026-09-03 23:43:56 | 47.73082 | 12.24350 | 139° | 51km/h | 16184m | 3.9m/s | -57.2°C | 5.6% | 106.8hPa | 2.6V | 00:00:00 | 01:12:07 | 00:00:00 | |
| OE5DRO-10 | 2026-09-03 23:43:53 | 47.73110 | 12.24312 | 139° | 60km/h | 16171m | 3.7m/s | -57.3°C | 5.6% | 107.0hPa | 2.7V | 00:00:00 | 00:00:00 | 08:30:00 | |
| PG1ADW-2 | 2026-09-03 23:43:51 | 47.73131 | 12.24285 | 140° | 62km/h | 16162m | 4.3m/s | -57.3°C | 5.8% | 107.1hPa | 2.6V | 00:00:00 | 01:12:02 | 00:00:00 | |
| OE5MMP-10 | 2026-09-03 23:43:50 | 47.73141 | 12.24271 | 138° | 60km/h | 16157m | 4.7m/s | -57.3°C | 5.7% | 107.2hPa | 2.6V | 00:00:00 | 01:12:01 | 08:30:00 | |
| OE8JPQ-2 | 2026-09-03 23:43:49 | 47.73151 | 12.24257 | 136° | 62km/h | 16153m | 4.8m/s | -57.3°C | 5.8% | 107.3hPa | 2.6V | 00:00:00 | 00:00:00 | 00:00:00 | |
| DB0UT-7 | 2026-09-03 23:43:42 | 47.73221 | 12.24135 | 126° | 64km/h | 16121m | 3.7m/s | -57.2°C | 5.6% | 107.8hPa | 2.6V | 00:00:00 | 00:00:00 | 00:00:00 | |
| OE5MMP-10 | 2026-09-03 23:43:40 | 47.73240 | 12.24097 | 128° | 62km/h | 16113m | 3.6m/s | -57.2°C | 5.6% | 108.0hPa | 2.6V | 00:00:00 | 01:11:51 | 00:00:00 | |
| DG1MFX-10 | 2026-09-03 23:43:39 | 47.73249 | 12.24078 | 129° | 62km/h | 16109m | 4.2m/s | -57.2°C | 2.4% | 108.1hPa | 2.6V | 00:00:00 | 00:00:00 | 00:00:00 | |
| OE5WHR-10 | 2026-09-03 23:43:38 | 47.73259 | 12.24060 | 130° | 66km/h | 16105m | 4.3m/s | -57.2°C | 5.6% | 108.1hPa | 2.6V | 00:00:00 | 00:00:00 | 00:00:00 | |
| OE5DRO-10 | 2026-09-03 23:43:34 | 47.73301 | 12.23990 | 135° | 68km/h | 16088m | 3.9m/s | -57.2°C | 5.7% | 108.4hPa | 2.6V | 00:00:00 | 00:00:00 | 00:00:00 | |
| OE5MMP-10 | 2026-09-03 23:43:30 | 47.73347 | 12.23924 | 136° | 66km/h | 16069m | 4.5m/s | -57.5°C | 5.8% | 108.8hPa | 2.6V | 00:00:00 | 01:11:41 | 00:00:00 | |
| PG1ADW-2 | 2026-09-03 23:43:29 | 47.73358 | 12.23907 | 135° | 69km/h | 16065m | 3.8m/s | -57.5°C | 5.8% | 108.8hPa | 2.6V | 00:00:00 | 00:00:00 | 00:00:00 | |
| OE5MMP-10 | 2026-09-03 23:43:20 | 47.73470 | 12.23752 | 138° | 71km/h | 16026m | 4.5m/s | -57.4°C | 5.8% | 109.5hPa | 2.7V | 00:00:00 | 01:11:31 | 00:00:00 | |
| OE5WHR-10 | 2026-09-03 23:43:17 | 47.73510 | 12.23693 | 135° | 68km/h | 16012m | 5.1m/s | -57.4°C | 5.8% | 109.7hPa | 2.7V | 00:00:00 | 01:11:28 | 00:00:00 | |
| OE5DRO-10 | 2026-09-03 23:43:15 | 47.73536 | 12.23655 | 135° | 68km/h | 16004m | 4.2m/s | -57.4°C | 5.8% | 109.9hPa | 2.7V | 00:00:00 | 00:00:00 | 00:00:00 | |
| OE5MMP-10 | 2026-09-03 23:43:10 | 47.73599 | 12.23567 | 139° | 68km/h | 15982m | 5.3m/s | -57.5°C | 5.8% | 110.3hPa | 2.7V | 00:00:00 | 01:11:21 | 00:00:00 | |
| OE8JPQ-2 | 2026-09-03 23:43:09 | 47.73612 | 12.23549 | 138° | 66km/h | 15977m | 4.0m/s | -57.5°C | 5.8% | 110.4hPa | 2.7V | 00:00:00 | 00:00:00 | 00:00:00 | |
| PG1ADW-2 | 2026-09-03 23:43:08 | 47.73624 | 12.23532 | 137° | 68km/h | 15973m | 4.1m/s | -57.6°C | 5.8% | 110.4hPa | 2.6V | 00:00:00 | 00:00:00 | 00:00:00 | |
| DO3MHA-11 | 2026-09-03 23:43:03 | 47.73685 | 12.23440 | 134° | 64km/h | 15951m | 3.4m/s | -57.6°C | 5.9% | 110.8hPa | 2.6V | 00:00:00 | 01:11:14 | 00:00:00 | |
| OE5MMP-10 | 2026-09-03 23:43:00 | 47.73719 | 12.23385 | 133° | 64km/h | 15938m | 4.3m/s | -57.7°C | 6.0% | 111.1hPa | 2.7V | 00:00:00 | 01:11:11 | 00:00:00 | |
| OE5WHR-10 | 2026-09-03 23:42:56 | 47.73762 | 12.23317 | 132° | 66km/h | 15921m | 4.4m/s | -57.6°C | 5.9% | 111.3hPa | 2.7V | 00:00:00 | 00:00:00 | 08:30:00 | |
| DO3MHA-11 | 2026-09-03 23:42:53 | 47.73794 | 12.23264 | 131° | 66km/h | 15907m | 3.8m/s | -57.5°C | 5.8% | 111.6hPa | 2.7V | 00:00:00 | 01:11:04 | 00:00:00 | |
| OE5FHM-15 | 2026-09-03 23:42:50 | 47.73825 | 12.23204 | 127° | 68km/h | 15894m | 3.6m/s | -57.5°C | 5.7% | 111.8hPa | 2.7V | 00:00:00 | 01:11:01 | 00:00:00 | |
| OE8JPQ-2 | 2026-09-03 23:42:49 | 47.73836 | 12.23184 | 127° | 66km/h | 15890m | 3.8m/s | 0°C | 0% | 0hPa | 2.7V | 00:00:00 | 00:00:00 | 00:00:00 | |
| PG1ADW-2 | 2026-09-03 23:42:48 | 47.73846 | 12.23163 | 127° | 66km/h | 15886m | 4.5m/s | -57.5°C | 5.6% | 112.0hPa | 2.7V | 00:00:00 | 00:00:00 | 00:00:00 | |
| DO3MHA-11 | 2026-09-03 23:42:43 | 47.73896 | 12.23067 | 131° | 66km/h | 15864m | 4.2m/s | -57.5°C | 5.6% | 112.4hPa | 2.7V | 00:00:00 | 01:10:54 | 00:00:00 | |
| OE5MMP-10 | 2026-09-03 23:42:40 | 47.73926 | 12.23011 | 127° | 66km/h | 15852m | 4.4m/s | -57.6°C | 5.6% | 112.6hPa | 2.7V | 00:00:00 | 01:10:51 | 00:00:00 | |
| OE5DRO-10 | 2026-09-03 23:42:37 | 47.73956 | 12.22952 | 129° | 66km/h | 15839m | 3.9m/s | -57.9°C | 5.8% | 112.8hPa | 2.7V | 00:00:00 | 00:00:00 | 00:00:00 | |
| DB0UT-7 | 2026-09-03 23:42:36 | 47.73967 | 12.22932 | 130° | 69km/h | 15836m | 3.3m/s | -58.0°C | 5.9% | 112.9hPa | 2.7V | 00:00:00 | 01:10:47 | 00:00:00 | |
| OE5WHR-10 | 2026-09-03 23:42:35 | 47.73978 | 12.22912 | 130° | 66km/h | 15832m | 4.4m/s | -58.1°C | 6.0% | 112.9hPa | 2.7V | 00:00:00 | 00:00:00 | 00:00:00 | |
| DO3MHA-11 | 2026-09-03 23:42:33 | 47.74000 | 12.22873 | 131° | 64km/h | 15824m | 3.6m/s | -58.2°C | 6.0% | 113.1hPa | 2.7V | 00:00:00 | 01:10:44 | 00:00:00 | |
| OE5MMP-10 | 2026-09-03 23:42:30 | 47.74034 | 12.22821 | 137° | 64km/h | 15811m | 3.9m/s | -58.3°C | 6.0% | 113.4hPa | 2.7V | 00:00:00 | 01:10:41 | 00:00:00 | |
| OE8JPQ-2 | 2026-09-03 23:42:29 | 47.74045 | 12.22804 | 136° | 66km/h | 15807m | 4.3m/s | 0°C | 0% | 0hPa | 2.7V | 00:00:00 | 01:10:40 | 00:00:00 | |
| PG1ADW-2 | 2026-09-03 23:42:28 | 47.74056 | 12.22788 | 136° | 66km/h | 15803m | 3.7m/s | -58.4°C | 6.0% | 113.4hPa | 2.7V | 00:00:00 | 01:10:39 | 08:30:00 | |
| DO3MHA-11 | 2026-09-03 23:42:23 | 47.74114 | 12.22702 | 131° | 66km/h | 15781m | 4.3m/s | -58.5°C | 6.1% | 113.8hPa | 2.6V | 00:00:00 | 01:10:34 | 00:00:00 | |
| OE5MMP-10 | 2026-09-03 23:42:20 | 47.74146 | 12.22647 | 132° | 68km/h | 15768m | 3.7m/s | -58.5°C | 6.0% | 114.1hPa | 2.6V | 00:00:00 | 01:10:31 | 08:30:00 | |
| OE5DRO-10 | 2026-09-03 23:42:18 | 47.74167 | 12.22610 | 130° | 69km/h | 15759m | 3.7m/s | -58.5°C | 6.1% | 114.3hPa | 2.6V | 00:00:00 | 00:00:00 | 00:00:00 | |
| DG1MFX-10 | 2026-09-03 23:42:15 | 47.74190 | 12.22572 | 135° | 68km/h | 15751m | 4.6m/s | -58.5°C | 2.6% | 114.5hPa | 2.6V | 00:00:00 | 00:00:00 | 00:00:00 | |
| OE5WHR-10 | 2026-09-03 23:42:14 | 47.74214 | 12.22535 | 135° | 69km/h | 15743m | 4.7m/s | -58.4°C | 6.0% | 114.6hPa | 2.6V | 00:00:00 | 01:10:25 | 00:00:00 | |
| DO3MHA-11 | 2026-09-03 23:42:13 | 47.74227 | 12.22517 | 134° | 69km/h | 15738m | 4.0m/s | -58.4°C | 6.0% | 114.7hPa | 2.6V | 00:00:00 | 01:10:24 | 00:00:00 | |
| OE5MMP-10 | 2026-09-03 23:42:10 | 47.74263 | 12.22460 | 135° | 69km/h | 15726m | 4.0m/s | -58.4°C | 6.1% | 114.9hPa | 2.6V | 00:00:00 | 01:10:21 | 00:00:00 | |
| OE8JPQ-2 | 2026-09-03 23:42:09 | 47.74275 | 12.22441 | 133° | 68km/h | 15722m | 3.9m/s | 0°C | 0% | 0hPa | 2.6V | 00:00:00 | 00:00:00 | 00:00:00 | |
| PG1ADW-2 | 2026-09-03 23:42:08 | 47.74286 | 12.22422 | 131° | 68km/h | 15718m | 4.7m/s | -58.5°C | 6.1% | 115.0hPa | 2.6V | 00:00:00 | 00:00:00 | 00:00:00 | |
| DO3MHA-11 | 2026-09-03 23:42:03 | 47.74343 | 12.22327 | 136° | 69km/h | 15698m | 4.1m/s | -58.6°C | 6.0% | 115.4hPa | 2.6V | 00:00:00 | 01:10:14 | 08:30:00 | |
| OE5FHM-15 | 2026-09-03 23:42:00 | 47.74382 | 12.22271 | 138° | 62km/h | 15684m | 4.8m/s | -58.6°C | 6.0% | 115.6hPa | 2.6V | 00:00:00 | 01:10:11 | 00:00:00 | |
| OE5DRO-10 | 2026-09-03 23:41:59 | 47.74396 | 12.22253 | 138° | 62km/h | 15680m | 4.1m/s | -58.6°C | 6.0% | 115.7hPa | 2.6V | 00:00:00 | 00:00:00 | 00:00:00 | |
| DG1MFX-10 | 2026-09-03 23:41:54 | 47.74445 | 12.22179 | 131° | 64km/h | 15662m | 5.0m/s | -58.6°C | 2.6% | 116.1hPa | 2.6V | 00:00:00 | 00:00:00 | 00:00:00 | |
| OE5WHR-10 | 2026-09-03 23:41:53 | 47.74464 | 12.22143 | 128° | 60km/h | 15654m | 3.9m/s | -58.5°C | 6.1% | 116.2hPa | 2.6V | 00:00:00 | 00:00:00 | 00:00:00 | |
| OE5MMP-10 | 2026-09-03 23:41:50 | 47.74492 | 12.22088 | 127° | 60km/h | 15641m | 4.7m/s | -58.5°C | 6.1% | 116.4hPa | 2.7V | 00:00:00 | 01:10:01 | 00:00:00 | |
| OE8JPQ-2 | 2026-09-03 23:41:49 | 47.74501 | 12.22070 | 129° | 60km/h | 15636m | 4.6m/s | 0°C | 0% | 0hPa | 2.6V | 00:00:00 | 00:00:00 | 00:00:00 | |
| PG1ADW-2 | 2026-09-03 23:41:48 | 47.74510 | 12.22053 | 130° | 60km/h | 15632m | 3.7m/s | -58.5°C | 6.2% | 116.6hPa | 2.6V | 00:00:00 | 00:00:00 | 00:00:00 | |
| BAUMI2-15 | 2026-09-03 23:41:46 | 47.74529 | 12.22019 | 130° | 60km/h | 15623m | 3.6m/s | -58.6°C | 6.3% | 116.8hPa | 2.6V | 00:00:00 | 01:09:57 | 00:00:00 | |
| DO3MHA-11 | 2026-09-03 23:41:43 | 47.74559 | 12.21968 | 131° | 60km/h | 15610m | 4.1m/s | -58.5°C | 6.1% | 117.0hPa | 2.6V | 00:00:00 | 01:09:54 | 00:00:00 | |
| BAUMI2-15 | 2026-09-03 23:41:41 | 47.74578 | 12.21933 | 129° | 60km/h | 15601m | 3.6m/s | -58.5°C | 6.1% | 117.2hPa | 2.6V | 00:00:00 | 01:09:52 | 00:00:00 | |
| OE5MMP-10 | 2026-09-03 23:41:40 | 47.74588 | 12.21915 | 130° | 60km/h | 15598m | 4.7m/s | -58.5°C | 6.1% | 117.2hPa | 2.7V | 00:00:00 | 01:09:51 | 00:00:00 | |
| BAUMI2-15 | 2026-09-03 23:41:36 | 47.74627 | 12.21847 | 131° | 60km/h | 15579m | 4.1m/s | -58.6°C | 6.0% | 117.6hPa | 2.7V | 00:00:00 | 01:09:47 | 00:00:00 | |
| DG1MFX-10 | 2026-09-03 23:41:34 | 47.74638 | 12.21830 | 133° | 60km/h | 15575m | 4.4m/s | -58.6°C | 2.6% | 117.7hPa | 2.7V | 00:00:00 | 00:00:00 | 00:00:00 | |
| DO3MHA-11 | 2026-09-03 23:41:33 | 47.74658 | 12.21797 | 135° | 64km/h | 15566m | 3.5m/s | -58.6°C | 6.0% | 117.8hPa | 2.7V | 00:00:00 | 01:09:44 | 00:00:00 | |
| OE5WHR-10 | 2026-09-03 23:41:32 | 47.74669 | 12.21781 | 134° | 68km/h | 15562m | 5.0m/s | -58.6°C | 6.0% | 117.9hPa | 2.7V | 00:00:00 | 00:00:00 | 00:00:00 | |
| BAUMI2-15 | 2026-09-03 23:41:31 | 47.74680 | 12.21764 | 134° | 62km/h | 15558m | 3.9m/s | -58.6°C | 6.1% | 118.0hPa | 2.7V | 00:00:00 | 01:09:42 | 00:00:00 | |
| OE5MMP-10 | 2026-09-03 23:41:30 | 47.74691 | 12.21748 | 135° | 66km/h | 15553m | 4.4m/s | -58.6°C | 6.1% | 118.0hPa | 2.7V | 00:00:00 | 01:09:41 | 00:00:00 | |
| OE8JPQ-2 | 2026-09-03 23:41:29 | 47.74702 | 12.21732 | 137° | 69km/h | 15549m | 4.3m/s | 0°C | 0% | 0hPa | 2.7V | 00:00:00 | 01:09:40 | 00:00:00 | |
| PG1ADW-2 | 2026-09-03 23:41:28 | 47.74713 | 12.21716 | 137° | 69km/h | 15545m | 3.5m/s | -58.5°C | 6.1% | 118.2hPa | 2.7V | 00:00:00 | 00:00:00 | 00:00:00 | |
| BAUMI2-15 | 2026-09-03 23:41:26 | 47.74736 | 12.21682 | 135° | 68km/h | 15537m | 4.5m/s | -58.5°C | 6.1% | 118.4hPa | 2.6V | 00:00:00 | 01:09:37 | 08:30:00 | |
| DO3MHA-11 | 2026-09-03 23:41:23 | 47.74773 | 12.21626 | 134° | 68km/h | 15525m | 4.7m/s | -58.7°C | 6.3% | 118.6hPa | 2.6V | 00:00:00 | 01:09:34 | 00:00:00 | |
| BAUMI2-15 | 2026-09-03 23:41:21 | 47.74796 | 12.21591 | 136° | 68km/h | 15516m | 4.1m/s | -58.5°C | 6.3% | 118.7hPa | 2.6V | 00:00:00 | 01:09:32 | 00:00:00 | |
| OE5MMP-10 | 2026-09-03 23:41:20 | 47.74808 | 12.21574 | 137° | 71km/h | 15512m | 5.4m/s | -58.5°C | 6.2% | 118.8hPa | 2.6V | 00:00:00 | 01:09:31 | 00:00:00 | |
| BAUMI2-15 | 2026-09-03 23:41:16 | 47.74860 | 12.21507 | 143° | 73km/h | 15492m | 4.4m/s | -58.9°C | 6.4% | 119.2hPa | 2.6V | 00:00:00 | 01:09:27 | 00:00:00 | |
| DG1MFX-10 | 2026-09-03 23:41:14 | 47.74874 | 12.21492 | 146° | 71km/h | 15487m | 4.7m/s | -59.0°C | 2.9% | 119.3hPa | 2.6V | 00:00:00 | 00:00:00 | 00:00:00 | |
| DO3MHA-11 | 2026-09-03 23:41:13 | 47.74905 | 12.21461 | 148° | 80km/h | 15477m | 3.6m/s | -58.9°C | 6.4% | 119.5hPa | 2.6V | 00:00:00 | 01:09:24 | 00:00:00 | |
| OE5WHR-10 | 2026-09-03 23:41:11 | 47.74937 | 12.21429 | 144° | 80km/h | 15468m | 5.4m/s | -58.9°C | 6.4% | 119.7hPa | 2.6V | 00:00:00 | 01:09:22 | 00:00:00 | |
| OE5MMP-10 | 2026-09-03 23:41:10 | 47.74952 | 12.21412 | 141° | 82km/h | 15463m | 4.4m/s | -58.9°C | 6.4% | 119.8hPa | 2.6V | 00:00:00 | 01:09:21 | 00:00:00 | |
| OE8JPQ-2 | 2026-09-03 23:41:09 | 47.74967 | 12.21393 | 138° | 80km/h | 15458m | 5.4m/s | 0°C | 0% | 0hPa | 2.6V | 00:00:00 | 00:00:00 | 00:00:00 | |
| PG1ADW-2 | 2026-09-03 23:41:08 | 47.74982 | 12.21372 | 136° | 80km/h | 15452m | 5.9m/s | -58.8°C | 6.4% | 120.0hPa | 2.6V | 00:00:00 | 01:09:19 | 00:00:00 | |
| BAUMI2-15 | 2026-09-03 23:41:06 | 47.75011 | 12.21328 | 133° | 84km/h | 15442m | 5.4m/s | -58.8°C | 6.4% | 120.2hPa | 2.6V | 00:00:00 | 01:09:17 | 00:00:00 | |
| DO3MHA-11 | 2026-09-03 23:41:03 | 47.75054 | 12.21259 | 134° | 80km/h | 15428m | 5.0m/s | -58.6°C | 6.4% | 120.4hPa | 2.6V | 00:00:00 | 01:09:14 | 00:00:00 | |
| OE5DRO-10 | 2026-09-03 23:41:02 | 47.75069 | 12.21236 | 136° | 80km/h | 15423m | 4.1m/s | -58.6°C | 6.3% | 120.6hPa | 2.6V | 00:00:00 | 00:00:00 | 08:30:00 | |
| BAUMI2-15 | 2026-09-03 23:41:01 | 47.75084 | 12.21214 | 136° | 80km/h | 15419m | 4.5m/s | -58.6°C | 6.4% | 120.6hPa | 2.6V | 00:00:00 | 01:09:12 | 00:00:00 | |
| OE5FHM-15 | 2026-09-03 23:41:00 | 47.75099 | 12.21193 | 137° | 78km/h | 15414m | 5.2m/s | -58.5°C | 6.3% | 120.7hPa | 2.6V | 00:00:00 | 01:09:11 | 00:00:00 | |
| BAUMI2-15 | 2026-09-03 23:40:56 | 47.75158 | 12.21113 | 137° | 78km/h | 15395m | 5.2m/s | -58.4°C | 6.3% | 121.1hPa | 2.6V | 00:00:00 | 01:09:07 | 00:00:00 | |
| DG1MFX-10 | 2026-09-03 23:40:54 | 47.75172 | 12.21092 | 136° | 77km/h | 15390m | 4.8m/s | -58.5°C | 2.9% | 121.2hPa | 2.7V | 00:00:00 | 00:00:00 | 00:00:00 | |
| DO3MHA-11 | 2026-09-03 23:40:53 | 47.75199 | 12.21050 | 133° | 80km/h | 15381m | 5.5m/s | -58.4°C | 6.2% | 121.3hPa | 2.7V | 00:00:00 | 01:09:04 | 00:00:00 | |
| BAUMI2-15 | 2026-09-03 23:40:51 | 47.75227 | 12.21005 | 132° | 80km/h | 15372m | 3.6m/s | -58.5°C | 6.3% | 121.5hPa | 2.7V | 00:00:00 | 01:09:02 | 00:00:00 | |
| OE5WHR-10 | 2026-09-03 23:40:50 | 47.75240 | 12.20982 | 132° | 77km/h | 15368m | 5.0m/s | -58.6°C | 6.3% | 121.6hPa | 2.7V | 00:00:00 | 00:00:00 | 00:00:00 | |
| PG1ADW-2 | 2026-09-03 23:40:48 | 47.75268 | 12.20937 | 134° | 77km/h | 15359m | 4.5m/s | -58.7°C | 6.4% | 121.8hPa | 2.6V | 00:00:00 | 00:00:00 | 00:00:00 | |
| BAUMI2-15 | 2026-09-03 23:40:46 | 47.75296 | 12.20895 | 138° | 77km/h | 15349m | 3.8m/s | -58.8°C | 6.5% | 121.9hPa | 2.6V | 00:00:00 | 01:08:57 | 00:00:00 | |
| DO3MHA-11 | 2026-09-03 23:40:43 | 47.75339 | 12.20836 | 134° | 80km/h | 15337m | 3.9m/s | -58.8°C | 6.5% | 122.2hPa | 2.6V | 00:00:00 | 01:08:54 | 00:00:00 | |
| BAUMI2-15 | 2026-09-03 23:40:41 | 47.75364 | 12.20794 | 131° | 75km/h | 15328m | 4.8m/s | -58.9°C | 6.6% | 122.4hPa | 2.6V | 00:00:00 | 01:08:52 | 08:30:00 | |
| OE5MMP-10 | 2026-09-03 23:40:40 | 47.75377 | 12.20772 | 131° | 75km/h | 15324m | 3.4m/s | -58.9°C | 6.5% | 122.5hPa | 2.6V | 00:00:00 | 01:08:51 | 00:00:00 | |
| BAUMI2-15 | 2026-09-03 23:40:36 | 47.75425 | 12.20686 | 131° | 75km/h | 15307m | 4.6m/s | -59.0°C | 6.6% | 122.8hPa | 2.6V | 00:00:00 | 01:08:47 | 00:00:00 | |
| DG1MFX-10 | 2026-09-03 23:40:33 | 47.75451 | 12.20644 | 134° | 77km/h | 15298m | 3.7m/s | -59.1°C | 3.1% | 123.0hPa | 2.6V | 00:00:00 | 00:00:00 | 00:00:00 | |
| BAUMI2-15 | 2026-09-03 23:40:31 | 47.75492 | 12.20584 | 138° | 80km/h | 15285m | 3.9m/s | -59.1°C | 6.6% | 123.2hPa | 2.6V | 00:00:00 | 01:08:42 | 00:00:00 | |
| OE5FHM-15 | 2026-09-03 23:40:30 | 47.75506 | 12.20564 | 138° | 88km/h | 15281m | 5.0m/s | -59.1°C | 6.7% | 123.2hPa | 2.6V | 00:00:00 | 01:08:41 | 00:00:00 | |
| OE5WHR-10 | 2026-09-03 23:40:29 | 47.75521 | 12.20542 | 137° | 86km/h | 15276m | 3.5m/s | -59.2°C | 6.8% | 123.4hPa | 2.6V | 00:00:00 | 00:00:00 | 00:00:00 | |
| PG1ADW-2 | 2026-09-03 23:40:28 | 47.75536 | 12.20521 | 136° | 86km/h | 15273m | 4.1m/s | -59.3°C | 6.7% | 123.4hPa | 2.6V | 00:00:00 | 00:00:00 | 00:00:00 | |
| BAUMI2-15 | 2026-09-03 23:40:26 | 47.75565 | 12.20478 | 134° | 84km/h | 15263m | 3.8m/s | -59.4°C | 6.9% | 123.6hPa | 2.6V | 00:00:00 | 01:08:37 | 00:00:00 | |
| OE5DRO-10 | 2026-09-03 23:40:24 | 47.75593 | 12.20433 | 133° | 88km/h | 15255m | 4.7m/s | -59.4°C | 6.9% | 123.8hPa | 2.7V | 00:00:00 | 00:00:00 | 00:00:00 | |
| BAUMI2-15 | 2026-09-03 23:40:21 | 47.75636 | 12.20361 | 132° | 88km/h | 15242m | 5.0m/s | -59.4°C | 7.0% | 124.1hPa | 2.7V | 00:00:00 | 01:08:32 | 00:00:00 | |
| OE5MMP-10 | 2026-09-03 23:40:20 | 47.75651 | 12.20337 | 132° | 89km/h | 15237m | 4.1m/s | -59.4°C | 6.9% | 124.1hPa | 2.7V | 00:00:00 | 01:08:31 | 00:00:00 | |
| DB0UT-7 | 2026-09-03 23:40:19 | 47.75665 | 12.20313 | 132° | 84km/h | 15233m | 4.8m/s | -59.4°C | 6.9% | 124.2hPa | 2.7V | 00:00:00 | 00:00:00 | 08:30:00 | |
| DG1MFX-10 | 2026-09-03 23:40:12 | 47.75756 | 12.20164 | 134° | 91km/h | 15205m | 4.3m/s | -59.4°C | 3.2% | 124.9hPa | 2.6V | 00:00:00 | 00:00:00 | 00:00:00 | |
| BAUMI2-15 | 2026-09-03 23:40:11 | 47.75786 | 12.20113 | 131° | 91km/h | 15196m | 4.9m/s | -59.3°C | 6.8% | 125.0hPa | 2.6V | 00:00:00 | 01:08:22 | 00:00:00 | |
| OE5MMP-10 | 2026-09-03 23:40:10 | 47.75801 | 12.20087 | 129° | 89km/h | 15191m | 4.4m/s | -59.3°C | 6.8% | 125.1hPa | 2.7V | 00:00:00 | 01:08:21 | 00:00:00 | |
| OE5WHR-10 | 2026-09-03 23:40:08 | 47.75829 | 12.20033 | 126° | 86km/h | 15181m | 4.4m/s | -59.2°C | 6.9% | 125.3hPa | 2.7V | 00:00:00 | 01:08:19 | 00:00:00 | |
| BAUMI2-15 | 2026-09-03 23:40:06 | 47.75854 | 12.19977 | 124° | 88km/h | 15171m | 4.3m/s | -59.2°C | 6.9% | 125.4hPa | 2.7V | 00:00:00 | 01:08:17 | 00:00:00 | |
| OE5DRO-10 | 2026-09-03 23:40:05 | 47.75867 | 12.19950 | 124° | 86km/h | 15167m | 4.4m/s | -59.2°C | 6.9% | 125.6hPa | 2.7V | 00:00:00 | 00:00:00 | 00:00:00 | |
| BAUMI2-15 | 2026-09-03 23:40:01 | 47.75918 | 12.19843 | 127° | 88km/h | 15149m | 4.4m/s | -59.3°C | 7.0% | 125.9hPa | 2.7V | 00:00:00 | 01:08:12 | 00:00:00 | |
| OE5FHM-15 | 2026-09-03 23:40:00 | 47.75931 | 12.19817 | 127° | 80km/h | 15145m | 4.1m/s | -59.3°C | 7.0% | 126.0hPa | 2.7V | 00:00:00 | 01:08:11 | 00:00:00 | |
| BAUMI2-15 | 2026-09-03 23:39:56 | 47.75984 | 12.19710 | 126° | 86km/h | 15128m | 4.5m/s | -59.3°C | 7.0% | 126.4hPa | 2.6V | 00:00:00 | 01:08:07 | 08:30:00 | |
| BAUMI2-15 | 2026-09-03 23:39:51 | 47.76047 | 12.19579 | 125° | 80km/h | 15106m | 4.9m/s | -59.3°C | 7.1% | 126.8hPa | 2.6V | 00:00:00 | 01:08:02 | 00:00:00 | |
| PG1ADW-2 | 2026-09-03 23:39:48 | 47.76082 | 12.19506 | 127° | 78km/h | 15092m | 4.1m/s | -59.4°C | 7.1% | 127.1hPa | 2.6V | 00:00:00 | 01:07:59 | 00:00:00 | |
| OE5WHR-10 | 2026-09-03 23:39:47 | 47.76095 | 12.19482 | 127° | 77km/h | 15087m | 4.1m/s | -59.4°C | 7.1% | 127.1hPa | 2.6V | 00:00:00 | 00:00:00 | 08:30:00 | |
| OE5DRO-10 | 2026-09-03 23:39:46 | 47.76106 | 12.19457 | 126° | 77km/h | 15083m | 4.8m/s | -59.4°C | 7.1% | 127.2hPa | 2.6V | 00:00:00 | 00:00:00 | 00:00:00 | |
| OE5MMP-10 | 2026-09-03 23:39:40 | 47.76177 | 12.19307 | 126° | 75km/h | 15057m | 4.8m/s | -59.9°C | 7.4% | 127.8hPa | 2.6V | 00:00:00 | 01:07:51 | 00:00:00 | |
| DG1MFX-10 | 2026-09-03 23:39:31 | 47.76281 | 12.19112 | 133° | 77km/h | 15017m | 3.7m/s | -60.0°C | 3.7% | 128.7hPa | 2.6V | 00:00:00 | 00:00:00 | 00:00:00 | |
| OE5DXL-15 | 2026-09-03 23:39:30 | 47.76294 | 12.19090 | 132° | 80km/h | 15013m | 5.1m/s | -60.0°C | 7.5% | 128.7hPa | 2.6V | 00:00:00 | 00:00:00 | 00:00:00 | |
| PG1ADW-2 | 2026-09-03 23:39:28 | 47.76321 | 12.19046 | 133° | 80km/h | 15003m | 3.5m/s | -60.0°C | 7.6% | 128.9hPa | 2.6V | 00:00:00 | 00:00:00 | 08:30:00 | |
| OE5DRO-10 | 2026-09-03 23:39:27 | 47.76334 | 12.19024 | 132° | 80km/h | 14999m | 4.7m/s | -60.0°C | 7.5% | 129.0hPa | 2.7V | 00:00:00 | 00:00:00 | 00:00:00 | |
| OE5WHR-10 | 2026-09-03 23:39:26 | 47.76348 | 12.19001 | 132° | 80km/h | 14994m | 4.2m/s | -60.0°C | 7.6% | 129.1hPa | 2.7V | 00:00:00 | 00:00:00 | 00:00:00 | |
| OE5MMP-10 | 2026-09-03 23:39:20 | 47.76426 | 12.18875 | 133° | 82km/h | 14969m | 3.7m/s | -59.9°C | 7.6% | 129.6hPa | 2.7V | 00:00:00 | 01:07:31 | 08:30:00 | |
| OE5MMP-10 | 2026-09-03 23:39:10 | 47.76577 | 12.18660 | 135° | 78km/h | 14927m | 4.6m/s | -60.0°C | 7.5% | 130.5hPa | 2.7V | 00:00:00 | 01:07:21 | 00:00:00 | |
| PG1ADW-2 | 2026-09-03 23:39:08 | 47.76606 | 12.18616 | 135° | 80km/h | 14918m | 5.1m/s | -60.1°C | 7.6% | 130.7hPa | 2.7V | 00:00:00 | 00:00:00 | 00:00:00 | |
| OE5WHR-10 | 2026-09-03 23:39:05 | 47.76648 | 12.18553 | 135° | 80km/h | 14905m | 4.3m/s | -60.4°C | 7.8% | 131.0hPa | 2.7V | 00:00:00 | 01:07:16 | 00:00:00 | |
| DB0UT-7 | 2026-09-03 23:39:04 | 47.76662 | 12.18532 | 136° | 84km/h | 14900m | 4.3m/s | -60.4°C | 7.8% | 131.0hPa | 2.7V | 00:00:00 | 01:07:15 | 00:00:00 | |
| OE5MMP-10 | 2026-09-03 23:39:00 | 47.76719 | 12.18452 | 137° | 82km/h | 14883m | 3.9m/s | -60.5°C | 8.1% | 131.4hPa | 2.7V | 00:00:00 | 01:07:11 | 00:00:00 | |
| OE5MMP-10 | 2026-09-03 23:38:50 | 47.76870 | 12.18240 | 137° | 84km/h | 14840m | 3.8m/s | -60.7°C | 8.3% | 132.3hPa | 2.7V | 00:00:00 | 01:07:01 | 00:00:00 | |
| OE5DRO-10 | 2026-09-03 23:38:49 | 47.76885 | 12.18220 | 139° | 88km/h | 14835m | 4.9m/s | -60.8°C | 8.5% | 132.4hPa | 2.7V | 00:00:00 | 00:00:00 | 00:00:00 | |
| PG1ADW-2 | 2026-09-03 23:38:48 | 47.76900 | 12.18200 | 139° | 88km/h | 14831m | 3.8m/s | -60.8°C | 8.5% | 132.5hPa | 2.7V | 00:00:00 | 00:00:00 | 00:00:00 | |
| OE5WHR-10 | 2026-09-03 23:38:44 | 47.76961 | 12.18117 | 139° | 89km/h | 14812m | 4.6m/s | -61.2°C | 8.9% | 132.9hPa | 2.7V | 00:00:00 | 00:00:00 | 00:00:00 | |
| OE5MMP-10 | 2026-09-03 23:38:40 | 47.77027 | 12.18031 | 141° | 91km/h | 14795m | 5.0m/s | -61.3°C | 9.1% | 133.2hPa | 2.7V | 00:00:00 | 01:06:51 | 00:00:00 | |
| DB0UT-7 | 2026-09-03 23:38:34 | 47.77135 | 12.17897 | 140° | 86km/h | 14770m | 3.7m/s | -61.3°C | 9.3% | 133.8hPa | 2.7V | 00:00:00 | 00:00:00 | 00:00:00 | |
| OE5FHM-15 | 2026-09-03 23:38:30 | 47.77203 | 12.17806 | 137° | 86km/h | 14754m | 3.5m/s | -61.2°C | 9.4% | 134.1hPa | 2.7V | 00:00:00 | 01:06:41 | 08:30:00 | |
| PG1ADW-2 | 2026-09-03 23:38:28 | 47.77236 | 12.17760 | 137° | 88km/h | 14746m | 3.7m/s | -61.2°C | 9.6% | 134.3hPa | 2.6V | 00:00:00 | 01:06:39 | 00:00:00 | |
| OE5WHR-10 | 2026-09-03 23:38:23 | 47.77313 | 12.17642 | 134° | 86km/h | 14726m | 4.1m/s | -61.1°C | 9.6% | 134.8hPa | 2.7V | 00:00:00 | 00:00:00 | 00:00:00 | |
| OE5MMP-10 | 2026-09-03 23:38:20 | 47.77360 | 12.17572 | 137° | 88km/h | 14713m | 3.2m/s | -61.0°C | 9.6% | 135.0hPa | 2.7V | 00:00:00 | 01:06:31 | 00:00:00 | |
| OE5DRO-10 | 2026-09-03 23:38:11 | 47.77497 | 12.17362 | 129° | 82km/h | 14677m | 4.6m/s | -60.8°C | 9.5% | 135.8hPa | 2.6V | 00:00:00 | 00:00:00 | 08:30:00 | |
| OE5MMP-10 | 2026-09-03 23:38:10 | 47.77511 | 12.17337 | 130° | 84km/h | 14672m | 4.1m/s | -60.8°C | 9.6% | 135.9hPa | 2.7V | 00:00:00 | 01:06:21 | 00:00:00 | |
| PG1ADW-2 | 2026-09-03 23:38:08 | 47.77539 | 12.17289 | 133° | 82km/h | 14664m | 4.6m/s | -60.8°C | 9.6% | 136.1hPa | 2.7V | 00:00:00 | 00:00:00 | 00:00:00 | |
| OE5WHR-10 | 2026-09-03 23:38:02 | 47.77630 | 12.17157 | 138° | 80km/h | 14640m | 4.4m/s | -60.7°C | 9.7% | 136.6hPa | 2.7V | 00:00:00 | 01:06:13 | 00:00:00 | |
| OE5MMP-10 | 2026-09-03 23:38:00 | 47.77660 | 12.17116 | 136° | 82km/h | 14631m | 4.4m/s | -60.7°C | 9.7% | 136.8hPa | 2.7V | 00:00:00 | 01:06:11 | 00:00:00 | |
| OE5DRO-10 | 2026-09-03 23:37:52 | 47.77771 | 12.16937 | 134° | 80km/h | 14600m | 2.8m/s | -60.6°C | 9.9% | 137.5hPa | 2.7V | 00:00:00 | 00:00:00 | 00:00:00 | |
| OE5MMP-10 | 2026-09-03 23:37:50 | 47.77800 | 12.16892 | 133° | 80km/h | 14592m | 4.0m/s | -60.6°C | 10.0% | 137.7hPa | 2.7V | 00:00:00 | 01:06:01 | 08:30:00 | |
| PG1ADW-2 | 2026-09-03 23:37:48 | 47.77828 | 12.16846 | 132° | 82km/h | 14584m | 4.0m/s | -60.6°C | 10.0% | 137.9hPa | 2.6V | 00:00:00 | 00:00:00 | 00:00:00 | |
| DG1MFX-10 | 2026-09-03 23:37:47 | 47.77828 | 12.16846 | 133° | 84km/h | 14584m | 4.0m/s | -60.6°C | 5.7% | 137.9hPa | 2.6V | 00:00:00 | 00:00:00 | 00:00:00 | |
| BAUMI2-15 | 2026-09-03 23:37:44 | 47.77883 | 12.16757 | 135° | 78km/h | 14569m | 3.1m/s | -60.6°C | 9.9% | 138.2hPa | 2.6V | 00:00:00 | 01:05:55 | 00:00:00 | |
| OE5WHR-10 | 2026-09-03 23:37:41 | 47.77925 | 12.16693 | 134° | 82km/h | 14557m | 4.0m/s | -60.8°C | 10.2% | 138.5hPa | 2.6V | 00:00:00 | 00:00:00 | 00:00:00 | |
| OE5MMP-10 | 2026-09-03 23:37:40 | 47.77939 | 12.16672 | 134° | 82km/h | 14552m | 4.6m/s | -60.8°C | 10.2% | 138.6hPa | 2.7V | 00:00:00 | 01:05:51 | 00:00:00 | |
| BAUMI2-15 | 2026-09-03 23:37:39 | 47.77952 | 12.16650 | 133° | 80km/h | 14548m | 4.0m/s | -60.8°C | 10.3% | 138.7hPa | 2.7V | 00:00:00 | 01:05:50 | 00:00:00 | |
| OE5DRO-10 | 2026-09-03 23:37:33 | 47.78035 | 12.16515 | 133° | 82km/h | 14523m | 4.3m/s | -60.7°C | 10.3% | 139.3hPa | 2.7V | 00:00:00 | 00:00:00 | 00:00:00 | |
| OE5MMP-10 | 2026-09-03 23:37:30 | 47.78080 | 12.16446 | 135° | 82km/h | 14511m | 4.8m/s | -60.7°C | 10.4% | 139.5hPa | 2.7V | 00:00:00 | 01:05:41 | 00:00:00 | |
| BAUMI2-15 | 2026-09-03 23:37:29 | 47.78095 | 12.16424 | 136° | 82km/h | 14506m | 3.6m/s | -60.7°C | 10.5% | 139.6hPa | 2.7V | 00:00:00 | 01:05:40 | 00:00:00 | |
| PG1ADW-2 | 2026-09-03 23:37:27 | 47.78124 | 12.16381 | 137° | 82km/h | 14499m | 4.8m/s | -60.7°C | 10.4% | 139.8hPa | 2.7V | 00:00:00 | 00:00:00 | 00:00:00 | |
| BAUMI2-15 | 2026-09-03 23:37:24 | 47.78170 | 12.16316 | 137° | 80km/h | 14486m | 5.3m/s | -60.7°C | 10.5% | 140.1hPa | 2.6V | 00:00:00 | 01:05:35 | 00:00:00 | |
| DB0UT-7 | 2026-09-03 23:37:22 | 47.78199 | 12.16275 | 137° | 84km/h | 14477m | 4.9m/s | -60.7°C | 10.4% | 140.3hPa | 2.7V | 00:00:00 | 01:05:33 | 00:00:00 | |
| OE5MMP-10 | 2026-09-03 23:37:20 | 47.78229 | 12.16232 | 136° | 80km/h | 14469m | 3.4m/s | -60.8°C | 10.6% | 140.5hPa | 2.6V | 00:00:00 | 01:05:31 | 00:00:00 | |
| BAUMI2-15 | 2026-09-03 23:37:19 | 47.78243 | 12.16211 | 137° | 78km/h | 14465m | 4.9m/s | -60.9°C | 10.7% | 140.5hPa | 2.6V | 00:00:00 | 01:05:30 | 00:00:00 | |
| BAUMI2-15 | 2026-09-03 23:37:14 | 47.78318 | 12.16112 | 141° | 82km/h | 14444m | 4.1m/s | -61.0°C | 11.3% | 141.1hPa | 2.6V | 00:00:00 | 01:05:25 | 00:00:00 | |
| OE5MMP-10 | 2026-09-03 23:37:10 | 47.78384 | 12.16034 | 142° | 88km/h | 14427m | 4.7m/s | -61.1°C | 11.5% | 141.4hPa | 2.6V | 00:00:00 | 01:05:21 | 00:00:00 | |
| BAUMI2-15 | 2026-09-03 23:37:09 | 47.78401 | 12.16014 | 143° | 88km/h | 14423m | 3.8m/s | -61.2°C | 11.6% | 141.5hPa | 2.6V | 00:00:00 | 01:05:20 | 08:30:00 | |
| DO3MHA-11 | 2026-09-03 23:37:07 | 47.78435 | 12.15973 | 142° | 86km/h | 14415m | 4.6m/s | -61.2°C | 11.7% | 141.7hPa | 2.6V | 00:00:00 | 01:05:18 | 08:30:00 | |
| PG1ADW-2 | 2026-09-03 23:37:06 | 47.78453 | 12.15953 | 142° | 88km/h | 14411m | 3.6m/s | -61.2°C | 11.8% | 141.8hPa | 2.7V | 00:00:00 | 01:05:17 | 00:00:00 | |
| BAUMI2-15 | 2026-09-03 23:37:04 | 47.78488 | 12.15911 | 141° | 86km/h | 14404m | 4.1m/s | -61.3°C | 11.9% | 142.0hPa | 2.7V | 00:00:00 | 01:05:15 | 00:00:00 | |
| OE5FHM-15 | 2026-09-03 23:37:00 | 47.78553 | 12.15826 | 138° | 88km/h | 14387m | 3.8m/s | -61.4°C | 12.3% | 142.4hPa | 2.7V | 00:00:00 | 01:05:11 | 00:00:00 | |
| DO3MHA-11 | 2026-09-03 23:36:57 | 47.78601 | 12.15761 | 137° | 88km/h | 14374m | 4.6m/s | -61.4°C | 12.5% | 142.6hPa | 2.7V | 00:00:00 | 01:05:08 | 00:00:00 | |
| OE5DRO-10 | 2026-09-03 23:36:55 | 47.78632 | 12.15715 | 136° | 88km/h | 14366m | 3.6m/s | -61.4°C | 12.6% | 142.8hPa | 2.7V | 00:00:00 | 00:00:00 | 00:00:00 | |
| BAUMI2-15 | 2026-09-03 23:36:54 | 47.78648 | 12.15692 | 136° | 88km/h | 14362m | 4.8m/s | -61.4°C | 12.7% | 142.9hPa | 2.7V | 00:00:00 | 01:05:05 | 00:00:00 | |
| DB0UT-7 | 2026-09-03 23:36:52 | 47.78680 | 12.15646 | 136° | 88km/h | 14354m | 4.8m/s | -61.5°C | 12.9% | 143.1hPa | 2.6V | 00:00:00 | 00:00:00 | 00:00:00 | |
| OE5MMP-10 | 2026-09-03 23:36:50 | 47.78711 | 12.15599 | 135° | 89km/h | 14346m | 3.1m/s | -61.6°C | 13.2% | 143.3hPa | 2.6V | 00:00:00 | 01:05:01 | 00:00:00 | |
| BAUMI2-15 | 2026-09-03 23:36:49 | 47.78727 | 12.15576 | 136° | 88km/h | 14343m | 4.5m/s | -61.6°C | 13.3% | 143.4hPa | 2.6V | 00:00:00 | 01:05:00 | 00:00:00 | |
| DO3MHA-11 | 2026-09-03 23:36:47 | 47.78758 | 12.15529 | 134° | 89km/h | 14334m | 4.3m/s | -61.7°C | 13.7% | 143.5hPa | 2.6V | 00:00:00 | 01:04:58 | 00:00:00 | |
| PG1ADW-2 | 2026-09-03 23:36:46 | 47.78773 | 12.15505 | 134° | 88km/h | 14330m | 3.7m/s | -61.8°C | 13.8% | 143.7hPa | 2.6V | 00:00:00 | 00:00:00 | 00:00:00 | |
| BAUMI2-15 | 2026-09-03 23:36:44 | 47.78805 | 12.15456 | 136° | 89km/h | 14323m | 4.4m/s | -61.8°C | 14.0% | 143.8hPa | 2.6V | 00:00:00 | 01:04:55 | 00:00:00 | |
| OE5MMP-10 | 2026-09-03 23:36:40 | 47.78871 | 12.15365 | 136° | 88km/h | 14307m | 4.3m/s | -61.8°C | 14.7% | 144.2hPa | 2.6V | 00:00:00 | 01:04:51 | 00:00:00 | |
| BAUMI2-15 | 2026-09-03 23:36:39 | 47.78887 | 12.15342 | 135° | 88km/h | 14302m | 3.6m/s | -61.9°C | 14.9% | 144.3hPa | 2.6V | 00:00:00 | 01:04:50 | 00:00:00 | |
| OE5WHR-10 | 2026-09-03 23:36:38 | 47.78903 | 12.15319 | 135° | 88km/h | 14298m | 4.6m/s | -61.9°C | 15.0% | 144.4hPa | 2.6V | 00:00:00 | 00:00:00 | 08:30:00 | |
| DO3MHA-11 | 2026-09-03 23:36:37 | 47.78918 | 12.15295 | 135° | 88km/h | 14294m | 4.1m/s | -62.0°C | 15.1% | 144.5hPa | 2.7V | 00:00:00 | 01:04:48 | 00:00:00 | |
| OE5DRO-10 | 2026-09-03 23:36:36 | 47.78933 | 12.15272 | 134° | 88km/h | 14290m | 3.7m/s | -62.0°C | 15.1% | 144.6hPa | 2.7V | 00:00:00 | 00:00:00 | 00:00:00 | |
| BAUMI2-15 | 2026-09-03 23:36:34 | 47.78963 | 12.15224 | 133° | 88km/h | 14282m | 2.9m/s | -62.1°C | 15.4% | 144.8hPa | 2.7V | 00:00:00 | 01:04:45 | 00:00:00 | |
| OE5FHM-15 | 2026-09-03 23:36:30 | 47.79025 | 12.15128 | 135° | 89km/h | 14265m | 4.5m/s | -62.4°C | 16.3% | 145.1hPa | 2.7V | 00:00:00 | 01:04:41 | 00:00:00 | |
| BAUMI2-15 | 2026-09-03 23:36:29 | 47.79041 | 12.15104 | 135° | 88km/h | 14261m | 3.7m/s | -62.4°C | 16.4% | 145.3hPa | 2.7V | 00:00:00 | 01:04:40 | 00:00:00 | |
| DO3MHA-11 | 2026-09-03 23:36:27 | 47.79073 | 12.15056 | 135° | 86km/h | 14254m | 4.8m/s | -62.6°C | 16.8% | 145.4hPa | 2.7V | 00:00:00 | 01:04:38 | 00:00:00 | |
| DG1MFX-10 | 2026-09-03 23:36:26 | 47.79088 | 12.15033 | 136° | 86km/h | 14249m | 3.9m/s | -62.7°C | 11.5% | 145.6hPa | 2.7V | 00:00:00 | 00:00:00 | 00:00:00 | |
| BAUMI2-15 | 2026-09-03 23:36:24 | 47.79119 | 12.14988 | 137° | 84km/h | 14241m | 4.0m/s | -62.7°C | 17.3% | 145.8hPa | 2.7V | 00:00:00 | 01:04:35 | 08:30:00 | |
| OE5MMP-10 | 2026-09-03 23:36:20 | 47.79184 | 12.14906 | 141° | 89km/h | 14224m | 4.4m/s | -62.7°C | 18.1% | 146.1hPa | 2.6V | 00:00:00 | 01:04:31 | 08:30:00 | |
| BAUMI2-15 | 2026-09-03 23:36:19 | 47.79201 | 12.14884 | 140° | 89km/h | 14220m | 4.2m/s | -62.7°C | 18.2% | 146.3hPa | 2.6V | 00:00:00 | 01:04:30 | 00:00:00 | |
| OE5WHR-10 | 2026-09-03 23:36:17 | 47.79235 | 12.14841 | 141° | 93km/h | 14211m | 4.8m/s | -62.7°C | 18.4% | 146.4hPa | 2.6V | 00:00:00 | 00:00:00 | 00:00:00 | |
| BAUMI2-15 | 2026-09-03 23:36:14 | 47.79288 | 12.14777 | 141° | 91km/h | 14198m | 4.7m/s | -62.6°C | 18.7% | 146.8hPa | 2.6V | 00:00:00 | 01:04:25 | 00:00:00 | |
| OE5MMP-10 | 2026-09-03 23:36:10 | 47.79361 | 12.14693 | 144° | 95km/h | 14182m | 3.5m/s | -62.6°C | 19.3% | 147.2hPa | 2.6V | 00:00:00 | 01:04:21 | 00:00:00 | |
| BAUMI2-15 | 2026-09-03 23:36:09 | 47.79380 | 12.14673 | 143° | 95km/h | 14178m | 4.6m/s | -62.6°C | 19.4% | 147.2hPa | 2.6V | 00:00:00 | 01:04:20 | 00:00:00 | |
| DO3MHA-11 | 2026-09-03 23:36:07 | 47.79418 | 12.14628 | 142° | 93km/h | 14170m | 3.5m/s | -62.7°C | 20.0% | 147.4hPa | 2.6V | 00:00:00 | 01:04:18 | 00:00:00 | |
| PG1ADW-2 | 2026-09-03 23:36:06 | 47.79437 | 12.14605 | 142° | 93km/h | 14167m | 3.9m/s | -62.8°C | 20.2% | 147.5hPa | 2.7V | 00:00:00 | 00:00:00 | 00:00:00 | |
| DG1MFX-10 | 2026-09-03 23:36:05 | 47.79437 | 12.14605 | 142° | 97km/h | 14167m | 3.9m/s | -62.8°C | 14.3% | 147.6hPa | 2.7V | 00:00:00 | 00:00:00 | 00:00:00 | |
| BAUMI2-15 | 2026-09-03 23:36:04 | 47.79475 | 12.14561 | 143° | 91km/h | 14159m | 3.8m/s | -62.9°C | 21.0% | 147.7hPa | 2.7V | 00:00:00 | 01:04:15 | 00:00:00 | |
| OE5MMP-10 | 2026-09-03 23:36:00 | 47.79547 | 12.14471 | 139° | 91km/h | 14142m | 5.0m/s | -63.0°C | 22.5% | 148.1hPa | 2.7V | 00:00:00 | 01:04:11 | 00:00:00 | |
| OE5DRO-10 | 2026-09-03 23:35:58 | 47.79581 | 12.14425 | 138° | 91km/h | 14134m | 3.4m/s | -63.1°C | 23.1% | 148.3hPa | 2.7V | 00:00:00 | 00:00:00 | 00:00:00 | |
| DO3MHA-11 | 2026-09-03 23:35:57 | 47.79598 | 12.14402 | 137° | 89km/h | 14130m | 4.7m/s | -63.1°C | 23.2% | 148.4hPa | 2.7V | 00:00:00 | 01:04:08 | 00:00:00 | |
| OE5WHR-10 | 2026-09-03 23:35:56 | 47.79615 | 12.14378 | 137° | 91km/h | 14126m | 3.5m/s | -63.2°C | 23.5% | 148.5hPa | 2.7V | 00:00:00 | 01:04:07 | 00:00:00 | |
| DB0UT-7 | 2026-09-03 23:35:52 | 47.79684 | 12.14286 | 139° | 88km/h | 14110m | 4.6m/s | -63.4°C | 24.1% | 148.9hPa | 2.7V | 00:00:00 | 01:04:03 | 00:00:00 | |
| OE5MMP-10 | 2026-09-03 23:35:50 | 47.79720 | 12.14238 | 138° | 91km/h | 14102m | 3.6m/s | -63.4°C | 24.7% | 149.0hPa | 2.7V | 00:00:00 | 01:04:01 | 00:00:00 | |
| PG1ADW-2 | 2026-09-03 23:35:46 | 47.79788 | 12.14143 | 136° | 88km/h | 14087m | 4.7m/s | -63.4°C | 25.4% | 149.5hPa | 2.7V | 00:00:00 | 01:03:57 | 00:00:00 | |
| DG1MFX-10 | 2026-09-03 23:35:45 | 47.79788 | 12.14143 | 136° | 93km/h | 14087m | 4.8m/s | -63.4°C | 18.6% | 149.5hPa | 2.7V | 00:00:00 | 00:00:00 | 00:00:00 | |
| OE5MMP-10 | 2026-09-03 23:35:40 | 47.79884 | 12.13997 | 136° | 88km/h | 14063m | 4.2m/s | -63.3°C | 26.9% | 150.0hPa | 2.7V | 00:00:00 | 01:03:51 | 00:00:00 | |
| OE5DRO-10 | 2026-09-03 23:35:39 | 47.79900 | 12.13973 | 136° | 84km/h | 14058m | 4.4m/s | -63.3°C | 27.1% | 150.1hPa | 2.7V | 00:00:00 | 00:00:00 | 00:00:00 | |
| OE5WHR-10 | 2026-09-03 23:35:35 | 47.79964 | 12.13879 | 136° | 82km/h | 14042m | 3.8m/s | -63.3°C | 28.8% | 150.5hPa | 2.7V | 00:00:00 | 00:00:00 | 00:00:00 | |
| OE5FHM-15 | 2026-09-03 23:35:30 | 47.80041 | 12.13769 | 139° | 82km/h | 14021m | 4.3m/s | -63.6°C | 31.0% | 151.1hPa | 2.7V | 00:00:00 | 01:03:41 | 00:00:00 | |
| PG1ADW-2 | 2026-09-03 23:35:26 | 47.80102 | 12.13686 | 137° | 84km/h | 14004m | 5.0m/s | -63.7°C | 32.0% | 151.5hPa | 2.6V | 00:00:00 | 00:00:00 | 00:00:00 | |
| DG1MFX-10 | 2026-09-03 23:35:24 | 47.80117 | 12.13665 | 138° | 84km/h | 13999m | 4.2m/s | -63.7°C | 24.5% | 151.7hPa | 2.7V | 00:00:00 | 00:00:00 | 00:00:00 | |
| DB0UT-7 | 2026-09-03 23:35:22 | 47.80164 | 12.13599 | 137° | 102km/h | 13987m | 3.4m/s | -63.7°C | 33.0% | 151.9hPa | 2.7V | 00:00:00 | 00:00:00 | 00:00:00 | |
| OE5MMP-10 | 2026-09-03 23:35:20 | 47.80195 | 12.13559 | 143° | 80km/h | 13978m | 5.5m/s | -63.8°C | 33.8% | 152.1hPa | 2.6V | 00:00:00 | 01:03:31 | 00:00:00 | |
| OE5WHR-10 | 2026-09-03 23:35:14 | 47.80294 | 12.13456 | 146° | 88km/h | 13945m | 5.0m/s | -63.8°C | 34.3% | 152.9hPa | 2.6V | 00:00:00 | 00:00:00 | 00:00:00 | |
| OE5MMP-10 | 2026-09-03 23:35:10 | 47.80363 | 12.13393 | 149° | 88km/h | 13924m | 5.5m/s | -63.9°C | 36.2% | 153.4hPa | 2.6V | 00:00:00 | 01:03:21 | 00:00:00 | |
| DO3MHA-11 | 2026-09-03 23:35:04 | 47.80477 | 12.13292 | 151° | 97km/h | 13895m | 5.3m/s | -64.0°C | 38.7% | 154.2hPa | 2.6V | 00:00:00 | 01:03:15 | 00:00:00 | |
| OE5DRO-10 | 2026-09-03 23:35:01 | 47.80535 | 12.13243 | 152° | 97km/h | 13882m | 5.3m/s | -64.2°C | 39.5% | 154.5hPa | 2.6V | 00:00:00 | 00:00:00 | 00:00:00 | |
| OE5FHM-15 | 2026-09-03 23:35:00 | 47.80554 | 12.13227 | 153° | 102km/h | 13877m | 4.7m/s | -64.3°C | 39.9% | 154.6hPa | 2.6V | 00:00:00 | 01:03:11 | 00:00:00 | |
| OE5WHR-10 | 2026-09-03 23:34:53 | 47.80697 | 12.13110 | 153° | 104km/h | 13846m | 3.9m/s | -64.8°C | 42.5% | 155.4hPa | 2.6V | 00:00:00 | 01:03:04 | 00:00:00 | |
| OE5MMP-10 | 2026-09-03 23:34:50 | 47.80762 | 12.13060 | 154° | 102km/h | 13832m | 5.3m/s | -64.8°C | 43.3% | 155.8hPa | 2.6V | 00:00:00 | 01:03:01 | 08:30:00 | |
| DO3MHA-11 | 2026-09-03 23:34:46 | 47.80851 | 12.12991 | 152° | 106km/h | 13815m | 3.6m/s | -64.8°C | 45.3% | 156.2hPa | 2.6V | 00:00:00 | 01:02:57 | 08:30:00 | |
| DG1MFX-10 | 2026-09-03 23:34:44 | 47.80875 | 12.12973 | 152° | 106km/h | 13811m | 3.8m/s | -64.9°C | 36.0% | 156.3hPa | 2.6V | 00:00:00 | 00:00:00 | 00:00:00 | |
| PG1ADW-2 | 2026-09-03 23:34:43 | 47.80921 | 12.12936 | 153° | 106km/h | 13803m | 4.0m/s | -64.9°C | 45.8% | 156.5hPa | 2.6V | 00:00:00 | 00:00:00 | 00:00:00 | |
| OE5DRO-10 | 2026-09-03 23:34:42 | 47.80945 | 12.12918 | 153° | 110km/h | 13799m | 4.0m/s | -64.9°C | 46.0% | 156.6hPa | 2.6V | 00:00:00 | 00:00:00 | 00:00:00 | |
| OE5MMP-10 | 2026-09-03 23:34:40 | 47.80993 | 12.12882 | 154° | 110km/h | 13790m | 3.5m/s | -64.8°C | 46.6% | 156.8hPa | 2.6V | 00:00:00 | 01:02:51 | 00:00:00 | |
| OE5WHR-10 | 2026-09-03 23:34:32 | 47.81188 | 12.12733 | 153° | 110km/h | 13757m | 3.7m/s | -64.8°C | 47.6% | 157.7hPa | 2.6V | 00:00:00 | 00:00:00 | 00:00:00 | |
| OE5FHM-15 | 2026-09-03 23:34:30 | 47.81238 | 12.12693 | 151° | 110km/h | 13748m | 4.7m/s | -64.8°C | 47.8% | 158.0hPa | 2.6V | 00:00:00 | 01:02:41 | 00:00:00 | |
| DG1MFX-10 | 2026-09-03 23:34:24 | 47.81384 | 12.12575 | 152° | 110km/h | 13720m | 4.9m/s | -64.9°C | 40.7% | 158.7hPa | 2.6V | 00:00:00 | 00:00:00 | 00:00:00 | |
| PG1ADW-2 | 2026-09-03 23:34:21 | 47.81456 | 12.12514 | 150° | 110km/h | 13707m | 4.8m/s | -64.9°C | 51.3% | 159.0hPa | 2.6V | 00:00:00 | 01:02:32 | 00:00:00 | |
| OE5MMP-10 | 2026-09-03 23:34:20 | 47.81480 | 12.12493 | 150° | 110km/h | 13703m | 3.8m/s | -64.9°C | 51.5% | 159.1hPa | 2.6V | 00:00:00 | 01:02:31 | 00:00:00 | |
| DO3MHA-11 | 2026-09-03 23:34:11 | 47.81695 | 12.12304 | 149° | 108km/h | 13664m | 4.1m/s | -65.0°C | 53.4% | 160.1hPa | 2.6V | 00:00:00 | 01:02:22 | 00:00:00 | |
| OE5MMP-10 | 2026-09-03 23:34:10 | 47.81719 | 12.12282 | 148° | 108km/h | 13660m | 4.2m/s | -65.0°C | 53.3% | 160.2hPa | 2.6V | 00:00:00 | 01:02:21 | 00:00:00 | |
| OE5HKT-10 | 2026-09-03 23:34:07 | 47.81788 | 12.12216 | 146° | 106km/h | 13646m | 5.1m/s | 0°C | 0% | 0hPa | 2.6V | 00:00:00 | 01:02:18 | 00:00:00 | |
| DG1MFX-10 | 2026-09-03 23:34:04 | 47.81855 | 12.12145 | 145° | 106km/h | 13633m | 4.1m/s | -64.9°C | 44.4% | 161.0hPa | 2.6V | 00:00:00 | 00:00:00 | 00:00:00 | |
| DO3MHA-11 | 2026-09-03 23:34:01 | 47.81921 | 12.12073 | 144° | 106km/h | 13621m | 3.3m/s | -64.8°C | 55.4% | 161.3hPa | 2.6V | 00:00:00 | 01:02:12 | 00:00:00 | |
| OE5MMP-10 | 2026-09-03 23:34:00 | 47.81943 | 12.12050 | 145° | 106km/h | 13617m | 4.8m/s | -64.7°C | 55.4% | 161.4hPa | 2.6V | 00:00:00 | 01:02:11 | 00:00:00 | |
| PG1ADW-2 | 2026-09-03 23:33:55 | 47.82053 | 12.11937 | 145° | 99km/h | 13596m | 3.5m/s | -64.7°C | 56.4% | 161.9hPa | 2.6V | 00:00:00 | 00:00:00 | 00:00:00 | |
| DB0UT-7 | 2026-09-03 23:33:54 | 47.82075 | 12.11914 | 146° | 100km/h | 13592m | 5.0m/s | -64.7°C | 55.9% | 162.0hPa | 2.6V | 00:00:00 | 01:02:05 | 00:00:00 | |
| DO3MHA-11 | 2026-09-03 23:33:51 | 47.82142 | 12.11847 | 146° | 117km/h | 13579m | 4.7m/s | -64.6°C | 57.1% | 162.4hPa | 2.6V | 00:00:00 | 01:02:02 | 00:00:00 | |
| OE5MMP-10 | 2026-09-03 23:33:50 | 47.82164 | 12.11825 | 146° | 100km/h | 13574m | 4.1m/s | -64.6°C | 57.4% | 162.5hPa | 2.6V | 00:00:00 | 01:02:01 | 00:00:00 | |
| DG1MFX-10 | 2026-09-03 23:33:42 | 47.82314 | 12.11681 | 147° | 99km/h | 13544m | 3.7m/s | -64.5°C | 50.0% | 163.3hPa | 2.6V | 00:00:00 | 00:00:00 | 00:00:00 | |
| BAUMI2-15 | 2026-09-03 23:33:35 | 47.82479 | 12.11521 | 147° | 99km/h | 13510m | 5.1m/s | -64.5°C | 61.2% | 164.2hPa | 2.6V | 00:00:00 | 01:01:46 | 08:30:00 | |
| PG1ADW-2 | 2026-09-03 23:33:31 | 47.82565 | 12.11443 | 150° | 128km/h | 13493m | 4.1m/s | -64.5°C | 62.7% | 164.6hPa | 2.6V | 00:00:00 | 00:00:00 | 00:00:00 | |
| OE5FHM-15 | 2026-09-03 23:33:30 | 47.82586 | 12.11424 | 151° | 106km/h | 13489m | 4.1m/s | -64.5°C | 63.0% | 164.8hPa | 2.6V | 00:00:00 | 01:01:41 | 00:00:00 | |
| OE5WHR-10 | 2026-09-03 23:33:29 | 47.82609 | 12.11405 | 151° | 106km/h | 13484m | 5.0m/s | -64.5°C | 63.2% | 164.8hPa | 2.6V | 00:00:00 | 00:00:00 | 08:30:00 | |
| OE5DRO-10 | 2026-09-03 23:33:26 | 47.82677 | 12.11349 | 151° | 104km/h | 13471m | 4.6m/s | -64.4°C | 62.9% | 165.2hPa | 2.7V | 00:00:00 | 00:00:00 | 00:00:00 | |
| BAUMI2-15 | 2026-09-03 23:33:25 | 47.82699 | 12.11331 | 150° | 100km/h | 13467m | 3.4m/s | -64.5°C | 63.3% | 165.3hPa | 2.7V | 00:00:00 | 01:01:36 | 00:00:00 | |
| DB0UT-7 | 2026-09-03 23:33:24 | 47.82719 | 12.11312 | 150° | 128km/h | 13463m | 3.9m/s | -64.5°C | 64.1% | 165.5hPa | 2.7V | 00:00:00 | 00:00:00 | 00:00:00 | |
| DG1MFX-10 | 2026-09-03 23:33:21 | 47.82763 | 12.11275 | 152° | 102km/h | 13455m | 3.8m/s | -64.6°C | 55.0% | 165.7hPa | 2.7V | 00:00:00 | 00:00:00 | 00:00:00 | |
| OE5MMP-10 | 2026-09-03 23:33:20 | 47.82809 | 12.11238 | 152° | 104km/h | 13447m | 3.9m/s | -64.7°C | 67.8% | 165.9hPa | 2.7V | 00:00:00 | 01:01:31 | 08:30:00 | |
| BAUMI2-15 | 2026-09-03 23:33:15 | 47.82926 | 12.11151 | 158° | 106km/h | 13424m | 4.2m/s | -64.7°C | 70.0% | 166.5hPa | 2.7V | 00:00:00 | 01:01:26 | 00:00:00 | |
| OE5MMP-10 | 2026-09-03 23:33:10 | 47.83048 | 12.11069 | 155° | 111km/h | 13401m | 5.4m/s | -64.8°C | 68.4% | 167.2hPa | 2.7V | 00:00:00 | 01:01:21 | 00:00:00 | |
| OE5HKT-10 | 2026-09-03 23:33:07 | 47.83123 | 12.11017 | 155° | 122km/h | 13383m | 4.6m/s | 0°C | 0% | 0hPa | 2.7V | 00:00:00 | 00:00:00 | 00:00:00 | |
| OE5WHR-10 | 2026-09-03 23:33:05 | 47.83173 | 12.10980 | 154° | 119km/h | 13373m | 5.1m/s | -65.1°C | 69.3% | 168.0hPa | 2.7V | 00:00:00 | 00:00:00 | 00:00:00 | |
| DG1MFX-10 | 2026-09-03 23:33:01 | 47.83250 | 12.10922 | 154° | 119km/h | 13359m | 3.9m/s | -65.2°C | 59.6% | 168.4hPa | 2.7V | 00:00:00 | 00:00:00 | 00:00:00 | |
| OE5FHM-15 | 2026-09-03 23:33:00 | 47.83304 | 12.10883 | 155° | 128km/h | 13351m | 5.1m/s | -65.2°C | 71.1% | 168.5hPa | 2.7V | 00:00:00 | 01:01:11 | 00:00:00 | |
| BAUMI2-15 | 2026-09-03 23:32:55 | 47.83441 | 12.10796 | 158° | 124km/h | 13328m | 3.8m/s | -65.2°C | 72.7% | 169.2hPa | 2.7V | 00:00:00 | 01:01:06 | 00:00:00 | |
| BAUMI2-15 | 2026-09-03 23:32:50 | 47.83585 | 12.10703 | 157° | 126km/h | 13305m | 3.8m/s | -65.4°C | 74.5% | 169.8hPa | 2.7V | 00:00:00 | 01:01:01 | 08:30:00 | |
| OE5DRO-10 | 2026-09-03 23:32:48 | 47.83644 | 12.10665 | 157° | 131km/h | 13295m | 3.9m/s | -65.5°C | 75.3% | 170.1hPa | 2.7V | 00:00:00 | 00:00:00 | 00:00:00 | |
| OE5HKT-10 | 2026-09-03 23:32:46 | 47.83702 | 12.10629 | 159° | 133km/h | 13287m | 4.8m/s | 0°C | 0% | 0hPa | 2.7V | 00:00:00 | 00:00:00 | 00:00:00 | |
| BAUMI2-15 | 2026-09-03 23:32:45 | 47.83732 | 12.10612 | 159° | 126km/h | 13283m | 3.8m/s | -65.6°C | 74.5% | 170.5hPa | 2.7V | 00:00:00 | 01:00:56 | 00:00:00 | |
| OE5WHR-10 | 2026-09-03 23:32:44 | 47.83762 | 12.10595 | 159° | 131km/h | 13279m | 3.8m/s | -65.6°C | 73.8% | 170.6hPa | 2.7V | 00:00:00 | 01:00:55 | 00:00:00 | |
| DG1MFX-10 | 2026-09-03 23:32:41 | 47.83821 | 12.10561 | 159° | 126km/h | 13270m | 3.4m/s | -65.6°C | 61.7% | 170.8hPa | 2.7V | 00:00:00 | 00:00:00 | 00:00:00 | |
| OE5MMP-10 | 2026-09-03 23:32:40 | 47.83882 | 12.10525 | 159° | 135km/h | 13262m | 3.9m/s | -65.5°C | 74.2% | 171.0hPa | 2.7V | 00:00:00 | 01:00:51 | 00:00:00 | |
| BAUMI2-15 | 2026-09-03 23:32:35 | 47.84037 | 12.10430 | 157° | 137km/h | 13242m | 4.6m/s | -65.4°C | 73.0% | 171.6hPa | 2.7V | 00:00:00 | 01:00:46 | 00:00:00 | |
| OE5FHM-15 | 2026-09-03 23:32:30 | 47.84194 | 12.10326 | 156° | 135km/h | 13221m | 3.8m/s | -65.2°C | 71.3% | 172.2hPa | 2.7V | 00:00:00 | 01:00:41 | 00:00:00 | |
| OE5DRO-10 | 2026-09-03 23:32:29 | 47.84226 | 12.10306 | 157° | 135km/h | 13217m | 4.0m/s | -65.2°C | 71.0% | 172.3hPa | 2.7V | 00:00:00 | 00:00:00 | 08:30:00 | |
| BAUMI2-15 | 2026-09-03 23:32:25 | 47.84350 | 12.10227 | 157° | 133km/h | 13200m | 4.3m/s | -65.2°C | 69.5% | 172.8hPa | 2.7V | 00:00:00 | 01:00:36 | 00:00:00 | |
| OE5HKT-10 | 2026-09-03 23:32:23 | 47.84412 | 12.10186 | 156° | 135km/h | 13192m | 4.7m/s | 0°C | 0% | 0hPa | 2.7V | 00:00:00 | 01:00:34 | 00:00:00 | |
| DG1MFX-10 | 2026-09-03 23:32:21 | 47.84473 | 12.10144 | 156° | 135km/h | 13184m | 4.1m/s | -65.1°C | 56.5% | 173.3hPa | 2.7V | 00:00:00 | 00:00:00 | 00:00:00 | |
| OE5MMP-10 | 2026-09-03 23:32:20 | 47.84505 | 12.10122 | 155° | 135km/h | 13180m | 4.3m/s | -65.0°C | 67.7% | 173.3hPa | 2.7V | 00:00:00 | 01:00:31 | 00:00:00 | |
| BAUMI2-15 | 2026-09-03 23:32:15 | 47.84662 | 12.10015 | 156° | 135km/h | 13159m | 4.6m/s | -65.0°C | 66.2% | 173.9hPa | 2.7V | 00:00:00 | 01:00:26 | 00:00:00 | |
| DB0UT-7 | 2026-09-03 23:32:12 | 47.84754 | 12.09952 | 156° | 135km/h | 13146m | 3.3m/s | -65.0°C | 65.8% | 174.3hPa | 2.7V | 00:00:00 | 01:00:23 | 08:30:00 | |
| BAUMI2-15 | 2026-09-03 23:32:10 | 47.84816 | 12.09910 | 156° | 135km/h | 13138m | 4.0m/s | -65.0°C | 65.7% | 174.5hPa | 2.6V | 00:00:00 | 01:00:21 | 00:00:00 | |
| BAUMI2-15 | 2026-09-03 23:32:05 | 47.84971 | 12.09801 | 155° | 133km/h | 13117m | 3.2m/s | -64.9°C | 64.9% | 175.1hPa | 2.6V | 00:00:00 | 01:00:16 | 08:30:00 | |
| OE5HKT-10 | 2026-09-03 23:32:02 | 47.85063 | 12.09734 | 155° | 133km/h | 13106m | 3.5m/s | 0°C | 0% | 0hPa | 2.7V | 00:00:00 | 00:00:00 | 00:00:00 | |
| OE5MMP-10 | 2026-09-03 23:32:00 | 47.85124 | 12.09692 | 156° | 135km/h | 13098m | 4.6m/s | -64.8°C | 61.7% | 175.7hPa | 2.7V | 00:00:00 | 01:00:11 | 00:00:00 | |
| DG1MFX-10 | 2026-09-03 23:31:59 | 47.85124 | 12.09692 | 157° | 133km/h | 13098m | 4.7m/s | -64.9°C | 50.9% | 175.7hPa | 2.7V | 00:00:00 | 00:00:00 | 00:00:00 | |
| BAUMI2-15 | 2026-09-03 23:31:55 | 47.85279 | 12.09590 | 155° | 137km/h | 13078m | 4.8m/s | -64.7°C | 61.9% | 176.3hPa | 2.7V | 00:00:00 | 01:00:06 | 00:00:00 | |
| PG1ADW-2 | 2026-09-03 23:31:51 | 47.85404 | 12.09498 | 155° | 139km/h | 13059m | 5.3m/s | -64.6°C | 61.9% | 176.8hPa | 2.7V | 00:00:00 | 00:00:00 | 08:30:00 | |
| OE5MMP-10 | 2026-09-03 23:31:50 | 47.85435 | 12.09475 | 155° | 133km/h | 13055m | 3.5m/s | -64.6°C | 61.7% | 177.0hPa | 2.7V | 00:00:00 | 01:00:01 | 08:30:00 | |
| DB0UT-7 | 2026-09-03 23:31:42 | 47.85674 | 12.09291 | 153° | 137km/h | 13023m | 5.2m/s | -64.4°C | 59.6% | 177.9hPa | 2.7V | 00:00:00 | 00:00:00 | 00:00:00 | |
| OE5MMP-10 | 2026-09-03 23:31:40 | 47.85736 | 12.09243 | 153° | 141km/h | 13014m | 5.2m/s | -64.4°C | 59.3% | 178.1hPa | 2.7V | 00:00:00 | 00:59:51 | 00:00:00 | |
| DG1MFX-10 | 2026-09-03 23:31:39 | 47.85736 | 12.09243 | 153° | 141km/h | 13014m | 5.3m/s | -64.5°C | 49.0% | 178.2hPa | 2.7V | 00:00:00 | 00:00:00 | 00:00:00 | |
| OE5DRO-10 | 2026-09-03 23:31:32 | 47.85988 | 12.09039 | 150° | 139km/h | 12979m | 3.8m/s | -64.3°C | 62.3% | 179.1hPa | 2.7V | 00:00:00 | 00:00:00 | 00:00:00 | |
| PG1ADW-2 | 2026-09-03 23:31:31 | 47.86017 | 12.09012 | 150° | 139km/h | 12975m | 3.3m/s | -64.3°C | 61.9% | 179.2hPa | 2.7V | 00:00:00 | 00:59:42 | 00:00:00 | |
| OE5FHM-15 | 2026-09-03 23:31:30 | 47.86047 | 12.08987 | 150° | 139km/h | 12971m | 4.5m/s | -64.3°C | 62.0% | 179.3hPa | 2.7V | 00:00:00 | 00:59:41 | 00:00:00 | |
| OE5MMP-10 | 2026-09-03 23:31:20 | 47.86343 | 12.08723 | 150° | 141km/h | 12932m | 4.4m/s | -64.1°C | 62.3% | 180.5hPa | 2.7V | 00:00:00 | 00:59:31 | 00:00:00 | |
| DG1MFX-10 | 2026-09-03 23:31:19 | 47.86374 | 12.08696 | 151° | 139km/h | 12927m | 4.2m/s | -64.1°C | 51.8% | 180.7hPa | 2.7V | 00:00:00 | 00:00:00 | 00:00:00 | |
| OE5DRO-10 | 2026-09-03 23:31:13 | 47.86557 | 12.08534 | 150° | 141km/h | 12904m | 3.2m/s | -63.9°C | 61.7% | 181.3hPa | 2.7V | 00:00:00 | 00:00:00 | 00:00:00 | |
| PG1ADW-2 | 2026-09-03 23:31:11 | 47.86617 | 12.08480 | 148° | 141km/h | 12895m | 3.6m/s | -63.9°C | 61.1% | 181.6hPa | 2.7V | 00:00:00 | 00:00:00 | 00:00:00 | |
| OE5MMP-10 | 2026-09-03 23:31:10 | 47.86647 | 12.08452 | 148° | 141km/h | 12891m | 5.0m/s | -63.9°C | 61.0% | 181.8hPa | 2.7V | 00:00:00 | 00:59:21 | 00:00:00 | |
| OE5FHM-15 | 2026-09-03 23:31:00 | 47.86945 | 12.08166 | 149° | 141km/h | 12849m | 4.2m/s | -63.8°C | 61.2% | 183.0hPa | 2.7V | 00:00:00 | 00:59:11 | 00:00:00 | |
| DG1MFX-10 | 2026-09-03 23:30:58 | 47.87005 | 12.08110 | 149° | 142km/h | 12841m | 5.1m/s | -63.8°C | 50.8% | 183.3hPa | 2.7V | 00:00:00 | 00:00:00 | 00:00:00 | |
| OE5DRO-10 | 2026-09-03 23:30:54 | 47.87126 | 12.07994 | 148° | 141km/h | 12824m | 4.1m/s | -63.6°C | 60.7% | 183.7hPa | 2.7V | 00:00:00 | 00:00:00 | 00:00:00 | |
| OE5MMP-10 | 2026-09-03 23:30:50 | 47.87245 | 12.07875 | 146° | 141km/h | 12806m | 4.3m/s | -63.4°C | 62.1% | 184.3hPa | 2.7V | 00:00:00 | 00:59:01 | 00:00:00 | |
| OE5MMP-10 | 2026-09-03 23:30:40 | 47.87537 | 12.07577 | 147° | 141km/h | 12765m | 3.9m/s | -63.3°C | 60.4% | 185.5hPa | 2.7V | 00:00:00 | 00:58:51 | 00:00:00 | |
| DG1MFX-10 | 2026-09-03 23:30:37 | 47.87597 | 12.07518 | 146° | 142km/h | 12756m | 3.3m/s | -63.3°C | 51.1% | 185.8hPa | 2.7V | 00:00:00 | 00:00:00 | 00:00:00 | |
| OE5DRO-10 | 2026-09-03 23:30:35 | 47.87684 | 12.07425 | 144° | 137km/h | 12743m | 5.2m/s | -63.2°C | 61.1% | 186.2hPa | 2.7V | 00:00:00 | 00:00:00 | 00:00:00 | |
| PG1ADW-2 | 2026-09-03 23:30:31 | 47.87797 | 12.07300 | 144° | 137km/h | 12726m | 4.4m/s | -63.1°C | 61.4% | 186.7hPa | 2.7V | 00:00:00 | 00:00:00 | 00:00:00 | |
| OE5MMP-10 | 2026-09-03 23:30:30 | 47.87825 | 12.07270 | 145° | 137km/h | 12723m | 2.8m/s | -63.1°C | 61.2% | 186.8hPa | 2.7V | 00:00:00 | 00:58:41 | 00:00:00 | |
| OE5FHM-15 | 2026-09-03 23:30:27 | 47.87910 | 12.07180 | 145° | 137km/h | 12710m | 3.4m/s | -63.0°C | 61.5% | 187.2hPa | 2.7V | 00:00:00 | 00:58:38 | 00:00:00 | |
| OE5MMP-10 | 2026-09-03 23:30:20 | 47.88105 | 12.06965 | 143° | 135km/h | 12680m | 3.3m/s | -62.8°C | 61.9% | 188.1hPa | 2.7V | 00:00:00 | 00:58:31 | 08:30:00 | |
| OE5WHR-10 | 2026-09-03 23:30:16 | 47.88213 | 12.06842 | 143° | 135km/h | 12665m | 4.2m/s | -62.7°C | 61.8% | 188.5hPa | 2.7V | 00:00:00 | 00:00:00 | 00:00:00 | |
| OE5MMP-10 | 2026-09-03 23:30:10 | 47.88378 | 12.06658 | 144° | 137km/h | 12641m | 3.7m/s | -62.6°C | 62.9% | 189.3hPa | 2.7V | 00:00:00 | 00:58:21 | 00:00:00 | |
| OE5MMP-10 | 2026-09-03 23:30:00 | 47.88657 | 12.06356 | 145° | 137km/h | 12602m | 3.2m/s | -62.3°C | 63.8% | 190.5hPa | 2.7V | 00:00:00 | 00:58:11 | 00:00:00 | |
| OE5FHM-15 | 2026-09-03 23:29:57 | 47.88741 | 12.06267 | 145° | 137km/h | 12590m | 4.3m/s | -62.2°C | 63.7% | 190.8hPa | 2.7V | 00:00:00 | 00:58:08 | 00:00:00 | |
| DG1MFX-10 | 2026-09-03 23:29:56 | 47.88768 | 12.06237 | 145° | 133km/h | 12586m | 3.5m/s | -62.2°C | 53.6% | 191.0hPa | 2.7V | 00:00:00 | 00:00:00 | 00:00:00 | |
| OE5WHR-10 | 2026-09-03 23:29:55 | 47.88795 | 12.06207 | 143° | 137km/h | 12582m | 3.9m/s | -62.1°C | 63.2% | 191.1hPa | 2.7V | 00:00:00 | 00:00:00 | 00:00:00 | |
| PG1ADW-2 | 2026-09-03 23:29:51 | 47.88906 | 12.06078 | 142° | 139km/h | 12567m | 3.7m/s | -62.0°C | 63.4% | 191.6hPa | 2.7V | 00:00:00 | 00:00:00 | 00:00:00 | |
| OE5MMP-10 | 2026-09-03 23:29:50 | 47.88934 | 12.06046 | 143° | 137km/h | 12563m | 4.2m/s | -62.0°C | 63.3% | 191.7hPa | 2.7V | 00:00:00 | 00:58:01 | 00:00:00 | |
| BAUMI2-15 | 2026-09-03 23:29:46 | 47.89047 | 12.05923 | 146° | 137km/h | 12546m | 3.2m/s | -61.9°C | 64.6% | 192.2hPa | 2.7V | 00:00:00 | 00:57:57 | 00:00:00 | |
| BAUMI2-15 | 2026-09-03 23:29:41 | 47.89189 | 12.05777 | 144° | 141km/h | 12527m | 3.1m/s | -61.7°C | 63.9% | 192.8hPa | 2.7V | 00:00:00 | 00:57:52 | 00:00:00 | |
| OE5MMP-10 | 2026-09-03 23:29:40 | 47.89217 | 12.05745 | 143° | 139km/h | 12523m | 4.7m/s | -61.7°C | 63.3% | 192.9hPa | 2.7V | 00:00:00 | 00:57:51 | 00:00:00 | |
| OE5DRO-10 | 2026-09-03 23:29:38 | 47.89273 | 12.05680 | 143° | 137km/h | 12515m | 3.3m/s | -61.6°C | 63.9% | 193.2hPa | 2.7V | 00:00:00 | 00:00:00 | 08:30:00 | |
| BAUMI2-15 | 2026-09-03 23:29:36 | 47.89330 | 12.05616 | 143° | 137km/h | 12507m | 3.5m/s | -61.5°C | 64.4% | 193.4hPa | 2.7V | 00:00:00 | 00:57:47 | 00:00:00 | |
| DG1MFX-10 | 2026-09-03 23:29:35 | 47.89358 | 12.05584 | 144° | 139km/h | 12504m | 4.0m/s | -61.5°C | 54.1% | 193.6hPa | 2.7V | 00:00:00 | 00:00:00 | 00:00:00 | |
| BAUMI2-15 | 2026-09-03 23:29:31 | 47.89471 | 12.05467 | 147° | 135km/h | 12486m | 4.2m/s | -61.3°C | 63.9% | 194.0hPa | 2.7V | 00:00:00 | 00:57:42 | 00:00:00 | |
| OE5MMP-10 | 2026-09-03 23:29:30 | 47.89500 | 12.05439 | 147° | 137km/h | 12482m | 5.0m/s | -61.3°C | 63.9% | 194.2hPa | 2.7V | 00:00:00 | 00:57:41 | 00:00:00 | |
| OE5FHM-15 | 2026-09-03 23:29:27 | 47.89586 | 12.05354 | 146° | 137km/h | 12469m | 3.9m/s | -61.2°C | 64.6% | 194.6hPa | 2.7V | 00:00:00 | 00:57:38 | 08:30:00 | |
| BAUMI2-15 | 2026-09-03 23:29:26 | 47.89614 | 12.05325 | 146° | 139km/h | 12466m | 3.4m/s | -61.2°C | 64.0% | 194.7hPa | 2.7V | 00:00:00 | 00:57:37 | 00:00:00 | |
| BAUMI2-15 | 2026-09-03 23:29:21 | 47.89757 | 12.05176 | 146° | 137km/h | 12446m | 4.2m/s | -61.0°C | 63.0% | 195.3hPa | 2.7V | 00:00:00 | 00:57:32 | 08:30:00 | |
| OE5MMP-10 | 2026-09-03 23:29:20 | 47.89786 | 12.05147 | 146° | 137km/h | 12442m | 4.1m/s | -60.9°C | 63.1% | 195.5hPa | 2.7V | 00:00:00 | 00:57:31 | 00:00:00 | |
| OE5DRO-10 | 2026-09-03 23:29:19 | 47.89815 | 12.05118 | 146° | 137km/h | 12437m | 4.9m/s | -60.9°C | 63.0% | 195.6hPa | 2.7V | 00:00:00 | 00:00:00 | 00:00:00 | |
| BAUMI2-15 | 2026-09-03 23:29:16 | 47.89901 | 12.05030 | 146° | 137km/h | 12425m | 4.2m/s | -60.8°C | 63.5% | 196.0hPa | 2.7V | 00:00:00 | 00:57:27 | 00:00:00 | |
| DG1MFX-10 | 2026-09-03 23:29:13 | 47.89959 | 12.04973 | 147° | 137km/h | 12417m | 5.1m/s | -60.7°C | 53.3% | 196.3hPa | 2.7V | 00:00:00 | 00:00:00 | 00:00:00 | |
| OE5MMP-10 | 2026-09-03 23:29:10 | 47.90071 | 12.04859 | 146° | 137km/h | 12400m | 4.8m/s | -60.5°C | 62.9% | 196.8hPa | 2.7V | 00:00:00 | 00:57:21 | 00:00:00 | |
| BAUMI2-15 | 2026-09-03 23:29:06 | 47.90184 | 12.04741 | 145° | 137km/h | 12386m | 3.6m/s | -60.4°C | 63.1% | 197.3hPa | 2.7V | 00:00:00 | 00:57:17 | 00:00:00 | |
| BAUMI2-15 | 2026-09-03 23:29:01 | 47.90326 | 12.04594 | 145° | 135km/h | 12366m | 3.6m/s | -60.2°C | 62.6% | 197.9hPa | 2.7V | 00:00:00 | 00:57:12 | 00:00:00 | |
| OE5MMP-10 | 2026-09-03 23:29:00 | 47.90355 | 12.04564 | 145° | 135km/h | 12362m | 4.7m/s | -60.2°C | 62.7% | 198.0hPa | 2.7V | 00:00:00 | 00:57:11 | 00:00:00 | |
| OE5FHM-15 | 2026-09-03 23:28:57 | 47.90438 | 12.04476 | 146° | 133km/h | 12350m | 4.0m/s | 0°C | 0% | 0hPa | 2.7V | 00:00:00 | 00:57:08 | 00:00:00 | |
| BAUMI2-15 | 2026-09-03 23:28:56 | 47.90467 | 12.04448 | 147° | 135km/h | 12346m | 3.2m/s | -60.0°C | 63.0% | 198.6hPa | 2.7V | 00:00:00 | 00:57:07 | 00:00:00 | |
| DG1MFX-10 | 2026-09-03 23:28:52 | 47.90553 | 12.04365 | 148° | 137km/h | 12335m | 3.3m/s | -59.9°C | 53.0% | 198.9hPa | 2.7V | 00:00:00 | 00:00:00 | 00:00:00 | |
| BAUMI2-15 | 2026-09-03 23:28:51 | 47.90610 | 12.04308 | 146° | 135km/h | 12326m | 4.2m/s | -59.8°C | 62.1% | 199.2hPa | 2.7V | 00:00:00 | 00:57:02 | 00:00:00 | |
| OE5MMP-10 | 2026-09-03 23:28:50 | 47.90638 | 12.04279 | 146° | 135km/h | 12322m | 5.1m/s | -59.8°C | 61.9% | 199.3hPa | 2.7V | 00:00:00 | 00:57:01 | 08:30:00 | |
| OE5WHR-10 | 2026-09-03 23:28:49 | 47.90666 | 12.04250 | 146° | 117km/h | 12317m | 3.4m/s | -59.7°C | 62.5% | 199.5hPa | 2.7V | 00:00:00 | 00:00:00 | 00:00:00 | |
| BAUMI2-15 | 2026-09-03 23:28:46 | 47.90750 | 12.04163 | 146° | 133km/h | 12306m | 3.6m/s | -59.7°C | 62.7% | 199.8hPa | 2.7V | 00:00:00 | 00:56:57 | 00:00:00 | |
| OE5DRO-10 | 2026-09-03 23:28:41 | 47.90889 | 12.04019 | 145° | 131km/h | 12286m | 3.6m/s | -59.5°C | 62.8% | 200.5hPa | 2.7V | 00:00:00 | 00:00:00 | 00:00:00 | |
| OE5MMP-10 | 2026-09-03 23:28:40 | 47.90916 | 12.03990 | 146° | 133km/h | 12282m | 5.0m/s | -59.5°C | 62.8% | 200.6hPa | 2.7V | 00:00:00 | 00:56:51 | 00:00:00 | |
| BAUMI2-15 | 2026-09-03 23:28:36 | 47.91028 | 12.03877 | 147° | 133km/h | 12266m | 3.4m/s | -59.3°C | 62.9% | 0hPa | 2.7V | 00:00:00 | 00:56:47 | 08:30:00 | |
| DB0UT-7 | 2026-09-03 23:28:35 | 47.91056 | 12.03849 | 147° | 124km/h | 12262m | 4.6m/s | -59.3°C | 62.8% | 201.3hPa | 2.7V | 00:00:00 | 00:56:46 | 00:00:00 | |
| DO3MHA-11 | 2026-09-03 23:28:33 | 47.91112 | 12.03792 | 146° | 131km/h | 12254m | 3.5m/s | -59.3°C | 63.0% | 201.5hPa | 2.7V | 00:00:00 | 00:56:44 | 00:00:00 | |
| DG1MFX-10 | 2026-09-03 23:28:32 | 47.91112 | 12.03792 | 146° | 135km/h | 12254m | 3.5m/s | -59.3°C | 53.9% | 201.5hPa | 2.7V | 00:00:00 | 00:00:00 | 00:00:00 | |
| BAUMI2-15 | 2026-09-03 23:28:31 | 47.91167 | 12.03735 | 145° | 130km/h | 12246m | 3.9m/s | 0°C | 0% | 0hPa | 2.7V | 00:00:00 | 00:56:42 | 00:00:00 | |
| OE5MMP-10 | 2026-09-03 23:28:30 | 47.91194 | 12.03706 | 145° | 131km/h | 12242m | 4.6m/s | -59.2°C | 63.3% | 201.9hPa | 2.7V | 00:00:00 | 00:56:41 | 00:00:00 | |
| BAUMI2-15 | 2026-09-03 23:28:26 | 47.91301 | 12.03593 | 145° | 130km/h | 12227m | 3.3m/s | 0°C | 0% | 0hPa | 2.7V | 00:00:00 | 00:56:37 | 00:00:00 | |
| OE5DRO-10 | 2026-09-03 23:28:22 | 47.91410 | 12.03484 | 148° | 137km/h | 12213m | 3.2m/s | -58.9°C | 63.1% | 202.9hPa | 2.7V | 00:00:00 | 00:00:00 | 00:00:00 | |
| DO3MHA-11 | 2026-09-03 23:28:21 | 47.91438 | 12.03457 | 147° | 133km/h | 12209m | 4.2m/s | -58.9°C | 62.9% | 203.0hPa | 2.7V | 00:00:00 | 00:56:32 | 00:00:00 | |
| OE5MMP-10 | 2026-09-03 23:28:20 | 47.91466 | 12.03429 | 146° | 133km/h | 12205m | 4.0m/s | -58.9°C | 63.1% | 203.1hPa | 2.7V | 00:00:00 | 00:56:31 | 00:00:00 | |
| BAUMI2-15 | 2026-09-03 23:28:16 | 47.91576 | 12.03313 | 143° | 131km/h | 12188m | 4.7m/s | 0°C | 0% | 0hPa | 2.7V | 00:00:00 | 00:56:27 | 00:00:00 | |
| DO3MHA-11 | 2026-09-03 23:28:11 | 47.91711 | 12.03166 | 148° | 142km/h | 12167m | 4.3m/s | -58.6°C | 66.8% | 204.3hPa | 2.7V | 00:00:00 | 00:56:22 | 00:00:00 | |
| OE5MMP-10 | 2026-09-03 23:28:10 | 47.91740 | 12.03139 | 149° | 142km/h | 12163m | 4.7m/s | -58.6°C | 67.0% | 204.5hPa | 2.7V | 00:00:00 | 00:56:21 | 00:00:00 | |
| BAUMI2-15 | 2026-09-03 23:28:06 | 47.91863 | 12.03030 | 148° | 144km/h | 12145m | 2.9m/s | 0°C | 0% | 0hPa | 2.7V | 00:00:00 | 00:56:17 | 00:00:00 | |
| OE5DRO-10 | 2026-09-03 23:28:03 | 47.91952 | 12.02934 | 141° | 133km/h | 12134m | 5.4m/s | -58.5°C | 63.3% | 205.3hPa | 2.7V | 00:00:00 | 00:00:00 | 00:00:00 | |
| BAUMI2-15 | 2026-09-03 23:28:01 | 47.92006 | 12.02867 | 141° | 133km/h | 12118m | 9.4m/s | 0°C | 0% | 0hPa | 2.7V | 00:00:00 | 00:56:12 | 00:00:00 | |
| OE5MMP-10 | 2026-09-03 23:28:00 | 47.92034 | 12.02834 | 143° | 130km/h | 12108m | 8.9m/s | -58.3°C | 62.9% | 206.2hPa | 2.7V | 00:00:00 | 00:56:11 | 00:00:00 | |
| BAUMI2-15 | 2026-09-03 23:27:56 | 47.92142 | 12.02724 | 147° | 126km/h | 12079m | 5.9m/s | 0°C | 0% | 0hPa | 2.7V | 00:00:00 | 00:56:07 | 00:00:00 | |
| BAUMI2-15 | 2026-09-03 23:27:51 | 47.92275 | 12.02589 | 147° | 141km/h | 12051m | 4.3m/s | 0°C | 0% | 0hPa | 2.7V | 00:00:00 | 00:56:02 | 08:30:00 | |
| PG1ADW-2 | 2026-09-03 23:27:50 | 47.92449 | 12.02423 | 149° | 124km/h | 12023m | 5.8m/s | -57.7°C | 62.9% | 209.0hPa | 2.7V | 00:00:00 | 00:00:00 | 00:00:00 | |
| OE5DRO-10 | 2026-09-03 23:27:44 | 47.92476 | 12.02398 | 149° | 124km/h | 12017m | 5.5m/s | -57.6°C | 63.7% | 209.3hPa | 2.7V | 00:00:00 | 00:00:00 | 00:00:00 | |
| DH7VM-15 | 2026-09-03 23:27:42 | 47.92503 | 12.02374 | 149° | 119km/h | 12012m | 4.2m/s | 0°C | 0% | 0hPa | 2.7V | 00:00:00 | 00:00:00 | 00:00:00 | |
| OE5MMP-10 | 2026-09-03 23:27:40 | 47.92575 | 12.02300 | 144° | 126km/h | 11998m | 4.8m/s | -57.4°C | 60.9% | 209.9hPa | 2.7V | 00:00:00 | 00:55:51 | 00:00:00 | |
| OE5DXL-15 | 2026-09-03 23:27:30 | 47.92841 | 12.02038 | 150° | 119km/h | 11941m | 8.2m/s | -56.9°C | 58.0% | 211.7hPa | 2.7V | 00:00:00 | 00:00:00 | 00:00:00 | |
| PG1ADW-2 | 2026-09-03 23:27:27 | 47.92924 | 12.01977 | 156° | 120km/h | 11920m | 5.2m/s | -56.7°C | 56.9% | 212.5hPa | 2.7V | 00:00:00 | 00:55:38 | 00:00:00 | |
| OE5DRO-10 | 2026-09-03 23:27:25 | 47.92983 | 12.01936 | 154° | 117km/h | 11908m | 5.6m/s | -56.6°C | 56.9% | 212.9hPa | 2.7V | 00:00:00 | 00:00:00 | 00:00:00 | |
| OE5MMP-10 | 2026-09-03 23:27:20 | 47.93108 | 12.01828 | 147° | 119km/h | 11877m | 6.2m/s | -56.3°C | 54.5% | 213.9hPa | 2.7V | 00:00:00 | 00:55:31 | 08:30:00 | |
| OE5MMP-10 | 2026-09-03 23:27:10 | 47.93374 | 12.01616 | 151° | 119km/h | 11829m | 4.0m/s | -55.9°C | 52.8% | 215.5hPa | 2.7V | 00:00:00 | 00:55:21 | 00:00:00 | |
| DG1MFX-10 | 2026-09-03 23:27:09 | 47.93374 | 12.01616 | 152° | 120km/h | 11829m | 4.0m/s | -56.0°C | 45.3% | 215.6hPa | 2.7V | 00:00:00 | 00:00:00 | 00:00:00 | |
| PG1ADW-2 | 2026-09-03 23:27:07 | 47.93451 | 12.01551 | 150° | 120km/h | 11816m | 3.2m/s | -55.8°C | 52.0% | 216.0hPa | 2.7V | 00:00:00 | 00:00:00 | 00:00:00 | |
| OE5DRO-10 | 2026-09-03 23:27:06 | 47.93477 | 12.01529 | 150° | 120km/h | 11812m | 4.4m/s | -55.8°C | 51.0% | 216.1hPa | 2.7V | 00:00:00 | 00:00:00 | 00:00:00 | |
| OE5DXL-15 | 2026-09-03 23:27:00 | 47.93632 | 12.01387 | 155° | 115km/h | 11786m | 4.7m/s | -55.5°C | 51.9% | 217.0hPa | 2.7V | 00:00:00 | 00:00:00 | 00:00:00 | |
| OE5MMP-10 | 2026-09-03 23:26:50 | 47.93890 | 12.01176 | 144° | 122km/h | 11736m | 4.5m/s | -55.2°C | 46.7% | 218.6hPa | 2.7V | 00:00:00 | 00:55:01 | 00:00:00 | |
| DG1MFX-10 | 2026-09-03 23:26:48 | 47.93917 | 12.01149 | 148° | 128km/h | 11732m | 4.4m/s | -55.4°C | 40.2% | 218.8hPa | 2.7V | 00:00:00 | 00:00:00 | 00:00:00 | |
| PG1ADW-2 | 2026-09-03 23:26:47 | 47.93973 | 12.01099 | 153° | 113km/h | 11720m | 6.3m/s | -55.3°C | 46.3% | 219.1hPa | 2.7V | 00:00:00 | 00:00:00 | 00:00:00 | |
| OE5FHM-15 | 2026-09-03 23:26:45 | 47.94033 | 12.01060 | 159° | 110km/h | 11708m | 5.9m/s | 0°C | 0% | 0hPa | 2.7V | 00:00:00 | 00:54:56 | 00:00:00 | |
| OE5MMP-10 | 2026-09-03 23:26:40 | 47.94164 | 12.00978 | 154° | 108km/h | 11675m | 4.6m/s | -54.8°C | 44.9% | 220.7hPa | 2.7V | 00:00:00 | 00:54:51 | 00:00:00 | |
| DB0UT-7 | 2026-09-03 23:26:37 | 47.94236 | 12.00928 | 158° | 104km/h | 11660m | 5.0m/s | -54.7°C | 44.4% | 221.3hPa | 2.7V | 00:00:00 | 00:00:00 | 00:00:00 | |
| OE5MMP-10 | 2026-09-03 23:26:30 | 47.94416 | 12.00815 | 157° | 110km/h | 11628m | 5.4m/s | -54.4°C | 43.2% | 222.4hPa | 2.7V | 00:00:00 | 00:54:41 | 00:00:00 | |
| OE5DRO-10 | 2026-09-03 23:26:28 | 47.94467 | 12.00781 | 156° | 110km/h | 11619m | 3.7m/s | -54.4°C | 42.7% | 222.7hPa | 2.7V | 00:00:00 | 00:00:00 | 00:00:00 | |
| PG1ADW-2 | 2026-09-03 23:26:27 | 47.94492 | 12.00763 | 156° | 108km/h | 11614m | 5.7m/s | -54.3°C | 42.4% | 222.8hPa | 2.7V | 00:00:00 | 00:00:00 | 00:00:00 | |
| OE5MMP-10 | 2026-09-03 23:26:20 | 47.94670 | 12.00644 | 156° | 108km/h | 11581m | 4.2m/s | -54.0°C | 40.4% | 224.1hPa | 2.7V | 00:00:00 | 00:54:31 | 00:00:00 | |
| OE5MMP-10 | 2026-09-03 23:26:10 | 47.94921 | 12.00485 | 159° | 108km/h | 11539m | 3.9m/s | -53.6°C | 39.1% | 225.5hPa | 2.7V | 00:00:00 | 00:54:21 | 00:00:00 | |
| OE5DRO-10 | 2026-09-03 23:26:09 | 47.94945 | 12.00470 | 158° | 106km/h | 11535m | 5.0m/s | -53.6°C | 39.2% | 225.6hPa | 2.7V | 00:00:00 | 00:00:00 | 00:00:00 | |
| DG1MFX-10 | 2026-09-03 23:26:08 | 47.94945 | 12.00470 | 159° | 104km/h | 11535m | 5.0m/s | -53.6°C | 33.2% | 225.7hPa | 2.7V | 00:00:00 | 00:00:00 | 00:00:00 | |
| OE5FHM-15 | 2026-09-03 23:26:04 | 47.95069 | 12.00384 | 154° | 104km/h | 11514m | 4.7m/s | 0°C | 0% | 0hPa | 2.7V | 00:00:00 | 00:54:15 | 00:00:00 | |
| OE5MMP-10 | 2026-09-03 23:26:00 | 47.95168 | 12.00314 | 157° | 106km/h | 11498m | 3.7m/s | -53.2°C | 38.5% | 226.9hPa | 2.7V | 00:00:00 | 00:54:11 | 00:00:00 | |
| OE5MMP-10 | 2026-09-03 23:25:50 | 47.95410 | 12.00150 | 153° | 104km/h | 11457m | 3.8m/s | -53.0°C | 39.6% | 228.4hPa | 2.7V | 00:00:00 | 00:54:01 | 08:30:00 | |
| OE5WHR-10 | 2026-09-03 23:25:49 | 47.95435 | 12.00131 | 153° | 102km/h | 11452m | 4.6m/s | -52.9°C | 39.9% | 228.5hPa | 2.7V | 00:00:00 | 00:00:00 | 00:00:00 | |
| DG1MFX-10 | 2026-09-03 23:25:48 | 47.95459 | 12.00113 | 154° | 106km/h | 11448m | 3.5m/s | -52.9°C | 34.3% | 228.7hPa | 2.7V | 00:00:00 | 00:00:00 | 00:00:00 | |
| PG1ADW-2 | 2026-09-03 23:25:47 | 47.95482 | 12.00095 | 154° | 102km/h | 11444m | 4.5m/s | -52.8°C | 40.3% | 228.8hPa | 2.7V | 00:00:00 | 00:00:00 | 08:30:00 | |
| DO3MHA-11 | 2026-09-03 23:25:46 | 47.95506 | 12.00077 | 154° | 102km/h | 11439m | 4.7m/s | -52.8°C | 40.7% | 229.0hPa | 2.7V | 00:00:00 | 00:53:57 | 00:00:00 | |
| BAUMI2-15 | 2026-09-03 23:25:42 | 47.95600 | 12.00011 | 156° | 100km/h | 11423m | 4.4m/s | 0°C | 0% | 0hPa | 2.7V | 00:00:00 | 00:53:53 | 00:00:00 | |
| OE5MMP-10 | 2026-09-03 23:25:40 | 47.95647 | 11.99979 | 156° | 102km/h | 11415m | 3.0m/s | -52.6°C | 41.5% | 229.8hPa | 2.7V | 00:00:00 | 00:53:51 | 00:00:00 | |
| DO3MHA-11 | 2026-09-03 23:25:36 | 47.95740 | 11.99912 | 153° | 102km/h | 11399m | 3.8m/s | -52.4°C | 41.8% | 230.4hPa | 2.7V | 00:00:00 | 00:53:47 | 08:30:00 | |
| BAUMI2-15 | 2026-09-03 23:25:35 | 47.95763 | 11.99893 | 153° | 102km/h | 11395m | 4.4m/s | 0°C | 0% | 0hPa | 2.7V | 00:00:00 | 00:53:46 | 00:00:00 | |
| OE5FHM-15 | 2026-09-03 23:25:34 | 47.95786 | 11.99876 | 153° | 104km/h | 11390m | 4.1m/s | 0°C | 0% | 0hPa | 2.7V | 00:00:00 | 00:53:45 | 00:00:00 | |
| OE5DRO-10 | 2026-09-03 23:25:31 | 47.95855 | 11.99824 | 155° | 102km/h | 11379m | 3.4m/s | -52.2°C | 42.1% | 231.2hPa | 2.7V | 00:00:00 | 00:00:00 | 00:00:00 | |
| OE5MMP-10 | 2026-09-03 23:25:30 | 47.95879 | 11.99808 | 156° | 102km/h | 11375m | 4.1m/s | -52.2°C | 41.9% | 231.3hPa | 2.7V | 00:00:00 | 00:53:41 | 00:00:00 | |
| PG1ADW-2 | 2026-09-03 23:25:27 | 47.95949 | 11.99758 | 154° | 102km/h | 11362m | 5.1m/s | -52.1°C | 41.8% | 231.8hPa | 2.7V | 00:00:00 | 00:00:00 | 00:00:00 | |
| OE5WHR-10 | 2026-09-03 23:25:26 | 47.95973 | 11.99741 | 154° | 102km/h | 11358m | 2.9m/s | -52.1°C | 42.1% | 231.9hPa | 2.7V | 00:00:00 | 00:53:37 | 00:00:00 | |
| BAUMI2-15 | 2026-09-03 23:25:21 | 47.96086 | 11.99656 | 154° | 102km/h | 11338m | 3.4m/s | 0°C | 0% | 0hPa | 2.7V | 00:00:00 | 00:53:32 | 00:00:00 | |
| OE5MMP-10 | 2026-09-03 23:25:20 | 47.96110 | 11.99639 | 155° | 104km/h | 11334m | 4.7m/s | -51.8°C | 41.3% | 232.8hPa | 2.7V | 00:00:00 | 00:53:31 | 00:00:00 | |
| BAUMI2-15 | 2026-09-03 23:25:16 | 47.96204 | 11.99572 | 154° | 100km/h | 11318m | 3.5m/s | 0°C | 0% | 0hPa | 2.7V | 00:00:00 | 00:53:27 | 00:00:00 | |
| OE5DRO-10 | 2026-09-03 23:25:12 | 47.96299 | 11.99501 | 155° | 104km/h | 11302m | 4.6m/s | -51.5°C | 41.0% | 233.9hPa | 2.7V | 00:00:00 | 00:00:00 | 00:00:00 | |
| OE5MMP-10 | 2026-09-03 23:25:10 | 47.96346 | 11.99469 | 155° | 104km/h | 11294m | 4.7m/s | -51.5°C | 40.8% | 234.1hPa | 2.7V | 00:00:00 | 00:53:21 | 00:00:00 | |
| DG1MFX-10 | 2026-09-03 23:25:07 | 47.96414 | 11.99423 | 157° | 100km/h | 11283m | 4.5m/s | -51.4°C | 35.3% | 234.5hPa | 2.7V | 00:00:00 | 00:00:00 | 00:00:00 | |
| OE5WHR-10 | 2026-09-03 23:25:05 | 47.96462 | 11.99392 | 157° | 106km/h | 11276m | 3.5m/s | -51.3°C | 41.1% | 234.8hPa | 2.7V | 00:00:00 | 00:00:00 | 08:30:00 | |
| OE5MMP-10 | 2026-09-03 23:25:00 | 47.96583 | 11.99301 | 154° | 106km/h | 11257m | 4.0m/s | -51.1°C | 40.9% | 235.5hPa | 2.7V | 00:00:00 | 00:53:11 | 00:00:00 | |
| DB0UT-7 | 2026-09-03 23:24:53 | 47.96749 | 11.99185 | 155° | 110km/h | 11229m | 4.2m/s | -50.9°C | 41.2% | 236.5hPa | 2.7V | 00:00:00 | 00:53:04 | 00:00:00 | |
| OE5MMP-10 | 2026-09-03 23:24:50 | 47.96825 | 11.99130 | 155° | 108km/h | 11218m | 4.4m/s | -50.8°C | 41.2% | 237.0hPa | 2.7V | 00:00:00 | 00:53:01 | 00:00:00 | |
| PG1ADW-2 | 2026-09-03 23:24:47 | 47.96899 | 11.99076 | 153° | 108km/h | 11207m | 4.0m/s | -50.7°C | 41.5% | 237.3hPa | 2.7V | 00:00:00 | 00:52:58 | 00:00:00 | |
| DG1MFX-10 | 2026-09-03 23:24:46 | 47.96899 | 11.99076 | 154° | 106km/h | 11207m | 4.1m/s | -50.7°C | 36.0% | 237.4hPa | 2.7V | 00:00:00 | 00:00:00 | 00:00:00 | |
| OE5WHR-10 | 2026-09-03 23:24:44 | 47.96970 | 11.99022 | 155° | 108km/h | 11195m | 3.7m/s | -50.5°C | 41.7% | 237.8hPa | 2.7V | 00:00:00 | 00:00:00 | 00:00:00 | |
| OE5MMP-10 | 2026-09-03 23:24:40 | 47.97067 | 11.98952 | 155° | 110km/h | 11179m | 4.2m/s | -50.4°C | 42.2% | 238.3hPa | 2.7V | 00:00:00 | 00:52:51 | 00:00:00 | |
| BAUMI2-15 | 2026-09-03 23:24:36 | 47.97168 | 11.98882 | 155° | 110km/h | 11165m | 3.1m/s | 0°C | 0% | 0hPa | 2.7V | 00:00:00 | 00:52:47 | 00:00:00 | |
| OE5DRO-10 | 2026-09-03 23:24:34 | 47.97218 | 11.98847 | 156° | 106km/h | 11156m | 3.8m/s | -50.2°C | 43.8% | 239.2hPa | 2.7V | 00:00:00 | 00:00:00 | 00:00:00 | |
| OE5DXL-15 | 2026-09-03 23:24:30 | 47.97315 | 11.98776 | 154° | 108km/h | 11140m | 4.9m/s | -50.1°C | 45.2% | 239.7hPa | 2.7V | 00:00:00 | 00:00:00 | 00:00:00 | |
| OE5FHM-15 | 2026-09-03 23:24:27 | 47.97385 | 11.98723 | 152° | 110km/h | 11128m | 3.8m/s | 0°C | 0% | 0hPa | 2.7V | 00:00:00 | 00:52:38 | 00:00:00 | |
| DG1MFX-10 | 2026-09-03 23:24:26 | 47.97409 | 11.98704 | 153° | 106km/h | 11124m | 3.6m/s | -50.0°C | 41.1% | 240.4hPa | 2.7V | 00:00:00 | 00:00:00 | 00:00:00 | |
| BAUMI2-15 | 2026-09-03 23:24:23 | 47.97481 | 11.98651 | 154° | 108km/h | 11112m | 4.9m/s | 0°C | 0% | 0hPa | 2.7V | 00:00:00 | 00:52:34 | 00:00:00 | |
| OE5MMP-10 | 2026-09-03 23:24:20 | 47.97555 | 11.98597 | 156° | 106km/h | 11100m | 3.9m/s | -49.7°C | 51.1% | 241.3hPa | 2.7V | 00:00:00 | 00:52:31 | 08:30:00 | |
| BAUMI2-15 | 2026-09-03 23:24:18 | 47.97605 | 11.98562 | 154° | 106km/h | 11093m | 4.4m/s | 0°C | 0% | 0hPa | 2.7V | 00:00:00 | 00:52:29 | 00:00:00 | |
| OE5DRO-10 | 2026-09-03 23:24:15 | 47.97676 | 11.98508 | 153° | 108km/h | 11081m | 3.8m/s | -49.6°C | 56.8% | 242.0hPa | 2.7V | 00:00:00 | 00:00:00 | 00:00:00 | |
| DO3MHA-11 | 2026-09-03 23:24:14 | 47.97699 | 11.98490 | 153° | 108km/h | 11077m | 3.4m/s | -49.6°C | 58.1% | 242.1hPa | 2.7V | 00:00:00 | 00:52:25 | 00:00:00 | |
| OE5MMP-10 | 2026-09-03 23:24:10 | 47.97796 | 11.98417 | 155° | 108km/h | 11061m | 2.9m/s | -49.5°C | 63.8% | 242.7hPa | 2.7V | 00:00:00 | 00:52:21 | 00:00:00 | |
| PG1ADW-2 | 2026-09-03 23:24:07 | 47.97871 | 11.98362 | 154° | 108km/h | 11050m | 3.6m/s | -49.4°C | 66.1% | 243.1hPa | 2.7V | 00:00:00 | 00:00:00 | 00:00:00 | |
| DG1MFX-10 | 2026-09-03 23:24:05 | 47.97895 | 11.98344 | 155° | 108km/h | 11046m | 3.8m/s | -49.5°C | 60.1% | 243.3hPa | 2.7V | 00:00:00 | 00:00:00 | 00:00:00 | |
| DO3MHA-11 | 2026-09-03 23:24:03 | 47.97968 | 11.98290 | 153° | 108km/h | 11036m | 3.7m/s | -49.3°C | 68.7% | 243.7hPa | 2.7V | 00:00:00 | 00:52:14 | 00:00:00 | |
| OE5MMP-10 | 2026-09-03 23:24:00 | 47.98040 | 11.98236 | 154° | 108km/h | 11023m | 4.5m/s | -49.2°C | 69.4% | 244.1hPa | 2.7V | 00:00:00 | 00:52:11 | 00:00:00 | |
| OE5WHR-10 | 2026-09-03 23:23:57 | 47.98114 | 11.98181 | 154° | 110km/h | 11011m | 4.1m/s | -49.1°C | 70.7% | 244.6hPa | 2.7V | 00:00:00 | 00:52:08 | 00:00:00 | |
| OE5DRO-10 | 2026-09-03 23:23:56 | 47.98138 | 11.98163 | 154° | 110km/h | 11008m | 2.9m/s | -49.1°C | 70.7% | 244.7hPa | 2.7V | 00:00:00 | 00:00:00 | 08:30:00 | |
| BAUMI2-15 | 2026-09-03 23:23:55 | 47.98162 | 11.98145 | 153° | 102km/h | 11004m | 4.6m/s | 0°C | 0% | 0hPa | 2.7V | 00:00:00 | 00:52:06 | 00:00:00 | |
| OE5MMP-10 | 2026-09-03 23:23:50 | 47.98283 | 11.98051 | 152° | 110km/h | 10983m | 3.8m/s | -48.9°C | 71.5% | 245.6hPa | 2.7V | 00:00:00 | 00:52:01 | 00:00:00 | |
| DO3MHA-11 | 2026-09-03 23:23:49 | 47.98307 | 11.98031 | 152° | 110km/h | 10980m | 3.9m/s | -48.9°C | 71.4% | 245.7hPa | 2.7V | 00:00:00 | 00:52:00 | 00:00:00 | |
| PG1ADW-2 | 2026-09-03 23:23:47 | 47.98356 | 11.97993 | 154° | 110km/h | 10972m | 3.0m/s | -48.8°C | 71.5% | 246.0hPa | 2.7V | 00:00:00 | 00:00:00 | 00:00:00 | |
| DG1MFX-10 | 2026-09-03 23:23:45 | 47.98406 | 11.97955 | 153° | 110km/h | 10964m | 3.8m/s | -48.8°C | 64.6% | 246.4hPa | 2.7V | 00:00:00 | 00:00:00 | 00:00:00 | |
| OE5MMP-10 | 2026-09-03 23:23:40 | 47.98529 | 11.97860 | 153° | 108km/h | 10944m | 3.7m/s | -48.5°C | 71.4% | 247.0hPa | 2.7V | 00:00:00 | 00:51:51 | 00:00:00 | |
| DO3MHA-11 | 2026-09-03 23:23:39 | 47.98554 | 11.97842 | 154° | 108km/h | 10940m | 4.6m/s | -48.5°C | 71.5% | 247.2hPa | 2.7V | 00:00:00 | 00:51:50 | 00:00:00 | |
| OE5WHR-10 | 2026-09-03 23:23:36 | 47.98627 | 11.97786 | 153° | 110km/h | 10927m | 3.2m/s | -48.4°C | 72.1% | 247.6hPa | 2.7V | 00:00:00 | 00:00:00 | 00:00:00 | |
| OE5DXL-15 | 2026-09-03 23:23:30 | 47.98773 | 11.97674 | 153° | 108km/h | 10904m | 4.6m/s | -48.2°C | 74.0% | 248.6hPa | 2.7V | 00:00:00 | 00:00:00 | 08:30:00 | |
| DO3MHA-11 | 2026-09-03 23:23:29 | 47.98798 | 11.97655 | 153° | 113km/h | 10900m | 3.1m/s | -48.2°C | 74.4% | 248.7hPa | 2.7V | 00:00:00 | 00:51:40 | 00:00:00 | |
| PG1ADW-2 | 2026-09-03 23:23:27 | 47.98848 | 11.97616 | 152° | 110km/h | 10892m | 4.1m/s | -48.1°C | 73.9% | 249.0hPa | 2.7V | 00:00:00 | 00:51:38 | 00:00:00 | |
| OE5FHM-15 | 2026-09-03 23:23:24 | 47.98923 | 11.97556 | 154° | 110km/h | 10881m | 3.3m/s | 0°C | 0% | 0hPa | 2.7V | 00:00:00 | 00:51:35 | 00:00:00 | |
| OE5MMP-10 | 2026-09-03 23:23:20 | 47.99026 | 11.97480 | 155° | 108km/h | 10866m | 4.6m/s | -47.9°C | 71.5% | 250.0hPa | 2.7V | 00:00:00 | 00:51:31 | 00:00:00 | |
| DO3MHA-11 | 2026-09-03 23:23:19 | 47.99051 | 11.97462 | 155° | 111km/h | 10862m | 2.9m/s | -47.9°C | 71.4% | 250.1hPa | 2.7V | 00:00:00 | 00:51:30 | 00:00:00 | |
| OE5DRO-10 | 2026-09-03 23:23:18 | 47.99077 | 11.97444 | 154° | 106km/h | 10858m | 5.1m/s | -47.8°C | 71.0% | 250.3hPa | 2.7V | 00:00:00 | 00:00:00 | 00:00:00 | |
| OE5WHR-10 | 2026-09-03 23:23:15 | 47.99149 | 11.97388 | 153° | 106km/h | 10844m | 4.9m/s | -47.7°C | 71.1% | 250.8hPa | 2.7V | 00:00:00 | 00:00:00 | 00:00:00 | |
| OE5MMP-10 | 2026-09-03 23:23:10 | 47.99270 | 11.97296 | 154° | 104km/h | 10824m | 3.9m/s | -47.5°C | 70.4% | 251.6hPa | 2.7V | 00:00:00 | 00:51:21 | 00:00:00 | |
| DO3MHA-11 | 2026-09-03 23:23:09 | 47.99294 | 11.97277 | 154° | 104km/h | 10820m | 4.2m/s | -47.4°C | 69.9% | 251.7hPa | 2.7V | 00:00:00 | 00:51:20 | 00:00:00 | |
| PG1ADW-2 | 2026-09-03 23:23:07 | 47.99343 | 11.97241 | 154° | 106km/h | 10812m | 3.7m/s | -47.4°C | 69.9% | 252.0hPa | 2.7V | 00:00:00 | 00:00:00 | 00:00:00 | |
| DG1MFX-10 | 2026-09-03 23:23:03 | 47.99413 | 11.97189 | 154° | 100km/h | 10801m | 5.0m/s | -47.3°C | 62.9% | 252.5hPa | 2.7V | 00:00:00 | 00:00:00 | 00:00:00 | |
| OE5MMP-10 | 2026-09-03 23:23:00 | 47.99506 | 11.97118 | 152° | 108km/h | 10784m | 3.8m/s | -47.2°C | 69.6% | 253.1hPa | 2.7V | 00:00:00 | 00:51:11 | 00:00:00 | |
| DO3MHA-11 | 2026-09-03 23:22:59 | 47.99529 | 11.97099 | 151° | 108km/h | 10780m | 4.7m/s | -47.1°C | 69.4% | 253.3hPa | 2.7V | 00:00:00 | 00:51:10 | 08:30:00 | |
| OE5WHR-10 | 2026-09-03 23:22:54 | 47.99653 | 11.97004 | 154° | 106km/h | 10759m | 4.0m/s | -47.0°C | 68.4% | 254.0hPa | 2.7V | 00:00:00 | 00:51:05 | 00:00:00 | |
| OE5MMP-10 | 2026-09-03 23:22:50 | 47.99750 | 11.96932 | 155° | 106km/h | 10743m | 3.6m/s | -46.8°C | 67.5% | 254.7hPa | 2.7V | 00:00:00 | 00:51:01 | 08:30:00 | |
| DO3MHA-11 | 2026-09-03 23:22:49 | 47.99773 | 11.96916 | 155° | 104km/h | 10739m | 4.8m/s | -46.8°C | 65.8% | 254.8hPa | 2.7V | 00:00:00 | 00:51:00 | 00:00:00 | |
| PG1ADW-2 | 2026-09-03 23:22:47 | 47.99822 | 11.96879 | 154° | 104km/h | 10729m | 4.3m/s | -46.7°C | 65.5% | 255.2hPa | 2.7V | 00:00:00 | 00:00:00 | 08:30:00 | |
| OE5MMP-10 | 2026-09-03 23:22:40 | 47.99988 | 11.96750 | 153° | 104km/h | 10700m | 3.6m/s | -46.4°C | 63.5% | 256.3hPa | 2.7V | 00:00:00 | 00:50:51 | 00:00:00 | |
| DO3MHA-11 | 2026-09-03 23:22:39 | 48.00012 | 11.96732 | 154° | 102km/h | 10696m | 4.3m/s | -46.4°C | 62.6% | 256.4hPa | 2.7V | 00:00:00 | 00:50:50 | 00:00:00 | |
| OE5WHR-10 | 2026-09-03 23:22:33 | 48.00154 | 11.96631 | 156° | 102km/h | 10668m | 5.4m/s | -46.1°C | 60.5% | 257.6hPa | 2.7V | 00:00:00 | 00:00:00 | 00:00:00 | |
| OE5MMP-10 | 2026-09-03 23:22:30 | 48.00224 | 11.96581 | 153° | 102km/h | 10655m | 3.5m/s | -46.0°C | 59.5% | 258.1hPa | 2.7V | 00:00:00 | 00:50:41 | 00:00:00 | |
| DO3MHA-11 | 2026-09-03 23:22:27 | 48.00293 | 11.96527 | 154° | 102km/h | 10642m | 3.3m/s | -45.8°C | 58.4% | 258.5hPa | 2.7V | 00:00:00 | 00:50:38 | 00:00:00 | |
| PG1ADW-2 | 2026-09-03 23:22:26 | 48.00316 | 11.96510 | 154° | 102km/h | 10638m | 4.8m/s | -45.8°C | 57.5% | 258.7hPa | 2.7V | 00:00:00 | 00:00:00 | 00:00:00 | |
| DG1MFX-10 | 2026-09-03 23:22:22 | 48.00384 | 11.96458 | 154° | 104km/h | 10626m | 4.4m/s | -45.7°C | 50.5% | 259.3hPa | 2.7V | 00:00:00 | 00:00:00 | 00:00:00 | |
| OE5DRO-10 | 2026-09-03 23:22:21 | 48.00432 | 11.96424 | 155° | 100km/h | 10618m | 4.7m/s | -45.6°C | 54.4% | 259.5hPa | 2.7V | 00:00:00 | 00:00:00 | 00:00:00 | |
| OE5MMP-10 | 2026-09-03 23:22:20 | 48.00455 | 11.96407 | 155° | 102km/h | 10613m | 4.1m/s | -45.6°C | 54.5% | 259.7hPa | 2.7V | 00:00:00 | 00:50:31 | 00:00:00 | |
| DO3MHA-11 | 2026-09-03 23:22:17 | 48.00524 | 11.96356 | 154° | 102km/h | 10600m | 4.0m/s | -45.5°C | 53.9% | 260.2hPa | 2.7V | 00:00:00 | 00:50:28 | 00:00:00 | |
| OE5WHR-10 | 2026-09-03 23:22:12 | 48.00640 | 11.96269 | 154° | 100km/h | 10579m | 3.2m/s | -45.3°C | 53.1% | 261.0hPa | 2.7V | 00:00:00 | 00:00:00 | 00:00:00 | |
| OE5MMP-10 | 2026-09-03 23:22:10 | 48.00686 | 11.96235 | 154° | 99km/h | 10571m | 3.9m/s | -45.2°C | 52.4% | 261.4hPa | 2.7V | 00:00:00 | 00:50:21 | 00:00:00 | |
| DO3MHA-11 | 2026-09-03 23:22:07 | 48.00755 | 11.96184 | 154° | 99km/h | 10559m | 4.0m/s | -45.1°C | 51.9% | 261.8hPa | 2.7V | 00:00:00 | 00:50:18 | 00:00:00 | |
| PG1ADW-2 | 2026-09-03 23:22:05 | 48.00800 | 11.96151 | 154° | 100km/h | 10551m | 3.4m/s | -45.0°C | 51.5% | 262.2hPa | 2.7V | 00:00:00 | 00:50:16 | 00:00:00 | |
| DL6DJ-15 | 2026-09-03 23:21:46 | 48.01227 | 11.95825 | 152° | 97km/h | 10472m | 5.4m/s | -44.3°C | 41.6% | 265.3hPa | 2.7V | 00:00:00 | 00:00:00 | 00:00:00 | |
| PG1ADW-2 | 2026-09-03 23:21:45 | 48.01249 | 11.95808 | 154° | 99km/h | 10467m | 4.8m/s | -44.2°C | 46.2% | 265.5hPa | 2.7V | 00:00:00 | 00:00:00 | 00:00:00 | |
| OE5DRO-10 | 2026-09-03 23:21:43 | 48.01295 | 11.95775 | 154° | 99km/h | 10459m | 4.7m/s | -44.1°C | 45.4% | 265.8hPa | 2.7V | 00:00:00 | 00:00:00 | 00:00:00 | |
| DG1MFX-10 | 2026-09-03 23:21:41 | 48.01318 | 11.95758 | 154° | 100km/h | 10455m | 3.8m/s | -44.1°C | 40.8% | 266.0hPa | 2.7V | 00:00:00 | 00:00:00 | 00:00:00 | |
| OE5MMP-10 | 2026-09-03 23:21:40 | 48.01364 | 11.95725 | 156° | 97km/h | 10446m | 3.9m/s | -44.0°C | 45.3% | 266.3hPa | 2.7V | 00:00:00 | 00:49:51 | 00:00:00 | |
| DO3MHA-11 | 2026-09-03 23:21:37 | 48.01431 | 11.95680 | 153° | 99km/h | 10434m | 5.8m/s | -43.8°C | 44.3% | 266.8hPa | 2.7V | 00:00:00 | 00:49:48 | 00:00:00 | |
| OE5WHR-10 | 2026-09-03 23:21:30 | 48.01584 | 11.95559 | 158° | 97km/h | 10402m | 6.1m/s | -43.5°C | 42.6% | 268.0hPa | 2.7V | 00:00:00 | 00:00:00 | 08:30:00 | |
| DO3MHA-11 | 2026-09-03 23:21:27 | 48.01654 | 11.95513 | 156° | 97km/h | 10388m | 5.1m/s | -43.4°C | 42.4% | 268.6hPa | 2.7V | 00:00:00 | 00:49:38 | 08:30:00 | |
| PG1ADW-2 | 2026-09-03 23:21:25 | 48.01698 | 11.95480 | 152° | 95km/h | 10377m | 4.4m/s | -43.3°C | 42.2% | 269.0hPa | 2.7V | 00:00:00 | 00:00:00 | 00:00:00 | |
| OE5DRO-10 | 2026-09-03 23:21:24 | 48.01719 | 11.95463 | 152° | 97km/h | 10372m | 4.6m/s | -43.3°C | 42.2% | 269.2hPa | 2.7V | 00:00:00 | 00:00:00 | 00:00:00 | |
| OE5MMP-10 | 2026-09-03 23:21:20 | 48.01803 | 11.95394 | 152° | 97km/h | 10353m | 3.4m/s | -43.1°C | 42.5% | 270.0hPa | 2.7V | 00:00:00 | 00:49:31 | 08:30:00 | |
| DO3MHA-11 | 2026-09-03 23:21:17 | 48.01870 | 11.95340 | 153° | 95km/h | 10338m | 4.5m/s | -42.9°C | 43.0% | 270.6hPa | 2.7V | 00:00:00 | 00:49:28 | 00:00:00 | |
| DL6DJ-15 | 2026-09-03 23:21:15 | 48.01936 | 11.95291 | 154° | 93km/h | 10324m | 3.4m/s | -42.9°C | 40.8% | 271.2hPa | 2.7V | 00:00:00 | 00:00:00 | 00:00:00 | |
| BAUMI2-15 | 2026-09-03 23:21:11 | 48.01999 | 11.95243 | 153° | 95km/h | 10308m | 4.2m/s | 0°C | 0% | 0hPa | 2.7V | 00:00:00 | 00:49:22 | 00:00:00 | |
| OE5MMP-10 | 2026-09-03 23:21:10 | 48.02021 | 11.95227 | 154° | 95km/h | 10304m | 4.9m/s | -42.7°C | 47.4% | 271.9hPa | 2.7V | 00:00:00 | 00:49:21 | 00:00:00 | |
| OE5WHR-10 | 2026-09-03 23:21:09 | 48.02042 | 11.95211 | 155° | 95km/h | 10299m | 3.7m/s | -42.7°C | 47.9% | 272.1hPa | 2.7V | 00:00:00 | 00:00:00 | 00:00:00 | |
| DO3MHA-11 | 2026-09-03 23:21:07 | 48.02086 | 11.95180 | 155° | 95km/h | 10291m | 5.3m/s | -42.6°C | 48.0% | 272.5hPa | 2.7V | 00:00:00 | 00:49:18 | 00:00:00 | |
| OE5FHM-15 | 2026-09-03 23:21:06 | 48.02108 | 11.95164 | 155° | 93km/h | 10286m | 3.8m/s | 0°C | 0% | 0hPa | 2.7V | 00:00:00 | 00:49:17 | 00:00:00 | |
| PG1ADW-2 | 2026-09-03 23:21:05 | 48.02129 | 11.95149 | 155° | 95km/h | 10282m | 4.4m/s | -42.5°C | 47.8% | 272.8hPa | 2.7V | 00:00:00 | 00:00:00 | 00:00:00 | |
| BAUMI2-15 | 2026-09-03 23:21:03 | 48.02173 | 11.95120 | 156° | 95km/h | 10275m | 3.0m/s | 0°C | 0% | 0hPa | 2.7V | 00:00:00 | 00:49:14 | 00:00:00 | |
| OE5MMP-10 | 2026-09-03 23:21:00 | 48.02236 | 11.95075 | 155° | 97km/h | 10263m | 3.8m/s | -42.3°C | 47.0% | 273.6hPa | 2.7V | 00:00:00 | 00:49:11 | 00:00:00 | |
| DO3MHA-11 | 2026-09-03 23:20:57 | 48.02301 | 11.95027 | 154° | 97km/h | 10250m | 5.2m/s | -42.2°C | 46.5% | 274.2hPa | 2.7V | 00:00:00 | 00:49:08 | 00:00:00 | |
| OE5MMP-10 | 2026-09-03 23:20:50 | 48.02455 | 11.94912 | 153° | 93km/h | 10219m | 4.2m/s | -41.9°C | 45.1% | 275.4hPa | 2.7V | 00:00:00 | 00:49:01 | 00:00:00 | |
| OE5WHR-10 | 2026-09-03 23:20:48 | 48.02497 | 11.94879 | 152° | 95km/h | 10210m | 4.5m/s | -41.8°C | 44.6% | 275.7hPa | 2.7V | 00:00:00 | 00:48:59 | 00:00:00 | |
| DO3MHA-11 | 2026-09-03 23:20:47 | 48.02518 | 11.94862 | 152° | 95km/h | 10206m | 4.3m/s | -41.8°C | 44.6% | 275.9hPa | 2.7V | 00:00:00 | 00:48:58 | 00:00:00 | |
| OE5DRO-10 | 2026-09-03 23:20:46 | 48.02538 | 11.94846 | 152° | 95km/h | 10202m | 3.6m/s | -41.8°C | 44.2% | 276.0hPa | 2.7V | 00:00:00 | 00:00:00 | 00:00:00 | |
| PG1ADW-2 | 2026-09-03 23:20:45 | 48.02558 | 11.94830 | 153° | 95km/h | 10198m | 5.2m/s | -41.7°C | 43.8% | 276.2hPa | 2.7V | 00:00:00 | 00:48:56 | 00:00:00 | |
| DL6DJ-15 | 2026-09-03 23:20:44 | 48.02580 | 11.94814 | 153° | 93km/h | 10193m | 3.9m/s | -41.7°C | 39.7% | 276.6hPa | 2.7V | 00:00:00 | 00:00:00 | 00:00:00 | |
| OE5MMP-10 | 2026-09-03 23:20:40 | 48.02665 | 11.94747 | 153° | 95km/h | 10176m | 4.9m/s | -41.5°C | 42.2% | 277.1hPa | 2.7V | 00:00:00 | 00:48:51 | 00:00:00 | |
| DG1MFX-10 | 2026-09-03 23:20:39 | 48.02665 | 11.94747 | 153° | 97km/h | 10176m | 4.9m/s | -41.6°C | 38.2% | 277.2hPa | 2.7V | 00:00:00 | 00:00:00 | 00:00:00 | |
| DO3MHA-11 | 2026-09-03 23:20:37 | 48.02729 | 11.94697 | 151° | 93km/h | 10163m | 5.2m/s | -41.4°C | 41.2% | 277.6hPa | 2.7V | 00:00:00 | 00:48:48 | 00:00:00 | |
| OE5MMP-10 | 2026-09-03 23:20:30 | 48.02873 | 11.94567 | 151° | 93km/h | 10133m | 4.6m/s | -41.1°C | 40.6% | 278.8hPa | 2.7V | 00:00:00 | 00:48:41 | 00:00:00 | |
| OE5WHR-10 | 2026-09-03 23:20:27 | 48.02936 | 11.94517 | 153° | 93km/h | 10120m | 3.3m/s | -41.0°C | 40.9% | 279.4hPa | 2.7V | 00:00:00 | 00:00:00 | 00:00:00 | |
| PG1ADW-2 | 2026-09-03 23:20:25 | 48.02977 | 11.94485 | 152° | 93km/h | 10112m | 4.4m/s | -41.0°C | 41.0% | 279.7hPa | 2.7V | 00:00:00 | 00:00:00 | 00:00:00 | |
| OE5MMP-10 | 2026-09-03 23:20:20 | 48.03079 | 11.94393 | 149° | 95km/h | 10093m | 4.2m/s | -40.8°C | 40.7% | 280.6hPa | 2.7V | 00:00:00 | 00:48:31 | 00:00:00 | |
| DG1MFX-10 | 2026-09-03 23:20:19 | 48.03101 | 11.94375 | 151° | 97km/h | 10089m | 3.1m/s | -40.8°C | 36.9% | 280.7hPa | 2.7V | 00:00:00 | 00:00:00 | 00:00:00 | |
| BAUMI2-15 | 2026-09-03 23:20:17 | 48.03142 | 11.94338 | 151° | 93km/h | 10081m | 3.6m/s | 0°C | 0% | 0hPa | 2.7V | 00:00:00 | 00:48:28 | 00:00:00 | |
| DB0UT-7 | 2026-09-03 23:20:14 | 48.03205 | 11.94286 | 150° | 93km/h | 10069m | 3.4m/s | -40.5°C | 41.5% | 281.5hPa | 2.7V | 00:00:00 | 00:00:00 | 08:30:00 | |
| DL6DJ-15 | 2026-09-03 23:20:13 | 48.03225 | 11.94268 | 149° | 91km/h | 10065m | 4.8m/s | -40.6°C | 38.1% | 281.8hPa | 2.7V | 00:00:00 | 00:00:00 | 00:00:00 | |
| BAUMI2-15 | 2026-09-03 23:20:12 | 48.03245 | 11.94251 | 150° | 95km/h | 10061m | 2.8m/s | 0°C | 0% | 0hPa | 2.7V | 00:00:00 | 00:48:23 | 00:00:00 | |
| DO3MHA-11 | 2026-09-03 23:20:10 | 48.03285 | 11.94216 | 150° | 93km/h | 10053m | 4.4m/s | -40.4°C | 43.5% | 282.2hPa | 2.7V | 00:00:00 | 00:48:21 | 00:00:00 | |
| OE5DRO-10 | 2026-09-03 23:20:08 | 48.03326 | 11.94180 | 150° | 93km/h | 10045m | 3.6m/s | -40.4°C | 44.7% | 282.5hPa | 2.7V | 00:00:00 | 00:00:00 | 00:00:00 | |
| OE5WHR-10 | 2026-09-03 23:20:06 | 48.03366 | 11.94145 | 149° | 95km/h | 10037m | 3.6m/s | -40.3°C | 45.9% | 282.9hPa | 2.7V | 00:00:00 | 00:00:00 | 00:00:00 | |
| PG1ADW-2 | 2026-09-03 23:20:05 | 48.03386 | 11.94127 | 149° | 95km/h | 10032m | 4.9m/s | -40.3°C | 46.6% | 283.0hPa | 2.7V | 00:00:00 | 00:00:00 | 00:00:00 | |
| OE5MMP-10 | 2026-09-03 23:20:00 | 48.03488 | 11.94034 | 150° | 95km/h | 10012m | 4.4m/s | -40.2°C | 53.8% | 283.9hPa | 2.7V | 00:00:00 | 00:48:11 | 00:00:00 | |
| DG1MFX-10 | 2026-09-03 23:19:58 | 48.03510 | 11.94015 | 150° | 99km/h | 10008m | 3.7m/s | -40.2°C | 49.9% | 284.1hPa | 2.7V | 00:00:00 | 00:00:00 | 00:00:00 | |
| BAUMI2-15 | 2026-09-03 23:19:57 | 48.03552 | 11.93978 | 151° | 91km/h | 10001m | 4.8m/s | 0°C | 0% | 0hPa | 2.7V | 00:00:00 | 00:48:08 | 00:00:00 | |
| OE5MMP-10 | 2026-09-03 23:19:50 | 48.03695 | 11.93857 | 148° | 93km/h | 9971m | 4.2m/s | -40.0°C | 55.2% | 285.6hPa | 2.7V | 00:00:00 | 00:48:01 | 08:30:00 | |
| OE5DRO-10 | 2026-09-03 23:19:49 | 48.03715 | 11.93838 | 148° | 91km/h | 9968m | 2.9m/s | -39.9°C | 55.3% | 285.8hPa | 2.7V | 00:00:00 | 00:00:00 | 00:00:00 | |
| PG1ADW-2 | 2026-09-03 23:19:45 | 48.03796 | 11.93761 | 149° | 91km/h | 9952m | 4.0m/s | -39.8°C | 54.2% | 286.4hPa | 2.7V | 00:00:00 | 00:00:00 | 08:30:00 | |
| OE5WHR-10 | 2026-09-03 23:19:44 | 48.03817 | 11.93742 | 150° | 89km/h | 9949m | 2.8m/s | -39.8°C | 54.2% | 286.5hPa | 2.7V | 00:00:00 | 00:47:55 | 00:00:00 | |
| DL6DJ-15 | 2026-09-03 23:19:42 | 48.03857 | 11.93706 | 148° | 89km/h | 9941m | 4.3m/s | -39.8°C | 49.1% | 286.9hPa | 2.7V | 00:00:00 | 00:00:00 | 00:00:00 | |
| OE5MMP-10 | 2026-09-03 23:19:40 | 48.03896 | 11.93669 | 147° | 89km/h | 9933m | 4.6m/s | -39.6°C | 52.9% | 287.3hPa | 2.7V | 00:00:00 | 00:47:51 | 00:00:00 | |
| DG1MFX-10 | 2026-09-03 23:19:38 | 48.03915 | 11.93650 | 147° | 91km/h | 9929m | 4.2m/s | -39.6°C | 48.5% | 287.5hPa | 2.7V | 00:00:00 | 00:00:00 | 00:00:00 | |
| DO3MHA-11 | 2026-09-03 23:19:30 | 48.04087 | 11.93484 | 148° | 91km/h | 9889m | 4.3m/s | -39.3°C | 50.5% | 289.1hPa | 2.7V | 00:00:00 | 00:47:41 | 00:00:00 | |
| PG1ADW-2 | 2026-09-03 23:19:25 | 48.04181 | 11.93384 | 146° | 91km/h | 9869m | 3.9m/s | -39.1°C | 49.6% | 290.0hPa | 2.7V | 00:00:00 | 00:47:36 | 00:00:00 | |
| OE5MMP-10 | 2026-09-03 23:19:20 | 48.04275 | 11.93289 | 147° | 93km/h | 9848m | 3.9m/s | -38.9°C | 48.4% | 290.8hPa | 2.7V | 00:00:00 | 00:47:31 | 00:00:00 | |
| DG1MFX-10 | 2026-09-03 23:19:17 | 48.04314 | 11.93248 | 146° | 93km/h | 9840m | 4.2m/s | -38.8°C | 44.1% | 291.2hPa | 2.7V | 00:00:00 | 00:00:00 | 00:00:00 | |
| OE5DRO-10 | 2026-09-03 23:19:11 | 48.04447 | 11.93107 | 144° | 91km/h | 9812m | 4.3m/s | -38.5°C | 45.8% | 292.4hPa | 2.7V | 00:00:00 | 00:00:00 | 00:00:00 | |
| DO3MHA-11 | 2026-09-03 23:19:10 | 48.04464 | 11.93087 | 144° | 89km/h | 9808m | 4.2m/s | -38.5°C | 45.6% | 292.5hPa | 2.7V | 00:00:00 | 00:47:21 | 00:00:00 | |
| PG1ADW-2 | 2026-09-03 23:19:05 | 48.04555 | 11.92983 | 144° | 93km/h | 9787m | 4.1m/s | -38.3°C | 42.0% | 293.4hPa | 2.7V | 00:00:00 | 00:00:00 | 00:00:00 | |
| OE5MMP-10 | 2026-09-03 23:19:00 | 48.04651 | 11.92879 | 145° | 91km/h | 9765m | 3.5m/s | -38.1°C | 41.3% | 294.3hPa | 2.7V | 00:00:00 | 00:47:11 | 00:00:00 | |
| DG1MFX-10 | 2026-09-03 23:18:57 | 48.04688 | 11.92840 | 145° | 86km/h | 9757m | 4.1m/s | -38.1°C | 38.0% | 294.7hPa | 2.7V | 00:00:00 | 00:00:00 | 00:00:00 | |
| DO3MHA-11 | 2026-09-03 23:18:54 | 48.04759 | 11.92763 | 143° | 93km/h | 9739m | 4.0m/s | -37.8°C | 40.6% | 295.4hPa | 2.7V | 00:00:00 | 00:47:05 | 00:00:00 | |
| OE5DRO-10 | 2026-09-03 23:18:52 | 48.04797 | 11.92719 | 143° | 89km/h | 9730m | 5.3m/s | -37.7°C | 39.3% | 295.9hPa | 2.7V | 00:00:00 | 00:00:00 | 00:00:00 | |
| OE5MMP-10 | 2026-09-03 23:18:50 | 48.04836 | 11.92678 | 146° | 89km/h | 9719m | 4.6m/s | -37.6°C | 39.3% | 296.3hPa | 2.7V | 00:00:00 | 00:47:01 | 00:00:00 | |
| PG1ADW-2 | 2026-09-03 23:18:45 | 48.04932 | 11.92575 | 141° | 88km/h | 9691m | 5.6m/s | -37.4°C | 38.5% | 297.4hPa | 2.7V | 00:00:00 | 00:00:00 | 00:00:00 | |
| OE5MMP-10 | 2026-09-03 23:18:40 | 48.05016 | 11.92476 | 143° | 89km/h | 9664m | 5.7m/s | -37.1°C | 37.4% | 298.7hPa | 2.9V | 00:00:00 | 00:46:51 | 00:00:00 | |
| DG1MFX-10 | 2026-09-03 23:18:36 | 48.05071 | 11.92413 | 146° | 91km/h | 9648m | 6.4m/s | -37.0°C | 33.6% | 299.4hPa | 2.9V | 00:00:00 | 00:00:00 | 00:00:00 | |
| DO3MHA-11 | 2026-09-03 23:18:33 | 48.05142 | 11.92338 | 144° | 91km/h | 9627m | 6.2m/s | -36.8°C | 35.0% | 300.3hPa | 2.9V | 00:00:00 | 00:46:44 | 00:00:00 | |
| OE5WHR-10 | 2026-09-03 23:18:32 | 48.05160 | 11.92318 | 145° | 89km/h | 9621m | 5.1m/s | -36.7°C | 34.7% | 300.5hPa | 2.7V | 00:00:00 | 00:00:00 | 00:00:00 | |
| OE5MMP-10 | 2026-09-03 23:18:30 | 48.05196 | 11.92277 | 142° | 91km/h | 9612m | 5.5m/s | -36.6°C | 33.8% | 300.9hPa | 2.9V | 00:00:00 | 00:46:41 | 00:00:00 | |
| PG1ADW-2 | 2026-09-03 23:18:25 | 48.05287 | 11.92169 | 143° | 89km/h | 9589m | 4.6m/s | -36.4°C | 33.1% | 301.9hPa | 2.9V | 00:00:00 | 00:00:00 | 00:00:00 | |
| DO3MHA-11 | 2026-09-03 23:18:23 | 48.05325 | 11.92127 | 145° | 89km/h | 9580m | 5.3m/s | -36.3°C | 32.6% | 302.2hPa | 2.9V | 00:00:00 | 00:46:34 | 00:00:00 | |
| OE5MMP-10 | 2026-09-03 23:18:20 | 48.05380 | 11.92070 | 144° | 89km/h | 9566m | 4.9m/s | -36.2°C | 32.0% | 302.9hPa | 2.9V | 00:00:00 | 00:46:31 | 08:30:00 | |
| DB0UT-7 | 2026-09-03 23:18:18 | 48.05415 | 11.92029 | 141° | 88km/h | 9557m | 4.1m/s | -36.1°C | 31.5% | 303.3hPa | 2.9V | 00:00:00 | 00:46:29 | 00:00:00 | |
| DG1MFX-10 | 2026-09-03 23:18:15 | 48.05450 | 11.91988 | 143° | 88km/h | 9547m | 4.6m/s | -36.0°C | 28.4% | 303.8hPa | 2.9V | 00:00:00 | 00:00:00 | 00:00:00 | |
| OE5DRO-10 | 2026-09-03 23:18:14 | 48.05485 | 11.91946 | 143° | 89km/h | 9537m | 5.4m/s | -35.9°C | 30.8% | 304.1hPa | 2.9V | 00:00:00 | 00:00:00 | 08:30:00 | |
| DO3MHA-11 | 2026-09-03 23:18:13 | 48.05504 | 11.91925 | 143° | 91km/h | 9533m | 3.8m/s | -35.8°C | 30.7% | 304.4hPa | 2.7V | 00:00:00 | 00:46:24 | 00:00:00 | |
| OE5WHR-10 | 2026-09-03 23:18:11 | 48.05541 | 11.91884 | 146° | 89km/h | 9523m | 3.3m/s | -35.8°C | 30.3% | 304.8hPa | 2.7V | 00:00:00 | 00:00:00 | 00:00:00 | |
| OE5MMP-10 | 2026-09-03 23:18:10 | 48.05560 | 11.91864 | 145° | 89km/h | 9520m | 4.0m/s | -35.7°C | 30.1% | 304.9hPa | 2.7V | 00:00:00 | 00:46:21 | 00:00:00 | |
| DL6DJ-15 | 2026-09-03 23:18:09 | 48.05597 | 11.91823 | 140° | 89km/h | 9510m | 3.8m/s | -35.7°C | 27.1% | 305.4hPa | 2.7V | 00:00:00 | 00:00:00 | 00:00:00 | |
| PG1ADW-2 | 2026-09-03 23:18:05 | 48.05648 | 11.91760 | 143° | 88km/h | 9498m | 5.2m/s | -35.5°C | 29.3% | 305.9hPa | 2.7V | 00:00:00 | 00:46:16 | 00:00:00 | |
| DO3MHA-11 | 2026-09-03 23:18:03 | 48.05685 | 11.91721 | 146° | 86km/h | 9489m | 3.9m/s | -35.4°C | 29.0% | 306.3hPa | 2.7V | 00:00:00 | 00:46:14 | 08:30:00 | |
| OE5MMP-10 | 2026-09-03 23:18:00 | 48.05740 | 11.91662 | 143° | 88km/h | 9477m | 3.1m/s | -35.3°C | 28.4% | 306.9hPa | 2.9V | 00:00:00 | 00:46:11 | 00:00:00 | |
| OE5DRO-10 | 2026-09-03 23:17:55 | 48.05829 | 11.91558 | 144° | 86km/h | 9456m | 3.3m/s | -35.1°C | 27.0% | 307.8hPa | 2.9V | 00:00:00 | 00:00:00 | 00:00:00 | |
| DG1MFX-10 | 2026-09-03 23:17:54 | 48.05829 | 11.91558 | 144° | 88km/h | 9456m | 3.4m/s | -35.2°C | 24.5% | 307.8hPa | 2.9V | 00:00:00 | 00:00:00 | 00:00:00 | |
| OE5MMP-10 | 2026-09-03 23:17:50 | 48.05916 | 11.91459 | 144° | 84km/h | 9435m | 4.1m/s | -34.9°C | 25.8% | 308.6hPa | 2.9V | 00:00:00 | 00:46:01 | 00:00:00 | |
| DO3MHA-11 | 2026-09-03 23:17:47 | 48.05967 | 11.91401 | 141° | 86km/h | 9423m | 2.9m/s | -34.8°C | 25.8% | 309.2hPa | 2.9V | 00:00:00 | 00:45:58 | 00:00:00 | |
| PG1ADW-2 | 2026-09-03 23:17:45 | 48.06000 | 11.91362 | 143° | 86km/h | 9416m | 4.2m/s | -34.7°C | 25.4% | 309.6hPa | 2.9V | 00:00:00 | 00:00:00 | 00:00:00 | |
| OE5MMP-10 | 2026-09-03 23:17:40 | 48.06084 | 11.91260 | 142° | 86km/h | 9396m | 4.8m/s | -34.5°C | 24.6% | 310.4hPa | 2.9V | 00:00:00 | 00:45:51 | 00:00:00 | |
| DL6DJ-15 | 2026-09-03 23:17:38 | 48.06137 | 11.91197 | 141° | 86km/h | 9383m | 3.4m/s | -34.5°C | 22.2% | 311.0hPa | 2.9V | 00:00:00 | 00:00:00 | 00:00:00 | |
| DO3MHA-11 | 2026-09-03 23:17:37 | 48.06137 | 11.91197 | 142° | 84km/h | 9384m | 3.4m/s | -34.4°C | 24.6% | 311.0hPa | 2.9V | 00:00:00 | 00:45:48 | 00:00:00 | |
| OE5DRO-10 | 2026-09-03 23:17:36 | 48.06154 | 11.91177 | 143° | 86km/h | 9380m | 4.5m/s | -34.4°C | 24.4% | 311.1hPa | 2.9V | 00:00:00 | 00:00:00 | 00:00:00 | |
| DG1MFX-10 | 2026-09-03 23:17:34 | 48.06171 | 11.91157 | 144° | 84km/h | 9375m | 3.7m/s | -34.4°C | 22.0% | 311.4hPa | 2.9V | 00:00:00 | 00:00:00 | 00:00:00 | |
| OE5DXL-15 | 2026-09-03 23:17:30 | 48.06252 | 11.91058 | 140° | 86km/h | 9356m | 3.9m/s | -34.1°C | 24.0% | 312.2hPa | 2.9V | 00:00:00 | 00:00:00 | 00:00:00 | |
| DO3MHA-11 | 2026-09-03 23:17:27 | 48.06302 | 11.90995 | 140° | 88km/h | 9344m | 3.6m/s | -34.0°C | 23.9% | 312.8hPa | 2.7V | 00:00:00 | 00:45:38 | 00:00:00 | |
| PG1ADW-2 | 2026-09-03 23:17:25 | 48.06337 | 11.90953 | 142° | 86km/h | 9337m | 3.7m/s | -34.0°C | 23.7% | 313.1hPa | 2.9V | 00:00:00 | 00:00:00 | 00:00:00 | |
| OE5MMP-10 | 2026-09-03 23:17:20 | 48.06422 | 11.90849 | 141° | 86km/h | 9317m | 3.6m/s | -33.8°C | 23.6% | 313.9hPa | 2.9V | 00:00:00 | 00:45:31 | 00:00:00 | |
| DG1MFX-10 | 2026-09-03 23:17:15 | 48.06503 | 11.90747 | 141° | 86km/h | 9295m | 5.0m/s | -33.6°C | 21.3% | 314.9hPa | 2.9V | 00:00:00 | 00:00:00 | 00:00:00 | |
| BAUMI2-15 | 2026-09-03 23:17:12 | 48.06555 | 11.90682 | 142° | 89km/h | 9283m | 3.7m/s | 0°C | 0% | 0hPa | 2.9V | 00:00:00 | 00:45:23 | 00:00:00 | |
| OE5MMP-10 | 2026-09-03 23:17:10 | 48.06590 | 11.90639 | 140° | 84km/h | 9275m | 4.1m/s | -33.4°C | 23.7% | 315.8hPa | 2.9V | 00:00:00 | 00:45:21 | 00:00:00 | |
| OE5WHR-10 | 2026-09-03 23:17:08 | 48.06625 | 11.90596 | 141° | 86km/h | 9268m | 4.5m/s | -33.3°C | 23.7% | 316.1hPa | 2.9V | 00:00:00 | 00:00:00 | 00:00:00 | |
| DF3TZ-5 | 2026-09-03 23:17:07 | 48.06657 | 11.90556 | 139° | 80km/h | 9260m | 3.9m/s | -33.3°C | -1.0% | -1.0hPa | 2.9V | 00:00:00 | 00:00:00 | 00:00:00 | |
| PG1ADW-2 | 2026-09-03 23:17:05 | 48.06673 | 11.90535 | 140° | 88km/h | 9256m | 4.2m/s | -33.2°C | 24.1% | 316.7hPa | 2.9V | 00:00:00 | 00:00:00 | 00:00:00 | |
| OE5MMP-10 | 2026-09-03 23:17:00 | 48.06752 | 11.90435 | 139° | 89km/h | 9237m | 4.8m/s | -33.1°C | 24.2% | 317.5hPa | 2.9V | 00:00:00 | 00:45:11 | 00:00:00 | |
| OE5DRO-10 | 2026-09-03 23:16:58 | 48.06786 | 11.90390 | 139° | 89km/h | 9229m | 3.8m/s | -33.0°C | 24.2% | 317.9hPa | 2.9V | 00:00:00 | 00:00:00 | 00:00:00 | |
| DO3MHA-11 | 2026-09-03 23:16:57 | 48.06803 | 11.90368 | 139° | 88km/h | 9225m | 4.2m/s | -32.9°C | 24.3% | 318.1hPa | 2.9V | 00:00:00 | 00:45:08 | 00:00:00 | |
| DG1MFX-10 | 2026-09-03 23:16:54 | 48.06838 | 11.90322 | 139° | 91km/h | 9218m | 3.5m/s | -32.9°C | 22.0% | 318.4hPa | 2.9V | 00:00:00 | 00:00:00 | 00:00:00 | |
| Es werden nur die letzten 3500 von 3914 Frames angezeigt. GPX/KML und Diagramme bleiben verfügbar. | |||||||||||||||